<?xml version='1.0' encoding='UTF-8'?><gpx version="1.1" creator="JPX - https://github.com/jenetics/jpx" xmlns="http://www.topografix.com/GPX/1/1"><trk><trkseg><trkpt lat="43.4635317" lon="11.4311933"><ele>347.0</ele><time>2026-04-03T11:57:33.27Z</time></trkpt><trkpt lat="43.4635717" lon="11.4310933"><ele>347.0</ele><time>2026-04-03T11:59:14.271Z</time></trkpt><trkpt lat="43.4635233" lon="11.4310167"><ele>347.0</ele><time>2026-04-03T11:59:16.271Z</time></trkpt><trkpt lat="43.4634817" lon="11.430915"><ele>347.0</ele><time>2026-04-03T11:59:18.271Z</time></trkpt><trkpt lat="43.4633633" lon="11.43073"><ele>347.0</ele><time>2026-04-03T11:59:20.27Z</time></trkpt><trkpt lat="43.4632667" lon="11.4306167"><ele>347.0</ele><time>2026-04-03T11:59:21.27Z</time></trkpt><trkpt lat="43.4631933" lon="11.4304933"><ele>347.0</ele><time>2026-04-03T11:59:22.27Z</time></trkpt><trkpt lat="43.4631317" lon="11.43038"><ele>347.0</ele><time>2026-04-03T11:59:23.27Z</time></trkpt><trkpt lat="43.463065" lon="11.4302633"><ele>347.0</ele><time>2026-04-03T11:59:24.27Z</time></trkpt><trkpt lat="43.4630017" lon="11.4301367"><ele>347.0</ele><time>2026-04-03T11:59:25.27Z</time></trkpt><trkpt lat="43.4629483" lon="11.429955"><ele>346.75</ele><time>2026-04-03T11:59:26.27Z</time></trkpt><trkpt lat="43.462865" lon="11.42981"><ele>346.5</ele><time>2026-04-03T11:59:27.27Z</time></trkpt><trkpt lat="43.4627767" lon="11.4296633"><ele>346.25</ele><time>2026-04-03T11:59:28.27Z</time></trkpt><trkpt lat="43.4626767" lon="11.4295267"><ele>346.0</ele><time>2026-04-03T11:59:29.271Z</time></trkpt><trkpt lat="43.4625717" lon="11.4293917"><ele>346.0</ele><time>2026-04-03T11:59:30.27Z</time></trkpt><trkpt lat="43.4624683" lon="11.4292417"><ele>346.0</ele><time>2026-04-03T11:59:31.27Z</time></trkpt><trkpt lat="43.4623633" lon="11.4290983"><ele>346.0</ele><time>2026-04-03T11:59:32.27Z</time></trkpt><trkpt lat="43.4622567" lon="11.42895"><ele>346.0</ele><time>2026-04-03T11:59:33.27Z</time></trkpt><trkpt lat="43.462145" lon="11.428805"><ele>344.66666666666663</ele><time>2026-04-03T11:59:34.27Z</time></trkpt><trkpt lat="43.4620233" lon="11.4286567"><ele>343.3333333333333</ele><time>2026-04-03T11:59:35.27Z</time></trkpt><trkpt lat="43.4618983" lon="11.4285133"><ele>342.0</ele><time>2026-04-03T11:59:36.27Z</time></trkpt><trkpt lat="43.46178" lon="11.428355"><ele>342.0</ele><time>2026-04-03T11:59:37.27Z</time></trkpt><trkpt lat="43.4616583" lon="11.42821"><ele>342.0</ele><time>2026-04-03T11:59:38.27Z</time></trkpt><trkpt lat="43.46156" lon="11.4280033"><ele>342.0</ele><time>2026-04-03T11:59:39.271Z</time></trkpt><trkpt lat="43.4614317" lon="11.4278767"><ele>341.3333333333333</ele><time>2026-04-03T11:59:40.27Z</time></trkpt><trkpt lat="43.46131" lon="11.4277533"><ele>340.66666666666663</ele><time>2026-04-03T11:59:41.271Z</time></trkpt><trkpt lat="43.4611767" lon="11.427635"><ele>340.0</ele><time>2026-04-03T11:59:42.271Z</time></trkpt><trkpt lat="43.4610583" lon="11.4275183"><ele>340.0</ele><time>2026-04-03T11:59:43.271Z</time></trkpt><trkpt lat="43.4609333" lon="11.4274167"><ele>340.0</ele><time>2026-04-03T11:59:44.27Z</time></trkpt><trkpt lat="43.4608067" lon="11.42729"><ele>340.0</ele><time>2026-04-03T11:59:45.27Z</time></trkpt><trkpt lat="43.4606767" lon="11.427175"><ele>341.0</ele><time>2026-04-03T11:59:46.27Z</time></trkpt><trkpt lat="43.46054" lon="11.4270767"><ele>342.0</ele><time>2026-04-03T11:59:47.27Z</time></trkpt><trkpt lat="43.46039" lon="11.427015"><ele>343.0</ele><time>2026-04-03T11:59:48.27Z</time></trkpt><trkpt lat="43.4602467" lon="11.4269567"><ele>343.0</ele><time>2026-04-03T11:59:49.271Z</time></trkpt><trkpt lat="43.4601" lon="11.4268933"><ele>343.0</ele><time>2026-04-03T11:59:50.27Z</time></trkpt><trkpt lat="43.4599417" lon="11.4268383"><ele>343.0</ele><time>2026-04-03T11:59:51.27Z</time></trkpt><trkpt lat="43.4597817" lon="11.4267633"><ele>341.66666666666663</ele><time>2026-04-03T11:59:52.27Z</time></trkpt><trkpt lat="43.4596133" lon="11.426695"><ele>340.3333333333333</ele><time>2026-04-03T11:59:53.27Z</time></trkpt><trkpt lat="43.45942" lon="11.4266333"><ele>339.0</ele><time>2026-04-03T11:59:54.27Z</time></trkpt><trkpt lat="43.459205" lon="11.4265633"><ele>339.0</ele><time>2026-04-03T11:59:55.27Z</time></trkpt><trkpt lat="43.4589767" lon="11.4264533"><ele>339.0</ele><time>2026-04-03T11:59:56.27Z</time></trkpt><trkpt lat="43.458715" lon="11.426335"><ele>337.5</ele><time>2026-04-03T11:59:57.27Z</time></trkpt><trkpt lat="43.4584333" lon="11.4262033"><ele>336.0</ele><time>2026-04-03T11:59:58.27Z</time></trkpt><trkpt lat="43.4581533" lon="11.426075"><ele>336.0</ele><time>2026-04-03T11:59:59.27Z</time></trkpt><trkpt lat="43.4578683" lon="11.42595"><ele>336.0</ele><time>2026-04-03T12:00:00.27Z</time></trkpt><trkpt lat="43.457615" lon="11.4258417"><ele>336.0</ele><time>2026-04-03T12:00:01.271Z</time></trkpt><trkpt lat="43.4573833" lon="11.4257283"><ele>336.0</ele><time>2026-04-03T12:00:02.271Z</time></trkpt><trkpt lat="43.4571667" lon="11.425625"><ele>338.0</ele><time>2026-04-03T12:00:03.27Z</time></trkpt><trkpt lat="43.4569483" lon="11.4255567"><ele>340.0</ele><time>2026-04-03T12:00:04.27Z</time></trkpt><trkpt lat="43.4567467" lon="11.4255017"><ele>342.0</ele><time>2026-04-03T12:00:05.271Z</time></trkpt><trkpt lat="43.45655" lon="11.425465"><ele>340.3333333333333</ele><time>2026-04-03T12:00:06.27Z</time></trkpt><trkpt lat="43.45638" lon="11.425435"><ele>338.66666666666663</ele><time>2026-04-03T12:00:07.27Z</time></trkpt><trkpt lat="43.4562217" lon="11.4254183"><ele>337.0</ele><time>2026-04-03T12:00:08.27Z</time></trkpt><trkpt lat="43.456075" lon="11.4253683"><ele>337.0</ele><time>2026-04-03T12:00:09.27Z</time></trkpt><trkpt lat="43.4559517" lon="11.4252817"><ele>337.0</ele><time>2026-04-03T12:00:10.27Z</time></trkpt><trkpt lat="43.4558367" lon="11.4251717"><ele>337.0</ele><time>2026-04-03T12:00:11.271Z</time></trkpt><trkpt lat="43.4557267" lon="11.4250233"><ele>337.0</ele><time>2026-04-03T12:00:12.27Z</time></trkpt><trkpt lat="43.455595" lon="11.4248817"><ele>337.0</ele><time>2026-04-03T12:00:13.27Z</time></trkpt><trkpt lat="43.455465" lon="11.4247383"><ele>337.0</ele><time>2026-04-03T12:00:14.27Z</time></trkpt><trkpt lat="43.4553383" lon="11.4246033"><ele>337.0</ele><time>2026-04-03T12:00:15.27Z</time></trkpt><trkpt lat="43.45521" lon="11.42447"><ele>335.66666666666663</ele><time>2026-04-03T12:00:16.271Z</time></trkpt><trkpt lat="43.4550867" lon="11.424345"><ele>334.3333333333333</ele><time>2026-04-03T12:00:17.27Z</time></trkpt><trkpt lat="43.4549617" lon="11.4242183"><ele>333.0</ele><time>2026-04-03T12:00:18.27Z</time></trkpt><trkpt lat="43.45484" lon="11.4240817"><ele>333.0</ele><time>2026-04-03T12:00:19.27Z</time></trkpt><trkpt lat="43.4547217" lon="11.4239483"><ele>333.0</ele><time>2026-04-03T12:00:20.271Z</time></trkpt><trkpt lat="43.4545933" lon="11.4238117"><ele>333.0</ele><time>2026-04-03T12:00:21.27Z</time></trkpt><trkpt lat="43.4544817" lon="11.4236617"><ele>332.3333333333333</ele><time>2026-04-03T12:00:22.271Z</time></trkpt><trkpt lat="43.454365" lon="11.4235217"><ele>331.66666666666663</ele><time>2026-04-03T12:00:23.27Z</time></trkpt><trkpt lat="43.4542533" lon="11.4233883"><ele>331.0</ele><time>2026-04-03T12:00:24.27Z</time></trkpt><trkpt lat="43.4541483" lon="11.4232267"><ele>331.0</ele><time>2026-04-03T12:00:25.271Z</time></trkpt><trkpt lat="43.454045" lon="11.4230567"><ele>331.0</ele><time>2026-04-03T12:00:26.27Z</time></trkpt><trkpt lat="43.4539367" lon="11.4228833"><ele>331.0</ele><time>2026-04-03T12:00:27.271Z</time></trkpt><trkpt lat="43.4538233" lon="11.4227133"><ele>329.0</ele><time>2026-04-03T12:00:28.27Z</time></trkpt><trkpt lat="43.4537067" lon="11.4225667"><ele>327.0</ele><time>2026-04-03T12:00:29.271Z</time></trkpt><trkpt lat="43.4535983" lon="11.4224117"><ele>325.0</ele><time>2026-04-03T12:00:30.27Z</time></trkpt><trkpt lat="43.45349" lon="11.422255"><ele>327.3333333333333</ele><time>2026-04-03T12:00:31.27Z</time></trkpt><trkpt lat="43.45338" lon="11.4220917"><ele>329.6666666666667</ele><time>2026-04-03T12:00:32.27Z</time></trkpt><trkpt lat="43.453275" lon="11.42193"><ele>332.0</ele><time>2026-04-03T12:00:33.27Z</time></trkpt><trkpt lat="43.4531683" lon="11.4217717"><ele>332.0</ele><time>2026-04-03T12:00:34.27Z</time></trkpt><trkpt lat="43.453065" lon="11.4216267"><ele>332.0</ele><time>2026-04-03T12:00:35.27Z</time></trkpt><trkpt lat="43.4529533" lon="11.4214683"><ele>332.0</ele><time>2026-04-03T12:00:36.27Z</time></trkpt><trkpt lat="43.4528233" lon="11.421335"><ele>333.0</ele><time>2026-04-03T12:00:37.27Z</time></trkpt><trkpt lat="43.4526933" lon="11.421215"><ele>334.0</ele><time>2026-04-03T12:00:38.27Z</time></trkpt><trkpt lat="43.4525583" lon="11.4210967"><ele>335.0</ele><time>2026-04-03T12:00:39.27Z</time></trkpt><trkpt lat="43.4524417" lon="11.4209533"><ele>335.0</ele><time>2026-04-03T12:00:40.27Z</time></trkpt><trkpt lat="43.452325" lon="11.4207967"><ele>335.0</ele><time>2026-04-03T12:00:41.27Z</time></trkpt><trkpt lat="43.452215" lon="11.4206383"><ele>335.0</ele><time>2026-04-03T12:00:42.271Z</time></trkpt><trkpt lat="43.45211" lon="11.42049"><ele>334.0</ele><time>2026-04-03T12:00:43.271Z</time></trkpt><trkpt lat="43.4520133" lon="11.4203667"><ele>333.0</ele><time>2026-04-03T12:00:44.27Z</time></trkpt><trkpt lat="43.4519183" lon="11.42022"><ele>332.0</ele><time>2026-04-03T12:00:45.27Z</time></trkpt><trkpt lat="43.4518317" lon="11.4200733"><ele>331.0</ele><time>2026-04-03T12:00:46.27Z</time></trkpt><trkpt lat="43.4517467" lon="11.4199367"><ele>331.0</ele><time>2026-04-03T12:00:47.27Z</time></trkpt><trkpt lat="43.4516633" lon="11.4198067"><ele>331.0</ele><time>2026-04-03T12:00:48.271Z</time></trkpt><trkpt lat="43.45157" lon="11.41968"><ele>331.0</ele><time>2026-04-03T12:00:49.27Z</time></trkpt><trkpt lat="43.451465" lon="11.4195617"><ele>331.0</ele><time>2026-04-03T12:00:50.27Z</time></trkpt><trkpt lat="43.451355" lon="11.41945"><ele>329.75</ele><time>2026-04-03T12:00:51.27Z</time></trkpt><trkpt lat="43.4512467" lon="11.4193383"><ele>328.5</ele><time>2026-04-03T12:00:52.27Z</time></trkpt><trkpt lat="43.4511317" lon="11.4192467"><ele>327.25</ele><time>2026-04-03T12:00:53.27Z</time></trkpt><trkpt lat="43.4510133" lon="11.419165"><ele>326.0</ele><time>2026-04-03T12:00:54.271Z</time></trkpt><trkpt lat="43.450885" lon="11.4191"><ele>326.0</ele><time>2026-04-03T12:00:55.27Z</time></trkpt><trkpt lat="43.4507517" lon="11.419055"><ele>326.0</ele><time>2026-04-03T12:00:56.27Z</time></trkpt><trkpt lat="43.4505917" lon="11.4190067"><ele>326.0</ele><time>2026-04-03T12:00:57.271Z</time></trkpt><trkpt lat="43.450435" lon="11.418975"><ele>325.33333333333337</ele><time>2026-04-03T12:00:58.27Z</time></trkpt><trkpt lat="43.45028" lon="11.4189617"><ele>324.6666666666667</ele><time>2026-04-03T12:00:59.27Z</time></trkpt><trkpt lat="43.4501183" lon="11.4189267"><ele>324.0</ele><time>2026-04-03T12:01:00.27Z</time></trkpt><trkpt lat="43.4499633" lon="11.4188767"><ele>324.0</ele><time>2026-04-03T12:01:01.27Z</time></trkpt><trkpt lat="43.4498117" lon="11.41883"><ele>324.0</ele><time>2026-04-03T12:01:02.27Z</time></trkpt><trkpt lat="43.4496567" lon="11.4187733"><ele>324.0</ele><time>2026-04-03T12:01:03.271Z</time></trkpt><trkpt lat="43.4494967" lon="11.4187183"><ele>326.3333333333333</ele><time>2026-04-03T12:01:04.271Z</time></trkpt><trkpt lat="43.4493333" lon="11.4186533"><ele>328.66666666666663</ele><time>2026-04-03T12:01:05.27Z</time></trkpt><trkpt lat="43.449165" lon="11.418615"><ele>331.0</ele><time>2026-04-03T12:01:06.271Z</time></trkpt><trkpt lat="43.4489867" lon="11.418595"><ele>331.0</ele><time>2026-04-03T12:01:07.27Z</time></trkpt><trkpt lat="43.4488133" lon="11.418575"><ele>331.0</ele><time>2026-04-03T12:01:08.27Z</time></trkpt><trkpt lat="43.4486433" lon="11.41855"><ele>331.0</ele><time>2026-04-03T12:01:09.27Z</time></trkpt><trkpt lat="43.448495" lon="11.4185133"><ele>331.0</ele><time>2026-04-03T12:01:10.27Z</time></trkpt><trkpt lat="43.4483567" lon="11.418455"><ele>331.0</ele><time>2026-04-03T12:01:11.27Z</time></trkpt><trkpt lat="43.4482217" lon="11.41836"><ele>331.0</ele><time>2026-04-03T12:01:12.27Z</time></trkpt><trkpt lat="43.4480933" lon="11.4182367"><ele>329.0</ele><time>2026-04-03T12:01:13.27Z</time></trkpt><trkpt lat="43.4479567" lon="11.4181017"><ele>327.0</ele><time>2026-04-03T12:01:14.27Z</time></trkpt><trkpt lat="43.4478267" lon="11.417985"><ele>325.0</ele><time>2026-04-03T12:01:15.271Z</time></trkpt><trkpt lat="43.4476883" lon="11.4178633"><ele>329.3333333333333</ele><time>2026-04-03T12:01:16.271Z</time></trkpt><trkpt lat="43.44754" lon="11.4177667"><ele>333.6666666666667</ele><time>2026-04-03T12:01:17.27Z</time></trkpt><trkpt lat="43.4473817" lon="11.4176967"><ele>338.0</ele><time>2026-04-03T12:01:18.27Z</time></trkpt><trkpt lat="43.4472183" lon="11.4176417"><ele>338.6666666666667</ele><time>2026-04-03T12:01:19.27Z</time></trkpt><trkpt lat="43.4470567" lon="11.4175917"><ele>339.3333333333333</ele><time>2026-04-03T12:01:20.271Z</time></trkpt><trkpt lat="43.44689" lon="11.417545"><ele>340.0</ele><time>2026-04-03T12:01:21.27Z</time></trkpt><trkpt lat="43.44672" lon="11.4174983"><ele>340.0</ele><time>2026-04-03T12:01:22.27Z</time></trkpt><trkpt lat="43.4465567" lon="11.417455"><ele>340.0</ele><time>2026-04-03T12:01:23.27Z</time></trkpt><trkpt lat="43.4464" lon="11.4174167"><ele>340.0</ele><time>2026-04-03T12:01:24.27Z</time></trkpt><trkpt lat="43.4462467" lon="11.417385"><ele>343.0</ele><time>2026-04-03T12:01:25.27Z</time></trkpt><trkpt lat="43.4460933" lon="11.4173817"><ele>346.0</ele><time>2026-04-03T12:01:26.271Z</time></trkpt><trkpt lat="43.44597" lon="11.4174583"><ele>349.0</ele><time>2026-04-03T12:01:27.27Z</time></trkpt><trkpt lat="43.4458517" lon="11.4175783"><ele>352.0</ele><time>2026-04-03T12:01:28.271Z</time></trkpt><trkpt lat="43.445765" lon="11.4177467"><ele>352.0</ele><time>2026-04-03T12:01:29.27Z</time></trkpt><trkpt lat="43.44571" lon="11.4179833"><ele>352.0</ele><time>2026-04-03T12:01:30.27Z</time></trkpt><trkpt lat="43.4456617" lon="11.4182083"><ele>352.0</ele><time>2026-04-03T12:01:31.27Z</time></trkpt><trkpt lat="43.445635" lon="11.41846"><ele>348.66666666666663</ele><time>2026-04-03T12:01:32.27Z</time></trkpt><trkpt lat="43.445625" lon="11.4187083"><ele>345.3333333333333</ele><time>2026-04-03T12:01:33.27Z</time></trkpt><trkpt lat="43.4456167" lon="11.4189517"><ele>342.0</ele><time>2026-04-03T12:01:34.271Z</time></trkpt><trkpt lat="43.4456233" lon="11.41919"><ele>341.25</ele><time>2026-04-03T12:01:35.27Z</time></trkpt><trkpt lat="43.44563" lon="11.4194067"><ele>340.5</ele><time>2026-04-03T12:01:36.27Z</time></trkpt><trkpt lat="43.4455967" lon="11.4195833"><ele>339.75</ele><time>2026-04-03T12:01:37.27Z</time></trkpt><trkpt lat="43.4455167" lon="11.4197117"><ele>339.0</ele><time>2026-04-03T12:01:38.27Z</time></trkpt><trkpt lat="43.445405" lon="11.4198167"><ele>339.0</ele><time>2026-04-03T12:01:39.27Z</time></trkpt><trkpt lat="43.4452633" lon="11.4199183"><ele>339.0</ele><time>2026-04-03T12:01:40.27Z</time></trkpt><trkpt lat="43.445105" lon="11.4199983"><ele>339.0</ele><time>2026-04-03T12:01:41.27Z</time></trkpt><trkpt lat="43.4449483" lon="11.4200883"><ele>339.0</ele><time>2026-04-03T12:01:42.27Z</time></trkpt><trkpt lat="43.4448017" lon="11.4201617"><ele>339.0</ele><time>2026-04-03T12:01:43.27Z</time></trkpt><trkpt lat="43.4446683" lon="11.4202483"><ele>339.0</ele><time>2026-04-03T12:01:44.27Z</time></trkpt><trkpt lat="43.4445417" lon="11.420375"><ele>338.3333333333333</ele><time>2026-04-03T12:01:45.27Z</time></trkpt><trkpt lat="43.444435" lon="11.420515"><ele>337.66666666666663</ele><time>2026-04-03T12:01:46.271Z</time></trkpt><trkpt lat="43.4443217" lon="11.4206733"><ele>337.0</ele><time>2026-04-03T12:01:47.27Z</time></trkpt><trkpt lat="43.4442133" lon="11.4208317"><ele>337.0</ele><time>2026-04-03T12:01:48.27Z</time></trkpt><trkpt lat="43.4440867" lon="11.42096"><ele>337.0</ele><time>2026-04-03T12:01:49.27Z</time></trkpt><trkpt lat="43.4439267" lon="11.421075"><ele>337.0</ele><time>2026-04-03T12:01:50.27Z</time></trkpt><trkpt lat="43.4437517" lon="11.4212033"><ele>334.0</ele><time>2026-04-03T12:01:51.27Z</time></trkpt><trkpt lat="43.4435833" lon="11.42133"><ele>331.0</ele><time>2026-04-03T12:01:52.27Z</time></trkpt><trkpt lat="43.4434233" lon="11.421435"><ele>328.0</ele><time>2026-04-03T12:01:53.27Z</time></trkpt><trkpt lat="43.443265" lon="11.4215183"><ele>328.0</ele><time>2026-04-03T12:01:54.27Z</time></trkpt><trkpt lat="43.4430967" lon="11.4215617"><ele>328.0</ele><time>2026-04-03T12:01:55.271Z</time></trkpt><trkpt lat="43.4429233" lon="11.4215817"><ele>328.0</ele><time>2026-04-03T12:01:56.27Z</time></trkpt><trkpt lat="43.4427483" lon="11.4215767"><ele>328.0</ele><time>2026-04-03T12:01:57.27Z</time></trkpt><trkpt lat="43.442575" lon="11.42157"><ele>328.0</ele><time>2026-04-03T12:01:58.27Z</time></trkpt><trkpt lat="43.4423883" lon="11.4215467"><ele>328.0</ele><time>2026-04-03T12:01:59.27Z</time></trkpt><trkpt lat="43.44221" lon="11.4215183"><ele>326.3333333333333</ele><time>2026-04-03T12:02:00.271Z</time></trkpt><trkpt lat="43.442035" lon="11.42148"><ele>324.6666666666667</ele><time>2026-04-03T12:02:01.27Z</time></trkpt><trkpt lat="43.441855" lon="11.421455"><ele>323.0</ele><time>2026-04-03T12:02:02.27Z</time></trkpt><trkpt lat="43.4416717" lon="11.421435"><ele>323.0</ele><time>2026-04-03T12:02:03.27Z</time></trkpt><trkpt lat="43.4414933" lon="11.4214133"><ele>323.0</ele><time>2026-04-03T12:02:04.271Z</time></trkpt><trkpt lat="43.44133" lon="11.4213767"><ele>323.0</ele><time>2026-04-03T12:02:05.27Z</time></trkpt><trkpt lat="43.44117" lon="11.42132"><ele>325.33333333333337</ele><time>2026-04-03T12:02:06.271Z</time></trkpt><trkpt lat="43.441025" lon="11.4212517"><ele>327.6666666666667</ele><time>2026-04-03T12:02:07.27Z</time></trkpt><trkpt lat="43.4408717" lon="11.42115"><ele>330.0</ele><time>2026-04-03T12:02:08.27Z</time></trkpt><trkpt lat="43.4407217" lon="11.421025"><ele>330.0</ele><time>2026-04-03T12:02:09.27Z</time></trkpt><trkpt lat="43.440565" lon="11.4209"><ele>330.0</ele><time>2026-04-03T12:02:10.27Z</time></trkpt><trkpt lat="43.4404117" lon="11.4207683"><ele>330.0</ele><time>2026-04-03T12:02:11.271Z</time></trkpt><trkpt lat="43.4402683" lon="11.420645"><ele>329.6666666666667</ele><time>2026-04-03T12:02:12.27Z</time></trkpt><trkpt lat="43.44012" lon="11.4205333"><ele>329.33333333333337</ele><time>2026-04-03T12:02:13.27Z</time></trkpt><trkpt lat="43.43998" lon="11.4203983"><ele>329.0</ele><time>2026-04-03T12:02:14.27Z</time></trkpt><trkpt lat="43.439845" lon="11.4202667"><ele>329.0</ele><time>2026-04-03T12:02:15.27Z</time></trkpt><trkpt lat="43.4396933" lon="11.420135"><ele>329.0</ele><time>2026-04-03T12:02:16.271Z</time></trkpt><trkpt lat="43.4395517" lon="11.4199933"><ele>329.0</ele><time>2026-04-03T12:02:17.271Z</time></trkpt><trkpt lat="43.4394083" lon="11.419865"><ele>331.33333333333337</ele><time>2026-04-03T12:02:18.27Z</time></trkpt><trkpt lat="43.4392583" lon="11.4197667"><ele>333.6666666666667</ele><time>2026-04-03T12:02:19.27Z</time></trkpt><trkpt lat="43.4391017" lon="11.4196783"><ele>336.0</ele><time>2026-04-03T12:02:20.271Z</time></trkpt><trkpt lat="43.4389483" lon="11.41963"><ele>333.3333333333333</ele><time>2026-04-03T12:02:21.27Z</time></trkpt><trkpt lat="43.43879" lon="11.4195767"><ele>330.66666666666663</ele><time>2026-04-03T12:02:22.271Z</time></trkpt><trkpt lat="43.438605" lon="11.4195617"><ele>328.0</ele><time>2026-04-03T12:02:23.271Z</time></trkpt><trkpt lat="43.4384167" lon="11.4195483"><ele>328.0</ele><time>2026-04-03T12:02:24.27Z</time></trkpt><trkpt lat="43.43823" lon="11.41954"><ele>328.0</ele><time>2026-04-03T12:02:25.27Z</time></trkpt><trkpt lat="43.4380417" lon="11.419525"><ele>328.0</ele><time>2026-04-03T12:02:26.27Z</time></trkpt><trkpt lat="43.437855" lon="11.4195067"><ele>326.3333333333333</ele><time>2026-04-03T12:02:27.271Z</time></trkpt><trkpt lat="43.4376717" lon="11.4194817"><ele>324.6666666666667</ele><time>2026-04-03T12:02:28.27Z</time></trkpt><trkpt lat="43.43748" lon="11.4194517"><ele>323.0</ele><time>2026-04-03T12:02:29.27Z</time></trkpt><trkpt lat="43.4372917" lon="11.419425"><ele>322.0</ele><time>2026-04-03T12:02:30.271Z</time></trkpt><trkpt lat="43.437105" lon="11.4193967"><ele>321.0</ele><time>2026-04-03T12:02:31.27Z</time></trkpt><trkpt lat="43.436915" lon="11.41936"><ele>320.0</ele><time>2026-04-03T12:02:32.27Z</time></trkpt><trkpt lat="43.4367133" lon="11.4193117"><ele>320.0</ele><time>2026-04-03T12:02:33.27Z</time></trkpt><trkpt lat="43.4365217" lon="11.4192717"><ele>320.0</ele><time>2026-04-03T12:02:34.27Z</time></trkpt><trkpt lat="43.436355" lon="11.4192383"><ele>320.0</ele><time>2026-04-03T12:02:35.271Z</time></trkpt><trkpt lat="43.43619" lon="11.4192033"><ele>318.6666666666667</ele><time>2026-04-03T12:02:36.27Z</time></trkpt><trkpt lat="43.4360133" lon="11.4191733"><ele>317.3333333333333</ele><time>2026-04-03T12:02:37.27Z</time></trkpt><trkpt lat="43.4358467" lon="11.4191517"><ele>316.0</ele><time>2026-04-03T12:02:38.271Z</time></trkpt><trkpt lat="43.4356833" lon="11.4191267"><ele>316.0</ele><time>2026-04-03T12:02:39.271Z</time></trkpt><trkpt lat="43.43553" lon="11.4191033"><ele>316.0</ele><time>2026-04-03T12:02:40.27Z</time></trkpt><trkpt lat="43.435375" lon="11.4190883"><ele>316.0</ele><time>2026-04-03T12:02:41.271Z</time></trkpt><trkpt lat="43.4352133" lon="11.4190917"><ele>317.0</ele><time>2026-04-03T12:02:42.27Z</time></trkpt><trkpt lat="43.435075" lon="11.4191867"><ele>318.0</ele><time>2026-04-03T12:02:43.27Z</time></trkpt><trkpt lat="43.43493" lon="11.4193033"><ele>319.0</ele><time>2026-04-03T12:02:44.27Z</time></trkpt><trkpt lat="43.4347933" lon="11.4194267"><ele>319.0</ele><time>2026-04-03T12:02:45.27Z</time></trkpt><trkpt lat="43.4346533" lon="11.419565"><ele>319.0</ele><time>2026-04-03T12:02:46.27Z</time></trkpt><trkpt lat="43.4345183" lon="11.4197217"><ele>319.0</ele><time>2026-04-03T12:02:47.27Z</time></trkpt><trkpt lat="43.4343817" lon="11.4199017"><ele>318.0</ele><time>2026-04-03T12:02:48.27Z</time></trkpt><trkpt lat="43.43425" lon="11.42006"><ele>317.0</ele><time>2026-04-03T12:02:49.27Z</time></trkpt><trkpt lat="43.4341183" lon="11.4202"><ele>316.0</ele><time>2026-04-03T12:02:50.271Z</time></trkpt><trkpt lat="43.4339883" lon="11.42033"><ele>316.0</ele><time>2026-04-03T12:02:51.27Z</time></trkpt><trkpt lat="43.43387" lon="11.4204783"><ele>316.0</ele><time>2026-04-03T12:02:52.27Z</time></trkpt><trkpt lat="43.4337583" lon="11.4206133"><ele>316.0</ele><time>2026-04-03T12:02:53.27Z</time></trkpt><trkpt lat="43.4336767" lon="11.4207317"><ele>316.0</ele><time>2026-04-03T12:02:54.27Z</time></trkpt><trkpt lat="43.433585" lon="11.4208133"><ele>312.75</ele><time>2026-04-03T12:02:55.27Z</time></trkpt><trkpt lat="43.43349" lon="11.4208883"><ele>309.5</ele><time>2026-04-03T12:02:56.27Z</time></trkpt><trkpt lat="43.43337" lon="11.420905"><ele>306.25</ele><time>2026-04-03T12:02:57.271Z</time></trkpt><trkpt lat="43.4332533" lon="11.4208783"><ele>303.0</ele><time>2026-04-03T12:02:58.27Z</time></trkpt><trkpt lat="43.433175" lon="11.4207283"><ele>303.0</ele><time>2026-04-03T12:02:59.27Z</time></trkpt><trkpt lat="43.433095" lon="11.4205683"><ele>303.0</ele><time>2026-04-03T12:03:00.27Z</time></trkpt><trkpt lat="43.4330283" lon="11.4203933"><ele>303.0</ele><time>2026-04-03T12:03:01.27Z</time></trkpt><trkpt lat="43.4329633" lon="11.420225"><ele>303.0</ele><time>2026-04-03T12:03:02.271Z</time></trkpt><trkpt lat="43.4328933" lon="11.42002"><ele>303.25</ele><time>2026-04-03T12:03:03.271Z</time></trkpt><trkpt lat="43.4328233" lon="11.4198383"><ele>303.5</ele><time>2026-04-03T12:03:04.27Z</time></trkpt><trkpt lat="43.4327467" lon="11.4196717"><ele>303.75</ele><time>2026-04-03T12:03:05.27Z</time></trkpt><trkpt lat="43.4326617" lon="11.419515"><ele>304.0</ele><time>2026-04-03T12:03:06.27Z</time></trkpt><trkpt lat="43.432565" lon="11.4193383"><ele>304.0</ele><time>2026-04-03T12:03:07.27Z</time></trkpt><trkpt lat="43.43245" lon="11.41918"><ele>304.0</ele><time>2026-04-03T12:03:08.27Z</time></trkpt><trkpt lat="43.432335" lon="11.419025"><ele>304.0</ele><time>2026-04-03T12:03:09.27Z</time></trkpt><trkpt lat="43.4322167" lon="11.4188717"><ele>302.75</ele><time>2026-04-03T12:03:10.271Z</time></trkpt><trkpt lat="43.4321067" lon="11.4187183"><ele>301.5</ele><time>2026-04-03T12:03:11.271Z</time></trkpt><trkpt lat="43.4320017" lon="11.4185717"><ele>300.25</ele><time>2026-04-03T12:03:12.27Z</time></trkpt><trkpt lat="43.43191" lon="11.4184283"><ele>299.0</ele><time>2026-04-03T12:03:13.27Z</time></trkpt><trkpt lat="43.4318217" lon="11.4182867"><ele>299.0</ele><time>2026-04-03T12:03:14.27Z</time></trkpt><trkpt lat="43.43174" lon="11.4181533"><ele>299.0</ele><time>2026-04-03T12:03:15.271Z</time></trkpt><trkpt lat="43.4316633" lon="11.4180383"><ele>299.0</ele><time>2026-04-03T12:03:16.27Z</time></trkpt><trkpt lat="43.43159" lon="11.4179217"><ele>299.0</ele><time>2026-04-03T12:03:17.27Z</time></trkpt><trkpt lat="43.4315267" lon="11.4178267"><ele>299.0</ele><time>2026-04-03T12:03:18.271Z</time></trkpt><trkpt lat="43.4314517" lon="11.417735"><ele>299.33333333333337</ele><time>2026-04-03T12:03:19.27Z</time></trkpt><trkpt lat="43.431385" lon="11.4176567"><ele>299.6666666666667</ele><time>2026-04-03T12:03:20.271Z</time></trkpt><trkpt lat="43.4313083" lon="11.4176083"><ele>300.0</ele><time>2026-04-03T12:03:21.27Z</time></trkpt><trkpt lat="43.4312233" lon="11.4175883"><ele>300.3333333333333</ele><time>2026-04-03T12:03:22.269Z</time></trkpt><trkpt lat="43.431145" lon="11.4176083"><ele>300.66666666666663</ele><time>2026-04-03T12:03:23.27Z</time></trkpt><trkpt lat="43.4310617" lon="11.4176533"><ele>301.0</ele><time>2026-04-03T12:03:24.269Z</time></trkpt><trkpt lat="43.43096" lon="11.417745"><ele>301.0</ele><time>2026-04-03T12:03:25.27Z</time></trkpt><trkpt lat="43.43085" lon="11.417835"><ele>301.0</ele><time>2026-04-03T12:03:26.269Z</time></trkpt><trkpt lat="43.43072" lon="11.417945"><ele>301.0</ele><time>2026-04-03T12:03:27.269Z</time></trkpt><trkpt lat="43.43058" lon="11.4180517"><ele>301.0</ele><time>2026-04-03T12:03:28.269Z</time></trkpt><trkpt lat="43.4304383" lon="11.418155"><ele>301.3333333333333</ele><time>2026-04-03T12:03:29.27Z</time></trkpt><trkpt lat="43.430295" lon="11.418265"><ele>301.6666666666667</ele><time>2026-04-03T12:03:30.27Z</time></trkpt><trkpt lat="43.43016" lon="11.41837"><ele>302.0</ele><time>2026-04-03T12:03:31.269Z</time></trkpt><trkpt lat="43.4300183" lon="11.4184733"><ele>302.0</ele><time>2026-04-03T12:03:32.27Z</time></trkpt><trkpt lat="43.4298733" lon="11.4185683"><ele>302.0</ele><time>2026-04-03T12:03:33.27Z</time></trkpt><trkpt lat="43.4297267" lon="11.4186783"><ele>302.0</ele><time>2026-04-03T12:03:34.269Z</time></trkpt><trkpt lat="43.42958" lon="11.4187867"><ele>304.6666666666667</ele><time>2026-04-03T12:03:35.269Z</time></trkpt><trkpt lat="43.42944" lon="11.4188867"><ele>307.3333333333333</ele><time>2026-04-03T12:03:36.27Z</time></trkpt><trkpt lat="43.4292917" lon="11.4189733"><ele>310.0</ele><time>2026-04-03T12:03:37.269Z</time></trkpt><trkpt lat="43.4291467" lon="11.4190633"><ele>310.0</ele><time>2026-04-03T12:03:38.269Z</time></trkpt><trkpt lat="43.4290217" lon="11.4191417"><ele>310.0</ele><time>2026-04-03T12:03:39.269Z</time></trkpt><trkpt lat="43.4288717" lon="11.4192117"><ele>310.0</ele><time>2026-04-03T12:03:40.269Z</time></trkpt><trkpt lat="43.4287233" lon="11.41925"><ele>310.0</ele><time>2026-04-03T12:03:41.269Z</time></trkpt><trkpt lat="43.4285783" lon="11.419295"><ele>310.25</ele><time>2026-04-03T12:03:42.269Z</time></trkpt><trkpt lat="43.428435" lon="11.4193333"><ele>310.5</ele><time>2026-04-03T12:03:43.27Z</time></trkpt><trkpt lat="43.428285" lon="11.4193983"><ele>310.75</ele><time>2026-04-03T12:03:44.269Z</time></trkpt><trkpt lat="43.4281517" lon="11.4194717"><ele>311.0</ele><time>2026-04-03T12:03:45.269Z</time></trkpt><trkpt lat="43.42803" lon="11.4195683"><ele>311.5</ele><time>2026-04-03T12:03:46.27Z</time></trkpt><trkpt lat="43.4279183" lon="11.41967"><ele>312.0</ele><time>2026-04-03T12:03:47.269Z</time></trkpt><trkpt lat="43.4278167" lon="11.4197767"><ele>312.5</ele><time>2026-04-03T12:03:48.269Z</time></trkpt><trkpt lat="43.427725" lon="11.4198783"><ele>313.0</ele><time>2026-04-03T12:03:49.269Z</time></trkpt><trkpt lat="43.4276467" lon="11.4199733"><ele>313.0</ele><time>2026-04-03T12:03:50.27Z</time></trkpt><trkpt lat="43.4275733" lon="11.4200817"><ele>313.0</ele><time>2026-04-03T12:03:51.269Z</time></trkpt><trkpt lat="43.42751" lon="11.4201633"><ele>313.0</ele><time>2026-04-03T12:03:52.27Z</time></trkpt><trkpt lat="43.427485" lon="11.42027"><ele>313.0</ele><time>2026-04-03T12:03:53.27Z</time></trkpt><trkpt lat="43.4275167" lon="11.4204283"><ele>313.0</ele><time>2026-04-03T12:03:54.27Z</time></trkpt><trkpt lat="43.4275483" lon="11.4206333"><ele>312.0</ele><time>2026-04-03T12:03:55.269Z</time></trkpt><trkpt lat="43.4276417" lon="11.4209667"><ele>311.0</ele><time>2026-04-03T12:03:56.269Z</time></trkpt><trkpt lat="43.42767" lon="11.4212317"><ele>310.6666666666667</ele><time>2026-04-03T12:03:57.269Z</time></trkpt><trkpt lat="43.4276933" lon="11.4215133"><ele>310.3333333333333</ele><time>2026-04-03T12:03:58.269Z</time></trkpt><trkpt lat="43.4276983" lon="11.4217933"><ele>310.0</ele><time>2026-04-03T12:03:59.269Z</time></trkpt><trkpt lat="43.4276733" lon="11.4220667"><ele>312.66666666666663</ele><time>2026-04-03T12:04:00.27Z</time></trkpt><trkpt lat="43.427625" lon="11.4223033"><ele>315.3333333333333</ele><time>2026-04-03T12:04:01.27Z</time></trkpt><trkpt lat="43.4275717" lon="11.4225183"><ele>318.0</ele><time>2026-04-03T12:04:02.27Z</time></trkpt><trkpt lat="43.42751" lon="11.4226933"><ele>318.0</ele><time>2026-04-03T12:04:03.269Z</time></trkpt><trkpt lat="43.4274367" lon="11.4228333"><ele>318.0</ele><time>2026-04-03T12:04:04.27Z</time></trkpt><trkpt lat="43.4273467" lon="11.4229417"><ele>318.0</ele><time>2026-04-03T12:04:05.269Z</time></trkpt><trkpt lat="43.4272417" lon="11.4230217"><ele>318.0</ele><time>2026-04-03T12:04:06.269Z</time></trkpt><trkpt lat="43.4271133" lon="11.4230733"><ele>321.3333333333333</ele><time>2026-04-03T12:04:07.269Z</time></trkpt><trkpt lat="43.4269517" lon="11.4230883"><ele>324.66666666666663</ele><time>2026-04-03T12:04:08.27Z</time></trkpt><trkpt lat="43.42679" lon="11.4230967"><ele>328.0</ele><time>2026-04-03T12:04:09.269Z</time></trkpt><trkpt lat="43.4266383" lon="11.4231133"><ele>328.0</ele><time>2026-04-03T12:04:10.269Z</time></trkpt><trkpt lat="43.4264867" lon="11.4231267"><ele>328.0</ele><time>2026-04-03T12:04:11.269Z</time></trkpt><trkpt lat="43.42636" lon="11.4231667"><ele>328.0</ele><time>2026-04-03T12:04:12.269Z</time></trkpt><trkpt lat="43.4262333" lon="11.4232067"><ele>328.0</ele><time>2026-04-03T12:04:13.27Z</time></trkpt><trkpt lat="43.4261717" lon="11.4233233"><ele>325.5</ele><time>2026-04-03T12:04:14.269Z</time></trkpt><trkpt lat="43.4261383" lon="11.4234733"><ele>323.0</ele><time>2026-04-03T12:04:15.269Z</time></trkpt><trkpt lat="43.4261183" lon="11.4236367"><ele>320.5</ele><time>2026-04-03T12:04:16.269Z</time></trkpt><trkpt lat="43.4261317" lon="11.423825"><ele>318.0</ele><time>2026-04-03T12:04:17.269Z</time></trkpt><trkpt lat="43.4262533" lon="11.4240883"><ele>321.6666666666667</ele><time>2026-04-03T12:04:18.269Z</time></trkpt><trkpt lat="43.4263583" lon="11.4243767"><ele>325.33333333333337</ele><time>2026-04-03T12:04:19.269Z</time></trkpt><trkpt lat="43.42643" lon="11.4246183"><ele>329.0</ele><time>2026-04-03T12:04:20.269Z</time></trkpt><trkpt lat="43.42649" lon="11.42488"><ele>329.0</ele><time>2026-04-03T12:04:21.27Z</time></trkpt><trkpt lat="43.42654" lon="11.4251183"><ele>329.0</ele><time>2026-04-03T12:04:22.269Z</time></trkpt><trkpt lat="43.426585" lon="11.4253467"><ele>329.0</ele><time>2026-04-03T12:04:23.27Z</time></trkpt><trkpt lat="43.4266233" lon="11.425595"><ele>329.33333333333337</ele><time>2026-04-03T12:04:24.269Z</time></trkpt><trkpt lat="43.4266417" lon="11.4258567"><ele>329.6666666666667</ele><time>2026-04-03T12:04:25.269Z</time></trkpt><trkpt lat="43.4266133" lon="11.426095"><ele>330.0</ele><time>2026-04-03T12:04:26.269Z</time></trkpt><trkpt lat="43.4265683" lon="11.42633"><ele>332.3333333333333</ele><time>2026-04-03T12:04:27.269Z</time></trkpt><trkpt lat="43.4265233" lon="11.426545"><ele>334.66666666666663</ele><time>2026-04-03T12:04:28.269Z</time></trkpt><trkpt lat="43.4264583" lon="11.4267517"><ele>337.0</ele><time>2026-04-03T12:04:29.269Z</time></trkpt><trkpt lat="43.4263533" lon="11.4269083"><ele>335.5</ele><time>2026-04-03T12:04:30.269Z</time></trkpt><trkpt lat="43.426255" lon="11.4270767"><ele>334.0</ele><time>2026-04-03T12:04:31.27Z</time></trkpt><trkpt lat="43.426165" lon="11.4272267"><ele>332.5</ele><time>2026-04-03T12:04:32.269Z</time></trkpt><trkpt lat="43.42607" lon="11.4273567"><ele>331.0</ele><time>2026-04-03T12:04:33.27Z</time></trkpt><trkpt lat="43.4259667" lon="11.4274783"><ele>330.25</ele><time>2026-04-03T12:04:34.269Z</time></trkpt><trkpt lat="43.4259167" lon="11.4276033"><ele>329.5</ele><time>2026-04-03T12:04:35.27Z</time></trkpt><trkpt lat="43.4259033" lon="11.42777"><ele>328.75</ele><time>2026-04-03T12:04:36.269Z</time></trkpt><trkpt lat="43.4259067" lon="11.4279683"><ele>328.0</ele><time>2026-04-03T12:04:37.27Z</time></trkpt><trkpt lat="43.4259167" lon="11.4281683"><ele>328.0</ele><time>2026-04-03T12:04:38.269Z</time></trkpt><trkpt lat="43.4259283" lon="11.4283733"><ele>328.0</ele><time>2026-04-03T12:04:39.269Z</time></trkpt><trkpt lat="43.425925" lon="11.428575"><ele>328.0</ele><time>2026-04-03T12:04:40.27Z</time></trkpt><trkpt lat="43.4259333" lon="11.4287883"><ele>329.3333333333333</ele><time>2026-04-03T12:04:41.269Z</time></trkpt><trkpt lat="43.42594" lon="11.4290033"><ele>330.6666666666667</ele><time>2026-04-03T12:04:42.269Z</time></trkpt><trkpt lat="43.4259417" lon="11.4292067"><ele>332.0</ele><time>2026-04-03T12:04:43.27Z</time></trkpt><trkpt lat="43.4259517" lon="11.4294133"><ele>332.0</ele><time>2026-04-03T12:04:44.269Z</time></trkpt><trkpt lat="43.4259583" lon="11.42961"><ele>332.0</ele><time>2026-04-03T12:04:45.269Z</time></trkpt><trkpt lat="43.42596" lon="11.4298167"><ele>332.0</ele><time>2026-04-03T12:04:46.269Z</time></trkpt><trkpt lat="43.42596" lon="11.4300217"><ele>332.0</ele><time>2026-04-03T12:04:47.27Z</time></trkpt><trkpt lat="43.42596" lon="11.4302233"><ele>332.0</ele><time>2026-04-03T12:04:48.269Z</time></trkpt><trkpt lat="43.4259583" lon="11.4304283"><ele>332.0</ele><time>2026-04-03T12:04:49.269Z</time></trkpt><trkpt lat="43.42592" lon="11.4306133"><ele>332.0</ele><time>2026-04-03T12:04:50.269Z</time></trkpt><trkpt lat="43.4258633" lon="11.4307867"><ele>332.0</ele><time>2026-04-03T12:04:51.269Z</time></trkpt><trkpt lat="43.4257833" lon="11.4309583"><ele>332.6666666666667</ele><time>2026-04-03T12:04:52.269Z</time></trkpt><trkpt lat="43.4257233" lon="11.43116"><ele>333.3333333333333</ele><time>2026-04-03T12:04:53.269Z</time></trkpt><trkpt lat="43.4256517" lon="11.4313467"><ele>334.0</ele><time>2026-04-03T12:04:54.269Z</time></trkpt><trkpt lat="43.4255667" lon="11.4315317"><ele>335.5</ele><time>2026-04-03T12:04:55.269Z</time></trkpt><trkpt lat="43.4255033" lon="11.431705"><ele>337.0</ele><time>2026-04-03T12:04:56.269Z</time></trkpt><trkpt lat="43.425435" lon="11.4318533"><ele>338.5</ele><time>2026-04-03T12:04:57.27Z</time></trkpt><trkpt lat="43.4253833" lon="11.4319983"><ele>340.0</ele><time>2026-04-03T12:04:58.269Z</time></trkpt><trkpt lat="43.425335" lon="11.4321317"><ele>340.0</ele><time>2026-04-03T12:04:59.27Z</time></trkpt><trkpt lat="43.4252717" lon="11.432225"><ele>340.0</ele><time>2026-04-03T12:05:00.27Z</time></trkpt><trkpt lat="43.4251867" lon="11.432265"><ele>340.0</ele><time>2026-04-03T12:05:01.269Z</time></trkpt><trkpt lat="43.425105" lon="11.43231"><ele>340.0</ele><time>2026-04-03T12:05:02.269Z</time></trkpt><trkpt lat="43.4250283" lon="11.4323717"><ele>340.0</ele><time>2026-04-03T12:05:03.269Z</time></trkpt><trkpt lat="43.4249717" lon="11.432465"><ele>340.0</ele><time>2026-04-03T12:05:04.269Z</time></trkpt><trkpt lat="43.4249117" lon="11.4325867"><ele>340.0</ele><time>2026-04-03T12:05:05.269Z</time></trkpt><trkpt lat="43.4248533" lon="11.4327217"><ele>340.0</ele><time>2026-04-03T12:05:06.269Z</time></trkpt><trkpt lat="43.4247967" lon="11.432865"><ele>340.0</ele><time>2026-04-03T12:05:07.269Z</time></trkpt><trkpt lat="43.424735" lon="11.4330033"><ele>340.0</ele><time>2026-04-03T12:05:08.27Z</time></trkpt><trkpt lat="43.4246783" lon="11.4331583"><ele>346.0</ele><time>2026-04-03T12:05:09.269Z</time></trkpt><trkpt lat="43.424625" lon="11.4333083"><ele>352.0</ele><time>2026-04-03T12:05:10.269Z</time></trkpt><trkpt lat="43.424565" lon="11.43346"><ele>358.0</ele><time>2026-04-03T12:05:11.269Z</time></trkpt><trkpt lat="43.4245117" lon="11.4336183"><ele>364.0</ele><time>2026-04-03T12:05:12.269Z</time></trkpt><trkpt lat="43.4244567" lon="11.433785"><ele>360.75</ele><time>2026-04-03T12:05:13.269Z</time></trkpt><trkpt lat="43.4244133" lon="11.4339417"><ele>357.5</ele><time>2026-04-03T12:05:14.27Z</time></trkpt><trkpt lat="43.4243833" lon="11.4341017"><ele>354.25</ele><time>2026-04-03T12:05:15.269Z</time></trkpt><trkpt lat="43.4243633" lon="11.434255"><ele>351.0</ele><time>2026-04-03T12:05:16.269Z</time></trkpt><trkpt lat="43.4243533" lon="11.43441"><ele>351.0</ele><time>2026-04-03T12:05:17.27Z</time></trkpt><trkpt lat="43.4243517" lon="11.434595"><ele>351.0</ele><time>2026-04-03T12:05:18.27Z</time></trkpt><trkpt lat="43.4243933" lon="11.4347417"><ele>351.0</ele><time>2026-04-03T12:05:19.269Z</time></trkpt><trkpt lat="43.4244483" lon="11.4348817"><ele>351.0</ele><time>2026-04-03T12:05:20.269Z</time></trkpt><trkpt lat="43.42453" lon="11.4350033"><ele>350.5</ele><time>2026-04-03T12:05:21.27Z</time></trkpt><trkpt lat="43.4246383" lon="11.4350933"><ele>350.0</ele><time>2026-04-03T12:05:22.269Z</time></trkpt><trkpt lat="43.4247533" lon="11.4351683"><ele>349.5</ele><time>2026-04-03T12:05:23.269Z</time></trkpt><trkpt lat="43.4248783" lon="11.4352767"><ele>349.0</ele><time>2026-04-03T12:05:24.269Z</time></trkpt><trkpt lat="43.4250117" lon="11.435345"><ele>349.75</ele><time>2026-04-03T12:05:25.27Z</time></trkpt><trkpt lat="43.4251267" lon="11.435425"><ele>350.5</ele><time>2026-04-03T12:05:26.27Z</time></trkpt><trkpt lat="43.42523" lon="11.435505"><ele>351.25</ele><time>2026-04-03T12:05:27.269Z</time></trkpt><trkpt lat="43.4253233" lon="11.435635"><ele>352.0</ele><time>2026-04-03T12:05:28.27Z</time></trkpt><trkpt lat="43.4253783" lon="11.4357667"><ele>352.0</ele><time>2026-04-03T12:05:29.269Z</time></trkpt><trkpt lat="43.4253833" lon="11.4358933"><ele>352.0</ele><time>2026-04-03T12:05:30.27Z</time></trkpt><trkpt lat="43.4253333" lon="11.4360217"><ele>352.0</ele><time>2026-04-03T12:05:31.269Z</time></trkpt><trkpt lat="43.4252683" lon="11.43614"><ele>352.0</ele><time>2026-04-03T12:05:32.269Z</time></trkpt><trkpt lat="43.4251867" lon="11.43627"><ele>352.0</ele><time>2026-04-03T12:05:33.27Z</time></trkpt><trkpt lat="43.4251083" lon="11.4364033"><ele>352.75</ele><time>2026-04-03T12:05:34.27Z</time></trkpt><trkpt lat="43.425055" lon="11.436565"><ele>353.5</ele><time>2026-04-03T12:05:35.269Z</time></trkpt><trkpt lat="43.42502" lon="11.4367467"><ele>354.25</ele><time>2026-04-03T12:05:36.27Z</time></trkpt><trkpt lat="43.4250033" lon="11.4369417"><ele>355.0</ele><time>2026-04-03T12:05:37.269Z</time></trkpt><trkpt lat="43.4249933" lon="11.4371383"><ele>355.0</ele><time>2026-04-03T12:05:38.269Z</time></trkpt><trkpt lat="43.4249833" lon="11.43732"><ele>355.0</ele><time>2026-04-03T12:05:39.269Z</time></trkpt><trkpt lat="43.4250067" lon="11.43754"><ele>355.0</ele><time>2026-04-03T12:05:40.27Z</time></trkpt><trkpt lat="43.4250383" lon="11.4377583"><ele>357.0</ele><time>2026-04-03T12:05:41.269Z</time></trkpt><trkpt lat="43.4250917" lon="11.4380067"><ele>359.0</ele><time>2026-04-03T12:05:42.27Z</time></trkpt><trkpt lat="43.425135" lon="11.4382467"><ele>361.0</ele><time>2026-04-03T12:05:43.269Z</time></trkpt><trkpt lat="43.4251983" lon="11.43848"><ele>361.0</ele><time>2026-04-03T12:05:44.269Z</time></trkpt><trkpt lat="43.4252367" lon="11.438665"><ele>361.0</ele><time>2026-04-03T12:05:45.269Z</time></trkpt><trkpt lat="43.4252817" lon="11.438855"><ele>361.0</ele><time>2026-04-03T12:05:46.27Z</time></trkpt><trkpt lat="43.4253267" lon="11.4390367"><ele>361.0</ele><time>2026-04-03T12:05:47.269Z</time></trkpt><trkpt lat="43.425375" lon="11.4391833"><ele>359.5</ele><time>2026-04-03T12:05:48.269Z</time></trkpt><trkpt lat="43.4254567" lon="11.4393067"><ele>358.0</ele><time>2026-04-03T12:05:49.27Z</time></trkpt><trkpt lat="43.4255483" lon="11.4393967"><ele>356.5</ele><time>2026-04-03T12:05:50.27Z</time></trkpt><trkpt lat="43.4256733" lon="11.439405"><ele>355.0</ele><time>2026-04-03T12:05:51.269Z</time></trkpt><trkpt lat="43.42579" lon="11.4393817"><ele>355.0</ele><time>2026-04-03T12:05:52.269Z</time></trkpt><trkpt lat="43.4259" lon="11.4393883"><ele>355.0</ele><time>2026-04-03T12:05:53.27Z</time></trkpt><trkpt lat="43.4260017" lon="11.439455"><ele>355.0</ele><time>2026-04-03T12:05:54.269Z</time></trkpt><trkpt lat="43.426065" lon="11.4395433"><ele>355.0</ele><time>2026-04-03T12:05:55.269Z</time></trkpt><trkpt lat="43.42612" lon="11.4397033"><ele>355.0</ele><time>2026-04-03T12:05:56.27Z</time></trkpt><trkpt lat="43.426145" lon="11.4398917"><ele>356.5</ele><time>2026-04-03T12:05:57.269Z</time></trkpt><trkpt lat="43.4261517" lon="11.44009"><ele>358.0</ele><time>2026-04-03T12:05:58.269Z</time></trkpt><trkpt lat="43.426155" lon="11.4402917"><ele>359.5</ele><time>2026-04-03T12:05:59.269Z</time></trkpt><trkpt lat="43.4261633" lon="11.4405067"><ele>361.0</ele><time>2026-04-03T12:06:00.269Z</time></trkpt><trkpt lat="43.4261633" lon="11.440695"><ele>361.75</ele><time>2026-04-03T12:06:01.269Z</time></trkpt><trkpt lat="43.4261617" lon="11.4409"><ele>362.5</ele><time>2026-04-03T12:06:02.269Z</time></trkpt><trkpt lat="43.426155" lon="11.44106"><ele>363.25</ele><time>2026-04-03T12:06:03.269Z</time></trkpt><trkpt lat="43.4261533" lon="11.4412233"><ele>364.0</ele><time>2026-04-03T12:06:04.269Z</time></trkpt><trkpt lat="43.4261167" lon="11.44137"><ele>364.0</ele><time>2026-04-03T12:06:05.269Z</time></trkpt><trkpt lat="43.42602" lon="11.441485"><ele>364.0</ele><time>2026-04-03T12:06:06.269Z</time></trkpt><trkpt lat="43.4259017" lon="11.4415583"><ele>364.0</ele><time>2026-04-03T12:06:07.269Z</time></trkpt><trkpt lat="43.4257717" lon="11.4416333"><ele>364.0</ele><time>2026-04-03T12:06:08.269Z</time></trkpt><trkpt lat="43.425635" lon="11.4417133"><ele>364.0</ele><time>2026-04-03T12:06:09.27Z</time></trkpt><trkpt lat="43.4255" lon="11.4418033"><ele>364.0</ele><time>2026-04-03T12:06:10.269Z</time></trkpt><trkpt lat="43.4253733" lon="11.4418933"><ele>364.0</ele><time>2026-04-03T12:06:11.269Z</time></trkpt><trkpt lat="43.4252567" lon="11.4420083"><ele>364.0</ele><time>2026-04-03T12:06:12.27Z</time></trkpt><trkpt lat="43.425165" lon="11.4421633"><ele>365.66666666666663</ele><time>2026-04-03T12:06:13.269Z</time></trkpt><trkpt lat="43.4250867" lon="11.4423433"><ele>367.3333333333333</ele><time>2026-04-03T12:06:14.269Z</time></trkpt><trkpt lat="43.4250083" lon="11.4425317"><ele>369.0</ele><time>2026-04-03T12:06:15.269Z</time></trkpt><trkpt lat="43.42494" lon="11.4427267"><ele>369.0</ele><time>2026-04-03T12:06:16.269Z</time></trkpt><trkpt lat="43.424895" lon="11.4429283"><ele>369.0</ele><time>2026-04-03T12:06:17.269Z</time></trkpt><trkpt lat="43.4248717" lon="11.4431333"><ele>369.0</ele><time>2026-04-03T12:06:18.27Z</time></trkpt><trkpt lat="43.4248633" lon="11.4433283"><ele>369.0</ele><time>2026-04-03T12:06:19.269Z</time></trkpt><trkpt lat="43.4248467" lon="11.44351"><ele>368.75</ele><time>2026-04-03T12:06:20.269Z</time></trkpt><trkpt lat="43.4248283" lon="11.4436983"><ele>368.5</ele><time>2026-04-03T12:06:21.269Z</time></trkpt><trkpt lat="43.424785" lon="11.4438817"><ele>368.25</ele><time>2026-04-03T12:06:22.269Z</time></trkpt><trkpt lat="43.424715" lon="11.4440433"><ele>368.0</ele><time>2026-04-03T12:06:23.27Z</time></trkpt><trkpt lat="43.4246133" lon="11.44417"><ele>371.0</ele><time>2026-04-03T12:06:24.269Z</time></trkpt><trkpt lat="43.42454" lon="11.4443167"><ele>374.0</ele><time>2026-04-03T12:06:25.269Z</time></trkpt><trkpt lat="43.4244517" lon="11.44447"><ele>377.0</ele><time>2026-04-03T12:06:26.269Z</time></trkpt><trkpt lat="43.4243633" lon="11.444635"><ele>380.0</ele><time>2026-04-03T12:06:27.269Z</time></trkpt><trkpt lat="43.4242767" lon="11.4448133"><ele>380.0</ele><time>2026-04-03T12:06:28.269Z</time></trkpt><trkpt lat="43.4241917" lon="11.44504"><ele>380.0</ele><time>2026-04-03T12:06:29.27Z</time></trkpt><trkpt lat="43.4241067" lon="11.4452433"><ele>380.0</ele><time>2026-04-03T12:06:30.269Z</time></trkpt><trkpt lat="43.4240317" lon="11.445415"><ele>380.0</ele><time>2026-04-03T12:06:31.269Z</time></trkpt><trkpt lat="43.4239617" lon="11.445565"><ele>380.0</ele><time>2026-04-03T12:06:32.269Z</time></trkpt><trkpt lat="43.4239133" lon="11.4456983"><ele>380.0</ele><time>2026-04-03T12:06:33.269Z</time></trkpt><trkpt lat="43.423895" lon="11.4458167"><ele>380.0</ele><time>2026-04-03T12:06:34.269Z</time></trkpt><trkpt lat="43.4238967" lon="11.445945"><ele>380.0</ele><time>2026-04-03T12:06:35.269Z</time></trkpt><trkpt lat="43.4239417" lon="11.446065"><ele>380.0</ele><time>2026-04-03T12:06:36.269Z</time></trkpt><trkpt lat="43.424015" lon="11.4461417"><ele>380.0</ele><time>2026-04-03T12:06:37.269Z</time></trkpt><trkpt lat="43.4241233" lon="11.4462083"><ele>380.0</ele><time>2026-04-03T12:06:38.269Z</time></trkpt><trkpt lat="43.4242217" lon="11.44626"><ele>380.0</ele><time>2026-04-03T12:06:39.269Z</time></trkpt><trkpt lat="43.4242933" lon="11.4462917"><ele>380.0</ele><time>2026-04-03T12:06:40.269Z</time></trkpt><trkpt lat="43.4243683" lon="11.44639"><ele>382.5</ele><time>2026-04-03T12:06:41.27Z</time></trkpt><trkpt lat="43.4244217" lon="11.4465217"><ele>385.0</ele><time>2026-04-03T12:06:42.269Z</time></trkpt><trkpt lat="43.4244417" lon="11.4466867"><ele>387.5</ele><time>2026-04-03T12:06:43.27Z</time></trkpt><trkpt lat="43.42444" lon="11.446855"><ele>390.0</ele><time>2026-04-03T12:06:44.269Z</time></trkpt><trkpt lat="43.4244367" lon="11.4470433"><ele>391.0</ele><time>2026-04-03T12:06:45.27Z</time></trkpt><trkpt lat="43.42441" lon="11.447225"><ele>392.0</ele><time>2026-04-03T12:06:46.269Z</time></trkpt><trkpt lat="43.424365" lon="11.4473883"><ele>393.0</ele><time>2026-04-03T12:06:47.269Z</time></trkpt><trkpt lat="43.424285" lon="11.4475267"><ele>394.0</ele><time>2026-04-03T12:06:48.269Z</time></trkpt><trkpt lat="43.4241967" lon="11.4476483"><ele>394.0</ele><time>2026-04-03T12:06:49.269Z</time></trkpt><trkpt lat="43.4240933" lon="11.44777"><ele>394.0</ele><time>2026-04-03T12:06:50.269Z</time></trkpt><trkpt lat="43.4239833" lon="11.4478833"><ele>394.0</ele><time>2026-04-03T12:06:51.269Z</time></trkpt><trkpt lat="43.4239017" lon="11.4480133"><ele>394.0</ele><time>2026-04-03T12:06:52.269Z</time></trkpt><trkpt lat="43.423845" lon="11.4481617"><ele>393.5</ele><time>2026-04-03T12:06:53.269Z</time></trkpt><trkpt lat="43.423825" lon="11.4483217"><ele>393.0</ele><time>2026-04-03T12:06:54.269Z</time></trkpt><trkpt lat="43.4238383" lon="11.4485217"><ele>392.5</ele><time>2026-04-03T12:06:55.269Z</time></trkpt><trkpt lat="43.4238867" lon="11.4487283"><ele>392.0</ele><time>2026-04-03T12:06:56.27Z</time></trkpt><trkpt lat="43.4239483" lon="11.4489467"><ele>392.0</ele><time>2026-04-03T12:06:57.27Z</time></trkpt><trkpt lat="43.423995" lon="11.44915"><ele>392.0</ele><time>2026-04-03T12:06:58.269Z</time></trkpt><trkpt lat="43.4240033" lon="11.4493183"><ele>392.0</ele><time>2026-04-03T12:06:59.27Z</time></trkpt><trkpt lat="43.4239767" lon="11.44947"><ele>392.0</ele><time>2026-04-03T12:07:00.269Z</time></trkpt><trkpt lat="43.4239317" lon="11.4496383"><ele>389.3333333333333</ele><time>2026-04-03T12:07:01.269Z</time></trkpt><trkpt lat="43.4238717" lon="11.44983"><ele>386.66666666666663</ele><time>2026-04-03T12:07:02.269Z</time></trkpt><trkpt lat="43.4237683" lon="11.4499967"><ele>384.0</ele><time>2026-04-03T12:07:03.269Z</time></trkpt><trkpt lat="43.4236317" lon="11.4501283"><ele>388.33333333333337</ele><time>2026-04-03T12:07:04.27Z</time></trkpt><trkpt lat="43.4235" lon="11.4503033"><ele>392.6666666666667</ele><time>2026-04-03T12:07:05.27Z</time></trkpt><trkpt lat="43.4233817" lon="11.45048"><ele>397.0</ele><time>2026-04-03T12:07:06.269Z</time></trkpt><trkpt lat="43.423285" lon="11.4506583"><ele>397.0</ele><time>2026-04-03T12:07:07.269Z</time></trkpt><trkpt lat="43.42316" lon="11.450805"><ele>397.0</ele><time>2026-04-03T12:07:08.269Z</time></trkpt><trkpt lat="43.42303" lon="11.4509333"><ele>397.0</ele><time>2026-04-03T12:07:09.269Z</time></trkpt><trkpt lat="43.4229" lon="11.4510533"><ele>396.6666666666667</ele><time>2026-04-03T12:07:10.269Z</time></trkpt><trkpt lat="43.4227667" lon="11.4511633"><ele>396.33333333333337</ele><time>2026-04-03T12:07:11.269Z</time></trkpt><trkpt lat="43.4226283" lon="11.4512617"><ele>396.0</ele><time>2026-04-03T12:07:12.269Z</time></trkpt><trkpt lat="43.4224983" lon="11.451335"><ele>396.0</ele><time>2026-04-03T12:07:13.269Z</time></trkpt><trkpt lat="43.42236" lon="11.451375"><ele>396.0</ele><time>2026-04-03T12:07:14.269Z</time></trkpt><trkpt lat="43.4222217" lon="11.4513933"><ele>396.0</ele><time>2026-04-03T12:07:15.269Z</time></trkpt><trkpt lat="43.4220967" lon="11.4513983"><ele>396.0</ele><time>2026-04-03T12:07:16.269Z</time></trkpt><trkpt lat="43.4219867" lon="11.4514117"><ele>402.4</ele><time>2026-04-03T12:07:17.269Z</time></trkpt><trkpt lat="43.421875" lon="11.4514417"><ele>408.8</ele><time>2026-04-03T12:07:18.269Z</time></trkpt><trkpt lat="43.4217883" lon="11.4515"><ele>415.19999999999993</ele><time>2026-04-03T12:07:19.269Z</time></trkpt><trkpt lat="43.4217033" lon="11.4515917"><ele>421.59999999999997</ele><time>2026-04-03T12:07:20.269Z</time></trkpt><trkpt lat="43.4216767" lon="11.4517117"><ele>428.0</ele><time>2026-04-03T12:07:21.27Z</time></trkpt><trkpt lat="43.4216633" lon="11.4518567"><ele>428.0</ele><time>2026-04-03T12:07:22.269Z</time></trkpt><trkpt lat="43.4216333" lon="11.4520367"><ele>428.0</ele><time>2026-04-03T12:07:23.269Z</time></trkpt><trkpt lat="43.4215783" lon="11.4522133"><ele>428.0</ele><time>2026-04-03T12:07:24.269Z</time></trkpt><trkpt lat="43.42157" lon="11.4524733"><ele>425.75</ele><time>2026-04-03T12:07:25.269Z</time></trkpt><trkpt lat="43.4215117" lon="11.45267"><ele>423.5</ele><time>2026-04-03T12:07:26.269Z</time></trkpt><trkpt lat="43.4214783" lon="11.4528317"><ele>421.25</ele><time>2026-04-03T12:07:27.269Z</time></trkpt><trkpt lat="43.4214733" lon="11.4530117"><ele>419.0</ele><time>2026-04-03T12:07:28.269Z</time></trkpt><trkpt lat="43.4214883" lon="11.45321"><ele>418.0</ele><time>2026-04-03T12:07:29.269Z</time></trkpt><trkpt lat="43.42154" lon="11.45338"><ele>417.0</ele><time>2026-04-03T12:07:30.269Z</time></trkpt><trkpt lat="43.42168" lon="11.4535267"><ele>416.0</ele><time>2026-04-03T12:07:31.269Z</time></trkpt><trkpt lat="43.4217117" lon="11.4536783"><ele>415.0</ele><time>2026-04-03T12:07:32.269Z</time></trkpt><trkpt lat="43.4217333" lon="11.4538367"><ele>414.6</ele><time>2026-04-03T12:07:33.269Z</time></trkpt><trkpt lat="43.4217367" lon="11.454"><ele>414.2</ele><time>2026-04-03T12:07:34.269Z</time></trkpt><trkpt lat="43.4217383" lon="11.4541517"><ele>413.79999999999995</ele><time>2026-04-03T12:07:35.269Z</time></trkpt><trkpt lat="43.4217017" lon="11.4542983"><ele>413.4</ele><time>2026-04-03T12:07:36.269Z</time></trkpt><trkpt lat="43.4216533" lon="11.45443"><ele>413.0</ele><time>2026-04-03T12:07:37.269Z</time></trkpt><trkpt lat="43.42159" lon="11.4545583"><ele>416.0</ele><time>2026-04-03T12:07:38.269Z</time></trkpt><trkpt lat="43.4213833" lon="11.4546467"><ele>419.0</ele><time>2026-04-03T12:07:39.269Z</time></trkpt><trkpt lat="43.421165" lon="11.454685"><ele>422.0</ele><time>2026-04-03T12:07:40.269Z</time></trkpt><trkpt lat="43.421045" lon="11.4547933"><ele>422.0</ele><time>2026-04-03T12:07:41.27Z</time></trkpt><trkpt lat="43.42093" lon="11.4549183"><ele>422.0</ele><time>2026-04-03T12:07:42.27Z</time></trkpt><trkpt lat="43.4208217" lon="11.4550583"><ele>422.0</ele><time>2026-04-03T12:07:43.27Z</time></trkpt><trkpt lat="43.4207183" lon="11.455215"><ele>422.0</ele><time>2026-04-03T12:07:44.27Z</time></trkpt><trkpt lat="43.420615" lon="11.4553733"><ele>424.0</ele><time>2026-04-03T12:07:45.27Z</time></trkpt><trkpt lat="43.4205" lon="11.4555417"><ele>426.0</ele><time>2026-04-03T12:07:46.269Z</time></trkpt><trkpt lat="43.4203867" lon="11.4556967"><ele>428.0</ele><time>2026-04-03T12:07:47.269Z</time></trkpt><trkpt lat="43.420265" lon="11.4558533"><ele>428.0</ele><time>2026-04-03T12:07:48.269Z</time></trkpt><trkpt lat="43.42015" lon="11.45603"><ele>428.0</ele><time>2026-04-03T12:07:49.269Z</time></trkpt><trkpt lat="43.420035" lon="11.4562067"><ele>428.0</ele><time>2026-04-03T12:07:50.27Z</time></trkpt><trkpt lat="43.41992" lon="11.4563683"><ele>426.75</ele><time>2026-04-03T12:07:51.27Z</time></trkpt><trkpt lat="43.4198133" lon="11.456515"><ele>425.5</ele><time>2026-04-03T12:07:52.269Z</time></trkpt><trkpt lat="43.4197083" lon="11.4566467"><ele>424.25</ele><time>2026-04-03T12:07:53.269Z</time></trkpt><trkpt lat="43.4196133" lon="11.4567417"><ele>423.0</ele><time>2026-04-03T12:07:54.269Z</time></trkpt><trkpt lat="43.4194933" lon="11.4568067"><ele>426.25</ele><time>2026-04-03T12:07:55.269Z</time></trkpt><trkpt lat="43.4193733" lon="11.456845"><ele>429.5</ele><time>2026-04-03T12:07:56.269Z</time></trkpt><trkpt lat="43.4192633" lon="11.45688"><ele>432.75</ele><time>2026-04-03T12:07:57.269Z</time></trkpt><trkpt lat="43.4191683" lon="11.4569333"><ele>436.0</ele><time>2026-04-03T12:07:58.269Z</time></trkpt><trkpt lat="43.419075" lon="11.4570167"><ele>436.0</ele><time>2026-04-03T12:07:59.269Z</time></trkpt><trkpt lat="43.4189917" lon="11.4571183"><ele>436.0</ele><time>2026-04-03T12:08:00.269Z</time></trkpt><trkpt lat="43.4189283" lon="11.4572433"><ele>436.0</ele><time>2026-04-03T12:08:01.269Z</time></trkpt><trkpt lat="43.4188867" lon="11.4573967"><ele>436.0</ele><time>2026-04-03T12:08:02.27Z</time></trkpt><trkpt lat="43.4188367" lon="11.4575433"><ele>435.25</ele><time>2026-04-03T12:08:03.269Z</time></trkpt><trkpt lat="43.418785" lon="11.457675"><ele>434.5</ele><time>2026-04-03T12:08:04.27Z</time></trkpt><trkpt lat="43.4187167" lon="11.4578133"><ele>433.75</ele><time>2026-04-03T12:08:05.27Z</time></trkpt><trkpt lat="43.41859" lon="11.4579533"><ele>433.0</ele><time>2026-04-03T12:08:06.27Z</time></trkpt><trkpt lat="43.41845" lon="11.45808"><ele>433.0</ele><time>2026-04-03T12:08:07.269Z</time></trkpt><trkpt lat="43.4183033" lon="11.4582"><ele>433.0</ele><time>2026-04-03T12:08:08.269Z</time></trkpt><trkpt lat="43.41817" lon="11.458305"><ele>433.0</ele><time>2026-04-03T12:08:09.269Z</time></trkpt><trkpt lat="43.4180433" lon="11.4584"><ele>434.5</ele><time>2026-04-03T12:08:10.269Z</time></trkpt><trkpt lat="43.4179083" lon="11.4584317"><ele>436.0</ele><time>2026-04-03T12:08:11.269Z</time></trkpt><trkpt lat="43.417765" lon="11.458415"><ele>437.5</ele><time>2026-04-03T12:08:12.269Z</time></trkpt><trkpt lat="43.4176367" lon="11.4583267"><ele>439.0</ele><time>2026-04-03T12:08:13.269Z</time></trkpt><trkpt lat="43.41751" lon="11.45822"><ele>439.0</ele><time>2026-04-03T12:08:14.269Z</time></trkpt><trkpt lat="43.4173783" lon="11.4581267"><ele>439.0</ele><time>2026-04-03T12:08:15.269Z</time></trkpt><trkpt lat="43.41723" lon="11.4580517"><ele>439.0</ele><time>2026-04-03T12:08:16.269Z</time></trkpt><trkpt lat="43.41707" lon="11.4580017"><ele>439.5</ele><time>2026-04-03T12:08:17.27Z</time></trkpt><trkpt lat="43.4169183" lon="11.4579733"><ele>440.0</ele><time>2026-04-03T12:08:18.269Z</time></trkpt><trkpt lat="43.4167817" lon="11.4579633"><ele>440.5</ele><time>2026-04-03T12:08:19.27Z</time></trkpt><trkpt lat="43.416645" lon="11.4579583"><ele>441.0</ele><time>2026-04-03T12:08:20.269Z</time></trkpt><trkpt lat="43.4165133" lon="11.4579717"><ele>441.0</ele><time>2026-04-03T12:08:21.27Z</time></trkpt><trkpt lat="43.4163867" lon="11.4580233"><ele>441.0</ele><time>2026-04-03T12:08:22.27Z</time></trkpt><trkpt lat="43.41626" lon="11.4581067"><ele>441.0</ele><time>2026-04-03T12:08:23.269Z</time></trkpt><trkpt lat="43.41616" lon="11.4582183"><ele>441.0</ele><time>2026-04-03T12:08:24.27Z</time></trkpt><trkpt lat="43.4160633" lon="11.4583417"><ele>442.0</ele><time>2026-04-03T12:08:25.269Z</time></trkpt><trkpt lat="43.4159883" lon="11.45846"><ele>443.0</ele><time>2026-04-03T12:08:26.269Z</time></trkpt><trkpt lat="43.4159317" lon="11.4585667"><ele>444.0</ele><time>2026-04-03T12:08:27.269Z</time></trkpt><trkpt lat="43.4159067" lon="11.4586633"><ele>445.0</ele><time>2026-04-03T12:08:28.269Z</time></trkpt><trkpt lat="43.4158783" lon="11.4587833"><ele>446.0</ele><time>2026-04-03T12:08:29.269Z</time></trkpt><trkpt lat="43.4158467" lon="11.4589083"><ele>446.66666666666663</ele><time>2026-04-03T12:08:30.269Z</time></trkpt><trkpt lat="43.4158233" lon="11.4590333"><ele>447.3333333333333</ele><time>2026-04-03T12:08:31.269Z</time></trkpt><trkpt lat="43.4158117" lon="11.459135"><ele>448.0</ele><time>2026-04-03T12:08:32.269Z</time></trkpt><trkpt lat="43.4158117" lon="11.4592383"><ele>448.66666666666663</ele><time>2026-04-03T12:08:33.269Z</time></trkpt><trkpt lat="43.41582" lon="11.4593283"><ele>449.3333333333333</ele><time>2026-04-03T12:08:34.27Z</time></trkpt><trkpt lat="43.4158433" lon="11.4594117"><ele>450.0</ele><time>2026-04-03T12:08:35.269Z</time></trkpt><trkpt lat="43.4158633" lon="11.4595233"><ele>451.1666666666667</ele><time>2026-04-03T12:08:37.269Z</time></trkpt><trkpt lat="43.415885" lon="11.4596517"><ele>452.33333333333337</ele><time>2026-04-03T12:09:25.269Z</time></trkpt><trkpt lat="43.4158733" lon="11.459795"><ele>453.5</ele><time>2026-04-03T12:09:27.269Z</time></trkpt><trkpt lat="43.415875" lon="11.4599333"><ele>454.6666666666667</ele><time>2026-04-03T12:09:29.27Z</time></trkpt><trkpt lat="43.41589" lon="11.4600183"><ele>455.83333333333337</ele><time>2026-04-03T12:09:30.268Z</time></trkpt><trkpt lat="43.4159067" lon="11.460125"><ele>457.0</ele><time>2026-04-03T12:09:31.268Z</time></trkpt><trkpt lat="43.4159283" lon="11.4602433"><ele>457.0</ele><time>2026-04-03T12:09:32.269Z</time></trkpt><trkpt lat="43.4159717" lon="11.4603817"><ele>457.00000000000006</ele><time>2026-04-03T12:09:33.268Z</time></trkpt><trkpt lat="43.416025" lon="11.4605"><ele>457.00000000000006</ele><time>2026-04-03T12:09:34.268Z</time></trkpt><trkpt lat="43.4160867" lon="11.4606117"><ele>457.0</ele><time>2026-04-03T12:09:35.269Z</time></trkpt><trkpt lat="43.4161317" lon="11.4607083"><ele>457.0</ele><time>2026-04-03T12:09:36.268Z</time></trkpt><trkpt lat="43.4161717" lon="11.460905"><ele>459.33333333333337</ele><time>2026-04-03T12:09:37.269Z</time></trkpt><trkpt lat="43.4161817" lon="11.4610133"><ele>461.6666666666667</ele><time>2026-04-03T12:09:38.268Z</time></trkpt><trkpt lat="43.4161867" lon="11.46111"><ele>464.0</ele><time>2026-04-03T12:09:39.268Z</time></trkpt><trkpt lat="43.4161883" lon="11.4612"><ele>466.33333333333337</ele><time>2026-04-03T12:09:40.268Z</time></trkpt><trkpt lat="43.41614" lon="11.46132"><ele>468.6666666666667</ele><time>2026-04-03T12:09:42.268Z</time></trkpt><trkpt lat="43.416055" lon="11.4614017"><ele>471.0</ele><time>2026-04-03T12:09:44.268Z</time></trkpt><trkpt lat="43.41595" lon="11.4614017"><ele>471.0</ele><time>2026-04-03T12:09:46.268Z</time></trkpt><trkpt lat="43.41585" lon="11.4613517"><ele>471.0</ele><time>2026-04-03T12:09:48.268Z</time></trkpt><trkpt lat="43.4157967" lon="11.4613"><ele>471.0</ele><time>2026-04-03T12:09:49.268Z</time></trkpt><trkpt lat="43.4157417" lon="11.4612217"><ele>471.0</ele><time>2026-04-03T12:09:50.268Z</time></trkpt><trkpt lat="43.4156933" lon="11.4611167"><ele>471.0</ele><time>2026-04-03T12:09:51.268Z</time></trkpt><trkpt lat="43.41564" lon="11.46101"><ele>471.0</ele><time>2026-04-03T12:09:52.269Z</time></trkpt><trkpt lat="43.4155633" lon="11.46088"><ele>471.0</ele><time>2026-04-03T12:09:53.268Z</time></trkpt><trkpt lat="43.4154933" lon="11.4608017"><ele>471.0</ele><time>2026-04-03T12:09:54.268Z</time></trkpt><trkpt lat="43.4154217" lon="11.4607417"><ele>471.0</ele><time>2026-04-03T12:09:55.268Z</time></trkpt><trkpt lat="43.415335" lon="11.4606967"><ele>471.0</ele><time>2026-04-03T12:09:57.268Z</time></trkpt><trkpt lat="43.4152717" lon="11.4606933"><ele>471.0</ele><time>2026-04-03T12:09:59.268Z</time></trkpt><trkpt lat="43.4153017" lon="11.4607967"><ele>471.0</ele><time>2026-04-03T12:10:05.268Z</time></trkpt><trkpt lat="43.415345" lon="11.46093"><ele>473.25</ele><time>2026-04-03T12:10:07.268Z</time></trkpt><trkpt lat="43.415405" lon="11.4611367"><ele>475.5</ele><time>2026-04-03T12:10:09.268Z</time></trkpt><trkpt lat="43.41541" lon="11.4612433"><ele>477.75</ele><time>2026-04-03T12:10:10.268Z</time></trkpt><trkpt lat="43.4154167" lon="11.461345"><ele>480.0</ele><time>2026-04-03T12:10:11.268Z</time></trkpt><trkpt lat="43.4153917" lon="11.461535"><ele>482.0</ele><time>2026-04-03T12:10:13.268Z</time></trkpt><trkpt lat="43.4153917" lon="11.461625"><ele>484.0</ele><time>2026-04-03T12:10:14.268Z</time></trkpt><trkpt lat="43.415325" lon="11.461715"><ele>486.0</ele><time>2026-04-03T12:10:16.268Z</time></trkpt><trkpt lat="43.41522" lon="11.461575"><ele>488.0</ele><time>2026-04-03T12:10:23.268Z</time></trkpt><trkpt lat="43.4151633" lon="11.4615183"><ele>490.0</ele><time>2026-04-03T12:10:25.268Z</time></trkpt><trkpt lat="43.4150733" lon="11.4614683"><ele>490.0</ele><time>2026-04-03T12:10:26.268Z</time></trkpt><trkpt lat="43.4150183" lon="11.461525"><ele>490.0</ele><time>2026-04-03T12:10:28.268Z</time></trkpt><trkpt lat="43.4149733" lon="11.46167"><ele>490.0</ele><time>2026-04-03T12:10:31.268Z</time></trkpt><trkpt lat="43.4149217" lon="11.461795"><ele>490.0</ele><time>2026-04-03T12:10:33.269Z</time></trkpt><trkpt lat="43.4148783" lon="11.4619083"><ele>490.0</ele><time>2026-04-03T12:10:35.269Z</time></trkpt><trkpt lat="43.4148233" lon="11.46201"><ele>491.33333333333337</ele><time>2026-04-03T12:10:37.268Z</time></trkpt><trkpt lat="43.414775" lon="11.4621217"><ele>492.6666666666667</ele><time>2026-04-03T12:10:39.268Z</time></trkpt><trkpt lat="43.41473" lon="11.4622417"><ele>494.0</ele><time>2026-04-03T12:10:41.269Z</time></trkpt><trkpt lat="43.4146983" lon="11.4623217"><ele>495.33333333333337</ele><time>2026-04-03T12:10:42.269Z</time></trkpt><trkpt lat="43.4146633" lon="11.4624117"><ele>496.6666666666667</ele><time>2026-04-03T12:10:43.269Z</time></trkpt><trkpt lat="43.414625" lon="11.4625217"><ele>498.0</ele><time>2026-04-03T12:10:44.268Z</time></trkpt><trkpt lat="43.4146033" lon="11.4626083"><ele>500.4</ele><time>2026-04-03T12:10:45.269Z</time></trkpt><trkpt lat="43.4145833" lon="11.462755"><ele>502.79999999999995</ele><time>2026-04-03T12:10:47.268Z</time></trkpt><trkpt lat="43.414565" lon="11.4629267"><ele>505.2</ele><time>2026-04-03T12:10:49.268Z</time></trkpt><trkpt lat="43.414555" lon="11.4630233"><ele>507.6</ele><time>2026-04-03T12:10:50.269Z</time></trkpt><trkpt lat="43.4145583" lon="11.4631233"><ele>510.0</ele><time>2026-04-03T12:10:51.269Z</time></trkpt><trkpt lat="43.4145633" lon="11.463255"><ele>512.3333333333334</ele><time>2026-04-03T12:10:52.268Z</time></trkpt><trkpt lat="43.41456" lon="11.4633633"><ele>514.6666666666666</ele><time>2026-04-03T12:10:53.268Z</time></trkpt><trkpt lat="43.4145383" lon="11.463465"><ele>517.0</ele><time>2026-04-03T12:10:54.268Z</time></trkpt><trkpt lat="43.414525" lon="11.463565"><ele>519.3333333333333</ele><time>2026-04-03T12:10:55.269Z</time></trkpt><trkpt lat="43.4144983" lon="11.4636733"><ele>521.6666666666666</ele><time>2026-04-03T12:10:56.268Z</time></trkpt><trkpt lat="43.41449" lon="11.46377"><ele>524.0</ele><time>2026-04-03T12:10:57.268Z</time></trkpt><trkpt lat="43.4144817" lon="11.4639233"><ele>524.0</ele><time>2026-04-03T12:10:59.269Z</time></trkpt><trkpt lat="43.4144367" lon="11.4640567"><ele>524.0</ele><time>2026-04-03T12:11:01.268Z</time></trkpt><trkpt lat="43.41438" lon="11.4641083"><ele>524.0</ele><time>2026-04-03T12:11:02.268Z</time></trkpt><trkpt lat="43.4143217" lon="11.464155"><ele>524.0</ele><time>2026-04-03T12:11:03.268Z</time></trkpt><trkpt lat="43.4142483" lon="11.4642"><ele>524.0</ele><time>2026-04-03T12:11:04.268Z</time></trkpt><trkpt lat="43.4141933" lon="11.46427"><ele>524.0</ele><time>2026-04-03T12:11:05.268Z</time></trkpt><trkpt lat="43.4141317" lon="11.46433"><ele>524.0</ele><time>2026-04-03T12:11:06.268Z</time></trkpt><trkpt lat="43.414055" lon="11.4643833"><ele>524.0</ele><time>2026-04-03T12:11:07.268Z</time></trkpt><trkpt lat="43.413965" lon="11.4644333"><ele>524.0</ele><time>2026-04-03T12:11:08.268Z</time></trkpt><trkpt lat="43.4138667" lon="11.4644883"><ele>524.0</ele><time>2026-04-03T12:11:09.268Z</time></trkpt><trkpt lat="43.4137683" lon="11.4645383"><ele>524.0</ele><time>2026-04-03T12:11:10.268Z</time></trkpt><trkpt lat="43.41367" lon="11.4645717"><ele>525.1666666666666</ele><time>2026-04-03T12:11:11.268Z</time></trkpt><trkpt lat="43.4135767" lon="11.464595"><ele>526.3333333333333</ele><time>2026-04-03T12:11:12.268Z</time></trkpt><trkpt lat="43.4134767" lon="11.4646083"><ele>527.5</ele><time>2026-04-03T12:11:13.268Z</time></trkpt><trkpt lat="43.4133833" lon="11.464605"><ele>528.6666666666666</ele><time>2026-04-03T12:11:14.268Z</time></trkpt><trkpt lat="43.4133033" lon="11.46458"><ele>529.8333333333334</ele><time>2026-04-03T12:11:15.268Z</time></trkpt><trkpt lat="43.4132267" lon="11.4645567"><ele>531.0</ele><time>2026-04-03T12:11:16.268Z</time></trkpt><trkpt lat="43.4131667" lon="11.4645017"><ele>531.0</ele><time>2026-04-03T12:11:17.268Z</time></trkpt><trkpt lat="43.4131133" lon="11.4644317"><ele>531.0</ele><time>2026-04-03T12:11:18.268Z</time></trkpt><trkpt lat="43.4130667" lon="11.464365"><ele>531.0</ele><time>2026-04-03T12:11:19.268Z</time></trkpt><trkpt lat="43.4129633" lon="11.464305"><ele>531.0</ele><time>2026-04-03T12:11:21.269Z</time></trkpt><trkpt lat="43.4128933" lon="11.464305"><ele>531.0</ele><time>2026-04-03T12:11:22.269Z</time></trkpt><trkpt lat="43.4128133" lon="11.464305"><ele>531.0</ele><time>2026-04-03T12:11:23.268Z</time></trkpt><trkpt lat="43.4127383" lon="11.4642933"><ele>528.1666666666666</ele><time>2026-04-03T12:11:24.269Z</time></trkpt><trkpt lat="43.4126683" lon="11.464285"><ele>525.3333333333334</ele><time>2026-04-03T12:11:25.268Z</time></trkpt><trkpt lat="43.4125967" lon="11.4642917"><ele>522.5</ele><time>2026-04-03T12:11:26.268Z</time></trkpt><trkpt lat="43.4125183" lon="11.4643217"><ele>519.6666666666667</ele><time>2026-04-03T12:11:27.268Z</time></trkpt><trkpt lat="43.4124483" lon="11.464355"><ele>516.8333333333334</ele><time>2026-04-03T12:11:28.269Z</time></trkpt><trkpt lat="43.4123817" lon="11.4644067"><ele>514.0</ele><time>2026-04-03T12:11:29.268Z</time></trkpt><trkpt lat="43.412315" lon="11.4644617"><ele>514.0</ele><time>2026-04-03T12:11:30.268Z</time></trkpt><trkpt lat="43.4122517" lon="11.4645"><ele>514.0</ele><time>2026-04-03T12:11:31.269Z</time></trkpt><trkpt lat="43.4121967" lon="11.4645467"><ele>514.0</ele><time>2026-04-03T12:11:32.269Z</time></trkpt><trkpt lat="43.4121283" lon="11.46459"><ele>514.0</ele><time>2026-04-03T12:11:33.268Z</time></trkpt><trkpt lat="43.41206" lon="11.4646383"><ele>514.0</ele><time>2026-04-03T12:11:34.268Z</time></trkpt><trkpt lat="43.4119983" lon="11.4646867"><ele>514.0</ele><time>2026-04-03T12:11:35.268Z</time></trkpt><trkpt lat="43.41194" lon="11.4647217"><ele>514.0</ele><time>2026-04-03T12:11:36.268Z</time></trkpt><trkpt lat="43.4118333" lon="11.4647733"><ele>512.1666666666667</ele><time>2026-04-03T12:11:38.268Z</time></trkpt><trkpt lat="43.4117067" lon="11.4647817"><ele>510.33333333333337</ele><time>2026-04-03T12:11:40.269Z</time></trkpt><trkpt lat="43.4116433" lon="11.4647717"><ele>508.5</ele><time>2026-04-03T12:11:41.268Z</time></trkpt><trkpt lat="43.41155" lon="11.464765"><ele>506.66666666666663</ele><time>2026-04-03T12:11:42.268Z</time></trkpt><trkpt lat="43.4114733" lon="11.464735"><ele>504.8333333333333</ele><time>2026-04-03T12:11:43.268Z</time></trkpt><trkpt lat="43.41141" lon="11.4646967"><ele>503.0</ele><time>2026-04-03T12:11:44.268Z</time></trkpt><trkpt lat="43.4113383" lon="11.464655"><ele>501.49999999999994</ele><time>2026-04-03T12:11:45.268Z</time></trkpt><trkpt lat="43.4112267" lon="11.46457"><ele>500.0</ele><time>2026-04-03T12:11:47.268Z</time></trkpt><trkpt lat="43.4111667" lon="11.4645433"><ele>498.5</ele><time>2026-04-03T12:11:48.268Z</time></trkpt><trkpt lat="43.4111033" lon="11.4645033"><ele>497.0</ele><time>2026-04-03T12:11:49.268Z</time></trkpt><trkpt lat="43.41104" lon="11.4644667"><ele>495.49999999999994</ele><time>2026-04-03T12:11:50.268Z</time></trkpt><trkpt lat="43.410975" lon="11.4644533"><ele>494.0</ele><time>2026-04-03T12:11:51.268Z</time></trkpt><trkpt lat="43.4109117" lon="11.4644433"><ele>494.0</ele><time>2026-04-03T12:11:52.268Z</time></trkpt><trkpt lat="43.4107933" lon="11.46444"><ele>494.0</ele><time>2026-04-03T12:11:54.269Z</time></trkpt><trkpt lat="43.4107117" lon="11.4644417"><ele>494.0</ele><time>2026-04-03T12:11:55.269Z</time></trkpt><trkpt lat="43.4106283" lon="11.4644417"><ele>494.0</ele><time>2026-04-03T12:11:56.268Z</time></trkpt><trkpt lat="43.4105333" lon="11.4644483"><ele>494.0</ele><time>2026-04-03T12:11:57.269Z</time></trkpt><trkpt lat="43.4104267" lon="11.4644533"><ele>493.6</ele><time>2026-04-03T12:11:58.268Z</time></trkpt><trkpt lat="43.4103067" lon="11.4644683"><ele>493.2</ele><time>2026-04-03T12:11:59.269Z</time></trkpt><trkpt lat="43.410195" lon="11.4644717"><ele>492.80000000000007</ele><time>2026-04-03T12:12:00.268Z</time></trkpt><trkpt lat="43.4100883" lon="11.464465"><ele>492.40000000000003</ele><time>2026-04-03T12:12:01.268Z</time></trkpt><trkpt lat="43.4099783" lon="11.4644583"><ele>492.0</ele><time>2026-04-03T12:12:02.268Z</time></trkpt><trkpt lat="43.4098683" lon="11.4644433"><ele>492.0</ele><time>2026-04-03T12:12:03.268Z</time></trkpt><trkpt lat="43.4097567" lon="11.4644483"><ele>492.00000000000006</ele><time>2026-04-03T12:12:04.269Z</time></trkpt><trkpt lat="43.4096383" lon="11.4644633"><ele>492.00000000000006</ele><time>2026-04-03T12:12:05.268Z</time></trkpt><trkpt lat="43.4095367" lon="11.4644717"><ele>492.0</ele><time>2026-04-03T12:12:06.269Z</time></trkpt><trkpt lat="43.4094333" lon="11.4644933"><ele>492.0</ele><time>2026-04-03T12:12:07.268Z</time></trkpt><trkpt lat="43.40933" lon="11.4645033"><ele>492.20000000000005</ele><time>2026-04-03T12:12:08.268Z</time></trkpt><trkpt lat="43.4092283" lon="11.4645283"><ele>492.40000000000003</ele><time>2026-04-03T12:12:09.269Z</time></trkpt><trkpt lat="43.4091383" lon="11.4645483"><ele>492.59999999999997</ele><time>2026-04-03T12:12:10.268Z</time></trkpt><trkpt lat="43.409045" lon="11.4645583"><ele>492.79999999999995</ele><time>2026-04-03T12:12:11.268Z</time></trkpt><trkpt lat="43.40895" lon="11.4645633"><ele>493.0</ele><time>2026-04-03T12:12:12.268Z</time></trkpt><trkpt lat="43.4088467" lon="11.46457"><ele>492.2</ele><time>2026-04-03T12:12:13.268Z</time></trkpt><trkpt lat="43.40874" lon="11.4645767"><ele>491.4</ele><time>2026-04-03T12:12:14.268Z</time></trkpt><trkpt lat="43.408645" lon="11.4645667"><ele>490.59999999999997</ele><time>2026-04-03T12:12:15.268Z</time></trkpt><trkpt lat="43.408545" lon="11.4645617"><ele>489.79999999999995</ele><time>2026-04-03T12:12:16.269Z</time></trkpt><trkpt lat="43.4084417" lon="11.4645583"><ele>489.0</ele><time>2026-04-03T12:12:17.268Z</time></trkpt><trkpt lat="43.4083367" lon="11.46456"><ele>489.0</ele><time>2026-04-03T12:12:18.268Z</time></trkpt><trkpt lat="43.40823" lon="11.4645617"><ele>489.0</ele><time>2026-04-03T12:12:19.268Z</time></trkpt><trkpt lat="43.4081167" lon="11.4645617"><ele>489.0</ele><time>2026-04-03T12:12:20.269Z</time></trkpt><trkpt lat="43.4080017" lon="11.4645567"><ele>489.0</ele><time>2026-04-03T12:12:21.268Z</time></trkpt><trkpt lat="43.4078883" lon="11.4645283"><ele>487.0</ele><time>2026-04-03T12:12:22.268Z</time></trkpt><trkpt lat="43.4077733" lon="11.464515"><ele>485.0</ele><time>2026-04-03T12:12:23.268Z</time></trkpt><trkpt lat="43.40767" lon="11.4645283"><ele>483.0</ele><time>2026-04-03T12:12:24.268Z</time></trkpt><trkpt lat="43.407575" lon="11.4645483"><ele>481.0</ele><time>2026-04-03T12:12:25.269Z</time></trkpt><trkpt lat="43.40749" lon="11.4645667"><ele>479.0</ele><time>2026-04-03T12:12:26.269Z</time></trkpt><trkpt lat="43.407405" lon="11.4645817"><ele>478.99999999999994</ele><time>2026-04-03T12:12:27.268Z</time></trkpt><trkpt lat="43.407325" lon="11.464595"><ele>479.0</ele><time>2026-04-03T12:12:28.268Z</time></trkpt><trkpt lat="43.4072417" lon="11.46461"><ele>479.0</ele><time>2026-04-03T12:12:29.268Z</time></trkpt><trkpt lat="43.4071517" lon="11.4646233"><ele>479.0</ele><time>2026-04-03T12:12:30.268Z</time></trkpt><trkpt lat="43.4070517" lon="11.4646317"><ele>478.99999999999994</ele><time>2026-04-03T12:12:31.268Z</time></trkpt><trkpt lat="43.4069583" lon="11.4646333"><ele>479.0</ele><time>2026-04-03T12:12:32.268Z</time></trkpt><trkpt lat="43.406875" lon="11.4646083"><ele>478.16666666666663</ele><time>2026-04-03T12:12:33.268Z</time></trkpt><trkpt lat="43.40679" lon="11.4645633"><ele>477.3333333333333</ele><time>2026-04-03T12:12:34.268Z</time></trkpt><trkpt lat="43.4067033" lon="11.46454"><ele>476.5</ele><time>2026-04-03T12:12:35.269Z</time></trkpt><trkpt lat="43.40662" lon="11.46452"><ele>475.66666666666663</ele><time>2026-04-03T12:12:36.268Z</time></trkpt><trkpt lat="43.4065367" lon="11.4644983"><ele>474.8333333333333</ele><time>2026-04-03T12:12:37.268Z</time></trkpt><trkpt lat="43.4064583" lon="11.46448"><ele>474.0</ele><time>2026-04-03T12:12:38.268Z</time></trkpt><trkpt lat="43.406385" lon="11.4644467"><ele>473.0</ele><time>2026-04-03T12:12:39.268Z</time></trkpt><trkpt lat="43.4063033" lon="11.4644133"><ele>472.0</ele><time>2026-04-03T12:12:40.269Z</time></trkpt><trkpt lat="43.4062217" lon="11.4643817"><ele>471.0</ele><time>2026-04-03T12:12:41.269Z</time></trkpt><trkpt lat="43.4061433" lon="11.4643433"><ele>470.0</ele><time>2026-04-03T12:12:42.269Z</time></trkpt><trkpt lat="43.4060617" lon="11.464305"><ele>469.0</ele><time>2026-04-03T12:12:43.269Z</time></trkpt><trkpt lat="43.4059867" lon="11.4642533"><ele>468.0</ele><time>2026-04-03T12:12:44.268Z</time></trkpt><trkpt lat="43.4059033" lon="11.464195"><ele>468.0</ele><time>2026-04-03T12:12:45.268Z</time></trkpt><trkpt lat="43.4058283" lon="11.4641383"><ele>468.0</ele><time>2026-04-03T12:12:46.269Z</time></trkpt><trkpt lat="43.4057517" lon="11.4640717"><ele>468.0</ele><time>2026-04-03T12:12:47.268Z</time></trkpt><trkpt lat="43.405675" lon="11.4640117"><ele>468.0</ele><time>2026-04-03T12:12:48.268Z</time></trkpt><trkpt lat="43.4055983" lon="11.463955"><ele>468.0</ele><time>2026-04-03T12:12:49.268Z</time></trkpt><trkpt lat="43.40553" lon="11.463905"><ele>468.0</ele><time>2026-04-03T12:12:50.268Z</time></trkpt><trkpt lat="43.40546" lon="11.4638417"><ele>465.5</ele><time>2026-04-03T12:12:51.268Z</time></trkpt><trkpt lat="43.4053967" lon="11.4637833"><ele>463.0</ele><time>2026-04-03T12:12:52.268Z</time></trkpt><trkpt lat="43.4053367" lon="11.4637167"><ele>460.5</ele><time>2026-04-03T12:12:53.268Z</time></trkpt><trkpt lat="43.4052717" lon="11.4636483"><ele>458.0</ele><time>2026-04-03T12:12:54.269Z</time></trkpt><trkpt lat="43.4052117" lon="11.46357"><ele>455.5</ele><time>2026-04-03T12:12:55.268Z</time></trkpt><trkpt lat="43.4051567" lon="11.463495"><ele>453.0</ele><time>2026-04-03T12:12:56.269Z</time></trkpt><trkpt lat="43.40511" lon="11.4634267"><ele>453.0</ele><time>2026-04-03T12:12:57.268Z</time></trkpt><trkpt lat="43.40504" lon="11.4632833"><ele>452.99999999999994</ele><time>2026-04-03T12:12:59.268Z</time></trkpt><trkpt lat="43.404965" lon="11.4631667"><ele>452.99999999999994</ele><time>2026-04-03T12:13:01.268Z</time></trkpt><trkpt lat="43.4048783" lon="11.4630333"><ele>453.0</ele><time>2026-04-03T12:13:03.269Z</time></trkpt><trkpt lat="43.404835" lon="11.46295"><ele>453.0</ele><time>2026-04-03T12:13:04.269Z</time></trkpt><trkpt lat="43.4047933" lon="11.4628467"><ele>452.2</ele><time>2026-04-03T12:13:05.268Z</time></trkpt><trkpt lat="43.4047617" lon="11.462735"><ele>451.4</ele><time>2026-04-03T12:13:06.268Z</time></trkpt><trkpt lat="43.40474" lon="11.4625967"><ele>450.59999999999997</ele><time>2026-04-03T12:13:07.269Z</time></trkpt><trkpt lat="43.40472" lon="11.4624683"><ele>449.79999999999995</ele><time>2026-04-03T12:13:08.269Z</time></trkpt><trkpt lat="43.4047033" lon="11.4623467"><ele>449.0</ele><time>2026-04-03T12:13:09.268Z</time></trkpt><trkpt lat="43.4046867" lon="11.462235"><ele>448.99999999999994</ele><time>2026-04-03T12:13:10.268Z</time></trkpt><trkpt lat="43.4046667" lon="11.46213"><ele>449.0</ele><time>2026-04-03T12:13:11.268Z</time></trkpt><trkpt lat="43.404645" lon="11.4620183"><ele>449.0</ele><time>2026-04-03T12:13:12.269Z</time></trkpt><trkpt lat="43.4046183" lon="11.461915"><ele>449.0</ele><time>2026-04-03T12:13:13.269Z</time></trkpt><trkpt lat="43.404595" lon="11.4618133"><ele>448.99999999999994</ele><time>2026-04-03T12:13:14.268Z</time></trkpt><trkpt lat="43.4045733" lon="11.461705"><ele>449.0</ele><time>2026-04-03T12:13:15.268Z</time></trkpt><trkpt lat="43.40454" lon="11.4615967"><ele>450.16666666666663</ele><time>2026-04-03T12:13:16.268Z</time></trkpt><trkpt lat="43.4045" lon="11.4615017"><ele>451.3333333333333</ele><time>2026-04-03T12:13:17.268Z</time></trkpt><trkpt lat="43.4044617" lon="11.4614083"><ele>452.5</ele><time>2026-04-03T12:13:18.268Z</time></trkpt><trkpt lat="43.40442" lon="11.461305"><ele>453.66666666666663</ele><time>2026-04-03T12:13:19.269Z</time></trkpt><trkpt lat="43.404385" lon="11.4612067"><ele>454.8333333333333</ele><time>2026-04-03T12:13:20.268Z</time></trkpt><trkpt lat="43.404325" lon="11.4610683"><ele>456.0</ele><time>2026-04-03T12:13:21.268Z</time></trkpt><trkpt lat="43.4042733" lon="11.46093"><ele>456.0</ele><time>2026-04-03T12:13:22.269Z</time></trkpt><trkpt lat="43.40421" lon="11.4607917"><ele>456.0</ele><time>2026-04-03T12:13:23.269Z</time></trkpt><trkpt lat="43.4041767" lon="11.460675"><ele>456.0</ele><time>2026-04-03T12:13:24.268Z</time></trkpt><trkpt lat="43.4041517" lon="11.4605383"><ele>456.0</ele><time>2026-04-03T12:13:25.268Z</time></trkpt><trkpt lat="43.404135" lon="11.4604083"><ele>456.0</ele><time>2026-04-03T12:13:26.268Z</time></trkpt><trkpt lat="43.4041383" lon="11.4602633"><ele>456.0</ele><time>2026-04-03T12:13:27.268Z</time></trkpt><trkpt lat="43.404155" lon="11.46011"><ele>456.0</ele><time>2026-04-03T12:13:28.269Z</time></trkpt><trkpt lat="43.4041767" lon="11.4599567"><ele>456.0</ele><time>2026-04-03T12:13:29.268Z</time></trkpt><trkpt lat="43.4042067" lon="11.4597917"><ele>456.0</ele><time>2026-04-03T12:13:30.269Z</time></trkpt><trkpt lat="43.4042367" lon="11.45963"><ele>455.8</ele><time>2026-04-03T12:13:31.269Z</time></trkpt><trkpt lat="43.4042783" lon="11.4594967"><ele>455.6</ele><time>2026-04-03T12:13:32.268Z</time></trkpt><trkpt lat="43.4043383" lon="11.4593867"><ele>455.4</ele><time>2026-04-03T12:13:33.268Z</time></trkpt><trkpt lat="43.4043967" lon="11.4592583"><ele>455.2</ele><time>2026-04-03T12:13:34.268Z</time></trkpt><trkpt lat="43.404465" lon="11.4591367"><ele>455.0</ele><time>2026-04-03T12:13:35.268Z</time></trkpt><trkpt lat="43.4045383" lon="11.45904"><ele>454.99999999999994</ele><time>2026-04-03T12:13:36.269Z</time></trkpt><trkpt lat="43.404615" lon="11.4589383"><ele>455.0</ele><time>2026-04-03T12:13:37.268Z</time></trkpt><trkpt lat="43.4046783" lon="11.45885"><ele>455.0</ele><time>2026-04-03T12:13:38.268Z</time></trkpt><trkpt lat="43.40474" lon="11.458765"><ele>455.0</ele><time>2026-04-03T12:13:39.269Z</time></trkpt><trkpt lat="43.40478" lon="11.4586667"><ele>454.99999999999994</ele><time>2026-04-03T12:13:40.269Z</time></trkpt><trkpt lat="43.4048" lon="11.4585633"><ele>455.0</ele><time>2026-04-03T12:13:41.269Z</time></trkpt><trkpt lat="43.40482" lon="11.4584617"><ele>454.3333333333333</ele><time>2026-04-03T12:13:42.268Z</time></trkpt><trkpt lat="43.4048533" lon="11.4583533"><ele>453.66666666666663</ele><time>2026-04-03T12:13:43.268Z</time></trkpt><trkpt lat="43.40489" lon="11.4582533"><ele>453.0</ele><time>2026-04-03T12:13:44.268Z</time></trkpt><trkpt lat="43.4049233" lon="11.458165"><ele>452.33333333333337</ele><time>2026-04-03T12:13:45.268Z</time></trkpt><trkpt lat="43.404965" lon="11.4580833"><ele>451.6666666666667</ele><time>2026-04-03T12:13:46.268Z</time></trkpt><trkpt lat="43.40501" lon="11.458005"><ele>451.0</ele><time>2026-04-03T12:13:47.268Z</time></trkpt><trkpt lat="43.40504" lon="11.4579233"><ele>449.4</ele><time>2026-04-03T12:13:48.268Z</time></trkpt><trkpt lat="43.4050417" lon="11.4577467"><ele>447.8</ele><time>2026-04-03T12:13:50.268Z</time></trkpt><trkpt lat="43.4050333" lon="11.4576333"><ele>446.19999999999993</ele><time>2026-04-03T12:13:51.269Z</time></trkpt><trkpt lat="43.4050233" lon="11.457525"><ele>444.59999999999997</ele><time>2026-04-03T12:13:52.269Z</time></trkpt><trkpt lat="43.4050217" lon="11.4574133"><ele>443.0</ele><time>2026-04-03T12:13:53.269Z</time></trkpt><trkpt lat="43.4050167" lon="11.4572983"><ele>442.99999999999994</ele><time>2026-04-03T12:13:54.268Z</time></trkpt><trkpt lat="43.4050067" lon="11.4571867"><ele>443.0</ele><time>2026-04-03T12:13:55.268Z</time></trkpt><trkpt lat="43.4049833" lon="11.45707"><ele>443.0</ele><time>2026-04-03T12:13:56.268Z</time></trkpt><trkpt lat="43.4049617" lon="11.4569617"><ele>443.0</ele><time>2026-04-03T12:13:57.268Z</time></trkpt><trkpt lat="43.404935" lon="11.4568717"><ele>442.99999999999994</ele><time>2026-04-03T12:13:58.268Z</time></trkpt><trkpt lat="43.404875" lon="11.4567367"><ele>443.0</ele><time>2026-04-03T12:14:00.268Z</time></trkpt><trkpt lat="43.40483" lon="11.4566117"><ele>441.8333333333333</ele><time>2026-04-03T12:14:02.269Z</time></trkpt><trkpt lat="43.40482" lon="11.4565017"><ele>440.66666666666663</ele><time>2026-04-03T12:14:04.269Z</time></trkpt><trkpt lat="43.4048617" lon="11.456395"><ele>439.5</ele><time>2026-04-03T12:14:06.269Z</time></trkpt><trkpt lat="43.4049483" lon="11.4563383"><ele>438.33333333333337</ele><time>2026-04-03T12:14:08.269Z</time></trkpt><trkpt lat="43.4050133" lon="11.456335"><ele>437.1666666666667</ele><time>2026-04-03T12:14:09.269Z</time></trkpt><trkpt lat="43.4050817" lon="11.4563517"><ele>436.0</ele><time>2026-04-03T12:14:10.268Z</time></trkpt><trkpt lat="43.4051533" lon="11.4563667"><ele>436.00000000000006</ele><time>2026-04-03T12:14:11.269Z</time></trkpt><trkpt lat="43.4052183" lon="11.4563717"><ele>436.0</ele><time>2026-04-03T12:14:12.268Z</time></trkpt><trkpt lat="43.4052833" lon="11.456385"><ele>436.0</ele><time>2026-04-03T12:14:13.269Z</time></trkpt><trkpt lat="43.4054117" lon="11.4564033"><ele>436.0</ele><time>2026-04-03T12:14:15.268Z</time></trkpt><trkpt lat="43.4054967" lon="11.45641"><ele>436.00000000000006</ele><time>2026-04-03T12:14:16.268Z</time></trkpt><trkpt lat="43.4055783" lon="11.4563983"><ele>436.0</ele><time>2026-04-03T12:14:17.269Z</time></trkpt><trkpt lat="43.4056617" lon="11.456365"><ele>434.20000000000005</ele><time>2026-04-03T12:14:18.268Z</time></trkpt><trkpt lat="43.405745" lon="11.4563167"><ele>432.40000000000003</ele><time>2026-04-03T12:14:19.268Z</time></trkpt><trkpt lat="43.4058217" lon="11.45624"><ele>430.6</ele><time>2026-04-03T12:14:20.268Z</time></trkpt><trkpt lat="43.40589" lon="11.4561533"><ele>428.8</ele><time>2026-04-03T12:14:21.268Z</time></trkpt><trkpt lat="43.4059467" lon="11.4560417"><ele>427.0</ele><time>2026-04-03T12:14:22.268Z</time></trkpt><trkpt lat="43.406005" lon="11.4559267"><ele>426.75</ele><time>2026-04-03T12:14:23.268Z</time></trkpt><trkpt lat="43.406045" lon="11.45577"><ele>426.5</ele><time>2026-04-03T12:14:24.268Z</time></trkpt><trkpt lat="43.406075" lon="11.4556"><ele>426.25</ele><time>2026-04-03T12:14:25.268Z</time></trkpt><trkpt lat="43.4061" lon="11.455425"><ele>426.0</ele><time>2026-04-03T12:14:26.268Z</time></trkpt><trkpt lat="43.40613" lon="11.455255"><ele>425.20000000000005</ele><time>2026-04-03T12:14:27.269Z</time></trkpt><trkpt lat="43.4061617" lon="11.4550933"><ele>424.40000000000003</ele><time>2026-04-03T12:14:28.269Z</time></trkpt><trkpt lat="43.4061933" lon="11.45494"><ele>423.6</ele><time>2026-04-03T12:14:29.268Z</time></trkpt><trkpt lat="43.4062267" lon="11.4548083"><ele>422.8</ele><time>2026-04-03T12:14:30.269Z</time></trkpt><trkpt lat="43.4062767" lon="11.45468"><ele>422.0</ele><time>2026-04-03T12:14:31.268Z</time></trkpt><trkpt lat="43.4063417" lon="11.4545583"><ele>420.0</ele><time>2026-04-03T12:14:32.268Z</time></trkpt><trkpt lat="43.4064117" lon="11.4544333"><ele>418.0</ele><time>2026-04-03T12:14:33.268Z</time></trkpt><trkpt lat="43.4064767" lon="11.454315"><ele>416.0</ele><time>2026-04-03T12:14:34.268Z</time></trkpt><trkpt lat="43.406525" lon="11.45418"><ele>414.0</ele><time>2026-04-03T12:14:35.268Z</time></trkpt><trkpt lat="43.4065517" lon="11.4540483"><ele>412.0</ele><time>2026-04-03T12:14:36.268Z</time></trkpt><trkpt lat="43.4065683" lon="11.45392"><ele>412.0</ele><time>2026-04-03T12:14:37.269Z</time></trkpt><trkpt lat="43.4065733" lon="11.45378"><ele>412.0</ele><time>2026-04-03T12:14:38.268Z</time></trkpt><trkpt lat="43.4065683" lon="11.453655"><ele>412.0</ele><time>2026-04-03T12:14:39.269Z</time></trkpt><trkpt lat="43.406545" lon="11.4535333"><ele>412.0</ele><time>2026-04-03T12:14:40.268Z</time></trkpt><trkpt lat="43.4065183" lon="11.4533967"><ele>412.0</ele><time>2026-04-03T12:14:41.268Z</time></trkpt><trkpt lat="43.4064917" lon="11.4532617"><ele>412.0</ele><time>2026-04-03T12:14:42.268Z</time></trkpt><trkpt lat="43.40647" lon="11.4531333"><ele>412.0</ele><time>2026-04-03T12:14:43.269Z</time></trkpt><trkpt lat="43.4064633" lon="11.45301"><ele>412.0</ele><time>2026-04-03T12:14:44.268Z</time></trkpt><trkpt lat="43.4064783" lon="11.45288"><ele>412.0</ele><time>2026-04-03T12:14:45.268Z</time></trkpt><trkpt lat="43.406505" lon="11.4527417"><ele>412.0</ele><time>2026-04-03T12:14:46.268Z</time></trkpt><trkpt lat="43.4065283" lon="11.4526133"><ele>411.40000000000003</ele><time>2026-04-03T12:14:47.269Z</time></trkpt><trkpt lat="43.4065417" lon="11.4524767"><ele>410.8</ele><time>2026-04-03T12:14:48.269Z</time></trkpt><trkpt lat="43.4065433" lon="11.4523483"><ele>410.2</ele><time>2026-04-03T12:14:49.269Z</time></trkpt><trkpt lat="43.4065433" lon="11.45222"><ele>409.6</ele><time>2026-04-03T12:14:50.268Z</time></trkpt><trkpt lat="43.40654" lon="11.4521033"><ele>409.0</ele><time>2026-04-03T12:14:51.268Z</time></trkpt><trkpt lat="43.40653" lon="11.451995"><ele>409.33333333333337</ele><time>2026-04-03T12:14:52.268Z</time></trkpt><trkpt lat="43.4065117" lon="11.45189"><ele>409.6666666666667</ele><time>2026-04-03T12:14:53.268Z</time></trkpt><trkpt lat="43.4064733" lon="11.4518"><ele>410.0</ele><time>2026-04-03T12:14:54.268Z</time></trkpt><trkpt lat="43.406425" lon="11.4517117"><ele>410.33333333333337</ele><time>2026-04-03T12:14:55.268Z</time></trkpt><trkpt lat="43.4063717" lon="11.451615"><ele>410.6666666666667</ele><time>2026-04-03T12:14:56.268Z</time></trkpt><trkpt lat="43.4063283" lon="11.4515383"><ele>411.0</ele><time>2026-04-03T12:14:57.268Z</time></trkpt><trkpt lat="43.4062817" lon="11.451465"><ele>411.0</ele><time>2026-04-03T12:14:58.268Z</time></trkpt><trkpt lat="43.4062433" lon="11.4513833"><ele>411.0</ele><time>2026-04-03T12:14:59.268Z</time></trkpt><trkpt lat="43.4062017" lon="11.4513083"><ele>411.0</ele><time>2026-04-03T12:15:00.269Z</time></trkpt><trkpt lat="43.4061583" lon="11.4512217"><ele>411.0</ele><time>2026-04-03T12:15:01.268Z</time></trkpt><trkpt lat="43.4061233" lon="11.4511417"><ele>411.0</ele><time>2026-04-03T12:15:02.269Z</time></trkpt><trkpt lat="43.4060833" lon="11.4510633"><ele>411.0</ele><time>2026-04-03T12:15:03.269Z</time></trkpt><trkpt lat="43.40604" lon="11.4509717"><ele>411.0</ele><time>2026-04-03T12:15:04.268Z</time></trkpt><trkpt lat="43.40601" lon="11.4508733"><ele>411.0</ele><time>2026-04-03T12:15:05.268Z</time></trkpt><trkpt lat="43.4059717" lon="11.4507717"><ele>411.0</ele><time>2026-04-03T12:15:06.268Z</time></trkpt><trkpt lat="43.40594" lon="11.450675"><ele>411.0</ele><time>2026-04-03T12:15:07.268Z</time></trkpt><trkpt lat="43.4059133" lon="11.4505717"><ele>411.0</ele><time>2026-04-03T12:15:08.268Z</time></trkpt><trkpt lat="43.4058817" lon="11.4504683"><ele>411.0</ele><time>2026-04-03T12:15:09.268Z</time></trkpt><trkpt lat="43.4058483" lon="11.4503583"><ele>411.0</ele><time>2026-04-03T12:15:10.269Z</time></trkpt><trkpt lat="43.4058133" lon="11.4502483"><ele>410.5</ele><time>2026-04-03T12:15:11.268Z</time></trkpt><trkpt lat="43.405795" lon="11.4501467"><ele>410.0</ele><time>2026-04-03T12:15:12.268Z</time></trkpt><trkpt lat="43.4057483" lon="11.4500467"><ele>409.5</ele><time>2026-04-03T12:15:13.269Z</time></trkpt><trkpt lat="43.4057117" lon="11.449955"><ele>409.0</ele><time>2026-04-03T12:15:14.268Z</time></trkpt><trkpt lat="43.4056817" lon="11.44987"><ele>408.5</ele><time>2026-04-03T12:15:15.269Z</time></trkpt><trkpt lat="43.4056417" lon="11.4497933"><ele>408.0</ele><time>2026-04-03T12:15:16.268Z</time></trkpt><trkpt lat="43.4055733" lon="11.4496433"><ele>406.59999999999997</ele><time>2026-04-03T12:15:18.268Z</time></trkpt><trkpt lat="43.4055167" lon="11.4495667"><ele>405.2</ele><time>2026-04-03T12:15:19.268Z</time></trkpt><trkpt lat="43.4054533" lon="11.4494783"><ele>403.8</ele><time>2026-04-03T12:15:20.268Z</time></trkpt><trkpt lat="43.4053783" lon="11.4493817"><ele>402.4</ele><time>2026-04-03T12:15:21.268Z</time></trkpt><trkpt lat="43.4053067" lon="11.44928"><ele>401.0</ele><time>2026-04-03T12:15:22.268Z</time></trkpt><trkpt lat="43.40524" lon="11.44918"><ele>400.99999999999994</ele><time>2026-04-03T12:15:23.268Z</time></trkpt><trkpt lat="43.4051817" lon="11.44908"><ele>401.0</ele><time>2026-04-03T12:15:24.268Z</time></trkpt><trkpt lat="43.4051367" lon="11.4489967"><ele>401.0</ele><time>2026-04-03T12:15:25.268Z</time></trkpt><trkpt lat="43.4050867" lon="11.4489083"><ele>401.0</ele><time>2026-04-03T12:15:26.268Z</time></trkpt><trkpt lat="43.405035" lon="11.4488167"><ele>400.99999999999994</ele><time>2026-04-03T12:15:27.268Z</time></trkpt><trkpt lat="43.4049867" lon="11.4487233"><ele>401.0</ele><time>2026-04-03T12:15:28.268Z</time></trkpt><trkpt lat="43.404935" lon="11.448645"><ele>400.6</ele><time>2026-04-03T12:15:29.269Z</time></trkpt><trkpt lat="43.404865" lon="11.4485717"><ele>400.20000000000005</ele><time>2026-04-03T12:15:30.269Z</time></trkpt><trkpt lat="43.4047683" lon="11.4484917"><ele>399.79999999999995</ele><time>2026-04-03T12:15:31.268Z</time></trkpt><trkpt lat="43.40467" lon="11.44841"><ele>399.4</ele><time>2026-04-03T12:15:32.269Z</time></trkpt><trkpt lat="43.4045733" lon="11.44833"><ele>399.0</ele><time>2026-04-03T12:15:33.269Z</time></trkpt><trkpt lat="43.4044717" lon="11.4482533"><ele>398.75</ele><time>2026-04-03T12:15:34.268Z</time></trkpt><trkpt lat="43.4043667" lon="11.4481733"><ele>398.5</ele><time>2026-04-03T12:15:35.268Z</time></trkpt><trkpt lat="43.40426" lon="11.4480933"><ele>398.25</ele><time>2026-04-03T12:15:36.268Z</time></trkpt><trkpt lat="43.4041333" lon="11.448015"><ele>398.0</ele><time>2026-04-03T12:15:37.268Z</time></trkpt><trkpt lat="43.4039917" lon="11.4479467"><ele>398.25</ele><time>2026-04-03T12:15:38.268Z</time></trkpt><trkpt lat="43.4038633" lon="11.44787"><ele>398.5</ele><time>2026-04-03T12:15:39.268Z</time></trkpt><trkpt lat="43.4037317" lon="11.4478017"><ele>398.75</ele><time>2026-04-03T12:15:40.268Z</time></trkpt><trkpt lat="43.4035967" lon="11.4477417"><ele>399.0</ele><time>2026-04-03T12:15:41.268Z</time></trkpt><trkpt lat="43.4034583" lon="11.44768"><ele>399.0</ele><time>2026-04-03T12:15:42.269Z</time></trkpt><trkpt lat="43.4033333" lon="11.4476133"><ele>399.0</ele><time>2026-04-03T12:15:43.268Z</time></trkpt><trkpt lat="43.4032167" lon="11.447555"><ele>399.0</ele><time>2026-04-03T12:15:44.268Z</time></trkpt><trkpt lat="43.4031083" lon="11.4474833"><ele>399.0</ele><time>2026-04-03T12:15:45.268Z</time></trkpt><trkpt lat="43.403005" lon="11.44743"><ele>397.4</ele><time>2026-04-03T12:15:46.268Z</time></trkpt><trkpt lat="43.4029117" lon="11.44738"><ele>395.79999999999995</ele><time>2026-04-03T12:15:47.269Z</time></trkpt><trkpt lat="43.4028217" lon="11.44733"><ele>394.20000000000005</ele><time>2026-04-03T12:15:48.268Z</time></trkpt><trkpt lat="43.4027333" lon="11.4472833"><ele>392.6</ele><time>2026-04-03T12:15:49.268Z</time></trkpt><trkpt lat="43.402645" lon="11.44723"><ele>391.0</ele><time>2026-04-03T12:15:50.268Z</time></trkpt><trkpt lat="43.4025567" lon="11.44718"><ele>390.50000000000006</ele><time>2026-04-03T12:15:51.268Z</time></trkpt><trkpt lat="43.40247" lon="11.4471267"><ele>390.0</ele><time>2026-04-03T12:15:52.268Z</time></trkpt><trkpt lat="43.40239" lon="11.4470767"><ele>389.5</ele><time>2026-04-03T12:15:53.269Z</time></trkpt><trkpt lat="43.4023233" lon="11.4470417"><ele>389.0</ele><time>2026-04-03T12:15:54.268Z</time></trkpt><trkpt lat="43.4022533" lon="11.4470067"><ele>388.50000000000006</ele><time>2026-04-03T12:15:55.268Z</time></trkpt><trkpt lat="43.4021817" lon="11.44696"><ele>388.0</ele><time>2026-04-03T12:15:56.268Z</time></trkpt><trkpt lat="43.4021183" lon="11.4469083"><ele>388.00000000000006</ele><time>2026-04-03T12:15:57.269Z</time></trkpt><trkpt lat="43.4020533" lon="11.4468583"><ele>388.0</ele><time>2026-04-03T12:15:58.268Z</time></trkpt><trkpt lat="43.4019817" lon="11.4467967"><ele>388.0</ele><time>2026-04-03T12:15:59.268Z</time></trkpt><trkpt lat="43.4019117" lon="11.446725"><ele>388.0</ele><time>2026-04-03T12:16:00.268Z</time></trkpt><trkpt lat="43.4018483" lon="11.4466517"><ele>388.00000000000006</ele><time>2026-04-03T12:16:01.268Z</time></trkpt><trkpt lat="43.4017867" lon="11.4465767"><ele>388.0</ele><time>2026-04-03T12:16:02.268Z</time></trkpt><trkpt lat="43.40173" lon="11.4465033"><ele>388.00000000000006</ele><time>2026-04-03T12:16:03.268Z</time></trkpt><trkpt lat="43.4016717" lon="11.446435"><ele>388.0</ele><time>2026-04-03T12:16:04.269Z</time></trkpt><trkpt lat="43.4016083" lon="11.4463583"><ele>388.0</ele><time>2026-04-03T12:16:05.269Z</time></trkpt><trkpt lat="43.4015467" lon="11.446275"><ele>388.0</ele><time>2026-04-03T12:16:06.268Z</time></trkpt><trkpt lat="43.401485" lon="11.4462"><ele>388.00000000000006</ele><time>2026-04-03T12:16:07.268Z</time></trkpt><trkpt lat="43.4014317" lon="11.4461167"><ele>388.0</ele><time>2026-04-03T12:16:08.269Z</time></trkpt><trkpt lat="43.40138" lon="11.4460317"><ele>388.33333333333337</ele><time>2026-04-03T12:16:09.268Z</time></trkpt><trkpt lat="43.4013367" lon="11.4459433"><ele>388.6666666666667</ele><time>2026-04-03T12:16:10.268Z</time></trkpt><trkpt lat="43.4012983" lon="11.4458683"><ele>389.0</ele><time>2026-04-03T12:16:11.268Z</time></trkpt><trkpt lat="43.4012533" lon="11.4457867"><ele>389.33333333333337</ele><time>2026-04-03T12:16:12.267Z</time></trkpt><trkpt lat="43.4012117" lon="11.4457"><ele>389.6666666666667</ele><time>2026-04-03T12:16:13.267Z</time></trkpt><trkpt lat="43.4011417" lon="11.44557"><ele>390.0</ele><time>2026-04-03T12:16:15.268Z</time></trkpt><trkpt lat="43.4010867" lon="11.4454767"><ele>388.6</ele><time>2026-04-03T12:16:17.268Z</time></trkpt><trkpt lat="43.401035" lon="11.445405"><ele>387.2</ele><time>2026-04-03T12:16:20.267Z</time></trkpt><trkpt lat="43.4010717" lon="11.445515"><ele>385.79999999999995</ele><time>2026-04-03T12:16:30.267Z</time></trkpt><trkpt lat="43.401115" lon="11.4456067"><ele>384.4</ele><time>2026-04-03T12:16:31.267Z</time></trkpt><trkpt lat="43.4012183" lon="11.4457883"><ele>383.0</ele><time>2026-04-03T12:16:32.267Z</time></trkpt><trkpt lat="43.401325" lon="11.44596"><ele>384.6666666666667</ele><time>2026-04-03T12:16:33.268Z</time></trkpt><trkpt lat="43.4014383" lon="11.44614"><ele>386.33333333333337</ele><time>2026-04-03T12:16:34.267Z</time></trkpt><trkpt lat="43.4015633" lon="11.446315"><ele>388.0</ele><time>2026-04-03T12:16:35.268Z</time></trkpt><trkpt lat="43.4016933" lon="11.4464717"><ele>388.0</ele><time>2026-04-03T12:16:36.267Z</time></trkpt><trkpt lat="43.4018333" lon="11.44663"><ele>388.0</ele><time>2026-04-03T12:16:37.267Z</time></trkpt><trkpt lat="43.4019617" lon="11.4467767"><ele>388.0</ele><time>2026-04-03T12:16:38.267Z</time></trkpt><trkpt lat="43.4020867" lon="11.4468917"><ele>389.0</ele><time>2026-04-03T12:16:39.268Z</time></trkpt><trkpt lat="43.40222" lon="11.44699"><ele>390.0</ele><time>2026-04-03T12:16:40.267Z</time></trkpt><trkpt lat="43.402365" lon="11.4470883"><ele>391.0</ele><time>2026-04-03T12:16:41.267Z</time></trkpt><trkpt lat="43.4025317" lon="11.4471767"><ele>391.0</ele><time>2026-04-03T12:16:42.267Z</time></trkpt><trkpt lat="43.40271" lon="11.4472617"><ele>391.0</ele><time>2026-04-03T12:16:43.267Z</time></trkpt><trkpt lat="43.402885" lon="11.447355"><ele>391.0</ele><time>2026-04-03T12:16:44.268Z</time></trkpt><trkpt lat="43.403055" lon="11.4474583"><ele>393.6666666666667</ele><time>2026-04-03T12:16:45.268Z</time></trkpt><trkpt lat="43.4032367" lon="11.44756"><ele>396.33333333333337</ele><time>2026-04-03T12:16:46.267Z</time></trkpt><trkpt lat="43.4034083" lon="11.4476483"><ele>399.0</ele><time>2026-04-03T12:16:47.267Z</time></trkpt><trkpt lat="43.4035833" lon="11.4477433"><ele>399.0</ele><time>2026-04-03T12:16:48.267Z</time></trkpt><trkpt lat="43.4037483" lon="11.44782"><ele>399.0</ele><time>2026-04-03T12:16:49.267Z</time></trkpt><trkpt lat="43.4039033" lon="11.4478867"><ele>399.0</ele><time>2026-04-03T12:16:50.267Z</time></trkpt><trkpt lat="43.4040467" lon="11.44798"><ele>398.75</ele><time>2026-04-03T12:16:51.267Z</time></trkpt><trkpt lat="43.40418" lon="11.4480767"><ele>398.5</ele><time>2026-04-03T12:16:52.267Z</time></trkpt><trkpt lat="43.4042967" lon="11.44817"><ele>398.25</ele><time>2026-04-03T12:16:53.267Z</time></trkpt><trkpt lat="43.4044083" lon="11.4482467"><ele>398.0</ele><time>2026-04-03T12:16:54.267Z</time></trkpt><trkpt lat="43.4045017" lon="11.4483167"><ele>397.99999999999994</ele><time>2026-04-03T12:16:55.268Z</time></trkpt><trkpt lat="43.4045917" lon="11.4483767"><ele>398.0</ele><time>2026-04-03T12:16:56.267Z</time></trkpt><trkpt lat="43.4046717" lon="11.4484367"><ele>398.0</ele><time>2026-04-03T12:16:57.268Z</time></trkpt><trkpt lat="43.4047467" lon="11.4485"><ele>398.0</ele><time>2026-04-03T12:16:58.267Z</time></trkpt><trkpt lat="43.4048167" lon="11.44856"><ele>397.99999999999994</ele><time>2026-04-03T12:16:59.267Z</time></trkpt><trkpt lat="43.404875" lon="11.4486183"><ele>398.0</ele><time>2026-04-03T12:17:00.267Z</time></trkpt><trkpt lat="43.4049283" lon="11.4486717"><ele>398.0</ele><time>2026-04-03T12:17:01.267Z</time></trkpt><trkpt lat="43.4049933" lon="11.4487517"><ele>398.0</ele><time>2026-04-03T12:17:03.267Z</time></trkpt><trkpt lat="43.4049333" lon="11.4486167"><ele>398.0</ele><time>2026-04-03T12:17:08.267Z</time></trkpt><trkpt lat="43.4048517" lon="11.448555"><ele>398.0</ele><time>2026-04-03T12:17:09.268Z</time></trkpt><trkpt lat="43.40475" lon="11.448485"><ele>398.0</ele><time>2026-04-03T12:17:10.267Z</time></trkpt><trkpt lat="43.4046083" lon="11.44838"><ele>398.0</ele><time>2026-04-03T12:17:11.267Z</time></trkpt><trkpt lat="43.4044367" lon="11.448265"><ele>398.0</ele><time>2026-04-03T12:17:12.267Z</time></trkpt><trkpt lat="43.40427" lon="11.4481383"><ele>398.0</ele><time>2026-04-03T12:17:13.267Z</time></trkpt><trkpt lat="43.4040933" lon="11.448005"><ele>398.3333333333333</ele><time>2026-04-03T12:17:14.267Z</time></trkpt><trkpt lat="43.403905" lon="11.4478783"><ele>398.66666666666663</ele><time>2026-04-03T12:17:15.267Z</time></trkpt><trkpt lat="43.403715" lon="11.4477783"><ele>399.0</ele><time>2026-04-03T12:17:16.267Z</time></trkpt><trkpt lat="43.40353" lon="11.4476833"><ele>399.0</ele><time>2026-04-03T12:17:17.267Z</time></trkpt><trkpt lat="43.4033467" lon="11.4475967"><ele>399.0</ele><time>2026-04-03T12:17:18.268Z</time></trkpt><trkpt lat="43.4031633" lon="11.447515"><ele>399.0</ele><time>2026-04-03T12:17:19.267Z</time></trkpt><trkpt lat="43.4029883" lon="11.4474317"><ele>396.33333333333337</ele><time>2026-04-03T12:17:20.267Z</time></trkpt><trkpt lat="43.40283" lon="11.4473467"><ele>393.6666666666667</ele><time>2026-04-03T12:17:21.267Z</time></trkpt><trkpt lat="43.4026717" lon="11.44726"><ele>391.0</ele><time>2026-04-03T12:17:22.267Z</time></trkpt><trkpt lat="43.4025333" lon="11.4471717"><ele>390.0</ele><time>2026-04-03T12:17:23.267Z</time></trkpt><trkpt lat="43.4023867" lon="11.4470817"><ele>389.0</ele><time>2026-04-03T12:17:24.267Z</time></trkpt><trkpt lat="43.40224" lon="11.4469883"><ele>388.0</ele><time>2026-04-03T12:17:25.267Z</time></trkpt><trkpt lat="43.4020967" lon="11.4468917"><ele>388.0</ele><time>2026-04-03T12:17:26.267Z</time></trkpt><trkpt lat="43.4019633" lon="11.44679"><ele>388.0</ele><time>2026-04-03T12:17:27.267Z</time></trkpt><trkpt lat="43.4018317" lon="11.4466633"><ele>388.0</ele><time>2026-04-03T12:17:28.267Z</time></trkpt><trkpt lat="43.401715" lon="11.4465167"><ele>388.0</ele><time>2026-04-03T12:17:29.268Z</time></trkpt><trkpt lat="43.401595" lon="11.446355"><ele>388.0</ele><time>2026-04-03T12:17:30.267Z</time></trkpt><trkpt lat="43.4014733" lon="11.4461933"><ele>388.0</ele><time>2026-04-03T12:17:31.267Z</time></trkpt><trkpt lat="43.4013633" lon="11.4460333"><ele>386.75</ele><time>2026-04-03T12:17:32.267Z</time></trkpt><trkpt lat="43.4012683" lon="11.4458817"><ele>385.5</ele><time>2026-04-03T12:17:33.267Z</time></trkpt><trkpt lat="43.4011783" lon="11.4457333"><ele>384.25</ele><time>2026-04-03T12:17:34.267Z</time></trkpt><trkpt lat="43.4011017" lon="11.445605"><ele>383.0</ele><time>2026-04-03T12:17:35.268Z</time></trkpt><trkpt lat="43.4010333" lon="11.445475"><ele>382.75</ele><time>2026-04-03T12:17:36.267Z</time></trkpt><trkpt lat="43.4009583" lon="11.4453317"><ele>382.5</ele><time>2026-04-03T12:17:37.267Z</time></trkpt><trkpt lat="43.4008683" lon="11.445165"><ele>382.25</ele><time>2026-04-03T12:17:38.267Z</time></trkpt><trkpt lat="43.4007633" lon="11.4450067"><ele>382.0</ele><time>2026-04-03T12:17:39.267Z</time></trkpt><trkpt lat="43.4006433" lon="11.444855"><ele>382.0</ele><time>2026-04-03T12:17:40.268Z</time></trkpt><trkpt lat="43.40053" lon="11.4447167"><ele>382.0</ele><time>2026-04-03T12:17:41.267Z</time></trkpt><trkpt lat="43.4004017" lon="11.44457"><ele>382.0</ele><time>2026-04-03T12:17:42.267Z</time></trkpt><trkpt lat="43.4002883" lon="11.4444417"><ele>380.75</ele><time>2026-04-03T12:17:43.267Z</time></trkpt><trkpt lat="43.4001867" lon="11.4443183"><ele>379.5</ele><time>2026-04-03T12:17:44.267Z</time></trkpt><trkpt lat="43.4000867" lon="11.4441617"><ele>378.25</ele><time>2026-04-03T12:17:45.268Z</time></trkpt><trkpt lat="43.3999767" lon="11.4440117"><ele>377.0</ele><time>2026-04-03T12:17:46.268Z</time></trkpt><trkpt lat="43.39987" lon="11.4438767"><ele>376.75</ele><time>2026-04-03T12:17:47.267Z</time></trkpt><trkpt lat="43.39978" lon="11.443775"><ele>376.5</ele><time>2026-04-03T12:17:48.267Z</time></trkpt><trkpt lat="43.3996817" lon="11.4437067"><ele>376.25</ele><time>2026-04-03T12:17:49.268Z</time></trkpt><trkpt lat="43.3995583" lon="11.4436467"><ele>376.0</ele><time>2026-04-03T12:17:50.268Z</time></trkpt><trkpt lat="43.3994467" lon="11.4435883"><ele>376.0</ele><time>2026-04-03T12:17:51.267Z</time></trkpt><trkpt lat="43.3993283" lon="11.4435383"><ele>376.0</ele><time>2026-04-03T12:17:52.267Z</time></trkpt><trkpt lat="43.3992283" lon="11.4434967"><ele>376.0</ele><time>2026-04-03T12:17:53.267Z</time></trkpt><trkpt lat="43.3991367" lon="11.4434633"><ele>376.0</ele><time>2026-04-03T12:17:54.267Z</time></trkpt><trkpt lat="43.399045" lon="11.4434283"><ele>376.0</ele><time>2026-04-03T12:17:55.268Z</time></trkpt><trkpt lat="43.398955" lon="11.4434283"><ele>376.0</ele><time>2026-04-03T12:17:56.267Z</time></trkpt><trkpt lat="43.39887" lon="11.44342"><ele>376.0</ele><time>2026-04-03T12:17:57.267Z</time></trkpt><trkpt lat="43.39879" lon="11.4434233"><ele>376.0</ele><time>2026-04-03T12:17:58.267Z</time></trkpt><trkpt lat="43.3987017" lon="11.4434433"><ele>376.0</ele><time>2026-04-03T12:17:59.267Z</time></trkpt><trkpt lat="43.3986033" lon="11.4434667"><ele>376.0</ele><time>2026-04-03T12:18:00.267Z</time></trkpt><trkpt lat="43.3985183" lon="11.4435"><ele>376.0</ele><time>2026-04-03T12:18:01.267Z</time></trkpt><trkpt lat="43.3984267" lon="11.4435233"><ele>376.0</ele><time>2026-04-03T12:18:02.267Z</time></trkpt><trkpt lat="43.398345" lon="11.4435433"><ele>376.0</ele><time>2026-04-03T12:18:03.267Z</time></trkpt><trkpt lat="43.398265" lon="11.4435633"><ele>376.0</ele><time>2026-04-03T12:18:04.267Z</time></trkpt><trkpt lat="43.39819" lon="11.4435883"><ele>376.0</ele><time>2026-04-03T12:18:05.267Z</time></trkpt><trkpt lat="43.398115" lon="11.4436083"><ele>376.0</ele><time>2026-04-03T12:18:06.267Z</time></trkpt><trkpt lat="43.3980333" lon="11.4436317"><ele>376.0</ele><time>2026-04-03T12:18:07.268Z</time></trkpt><trkpt lat="43.3979483" lon="11.4436417"><ele>375.4</ele><time>2026-04-03T12:18:08.267Z</time></trkpt><trkpt lat="43.39786" lon="11.4436433"><ele>374.8</ele><time>2026-04-03T12:18:09.268Z</time></trkpt><trkpt lat="43.3977683" lon="11.4436183"><ele>374.2</ele><time>2026-04-03T12:18:10.267Z</time></trkpt><trkpt lat="43.3976783" lon="11.4435633"><ele>373.59999999999997</ele><time>2026-04-03T12:18:11.268Z</time></trkpt><trkpt lat="43.3975817" lon="11.443515"><ele>373.0</ele><time>2026-04-03T12:18:12.268Z</time></trkpt><trkpt lat="43.39749" lon="11.4434717"><ele>373.0</ele><time>2026-04-03T12:18:13.267Z</time></trkpt><trkpt lat="43.3974" lon="11.4434383"><ele>373.0</ele><time>2026-04-03T12:18:14.268Z</time></trkpt><trkpt lat="43.39731" lon="11.4434117"><ele>373.0</ele><time>2026-04-03T12:18:15.267Z</time></trkpt><trkpt lat="43.3972183" lon="11.4433817"><ele>373.0</ele><time>2026-04-03T12:18:16.267Z</time></trkpt><trkpt lat="43.3971283" lon="11.4433533"><ele>373.0</ele><time>2026-04-03T12:18:17.267Z</time></trkpt><trkpt lat="43.397045" lon="11.44332"><ele>372.66666666666663</ele><time>2026-04-03T12:18:18.267Z</time></trkpt><trkpt lat="43.3969633" lon="11.443295"><ele>372.3333333333333</ele><time>2026-04-03T12:18:19.267Z</time></trkpt><trkpt lat="43.3968883" lon="11.4432633"><ele>372.0</ele><time>2026-04-03T12:18:20.267Z</time></trkpt><trkpt lat="43.3968183" lon="11.4432317"><ele>371.6666666666667</ele><time>2026-04-03T12:18:21.268Z</time></trkpt><trkpt lat="43.3967383" lon="11.4432083"><ele>371.33333333333337</ele><time>2026-04-03T12:18:22.267Z</time></trkpt><trkpt lat="43.3966617" lon="11.4431767"><ele>371.0</ele><time>2026-04-03T12:18:23.267Z</time></trkpt><trkpt lat="43.39658" lon="11.4431383"><ele>371.0</ele><time>2026-04-03T12:18:24.268Z</time></trkpt><trkpt lat="43.3964917" lon="11.4430983"><ele>371.0</ele><time>2026-04-03T12:18:25.267Z</time></trkpt><trkpt lat="43.3964" lon="11.443055"><ele>371.0</ele><time>2026-04-03T12:18:26.267Z</time></trkpt><trkpt lat="43.3962833" lon="11.443015"><ele>371.0</ele><time>2026-04-03T12:18:27.267Z</time></trkpt><trkpt lat="43.3961283" lon="11.4429633"><ele>369.6666666666667</ele><time>2026-04-03T12:18:28.267Z</time></trkpt><trkpt lat="43.3959633" lon="11.4428983"><ele>368.3333333333333</ele><time>2026-04-03T12:18:29.268Z</time></trkpt><trkpt lat="43.395785" lon="11.4428267"><ele>367.0</ele><time>2026-04-03T12:18:30.268Z</time></trkpt><trkpt lat="43.39559" lon="11.4427583"><ele>367.3333333333333</ele><time>2026-04-03T12:18:31.268Z</time></trkpt><trkpt lat="43.39539" lon="11.4427"><ele>367.6666666666667</ele><time>2026-04-03T12:18:32.267Z</time></trkpt><trkpt lat="43.3951867" lon="11.4426733"><ele>368.0</ele><time>2026-04-03T12:18:33.267Z</time></trkpt><trkpt lat="43.3949933" lon="11.442675"><ele>368.0</ele><time>2026-04-03T12:18:34.267Z</time></trkpt><trkpt lat="43.394815" lon="11.44269"><ele>368.0</ele><time>2026-04-03T12:18:35.267Z</time></trkpt><trkpt lat="43.3946483" lon="11.4427"><ele>368.0</ele><time>2026-04-03T12:18:36.267Z</time></trkpt><trkpt lat="43.39448" lon="11.4426883"><ele>368.0</ele><time>2026-04-03T12:18:37.267Z</time></trkpt><trkpt lat="43.39431" lon="11.442675"><ele>368.0</ele><time>2026-04-03T12:18:38.267Z</time></trkpt><trkpt lat="43.3941483" lon="11.4426617"><ele>368.0</ele><time>2026-04-03T12:18:39.268Z</time></trkpt><trkpt lat="43.3939783" lon="11.4426417"><ele>368.0</ele><time>2026-04-03T12:18:40.268Z</time></trkpt><trkpt lat="43.3938033" lon="11.4426083"><ele>368.0</ele><time>2026-04-03T12:18:41.267Z</time></trkpt><trkpt lat="43.3936467" lon="11.4425717"><ele>368.0</ele><time>2026-04-03T12:18:42.267Z</time></trkpt><trkpt lat="43.3934883" lon="11.44251"><ele>368.0</ele><time>2026-04-03T12:18:43.267Z</time></trkpt><trkpt lat="43.39333" lon="11.4424283"><ele>368.0</ele><time>2026-04-03T12:18:44.267Z</time></trkpt><trkpt lat="43.3931767" lon="11.4423433"><ele>368.0</ele><time>2026-04-03T12:18:45.267Z</time></trkpt><trkpt lat="43.39303" lon="11.4422917"><ele>368.33333333333337</ele><time>2026-04-03T12:18:46.267Z</time></trkpt><trkpt lat="43.3928833" lon="11.4422683"><ele>368.6666666666667</ele><time>2026-04-03T12:18:47.268Z</time></trkpt><trkpt lat="43.3927233" lon="11.44227"><ele>369.0</ele><time>2026-04-03T12:18:48.268Z</time></trkpt><trkpt lat="43.392565" lon="11.442305"><ele>369.0</ele><time>2026-04-03T12:18:49.267Z</time></trkpt><trkpt lat="43.3924033" lon="11.4423633"><ele>369.0</ele><time>2026-04-03T12:18:50.267Z</time></trkpt><trkpt lat="43.392245" lon="11.4424467"><ele>369.0</ele><time>2026-04-03T12:18:51.267Z</time></trkpt><trkpt lat="43.3921017" lon="11.4425533"><ele>368.0</ele><time>2026-04-03T12:18:52.267Z</time></trkpt><trkpt lat="43.3919617" lon="11.4426583"><ele>367.0</ele><time>2026-04-03T12:18:53.267Z</time></trkpt><trkpt lat="43.3918133" lon="11.4427517"><ele>366.0</ele><time>2026-04-03T12:18:54.267Z</time></trkpt><trkpt lat="43.3916667" lon="11.4428217"><ele>366.0</ele><time>2026-04-03T12:18:55.267Z</time></trkpt><trkpt lat="43.3914983" lon="11.4428667"><ele>366.0</ele><time>2026-04-03T12:18:56.268Z</time></trkpt><trkpt lat="43.3913467" lon="11.442885"><ele>366.0</ele><time>2026-04-03T12:18:57.267Z</time></trkpt><trkpt lat="43.3911867" lon="11.4429033"><ele>366.6666666666667</ele><time>2026-04-03T12:18:58.267Z</time></trkpt><trkpt lat="43.3910233" lon="11.4429217"><ele>367.33333333333337</ele><time>2026-04-03T12:18:59.268Z</time></trkpt><trkpt lat="43.3908733" lon="11.4429417"><ele>368.0</ele><time>2026-04-03T12:19:00.267Z</time></trkpt><trkpt lat="43.3907183" lon="11.4429717"><ele>368.0</ele><time>2026-04-03T12:19:01.267Z</time></trkpt><trkpt lat="43.3905717" lon="11.4429883"><ele>368.0</ele><time>2026-04-03T12:19:02.267Z</time></trkpt><trkpt lat="43.3904067" lon="11.4429767"><ele>368.0</ele><time>2026-04-03T12:19:03.267Z</time></trkpt><trkpt lat="43.390245" lon="11.4429533"><ele>367.25</ele><time>2026-04-03T12:19:04.267Z</time></trkpt><trkpt lat="43.3900933" lon="11.4429483"><ele>366.5</ele><time>2026-04-03T12:19:05.267Z</time></trkpt><trkpt lat="43.3899567" lon="11.4429083"><ele>365.75</ele><time>2026-04-03T12:19:06.268Z</time></trkpt><trkpt lat="43.3898383" lon="11.4428333"><ele>365.0</ele><time>2026-04-03T12:19:07.267Z</time></trkpt><trkpt lat="43.3897467" lon="11.442695"><ele>363.0</ele><time>2026-04-03T12:19:08.267Z</time></trkpt><trkpt lat="43.3896717" lon="11.4425217"><ele>361.0</ele><time>2026-04-03T12:19:09.267Z</time></trkpt><trkpt lat="43.3895967" lon="11.4423517"><ele>359.0</ele><time>2026-04-03T12:19:10.267Z</time></trkpt><trkpt lat="43.3895217" lon="11.44219"><ele>357.0</ele><time>2026-04-03T12:19:11.267Z</time></trkpt><trkpt lat="43.3894383" lon="11.4420367"><ele>357.0</ele><time>2026-04-03T12:19:12.267Z</time></trkpt><trkpt lat="43.3893567" lon="11.4418917"><ele>357.0</ele><time>2026-04-03T12:19:13.267Z</time></trkpt><trkpt lat="43.38927" lon="11.441745"><ele>357.0</ele><time>2026-04-03T12:19:14.267Z</time></trkpt><trkpt lat="43.38918" lon="11.441605"><ele>357.0</ele><time>2026-04-03T12:19:15.267Z</time></trkpt><trkpt lat="43.3890917" lon="11.4414617"><ele>357.0</ele><time>2026-04-03T12:19:16.267Z</time></trkpt><trkpt lat="43.3890017" lon="11.4413183"><ele>357.0</ele><time>2026-04-03T12:19:17.267Z</time></trkpt><trkpt lat="43.3889067" lon="11.441175"><ele>357.0</ele><time>2026-04-03T12:19:18.267Z</time></trkpt><trkpt lat="43.3888133" lon="11.441045"><ele>357.0</ele><time>2026-04-03T12:19:19.267Z</time></trkpt><trkpt lat="43.388715" lon="11.44093"><ele>356.0</ele><time>2026-04-03T12:19:20.268Z</time></trkpt><trkpt lat="43.3886017" lon="11.4407883"><ele>355.0</ele><time>2026-04-03T12:19:21.267Z</time></trkpt><trkpt lat="43.388485" lon="11.4406567"><ele>354.0</ele><time>2026-04-03T12:19:22.267Z</time></trkpt><trkpt lat="43.3883667" lon="11.44051"><ele>351.0</ele><time>2026-04-03T12:19:23.267Z</time></trkpt><trkpt lat="43.3882533" lon="11.4403533"><ele>348.0</ele><time>2026-04-03T12:19:24.267Z</time></trkpt><trkpt lat="43.3881417" lon="11.440205"><ele>345.0</ele><time>2026-04-03T12:19:25.268Z</time></trkpt><trkpt lat="43.3880383" lon="11.4400467"><ele>345.25</ele><time>2026-04-03T12:19:26.267Z</time></trkpt><trkpt lat="43.3879417" lon="11.4398967"><ele>345.5</ele><time>2026-04-03T12:19:27.267Z</time></trkpt><trkpt lat="43.3878533" lon="11.43974"><ele>345.75</ele><time>2026-04-03T12:19:28.267Z</time></trkpt><trkpt lat="43.3877733" lon="11.439575"><ele>346.0</ele><time>2026-04-03T12:19:29.267Z</time></trkpt><trkpt lat="43.3876867" lon="11.4394283"><ele>345.0</ele><time>2026-04-03T12:19:30.267Z</time></trkpt><trkpt lat="43.3876" lon="11.4392767"><ele>344.0</ele><time>2026-04-03T12:19:31.268Z</time></trkpt><trkpt lat="43.3875117" lon="11.4391383"><ele>343.0</ele><time>2026-04-03T12:19:32.268Z</time></trkpt><trkpt lat="43.3874333" lon="11.4390017"><ele>342.0</ele><time>2026-04-03T12:19:33.267Z</time></trkpt><trkpt lat="43.3873483" lon="11.4388667"><ele>342.25</ele><time>2026-04-03T12:19:34.267Z</time></trkpt><trkpt lat="43.3872667" lon="11.43872"><ele>342.5</ele><time>2026-04-03T12:19:35.267Z</time></trkpt><trkpt lat="43.38719" lon="11.4385633"><ele>342.75</ele><time>2026-04-03T12:19:36.268Z</time></trkpt><trkpt lat="43.387125" lon="11.4384117"><ele>343.0</ele><time>2026-04-03T12:19:37.268Z</time></trkpt><trkpt lat="43.3870767" lon="11.4382267"><ele>343.0</ele><time>2026-04-03T12:19:38.267Z</time></trkpt><trkpt lat="43.3870317" lon="11.4380283"><ele>343.0</ele><time>2026-04-03T12:19:39.267Z</time></trkpt><trkpt lat="43.3869833" lon="11.4378183"><ele>343.0</ele><time>2026-04-03T12:19:40.267Z</time></trkpt><trkpt lat="43.3869283" lon="11.4376017"><ele>343.25</ele><time>2026-04-03T12:19:41.267Z</time></trkpt><trkpt lat="43.3868717" lon="11.4374017"><ele>343.5</ele><time>2026-04-03T12:19:42.267Z</time></trkpt><trkpt lat="43.3868167" lon="11.4372283"><ele>343.75</ele><time>2026-04-03T12:19:43.267Z</time></trkpt><trkpt lat="43.3867417" lon="11.437065"><ele>344.0</ele><time>2026-04-03T12:19:44.268Z</time></trkpt><trkpt lat="43.3866533" lon="11.436905"><ele>342.33333333333337</ele><time>2026-04-03T12:19:45.267Z</time></trkpt><trkpt lat="43.386525" lon="11.4367533"><ele>340.6666666666667</ele><time>2026-04-03T12:19:46.268Z</time></trkpt><trkpt lat="43.3863933" lon="11.4366233"><ele>339.0</ele><time>2026-04-03T12:19:47.267Z</time></trkpt><trkpt lat="43.3862733" lon="11.4365"><ele>339.0</ele><time>2026-04-03T12:19:48.267Z</time></trkpt><trkpt lat="43.3861617" lon="11.43639"><ele>339.0</ele><time>2026-04-03T12:19:49.267Z</time></trkpt><trkpt lat="43.38606" lon="11.4362667"><ele>339.0</ele><time>2026-04-03T12:19:50.267Z</time></trkpt><trkpt lat="43.3859717" lon="11.43614"><ele>339.0</ele><time>2026-04-03T12:19:51.267Z</time></trkpt><trkpt lat="43.3858867" lon="11.4360267"><ele>338.25</ele><time>2026-04-03T12:19:52.267Z</time></trkpt><trkpt lat="43.385795" lon="11.4359133"><ele>337.5</ele><time>2026-04-03T12:19:53.267Z</time></trkpt><trkpt lat="43.3856867" lon="11.4358033"><ele>336.75</ele><time>2026-04-03T12:19:54.268Z</time></trkpt><trkpt lat="43.3855633" lon="11.435705"><ele>336.0</ele><time>2026-04-03T12:19:55.268Z</time></trkpt><trkpt lat="43.38543" lon="11.43559"><ele>334.75</ele><time>2026-04-03T12:19:56.267Z</time></trkpt><trkpt lat="43.3853083" lon="11.4354883"><ele>333.5</ele><time>2026-04-03T12:19:57.267Z</time></trkpt><trkpt lat="43.385185" lon="11.4353867"><ele>332.25</ele><time>2026-04-03T12:19:58.267Z</time></trkpt><trkpt lat="43.38504" lon="11.4352933"><ele>331.0</ele><time>2026-04-03T12:19:59.268Z</time></trkpt><trkpt lat="43.3848883" lon="11.435215"><ele>330.3333333333333</ele><time>2026-04-03T12:20:00.267Z</time></trkpt><trkpt lat="43.3847283" lon="11.4351583"><ele>329.6666666666667</ele><time>2026-04-03T12:20:01.268Z</time></trkpt><trkpt lat="43.3845483" lon="11.435105"><ele>329.0</ele><time>2026-04-03T12:20:02.267Z</time></trkpt><trkpt lat="43.384375" lon="11.4350683"><ele>327.6666666666667</ele><time>2026-04-03T12:20:03.267Z</time></trkpt><trkpt lat="43.384205" lon="11.4350367"><ele>326.3333333333333</ele><time>2026-04-03T12:20:04.267Z</time></trkpt><trkpt lat="43.3840367" lon="11.4350017"><ele>325.0</ele><time>2026-04-03T12:20:05.267Z</time></trkpt><trkpt lat="43.383865" lon="11.4349517"><ele>324.66666666666663</ele><time>2026-04-03T12:20:06.267Z</time></trkpt><trkpt lat="43.383695" lon="11.4349"><ele>324.3333333333333</ele><time>2026-04-03T12:20:07.267Z</time></trkpt><trkpt lat="43.3835217" lon="11.4348233"><ele>324.0</ele><time>2026-04-03T12:20:08.267Z</time></trkpt><trkpt lat="43.3833617" lon="11.434725"><ele>325.0</ele><time>2026-04-03T12:20:09.267Z</time></trkpt><trkpt lat="43.3832133" lon="11.4346117"><ele>326.0</ele><time>2026-04-03T12:20:10.267Z</time></trkpt><trkpt lat="43.3830767" lon="11.4344867"><ele>327.0</ele><time>2026-04-03T12:20:11.268Z</time></trkpt><trkpt lat="43.38294" lon="11.43437"><ele>327.0</ele><time>2026-04-03T12:20:12.267Z</time></trkpt><trkpt lat="43.3828033" lon="11.434255"><ele>327.0</ele><time>2026-04-03T12:20:13.267Z</time></trkpt><trkpt lat="43.38267" lon="11.4341667"><ele>327.0</ele><time>2026-04-03T12:20:14.268Z</time></trkpt><trkpt lat="43.3825267" lon="11.4341"><ele>327.0</ele><time>2026-04-03T12:20:15.267Z</time></trkpt><trkpt lat="43.3823633" lon="11.43405"><ele>327.0</ele><time>2026-04-03T12:20:16.267Z</time></trkpt><trkpt lat="43.3822133" lon="11.4340183"><ele>327.0</ele><time>2026-04-03T12:20:17.267Z</time></trkpt><trkpt lat="43.3820667" lon="11.4340017"><ele>326.5</ele><time>2026-04-03T12:20:18.267Z</time></trkpt><trkpt lat="43.38193" lon="11.4339933"><ele>326.0</ele><time>2026-04-03T12:20:19.267Z</time></trkpt><trkpt lat="43.3817983" lon="11.4339817"><ele>325.5</ele><time>2026-04-03T12:20:20.267Z</time></trkpt><trkpt lat="43.3816767" lon="11.43395"><ele>325.0</ele><time>2026-04-03T12:20:21.267Z</time></trkpt><trkpt lat="43.38157" lon="11.4338883"><ele>325.0</ele><time>2026-04-03T12:20:22.267Z</time></trkpt><trkpt lat="43.3814633" lon="11.4338133"><ele>325.0</ele><time>2026-04-03T12:20:23.266Z</time></trkpt><trkpt lat="43.3813583" lon="11.4337233"><ele>325.0</ele><time>2026-04-03T12:20:24.267Z</time></trkpt><trkpt lat="43.381255" lon="11.433655"><ele>325.0</ele><time>2026-04-03T12:20:25.268Z</time></trkpt><trkpt lat="43.3811467" lon="11.4335567"><ele>323.0</ele><time>2026-04-03T12:20:26.267Z</time></trkpt><trkpt lat="43.3810283" lon="11.4334533"><ele>321.0</ele><time>2026-04-03T12:20:27.267Z</time></trkpt><trkpt lat="43.3809133" lon="11.43333"><ele>319.0</ele><time>2026-04-03T12:20:28.267Z</time></trkpt><trkpt lat="43.38082" lon="11.4331917"><ele>317.0</ele><time>2026-04-03T12:20:29.267Z</time></trkpt><trkpt lat="43.3807467" lon="11.43305"><ele>317.25</ele><time>2026-04-03T12:20:30.267Z</time></trkpt><trkpt lat="43.3806767" lon="11.4329183"><ele>317.5</ele><time>2026-04-03T12:20:31.267Z</time></trkpt><trkpt lat="43.380595" lon="11.4328083"><ele>317.75</ele><time>2026-04-03T12:20:32.267Z</time></trkpt><trkpt lat="43.3804983" lon="11.43274"><ele>318.0</ele><time>2026-04-03T12:20:33.267Z</time></trkpt><trkpt lat="43.3803933" lon="11.4326933"><ele>318.6</ele><time>2026-04-03T12:20:34.268Z</time></trkpt><trkpt lat="43.3802867" lon="11.4326567"><ele>319.20000000000005</ele><time>2026-04-03T12:20:35.267Z</time></trkpt><trkpt lat="43.38019" lon="11.4326383"><ele>319.8</ele><time>2026-04-03T12:20:36.267Z</time></trkpt><trkpt lat="43.3800933" lon="11.432625"><ele>320.40000000000003</ele><time>2026-04-03T12:20:37.267Z</time></trkpt><trkpt lat="43.379995" lon="11.4326183"><ele>321.0</ele><time>2026-04-03T12:20:38.267Z</time></trkpt><trkpt lat="43.3798983" lon="11.4326117"><ele>321.0</ele><time>2026-04-03T12:20:39.267Z</time></trkpt><trkpt lat="43.3798083" lon="11.4326"><ele>321.0</ele><time>2026-04-03T12:20:40.267Z</time></trkpt><trkpt lat="43.3797183" lon="11.4325867"><ele>321.0</ele><time>2026-04-03T12:20:41.267Z</time></trkpt><trkpt lat="43.3796267" lon="11.43254"><ele>321.0</ele><time>2026-04-03T12:20:42.267Z</time></trkpt><trkpt lat="43.379525" lon="11.432485"><ele>321.0</ele><time>2026-04-03T12:20:43.267Z</time></trkpt><trkpt lat="43.3794217" lon="11.4324367"><ele>320.25</ele><time>2026-04-03T12:20:44.268Z</time></trkpt><trkpt lat="43.3793183" lon="11.4323883"><ele>319.5</ele><time>2026-04-03T12:20:45.267Z</time></trkpt><trkpt lat="43.3792067" lon="11.4323367"><ele>318.75</ele><time>2026-04-03T12:20:46.267Z</time></trkpt><trkpt lat="43.37909" lon="11.432275"><ele>318.0</ele><time>2026-04-03T12:20:47.267Z</time></trkpt><trkpt lat="43.3789717" lon="11.4322217"><ele>317.75</ele><time>2026-04-03T12:20:48.268Z</time></trkpt><trkpt lat="43.3788483" lon="11.4321667"><ele>317.5</ele><time>2026-04-03T12:20:49.267Z</time></trkpt><trkpt lat="43.3787217" lon="11.4321167"><ele>317.25</ele><time>2026-04-03T12:20:50.268Z</time></trkpt><trkpt lat="43.3786" lon="11.432065"><ele>317.0</ele><time>2026-04-03T12:20:51.267Z</time></trkpt><trkpt lat="43.378475" lon="11.432"><ele>317.0</ele><time>2026-04-03T12:20:52.267Z</time></trkpt><trkpt lat="43.37836" lon="11.43194"><ele>317.0</ele><time>2026-04-03T12:20:53.267Z</time></trkpt><trkpt lat="43.3782367" lon="11.4318683"><ele>317.0</ele><time>2026-04-03T12:20:54.267Z</time></trkpt><trkpt lat="43.37811" lon="11.4317967"><ele>317.0</ele><time>2026-04-03T12:20:55.267Z</time></trkpt><trkpt lat="43.37798" lon="11.4317317"><ele>317.5</ele><time>2026-04-03T12:20:56.267Z</time></trkpt><trkpt lat="43.3778533" lon="11.4316617"><ele>318.0</ele><time>2026-04-03T12:20:57.267Z</time></trkpt><trkpt lat="43.3777217" lon="11.4315967"><ele>318.5</ele><time>2026-04-03T12:20:58.268Z</time></trkpt><trkpt lat="43.3775783" lon="11.4315217"><ele>319.0</ele><time>2026-04-03T12:20:59.267Z</time></trkpt><trkpt lat="43.377445" lon="11.431455"><ele>319.0</ele><time>2026-04-03T12:21:00.268Z</time></trkpt><trkpt lat="43.37731" lon="11.4314033"><ele>319.0</ele><time>2026-04-03T12:21:01.267Z</time></trkpt><trkpt lat="43.3771583" lon="11.43138"><ele>319.0</ele><time>2026-04-03T12:21:02.267Z</time></trkpt><trkpt lat="43.37701" lon="11.4313567"><ele>319.0</ele><time>2026-04-03T12:21:03.267Z</time></trkpt><trkpt lat="43.3768683" lon="11.4313333"><ele>318.25</ele><time>2026-04-03T12:21:04.267Z</time></trkpt><trkpt lat="43.3767383" lon="11.4313267"><ele>317.5</ele><time>2026-04-03T12:21:05.268Z</time></trkpt><trkpt lat="43.376605" lon="11.43132"><ele>316.75</ele><time>2026-04-03T12:21:06.267Z</time></trkpt><trkpt lat="43.3764683" lon="11.431305"><ele>316.0</ele><time>2026-04-03T12:21:07.268Z</time></trkpt><trkpt lat="43.3763433" lon="11.4313"><ele>315.25</ele><time>2026-04-03T12:21:08.267Z</time></trkpt><trkpt lat="43.3762217" lon="11.4312983"><ele>314.5</ele><time>2026-04-03T12:21:09.267Z</time></trkpt><trkpt lat="43.3760983" lon="11.4312817"><ele>313.75</ele><time>2026-04-03T12:21:10.267Z</time></trkpt><trkpt lat="43.3759767" lon="11.4312467"><ele>313.0</ele><time>2026-04-03T12:21:11.267Z</time></trkpt><trkpt lat="43.3758517" lon="11.431205"><ele>313.0</ele><time>2026-04-03T12:21:12.267Z</time></trkpt><trkpt lat="43.3757333" lon="11.43115"><ele>313.0</ele><time>2026-04-03T12:21:13.267Z</time></trkpt><trkpt lat="43.3756067" lon="11.4310883"><ele>313.0</ele><time>2026-04-03T12:21:14.267Z</time></trkpt><trkpt lat="43.3754867" lon="11.431"><ele>313.0</ele><time>2026-04-03T12:21:15.267Z</time></trkpt><trkpt lat="43.3753567" lon="11.4309117"><ele>310.75</ele><time>2026-04-03T12:21:16.267Z</time></trkpt><trkpt lat="43.3752317" lon="11.4308117"><ele>308.5</ele><time>2026-04-03T12:21:17.267Z</time></trkpt><trkpt lat="43.3751033" lon="11.4307133"><ele>306.25</ele><time>2026-04-03T12:21:18.267Z</time></trkpt><trkpt lat="43.3749683" lon="11.4306117"><ele>304.0</ele><time>2026-04-03T12:21:19.267Z</time></trkpt><trkpt lat="43.3748317" lon="11.4305283"><ele>304.3333333333333</ele><time>2026-04-03T12:21:20.267Z</time></trkpt><trkpt lat="43.3746933" lon="11.4304533"><ele>304.6666666666667</ele><time>2026-04-03T12:21:21.267Z</time></trkpt><trkpt lat="43.3745483" lon="11.4304"><ele>305.0</ele><time>2026-04-03T12:21:22.267Z</time></trkpt><trkpt lat="43.3744" lon="11.4303483"><ele>305.0</ele><time>2026-04-03T12:21:23.267Z</time></trkpt><trkpt lat="43.3742533" lon="11.4303033"><ele>305.0</ele><time>2026-04-03T12:21:24.267Z</time></trkpt><trkpt lat="43.3741033" lon="11.430255"><ele>305.0</ele><time>2026-04-03T12:21:25.267Z</time></trkpt><trkpt lat="43.3739433" lon="11.4302"><ele>304.6666666666667</ele><time>2026-04-03T12:21:26.267Z</time></trkpt><trkpt lat="43.37377" lon="11.4301467"><ele>304.3333333333333</ele><time>2026-04-03T12:21:27.267Z</time></trkpt><trkpt lat="43.373605" lon="11.430065"><ele>304.0</ele><time>2026-04-03T12:21:28.267Z</time></trkpt><trkpt lat="43.3734517" lon="11.429975"><ele>304.0</ele><time>2026-04-03T12:21:29.267Z</time></trkpt><trkpt lat="43.3732983" lon="11.42988"><ele>304.0</ele><time>2026-04-03T12:21:30.267Z</time></trkpt><trkpt lat="43.373145" lon="11.4297867"><ele>304.0</ele><time>2026-04-03T12:21:31.267Z</time></trkpt><trkpt lat="43.372995" lon="11.4296917"><ele>301.66666666666663</ele><time>2026-04-03T12:21:32.268Z</time></trkpt><trkpt lat="43.372835" lon="11.42961"><ele>299.3333333333333</ele><time>2026-04-03T12:21:33.267Z</time></trkpt><trkpt lat="43.3726667" lon="11.4295667"><ele>297.0</ele><time>2026-04-03T12:21:34.267Z</time></trkpt><trkpt lat="43.3725133" lon="11.4294867"><ele>297.0</ele><time>2026-04-03T12:21:35.267Z</time></trkpt><trkpt lat="43.372355" lon="11.4294083"><ele>297.0</ele><time>2026-04-03T12:21:36.267Z</time></trkpt><trkpt lat="43.3721933" lon="11.4293267"><ele>297.0</ele><time>2026-04-03T12:21:37.267Z</time></trkpt><trkpt lat="43.37204" lon="11.4292483"><ele>295.6666666666667</ele><time>2026-04-03T12:21:38.267Z</time></trkpt><trkpt lat="43.3718883" lon="11.42915"><ele>294.33333333333337</ele><time>2026-04-03T12:21:39.267Z</time></trkpt><trkpt lat="43.3717433" lon="11.4290767"><ele>293.0</ele><time>2026-04-03T12:21:40.267Z</time></trkpt><trkpt lat="43.3716017" lon="11.4289917"><ele>293.0</ele><time>2026-04-03T12:21:41.267Z</time></trkpt><trkpt lat="43.3714467" lon="11.4289033"><ele>293.0</ele><time>2026-04-03T12:21:42.268Z</time></trkpt><trkpt lat="43.371285" lon="11.42883"><ele>293.0</ele><time>2026-04-03T12:21:43.267Z</time></trkpt><trkpt lat="43.37112" lon="11.42878"><ele>293.33333333333337</ele><time>2026-04-03T12:21:44.267Z</time></trkpt><trkpt lat="43.3709533" lon="11.4287267"><ele>293.6666666666667</ele><time>2026-04-03T12:21:45.267Z</time></trkpt><trkpt lat="43.3707933" lon="11.4286817"><ele>294.0</ele><time>2026-04-03T12:21:46.268Z</time></trkpt><trkpt lat="43.370625" lon="11.4286483"><ele>291.6666666666667</ele><time>2026-04-03T12:21:47.268Z</time></trkpt><trkpt lat="43.3704567" lon="11.428625"><ele>289.33333333333337</ele><time>2026-04-03T12:21:48.267Z</time></trkpt><trkpt lat="43.370275" lon="11.428605"><ele>287.0</ele><time>2026-04-03T12:21:49.267Z</time></trkpt><trkpt lat="43.3701017" lon="11.4285833"><ele>287.0</ele><time>2026-04-03T12:21:50.267Z</time></trkpt><trkpt lat="43.3699317" lon="11.4285483"><ele>287.0</ele><time>2026-04-03T12:21:51.267Z</time></trkpt><trkpt lat="43.3697683" lon="11.4285367"><ele>287.0</ele><time>2026-04-03T12:21:52.267Z</time></trkpt><trkpt lat="43.3696017" lon="11.42853"><ele>285.33333333333337</ele><time>2026-04-03T12:21:53.267Z</time></trkpt><trkpt lat="43.369435" lon="11.428515"><ele>283.6666666666667</ele><time>2026-04-03T12:21:54.268Z</time></trkpt><trkpt lat="43.369265" lon="11.4285217"><ele>282.0</ele><time>2026-04-03T12:21:55.267Z</time></trkpt><trkpt lat="43.3691083" lon="11.4285167"><ele>282.0</ele><time>2026-04-03T12:21:56.267Z</time></trkpt><trkpt lat="43.368945" lon="11.4285067"><ele>282.0</ele><time>2026-04-03T12:21:57.268Z</time></trkpt><trkpt lat="43.3687983" lon="11.428475"><ele>282.0</ele><time>2026-04-03T12:21:58.267Z</time></trkpt><trkpt lat="43.36866" lon="11.4284083"><ele>282.6666666666667</ele><time>2026-04-03T12:21:59.267Z</time></trkpt><trkpt lat="43.3685133" lon="11.4283083"><ele>283.33333333333337</ele><time>2026-04-03T12:22:00.267Z</time></trkpt><trkpt lat="43.3683717" lon="11.42819"><ele>284.0</ele><time>2026-04-03T12:22:01.267Z</time></trkpt><trkpt lat="43.36825" lon="11.4280483"><ele>282.6666666666667</ele><time>2026-04-03T12:22:02.267Z</time></trkpt><trkpt lat="43.3681483" lon="11.4278767"><ele>281.3333333333333</ele><time>2026-04-03T12:22:03.267Z</time></trkpt><trkpt lat="43.3680817" lon="11.427695"><ele>280.0</ele><time>2026-04-03T12:22:04.267Z</time></trkpt><trkpt lat="43.3680383" lon="11.4274967"><ele>280.75</ele><time>2026-04-03T12:22:05.267Z</time></trkpt><trkpt lat="43.3679983" lon="11.4273167"><ele>281.5</ele><time>2026-04-03T12:22:06.268Z</time></trkpt><trkpt lat="43.3679467" lon="11.4271517"><ele>282.25</ele><time>2026-04-03T12:22:07.268Z</time></trkpt><trkpt lat="43.3678783" lon="11.426995"><ele>283.0</ele><time>2026-04-03T12:22:08.267Z</time></trkpt><trkpt lat="43.3677817" lon="11.4268733"><ele>283.3333333333333</ele><time>2026-04-03T12:22:09.267Z</time></trkpt><trkpt lat="43.3676617" lon="11.42677"><ele>283.6666666666667</ele><time>2026-04-03T12:22:10.267Z</time></trkpt><trkpt lat="43.367515" lon="11.42669"><ele>284.0</ele><time>2026-04-03T12:22:11.268Z</time></trkpt><trkpt lat="43.3673683" lon="11.42663"><ele>284.0</ele><time>2026-04-03T12:22:12.267Z</time></trkpt><trkpt lat="43.3672117" lon="11.42658"><ele>284.0</ele><time>2026-04-03T12:22:13.267Z</time></trkpt><trkpt lat="43.3670583" lon="11.4265217"><ele>284.0</ele><time>2026-04-03T12:22:14.267Z</time></trkpt><trkpt lat="43.3669083" lon="11.4264617"><ele>285.6666666666667</ele><time>2026-04-03T12:22:15.267Z</time></trkpt><trkpt lat="43.3667567" lon="11.4264033"><ele>287.3333333333333</ele><time>2026-04-03T12:22:16.267Z</time></trkpt><trkpt lat="43.36661" lon="11.4263567"><ele>289.0</ele><time>2026-04-03T12:22:17.267Z</time></trkpt><trkpt lat="43.3664617" lon="11.4263417"><ele>288.5</ele><time>2026-04-03T12:22:18.267Z</time></trkpt><trkpt lat="43.366315" lon="11.42636"><ele>288.0</ele><time>2026-04-03T12:22:19.267Z</time></trkpt><trkpt lat="43.366175" lon="11.426375"><ele>287.5</ele><time>2026-04-03T12:22:20.267Z</time></trkpt><trkpt lat="43.3660433" lon="11.4263867"><ele>287.0</ele><time>2026-04-03T12:22:21.267Z</time></trkpt><trkpt lat="43.36591" lon="11.4263483"><ele>287.75</ele><time>2026-04-03T12:22:22.268Z</time></trkpt><trkpt lat="43.36579" lon="11.4262583"><ele>288.5</ele><time>2026-04-03T12:22:23.268Z</time></trkpt><trkpt lat="43.36569" lon="11.42612"><ele>289.25</ele><time>2026-04-03T12:22:24.267Z</time></trkpt><trkpt lat="43.3656" lon="11.42597"><ele>290.0</ele><time>2026-04-03T12:22:25.267Z</time></trkpt><trkpt lat="43.36551" lon="11.4258117"><ele>287.33333333333337</ele><time>2026-04-03T12:22:26.267Z</time></trkpt><trkpt lat="43.3654183" lon="11.4256433"><ele>284.6666666666667</ele><time>2026-04-03T12:22:27.267Z</time></trkpt><trkpt lat="43.3653167" lon="11.4254733"><ele>282.0</ele><time>2026-04-03T12:22:28.268Z</time></trkpt><trkpt lat="43.3652233" lon="11.425315"><ele>281.6666666666667</ele><time>2026-04-03T12:22:29.267Z</time></trkpt><trkpt lat="43.36512" lon="11.42516"><ele>281.33333333333337</ele><time>2026-04-03T12:22:30.267Z</time></trkpt><trkpt lat="43.3650117" lon="11.4249917"><ele>281.0</ele><time>2026-04-03T12:22:31.268Z</time></trkpt><trkpt lat="43.36491" lon="11.42484"><ele>281.0</ele><time>2026-04-03T12:22:32.267Z</time></trkpt><trkpt lat="43.364815" lon="11.4246733"><ele>281.0</ele><time>2026-04-03T12:22:33.267Z</time></trkpt><trkpt lat="43.3647217" lon="11.4245033"><ele>281.0</ele><time>2026-04-03T12:22:34.267Z</time></trkpt><trkpt lat="43.3646583" lon="11.4243217"><ele>280.25</ele><time>2026-04-03T12:22:35.267Z</time></trkpt><trkpt lat="43.3646017" lon="11.4241467"><ele>279.5</ele><time>2026-04-03T12:22:36.267Z</time></trkpt><trkpt lat="43.3645533" lon="11.4239667"><ele>278.75</ele><time>2026-04-03T12:22:37.267Z</time></trkpt><trkpt lat="43.3645183" lon="11.4237783"><ele>278.0</ele><time>2026-04-03T12:22:38.268Z</time></trkpt><trkpt lat="43.3644917" lon="11.42359"><ele>276.25</ele><time>2026-04-03T12:22:39.267Z</time></trkpt><trkpt lat="43.3644983" lon="11.4233967"><ele>274.5</ele><time>2026-04-03T12:22:40.267Z</time></trkpt><trkpt lat="43.364525" lon="11.4232017"><ele>272.75</ele><time>2026-04-03T12:22:41.267Z</time></trkpt><trkpt lat="43.3645417" lon="11.42302"><ele>271.0</ele><time>2026-04-03T12:22:42.267Z</time></trkpt><trkpt lat="43.3645417" lon="11.4228167"><ele>269.25</ele><time>2026-04-03T12:22:43.268Z</time></trkpt><trkpt lat="43.3645317" lon="11.4226167"><ele>267.5</ele><time>2026-04-03T12:22:44.267Z</time></trkpt><trkpt lat="43.36453" lon="11.4224283"><ele>265.75</ele><time>2026-04-03T12:22:45.267Z</time></trkpt><trkpt lat="43.3645333" lon="11.4222117"><ele>264.0</ele><time>2026-04-03T12:22:46.267Z</time></trkpt><trkpt lat="43.3645333" lon="11.4220133"><ele>262.25</ele><time>2026-04-03T12:22:47.267Z</time></trkpt><trkpt lat="43.3645167" lon="11.4218233"><ele>260.5</ele><time>2026-04-03T12:22:48.267Z</time></trkpt><trkpt lat="43.3645117" lon="11.4216333"><ele>258.75</ele><time>2026-04-03T12:22:49.268Z</time></trkpt><trkpt lat="43.3644983" lon="11.4214517"><ele>257.0</ele><time>2026-04-03T12:22:50.267Z</time></trkpt><trkpt lat="43.364445" lon="11.4212317"><ele>256.75</ele><time>2026-04-03T12:22:51.268Z</time></trkpt><trkpt lat="43.3643883" lon="11.421055"><ele>256.5</ele><time>2026-04-03T12:22:52.267Z</time></trkpt><trkpt lat="43.36433" lon="11.42087"><ele>256.25</ele><time>2026-04-03T12:22:53.267Z</time></trkpt><trkpt lat="43.3642717" lon="11.420675"><ele>256.0</ele><time>2026-04-03T12:22:54.267Z</time></trkpt><trkpt lat="43.3642267" lon="11.4204783"><ele>255.5</ele><time>2026-04-03T12:22:55.267Z</time></trkpt><trkpt lat="43.3641917" lon="11.4202733"><ele>255.0</ele><time>2026-04-03T12:22:56.267Z</time></trkpt><trkpt lat="43.36417" lon="11.4200767"><ele>254.5</ele><time>2026-04-03T12:22:57.267Z</time></trkpt><trkpt lat="43.3641517" lon="11.4198867"><ele>254.0</ele><time>2026-04-03T12:22:58.268Z</time></trkpt><trkpt lat="43.3641317" lon="11.419695"><ele>253.0</ele><time>2026-04-03T12:22:59.268Z</time></trkpt><trkpt lat="43.364105" lon="11.4194833"><ele>252.0</ele><time>2026-04-03T12:23:00.267Z</time></trkpt><trkpt lat="43.3640833" lon="11.41928"><ele>251.0</ele><time>2026-04-03T12:23:01.268Z</time></trkpt><trkpt lat="43.3640667" lon="11.419095"><ele>250.0</ele><time>2026-04-03T12:23:02.267Z</time></trkpt><trkpt lat="43.364055" lon="11.418935"><ele>248.99999999999997</ele><time>2026-04-03T12:23:03.267Z</time></trkpt><trkpt lat="43.3640567" lon="11.4188167"><ele>248.0</ele><time>2026-04-03T12:23:04.267Z</time></trkpt><trkpt lat="43.3640467" lon="11.4187233"><ele>247.0</ele><time>2026-04-03T12:23:05.267Z</time></trkpt><trkpt lat="43.36406" lon="11.418605"><ele>246.0</ele><time>2026-04-03T12:23:07.268Z</time></trkpt><trkpt lat="43.3641017" lon="11.4185283"><ele>244.99999999999997</ele><time>2026-04-03T12:23:10.267Z</time></trkpt><trkpt lat="43.363975" lon="11.4184783"><ele>244.0</ele><time>2026-04-03T12:23:15.267Z</time></trkpt><trkpt lat="43.3639017" lon="11.4184683"><ele>243.2</ele><time>2026-04-03T12:23:16.268Z</time></trkpt><trkpt lat="43.3638133" lon="11.4184633"><ele>242.39999999999998</ele><time>2026-04-03T12:23:17.268Z</time></trkpt><trkpt lat="43.36372" lon="11.4184617"><ele>241.6</ele><time>2026-04-03T12:23:18.268Z</time></trkpt><trkpt lat="43.3636167" lon="11.41846"><ele>240.8</ele><time>2026-04-03T12:23:19.267Z</time></trkpt><trkpt lat="43.3635117" lon="11.4184617"><ele>240.0</ele><time>2026-04-03T12:23:20.267Z</time></trkpt><trkpt lat="43.36339" lon="11.4184733"><ele>240.0</ele><time>2026-04-03T12:23:21.267Z</time></trkpt><trkpt lat="43.3632667" lon="11.4184683"><ele>240.0</ele><time>2026-04-03T12:23:22.268Z</time></trkpt><trkpt lat="43.3631283" lon="11.4184583"><ele>240.0</ele><time>2026-04-03T12:23:23.268Z</time></trkpt><trkpt lat="43.3629817" lon="11.41843"><ele>240.0</ele><time>2026-04-03T12:23:24.267Z</time></trkpt><trkpt lat="43.362845" lon="11.4184"><ele>239.25</ele><time>2026-04-03T12:23:25.267Z</time></trkpt><trkpt lat="43.3627033" lon="11.4183567"><ele>238.5</ele><time>2026-04-03T12:23:26.267Z</time></trkpt><trkpt lat="43.3625733" lon="11.4183133"><ele>237.75</ele><time>2026-04-03T12:23:27.267Z</time></trkpt><trkpt lat="43.3624417" lon="11.41829"><ele>237.0</ele><time>2026-04-03T12:23:28.267Z</time></trkpt><trkpt lat="43.3623133" lon="11.4182767"><ele>235.5</ele><time>2026-04-03T12:23:29.267Z</time></trkpt><trkpt lat="43.362195" lon="11.4182983"><ele>234.0</ele><time>2026-04-03T12:23:30.268Z</time></trkpt><trkpt lat="43.3620783" lon="11.4183767"><ele>232.5</ele><time>2026-04-03T12:23:31.267Z</time></trkpt><trkpt lat="43.3619683" lon="11.4184867"><ele>231.0</ele><time>2026-04-03T12:23:32.267Z</time></trkpt><trkpt lat="43.3618667" lon="11.4186217"><ele>231.0</ele><time>2026-04-03T12:23:33.267Z</time></trkpt><trkpt lat="43.361785" lon="11.41877"><ele>231.0</ele><time>2026-04-03T12:23:34.268Z</time></trkpt><trkpt lat="43.3617067" lon="11.4189183"><ele>231.0</ele><time>2026-04-03T12:23:35.266Z</time></trkpt><trkpt lat="43.36161" lon="11.4190467"><ele>231.0</ele><time>2026-04-03T12:23:36.267Z</time></trkpt><trkpt lat="43.3614867" lon="11.4191383"><ele>231.33333333333331</ele><time>2026-04-03T12:23:37.266Z</time></trkpt><trkpt lat="43.3613433" lon="11.4191983"><ele>231.66666666666666</ele><time>2026-04-03T12:23:38.266Z</time></trkpt><trkpt lat="43.36119" lon="11.4192467"><ele>232.0</ele><time>2026-04-03T12:23:39.266Z</time></trkpt><trkpt lat="43.3610267" lon="11.419295"><ele>232.0</ele><time>2026-04-03T12:23:40.266Z</time></trkpt><trkpt lat="43.3608683" lon="11.419355"><ele>232.0</ele><time>2026-04-03T12:23:41.266Z</time></trkpt><trkpt lat="43.36071" lon="11.41942"><ele>232.0</ele><time>2026-04-03T12:23:42.266Z</time></trkpt><trkpt lat="43.36056" lon="11.419475"><ele>232.0</ele><time>2026-04-03T12:23:43.266Z</time></trkpt><trkpt lat="43.3604" lon="11.4195417"><ele>232.0</ele><time>2026-04-03T12:23:44.267Z</time></trkpt><trkpt lat="43.3602417" lon="11.4196017"><ele>232.0</ele><time>2026-04-03T12:23:45.266Z</time></trkpt><trkpt lat="43.36008" lon="11.419665"><ele>232.0</ele><time>2026-04-03T12:23:46.267Z</time></trkpt><trkpt lat="43.3599183" lon="11.4197233"><ele>232.0</ele><time>2026-04-03T12:23:47.266Z</time></trkpt><trkpt lat="43.3597617" lon="11.4197833"><ele>232.0</ele><time>2026-04-03T12:23:48.266Z</time></trkpt><trkpt lat="43.359605" lon="11.4198283"><ele>231.0</ele><time>2026-04-03T12:23:49.266Z</time></trkpt><trkpt lat="43.3594583" lon="11.419875"><ele>230.0</ele><time>2026-04-03T12:23:50.266Z</time></trkpt><trkpt lat="43.3593233" lon="11.41992"><ele>229.0</ele><time>2026-04-03T12:23:51.266Z</time></trkpt><trkpt lat="43.3591867" lon="11.4199317"><ele>228.0</ele><time>2026-04-03T12:23:52.266Z</time></trkpt><trkpt lat="43.3590667" lon="11.4199117"><ele>228.0</ele><time>2026-04-03T12:23:53.267Z</time></trkpt><trkpt lat="43.3589417" lon="11.4198317"><ele>228.0</ele><time>2026-04-03T12:23:54.266Z</time></trkpt><trkpt lat="43.3588317" lon="11.4196883"><ele>228.0</ele><time>2026-04-03T12:23:55.267Z</time></trkpt><trkpt lat="43.3587317" lon="11.419525"><ele>228.0</ele><time>2026-04-03T12:23:56.266Z</time></trkpt><trkpt lat="43.358625" lon="11.4193467"><ele>226.0</ele><time>2026-04-03T12:23:57.266Z</time></trkpt><trkpt lat="43.358515" lon="11.4191583"><ele>224.0</ele><time>2026-04-03T12:23:58.266Z</time></trkpt><trkpt lat="43.3583983" lon="11.418975"><ele>222.0</ele><time>2026-04-03T12:23:59.266Z</time></trkpt><trkpt lat="43.358285" lon="11.4188017"><ele>221.66666666666669</ele><time>2026-04-03T12:24:00.266Z</time></trkpt><trkpt lat="43.3581767" lon="11.4186383"><ele>221.33333333333334</ele><time>2026-04-03T12:24:01.266Z</time></trkpt><trkpt lat="43.3580633" lon="11.418475"><ele>221.0</ele><time>2026-04-03T12:24:02.267Z</time></trkpt><trkpt lat="43.3579517" lon="11.4183133"><ele>220.66666666666669</ele><time>2026-04-03T12:24:03.266Z</time></trkpt><trkpt lat="43.35784" lon="11.41816"><ele>220.33333333333331</ele><time>2026-04-03T12:24:04.266Z</time></trkpt><trkpt lat="43.3577317" lon="11.41799"><ele>220.0</ele><time>2026-04-03T12:24:05.266Z</time></trkpt><trkpt lat="43.35763" lon="11.4178167"><ele>220.0</ele><time>2026-04-03T12:24:06.266Z</time></trkpt><trkpt lat="43.3575267" lon="11.4176367"><ele>220.0</ele><time>2026-04-03T12:24:07.266Z</time></trkpt><trkpt lat="43.357415" lon="11.417455"><ele>220.0</ele><time>2026-04-03T12:24:08.267Z</time></trkpt><trkpt lat="43.3573067" lon="11.4172867"><ele>219.66666666666666</ele><time>2026-04-03T12:24:09.266Z</time></trkpt><trkpt lat="43.3572" lon="11.4171283"><ele>219.33333333333331</ele><time>2026-04-03T12:24:10.267Z</time></trkpt><trkpt lat="43.3570917" lon="11.416965"><ele>219.0</ele><time>2026-04-03T12:24:11.266Z</time></trkpt><trkpt lat="43.3569817" lon="11.4168"><ele>219.0</ele><time>2026-04-03T12:24:12.266Z</time></trkpt><trkpt lat="43.356875" lon="11.4166317"><ele>219.0</ele><time>2026-04-03T12:24:13.266Z</time></trkpt><trkpt lat="43.356775" lon="11.4164667"><ele>219.0</ele><time>2026-04-03T12:24:14.266Z</time></trkpt><trkpt lat="43.3566867" lon="11.4163167"><ele>219.5</ele><time>2026-04-03T12:24:15.266Z</time></trkpt><trkpt lat="43.356605" lon="11.41618"><ele>220.0</ele><time>2026-04-03T12:24:16.266Z</time></trkpt><trkpt lat="43.3565183" lon="11.416045"><ele>220.5</ele><time>2026-04-03T12:24:17.267Z</time></trkpt><trkpt lat="43.356435" lon="11.4159267"><ele>221.0</ele><time>2026-04-03T12:24:18.266Z</time></trkpt><trkpt lat="43.3563383" lon="11.41585"><ele>221.25</ele><time>2026-04-03T12:24:19.266Z</time></trkpt><trkpt lat="43.356235" lon="11.4158267"><ele>221.5</ele><time>2026-04-03T12:24:20.266Z</time></trkpt><trkpt lat="43.3561167" lon="11.4158517"><ele>221.75</ele><time>2026-04-03T12:24:21.266Z</time></trkpt><trkpt lat="43.355995" lon="11.4159133"><ele>222.0</ele><time>2026-04-03T12:24:22.266Z</time></trkpt><trkpt lat="43.3558667" lon="11.4159817"><ele>222.0</ele><time>2026-04-03T12:24:23.266Z</time></trkpt><trkpt lat="43.3557417" lon="11.4160617"><ele>222.0</ele><time>2026-04-03T12:24:24.266Z</time></trkpt><trkpt lat="43.3556217" lon="11.4161467"><ele>222.0</ele><time>2026-04-03T12:24:25.266Z</time></trkpt><trkpt lat="43.3554983" lon="11.416215"><ele>222.0</ele><time>2026-04-03T12:24:26.266Z</time></trkpt><trkpt lat="43.355365" lon="11.416245"><ele>223.66666666666669</ele><time>2026-04-03T12:24:27.266Z</time></trkpt><trkpt lat="43.355215" lon="11.4162433"><ele>225.33333333333334</ele><time>2026-04-03T12:24:28.267Z</time></trkpt><trkpt lat="43.35506" lon="11.4162317"><ele>227.0</ele><time>2026-04-03T12:24:29.266Z</time></trkpt><trkpt lat="43.3549017" lon="11.416205"><ele>227.0</ele><time>2026-04-03T12:24:30.266Z</time></trkpt><trkpt lat="43.35474" lon="11.4161733"><ele>227.0</ele><time>2026-04-03T12:24:31.267Z</time></trkpt><trkpt lat="43.3545733" lon="11.4161517"><ele>227.0</ele><time>2026-04-03T12:24:32.266Z</time></trkpt><trkpt lat="43.3544067" lon="11.4161283"><ele>226.33333333333334</ele><time>2026-04-03T12:24:33.266Z</time></trkpt><trkpt lat="43.3542367" lon="11.416105"><ele>225.66666666666669</ele><time>2026-04-03T12:24:34.266Z</time></trkpt><trkpt lat="43.3540767" lon="11.4160833"><ele>225.0</ele><time>2026-04-03T12:24:35.266Z</time></trkpt><trkpt lat="43.3539167" lon="11.416065"><ele>224.33333333333331</ele><time>2026-04-03T12:24:36.266Z</time></trkpt><trkpt lat="43.3537617" lon="11.4160367"><ele>223.66666666666666</ele><time>2026-04-03T12:24:37.267Z</time></trkpt><trkpt lat="43.3535983" lon="11.416"><ele>223.0</ele><time>2026-04-03T12:24:38.267Z</time></trkpt><trkpt lat="43.3534417" lon="11.415965"><ele>223.0</ele><time>2026-04-03T12:24:39.266Z</time></trkpt><trkpt lat="43.353285" lon="11.415925"><ele>223.0</ele><time>2026-04-03T12:24:40.266Z</time></trkpt><trkpt lat="43.3531183" lon="11.4158933"><ele>223.0</ele><time>2026-04-03T12:24:41.266Z</time></trkpt><trkpt lat="43.3529633" lon="11.41584"><ele>223.0</ele><time>2026-04-03T12:24:42.266Z</time></trkpt><trkpt lat="43.3528033" lon="11.4157983"><ele>223.0</ele><time>2026-04-03T12:24:43.266Z</time></trkpt><trkpt lat="43.3526367" lon="11.41574"><ele>223.0</ele><time>2026-04-03T12:24:44.266Z</time></trkpt><trkpt lat="43.352475" lon="11.4156933"><ele>223.0</ele><time>2026-04-03T12:24:45.266Z</time></trkpt><trkpt lat="43.35232" lon="11.4156517"><ele>223.0</ele><time>2026-04-03T12:24:46.266Z</time></trkpt><trkpt lat="43.3521733" lon="11.4156167"><ele>223.0</ele><time>2026-04-03T12:24:47.267Z</time></trkpt><trkpt lat="43.3520283" lon="11.415575"><ele>222.33333333333331</ele><time>2026-04-03T12:24:48.266Z</time></trkpt><trkpt lat="43.3518817" lon="11.41553"><ele>221.66666666666669</ele><time>2026-04-03T12:24:49.266Z</time></trkpt><trkpt lat="43.35173" lon="11.41548"><ele>221.0</ele><time>2026-04-03T12:24:50.267Z</time></trkpt><trkpt lat="43.3515833" lon="11.4154417"><ele>221.0</ele><time>2026-04-03T12:24:51.266Z</time></trkpt><trkpt lat="43.351435" lon="11.4154017"><ele>221.0</ele><time>2026-04-03T12:24:52.266Z</time></trkpt><trkpt lat="43.35129" lon="11.4153517"><ele>221.0</ele><time>2026-04-03T12:24:53.266Z</time></trkpt><trkpt lat="43.3511417" lon="11.4153083"><ele>220.66666666666669</ele><time>2026-04-03T12:24:54.266Z</time></trkpt><trkpt lat="43.35099" lon="11.4152683"><ele>220.33333333333331</ele><time>2026-04-03T12:24:55.266Z</time></trkpt><trkpt lat="43.3508383" lon="11.4152267"><ele>220.0</ele><time>2026-04-03T12:24:56.266Z</time></trkpt><trkpt lat="43.3506883" lon="11.4151883"><ele>222.0</ele><time>2026-04-03T12:24:57.266Z</time></trkpt><trkpt lat="43.3505383" lon="11.4151533"><ele>224.0</ele><time>2026-04-03T12:24:58.266Z</time></trkpt><trkpt lat="43.3503917" lon="11.415105"><ele>226.0</ele><time>2026-04-03T12:24:59.267Z</time></trkpt><trkpt lat="43.3502467" lon="11.41505"><ele>226.0</ele><time>2026-04-03T12:25:00.266Z</time></trkpt><trkpt lat="43.3501067" lon="11.414965"><ele>226.0</ele><time>2026-04-03T12:25:01.266Z</time></trkpt><trkpt lat="43.350005" lon="11.4148217"><ele>226.0</ele><time>2026-04-03T12:25:02.266Z</time></trkpt><trkpt lat="43.3499117" lon="11.4146483"><ele>226.25</ele><time>2026-04-03T12:25:03.267Z</time></trkpt><trkpt lat="43.3498283" lon="11.41448"><ele>226.5</ele><time>2026-04-03T12:25:04.266Z</time></trkpt><trkpt lat="43.3497517" lon="11.414315"><ele>226.75</ele><time>2026-04-03T12:25:05.266Z</time></trkpt><trkpt lat="43.3496667" lon="11.41417"><ele>227.0</ele><time>2026-04-03T12:25:06.266Z</time></trkpt><trkpt lat="43.3495867" lon="11.4139983"><ele>227.0</ele><time>2026-04-03T12:25:07.266Z</time></trkpt><trkpt lat="43.34952" lon="11.41382"><ele>227.0</ele><time>2026-04-03T12:25:08.267Z</time></trkpt><trkpt lat="43.34946" lon="11.4136233"><ele>227.0</ele><time>2026-04-03T12:25:09.266Z</time></trkpt><trkpt lat="43.3494183" lon="11.4134733"><ele>227.0</ele><time>2026-04-03T12:25:10.266Z</time></trkpt><trkpt lat="43.34935" lon="11.4133167"><ele>227.0</ele><time>2026-04-03T12:25:11.267Z</time></trkpt><trkpt lat="43.3492717" lon="11.41316"><ele>227.0</ele><time>2026-04-03T12:25:12.266Z</time></trkpt><trkpt lat="43.3491667" lon="11.4129983"><ele>227.0</ele><time>2026-04-03T12:25:13.267Z</time></trkpt><trkpt lat="43.349065" lon="11.4128567"><ele>227.0</ele><time>2026-04-03T12:25:14.266Z</time></trkpt><trkpt lat="43.3489617" lon="11.412705"><ele>228.25</ele><time>2026-04-03T12:25:15.267Z</time></trkpt><trkpt lat="43.348865" lon="11.4125467"><ele>229.5</ele><time>2026-04-03T12:25:16.266Z</time></trkpt><trkpt lat="43.3487817" lon="11.4123767"><ele>230.75</ele><time>2026-04-03T12:25:17.266Z</time></trkpt><trkpt lat="43.34871" lon="11.4121983"><ele>232.0</ele><time>2026-04-03T12:25:18.266Z</time></trkpt><trkpt lat="43.34865" lon="11.412015"><ele>232.0</ele><time>2026-04-03T12:25:19.267Z</time></trkpt><trkpt lat="43.3486017" lon="11.41182"><ele>232.0</ele><time>2026-04-03T12:25:20.267Z</time></trkpt><trkpt lat="43.3485683" lon="11.4116183"><ele>232.0</ele><time>2026-04-03T12:25:21.267Z</time></trkpt><trkpt lat="43.3485417" lon="11.4114083"><ele>234.0</ele><time>2026-04-03T12:25:22.266Z</time></trkpt><trkpt lat="43.3485217" lon="11.4111967"><ele>236.0</ele><time>2026-04-03T12:25:23.266Z</time></trkpt><trkpt lat="43.3485067" lon="11.4109933"><ele>238.0</ele><time>2026-04-03T12:25:24.266Z</time></trkpt><trkpt lat="43.3484883" lon="11.4107833"><ele>238.0</ele><time>2026-04-03T12:25:25.266Z</time></trkpt><trkpt lat="43.34845" lon="11.4105683"><ele>238.0</ele><time>2026-04-03T12:25:26.266Z</time></trkpt><trkpt lat="43.3484217" lon="11.4103567"><ele>238.0</ele><time>2026-04-03T12:25:27.266Z</time></trkpt><trkpt lat="43.3483767" lon="11.410145"><ele>238.66666666666666</ele><time>2026-04-03T12:25:28.266Z</time></trkpt><trkpt lat="43.3483267" lon="11.40993"><ele>239.33333333333331</ele><time>2026-04-03T12:25:29.266Z</time></trkpt><trkpt lat="43.3482733" lon="11.4097117"><ele>240.0</ele><time>2026-04-03T12:25:30.266Z</time></trkpt><trkpt lat="43.3482233" lon="11.4095167"><ele>240.0</ele><time>2026-04-03T12:25:31.266Z</time></trkpt><trkpt lat="43.348175" lon="11.4093167"><ele>240.0</ele><time>2026-04-03T12:25:32.266Z</time></trkpt><trkpt lat="43.3481267" lon="11.4091067"><ele>240.0</ele><time>2026-04-03T12:25:33.266Z</time></trkpt><trkpt lat="43.3480883" lon="11.4089"><ele>241.0</ele><time>2026-04-03T12:25:34.266Z</time></trkpt><trkpt lat="43.3480617" lon="11.4086883"><ele>242.0</ele><time>2026-04-03T12:25:35.266Z</time></trkpt><trkpt lat="43.3480433" lon="11.4084767"><ele>243.0</ele><time>2026-04-03T12:25:36.266Z</time></trkpt><trkpt lat="43.3480317" lon="11.4082633"><ele>243.0</ele><time>2026-04-03T12:25:37.266Z</time></trkpt><trkpt lat="43.348045" lon="11.4080367"><ele>243.0</ele><time>2026-04-03T12:25:38.267Z</time></trkpt><trkpt lat="43.34805" lon="11.40781"><ele>243.0</ele><time>2026-04-03T12:25:39.267Z</time></trkpt><trkpt lat="43.348055" lon="11.407585"><ele>244.0</ele><time>2026-04-03T12:25:40.266Z</time></trkpt><trkpt lat="43.3480633" lon="11.4073533"><ele>245.0</ele><time>2026-04-03T12:25:41.266Z</time></trkpt><trkpt lat="43.3480783" lon="11.4071267"><ele>246.0</ele><time>2026-04-03T12:25:42.266Z</time></trkpt><trkpt lat="43.348095" lon="11.406895"><ele>247.0</ele><time>2026-04-03T12:25:43.266Z</time></trkpt><trkpt lat="43.3481233" lon="11.406655"><ele>248.0</ele><time>2026-04-03T12:25:44.267Z</time></trkpt><trkpt lat="43.3481567" lon="11.4064233"><ele>249.0</ele><time>2026-04-03T12:25:45.267Z</time></trkpt><trkpt lat="43.3482017" lon="11.4061883"><ele>251.33333333333331</ele><time>2026-04-03T12:25:46.266Z</time></trkpt><trkpt lat="43.3482617" lon="11.40598"><ele>253.66666666666666</ele><time>2026-04-03T12:25:47.266Z</time></trkpt><trkpt lat="43.348325" lon="11.405755"><ele>256.0</ele><time>2026-04-03T12:25:48.267Z</time></trkpt><trkpt lat="43.3483783" lon="11.4055317"><ele>259.66666666666663</ele><time>2026-04-03T12:25:49.267Z</time></trkpt><trkpt lat="43.3484183" lon="11.4053067"><ele>263.3333333333333</ele><time>2026-04-03T12:25:50.266Z</time></trkpt><trkpt lat="43.3484533" lon="11.4050883"><ele>267.0</ele><time>2026-04-03T12:25:51.266Z</time></trkpt><trkpt lat="43.3484783" lon="11.404865"><ele>267.6666666666667</ele><time>2026-04-03T12:25:52.267Z</time></trkpt><trkpt lat="43.348515" lon="11.40463"><ele>268.33333333333337</ele><time>2026-04-03T12:25:53.266Z</time></trkpt><trkpt lat="43.348555" lon="11.4044383"><ele>269.0</ele><time>2026-04-03T12:25:54.266Z</time></trkpt><trkpt lat="43.34862" lon="11.4042517"><ele>269.0</ele><time>2026-04-03T12:25:55.267Z</time></trkpt><trkpt lat="43.3487183" lon="11.4040867"><ele>269.0</ele><time>2026-04-03T12:25:56.266Z</time></trkpt><trkpt lat="43.3488333" lon="11.40394"><ele>269.0</ele><time>2026-04-03T12:25:57.266Z</time></trkpt><trkpt lat="43.348955" lon="11.403785"><ele>270.0</ele><time>2026-04-03T12:25:58.266Z</time></trkpt><trkpt lat="43.34905" lon="11.4036167"><ele>271.0</ele><time>2026-04-03T12:25:59.266Z</time></trkpt><trkpt lat="43.34912" lon="11.4034283"><ele>272.0</ele><time>2026-04-03T12:26:00.266Z</time></trkpt><trkpt lat="43.3491533" lon="11.4032267"><ele>272.0</ele><time>2026-04-03T12:26:01.267Z</time></trkpt><trkpt lat="43.349165" lon="11.4030183"><ele>272.0</ele><time>2026-04-03T12:26:02.267Z</time></trkpt><trkpt lat="43.3491967" lon="11.4028083"><ele>272.0</ele><time>2026-04-03T12:26:03.267Z</time></trkpt><trkpt lat="43.3492133" lon="11.4025933"><ele>274.33333333333337</ele><time>2026-04-03T12:26:04.266Z</time></trkpt><trkpt lat="43.3492233" lon="11.402365"><ele>276.6666666666667</ele><time>2026-04-03T12:26:05.266Z</time></trkpt><trkpt lat="43.3492483" lon="11.40214"><ele>279.0</ele><time>2026-04-03T12:26:06.266Z</time></trkpt><trkpt lat="43.34928" lon="11.4019433"><ele>281.0</ele><time>2026-04-03T12:26:07.266Z</time></trkpt><trkpt lat="43.34932" lon="11.40176"><ele>283.0</ele><time>2026-04-03T12:26:08.266Z</time></trkpt><trkpt lat="43.349385" lon="11.40162"><ele>285.0</ele><time>2026-04-03T12:26:09.267Z</time></trkpt><trkpt lat="43.3494917" lon="11.4015133"><ele>287.0</ele><time>2026-04-03T12:26:10.267Z</time></trkpt><trkpt lat="43.3496167" lon="11.4014633"><ele>285.75</ele><time>2026-04-03T12:26:11.266Z</time></trkpt><trkpt lat="43.34974" lon="11.4014767"><ele>284.5</ele><time>2026-04-03T12:26:12.267Z</time></trkpt><trkpt lat="43.3498583" lon="11.4015117"><ele>283.25</ele><time>2026-04-03T12:26:13.267Z</time></trkpt><trkpt lat="43.3499783" lon="11.401565"><ele>282.0</ele><time>2026-04-03T12:26:14.266Z</time></trkpt><trkpt lat="43.350095" lon="11.4015867"><ele>282.0</ele><time>2026-04-03T12:26:15.266Z</time></trkpt><trkpt lat="43.3501933" lon="11.4015617"><ele>282.0</ele><time>2026-04-03T12:26:16.266Z</time></trkpt><trkpt lat="43.350255" lon="11.40147"><ele>282.0</ele><time>2026-04-03T12:26:17.266Z</time></trkpt><trkpt lat="43.3502817" lon="11.401335"><ele>282.0</ele><time>2026-04-03T12:26:18.266Z</time></trkpt><trkpt lat="43.3502617" lon="11.4012117"><ele>282.0</ele><time>2026-04-03T12:26:19.266Z</time></trkpt><trkpt lat="43.35023" lon="11.401075"><ele>284.5</ele><time>2026-04-03T12:26:20.267Z</time></trkpt><trkpt lat="43.3501533" lon="11.4009567"><ele>287.0</ele><time>2026-04-03T12:26:21.266Z</time></trkpt><trkpt lat="43.35006" lon="11.4008133"><ele>289.5</ele><time>2026-04-03T12:26:22.267Z</time></trkpt><trkpt lat="43.349965" lon="11.4007017"><ele>292.0</ele><time>2026-04-03T12:26:23.266Z</time></trkpt><trkpt lat="43.3498583" lon="11.4006217"><ele>292.0</ele><time>2026-04-03T12:26:24.267Z</time></trkpt><trkpt lat="43.3497283" lon="11.4005867"><ele>292.0</ele><time>2026-04-03T12:26:25.266Z</time></trkpt><trkpt lat="43.349595" lon="11.4006"><ele>292.0</ele><time>2026-04-03T12:26:26.266Z</time></trkpt><trkpt lat="43.3494633" lon="11.400645"><ele>292.0</ele><time>2026-04-03T12:26:27.266Z</time></trkpt><trkpt lat="43.3493283" lon="11.4007133"><ele>292.66666666666663</ele><time>2026-04-03T12:26:28.266Z</time></trkpt><trkpt lat="43.3491883" lon="11.4007967"><ele>293.3333333333333</ele><time>2026-04-03T12:26:29.267Z</time></trkpt><trkpt lat="43.349035" lon="11.4009017"><ele>294.0</ele><time>2026-04-03T12:26:30.266Z</time></trkpt><trkpt lat="43.34889" lon="11.4009983"><ele>295.5</ele><time>2026-04-03T12:26:31.267Z</time></trkpt><trkpt lat="43.3487583" lon="11.4010417"><ele>297.0</ele><time>2026-04-03T12:26:32.266Z</time></trkpt><trkpt lat="43.34864" lon="11.4010283"><ele>298.5</ele><time>2026-04-03T12:26:33.266Z</time></trkpt><trkpt lat="43.3485267" lon="11.4009817"><ele>300.0</ele><time>2026-04-03T12:26:34.266Z</time></trkpt><trkpt lat="43.34842" lon="11.4008917"><ele>300.0</ele><time>2026-04-03T12:26:35.266Z</time></trkpt><trkpt lat="43.3483117" lon="11.40078"><ele>300.0</ele><time>2026-04-03T12:26:36.266Z</time></trkpt><trkpt lat="43.3481933" lon="11.4006233"><ele>300.0</ele><time>2026-04-03T12:26:37.266Z</time></trkpt><trkpt lat="43.3480483" lon="11.4004483"><ele>302.3333333333333</ele><time>2026-04-03T12:26:38.266Z</time></trkpt><trkpt lat="43.3479" lon="11.4003183"><ele>304.66666666666663</ele><time>2026-04-03T12:26:39.266Z</time></trkpt><trkpt lat="43.34777" lon="11.4002217"><ele>307.0</ele><time>2026-04-03T12:26:40.267Z</time></trkpt><trkpt lat="43.3476317" lon="11.400145"><ele>307.0</ele><time>2026-04-03T12:26:41.266Z</time></trkpt><trkpt lat="43.3475233" lon="11.4000683"><ele>307.0</ele><time>2026-04-03T12:26:42.266Z</time></trkpt><trkpt lat="43.34745" lon="11.3999667"><ele>307.0</ele><time>2026-04-03T12:26:43.266Z</time></trkpt><trkpt lat="43.3474067" lon="11.39984"><ele>307.0</ele><time>2026-04-03T12:26:44.266Z</time></trkpt><trkpt lat="43.3474017" lon="11.399715"><ele>307.0</ele><time>2026-04-03T12:26:45.266Z</time></trkpt><trkpt lat="43.34743" lon="11.3995917"><ele>307.2</ele><time>2026-04-03T12:26:46.266Z</time></trkpt><trkpt lat="43.3474817" lon="11.3994883"><ele>307.4</ele><time>2026-04-03T12:26:47.266Z</time></trkpt><trkpt lat="43.3475583" lon="11.3993933"><ele>307.6</ele><time>2026-04-03T12:26:48.266Z</time></trkpt><trkpt lat="43.3476533" lon="11.3993217"><ele>307.8</ele><time>2026-04-03T12:26:49.267Z</time></trkpt><trkpt lat="43.3477583" lon="11.3992583"><ele>308.0</ele><time>2026-04-03T12:26:50.266Z</time></trkpt><trkpt lat="43.3478717" lon="11.3992033"><ele>308.0</ele><time>2026-04-03T12:26:51.266Z</time></trkpt><trkpt lat="43.3479783" lon="11.3991367"><ele>308.0</ele><time>2026-04-03T12:26:52.266Z</time></trkpt><trkpt lat="43.3480817" lon="11.39908"><ele>308.0</ele><time>2026-04-03T12:26:53.266Z</time></trkpt><trkpt lat="43.348175" lon="11.3990483"><ele>308.0</ele><time>2026-04-03T12:26:54.266Z</time></trkpt><trkpt lat="43.3482633" lon="11.3990267"><ele>308.0</ele><time>2026-04-03T12:26:55.266Z</time></trkpt><trkpt lat="43.3483367" lon="11.3990117"><ele>308.5</ele><time>2026-04-03T12:26:56.267Z</time></trkpt><trkpt lat="43.34844" lon="11.3989533"><ele>309.0</ele><time>2026-04-03T12:26:58.266Z</time></trkpt><trkpt lat="43.348415" lon="11.3988217"><ele>309.5</ele><time>2026-04-03T12:27:00.266Z</time></trkpt><trkpt lat="43.3483433" lon="11.39867"><ele>310.0</ele><time>2026-04-03T12:27:02.266Z</time></trkpt><trkpt lat="43.348265" lon="11.3985533"><ele>309.16666666666663</ele><time>2026-04-03T12:27:04.267Z</time></trkpt><trkpt lat="43.3481467" lon="11.3985017"><ele>308.3333333333333</ele><time>2026-04-03T12:27:06.267Z</time></trkpt><trkpt lat="43.34808" lon="11.3985033"><ele>307.5</ele><time>2026-04-03T12:27:07.266Z</time></trkpt><trkpt lat="43.3480117" lon="11.3985267"><ele>306.6666666666667</ele><time>2026-04-03T12:27:08.266Z</time></trkpt><trkpt lat="43.3479367" lon="11.3985567"><ele>305.83333333333337</ele><time>2026-04-03T12:27:09.266Z</time></trkpt><trkpt lat="43.3478567" lon="11.39859"><ele>305.0</ele><time>2026-04-03T12:27:10.267Z</time></trkpt><trkpt lat="43.34776" lon="11.3986367"><ele>303.8</ele><time>2026-04-03T12:27:11.267Z</time></trkpt><trkpt lat="43.3476633" lon="11.398665"><ele>302.6</ele><time>2026-04-03T12:27:12.266Z</time></trkpt><trkpt lat="43.34757" lon="11.39869"><ele>301.4</ele><time>2026-04-03T12:27:13.266Z</time></trkpt><trkpt lat="43.347475" lon="11.3987033"><ele>300.2</ele><time>2026-04-03T12:27:14.266Z</time></trkpt><trkpt lat="43.3473717" lon="11.3987267"><ele>299.0</ele><time>2026-04-03T12:27:15.267Z</time></trkpt><trkpt lat="43.34727" lon="11.39874"><ele>299.59999999999997</ele><time>2026-04-03T12:27:16.266Z</time></trkpt><trkpt lat="43.3471733" lon="11.39875"><ele>300.2</ele><time>2026-04-03T12:27:17.266Z</time></trkpt><trkpt lat="43.3470717" lon="11.3987717"><ele>300.79999999999995</ele><time>2026-04-03T12:27:18.266Z</time></trkpt><trkpt lat="43.34698" lon="11.3988283"><ele>301.4</ele><time>2026-04-03T12:27:19.267Z</time></trkpt><trkpt lat="43.3468817" lon="11.3988717"><ele>302.0</ele><time>2026-04-03T12:27:20.266Z</time></trkpt><trkpt lat="43.34679" lon="11.3989367"><ele>302.0</ele><time>2026-04-03T12:27:21.267Z</time></trkpt><trkpt lat="43.3467083" lon="11.3990133"><ele>302.0</ele><time>2026-04-03T12:27:22.266Z</time></trkpt><trkpt lat="43.3466283" lon="11.3991217"><ele>302.0</ele><time>2026-04-03T12:27:23.267Z</time></trkpt><trkpt lat="43.3465583" lon="11.3992417"><ele>302.0</ele><time>2026-04-03T12:27:24.266Z</time></trkpt><trkpt lat="43.34649" lon="11.3993733"><ele>302.0</ele><time>2026-04-03T12:27:25.267Z</time></trkpt><trkpt lat="43.346415" lon="11.3995017"><ele>301.25</ele><time>2026-04-03T12:27:26.266Z</time></trkpt><trkpt lat="43.3463333" lon="11.3996333"><ele>300.5</ele><time>2026-04-03T12:27:27.266Z</time></trkpt><trkpt lat="43.3462417" lon="11.399765"><ele>299.75</ele><time>2026-04-03T12:27:28.266Z</time></trkpt><trkpt lat="43.3461667" lon="11.399895"><ele>299.0</ele><time>2026-04-03T12:27:29.266Z</time></trkpt><trkpt lat="43.34608" lon="11.4000317"><ele>299.0</ele><time>2026-04-03T12:27:30.266Z</time></trkpt><trkpt lat="43.3459817" lon="11.4001717"><ele>299.0</ele><time>2026-04-03T12:27:31.266Z</time></trkpt><trkpt lat="43.34589" lon="11.4003017"><ele>299.0</ele><time>2026-04-03T12:27:32.266Z</time></trkpt><trkpt lat="43.345795" lon="11.4004367"><ele>299.0</ele><time>2026-04-03T12:27:33.266Z</time></trkpt><trkpt lat="43.3457133" lon="11.4005667"><ele>299.0</ele><time>2026-04-03T12:27:34.266Z</time></trkpt><trkpt lat="43.345635" lon="11.4006817"><ele>299.0</ele><time>2026-04-03T12:27:35.267Z</time></trkpt><trkpt lat="43.3455717" lon="11.4007967"><ele>299.0</ele><time>2026-04-03T12:27:36.267Z</time></trkpt><trkpt lat="43.3455083" lon="11.4008933"><ele>299.0</ele><time>2026-04-03T12:27:37.266Z</time></trkpt><trkpt lat="43.3454367" lon="11.40098"><ele>299.0</ele><time>2026-04-03T12:27:38.266Z</time></trkpt><trkpt lat="43.3453467" lon="11.4010583"><ele>299.0</ele><time>2026-04-03T12:27:39.266Z</time></trkpt><trkpt lat="43.345265" lon="11.4011267"><ele>299.0</ele><time>2026-04-03T12:27:40.266Z</time></trkpt><trkpt lat="43.3451733" lon="11.40118"><ele>299.0</ele><time>2026-04-03T12:27:41.266Z</time></trkpt><trkpt lat="43.3450783" lon="11.4012167"><ele>299.0</ele><time>2026-04-03T12:27:42.266Z</time></trkpt><trkpt lat="43.3449733" lon="11.401255"><ele>299.0</ele><time>2026-04-03T12:27:43.266Z</time></trkpt><trkpt lat="43.344865" lon="11.4012767"><ele>299.0</ele><time>2026-04-03T12:27:44.267Z</time></trkpt><trkpt lat="43.344745" lon="11.401315"><ele>299.0</ele><time>2026-04-03T12:27:45.266Z</time></trkpt><trkpt lat="43.3446283" lon="11.4013233"><ele>299.0</ele><time>2026-04-03T12:27:46.266Z</time></trkpt><trkpt lat="43.3445067" lon="11.4013417"><ele>299.0</ele><time>2026-04-03T12:27:47.266Z</time></trkpt><trkpt lat="43.3443933" lon="11.4013483"><ele>297.5</ele><time>2026-04-03T12:27:48.266Z</time></trkpt><trkpt lat="43.344275" lon="11.4013567"><ele>296.0</ele><time>2026-04-03T12:27:49.266Z</time></trkpt><trkpt lat="43.3441583" lon="11.401375"><ele>294.5</ele><time>2026-04-03T12:27:50.266Z</time></trkpt><trkpt lat="43.34404" lon="11.401415"><ele>293.0</ele><time>2026-04-03T12:27:51.266Z</time></trkpt><trkpt lat="43.3439183" lon="11.4014667"><ele>292.75</ele><time>2026-04-03T12:27:52.267Z</time></trkpt><trkpt lat="43.3437933" lon="11.4015217"><ele>292.5</ele><time>2026-04-03T12:27:53.267Z</time></trkpt><trkpt lat="43.3436783" lon="11.4015983"><ele>292.25</ele><time>2026-04-03T12:27:54.266Z</time></trkpt><trkpt lat="43.3435683" lon="11.4016617"><ele>292.0</ele><time>2026-04-03T12:27:55.266Z</time></trkpt><trkpt lat="43.3434683" lon="11.4017367"><ele>292.0</ele><time>2026-04-03T12:27:56.267Z</time></trkpt><trkpt lat="43.3433717" lon="11.40182"><ele>292.0</ele><time>2026-04-03T12:27:57.266Z</time></trkpt><trkpt lat="43.343285" lon="11.4019283"><ele>292.0</ele><time>2026-04-03T12:27:58.266Z</time></trkpt><trkpt lat="43.3432283" lon="11.4020333"><ele>292.0</ele><time>2026-04-03T12:27:59.266Z</time></trkpt><trkpt lat="43.3431717" lon="11.402175"><ele>292.0</ele><time>2026-04-03T12:28:00.266Z</time></trkpt><trkpt lat="43.3431367" lon="11.4023167"><ele>291.25</ele><time>2026-04-03T12:28:01.266Z</time></trkpt><trkpt lat="43.3431067" lon="11.4024617"><ele>290.5</ele><time>2026-04-03T12:28:02.266Z</time></trkpt><trkpt lat="43.3430833" lon="11.402635"><ele>289.75</ele><time>2026-04-03T12:28:03.267Z</time></trkpt><trkpt lat="43.3430733" lon="11.4027917"><ele>289.0</ele><time>2026-04-03T12:28:04.267Z</time></trkpt><trkpt lat="43.3430467" lon="11.4029267"><ele>289.0</ele><time>2026-04-03T12:28:05.267Z</time></trkpt><trkpt lat="43.3430017" lon="11.403065"><ele>289.0</ele><time>2026-04-03T12:28:06.267Z</time></trkpt><trkpt lat="43.3429467" lon="11.403185"><ele>289.0</ele><time>2026-04-03T12:28:07.266Z</time></trkpt><trkpt lat="43.3428767" lon="11.403265"><ele>289.0</ele><time>2026-04-03T12:28:08.266Z</time></trkpt><trkpt lat="43.3427883" lon="11.40331"><ele>289.0</ele><time>2026-04-03T12:28:09.266Z</time></trkpt><trkpt lat="43.3426917" lon="11.4033317"><ele>289.0</ele><time>2026-04-03T12:28:10.266Z</time></trkpt><trkpt lat="43.3425883" lon="11.4033583"><ele>289.0</ele><time>2026-04-03T12:28:11.266Z</time></trkpt><trkpt lat="43.34248" lon="11.4033733"><ele>289.0</ele><time>2026-04-03T12:28:12.266Z</time></trkpt><trkpt lat="43.3423817" lon="11.403425"><ele>289.0</ele><time>2026-04-03T12:28:13.267Z</time></trkpt><trkpt lat="43.34228" lon="11.40351"><ele>289.0</ele><time>2026-04-03T12:28:14.266Z</time></trkpt><trkpt lat="43.3421733" lon="11.4036067"><ele>287.75</ele><time>2026-04-03T12:28:15.266Z</time></trkpt><trkpt lat="43.3420667" lon="11.4037167"><ele>286.5</ele><time>2026-04-03T12:28:16.266Z</time></trkpt><trkpt lat="43.3419683" lon="11.4038433"><ele>285.25</ele><time>2026-04-03T12:28:17.267Z</time></trkpt><trkpt lat="43.341865" lon="11.4039533"><ele>284.0</ele><time>2026-04-03T12:28:18.267Z</time></trkpt><trkpt lat="43.3417617" lon="11.40407"><ele>284.0</ele><time>2026-04-03T12:28:19.266Z</time></trkpt><trkpt lat="43.3416533" lon="11.4041917"><ele>284.0</ele><time>2026-04-03T12:28:20.266Z</time></trkpt><trkpt lat="43.34155" lon="11.404305"><ele>284.0</ele><time>2026-04-03T12:28:21.266Z</time></trkpt><trkpt lat="43.3414567" lon="11.4044233"><ele>284.0</ele><time>2026-04-03T12:28:22.267Z</time></trkpt><trkpt lat="43.341365" lon="11.404545"><ele>285.5</ele><time>2026-04-03T12:28:23.267Z</time></trkpt><trkpt lat="43.341285" lon="11.4046833"><ele>287.0</ele><time>2026-04-03T12:28:24.266Z</time></trkpt><trkpt lat="43.3412117" lon="11.4048267"><ele>288.5</ele><time>2026-04-03T12:28:25.266Z</time></trkpt><trkpt lat="43.3411333" lon="11.4049683"><ele>290.0</ele><time>2026-04-03T12:28:26.267Z</time></trkpt><trkpt lat="43.3410517" lon="11.4051"><ele>290.0</ele><time>2026-04-03T12:28:27.267Z</time></trkpt><trkpt lat="43.3409667" lon="11.4052067"><ele>290.0</ele><time>2026-04-03T12:28:28.266Z</time></trkpt><trkpt lat="43.3408767" lon="11.4052983"><ele>290.0</ele><time>2026-04-03T12:28:29.266Z</time></trkpt><trkpt lat="43.34077" lon="11.4053817"><ele>290.0</ele><time>2026-04-03T12:28:30.266Z</time></trkpt><trkpt lat="43.34066" lon="11.40545"><ele>290.0</ele><time>2026-04-03T12:28:31.266Z</time></trkpt><trkpt lat="43.3405283" lon="11.4055183"><ele>290.0</ele><time>2026-04-03T12:28:32.266Z</time></trkpt><trkpt lat="43.3403983" lon="11.40559"><ele>290.0</ele><time>2026-04-03T12:28:33.266Z</time></trkpt><trkpt lat="43.3402733" lon="11.40565"><ele>290.0</ele><time>2026-04-03T12:28:34.267Z</time></trkpt><trkpt lat="43.3401633" lon="11.4057233"><ele>290.0</ele><time>2026-04-03T12:28:35.266Z</time></trkpt><trkpt lat="43.340055" lon="11.405795"><ele>290.0</ele><time>2026-04-03T12:28:36.266Z</time></trkpt><trkpt lat="43.339955" lon="11.4058567"><ele>290.0</ele><time>2026-04-03T12:28:37.266Z</time></trkpt><trkpt lat="43.3398483" lon="11.4059233"><ele>290.0</ele><time>2026-04-03T12:28:38.267Z</time></trkpt><trkpt lat="43.3397567" lon="11.4059967"><ele>289.4</ele><time>2026-04-03T12:28:39.267Z</time></trkpt><trkpt lat="43.3396783" lon="11.4060833"><ele>288.8</ele><time>2026-04-03T12:28:40.266Z</time></trkpt><trkpt lat="43.339615" lon="11.4061583"><ele>288.2</ele><time>2026-04-03T12:28:41.266Z</time></trkpt><trkpt lat="43.33956" lon="11.4062467"><ele>287.6</ele><time>2026-04-03T12:28:42.266Z</time></trkpt><trkpt lat="43.3395083" lon="11.4063533"><ele>287.0</ele><time>2026-04-03T12:28:43.266Z</time></trkpt><trkpt lat="43.3394467" lon="11.4064667"><ele>287.0</ele><time>2026-04-03T12:28:44.267Z</time></trkpt><trkpt lat="43.3393783" lon="11.40659"><ele>287.0</ele><time>2026-04-03T12:28:45.267Z</time></trkpt><trkpt lat="43.3393017" lon="11.4067117"><ele>287.0</ele><time>2026-04-03T12:28:46.267Z</time></trkpt><trkpt lat="43.3392217" lon="11.406825"><ele>287.0</ele><time>2026-04-03T12:28:47.267Z</time></trkpt><trkpt lat="43.3391367" lon="11.4069367"><ele>287.0</ele><time>2026-04-03T12:28:48.266Z</time></trkpt><trkpt lat="43.3390467" lon="11.4070417"><ele>287.0</ele><time>2026-04-03T12:28:49.267Z</time></trkpt><trkpt lat="43.338965" lon="11.4071367"><ele>287.0</ele><time>2026-04-03T12:28:50.267Z</time></trkpt><trkpt lat="43.338885" lon="11.4072233"><ele>287.0</ele><time>2026-04-03T12:28:51.266Z</time></trkpt><trkpt lat="43.3388033" lon="11.4073117"><ele>287.0</ele><time>2026-04-03T12:28:52.266Z</time></trkpt><trkpt lat="43.33872" lon="11.407415"><ele>287.4</ele><time>2026-04-03T12:28:53.267Z</time></trkpt><trkpt lat="43.338645" lon="11.40751"><ele>287.79999999999995</ele><time>2026-04-03T12:28:54.267Z</time></trkpt><trkpt lat="43.3385483" lon="11.407595"><ele>288.2</ele><time>2026-04-03T12:28:55.266Z</time></trkpt><trkpt lat="43.338455" lon="11.4076733"><ele>288.59999999999997</ele><time>2026-04-03T12:28:56.267Z</time></trkpt><trkpt lat="43.338365" lon="11.4077383"><ele>289.0</ele><time>2026-04-03T12:28:57.266Z</time></trkpt><trkpt lat="43.3382733" lon="11.40779"><ele>289.0</ele><time>2026-04-03T12:28:58.266Z</time></trkpt><trkpt lat="43.3381833" lon="11.4078283"><ele>289.0</ele><time>2026-04-03T12:28:59.266Z</time></trkpt><trkpt lat="43.3380983" lon="11.407835"><ele>289.0</ele><time>2026-04-03T12:29:00.266Z</time></trkpt><trkpt lat="43.3380117" lon="11.4078117"><ele>289.0</ele><time>2026-04-03T12:29:01.266Z</time></trkpt><trkpt lat="43.3379333" lon="11.4077583"><ele>289.0</ele><time>2026-04-03T12:29:02.266Z</time></trkpt><trkpt lat="43.3378533" lon="11.4076867"><ele>289.4</ele><time>2026-04-03T12:29:03.266Z</time></trkpt><trkpt lat="43.3377733" lon="11.4075867"><ele>289.79999999999995</ele><time>2026-04-03T12:29:04.266Z</time></trkpt><trkpt lat="43.3376883" lon="11.4074933"><ele>290.20000000000005</ele><time>2026-04-03T12:29:05.266Z</time></trkpt><trkpt lat="43.3376033" lon="11.4073967"><ele>290.6</ele><time>2026-04-03T12:29:06.266Z</time></trkpt><trkpt lat="43.3375033" lon="11.4073017"><ele>291.0</ele><time>2026-04-03T12:29:07.266Z</time></trkpt><trkpt lat="43.3374133" lon="11.4072017"><ele>290.75</ele><time>2026-04-03T12:29:08.266Z</time></trkpt><trkpt lat="43.3373083" lon="11.407105"><ele>290.5</ele><time>2026-04-03T12:29:09.266Z</time></trkpt><trkpt lat="43.337205" lon="11.407025"><ele>290.25</ele><time>2026-04-03T12:29:10.266Z</time></trkpt><trkpt lat="43.3370867" lon="11.4069567"><ele>290.0</ele><time>2026-04-03T12:29:11.266Z</time></trkpt><trkpt lat="43.3369683" lon="11.4068883"><ele>290.4</ele><time>2026-04-03T12:29:12.266Z</time></trkpt><trkpt lat="43.336865" lon="11.4068383"><ele>290.8</ele><time>2026-04-03T12:29:13.267Z</time></trkpt><trkpt lat="43.3367783" lon="11.4067967"><ele>291.2</ele><time>2026-04-03T12:29:14.266Z</time></trkpt><trkpt lat="43.3366829" lon="11.4067558"><ele>291.6</ele><time>2026-04-03T12:29:15.266Z</time></trkpt><trkpt lat="43.3365791" lon="11.4067106"><ele>292.0</ele><time>2026-04-03T12:29:16.266Z</time></trkpt><trkpt lat="43.336471" lon="11.4066745"><ele>293.4</ele><time>2026-04-03T12:29:17.266Z</time></trkpt><trkpt lat="43.3363692" lon="11.4066596"><ele>294.79999999999995</ele><time>2026-04-03T12:29:18.266Z</time></trkpt><trkpt lat="43.3362708" lon="11.4066643"><ele>296.2</ele><time>2026-04-03T12:29:19.267Z</time></trkpt><trkpt lat="43.3361747" lon="11.4066837"><ele>297.59999999999997</ele><time>2026-04-03T12:29:20.266Z</time></trkpt><trkpt lat="43.3360881" lon="11.406719"><ele>299.0</ele><time>2026-04-03T12:29:21.266Z</time></trkpt><trkpt lat="43.3360071" lon="11.4067723"><ele>299.0</ele><time>2026-04-03T12:29:22.266Z</time></trkpt><trkpt lat="43.335933" lon="11.4068405"><ele>299.0</ele><time>2026-04-03T12:29:23.266Z</time></trkpt><trkpt lat="43.3358617" lon="11.4069141"><ele>299.0</ele><time>2026-04-03T12:29:24.266Z</time></trkpt><trkpt lat="43.3357921" lon="11.4070048"><ele>299.0</ele><time>2026-04-03T12:29:25.266Z</time></trkpt><trkpt lat="43.3357175" lon="11.407098"><ele>299.0</ele><time>2026-04-03T12:29:26.266Z</time></trkpt><trkpt lat="43.3356432" lon="11.4071944"><ele>298.59999999999997</ele><time>2026-04-03T12:29:27.266Z</time></trkpt><trkpt lat="43.3355687" lon="11.4072737"><ele>298.2</ele><time>2026-04-03T12:29:28.266Z</time></trkpt><trkpt lat="43.3354965" lon="11.4073338"><ele>297.79999999999995</ele><time>2026-04-03T12:29:29.266Z</time></trkpt><trkpt lat="43.335421" lon="11.4073657"><ele>297.4</ele><time>2026-04-03T12:29:30.266Z</time></trkpt><trkpt lat="43.3353196" lon="11.4073832"><ele>297.0</ele><time>2026-04-03T12:29:31.266Z</time></trkpt><trkpt lat="43.3352239" lon="11.4074009"><ele>297.0</ele><time>2026-04-03T12:29:32.266Z</time></trkpt><trkpt lat="43.3351291" lon="11.4074096"><ele>297.0</ele><time>2026-04-03T12:29:33.267Z</time></trkpt><trkpt lat="43.3350409" lon="11.4074368"><ele>297.0</ele><time>2026-04-03T12:29:34.266Z</time></trkpt><trkpt lat="43.3349705" lon="11.4074765"><ele>297.0</ele><time>2026-04-03T12:29:35.267Z</time></trkpt><trkpt lat="43.334895" lon="11.4075001"><ele>297.0</ele><time>2026-04-03T12:29:36.266Z</time></trkpt><trkpt lat="43.3348118" lon="11.4075144"><ele>297.0</ele><time>2026-04-03T12:29:37.266Z</time></trkpt><trkpt lat="43.334727" lon="11.4075185"><ele>295.8333333333333</ele><time>2026-04-03T12:29:38.267Z</time></trkpt><trkpt lat="43.3346427" lon="11.4075239"><ele>294.6666666666667</ele><time>2026-04-03T12:29:39.266Z</time></trkpt><trkpt lat="43.3345592" lon="11.4075288"><ele>293.5</ele><time>2026-04-03T12:29:40.267Z</time></trkpt><trkpt lat="43.3344829" lon="11.4075229"><ele>292.33333333333337</ele><time>2026-04-03T12:29:41.266Z</time></trkpt><trkpt lat="43.3343776" lon="11.4075075"><ele>291.1666666666667</ele><time>2026-04-03T12:29:43.267Z</time></trkpt><trkpt lat="43.334305" lon="11.4074633"><ele>290.0</ele><time>2026-04-03T12:29:45.266Z</time></trkpt><trkpt lat="43.33426" lon="11.407355"><ele>290.0</ele><time>2026-04-03T12:29:47.266Z</time></trkpt><trkpt lat="43.33424" lon="11.4071967"><ele>290.0</ele><time>2026-04-03T12:29:49.266Z</time></trkpt><trkpt lat="43.3342333" lon="11.4071083"><ele>290.0</ele><time>2026-04-03T12:29:50.266Z</time></trkpt><trkpt lat="43.3342283" lon="11.4070183"><ele>290.0</ele><time>2026-04-03T12:29:51.266Z</time></trkpt><trkpt lat="43.33422" lon="11.4069267"><ele>290.0</ele><time>2026-04-03T12:29:52.266Z</time></trkpt><trkpt lat="43.3342183" lon="11.40684"><ele>290.0</ele><time>2026-04-03T12:29:53.266Z</time></trkpt><trkpt lat="43.33421" lon="11.4067483"><ele>290.0</ele><time>2026-04-03T12:29:54.266Z</time></trkpt><trkpt lat="43.3341967" lon="11.4066483"><ele>289.8</ele><time>2026-04-03T12:29:55.266Z</time></trkpt><trkpt lat="43.334195" lon="11.4065517"><ele>289.6</ele><time>2026-04-03T12:29:56.267Z</time></trkpt><trkpt lat="43.334185" lon="11.406465"><ele>289.4</ele><time>2026-04-03T12:29:57.266Z</time></trkpt><trkpt lat="43.334165" lon="11.4063017"><ele>289.2</ele><time>2026-04-03T12:29:59.266Z</time></trkpt><trkpt lat="43.334145" lon="11.4061333"><ele>289.0</ele><time>2026-04-03T12:30:01.266Z</time></trkpt><trkpt lat="43.3341233" lon="11.40596"><ele>288.5</ele><time>2026-04-03T12:30:03.266Z</time></trkpt><trkpt lat="43.3341233" lon="11.40587"><ele>288.0</ele><time>2026-04-03T12:30:04.266Z</time></trkpt><trkpt lat="43.3341167" lon="11.4057767"><ele>287.5</ele><time>2026-04-03T12:30:05.267Z</time></trkpt><trkpt lat="43.334115" lon="11.4056667"><ele>287.0</ele><time>2026-04-03T12:30:06.266Z</time></trkpt><trkpt lat="43.3341217" lon="11.40555"><ele>286.5</ele><time>2026-04-03T12:30:07.266Z</time></trkpt><trkpt lat="43.3341367" lon="11.4054367"><ele>286.0</ele><time>2026-04-03T12:30:08.266Z</time></trkpt><trkpt lat="43.334145" lon="11.4053267"><ele>285.2</ele><time>2026-04-03T12:30:09.266Z</time></trkpt><trkpt lat="43.334155" lon="11.405215"><ele>284.40000000000003</ele><time>2026-04-03T12:30:10.266Z</time></trkpt><trkpt lat="43.33417" lon="11.4050883"><ele>283.6</ele><time>2026-04-03T12:30:11.266Z</time></trkpt><trkpt lat="43.334185" lon="11.4049583"><ele>282.8</ele><time>2026-04-03T12:30:12.266Z</time></trkpt><trkpt lat="43.3342" lon="11.4048267"><ele>282.0</ele><time>2026-04-03T12:30:13.267Z</time></trkpt><trkpt lat="43.334215" lon="11.404695"><ele>282.0</ele><time>2026-04-03T12:30:14.266Z</time></trkpt><trkpt lat="43.3342283" lon="11.4045733"><ele>282.0</ele><time>2026-04-03T12:30:15.266Z</time></trkpt><trkpt lat="43.33424" lon="11.404465"><ele>282.0</ele><time>2026-04-03T12:30:16.267Z</time></trkpt><trkpt lat="43.33424" lon="11.4043533"><ele>282.0</ele><time>2026-04-03T12:30:17.266Z</time></trkpt><trkpt lat="43.334245" lon="11.4042517"><ele>282.0</ele><time>2026-04-03T12:30:18.266Z</time></trkpt><trkpt lat="43.334205" lon="11.4040933"><ele>282.0</ele><time>2026-04-03T12:30:20.266Z</time></trkpt><trkpt lat="43.33409" lon="11.4040217"><ele>282.0</ele><time>2026-04-03T12:30:22.266Z</time></trkpt><trkpt lat="43.334015" lon="11.4040383"><ele>282.0</ele><time>2026-04-03T12:30:23.267Z</time></trkpt><trkpt lat="43.33395" lon="11.40407"><ele>282.0</ele><time>2026-04-03T12:30:24.266Z</time></trkpt><trkpt lat="43.3338883" lon="11.40412"><ele>282.0</ele><time>2026-04-03T12:30:25.266Z</time></trkpt><trkpt lat="43.3338117" lon="11.4041517"><ele>282.0</ele><time>2026-04-03T12:30:26.267Z</time></trkpt><trkpt lat="43.333735" lon="11.4041817"><ele>282.0</ele><time>2026-04-03T12:30:27.266Z</time></trkpt><trkpt lat="43.3336667" lon="11.4042217"><ele>281.6666666666667</ele><time>2026-04-03T12:30:28.266Z</time></trkpt><trkpt lat="43.333595" lon="11.404265"><ele>281.3333333333333</ele><time>2026-04-03T12:30:29.266Z</time></trkpt><trkpt lat="43.3335167" lon="11.4043067"><ele>281.0</ele><time>2026-04-03T12:30:30.266Z</time></trkpt><trkpt lat="43.3334333" lon="11.4043417"><ele>280.66666666666663</ele><time>2026-04-03T12:30:31.266Z</time></trkpt><trkpt lat="43.3333533" lon="11.404385"><ele>280.3333333333333</ele><time>2026-04-03T12:30:32.267Z</time></trkpt><trkpt lat="43.3332717" lon="11.4044117"><ele>280.0</ele><time>2026-04-03T12:30:33.266Z</time></trkpt><trkpt lat="43.33319" lon="11.404445"><ele>280.0</ele><time>2026-04-03T12:30:34.266Z</time></trkpt><trkpt lat="43.333105" lon="11.4044783"><ele>280.0</ele><time>2026-04-03T12:30:35.267Z</time></trkpt><trkpt lat="43.33302" lon="11.4045217"><ele>280.0</ele><time>2026-04-03T12:30:36.266Z</time></trkpt><trkpt lat="43.332935" lon="11.4045817"><ele>280.0</ele><time>2026-04-03T12:30:37.266Z</time></trkpt><trkpt lat="43.33285" lon="11.40463"><ele>280.0</ele><time>2026-04-03T12:30:38.267Z</time></trkpt><trkpt lat="43.3327567" lon="11.4046783"><ele>279.4</ele><time>2026-04-03T12:30:39.267Z</time></trkpt><trkpt lat="43.3326717" lon="11.4047433"><ele>278.8</ele><time>2026-04-03T12:30:40.266Z</time></trkpt><trkpt lat="43.3325867" lon="11.4048"><ele>278.2</ele><time>2026-04-03T12:30:41.266Z</time></trkpt><trkpt lat="43.3325" lon="11.4048317"><ele>277.6</ele><time>2026-04-03T12:30:42.266Z</time></trkpt><trkpt lat="43.3324117" lon="11.404885"><ele>277.0</ele><time>2026-04-03T12:30:43.266Z</time></trkpt><trkpt lat="43.3323133" lon="11.4049367"><ele>277.25</ele><time>2026-04-03T12:30:44.267Z</time></trkpt><trkpt lat="43.332215" lon="11.4049967"><ele>277.5</ele><time>2026-04-03T12:30:45.266Z</time></trkpt><trkpt lat="43.3321117" lon="11.405045"><ele>277.75</ele><time>2026-04-03T12:30:46.266Z</time></trkpt><trkpt lat="43.3320033" lon="11.4050933"><ele>278.0</ele><time>2026-04-03T12:30:47.266Z</time></trkpt><trkpt lat="43.33189" lon="11.4051483"><ele>278.0</ele><time>2026-04-03T12:30:48.266Z</time></trkpt><trkpt lat="43.3317717" lon="11.4051967"><ele>278.0</ele><time>2026-04-03T12:30:49.266Z</time></trkpt><trkpt lat="43.3316367" lon="11.405235"><ele>278.0</ele><time>2026-04-03T12:30:50.266Z</time></trkpt><trkpt lat="43.3315133" lon="11.4052633"><ele>278.0</ele><time>2026-04-03T12:30:51.266Z</time></trkpt><trkpt lat="43.3313933" lon="11.4052767"><ele>276.5</ele><time>2026-04-03T12:30:52.266Z</time></trkpt><trkpt lat="43.3312683" lon="11.4053183"><ele>275.0</ele><time>2026-04-03T12:30:53.266Z</time></trkpt><trkpt lat="43.331145" lon="11.4053583"><ele>273.5</ele><time>2026-04-03T12:30:54.267Z</time></trkpt><trkpt lat="43.3310217" lon="11.4054033"><ele>272.0</ele><time>2026-04-03T12:30:55.267Z</time></trkpt><trkpt lat="43.330905" lon="11.405425"><ele>272.0</ele><time>2026-04-03T12:30:56.266Z</time></trkpt><trkpt lat="43.3307917" lon="11.4054533"><ele>272.0</ele><time>2026-04-03T12:30:57.266Z</time></trkpt><trkpt lat="43.330695" lon="11.4054683"><ele>272.0</ele><time>2026-04-03T12:30:58.266Z</time></trkpt><trkpt lat="43.3306033" lon="11.4054983"><ele>272.0</ele><time>2026-04-03T12:30:59.266Z</time></trkpt><trkpt lat="43.3305083" lon="11.40553"><ele>272.0</ele><time>2026-04-03T12:31:00.266Z</time></trkpt><trkpt lat="43.3304117" lon="11.405565"><ele>270.4</ele><time>2026-04-03T12:31:01.266Z</time></trkpt><trkpt lat="43.3303117" lon="11.4056017"><ele>268.79999999999995</ele><time>2026-04-03T12:31:02.266Z</time></trkpt><trkpt lat="43.33022" lon="11.4056567"><ele>267.2</ele><time>2026-04-03T12:31:03.266Z</time></trkpt><trkpt lat="43.330125" lon="11.40571"><ele>265.59999999999997</ele><time>2026-04-03T12:31:04.266Z</time></trkpt><trkpt lat="43.3300383" lon="11.40577"><ele>264.0</ele><time>2026-04-03T12:31:05.266Z</time></trkpt><trkpt lat="43.3299583" lon="11.4058467"><ele>264.0</ele><time>2026-04-03T12:31:06.266Z</time></trkpt><trkpt lat="43.3298717" lon="11.40592"><ele>264.0</ele><time>2026-04-03T12:31:07.265Z</time></trkpt><trkpt lat="43.329775" lon="11.4059983"><ele>264.0</ele><time>2026-04-03T12:31:08.265Z</time></trkpt><trkpt lat="43.32968" lon="11.4060717"><ele>264.0</ele><time>2026-04-03T12:31:09.266Z</time></trkpt><trkpt lat="43.3296017" lon="11.40614"><ele>264.0</ele><time>2026-04-03T12:31:10.266Z</time></trkpt><trkpt lat="43.32952" lon="11.4062117"><ele>263.1666666666667</ele><time>2026-04-03T12:31:11.265Z</time></trkpt><trkpt lat="43.3294517" lon="11.40629"><ele>262.3333333333333</ele><time>2026-04-03T12:31:12.265Z</time></trkpt><trkpt lat="43.3293817" lon="11.4063567"><ele>261.5</ele><time>2026-04-03T12:31:13.265Z</time></trkpt><trkpt lat="43.3293133" lon="11.4064317"><ele>260.66666666666663</ele><time>2026-04-03T12:31:14.265Z</time></trkpt><trkpt lat="43.3292617" lon="11.40651"><ele>259.8333333333333</ele><time>2026-04-03T12:31:15.265Z</time></trkpt><trkpt lat="43.3292167" lon="11.40658"><ele>259.0</ele><time>2026-04-03T12:31:16.265Z</time></trkpt><trkpt lat="43.329125" lon="11.4066917"><ele>258.8333333333333</ele><time>2026-04-03T12:31:18.265Z</time></trkpt><trkpt lat="43.329075" lon="11.406745"><ele>258.66666666666663</ele><time>2026-04-03T12:31:19.265Z</time></trkpt><trkpt lat="43.3290233" lon="11.4068017"><ele>258.5</ele><time>2026-04-03T12:31:20.265Z</time></trkpt><trkpt lat="43.3289717" lon="11.4068583"><ele>258.3333333333333</ele><time>2026-04-03T12:31:21.265Z</time></trkpt><trkpt lat="43.3288783" lon="11.4069633"><ele>258.1666666666667</ele><time>2026-04-03T12:31:23.265Z</time></trkpt><trkpt lat="43.328805" lon="11.4070467"><ele>258.0</ele><time>2026-04-03T12:31:25.265Z</time></trkpt><trkpt lat="43.3287467" lon="11.40709"><ele>257.8</ele><time>2026-04-03T12:31:29.265Z</time></trkpt><trkpt lat="43.3286567" lon="11.4070233"><ele>257.6</ele><time>2026-04-03T12:31:49.265Z</time></trkpt><trkpt lat="43.32857" lon="11.4068867"><ele>257.4</ele><time>2026-04-03T12:31:51.265Z</time></trkpt><trkpt lat="43.3285133" lon="11.4067883"><ele>257.2</ele><time>2026-04-03T12:31:52.266Z</time></trkpt><trkpt lat="43.32845" lon="11.4066933"><ele>257.0</ele><time>2026-04-03T12:31:53.265Z</time></trkpt><trkpt lat="43.3283917" lon="11.4066067"><ele>257.0</ele><time>2026-04-03T12:31:54.265Z</time></trkpt><trkpt lat="43.328335" lon="11.4065267"><ele>257.0</ele><time>2026-04-03T12:31:55.265Z</time></trkpt><trkpt lat="43.3282783" lon="11.4064483"><ele>257.0</ele><time>2026-04-03T12:31:56.265Z</time></trkpt><trkpt lat="43.3282267" lon="11.40638"><ele>257.0</ele><time>2026-04-03T12:31:57.265Z</time></trkpt><trkpt lat="43.3281533" lon="11.4062667"><ele>257.0</ele><time>2026-04-03T12:31:59.265Z</time></trkpt><trkpt lat="43.328095" lon="11.4061867"><ele>257.0</ele><time>2026-04-03T12:32:01.265Z</time></trkpt><trkpt lat="43.3280067" lon="11.4061433"><ele>254.83333333333334</ele><time>2026-04-03T13:13:50.267Z</time></trkpt><trkpt lat="43.32794" lon="11.40616"><ele>252.66666666666669</ele><time>2026-04-03T13:13:55.268Z</time></trkpt><trkpt lat="43.3278683" lon="11.40617"><ele>250.5</ele><time>2026-04-03T13:14:00.267Z</time></trkpt><trkpt lat="43.3277917" lon="11.4061833"><ele>248.33333333333331</ele><time>2026-04-03T13:35:40.686Z</time></trkpt><trkpt lat="43.327815" lon="11.4060967"><ele>246.16666666666666</ele><time>2026-04-03T13:35:47.27Z</time></trkpt><trkpt lat="43.3278917" lon="11.406105"><ele>244.0</ele><time>2026-04-03T13:35:49.27Z</time></trkpt><trkpt lat="43.3279817" lon="11.406145"><ele>247.25</ele><time>2026-04-03T13:35:51.27Z</time></trkpt><trkpt lat="43.3280617" lon="11.40619"><ele>250.5</ele><time>2026-04-03T13:35:53.27Z</time></trkpt><trkpt lat="43.3281633" lon="11.4062917"><ele>253.75</ele><time>2026-04-03T13:35:55.27Z</time></trkpt><trkpt lat="43.328255" lon="11.4064017"><ele>257.0</ele><time>2026-04-03T13:35:56.271Z</time></trkpt><trkpt lat="43.32835" lon="11.406535"><ele>257.0</ele><time>2026-04-03T13:35:57.27Z</time></trkpt><trkpt lat="43.3284483" lon="11.40667"><ele>257.0</ele><time>2026-04-03T13:35:58.271Z</time></trkpt><trkpt lat="43.3285333" lon="11.4068"><ele>257.0</ele><time>2026-04-03T13:35:59.27Z</time></trkpt><trkpt lat="43.3286067" lon="11.4069067"><ele>257.0</ele><time>2026-04-03T13:36:00.27Z</time></trkpt><trkpt lat="43.3286667" lon="11.4069967"><ele>257.0</ele><time>2026-04-03T13:36:01.271Z</time></trkpt><trkpt lat="43.328715" lon="11.4070633"><ele>257.0</ele><time>2026-04-03T13:36:02.27Z</time></trkpt><trkpt lat="43.3287333" lon="11.4071767"><ele>257.0</ele><time>2026-04-03T13:36:13.27Z</time></trkpt><trkpt lat="43.3286667" lon="11.4072417"><ele>257.0</ele><time>2026-04-03T13:38:23.27Z</time></trkpt><trkpt lat="43.3286183" lon="11.4073017"><ele>257.0</ele><time>2026-04-03T13:38:24.27Z</time></trkpt><trkpt lat="43.32855" lon="11.4073867"><ele>257.0</ele><time>2026-04-03T13:38:25.27Z</time></trkpt><trkpt lat="43.3284633" lon="11.4074883"><ele>256.0</ele><time>2026-04-03T13:38:26.27Z</time></trkpt><trkpt lat="43.3283667" lon="11.407585"><ele>255.0</ele><time>2026-04-03T13:38:27.271Z</time></trkpt><trkpt lat="43.3282717" lon="11.4076967"><ele>254.0</ele><time>2026-04-03T13:38:28.271Z</time></trkpt><trkpt lat="43.3281717" lon="11.40781"><ele>253.0</ele><time>2026-04-03T13:38:29.271Z</time></trkpt><trkpt lat="43.3280817" lon="11.4079233"><ele>253.0</ele><time>2026-04-03T13:38:30.27Z</time></trkpt><trkpt lat="43.3279883" lon="11.4080333"><ele>253.0</ele><time>2026-04-03T13:38:31.27Z</time></trkpt><trkpt lat="43.3279083" lon="11.408135"><ele>253.0</ele><time>2026-04-03T13:38:32.27Z</time></trkpt><trkpt lat="43.32782" lon="11.408225"><ele>253.0</ele><time>2026-04-03T13:38:33.27Z</time></trkpt><trkpt lat="43.3277367" lon="11.4083283"><ele>253.0</ele><time>2026-04-03T13:38:34.27Z</time></trkpt><trkpt lat="43.3276383" lon="11.408435"><ele>253.0</ele><time>2026-04-03T13:38:35.27Z</time></trkpt><trkpt lat="43.3275417" lon="11.4085317"><ele>253.0</ele><time>2026-04-03T13:38:36.271Z</time></trkpt><trkpt lat="43.3274583" lon="11.4086267"><ele>253.0</ele><time>2026-04-03T13:38:37.27Z</time></trkpt><trkpt lat="43.3273783" lon="11.4087217"><ele>253.0</ele><time>2026-04-03T13:38:38.27Z</time></trkpt><trkpt lat="43.327295" lon="11.4088067"><ele>253.0</ele><time>2026-04-03T13:38:39.27Z</time></trkpt><trkpt lat="43.3272117" lon="11.408905"><ele>253.0</ele><time>2026-04-03T13:38:40.27Z</time></trkpt><trkpt lat="43.3271233" lon="11.4090083"><ele>253.0</ele><time>2026-04-03T13:38:41.271Z</time></trkpt><trkpt lat="43.3270467" lon="11.4091083"><ele>253.0</ele><time>2026-04-03T13:38:42.27Z</time></trkpt><trkpt lat="43.32698" lon="11.409225"><ele>251.60000000000002</ele><time>2026-04-03T13:38:43.27Z</time></trkpt><trkpt lat="43.3269217" lon="11.4093367"><ele>250.20000000000002</ele><time>2026-04-03T13:38:44.27Z</time></trkpt><trkpt lat="43.3268567" lon="11.4094517"><ele>248.8</ele><time>2026-04-03T13:38:45.27Z</time></trkpt><trkpt lat="43.326785" lon="11.409545"><ele>247.4</ele><time>2026-04-03T13:38:46.27Z</time></trkpt><trkpt lat="43.3267133" lon="11.40964"><ele>246.0</ele><time>2026-04-03T13:38:47.27Z</time></trkpt><trkpt lat="43.3266233" lon="11.4097333"><ele>245.4</ele><time>2026-04-03T13:38:48.271Z</time></trkpt><trkpt lat="43.3265317" lon="11.4098217"><ele>244.8</ele><time>2026-04-03T13:38:49.27Z</time></trkpt><trkpt lat="43.3264467" lon="11.409905"><ele>244.20000000000002</ele><time>2026-04-03T13:38:50.271Z</time></trkpt><trkpt lat="43.3263717" lon="11.4099883"><ele>243.60000000000002</ele><time>2026-04-03T13:38:51.27Z</time></trkpt><trkpt lat="43.3263017" lon="11.4100633"><ele>243.0</ele><time>2026-04-03T13:38:52.27Z</time></trkpt><trkpt lat="43.326245" lon="11.4101333"><ele>243.0</ele><time>2026-04-03T13:38:53.271Z</time></trkpt><trkpt lat="43.3261867" lon="11.410215"><ele>243.0</ele><time>2026-04-03T13:38:54.271Z</time></trkpt><trkpt lat="43.3261383" lon="11.4102867"><ele>243.0</ele><time>2026-04-03T13:38:55.271Z</time></trkpt><trkpt lat="43.3260433" lon="11.4103533"><ele>243.0</ele><time>2026-04-03T13:38:57.271Z</time></trkpt><trkpt lat="43.325985" lon="11.410305"><ele>243.0</ele><time>2026-04-03T13:38:58.27Z</time></trkpt><trkpt lat="43.3259267" lon="11.41022"><ele>243.0</ele><time>2026-04-03T13:38:59.27Z</time></trkpt><trkpt lat="43.3258717" lon="11.4101017"><ele>243.0</ele><time>2026-04-03T13:39:00.271Z</time></trkpt><trkpt lat="43.3258433" lon="11.409965"><ele>243.0</ele><time>2026-04-03T13:39:01.27Z</time></trkpt><trkpt lat="43.32584" lon="11.409805"><ele>243.0</ele><time>2026-04-03T13:39:02.27Z</time></trkpt><trkpt lat="43.3258367" lon="11.4096567"><ele>243.0</ele><time>2026-04-03T13:39:03.27Z</time></trkpt><trkpt lat="43.325845" lon="11.4095233"><ele>243.0</ele><time>2026-04-03T13:39:04.27Z</time></trkpt><trkpt lat="43.3258583" lon="11.40939"><ele>241.4</ele><time>2026-04-03T13:39:05.27Z</time></trkpt><trkpt lat="43.3258633" lon="11.4092583"><ele>239.8</ele><time>2026-04-03T13:39:06.27Z</time></trkpt><trkpt lat="43.3258617" lon="11.4091217"><ele>238.2</ele><time>2026-04-03T13:39:07.27Z</time></trkpt><trkpt lat="43.3258617" lon="11.40898"><ele>236.6</ele><time>2026-04-03T13:39:08.27Z</time></trkpt><trkpt lat="43.3258483" lon="11.4088467"><ele>235.0</ele><time>2026-04-03T13:39:09.27Z</time></trkpt><trkpt lat="43.3258317" lon="11.4087167"><ele>234.2</ele><time>2026-04-03T13:39:10.27Z</time></trkpt><trkpt lat="43.3258167" lon="11.4085867"><ele>233.4</ele><time>2026-04-03T13:39:11.27Z</time></trkpt><trkpt lat="43.3258" lon="11.40844"><ele>232.60000000000002</ele><time>2026-04-03T13:39:12.27Z</time></trkpt><trkpt lat="43.3257817" lon="11.408295"><ele>231.8</ele><time>2026-04-03T13:39:13.271Z</time></trkpt><trkpt lat="43.3257667" lon="11.4081633"><ele>231.0</ele><time>2026-04-03T13:39:14.27Z</time></trkpt><trkpt lat="43.3257583" lon="11.40803"><ele>230.20000000000002</ele><time>2026-04-03T13:39:15.27Z</time></trkpt><trkpt lat="43.3257533" lon="11.4079"><ele>229.40000000000003</ele><time>2026-04-03T13:39:16.27Z</time></trkpt><trkpt lat="43.3257417" lon="11.4077683"><ele>228.6</ele><time>2026-04-03T13:39:17.27Z</time></trkpt><trkpt lat="43.325725" lon="11.4076317"><ele>227.8</ele><time>2026-04-03T13:39:18.271Z</time></trkpt><trkpt lat="43.3257083" lon="11.4074917"><ele>227.0</ele><time>2026-04-03T13:39:19.27Z</time></trkpt><trkpt lat="43.3256933" lon="11.407345"><ele>227.0</ele><time>2026-04-03T13:39:20.271Z</time></trkpt><trkpt lat="43.3256767" lon="11.40719"><ele>227.0</ele><time>2026-04-03T13:39:21.27Z</time></trkpt><trkpt lat="43.3256567" lon="11.407035"><ele>227.0</ele><time>2026-04-03T13:39:22.27Z</time></trkpt><trkpt lat="43.3256283" lon="11.4068833"><ele>227.0</ele><time>2026-04-03T13:39:23.27Z</time></trkpt><trkpt lat="43.3255867" lon="11.4067367"><ele>226.0</ele><time>2026-04-03T13:39:24.27Z</time></trkpt><trkpt lat="43.32553" lon="11.4065833"><ele>225.0</ele><time>2026-04-03T13:39:25.27Z</time></trkpt><trkpt lat="43.3254583" lon="11.4064217"><ele>224.0</ele><time>2026-04-03T13:39:26.27Z</time></trkpt><trkpt lat="43.3253817" lon="11.40626"><ele>223.0</ele><time>2026-04-03T13:39:27.27Z</time></trkpt><trkpt lat="43.3253" lon="11.40611"><ele>221.0</ele><time>2026-04-03T13:39:28.27Z</time></trkpt><trkpt lat="43.3252217" lon="11.4059333"><ele>219.0</ele><time>2026-04-03T13:39:29.271Z</time></trkpt><trkpt lat="43.3251733" lon="11.4057317"><ele>217.0</ele><time>2026-04-03T13:39:30.271Z</time></trkpt><trkpt lat="43.3251133" lon="11.4055217"><ele>216.33333333333331</ele><time>2026-04-03T13:39:31.27Z</time></trkpt><trkpt lat="43.3250633" lon="11.40531"><ele>215.66666666666669</ele><time>2026-04-03T13:39:32.27Z</time></trkpt><trkpt lat="43.3250217" lon="11.405095"><ele>215.0</ele><time>2026-04-03T13:39:33.27Z</time></trkpt><trkpt lat="43.324995" lon="11.4048733"><ele>214.66666666666669</ele><time>2026-04-03T13:39:34.27Z</time></trkpt><trkpt lat="43.3249767" lon="11.404645"><ele>214.33333333333331</ele><time>2026-04-03T13:39:35.27Z</time></trkpt><trkpt lat="43.32497" lon="11.404425"><ele>214.0</ele><time>2026-04-03T13:39:36.271Z</time></trkpt><trkpt lat="43.32497" lon="11.4042183"><ele>214.0</ele><time>2026-04-03T13:39:37.271Z</time></trkpt><trkpt lat="43.3249683" lon="11.4040183"><ele>214.0</ele><time>2026-04-03T13:39:38.27Z</time></trkpt><trkpt lat="43.3249533" lon="11.4038167"><ele>214.0</ele><time>2026-04-03T13:39:39.27Z</time></trkpt><trkpt lat="43.3249633" lon="11.4036117"><ele>214.0</ele><time>2026-04-03T13:39:40.271Z</time></trkpt><trkpt lat="43.324985" lon="11.4034083"><ele>213.33333333333331</ele><time>2026-04-03T13:39:41.27Z</time></trkpt><trkpt lat="43.3250083" lon="11.40321"><ele>212.66666666666669</ele><time>2026-04-03T13:39:42.27Z</time></trkpt><trkpt lat="43.32504" lon="11.403005"><ele>212.0</ele><time>2026-04-03T13:39:43.27Z</time></trkpt><trkpt lat="43.3250733" lon="11.4027917"><ele>213.33333333333334</ele><time>2026-04-03T13:39:44.27Z</time></trkpt><trkpt lat="43.325095" lon="11.4025667"><ele>214.66666666666669</ele><time>2026-04-03T13:39:45.27Z</time></trkpt><trkpt lat="43.3251167" lon="11.402365"><ele>216.0</ele><time>2026-04-03T13:39:46.27Z</time></trkpt><trkpt lat="43.3251233" lon="11.4021667"><ele>218.5</ele><time>2026-04-03T13:39:47.27Z</time></trkpt><trkpt lat="43.3251333" lon="11.4019717"><ele>221.0</ele><time>2026-04-03T13:39:48.27Z</time></trkpt><trkpt lat="43.32514" lon="11.4017633"><ele>223.5</ele><time>2026-04-03T13:39:49.27Z</time></trkpt><trkpt lat="43.3251433" lon="11.4015733"><ele>226.0</ele><time>2026-04-03T13:39:50.27Z</time></trkpt><trkpt lat="43.3251317" lon="11.4013833"><ele>227.25</ele><time>2026-04-03T13:39:51.271Z</time></trkpt><trkpt lat="43.32511" lon="11.4011817"><ele>228.5</ele><time>2026-04-03T13:39:52.27Z</time></trkpt><trkpt lat="43.3251117" lon="11.40099"><ele>229.75</ele><time>2026-04-03T13:39:53.27Z</time></trkpt><trkpt lat="43.3251167" lon="11.40082"><ele>231.0</ele><time>2026-04-03T13:39:54.27Z</time></trkpt><trkpt lat="43.3251333" lon="11.400645"><ele>232.25</ele><time>2026-04-03T13:39:55.27Z</time></trkpt><trkpt lat="43.325155" lon="11.4004683"><ele>233.5</ele><time>2026-04-03T13:39:56.27Z</time></trkpt><trkpt lat="43.325175" lon="11.400275"><ele>234.75</ele><time>2026-04-03T13:39:57.27Z</time></trkpt><trkpt lat="43.3251817" lon="11.400095"><ele>236.0</ele><time>2026-04-03T13:39:58.27Z</time></trkpt><trkpt lat="43.3251933" lon="11.399905"><ele>236.0</ele><time>2026-04-03T13:39:59.271Z</time></trkpt><trkpt lat="43.3251917" lon="11.3997133"><ele>236.0</ele><time>2026-04-03T13:40:00.27Z</time></trkpt><trkpt lat="43.3251767" lon="11.39952"><ele>236.0</ele><time>2026-04-03T13:40:01.27Z</time></trkpt><trkpt lat="43.325165" lon="11.399315"><ele>236.0</ele><time>2026-04-03T13:40:02.27Z</time></trkpt><trkpt lat="43.3251433" lon="11.399115"><ele>237.25</ele><time>2026-04-03T13:40:03.27Z</time></trkpt><trkpt lat="43.32513" lon="11.398915"><ele>238.5</ele><time>2026-04-03T13:40:04.27Z</time></trkpt><trkpt lat="43.3251233" lon="11.3987283"><ele>239.75</ele><time>2026-04-03T13:40:05.27Z</time></trkpt><trkpt lat="43.325115" lon="11.3985483"><ele>241.0</ele><time>2026-04-03T13:40:06.27Z</time></trkpt><trkpt lat="43.3251083" lon="11.3983667"><ele>242.5</ele><time>2026-04-03T13:40:07.27Z</time></trkpt><trkpt lat="43.325105" lon="11.39818"><ele>244.0</ele><time>2026-04-03T13:40:08.27Z</time></trkpt><trkpt lat="43.3251" lon="11.3979867"><ele>245.5</ele><time>2026-04-03T13:40:09.271Z</time></trkpt><trkpt lat="43.3251167" lon="11.3978067"><ele>247.0</ele><time>2026-04-03T13:40:10.271Z</time></trkpt><trkpt lat="43.3251583" lon="11.3976317"><ele>247.0</ele><time>2026-04-03T13:40:11.27Z</time></trkpt><trkpt lat="43.3252183" lon="11.3974717"><ele>247.0</ele><time>2026-04-03T13:40:12.27Z</time></trkpt><trkpt lat="43.3252767" lon="11.3973183"><ele>247.0</ele><time>2026-04-03T13:40:13.27Z</time></trkpt><trkpt lat="43.3253317" lon="11.397165"><ele>247.0</ele><time>2026-04-03T13:40:14.27Z</time></trkpt><trkpt lat="43.3253867" lon="11.3970017"><ele>247.0</ele><time>2026-04-03T13:40:15.27Z</time></trkpt><trkpt lat="43.3254383" lon="11.3968267"><ele>247.0</ele><time>2026-04-03T13:40:16.27Z</time></trkpt><trkpt lat="43.325495" lon="11.3966367"><ele>247.0</ele><time>2026-04-03T13:40:17.27Z</time></trkpt><trkpt lat="43.32555" lon="11.3964317"><ele>247.0</ele><time>2026-04-03T13:40:18.27Z</time></trkpt><trkpt lat="43.3256017" lon="11.396245"><ele>247.75</ele><time>2026-04-03T13:40:19.27Z</time></trkpt><trkpt lat="43.3256417" lon="11.396055"><ele>248.5</ele><time>2026-04-03T13:40:20.27Z</time></trkpt><trkpt lat="43.3256783" lon="11.39588"><ele>249.25</ele><time>2026-04-03T13:40:21.271Z</time></trkpt><trkpt lat="43.3257033" lon="11.3956967"><ele>250.0</ele><time>2026-04-03T13:40:22.27Z</time></trkpt><trkpt lat="43.325715" lon="11.395495"><ele>250.5</ele><time>2026-04-03T13:40:23.271Z</time></trkpt><trkpt lat="43.3257167" lon="11.3953067"><ele>251.0</ele><time>2026-04-03T13:40:24.27Z</time></trkpt><trkpt lat="43.3257117" lon="11.395105"><ele>251.5</ele><time>2026-04-03T13:40:25.27Z</time></trkpt><trkpt lat="43.3256967" lon="11.3949117"><ele>252.0</ele><time>2026-04-03T13:40:26.27Z</time></trkpt><trkpt lat="43.325695" lon="11.3947033"><ele>252.75</ele><time>2026-04-03T13:40:27.27Z</time></trkpt><trkpt lat="43.325665" lon="11.394505"><ele>253.5</ele><time>2026-04-03T13:40:28.27Z</time></trkpt><trkpt lat="43.3256317" lon="11.3943217"><ele>254.25</ele><time>2026-04-03T13:40:29.27Z</time></trkpt><trkpt lat="43.3255867" lon="11.3941383"><ele>255.0</ele><time>2026-04-03T13:40:30.27Z</time></trkpt><trkpt lat="43.32554" lon="11.3939517"><ele>256.25</ele><time>2026-04-03T13:40:31.27Z</time></trkpt><trkpt lat="43.325485" lon="11.3937867"><ele>257.5</ele><time>2026-04-03T13:40:32.27Z</time></trkpt><trkpt lat="43.3254333" lon="11.393615"><ele>258.75</ele><time>2026-04-03T13:40:33.271Z</time></trkpt><trkpt lat="43.3253817" lon="11.3934317"><ele>260.0</ele><time>2026-04-03T13:40:34.27Z</time></trkpt><trkpt lat="43.325325" lon="11.3932583"><ele>260.0</ele><time>2026-04-03T13:40:35.27Z</time></trkpt><trkpt lat="43.3252717" lon="11.393095"><ele>260.0</ele><time>2026-04-03T13:40:36.271Z</time></trkpt><trkpt lat="43.3252317" lon="11.3929367"><ele>260.0</ele><time>2026-04-03T13:40:37.27Z</time></trkpt><trkpt lat="43.325185" lon="11.3927917"><ele>260.0</ele><time>2026-04-03T13:40:38.27Z</time></trkpt><trkpt lat="43.32514" lon="11.39267"><ele>260.6666666666667</ele><time>2026-04-03T13:40:39.27Z</time></trkpt><trkpt lat="43.325095" lon="11.3925767"><ele>261.33333333333337</ele><time>2026-04-03T13:40:40.271Z</time></trkpt><trkpt lat="43.325035" lon="11.3925083"><ele>262.0</ele><time>2026-04-03T13:40:41.27Z</time></trkpt><trkpt lat="43.32497" lon="11.39249"><ele>262.6666666666667</ele><time>2026-04-03T13:40:42.27Z</time></trkpt><trkpt lat="43.3248733" lon="11.392495"><ele>263.3333333333333</ele><time>2026-04-03T13:40:43.271Z</time></trkpt><trkpt lat="43.32477" lon="11.3925183"><ele>264.0</ele><time>2026-04-03T13:40:44.27Z</time></trkpt><trkpt lat="43.3246617" lon="11.3925467"><ele>264.2</ele><time>2026-04-03T13:40:45.27Z</time></trkpt><trkpt lat="43.3245633" lon="11.3925533"><ele>264.4</ele><time>2026-04-03T13:40:46.27Z</time></trkpt><trkpt lat="43.3244617" lon="11.39253"><ele>264.6</ele><time>2026-04-03T13:40:47.271Z</time></trkpt><trkpt lat="43.32436" lon="11.39249"><ele>264.8</ele><time>2026-04-03T13:40:48.27Z</time></trkpt><trkpt lat="43.3242517" lon="11.39244"><ele>265.0</ele><time>2026-04-03T13:40:49.27Z</time></trkpt><trkpt lat="43.3241617" lon="11.3924067"><ele>265.0</ele><time>2026-04-03T13:40:50.27Z</time></trkpt><trkpt lat="43.324065" lon="11.3923817"><ele>265.0</ele><time>2026-04-03T13:40:51.27Z</time></trkpt><trkpt lat="43.3239733" lon="11.3923467"><ele>265.0</ele><time>2026-04-03T13:40:52.271Z</time></trkpt><trkpt lat="43.3238767" lon="11.392315"><ele>265.0</ele><time>2026-04-03T13:40:53.269Z</time></trkpt><trkpt lat="43.3237683" lon="11.3922867"><ele>265.0</ele><time>2026-04-03T13:40:54.27Z</time></trkpt><trkpt lat="43.3236633" lon="11.392255"><ele>264.8</ele><time>2026-04-03T13:40:55.269Z</time></trkpt><trkpt lat="43.3235517" lon="11.39223"><ele>264.6</ele><time>2026-04-03T13:40:56.269Z</time></trkpt><trkpt lat="43.3234417" lon="11.3922017"><ele>264.4</ele><time>2026-04-03T13:40:57.269Z</time></trkpt><trkpt lat="43.323335" lon="11.39218"><ele>264.2</ele><time>2026-04-03T13:40:58.269Z</time></trkpt><trkpt lat="43.3232333" lon="11.392155"><ele>264.0</ele><time>2026-04-03T13:40:59.269Z</time></trkpt><trkpt lat="43.323125" lon="11.39212"><ele>262.59999999999997</ele><time>2026-04-03T13:41:00.27Z</time></trkpt><trkpt lat="43.323025" lon="11.3921033"><ele>261.2</ele><time>2026-04-03T13:41:01.269Z</time></trkpt><trkpt lat="43.3229267" lon="11.3920783"><ele>259.79999999999995</ele><time>2026-04-03T13:41:02.269Z</time></trkpt><trkpt lat="43.32283" lon="11.3920417"><ele>258.4</ele><time>2026-04-03T13:41:03.269Z</time></trkpt><trkpt lat="43.3227383" lon="11.3920217"><ele>257.0</ele><time>2026-04-03T13:41:04.269Z</time></trkpt><trkpt lat="43.32264" lon="11.3919983"><ele>257.0</ele><time>2026-04-03T13:41:05.269Z</time></trkpt><trkpt lat="43.32255" lon="11.3919833"><ele>257.0</ele><time>2026-04-03T13:41:06.27Z</time></trkpt><trkpt lat="43.32246" lon="11.3919517"><ele>257.0</ele><time>2026-04-03T13:41:07.269Z</time></trkpt><trkpt lat="43.322365" lon="11.3919267"><ele>257.0</ele><time>2026-04-03T13:41:08.269Z</time></trkpt><trkpt lat="43.3222583" lon="11.3918983"><ele>257.0</ele><time>2026-04-03T13:41:09.269Z</time></trkpt><trkpt lat="43.3221483" lon="11.3918633"><ele>256.0</ele><time>2026-04-03T13:41:10.269Z</time></trkpt><trkpt lat="43.3220317" lon="11.3918233"><ele>255.0</ele><time>2026-04-03T13:41:11.269Z</time></trkpt><trkpt lat="43.3219083" lon="11.3917917"><ele>254.0</ele><time>2026-04-03T13:41:12.27Z</time></trkpt><trkpt lat="43.3217667" lon="11.39175"><ele>253.0</ele><time>2026-04-03T13:41:13.269Z</time></trkpt><trkpt lat="43.3216183" lon="11.391695"><ele>253.0</ele><time>2026-04-03T13:41:14.269Z</time></trkpt><trkpt lat="43.32147" lon="11.3916167"><ele>253.0</ele><time>2026-04-03T13:41:15.269Z</time></trkpt><trkpt lat="43.32134" lon="11.3915333"><ele>253.0</ele><time>2026-04-03T13:41:16.269Z</time></trkpt><trkpt lat="43.3212133" lon="11.3914483"><ele>253.0</ele><time>2026-04-03T13:41:17.269Z</time></trkpt><trkpt lat="43.3210917" lon="11.3913533"><ele>251.8</ele><time>2026-04-03T13:41:18.27Z</time></trkpt><trkpt lat="43.3209783" lon="11.39129"><ele>250.60000000000002</ele><time>2026-04-03T13:41:19.269Z</time></trkpt><trkpt lat="43.3208733" lon="11.391215"><ele>249.39999999999998</ele><time>2026-04-03T13:41:20.269Z</time></trkpt><trkpt lat="43.3207717" lon="11.3911483"><ele>248.2</ele><time>2026-04-03T13:41:21.269Z</time></trkpt><trkpt lat="43.320685" lon="11.391095"><ele>247.0</ele><time>2026-04-03T13:41:22.269Z</time></trkpt><trkpt lat="43.3205967" lon="11.3910417"><ele>247.33333333333331</ele><time>2026-04-03T13:41:23.269Z</time></trkpt><trkpt lat="43.3205183" lon="11.3910133"><ele>247.66666666666666</ele><time>2026-04-03T13:41:24.269Z</time></trkpt><trkpt lat="43.32045" lon="11.3909883"><ele>248.0</ele><time>2026-04-03T13:41:25.269Z</time></trkpt><trkpt lat="43.3203833" lon="11.390975"><ele>248.33333333333331</ele><time>2026-04-03T13:41:26.269Z</time></trkpt><trkpt lat="43.32032" lon="11.3909633"><ele>248.66666666666666</ele><time>2026-04-03T13:41:27.269Z</time></trkpt><trkpt lat="43.3202017" lon="11.390945"><ele>249.0</ele><time>2026-04-03T13:41:29.27Z</time></trkpt><trkpt lat="43.32011" lon="11.39085"><ele>249.0</ele><time>2026-04-03T13:41:31.269Z</time></trkpt><trkpt lat="43.3200767" lon="11.3907683"><ele>248.99999999999997</ele><time>2026-04-03T13:41:32.269Z</time></trkpt><trkpt lat="43.32006" lon="11.3906417"><ele>248.99999999999997</ele><time>2026-04-03T13:41:33.269Z</time></trkpt><trkpt lat="43.3200467" lon="11.3905"><ele>249.0</ele><time>2026-04-03T13:41:34.269Z</time></trkpt><trkpt lat="43.3200283" lon="11.3903583"><ele>249.0</ele><time>2026-04-03T13:41:35.269Z</time></trkpt><trkpt lat="43.32001" lon="11.3902233"><ele>248.6</ele><time>2026-04-03T13:41:36.269Z</time></trkpt><trkpt lat="43.31999" lon="11.390085"><ele>248.2</ele><time>2026-04-03T13:41:37.269Z</time></trkpt><trkpt lat="43.319965" lon="11.3899467"><ele>247.79999999999998</ele><time>2026-04-03T13:41:38.269Z</time></trkpt><trkpt lat="43.3199367" lon="11.389805"><ele>247.39999999999998</ele><time>2026-04-03T13:41:39.269Z</time></trkpt><trkpt lat="43.3199033" lon="11.3896633"><ele>247.0</ele><time>2026-04-03T13:41:40.269Z</time></trkpt><trkpt lat="43.3198667" lon="11.3895217"><ele>246.0</ele><time>2026-04-03T13:41:41.269Z</time></trkpt><trkpt lat="43.319825" lon="11.3893917"><ele>245.0</ele><time>2026-04-03T13:41:42.269Z</time></trkpt><trkpt lat="43.3197867" lon="11.3892433"><ele>244.0</ele><time>2026-04-03T13:41:43.269Z</time></trkpt><trkpt lat="43.319745" lon="11.3890867"><ele>243.0</ele><time>2026-04-03T13:41:44.27Z</time></trkpt><trkpt lat="43.3197017" lon="11.3889233"><ele>239.5</ele><time>2026-04-03T13:41:45.269Z</time></trkpt><trkpt lat="43.3196583" lon="11.3887517"><ele>236.0</ele><time>2026-04-03T13:41:46.269Z</time></trkpt><trkpt lat="43.3196183" lon="11.3885767"><ele>232.5</ele><time>2026-04-03T13:41:47.269Z</time></trkpt><trkpt lat="43.3195883" lon="11.3884067"><ele>229.0</ele><time>2026-04-03T13:41:48.269Z</time></trkpt><trkpt lat="43.319565" lon="11.3882433"><ele>229.0</ele><time>2026-04-03T13:41:49.269Z</time></trkpt><trkpt lat="43.3195333" lon="11.38809"><ele>228.99999999999997</ele><time>2026-04-03T13:41:50.27Z</time></trkpt><trkpt lat="43.3195083" lon="11.3879417"><ele>228.99999999999997</ele><time>2026-04-03T13:41:51.269Z</time></trkpt><trkpt lat="43.3194883" lon="11.3877983"><ele>229.0</ele><time>2026-04-03T13:41:52.269Z</time></trkpt><trkpt lat="43.3194583" lon="11.3876633"><ele>229.0</ele><time>2026-04-03T13:41:53.27Z</time></trkpt><trkpt lat="43.3194133" lon="11.3875467"><ele>228.99999999999997</ele><time>2026-04-03T13:41:54.269Z</time></trkpt><trkpt lat="43.31934" lon="11.3874733"><ele>229.0</ele><time>2026-04-03T13:41:55.269Z</time></trkpt><trkpt lat="43.3192567" lon="11.3874167"><ele>229.0</ele><time>2026-04-03T13:41:56.269Z</time></trkpt><trkpt lat="43.319175" lon="11.3873667"><ele>229.0</ele><time>2026-04-03T13:41:57.269Z</time></trkpt><trkpt lat="43.3191033" lon="11.3873133"><ele>228.99999999999997</ele><time>2026-04-03T13:41:58.269Z</time></trkpt><trkpt lat="43.31905" lon="11.38723"><ele>229.0</ele><time>2026-04-03T13:41:59.269Z</time></trkpt><trkpt lat="43.31902" lon="11.3871467"><ele>228.6</ele><time>2026-04-03T13:42:00.269Z</time></trkpt><trkpt lat="43.3190083" lon="11.387045"><ele>228.2</ele><time>2026-04-03T13:42:01.269Z</time></trkpt><trkpt lat="43.3190183" lon="11.3869283"><ele>227.79999999999998</ele><time>2026-04-03T13:42:02.269Z</time></trkpt><trkpt lat="43.3190483" lon="11.3868133"><ele>227.39999999999998</ele><time>2026-04-03T13:42:03.269Z</time></trkpt><trkpt lat="43.3191067" lon="11.3866983"><ele>227.0</ele><time>2026-04-03T13:42:04.269Z</time></trkpt><trkpt lat="43.319185" lon="11.3865967"><ele>227.0</ele><time>2026-04-03T13:42:05.269Z</time></trkpt><trkpt lat="43.3192617" lon="11.3865133"><ele>227.0</ele><time>2026-04-03T13:42:06.27Z</time></trkpt><trkpt lat="43.3193467" lon="11.3864383"><ele>227.0</ele><time>2026-04-03T13:42:07.269Z</time></trkpt><trkpt lat="43.3194517" lon="11.386365"><ele>227.0</ele><time>2026-04-03T13:42:08.269Z</time></trkpt><trkpt lat="43.319555" lon="11.3863017"><ele>227.0</ele><time>2026-04-03T13:42:09.27Z</time></trkpt><trkpt lat="43.319645" lon="11.3862533"><ele>226.0</ele><time>2026-04-03T13:42:10.269Z</time></trkpt><trkpt lat="43.3197467" lon="11.3862"><ele>225.0</ele><time>2026-04-03T13:42:11.27Z</time></trkpt><trkpt lat="43.3198483" lon="11.38615"><ele>224.0</ele><time>2026-04-03T13:42:12.27Z</time></trkpt><trkpt lat="43.3199483" lon="11.3860933"><ele>223.0</ele><time>2026-04-03T13:42:13.269Z</time></trkpt><trkpt lat="43.32003" lon="11.3859983"><ele>222.0</ele><time>2026-04-03T13:42:14.269Z</time></trkpt><trkpt lat="43.320105" lon="11.385885"><ele>222.0</ele><time>2026-04-03T13:42:15.27Z</time></trkpt><trkpt lat="43.3201483" lon="11.3857533"><ele>222.0</ele><time>2026-04-03T13:42:16.269Z</time></trkpt><trkpt lat="43.320175" lon="11.3856067"><ele>222.0</ele><time>2026-04-03T13:42:17.269Z</time></trkpt><trkpt lat="43.3201783" lon="11.385455"><ele>222.0</ele><time>2026-04-03T13:42:18.269Z</time></trkpt><trkpt lat="43.3201783" lon="11.3853083"><ele>222.0</ele><time>2026-04-03T13:42:19.27Z</time></trkpt><trkpt lat="43.3201883" lon="11.3851633"><ele>221.0</ele><time>2026-04-03T13:42:20.269Z</time></trkpt><trkpt lat="43.32022" lon="11.3850217"><ele>220.0</ele><time>2026-04-03T13:42:21.269Z</time></trkpt><trkpt lat="43.3202633" lon="11.38489"><ele>219.0</ele><time>2026-04-03T13:42:22.269Z</time></trkpt><trkpt lat="43.3203283" lon="11.3847617"><ele>218.0</ele><time>2026-04-03T13:42:23.269Z</time></trkpt><trkpt lat="43.3204033" lon="11.3846433"><ele>217.0</ele><time>2026-04-03T13:42:24.269Z</time></trkpt><trkpt lat="43.320485" lon="11.3845383"><ele>215.6</ele><time>2026-04-03T13:42:25.269Z</time></trkpt><trkpt lat="43.32057" lon="11.3844333"><ele>214.2</ele><time>2026-04-03T13:42:26.269Z</time></trkpt><trkpt lat="43.3206533" lon="11.384325"><ele>212.8</ele><time>2026-04-03T13:42:27.269Z</time></trkpt><trkpt lat="43.32074" lon="11.3842383"><ele>211.4</ele><time>2026-04-03T13:42:28.269Z</time></trkpt><trkpt lat="43.320795" lon="11.384105"><ele>210.0</ele><time>2026-04-03T13:42:29.269Z</time></trkpt><trkpt lat="43.3208317" lon="11.3839717"><ele>208.0</ele><time>2026-04-03T13:42:30.269Z</time></trkpt><trkpt lat="43.3208333" lon="11.3838283"><ele>206.0</ele><time>2026-04-03T13:42:31.27Z</time></trkpt><trkpt lat="43.32079" lon="11.383675"><ele>204.0</ele><time>2026-04-03T13:42:32.269Z</time></trkpt><trkpt lat="43.32075" lon="11.3835033"><ele>202.0</ele><time>2026-04-03T13:42:33.27Z</time></trkpt><trkpt lat="43.3207067" lon="11.3833183"><ele>202.0</ele><time>2026-04-03T13:42:34.269Z</time></trkpt><trkpt lat="43.3206767" lon="11.3831217"><ele>202.0</ele><time>2026-04-03T13:42:35.269Z</time></trkpt><trkpt lat="43.320655" lon="11.3829067"><ele>202.0</ele><time>2026-04-03T13:42:36.269Z</time></trkpt><trkpt lat="43.320625" lon="11.3827167"><ele>202.0</ele><time>2026-04-03T13:42:37.269Z</time></trkpt><trkpt lat="43.3205983" lon="11.3825283"><ele>201.0</ele><time>2026-04-03T13:42:38.269Z</time></trkpt><trkpt lat="43.32057" lon="11.3823383"><ele>200.0</ele><time>2026-04-03T13:42:39.269Z</time></trkpt><trkpt lat="43.3205433" lon="11.38216"><ele>199.0</ele><time>2026-04-03T13:42:40.269Z</time></trkpt><trkpt lat="43.3205117" lon="11.3819733"><ele>198.0</ele><time>2026-04-03T13:42:41.269Z</time></trkpt><trkpt lat="43.32048" lon="11.3817883"><ele>198.0</ele><time>2026-04-03T13:42:42.269Z</time></trkpt><trkpt lat="43.3204483" lon="11.3816167"><ele>198.0</ele><time>2026-04-03T13:42:43.269Z</time></trkpt><trkpt lat="43.3204117" lon="11.381465"><ele>198.0</ele><time>2026-04-03T13:42:44.269Z</time></trkpt><trkpt lat="43.320385" lon="11.3813017"><ele>198.0</ele><time>2026-04-03T13:42:45.269Z</time></trkpt><trkpt lat="43.3203567" lon="11.3811267"><ele>197.75</ele><time>2026-04-03T13:42:46.27Z</time></trkpt><trkpt lat="43.320335" lon="11.38095"><ele>197.5</ele><time>2026-04-03T13:42:47.269Z</time></trkpt><trkpt lat="43.3203383" lon="11.3807633"><ele>197.25</ele><time>2026-04-03T13:42:48.269Z</time></trkpt><trkpt lat="43.320365" lon="11.3805867"><ele>197.0</ele><time>2026-04-03T13:42:49.269Z</time></trkpt><trkpt lat="43.3203983" lon="11.3804133"><ele>197.0</ele><time>2026-04-03T13:42:50.27Z</time></trkpt><trkpt lat="43.3204183" lon="11.3802367"><ele>197.0</ele><time>2026-04-03T13:42:51.269Z</time></trkpt><trkpt lat="43.3204383" lon="11.3800683"><ele>197.0</ele><time>2026-04-03T13:42:52.269Z</time></trkpt><trkpt lat="43.3204583" lon="11.3799033"><ele>197.0</ele><time>2026-04-03T13:42:53.269Z</time></trkpt><trkpt lat="43.3204783" lon="11.37973"><ele>197.5</ele><time>2026-04-03T13:42:54.269Z</time></trkpt><trkpt lat="43.3205" lon="11.37956"><ele>198.0</ele><time>2026-04-03T13:42:55.269Z</time></trkpt><trkpt lat="43.32052" lon="11.37939"><ele>198.5</ele><time>2026-04-03T13:42:56.27Z</time></trkpt><trkpt lat="43.3205433" lon="11.37922"><ele>199.0</ele><time>2026-04-03T13:42:57.27Z</time></trkpt><trkpt lat="43.3205667" lon="11.37905"><ele>199.0</ele><time>2026-04-03T13:42:58.269Z</time></trkpt><trkpt lat="43.3205917" lon="11.3788783"><ele>199.0</ele><time>2026-04-03T13:42:59.269Z</time></trkpt><trkpt lat="43.3206033" lon="11.3787017"><ele>199.0</ele><time>2026-04-03T13:43:00.269Z</time></trkpt><trkpt lat="43.3206083" lon="11.3785133"><ele>199.0</ele><time>2026-04-03T13:43:01.269Z</time></trkpt><trkpt lat="43.320605" lon="11.3783367"><ele>200.75</ele><time>2026-04-03T13:43:02.27Z</time></trkpt><trkpt lat="43.3205967" lon="11.3781467"><ele>202.5</ele><time>2026-04-03T13:43:03.269Z</time></trkpt><trkpt lat="43.3205783" lon="11.3779633"><ele>204.25</ele><time>2026-04-03T13:43:04.269Z</time></trkpt><trkpt lat="43.32056" lon="11.3777883"><ele>206.0</ele><time>2026-04-03T13:43:05.269Z</time></trkpt><trkpt lat="43.32053" lon="11.37762"><ele>208.0</ele><time>2026-04-03T13:43:06.27Z</time></trkpt><trkpt lat="43.32051" lon="11.377455"><ele>210.0</ele><time>2026-04-03T13:43:07.269Z</time></trkpt><trkpt lat="43.3204883" lon="11.3772833"><ele>212.0</ele><time>2026-04-03T13:43:08.269Z</time></trkpt><trkpt lat="43.3204617" lon="11.3771083"><ele>214.0</ele><time>2026-04-03T13:43:09.269Z</time></trkpt><trkpt lat="43.3204533" lon="11.3769317"><ele>215.75</ele><time>2026-04-03T13:43:10.269Z</time></trkpt><trkpt lat="43.320455" lon="11.376755"><ele>217.5</ele><time>2026-04-03T13:43:11.269Z</time></trkpt><trkpt lat="43.3204667" lon="11.3765733"><ele>219.25</ele><time>2026-04-03T13:43:12.269Z</time></trkpt><trkpt lat="43.3204817" lon="11.376395"><ele>221.0</ele><time>2026-04-03T13:43:13.269Z</time></trkpt><trkpt lat="43.3204967" lon="11.3762217"><ele>221.0</ele><time>2026-04-03T13:43:14.27Z</time></trkpt><trkpt lat="43.3205133" lon="11.376045"><ele>221.0</ele><time>2026-04-03T13:43:15.269Z</time></trkpt><trkpt lat="43.3205217" lon="11.3758733"><ele>221.0</ele><time>2026-04-03T13:43:16.269Z</time></trkpt><trkpt lat="43.32053" lon="11.375715"><ele>221.0</ele><time>2026-04-03T13:43:17.269Z</time></trkpt><trkpt lat="43.3205283" lon="11.375575"><ele>220.60000000000002</ele><time>2026-04-03T13:43:18.269Z</time></trkpt><trkpt lat="43.3205067" lon="11.375445"><ele>220.20000000000002</ele><time>2026-04-03T13:43:19.269Z</time></trkpt><trkpt lat="43.3204517" lon="11.3753333"><ele>219.79999999999998</ele><time>2026-04-03T13:43:20.269Z</time></trkpt><trkpt lat="43.3203783" lon="11.3752217"><ele>219.39999999999998</ele><time>2026-04-03T13:43:21.269Z</time></trkpt><trkpt lat="43.3203167" lon="11.3751067"><ele>219.0</ele><time>2026-04-03T13:43:22.27Z</time></trkpt><trkpt lat="43.3202717" lon="11.3749883"><ele>219.0</ele><time>2026-04-03T13:43:23.269Z</time></trkpt><trkpt lat="43.32027" lon="11.3748617"><ele>218.99999999999997</ele><time>2026-04-03T13:43:24.269Z</time></trkpt><trkpt lat="43.3202833" lon="11.3747267"><ele>218.99999999999997</ele><time>2026-04-03T13:43:25.269Z</time></trkpt><trkpt lat="43.3203117" lon="11.374585"><ele>219.0</ele><time>2026-04-03T13:43:26.269Z</time></trkpt><trkpt lat="43.3203467" lon="11.37443"><ele>219.0</ele><time>2026-04-03T13:43:27.269Z</time></trkpt><trkpt lat="43.3203917" lon="11.3742483"><ele>219.5</ele><time>2026-04-03T13:43:28.269Z</time></trkpt><trkpt lat="43.3204433" lon="11.3740733"><ele>220.0</ele><time>2026-04-03T13:43:29.269Z</time></trkpt><trkpt lat="43.320505" lon="11.373895"><ele>220.5</ele><time>2026-04-03T13:43:30.269Z</time></trkpt><trkpt lat="43.3205617" lon="11.37374"><ele>221.0</ele><time>2026-04-03T13:43:31.269Z</time></trkpt><trkpt lat="43.3206217" lon="11.3735833"><ele>223.0</ele><time>2026-04-03T13:43:32.269Z</time></trkpt><trkpt lat="43.32069" lon="11.373435"><ele>225.0</ele><time>2026-04-03T13:43:33.27Z</time></trkpt><trkpt lat="43.32076" lon="11.3732817"><ele>227.0</ele><time>2026-04-03T13:43:34.27Z</time></trkpt><trkpt lat="43.3208317" lon="11.3731317"><ele>229.0</ele><time>2026-04-03T13:43:35.269Z</time></trkpt><trkpt lat="43.3208983" lon="11.3729817"><ele>231.25</ele><time>2026-04-03T13:43:36.269Z</time></trkpt><trkpt lat="43.32096" lon="11.37284"><ele>233.5</ele><time>2026-04-03T13:43:37.27Z</time></trkpt><trkpt lat="43.3210133" lon="11.372685"><ele>235.75</ele><time>2026-04-03T13:43:38.27Z</time></trkpt><trkpt lat="43.3210567" lon="11.37252"><ele>238.0</ele><time>2026-04-03T13:43:39.269Z</time></trkpt><trkpt lat="43.321085" lon="11.372355"><ele>238.0</ele><time>2026-04-03T13:43:40.269Z</time></trkpt><trkpt lat="43.3211117" lon="11.37219"><ele>238.0</ele><time>2026-04-03T13:43:41.27Z</time></trkpt><trkpt lat="43.3211367" lon="11.3720333"><ele>238.0</ele><time>2026-04-03T13:43:42.269Z</time></trkpt><trkpt lat="43.3211583" lon="11.3718733"><ele>238.0</ele><time>2026-04-03T13:43:43.269Z</time></trkpt><trkpt lat="43.321165" lon="11.3717"><ele>240.25</ele><time>2026-04-03T13:43:44.269Z</time></trkpt><trkpt lat="43.3211833" lon="11.3715317"><ele>242.5</ele><time>2026-04-03T13:43:45.269Z</time></trkpt><trkpt lat="43.3211967" lon="11.37136"><ele>244.75</ele><time>2026-04-03T13:43:46.269Z</time></trkpt><trkpt lat="43.3212167" lon="11.3711917"><ele>247.0</ele><time>2026-04-03T13:43:47.269Z</time></trkpt><trkpt lat="43.3212467" lon="11.3710333"><ele>246.5</ele><time>2026-04-03T13:43:48.269Z</time></trkpt><trkpt lat="43.321285" lon="11.3708633"><ele>246.0</ele><time>2026-04-03T13:43:49.269Z</time></trkpt><trkpt lat="43.3213383" lon="11.370725"><ele>245.5</ele><time>2026-04-03T13:43:50.27Z</time></trkpt><trkpt lat="43.3214183" lon="11.3705583"><ele>245.0</ele><time>2026-04-03T13:43:51.269Z</time></trkpt><trkpt lat="43.3215033" lon="11.3703917"><ele>246.75</ele><time>2026-04-03T13:43:52.27Z</time></trkpt><trkpt lat="43.32158" lon="11.3702517"><ele>248.5</ele><time>2026-04-03T13:43:53.269Z</time></trkpt><trkpt lat="43.321655" lon="11.37011"><ele>250.25</ele><time>2026-04-03T13:43:54.269Z</time></trkpt><trkpt lat="43.3217217" lon="11.3699717"><ele>252.0</ele><time>2026-04-03T13:43:55.269Z</time></trkpt><trkpt lat="43.321785" lon="11.3698533"><ele>252.0</ele><time>2026-04-03T13:43:56.269Z</time></trkpt><trkpt lat="43.3218317" lon="11.3697317"><ele>252.0</ele><time>2026-04-03T13:43:57.269Z</time></trkpt><trkpt lat="43.32188" lon="11.36963"><ele>252.0</ele><time>2026-04-03T13:43:58.269Z</time></trkpt><trkpt lat="43.32193" lon="11.369525"><ele>252.0</ele><time>2026-04-03T13:43:59.269Z</time></trkpt><trkpt lat="43.321985" lon="11.3694217"><ele>252.0</ele><time>2026-04-03T13:44:00.269Z</time></trkpt><trkpt lat="43.3220283" lon="11.3693183"><ele>253.8</ele><time>2026-04-03T13:44:01.27Z</time></trkpt><trkpt lat="43.3220617" lon="11.3692267"><ele>255.6</ele><time>2026-04-03T13:44:02.269Z</time></trkpt><trkpt lat="43.32206" lon="11.3691383"><ele>257.40000000000003</ele><time>2026-04-03T13:44:03.269Z</time></trkpt><trkpt lat="43.321985" lon="11.369075"><ele>259.2</ele><time>2026-04-03T13:44:05.269Z</time></trkpt><trkpt lat="43.3218617" lon="11.3691817"><ele>261.0</ele><time>2026-04-03T13:44:06.269Z</time></trkpt><trkpt lat="43.3217583" lon="11.369265"><ele>261.0</ele><time>2026-04-03T13:44:07.27Z</time></trkpt><trkpt lat="43.3216633" lon="11.3693283"><ele>261.0</ele><time>2026-04-03T13:44:08.27Z</time></trkpt><trkpt lat="43.3215583" lon="11.36935"><ele>261.0</ele><time>2026-04-03T13:44:09.269Z</time></trkpt><trkpt lat="43.32145" lon="11.36933"><ele>261.0</ele><time>2026-04-03T13:44:10.269Z</time></trkpt><trkpt lat="43.3213417" lon="11.3693033"><ele>261.0</ele><time>2026-04-03T13:44:11.269Z</time></trkpt><trkpt lat="43.3212417" lon="11.36924"><ele>261.40000000000003</ele><time>2026-04-03T13:44:12.269Z</time></trkpt><trkpt lat="43.321145" lon="11.369165"><ele>261.8</ele><time>2026-04-03T13:44:13.269Z</time></trkpt><trkpt lat="43.321055" lon="11.3690817"><ele>262.20000000000005</ele><time>2026-04-03T13:44:14.269Z</time></trkpt><trkpt lat="43.32098" lon="11.369"><ele>262.6</ele><time>2026-04-03T13:44:15.269Z</time></trkpt><trkpt lat="43.3209267" lon="11.36892"><ele>263.0</ele><time>2026-04-03T13:44:16.269Z</time></trkpt><trkpt lat="43.32088" lon="11.3688333"><ele>263.0</ele><time>2026-04-03T13:44:17.269Z</time></trkpt><trkpt lat="43.3208483" lon="11.36874"><ele>263.0</ele><time>2026-04-03T13:44:18.27Z</time></trkpt><trkpt lat="43.3208583" lon="11.3686317"><ele>263.0</ele><time>2026-04-03T13:44:19.269Z</time></trkpt><trkpt lat="43.3208633" lon="11.36853"><ele>263.0</ele><time>2026-04-03T13:44:20.269Z</time></trkpt><trkpt lat="43.3209" lon="11.3684167"><ele>263.0</ele><time>2026-04-03T13:44:21.27Z</time></trkpt><trkpt lat="43.32095" lon="11.368275"><ele>263.0</ele><time>2026-04-03T13:44:22.269Z</time></trkpt><trkpt lat="43.32098" lon="11.36812"><ele>264.0</ele><time>2026-04-03T13:44:23.269Z</time></trkpt><trkpt lat="43.3210067" lon="11.3679567"><ele>265.0</ele><time>2026-04-03T13:44:24.269Z</time></trkpt><trkpt lat="43.321025" lon="11.367795"><ele>266.0</ele><time>2026-04-03T13:44:25.269Z</time></trkpt><trkpt lat="43.32105" lon="11.3676117"><ele>267.0</ele><time>2026-04-03T13:44:26.269Z</time></trkpt><trkpt lat="43.3210783" lon="11.367435"><ele>267.0</ele><time>2026-04-03T13:44:27.269Z</time></trkpt><trkpt lat="43.3211067" lon="11.3672767"><ele>267.0</ele><time>2026-04-03T13:44:28.269Z</time></trkpt><trkpt lat="43.3210983" lon="11.367105"><ele>267.0</ele><time>2026-04-03T13:44:29.269Z</time></trkpt><trkpt lat="43.3211017" lon="11.3669383"><ele>267.0</ele><time>2026-04-03T13:44:30.27Z</time></trkpt><trkpt lat="43.3210967" lon="11.366775"><ele>268.0</ele><time>2026-04-03T13:44:31.27Z</time></trkpt><trkpt lat="43.3210867" lon="11.366615"><ele>269.0</ele><time>2026-04-03T13:44:32.269Z</time></trkpt><trkpt lat="43.321075" lon="11.3664483"><ele>270.0</ele><time>2026-04-03T13:44:33.269Z</time></trkpt><trkpt lat="43.3210517" lon="11.3662917"><ele>271.0</ele><time>2026-04-03T13:44:34.269Z</time></trkpt><trkpt lat="43.3210283" lon="11.3661417"><ele>271.0</ele><time>2026-04-03T13:44:35.27Z</time></trkpt><trkpt lat="43.3210067" lon="11.3659933"><ele>271.0</ele><time>2026-04-03T13:44:36.269Z</time></trkpt><trkpt lat="43.3209917" lon="11.3658367"><ele>271.0</ele><time>2026-04-03T13:44:37.269Z</time></trkpt><trkpt lat="43.3209683" lon="11.365675"><ele>271.0</ele><time>2026-04-03T13:44:38.27Z</time></trkpt><trkpt lat="43.3209383" lon="11.36552"><ele>271.25</ele><time>2026-04-03T13:44:39.27Z</time></trkpt><trkpt lat="43.320885" lon="11.3653667"><ele>271.5</ele><time>2026-04-03T13:44:40.269Z</time></trkpt><trkpt lat="43.3208283" lon="11.3652383"><ele>271.75</ele><time>2026-04-03T13:44:41.269Z</time></trkpt><trkpt lat="43.3207717" lon="11.3650983"><ele>272.0</ele><time>2026-04-03T13:44:42.269Z</time></trkpt><trkpt lat="43.3207033" lon="11.3649567"><ele>272.0</ele><time>2026-04-03T13:44:43.269Z</time></trkpt><trkpt lat="43.3206233" lon="11.3648167"><ele>272.0</ele><time>2026-04-03T13:44:44.269Z</time></trkpt><trkpt lat="43.3205533" lon="11.364685"><ele>272.0</ele><time>2026-04-03T13:44:45.269Z</time></trkpt><trkpt lat="43.32048" lon="11.3645533"><ele>272.0</ele><time>2026-04-03T13:44:46.269Z</time></trkpt><trkpt lat="43.3203983" lon="11.3644267"><ele>272.5</ele><time>2026-04-03T13:44:47.27Z</time></trkpt><trkpt lat="43.3203217" lon="11.364305"><ele>273.0</ele><time>2026-04-03T13:44:48.269Z</time></trkpt><trkpt lat="43.3202367" lon="11.364175"><ele>273.5</ele><time>2026-04-03T13:44:49.27Z</time></trkpt><trkpt lat="43.3201517" lon="11.364045"><ele>274.0</ele><time>2026-04-03T13:44:50.269Z</time></trkpt><trkpt lat="43.3200667" lon="11.363905"><ele>274.75</ele><time>2026-04-03T13:44:51.269Z</time></trkpt><trkpt lat="43.3199833" lon="11.3637667"><ele>275.5</ele><time>2026-04-03T13:44:52.269Z</time></trkpt><trkpt lat="43.319895" lon="11.3636333"><ele>276.25</ele><time>2026-04-03T13:44:53.269Z</time></trkpt><trkpt lat="43.319805" lon="11.3635017"><ele>277.0</ele><time>2026-04-03T13:44:54.269Z</time></trkpt><trkpt lat="43.3197083" lon="11.3633767"><ele>277.0</ele><time>2026-04-03T13:44:55.27Z</time></trkpt><trkpt lat="43.3196217" lon="11.3632567"><ele>277.0</ele><time>2026-04-03T13:44:56.269Z</time></trkpt><trkpt lat="43.3195483" lon="11.3631283"><ele>277.0</ele><time>2026-04-03T13:44:57.27Z</time></trkpt><trkpt lat="43.31949" lon="11.3629867"><ele>277.0</ele><time>2026-04-03T13:44:58.269Z</time></trkpt><trkpt lat="43.3194417" lon="11.3628417"><ele>275.25</ele><time>2026-04-03T13:44:59.269Z</time></trkpt><trkpt lat="43.319395" lon="11.3627"><ele>273.5</ele><time>2026-04-03T13:45:00.269Z</time></trkpt><trkpt lat="43.3193467" lon="11.3625583"><ele>271.75</ele><time>2026-04-03T13:45:01.27Z</time></trkpt><trkpt lat="43.3192633" lon="11.3624317"><ele>270.0</ele><time>2026-04-03T13:45:02.269Z</time></trkpt><trkpt lat="43.3191933" lon="11.3622817"><ele>269.0</ele><time>2026-04-03T13:45:03.269Z</time></trkpt><trkpt lat="43.3191083" lon="11.362145"><ele>268.0</ele><time>2026-04-03T13:45:04.27Z</time></trkpt><trkpt lat="43.3190033" lon="11.3620217"><ele>267.0</ele><time>2026-04-03T13:45:05.269Z</time></trkpt><trkpt lat="43.31891" lon="11.36191"><ele>266.0</ele><time>2026-04-03T13:45:06.27Z</time></trkpt><trkpt lat="43.3188183" lon="11.36178"><ele>266.0</ele><time>2026-04-03T13:45:07.269Z</time></trkpt><trkpt lat="43.318735" lon="11.36165"><ele>266.0</ele><time>2026-04-03T13:45:08.269Z</time></trkpt><trkpt lat="43.3186683" lon="11.36151"><ele>266.0</ele><time>2026-04-03T13:45:09.269Z</time></trkpt><trkpt lat="43.3186167" lon="11.3613533"><ele>266.0</ele><time>2026-04-03T13:45:10.27Z</time></trkpt><trkpt lat="43.3185833" lon="11.3611983"><ele>264.0</ele><time>2026-04-03T13:45:11.269Z</time></trkpt><trkpt lat="43.3185533" lon="11.361045"><ele>262.0</ele><time>2026-04-03T13:45:12.269Z</time></trkpt><trkpt lat="43.3185083" lon="11.3608933"><ele>260.0</ele><time>2026-04-03T13:45:13.269Z</time></trkpt><trkpt lat="43.3184483" lon="11.3607467"><ele>258.0</ele><time>2026-04-03T13:45:14.269Z</time></trkpt><trkpt lat="43.3183817" lon="11.360605"><ele>256.25</ele><time>2026-04-03T13:45:15.269Z</time></trkpt><trkpt lat="43.3183333" lon="11.3604583"><ele>254.5</ele><time>2026-04-03T13:45:16.269Z</time></trkpt><trkpt lat="43.318285" lon="11.3603267"><ele>252.75</ele><time>2026-04-03T13:45:17.27Z</time></trkpt><trkpt lat="43.318225" lon="11.3601967"><ele>251.0</ele><time>2026-04-03T13:45:18.269Z</time></trkpt><trkpt lat="43.3181483" lon="11.360065"><ele>251.0</ele><time>2026-04-03T13:45:19.269Z</time></trkpt><trkpt lat="43.318065" lon="11.3599333"><ele>251.0</ele><time>2026-04-03T13:45:20.269Z</time></trkpt><trkpt lat="43.3179667" lon="11.3597967"><ele>251.0</ele><time>2026-04-03T13:45:21.269Z</time></trkpt><trkpt lat="43.3178867" lon="11.3596717"><ele>251.0</ele><time>2026-04-03T13:45:22.269Z</time></trkpt><trkpt lat="43.3178383" lon="11.3595233"><ele>248.5</ele><time>2026-04-03T13:45:23.269Z</time></trkpt><trkpt lat="43.317795" lon="11.3593467"><ele>246.0</ele><time>2026-04-03T13:45:24.269Z</time></trkpt><trkpt lat="43.317775" lon="11.3591683"><ele>243.5</ele><time>2026-04-03T13:45:25.269Z</time></trkpt><trkpt lat="43.3177417" lon="11.3589867"><ele>241.0</ele><time>2026-04-03T13:45:26.269Z</time></trkpt><trkpt lat="43.3177" lon="11.35882"><ele>240.20000000000002</ele><time>2026-04-03T13:45:27.269Z</time></trkpt><trkpt lat="43.3176367" lon="11.35869"><ele>239.40000000000003</ele><time>2026-04-03T13:45:28.269Z</time></trkpt><trkpt lat="43.3175583" lon="11.3585783"><ele>238.6</ele><time>2026-04-03T13:45:29.269Z</time></trkpt><trkpt lat="43.3174717" lon="11.35848"><ele>237.8</ele><time>2026-04-03T13:45:30.269Z</time></trkpt><trkpt lat="43.317375" lon="11.3584083"><ele>237.0</ele><time>2026-04-03T13:45:31.269Z</time></trkpt><trkpt lat="43.3172683" lon="11.3583583"><ele>235.25</ele><time>2026-04-03T13:45:32.27Z</time></trkpt><trkpt lat="43.31714" lon="11.3583267"><ele>233.5</ele><time>2026-04-03T13:45:33.269Z</time></trkpt><trkpt lat="43.3170067" lon="11.3583283"><ele>231.75</ele><time>2026-04-03T13:45:34.269Z</time></trkpt><trkpt lat="43.3168917" lon="11.3583183"><ele>230.0</ele><time>2026-04-03T13:45:35.269Z</time></trkpt><trkpt lat="43.316785" lon="11.3582833"><ele>230.0</ele><time>2026-04-03T13:45:36.27Z</time></trkpt><trkpt lat="43.316685" lon="11.358205"><ele>230.0</ele><time>2026-04-03T13:45:37.269Z</time></trkpt><trkpt lat="43.3165917" lon="11.358095"><ele>230.0</ele><time>2026-04-03T13:45:38.269Z</time></trkpt><trkpt lat="43.3165083" lon="11.3579517"><ele>230.0</ele><time>2026-04-03T13:45:39.27Z</time></trkpt><trkpt lat="43.316425" lon="11.3578"><ele>229.25</ele><time>2026-04-03T13:45:40.269Z</time></trkpt><trkpt lat="43.3163517" lon="11.3576483"><ele>228.5</ele><time>2026-04-03T13:45:41.269Z</time></trkpt><trkpt lat="43.3162633" lon="11.3575117"><ele>227.75</ele><time>2026-04-03T13:45:42.269Z</time></trkpt><trkpt lat="43.3161967" lon="11.3573583"><ele>227.0</ele><time>2026-04-03T13:45:43.269Z</time></trkpt><trkpt lat="43.3161383" lon="11.3571983"><ele>226.75</ele><time>2026-04-03T13:45:44.269Z</time></trkpt><trkpt lat="43.316105" lon="11.3570267"><ele>226.5</ele><time>2026-04-03T13:45:45.269Z</time></trkpt><trkpt lat="43.3160917" lon="11.3568633"><ele>226.25</ele><time>2026-04-03T13:45:46.269Z</time></trkpt><trkpt lat="43.3160783" lon="11.356705"><ele>226.0</ele><time>2026-04-03T13:45:47.269Z</time></trkpt><trkpt lat="43.3160717" lon="11.3565517"><ele>225.99999999999997</ele><time>2026-04-03T13:45:48.269Z</time></trkpt><trkpt lat="43.31606" lon="11.3564117"><ele>226.0</ele><time>2026-04-03T13:45:49.269Z</time></trkpt><trkpt lat="43.3160583" lon="11.3563"><ele>226.0</ele><time>2026-04-03T13:45:50.269Z</time></trkpt><trkpt lat="43.3160517" lon="11.3562117"><ele>226.0</ele><time>2026-04-03T13:45:52.269Z</time></trkpt><trkpt lat="43.31608" lon="11.3561083"><ele>225.99999999999997</ele><time>2026-04-03T13:45:55.269Z</time></trkpt><trkpt lat="43.3161383" lon="11.35598"><ele>226.0</ele><time>2026-04-03T13:45:57.269Z</time></trkpt><trkpt lat="43.3161767" lon="11.3559083"><ele>225.83333333333331</ele><time>2026-04-03T13:45:58.269Z</time></trkpt><trkpt lat="43.3162133" lon="11.355835"><ele>225.66666666666666</ele><time>2026-04-03T13:45:59.27Z</time></trkpt><trkpt lat="43.3162933" lon="11.3557167"><ele>225.5</ele><time>2026-04-03T13:46:01.269Z</time></trkpt><trkpt lat="43.3163333" lon="11.355645"><ele>225.33333333333331</ele><time>2026-04-03T13:46:02.27Z</time></trkpt><trkpt lat="43.316375" lon="11.355565"><ele>225.16666666666666</ele><time>2026-04-03T13:46:03.269Z</time></trkpt><trkpt lat="43.3163967" lon="11.3554767"><ele>225.0</ele><time>2026-04-03T13:46:04.269Z</time></trkpt><trkpt lat="43.3164033" lon="11.35539"><ele>225.4</ele><time>2026-04-03T13:46:05.269Z</time></trkpt><trkpt lat="43.3163283" lon="11.3552533"><ele>225.8</ele><time>2026-04-03T13:46:07.269Z</time></trkpt><trkpt lat="43.31626" lon="11.355215"><ele>226.2</ele><time>2026-04-03T13:46:08.269Z</time></trkpt><trkpt lat="43.3161783" lon="11.3551883"><ele>226.6</ele><time>2026-04-03T13:46:09.269Z</time></trkpt><trkpt lat="43.3160883" lon="11.3551583"><ele>227.0</ele><time>2026-04-03T13:46:10.27Z</time></trkpt><trkpt lat="43.3160133" lon="11.3550933"><ele>227.0</ele><time>2026-04-03T13:46:11.269Z</time></trkpt><trkpt lat="43.31595" lon="11.354995"><ele>227.0</ele><time>2026-04-03T13:46:12.269Z</time></trkpt><trkpt lat="43.3158933" lon="11.3548833"><ele>227.0</ele><time>2026-04-03T13:46:13.27Z</time></trkpt><trkpt lat="43.31584" lon="11.35475"><ele>227.0</ele><time>2026-04-03T13:46:14.268Z</time></trkpt><trkpt lat="43.3157883" lon="11.35461"><ele>227.0</ele><time>2026-04-03T13:46:15.269Z</time></trkpt><trkpt lat="43.315755" lon="11.35445"><ele>228.0</ele><time>2026-04-03T13:46:16.269Z</time></trkpt><trkpt lat="43.3157167" lon="11.3542933"><ele>229.0</ele><time>2026-04-03T13:46:17.27Z</time></trkpt><trkpt lat="43.3156933" lon="11.35413"><ele>230.0</ele><time>2026-04-03T13:46:18.269Z</time></trkpt><trkpt lat="43.31566" lon="11.3539783"><ele>231.0</ele><time>2026-04-03T13:46:19.27Z</time></trkpt><trkpt lat="43.3156317" lon="11.353815"><ele>231.75</ele><time>2026-04-03T13:46:20.269Z</time></trkpt><trkpt lat="43.3155967" lon="11.353645"><ele>232.5</ele><time>2026-04-03T13:46:21.269Z</time></trkpt><trkpt lat="43.3155583" lon="11.3534833"><ele>233.25</ele><time>2026-04-03T13:46:22.27Z</time></trkpt><trkpt lat="43.3155183" lon="11.35333"><ele>234.0</ele><time>2026-04-03T13:46:23.27Z</time></trkpt><trkpt lat="43.3154817" lon="11.3531867"><ele>234.0</ele><time>2026-04-03T13:46:24.269Z</time></trkpt><trkpt lat="43.3154483" lon="11.3530583"><ele>233.99999999999997</ele><time>2026-04-03T13:46:25.27Z</time></trkpt><trkpt lat="43.3154117" lon="11.3529283"><ele>233.99999999999997</ele><time>2026-04-03T13:46:26.269Z</time></trkpt><trkpt lat="43.3153833" lon="11.352805"><ele>234.0</ele><time>2026-04-03T13:46:27.27Z</time></trkpt><trkpt lat="43.3153533" lon="11.3526783"><ele>234.0</ele><time>2026-04-03T13:46:28.27Z</time></trkpt><trkpt lat="43.3153217" lon="11.3525517"><ele>234.6</ele><time>2026-04-03T13:46:29.269Z</time></trkpt><trkpt lat="43.3152883" lon="11.35243"><ele>235.2</ele><time>2026-04-03T13:46:30.269Z</time></trkpt><trkpt lat="43.3152567" lon="11.3522883"><ele>235.79999999999998</ele><time>2026-04-03T13:46:31.269Z</time></trkpt><trkpt lat="43.3152233" lon="11.3521433"><ele>236.39999999999998</ele><time>2026-04-03T13:46:32.269Z</time></trkpt><trkpt lat="43.3151933" lon="11.3520017"><ele>237.0</ele><time>2026-04-03T13:46:33.269Z</time></trkpt><trkpt lat="43.3151517" lon="11.35186"><ele>238.39999999999998</ele><time>2026-04-03T13:46:34.269Z</time></trkpt><trkpt lat="43.315105" lon="11.3517283"><ele>239.79999999999998</ele><time>2026-04-03T13:46:35.269Z</time></trkpt><trkpt lat="43.3150617" lon="11.3515933"><ele>241.2</ele><time>2026-04-03T13:46:36.27Z</time></trkpt><trkpt lat="43.315" lon="11.3514817"><ele>242.6</ele><time>2026-04-03T13:46:37.269Z</time></trkpt><trkpt lat="43.3149433" lon="11.351365"><ele>244.0</ele><time>2026-04-03T13:46:38.269Z</time></trkpt><trkpt lat="43.314885" lon="11.35125"><ele>243.79999999999998</ele><time>2026-04-03T13:46:39.269Z</time></trkpt><trkpt lat="43.3148317" lon="11.3511333"><ele>243.59999999999997</ele><time>2026-04-03T13:46:40.27Z</time></trkpt><trkpt lat="43.31477" lon="11.3510183"><ele>243.4</ele><time>2026-04-03T13:46:41.269Z</time></trkpt><trkpt lat="43.3146967" lon="11.35091"><ele>243.2</ele><time>2026-04-03T13:46:42.269Z</time></trkpt><trkpt lat="43.3146217" lon="11.350795"><ele>243.0</ele><time>2026-04-03T13:46:43.269Z</time></trkpt><trkpt lat="43.31455" lon="11.3506967"><ele>243.0</ele><time>2026-04-03T13:46:44.269Z</time></trkpt><trkpt lat="43.31449" lon="11.3505883"><ele>243.0</ele><time>2026-04-03T13:46:45.269Z</time></trkpt><trkpt lat="43.3144367" lon="11.3504767"><ele>243.0</ele><time>2026-04-03T13:46:46.269Z</time></trkpt><trkpt lat="43.3144067" lon="11.3503517"><ele>243.0</ele><time>2026-04-03T13:46:47.269Z</time></trkpt><trkpt lat="43.3144" lon="11.3502233"><ele>243.0</ele><time>2026-04-03T13:46:48.27Z</time></trkpt><trkpt lat="43.3144117" lon="11.350105"><ele>243.60000000000002</ele><time>2026-04-03T13:46:49.269Z</time></trkpt><trkpt lat="43.3144333" lon="11.3500083"><ele>244.20000000000002</ele><time>2026-04-03T13:46:50.269Z</time></trkpt><trkpt lat="43.31445" lon="11.349915"><ele>244.8</ele><time>2026-04-03T13:46:51.27Z</time></trkpt><trkpt lat="43.314525" lon="11.349815"><ele>245.4</ele><time>2026-04-03T13:46:53.269Z</time></trkpt><trkpt lat="43.3146217" lon="11.34979"><ele>246.0</ele><time>2026-04-03T13:46:55.27Z</time></trkpt><trkpt lat="43.3147283" lon="11.3497983"><ele>249.0</ele><time>2026-04-03T13:46:56.269Z</time></trkpt><trkpt lat="43.3148383" lon="11.3497933"><ele>252.00000000000003</ele><time>2026-04-03T13:46:57.27Z</time></trkpt><trkpt lat="43.314945" lon="11.3497483"><ele>255.00000000000003</ele><time>2026-04-03T13:46:58.269Z</time></trkpt><trkpt lat="43.3150283" lon="11.349675"><ele>258.0</ele><time>2026-04-03T13:46:59.269Z</time></trkpt><trkpt lat="43.3150983" lon="11.3495717"><ele>261.0</ele><time>2026-04-03T13:47:00.27Z</time></trkpt><trkpt lat="43.3151317" lon="11.34944"><ele>261.6</ele><time>2026-04-03T13:47:01.269Z</time></trkpt><trkpt lat="43.3151417" lon="11.3493083"><ele>262.20000000000005</ele><time>2026-04-03T13:47:02.269Z</time></trkpt><trkpt lat="43.3151117" lon="11.3491767"><ele>262.79999999999995</ele><time>2026-04-03T13:47:03.269Z</time></trkpt><trkpt lat="43.3150633" lon="11.3490633"><ele>263.4</ele><time>2026-04-03T13:47:04.269Z</time></trkpt><trkpt lat="43.3149717" lon="11.348975"><ele>264.0</ele><time>2026-04-03T13:47:05.27Z</time></trkpt><trkpt lat="43.3148783" lon="11.3489117"><ele>265.4</ele><time>2026-04-03T13:47:06.269Z</time></trkpt><trkpt lat="43.3147917" lon="11.348855"><ele>266.79999999999995</ele><time>2026-04-03T13:47:07.269Z</time></trkpt><trkpt lat="43.3147033" lon="11.3487817"><ele>268.20000000000005</ele><time>2026-04-03T13:47:08.269Z</time></trkpt><trkpt lat="43.31463" lon="11.3486983"><ele>269.6</ele><time>2026-04-03T13:47:09.269Z</time></trkpt><trkpt lat="43.3145933" lon="11.3485683"><ele>271.0</ele><time>2026-04-03T13:47:10.269Z</time></trkpt><trkpt lat="43.3145717" lon="11.3484483"><ele>268.3333333333333</ele><time>2026-04-03T13:47:11.27Z</time></trkpt><trkpt lat="43.3145667" lon="11.348325"><ele>265.66666666666663</ele><time>2026-04-03T13:47:12.269Z</time></trkpt><trkpt lat="43.31458" lon="11.34821"><ele>263.0</ele><time>2026-04-03T13:47:13.269Z</time></trkpt><trkpt lat="43.314605" lon="11.3481067"><ele>260.3333333333333</ele><time>2026-04-03T13:47:14.27Z</time></trkpt><trkpt lat="43.3146383" lon="11.348015"><ele>257.6666666666667</ele><time>2026-04-03T13:47:15.269Z</time></trkpt><trkpt lat="43.3146733" lon="11.3479317"><ele>255.0</ele><time>2026-04-03T13:47:16.269Z</time></trkpt><trkpt lat="43.314715" lon="11.3478483"><ele>257.6666666666667</ele><time>2026-04-03T13:47:17.27Z</time></trkpt><trkpt lat="43.3147533" lon="11.3477617"><ele>260.3333333333333</ele><time>2026-04-03T13:47:18.27Z</time></trkpt><trkpt lat="43.3147983" lon="11.3476783"><ele>263.0</ele><time>2026-04-03T13:47:19.269Z</time></trkpt><trkpt lat="43.31485" lon="11.347595"><ele>265.66666666666663</ele><time>2026-04-03T13:47:20.269Z</time></trkpt><trkpt lat="43.3149033" lon="11.3475183"><ele>268.3333333333333</ele><time>2026-04-03T13:47:21.269Z</time></trkpt><trkpt lat="43.3149583" lon="11.3474317"><ele>271.0</ele><time>2026-04-03T13:47:22.269Z</time></trkpt><trkpt lat="43.31502" lon="11.3473383"><ele>271.0</ele><time>2026-04-03T13:47:23.269Z</time></trkpt><trkpt lat="43.31508" lon="11.34724"><ele>271.0</ele><time>2026-04-03T13:47:24.269Z</time></trkpt><trkpt lat="43.3151383" lon="11.3471483"><ele>271.0</ele><time>2026-04-03T13:47:25.269Z</time></trkpt><trkpt lat="43.3152033" lon="11.347055"><ele>271.0</ele><time>2026-04-03T13:47:26.269Z</time></trkpt><trkpt lat="43.3152617" lon="11.3469583"><ele>271.0</ele><time>2026-04-03T13:47:27.269Z</time></trkpt><trkpt lat="43.31532" lon="11.3468583"><ele>270.40000000000003</ele><time>2026-04-03T13:47:28.269Z</time></trkpt><trkpt lat="43.315385" lon="11.3467633"><ele>269.8</ele><time>2026-04-03T13:47:29.269Z</time></trkpt><trkpt lat="43.3154133" lon="11.3466583"><ele>269.20000000000005</ele><time>2026-04-03T13:47:30.269Z</time></trkpt><trkpt lat="43.31548" lon="11.3465567"><ele>268.6</ele><time>2026-04-03T13:47:31.269Z</time></trkpt><trkpt lat="43.3155433" lon="11.34646"><ele>268.0</ele><time>2026-04-03T13:47:32.269Z</time></trkpt><trkpt lat="43.315605" lon="11.34636"><ele>270.4</ele><time>2026-04-03T13:47:33.27Z</time></trkpt><trkpt lat="43.3156683" lon="11.3462567"><ele>272.8</ele><time>2026-04-03T13:47:34.269Z</time></trkpt><trkpt lat="43.31573" lon="11.3461533"><ele>275.2</ele><time>2026-04-03T13:47:35.269Z</time></trkpt><trkpt lat="43.31579" lon="11.3460483"><ele>277.6</ele><time>2026-04-03T13:47:36.269Z</time></trkpt><trkpt lat="43.31585" lon="11.3459367"><ele>280.0</ele><time>2026-04-03T13:47:37.268Z</time></trkpt><trkpt lat="43.3159133" lon="11.345825"><ele>280.0</ele><time>2026-04-03T13:47:38.268Z</time></trkpt><trkpt lat="43.31598" lon="11.3457133"><ele>280.0</ele><time>2026-04-03T13:47:39.268Z</time></trkpt><trkpt lat="43.3160383" lon="11.34561"><ele>280.0</ele><time>2026-04-03T13:47:40.268Z</time></trkpt><trkpt lat="43.31609" lon="11.3455233"><ele>280.0</ele><time>2026-04-03T13:47:41.268Z</time></trkpt><trkpt lat="43.3161433" lon="11.34544"><ele>280.0</ele><time>2026-04-03T13:47:42.268Z</time></trkpt><trkpt lat="43.3161933" lon="11.3453533"><ele>280.0</ele><time>2026-04-03T13:47:43.269Z</time></trkpt><trkpt lat="43.3162433" lon="11.345265"><ele>280.66666666666663</ele><time>2026-04-03T13:47:44.268Z</time></trkpt><trkpt lat="43.316295" lon="11.3451633"><ele>281.3333333333333</ele><time>2026-04-03T13:47:45.268Z</time></trkpt><trkpt lat="43.3163483" lon="11.345065"><ele>282.0</ele><time>2026-04-03T13:47:46.268Z</time></trkpt><trkpt lat="43.3164017" lon="11.34496"><ele>282.6666666666667</ele><time>2026-04-03T13:47:47.269Z</time></trkpt><trkpt lat="43.3164567" lon="11.3448633"><ele>283.33333333333337</ele><time>2026-04-03T13:47:48.269Z</time></trkpt><trkpt lat="43.3165067" lon="11.3447833"><ele>284.0</ele><time>2026-04-03T13:47:49.268Z</time></trkpt><trkpt lat="43.3165583" lon="11.3447067"><ele>284.0</ele><time>2026-04-03T13:47:50.269Z</time></trkpt><trkpt lat="43.3166033" lon="11.3446367"><ele>284.0</ele><time>2026-04-03T13:47:51.269Z</time></trkpt><trkpt lat="43.3166767" lon="11.3445167"><ele>284.0</ele><time>2026-04-03T13:47:53.269Z</time></trkpt><trkpt lat="43.3167567" lon="11.344425"><ele>284.0</ele><time>2026-04-03T13:47:55.268Z</time></trkpt><trkpt lat="43.316815" lon="11.3443517"><ele>284.0</ele><time>2026-04-03T13:47:57.268Z</time></trkpt><trkpt lat="43.3168517" lon="11.3442683"><ele>284.0</ele><time>2026-04-03T13:47:59.269Z</time></trkpt><trkpt lat="43.3168283" lon="11.3441733"><ele>284.0</ele><time>2026-04-03T13:48:01.268Z</time></trkpt><trkpt lat="43.31678" lon="11.3440967"><ele>284.0</ele><time>2026-04-03T13:48:03.269Z</time></trkpt><trkpt lat="43.3167167" lon="11.344055"><ele>284.0</ele><time>2026-04-03T13:48:05.268Z</time></trkpt><trkpt lat="43.3166617" lon="11.3439867"><ele>284.0</ele><time>2026-04-03T13:48:07.268Z</time></trkpt><trkpt lat="43.31663" lon="11.3438883"><ele>284.0</ele><time>2026-04-03T13:48:09.268Z</time></trkpt><trkpt lat="43.3166483" lon="11.3437717"><ele>284.0</ele><time>2026-04-03T13:48:11.269Z</time></trkpt><trkpt lat="43.31671" lon="11.34361"><ele>283.6666666666667</ele><time>2026-04-03T13:48:13.268Z</time></trkpt><trkpt lat="43.3167533" lon="11.3435033"><ele>283.33333333333337</ele><time>2026-04-03T13:48:14.269Z</time></trkpt><trkpt lat="43.316775" lon="11.3434033"><ele>283.0</ele><time>2026-04-03T13:48:15.268Z</time></trkpt><trkpt lat="43.3167883" lon="11.3433017"><ele>282.6666666666667</ele><time>2026-04-03T13:48:16.269Z</time></trkpt><trkpt lat="43.3168" lon="11.3432083"><ele>282.3333333333333</ele><time>2026-04-03T13:48:17.268Z</time></trkpt><trkpt lat="43.3168133" lon="11.343115"><ele>282.0</ele><time>2026-04-03T13:48:18.269Z</time></trkpt><trkpt lat="43.3168433" lon="11.3429533"><ele>281.0</ele><time>2026-04-03T13:48:20.269Z</time></trkpt><trkpt lat="43.3168633" lon="11.3428017"><ele>280.0</ele><time>2026-04-03T13:48:22.269Z</time></trkpt><trkpt lat="43.3168933" lon="11.3426633"><ele>279.0</ele><time>2026-04-03T13:48:24.268Z</time></trkpt><trkpt lat="43.3168917" lon="11.3425017"><ele>278.0</ele><time>2026-04-03T13:48:26.268Z</time></trkpt><trkpt lat="43.3168033" lon="11.3423417"><ele>278.0</ele><time>2026-04-03T13:48:28.268Z</time></trkpt><trkpt lat="43.31673" lon="11.3422783"><ele>278.0</ele><time>2026-04-03T13:48:29.268Z</time></trkpt><trkpt lat="43.31665" lon="11.3422483"><ele>278.0</ele><time>2026-04-03T13:48:30.268Z</time></trkpt><trkpt lat="43.316555" lon="11.3422333"><ele>278.0</ele><time>2026-04-03T13:48:31.268Z</time></trkpt><trkpt lat="43.3164617" lon="11.3422117"><ele>278.0</ele><time>2026-04-03T13:48:32.269Z</time></trkpt><trkpt lat="43.3163733" lon="11.3421917"><ele>278.0</ele><time>2026-04-03T13:48:33.268Z</time></trkpt><trkpt lat="43.31628" lon="11.3421733"><ele>278.5</ele><time>2026-04-03T13:48:34.269Z</time></trkpt><trkpt lat="43.316195" lon="11.34215"><ele>279.0</ele><time>2026-04-03T13:48:35.268Z</time></trkpt><trkpt lat="43.3161167" lon="11.3421383"><ele>279.5</ele><time>2026-04-03T13:48:36.268Z</time></trkpt><trkpt lat="43.3160383" lon="11.3421133"><ele>280.0</ele><time>2026-04-03T13:48:37.268Z</time></trkpt><trkpt lat="43.3159583" lon="11.3421"><ele>280.5</ele><time>2026-04-03T13:48:38.268Z</time></trkpt><trkpt lat="43.3158983" lon="11.3420667"><ele>281.0</ele><time>2026-04-03T13:48:39.268Z</time></trkpt><trkpt lat="43.3158317" lon="11.34205"><ele>281.0</ele><time>2026-04-03T13:48:40.268Z</time></trkpt><trkpt lat="43.3157533" lon="11.3420483"><ele>281.0</ele><time>2026-04-03T13:48:41.268Z</time></trkpt><trkpt lat="43.3156733" lon="11.3420567"><ele>281.0</ele><time>2026-04-03T13:48:42.268Z</time></trkpt><trkpt lat="43.315595" lon="11.3420883"><ele>281.0</ele><time>2026-04-03T13:48:43.269Z</time></trkpt><trkpt lat="43.3155183" lon="11.342135"><ele>281.0</ele><time>2026-04-03T13:48:44.268Z</time></trkpt><trkpt lat="43.3154483" lon="11.3421967"><ele>281.0</ele><time>2026-04-03T13:48:45.268Z</time></trkpt><trkpt lat="43.315375" lon="11.34226"><ele>280.6</ele><time>2026-04-03T13:48:46.268Z</time></trkpt><trkpt lat="43.3153" lon="11.3423283"><ele>280.20000000000005</ele><time>2026-04-03T13:48:47.268Z</time></trkpt><trkpt lat="43.31522" lon="11.3423967"><ele>279.79999999999995</ele><time>2026-04-03T13:48:48.268Z</time></trkpt><trkpt lat="43.3151433" lon="11.342465"><ele>279.4</ele><time>2026-04-03T13:48:49.268Z</time></trkpt><trkpt lat="43.3150683" lon="11.3425317"><ele>279.0</ele><time>2026-04-03T13:48:50.269Z</time></trkpt><trkpt lat="43.314995" lon="11.3426017"><ele>279.0</ele><time>2026-04-03T13:48:51.269Z</time></trkpt><trkpt lat="43.3149233" lon="11.34265"><ele>279.0</ele><time>2026-04-03T13:48:52.268Z</time></trkpt><trkpt lat="43.3148617" lon="11.342695"><ele>279.0</ele><time>2026-04-03T13:48:53.268Z</time></trkpt><trkpt lat="43.31475" lon="11.3427717"><ele>279.0</ele><time>2026-04-03T13:48:55.269Z</time></trkpt><trkpt lat="43.3146667" lon="11.3428117"><ele>279.0</ele><time>2026-04-03T13:48:57.268Z</time></trkpt><trkpt lat="43.3145933" lon="11.3428133"><ele>279.0</ele><time>2026-04-03T13:48:59.269Z</time></trkpt><trkpt lat="43.3145333" lon="11.342785"><ele>278.2</ele><time>2026-04-03T13:49:00.268Z</time></trkpt><trkpt lat="43.3144367" lon="11.34271"><ele>277.4</ele><time>2026-04-03T13:49:02.268Z</time></trkpt><trkpt lat="43.31436" lon="11.3425783"><ele>276.6</ele><time>2026-04-03T13:49:04.269Z</time></trkpt><trkpt lat="43.3143183" lon="11.3424917"><ele>275.8</ele><time>2026-04-03T13:49:05.268Z</time></trkpt><trkpt lat="43.3142867" lon="11.342395"><ele>275.0</ele><time>2026-04-03T13:49:06.268Z</time></trkpt><trkpt lat="43.3142717" lon="11.3423"><ele>276.0</ele><time>2026-04-03T13:49:07.269Z</time></trkpt><trkpt lat="43.3142483" lon="11.34221"><ele>277.0</ele><time>2026-04-03T13:49:08.268Z</time></trkpt><trkpt lat="43.314235" lon="11.3421067"><ele>278.0</ele><time>2026-04-03T13:49:09.268Z</time></trkpt><trkpt lat="43.3142117" lon="11.3420017"><ele>279.0</ele><time>2026-04-03T13:49:10.268Z</time></trkpt><trkpt lat="43.3141667" lon="11.3419083"><ele>280.0</ele><time>2026-04-03T13:49:11.269Z</time></trkpt><trkpt lat="43.3141167" lon="11.3418367"><ele>281.0</ele><time>2026-04-03T13:49:12.268Z</time></trkpt><trkpt lat="43.3140583" lon="11.3417833"><ele>281.00000000000006</ele><time>2026-04-03T13:49:13.268Z</time></trkpt><trkpt lat="43.3139917" lon="11.3417567"><ele>281.0</ele><time>2026-04-03T13:49:14.268Z</time></trkpt><trkpt lat="43.31393" lon="11.3417383"><ele>281.0</ele><time>2026-04-03T13:49:15.268Z</time></trkpt><trkpt lat="43.313865" lon="11.3417283"><ele>281.0</ele><time>2026-04-03T13:49:16.268Z</time></trkpt><trkpt lat="43.3137933" lon="11.3417167"><ele>281.0</ele><time>2026-04-03T13:49:17.268Z</time></trkpt><trkpt lat="43.31372" lon="11.3416983"><ele>281.00000000000006</ele><time>2026-04-03T13:49:18.269Z</time></trkpt><trkpt lat="43.3136417" lon="11.3416783"><ele>281.0</ele><time>2026-04-03T13:49:19.269Z</time></trkpt><trkpt lat="43.3135733" lon="11.34167"><ele>280.33333333333337</ele><time>2026-04-03T13:49:20.268Z</time></trkpt><trkpt lat="43.3134883" lon="11.3416483"><ele>279.6666666666667</ele><time>2026-04-03T13:49:21.268Z</time></trkpt><trkpt lat="43.313405" lon="11.34162"><ele>279.0</ele><time>2026-04-03T13:49:22.268Z</time></trkpt><trkpt lat="43.3133233" lon="11.341575"><ele>278.3333333333333</ele><time>2026-04-03T13:49:23.268Z</time></trkpt><trkpt lat="43.3132417" lon="11.34153"><ele>277.66666666666663</ele><time>2026-04-03T13:49:24.268Z</time></trkpt><trkpt lat="43.3131667" lon="11.3414783"><ele>277.0</ele><time>2026-04-03T13:49:25.268Z</time></trkpt><trkpt lat="43.31309" lon="11.34144"><ele>276.66666666666663</ele><time>2026-04-03T13:49:26.268Z</time></trkpt><trkpt lat="43.3130133" lon="11.3414083"><ele>276.3333333333333</ele><time>2026-04-03T13:49:27.269Z</time></trkpt><trkpt lat="43.312935" lon="11.3413817"><ele>276.0</ele><time>2026-04-03T13:49:28.268Z</time></trkpt><trkpt lat="43.31286" lon="11.3413517"><ele>275.6666666666667</ele><time>2026-04-03T13:49:29.268Z</time></trkpt><trkpt lat="43.312785" lon="11.3413367"><ele>275.33333333333337</ele><time>2026-04-03T13:49:30.268Z</time></trkpt><trkpt lat="43.3127217" lon="11.34131"><ele>275.0</ele><time>2026-04-03T13:49:31.268Z</time></trkpt><trkpt lat="43.3126183" lon="11.3412283"><ele>276.8</ele><time>2026-04-03T13:49:33.269Z</time></trkpt><trkpt lat="43.3125383" lon="11.3410933"><ele>278.6</ele><time>2026-04-03T13:49:35.268Z</time></trkpt><trkpt lat="43.31251" lon="11.3409967"><ele>280.4</ele><time>2026-04-03T13:49:36.269Z</time></trkpt><trkpt lat="43.3124817" lon="11.34089"><ele>282.2</ele><time>2026-04-03T13:49:37.268Z</time></trkpt><trkpt lat="43.31244" lon="11.3407933"><ele>284.0</ele><time>2026-04-03T13:49:38.268Z</time></trkpt><trkpt lat="43.3123933" lon="11.3406967"><ele>284.0</ele><time>2026-04-03T13:49:39.269Z</time></trkpt><trkpt lat="43.3123383" lon="11.3406"><ele>284.0</ele><time>2026-04-03T13:49:40.268Z</time></trkpt><trkpt lat="43.3122667" lon="11.3405133"><ele>284.0</ele><time>2026-04-03T13:49:41.269Z</time></trkpt><trkpt lat="43.3121933" lon="11.3404367"><ele>284.0</ele><time>2026-04-03T13:49:42.268Z</time></trkpt><trkpt lat="43.312135" lon="11.340375"><ele>284.0</ele><time>2026-04-03T13:49:43.268Z</time></trkpt><trkpt lat="43.3120317" lon="11.3403367"><ele>284.5</ele><time>2026-04-03T13:49:45.269Z</time></trkpt><trkpt lat="43.3119433" lon="11.340265"><ele>285.0</ele><time>2026-04-03T13:49:47.268Z</time></trkpt><trkpt lat="43.3118617" lon="11.3401783"><ele>285.5</ele><time>2026-04-03T13:49:49.268Z</time></trkpt><trkpt lat="43.3118067" lon="11.3400733"><ele>286.0</ele><time>2026-04-03T13:49:51.269Z</time></trkpt><trkpt lat="43.31179" lon="11.3399683"><ele>286.5</ele><time>2026-04-03T13:49:54.268Z</time></trkpt><trkpt lat="43.3117267" lon="11.339945"><ele>287.0</ele><time>2026-04-03T13:50:00.269Z</time></trkpt><trkpt lat="43.3117783" lon="11.3398317"><ele>288.0</ele><time>2026-04-03T13:50:19.269Z</time></trkpt><trkpt lat="43.31178" lon="11.3397117"><ele>289.0</ele><time>2026-04-03T13:50:22.269Z</time></trkpt><trkpt lat="43.3117867" lon="11.3395833"><ele>290.0</ele><time>2026-04-03T13:50:25.268Z</time></trkpt><trkpt lat="43.311785" lon="11.3394917"><ele>291.0</ele><time>2026-04-03T13:50:27.268Z</time></trkpt><trkpt lat="43.3117517" lon="11.33937"><ele>292.0</ele><time>2026-04-03T13:50:30.268Z</time></trkpt><trkpt lat="43.311655" lon="11.3393117"><ele>293.0</ele><time>2026-04-03T13:50:32.268Z</time></trkpt><trkpt lat="43.3115917" lon="11.3393117"><ele>293.0</ele><time>2026-04-03T13:50:33.269Z</time></trkpt><trkpt lat="43.311455" lon="11.3393233"><ele>293.0</ele><time>2026-04-03T13:50:35.268Z</time></trkpt><trkpt lat="43.3113783" lon="11.3393283"><ele>293.0</ele><time>2026-04-03T13:50:36.268Z</time></trkpt><trkpt lat="43.3112983" lon="11.339335"><ele>293.0</ele><time>2026-04-03T13:50:37.269Z</time></trkpt><trkpt lat="43.3112217" lon="11.3393383"><ele>293.0</ele><time>2026-04-03T13:50:38.268Z</time></trkpt><trkpt lat="43.3111483" lon="11.339325"><ele>293.0</ele><time>2026-04-03T13:50:39.268Z</time></trkpt><trkpt lat="43.3110833" lon="11.3393117"><ele>292.1428571428571</ele><time>2026-04-03T13:50:40.268Z</time></trkpt><trkpt lat="43.3110133" lon="11.3393117"><ele>291.2857142857143</ele><time>2026-04-03T13:50:41.268Z</time></trkpt><trkpt lat="43.310945" lon="11.3393117"><ele>290.42857142857144</ele><time>2026-04-03T13:50:42.268Z</time></trkpt><trkpt lat="43.3108817" lon="11.3393033"><ele>289.57142857142856</ele><time>2026-04-03T13:50:43.268Z</time></trkpt><trkpt lat="43.310815" lon="11.3392967"><ele>288.7142857142857</ele><time>2026-04-03T13:50:44.268Z</time></trkpt><trkpt lat="43.3107483" lon="11.3392967"><ele>287.85714285714283</ele><time>2026-04-03T13:50:45.268Z</time></trkpt><trkpt lat="43.3106833" lon="11.3392867"><ele>287.0</ele><time>2026-04-03T13:50:46.268Z</time></trkpt><trkpt lat="43.3106167" lon="11.3392733"><ele>286.4</ele><time>2026-04-03T13:50:47.268Z</time></trkpt><trkpt lat="43.31054" lon="11.339265"><ele>285.79999999999995</ele><time>2026-04-03T13:50:48.268Z</time></trkpt><trkpt lat="43.3104533" lon="11.3392467"><ele>285.2</ele><time>2026-04-03T13:50:49.268Z</time></trkpt><trkpt lat="43.3103583" lon="11.33923"><ele>284.59999999999997</ele><time>2026-04-03T13:50:50.269Z</time></trkpt><trkpt lat="43.3102533" lon="11.3392133"><ele>284.0</ele><time>2026-04-03T13:50:51.268Z</time></trkpt><trkpt lat="43.310145" lon="11.3391933"><ele>284.0</ele><time>2026-04-03T13:50:52.269Z</time></trkpt><trkpt lat="43.3100283" lon="11.3391833"><ele>284.0</ele><time>2026-04-03T13:50:53.268Z</time></trkpt><trkpt lat="43.3098983" lon="11.3391483"><ele>284.0</ele><time>2026-04-03T13:50:54.268Z</time></trkpt><trkpt lat="43.3097717" lon="11.3391217"><ele>284.0</ele><time>2026-04-03T13:50:55.268Z</time></trkpt><trkpt lat="43.3096517" lon="11.3391033"><ele>283.4</ele><time>2026-04-03T13:50:56.268Z</time></trkpt><trkpt lat="43.309545" lon="11.3390833"><ele>282.79999999999995</ele><time>2026-04-03T13:50:57.268Z</time></trkpt><trkpt lat="43.3094367" lon="11.33907"><ele>282.20000000000005</ele><time>2026-04-03T13:50:58.268Z</time></trkpt><trkpt lat="43.3093367" lon="11.3390667"><ele>281.6</ele><time>2026-04-03T13:50:59.268Z</time></trkpt><trkpt lat="43.3092483" lon="11.33906"><ele>281.0</ele><time>2026-04-03T13:51:00.268Z</time></trkpt><trkpt lat="43.309165" lon="11.339045"><ele>281.0</ele><time>2026-04-03T13:51:01.268Z</time></trkpt><trkpt lat="43.309075" lon="11.3390533"><ele>281.0</ele><time>2026-04-03T13:51:02.269Z</time></trkpt><trkpt lat="43.30899" lon="11.339055"><ele>281.0</ele><time>2026-04-03T13:51:03.268Z</time></trkpt><trkpt lat="43.3089" lon="11.3390383"><ele>281.0</ele><time>2026-04-03T13:51:04.268Z</time></trkpt><trkpt lat="43.30881" lon="11.3390233"><ele>281.0</ele><time>2026-04-03T13:51:05.268Z</time></trkpt><trkpt lat="43.3087267" lon="11.3390083"><ele>281.0</ele><time>2026-04-03T13:51:06.268Z</time></trkpt><trkpt lat="43.3086467" lon="11.3389967"><ele>280.0</ele><time>2026-04-03T13:51:07.268Z</time></trkpt><trkpt lat="43.3085683" lon="11.338995"><ele>279.0</ele><time>2026-04-03T13:51:08.268Z</time></trkpt><trkpt lat="43.3084883" lon="11.3390033"><ele>278.0</ele><time>2026-04-03T13:51:09.268Z</time></trkpt><trkpt lat="43.3084083" lon="11.33899"><ele>277.0</ele><time>2026-04-03T13:51:10.268Z</time></trkpt><trkpt lat="43.3083267" lon="11.33899"><ele>276.0</ele><time>2026-04-03T13:51:11.269Z</time></trkpt><trkpt lat="43.308245" lon="11.3389883"><ele>275.0</ele><time>2026-04-03T13:51:12.268Z</time></trkpt><trkpt lat="43.30816" lon="11.338995"><ele>276.1666666666667</ele><time>2026-04-03T13:51:13.268Z</time></trkpt><trkpt lat="43.3080733" lon="11.3389967"><ele>277.33333333333337</ele><time>2026-04-03T13:51:14.269Z</time></trkpt><trkpt lat="43.3079867" lon="11.3390017"><ele>278.5</ele><time>2026-04-03T13:51:15.268Z</time></trkpt><trkpt lat="43.3079067" lon="11.3390067"><ele>279.6666666666667</ele><time>2026-04-03T13:51:16.269Z</time></trkpt><trkpt lat="43.3078267" lon="11.3390117"><ele>280.8333333333333</ele><time>2026-04-03T13:51:17.268Z</time></trkpt><trkpt lat="43.3077583" lon="11.33902"><ele>282.0</ele><time>2026-04-03T13:51:18.268Z</time></trkpt><trkpt lat="43.3076833" lon="11.3390183"><ele>282.0</ele><time>2026-04-03T13:51:19.268Z</time></trkpt><trkpt lat="43.307605" lon="11.33904"><ele>282.0</ele><time>2026-04-03T13:51:20.268Z</time></trkpt><trkpt lat="43.30753" lon="11.33906"><ele>282.0</ele><time>2026-04-03T13:51:21.268Z</time></trkpt><trkpt lat="43.3074517" lon="11.3390867"><ele>282.0</ele><time>2026-04-03T13:51:22.268Z</time></trkpt><trkpt lat="43.3073717" lon="11.3391083"><ele>282.0</ele><time>2026-04-03T13:51:23.268Z</time></trkpt><trkpt lat="43.3072883" lon="11.3391283"><ele>282.0</ele><time>2026-04-03T13:51:24.268Z</time></trkpt><trkpt lat="43.307205" lon="11.3391533"><ele>281.8</ele><time>2026-04-03T13:51:25.268Z</time></trkpt><trkpt lat="43.3071233" lon="11.3391833"><ele>281.6</ele><time>2026-04-03T13:51:26.268Z</time></trkpt><trkpt lat="43.30704" lon="11.3392117"><ele>281.40000000000003</ele><time>2026-04-03T13:51:27.268Z</time></trkpt><trkpt lat="43.3069483" lon="11.3392317"><ele>281.2</ele><time>2026-04-03T13:51:28.269Z</time></trkpt><trkpt lat="43.3068433" lon="11.3392433"><ele>281.0</ele><time>2026-04-03T13:51:29.268Z</time></trkpt><trkpt lat="43.30674" lon="11.3392567"><ele>281.0</ele><time>2026-04-03T13:51:30.268Z</time></trkpt><trkpt lat="43.3066667" lon="11.33918"><ele>281.0</ele><time>2026-04-03T13:51:31.268Z</time></trkpt><trkpt lat="43.3065767" lon="11.3391467"><ele>281.0</ele><time>2026-04-03T13:51:32.268Z</time></trkpt><trkpt lat="43.3064833" lon="11.339125"><ele>281.0</ele><time>2026-04-03T13:51:33.268Z</time></trkpt><trkpt lat="43.3063933" lon="11.339095"><ele>281.0</ele><time>2026-04-03T13:51:34.269Z</time></trkpt><trkpt lat="43.3063117" lon="11.339055"><ele>280.8</ele><time>2026-04-03T13:51:35.269Z</time></trkpt><trkpt lat="43.3062333" lon="11.3389767"><ele>280.6</ele><time>2026-04-03T13:51:36.268Z</time></trkpt><trkpt lat="43.3061633" lon="11.338885"><ele>280.4</ele><time>2026-04-03T13:51:37.268Z</time></trkpt><trkpt lat="43.3060933" lon="11.3388033"><ele>280.2</ele><time>2026-04-03T13:51:38.268Z</time></trkpt><trkpt lat="43.3060317" lon="11.3387233"><ele>280.0</ele><time>2026-04-03T13:51:39.269Z</time></trkpt><trkpt lat="43.30597" lon="11.338635"><ele>280.0</ele><time>2026-04-03T13:51:40.268Z</time></trkpt><trkpt lat="43.305905" lon="11.338545"><ele>280.0</ele><time>2026-04-03T13:51:41.268Z</time></trkpt><trkpt lat="43.3058367" lon="11.3384583"><ele>280.0</ele><time>2026-04-03T13:51:42.268Z</time></trkpt><trkpt lat="43.3057717" lon="11.3383667"><ele>280.0</ele><time>2026-04-03T13:51:43.269Z</time></trkpt><trkpt lat="43.3057117" lon="11.3382817"><ele>280.0</ele><time>2026-04-03T13:51:44.268Z</time></trkpt><trkpt lat="43.3056583" lon="11.338195"><ele>280.0</ele><time>2026-04-03T13:51:45.268Z</time></trkpt><trkpt lat="43.3055983" lon="11.33811"><ele>279.8333333333333</ele><time>2026-04-03T13:51:46.268Z</time></trkpt><trkpt lat="43.3055317" lon="11.3380183"><ele>279.66666666666663</ele><time>2026-04-03T13:51:47.268Z</time></trkpt><trkpt lat="43.3054617" lon="11.3379333"><ele>279.5</ele><time>2026-04-03T13:51:48.268Z</time></trkpt><trkpt lat="43.305405" lon="11.3378517"><ele>279.3333333333333</ele><time>2026-04-03T13:51:49.269Z</time></trkpt><trkpt lat="43.3053467" lon="11.3377667"><ele>279.1666666666667</ele><time>2026-04-03T13:51:50.269Z</time></trkpt><trkpt lat="43.30529" lon="11.3376733"><ele>279.0</ele><time>2026-04-03T13:51:51.268Z</time></trkpt><trkpt lat="43.3052217" lon="11.337605"><ele>279.0</ele><time>2026-04-03T13:51:52.269Z</time></trkpt><trkpt lat="43.3051367" lon="11.3375317"><ele>279.0</ele><time>2026-04-03T13:51:53.269Z</time></trkpt><trkpt lat="43.30505" lon="11.3374783"><ele>279.0</ele><time>2026-04-03T13:51:54.268Z</time></trkpt><trkpt lat="43.3049583" lon="11.33743"><ele>279.0</ele><time>2026-04-03T13:51:55.269Z</time></trkpt><trkpt lat="43.3048633" lon="11.3373767"><ele>279.0</ele><time>2026-04-03T13:51:56.268Z</time></trkpt><trkpt lat="43.304775" lon="11.33732"><ele>277.8</ele><time>2026-04-03T13:51:57.269Z</time></trkpt><trkpt lat="43.3046867" lon="11.3372667"><ele>276.59999999999997</ele><time>2026-04-03T13:51:58.269Z</time></trkpt><trkpt lat="43.3045983" lon="11.3372067"><ele>275.4</ele><time>2026-04-03T13:51:59.268Z</time></trkpt><trkpt lat="43.3045183" lon="11.3371483"><ele>274.2</ele><time>2026-04-03T13:52:00.268Z</time></trkpt><trkpt lat="43.3044483" lon="11.33709"><ele>273.0</ele><time>2026-04-03T13:52:01.269Z</time></trkpt><trkpt lat="43.304375" lon="11.337025"><ele>272.6</ele><time>2026-04-03T13:52:02.268Z</time></trkpt><trkpt lat="43.304305" lon="11.3369817"><ele>272.20000000000005</ele><time>2026-04-03T13:52:03.268Z</time></trkpt><trkpt lat="43.3042233" lon="11.3369483"><ele>271.8</ele><time>2026-04-03T13:52:04.268Z</time></trkpt><trkpt lat="43.3041367" lon="11.33691"><ele>271.40000000000003</ele><time>2026-04-03T13:52:05.268Z</time></trkpt><trkpt lat="43.30403" lon="11.336935"><ele>271.0</ele><time>2026-04-03T13:52:06.269Z</time></trkpt><trkpt lat="43.3039217" lon="11.3369983"><ele>270.8</ele><time>2026-04-03T13:52:07.268Z</time></trkpt><trkpt lat="43.3038217" lon="11.33704"><ele>270.6</ele><time>2026-04-03T13:52:08.268Z</time></trkpt><trkpt lat="43.3037417" lon="11.337095"><ele>270.4</ele><time>2026-04-03T13:52:09.268Z</time></trkpt><trkpt lat="43.3036583" lon="11.337145"><ele>270.2</ele><time>2026-04-03T13:52:10.268Z</time></trkpt><trkpt lat="43.3035533" lon="11.3371733"><ele>270.0</ele><time>2026-04-03T13:52:11.268Z</time></trkpt><trkpt lat="43.3034433" lon="11.3372233"><ele>270.0</ele><time>2026-04-03T13:52:12.268Z</time></trkpt><trkpt lat="43.3033233" lon="11.3373017"><ele>270.0</ele><time>2026-04-03T13:52:13.268Z</time></trkpt><trkpt lat="43.303185" lon="11.33738"><ele>270.0</ele><time>2026-04-03T13:52:14.268Z</time></trkpt><trkpt lat="43.30304" lon="11.3374433"><ele>270.0</ele><time>2026-04-03T13:52:15.268Z</time></trkpt><trkpt lat="43.3028983" lon="11.3375217"><ele>269.5</ele><time>2026-04-03T13:52:16.269Z</time></trkpt><trkpt lat="43.302755" lon="11.337615"><ele>269.0</ele><time>2026-04-03T13:52:17.268Z</time></trkpt><trkpt lat="43.30264" lon="11.3377067"><ele>268.5</ele><time>2026-04-03T13:52:18.268Z</time></trkpt><trkpt lat="43.30253" lon="11.3377967"><ele>268.0</ele><time>2026-04-03T13:52:19.268Z</time></trkpt><trkpt lat="43.3024367" lon="11.3378533"><ele>268.0</ele><time>2026-04-03T13:52:20.268Z</time></trkpt><trkpt lat="43.3023233" lon="11.3378983"><ele>268.0</ele><time>2026-04-03T13:52:21.269Z</time></trkpt><trkpt lat="43.3021983" lon="11.3379317"><ele>268.0</ele><time>2026-04-03T13:52:22.268Z</time></trkpt><trkpt lat="43.3020717" lon="11.3379683"><ele>268.0</ele><time>2026-04-03T13:52:23.269Z</time></trkpt><trkpt lat="43.30195" lon="11.338"><ele>265.0</ele><time>2026-04-03T13:52:24.268Z</time></trkpt><trkpt lat="43.3018267" lon="11.3380267"><ele>262.0</ele><time>2026-04-03T13:52:25.268Z</time></trkpt><trkpt lat="43.3016983" lon="11.3380333"><ele>259.0</ele><time>2026-04-03T13:52:26.268Z</time></trkpt><trkpt lat="43.3015617" lon="11.3380383"><ele>256.0</ele><time>2026-04-03T13:52:27.268Z</time></trkpt><trkpt lat="43.3014367" lon="11.3380133"><ele>255.25</ele><time>2026-04-03T13:52:28.268Z</time></trkpt><trkpt lat="43.3013233" lon="11.3379667"><ele>254.5</ele><time>2026-04-03T13:52:29.268Z</time></trkpt><trkpt lat="43.3012083" lon="11.3378983"><ele>253.75</ele><time>2026-04-03T13:52:30.268Z</time></trkpt><trkpt lat="43.3010967" lon="11.3378217"><ele>253.0</ele><time>2026-04-03T13:52:31.269Z</time></trkpt><trkpt lat="43.3009967" lon="11.3377317"><ele>253.0</ele><time>2026-04-03T13:52:32.268Z</time></trkpt><trkpt lat="43.300905" lon="11.3376433"><ele>253.0</ele><time>2026-04-03T13:52:33.269Z</time></trkpt><trkpt lat="43.30081" lon="11.33756"><ele>253.0</ele><time>2026-04-03T13:52:34.268Z</time></trkpt><trkpt lat="43.3007183" lon="11.3374833"><ele>253.0</ele><time>2026-04-03T13:52:35.268Z</time></trkpt><trkpt lat="43.30062" lon="11.337405"><ele>253.0</ele><time>2026-04-03T13:52:36.268Z</time></trkpt><trkpt lat="43.3005167" lon="11.3373483"><ele>253.25</ele><time>2026-04-03T13:52:37.268Z</time></trkpt><trkpt lat="43.30041" lon="11.3373017"><ele>253.5</ele><time>2026-04-03T13:52:38.268Z</time></trkpt><trkpt lat="43.300295" lon="11.3372667"><ele>253.75</ele><time>2026-04-03T13:52:39.268Z</time></trkpt><trkpt lat="43.30018" lon="11.3372383"><ele>254.0</ele><time>2026-04-03T13:52:40.268Z</time></trkpt><trkpt lat="43.30007" lon="11.337215"><ele>252.5</ele><time>2026-04-03T13:52:41.269Z</time></trkpt><trkpt lat="43.2999517" lon="11.3371983"><ele>251.0</ele><time>2026-04-03T13:52:42.268Z</time></trkpt><trkpt lat="43.2998367" lon="11.337175"><ele>249.5</ele><time>2026-04-03T13:52:43.268Z</time></trkpt><trkpt lat="43.29972" lon="11.3371567"><ele>248.0</ele><time>2026-04-03T13:52:44.269Z</time></trkpt><trkpt lat="43.2996017" lon="11.337155"><ele>248.0</ele><time>2026-04-03T13:52:45.268Z</time></trkpt><trkpt lat="43.2994733" lon="11.3371683"><ele>248.0</ele><time>2026-04-03T13:52:46.268Z</time></trkpt><trkpt lat="43.299335" lon="11.337185"><ele>248.0</ele><time>2026-04-03T13:52:47.268Z</time></trkpt><trkpt lat="43.2992033" lon="11.3372067"><ele>248.0</ele><time>2026-04-03T13:52:48.268Z</time></trkpt><trkpt lat="43.2990783" lon="11.337245"><ele>248.0</ele><time>2026-04-03T13:52:49.268Z</time></trkpt><trkpt lat="43.2989567" lon="11.3372833"><ele>248.0</ele><time>2026-04-03T13:52:50.268Z</time></trkpt><trkpt lat="43.2988283" lon="11.3373467"><ele>248.0</ele><time>2026-04-03T13:52:51.268Z</time></trkpt><trkpt lat="43.2987033" lon="11.3374183"><ele>248.0</ele><time>2026-04-03T13:52:52.268Z</time></trkpt><trkpt lat="43.2985633" lon="11.3375117"><ele>247.0</ele><time>2026-04-03T13:52:53.268Z</time></trkpt><trkpt lat="43.2984417" lon="11.3376133"><ele>246.0</ele><time>2026-04-03T13:52:54.268Z</time></trkpt><trkpt lat="43.2983183" lon="11.337715"><ele>245.0</ele><time>2026-04-03T13:52:55.268Z</time></trkpt><trkpt lat="43.2982067" lon="11.3378233"><ele>244.0</ele><time>2026-04-03T13:52:56.268Z</time></trkpt><trkpt lat="43.2980983" lon="11.33795"><ele>243.25</ele><time>2026-04-03T13:52:57.268Z</time></trkpt><trkpt lat="43.2979883" lon="11.338085"><ele>242.5</ele><time>2026-04-03T13:52:58.268Z</time></trkpt><trkpt lat="43.2978767" lon="11.3382167"><ele>241.75</ele><time>2026-04-03T13:52:59.268Z</time></trkpt><trkpt lat="43.2977717" lon="11.338345"><ele>241.0</ele><time>2026-04-03T13:53:00.268Z</time></trkpt><trkpt lat="43.29768" lon="11.3384867"><ele>241.0</ele><time>2026-04-03T13:53:01.268Z</time></trkpt><trkpt lat="43.2975867" lon="11.3386283"><ele>241.0</ele><time>2026-04-03T13:53:02.268Z</time></trkpt><trkpt lat="43.2974933" lon="11.3387617"><ele>241.0</ele><time>2026-04-03T13:53:03.268Z</time></trkpt><trkpt lat="43.2973967" lon="11.338895"><ele>241.0</ele><time>2026-04-03T13:53:04.268Z</time></trkpt><trkpt lat="43.2972967" lon="11.3390317"><ele>240.75</ele><time>2026-04-03T13:53:05.268Z</time></trkpt><trkpt lat="43.29719" lon="11.3391683"><ele>240.5</ele><time>2026-04-03T13:53:06.268Z</time></trkpt><trkpt lat="43.2970867" lon="11.3393083"><ele>240.25</ele><time>2026-04-03T13:53:07.268Z</time></trkpt><trkpt lat="43.29698" lon="11.339455"><ele>240.0</ele><time>2026-04-03T13:53:08.268Z</time></trkpt><trkpt lat="43.2968783" lon="11.339605"><ele>240.66666666666669</ele><time>2026-04-03T13:53:09.268Z</time></trkpt><trkpt lat="43.2967783" lon="11.3397617"><ele>241.33333333333334</ele><time>2026-04-03T13:53:10.268Z</time></trkpt><trkpt lat="43.2966783" lon="11.3399183"><ele>242.0</ele><time>2026-04-03T13:53:11.268Z</time></trkpt><trkpt lat="43.2965767" lon="11.3400733"><ele>242.0</ele><time>2026-04-03T13:53:12.268Z</time></trkpt><trkpt lat="43.2964867" lon="11.34022"><ele>242.0</ele><time>2026-04-03T13:53:13.268Z</time></trkpt><trkpt lat="43.296405" lon="11.3403633"><ele>242.0</ele><time>2026-04-03T13:53:14.268Z</time></trkpt><trkpt lat="43.2963367" lon="11.3405083"><ele>242.0</ele><time>2026-04-03T13:53:15.268Z</time></trkpt><trkpt lat="43.296275" lon="11.34064"><ele>242.50000000000003</ele><time>2026-04-03T13:53:16.268Z</time></trkpt><trkpt lat="43.2962183" lon="11.3407667"><ele>243.0</ele><time>2026-04-03T13:53:17.269Z</time></trkpt><trkpt lat="43.2961767" lon="11.3408783"><ele>243.5</ele><time>2026-04-03T13:53:18.268Z</time></trkpt><trkpt lat="43.2961317" lon="11.34098"><ele>244.0</ele><time>2026-04-03T13:53:19.268Z</time></trkpt><trkpt lat="43.2960933" lon="11.341075"><ele>244.50000000000003</ele><time>2026-04-03T13:53:20.268Z</time></trkpt><trkpt lat="43.29606" lon="11.3411683"><ele>245.0</ele><time>2026-04-03T13:53:21.268Z</time></trkpt><trkpt lat="43.2960233" lon="11.3413117"><ele>245.0</ele><time>2026-04-03T13:53:23.268Z</time></trkpt><trkpt lat="43.2959933" lon="11.3414033"><ele>245.0</ele><time>2026-04-03T13:53:26.268Z</time></trkpt><trkpt lat="43.2959583" lon="11.3415117"><ele>245.0</ele><time>2026-04-03T13:53:32.268Z</time></trkpt><trkpt lat="43.2958733" lon="11.3416883"><ele>245.0</ele><time>2026-04-03T13:53:34.268Z</time></trkpt><trkpt lat="43.2958067" lon="11.341815"><ele>245.0</ele><time>2026-04-03T13:53:35.268Z</time></trkpt><trkpt lat="43.2957317" lon="11.3419483"><ele>245.0</ele><time>2026-04-03T13:53:36.268Z</time></trkpt><trkpt lat="43.2956433" lon="11.3420833"><ele>245.0</ele><time>2026-04-03T13:53:37.268Z</time></trkpt><trkpt lat="43.2955383" lon="11.342205"><ele>245.0</ele><time>2026-04-03T13:53:38.269Z</time></trkpt><trkpt lat="43.2954267" lon="11.3423283"><ele>245.0</ele><time>2026-04-03T13:53:39.269Z</time></trkpt><trkpt lat="43.2953117" lon="11.3424467"><ele>245.0</ele><time>2026-04-03T13:53:40.268Z</time></trkpt><trkpt lat="43.2951883" lon="11.3425583"><ele>245.0</ele><time>2026-04-03T13:53:41.268Z</time></trkpt><trkpt lat="43.295055" lon="11.342665"><ele>245.0</ele><time>2026-04-03T13:53:42.268Z</time></trkpt><trkpt lat="43.2949133" lon="11.3427617"><ele>245.0</ele><time>2026-04-03T13:53:43.268Z</time></trkpt><trkpt lat="43.2947633" lon="11.3428433"><ele>245.0</ele><time>2026-04-03T13:53:44.268Z</time></trkpt><trkpt lat="43.294605" lon="11.3429117"><ele>245.0</ele><time>2026-04-03T13:53:45.268Z</time></trkpt><trkpt lat="43.2944517" lon="11.34298"><ele>244.75</ele><time>2026-04-03T13:53:46.268Z</time></trkpt><trkpt lat="43.2943" lon="11.3430433"><ele>244.5</ele><time>2026-04-03T13:53:47.269Z</time></trkpt><trkpt lat="43.2941617" lon="11.3430983"><ele>244.25</ele><time>2026-04-03T13:53:48.268Z</time></trkpt><trkpt lat="43.294025" lon="11.3431317"><ele>244.0</ele><time>2026-04-03T13:53:49.268Z</time></trkpt><trkpt lat="43.2938983" lon="11.3431617"><ele>243.75</ele><time>2026-04-03T13:53:50.268Z</time></trkpt><trkpt lat="43.29377" lon="11.3431883"><ele>243.5</ele><time>2026-04-03T13:53:51.269Z</time></trkpt><trkpt lat="43.2936417" lon="11.3432167"><ele>243.25</ele><time>2026-04-03T13:53:52.268Z</time></trkpt><trkpt lat="43.2935117" lon="11.343245"><ele>243.0</ele><time>2026-04-03T13:53:53.269Z</time></trkpt><trkpt lat="43.2933817" lon="11.34328"><ele>243.0</ele><time>2026-04-03T13:53:54.268Z</time></trkpt><trkpt lat="43.2932483" lon="11.343325"><ele>243.0</ele><time>2026-04-03T13:53:55.269Z</time></trkpt><trkpt lat="43.2931067" lon="11.3433467"><ele>243.0</ele><time>2026-04-03T13:53:56.268Z</time></trkpt><trkpt lat="43.292985" lon="11.3433833"><ele>243.0</ele><time>2026-04-03T13:53:57.267Z</time></trkpt><trkpt lat="43.292875" lon="11.34342"><ele>244.0</ele><time>2026-04-03T13:53:58.267Z</time></trkpt><trkpt lat="43.2927633" lon="11.3434617"><ele>245.0</ele><time>2026-04-03T13:53:59.267Z</time></trkpt><trkpt lat="43.2926567" lon="11.3435083"><ele>246.0</ele><time>2026-04-03T13:54:00.267Z</time></trkpt><trkpt lat="43.292545" lon="11.3435517"><ele>247.0</ele><time>2026-04-03T13:54:01.268Z</time></trkpt><trkpt lat="43.29243" lon="11.34359"><ele>247.0</ele><time>2026-04-03T13:54:02.268Z</time></trkpt><trkpt lat="43.292315" lon="11.3436283"><ele>247.0</ele><time>2026-04-03T13:54:03.267Z</time></trkpt><trkpt lat="43.2921967" lon="11.3436783"><ele>247.0</ele><time>2026-04-03T13:54:04.267Z</time></trkpt><trkpt lat="43.2920767" lon="11.3437217"><ele>247.0</ele><time>2026-04-03T13:54:05.267Z</time></trkpt><trkpt lat="43.2919567" lon="11.3437517"><ele>246.25</ele><time>2026-04-03T13:54:06.267Z</time></trkpt><trkpt lat="43.2918483" lon="11.3437983"><ele>245.5</ele><time>2026-04-03T13:54:07.267Z</time></trkpt><trkpt lat="43.2917133" lon="11.3438383"><ele>244.75</ele><time>2026-04-03T13:54:08.268Z</time></trkpt><trkpt lat="43.291595" lon="11.34386"><ele>244.0</ele><time>2026-04-03T13:54:09.268Z</time></trkpt><trkpt lat="43.29149" lon="11.3438867"><ele>244.0</ele><time>2026-04-03T13:54:10.267Z</time></trkpt><trkpt lat="43.29137" lon="11.3439017"><ele>244.0</ele><time>2026-04-03T13:54:11.267Z</time></trkpt><trkpt lat="43.2912467" lon="11.34391"><ele>244.0</ele><time>2026-04-03T13:54:12.268Z</time></trkpt><trkpt lat="43.29112" lon="11.3439167"><ele>244.0</ele><time>2026-04-03T13:54:13.267Z</time></trkpt><trkpt lat="43.29101" lon="11.34392"><ele>243.99999999999997</ele><time>2026-04-03T13:54:14.268Z</time></trkpt><trkpt lat="43.2909083" lon="11.3439217"><ele>244.0</ele><time>2026-04-03T13:54:15.267Z</time></trkpt><trkpt lat="43.2908133" lon="11.3439167"><ele>244.0</ele><time>2026-04-03T13:54:16.267Z</time></trkpt><trkpt lat="43.29073" lon="11.343915"><ele>244.0</ele><time>2026-04-03T13:54:17.267Z</time></trkpt><trkpt lat="43.29065" lon="11.3439183"><ele>243.99999999999997</ele><time>2026-04-03T13:54:18.267Z</time></trkpt><trkpt lat="43.2905667" lon="11.3439217"><ele>244.0</ele><time>2026-04-03T13:54:19.267Z</time></trkpt><trkpt lat="43.290485" lon="11.34392"><ele>244.49999999999997</ele><time>2026-04-03T13:54:20.267Z</time></trkpt><trkpt lat="43.290405" lon="11.34392"><ele>245.0</ele><time>2026-04-03T13:54:21.267Z</time></trkpt><trkpt lat="43.2903333" lon="11.3439167"><ele>245.5</ele><time>2026-04-03T13:54:22.267Z</time></trkpt><trkpt lat="43.290265" lon="11.3439133"><ele>246.0</ele><time>2026-04-03T13:54:23.267Z</time></trkpt><trkpt lat="43.290205" lon="11.3438817"><ele>246.49999999999997</ele><time>2026-04-03T13:54:24.268Z</time></trkpt><trkpt lat="43.2901133" lon="11.3438417"><ele>247.0</ele><time>2026-04-03T13:54:26.268Z</time></trkpt><trkpt lat="43.2900317" lon="11.3438233"><ele>246.99999999999997</ele><time>2026-04-03T13:54:29.267Z</time></trkpt><trkpt lat="43.289955" lon="11.3438017"><ele>247.0</ele><time>2026-04-03T13:54:32.267Z</time></trkpt><trkpt lat="43.2898683" lon="11.3437817"><ele>247.0</ele><time>2026-04-03T13:54:35.268Z</time></trkpt><trkpt lat="43.289785" lon="11.343765"><ele>247.0</ele><time>2026-04-03T13:54:38.267Z</time></trkpt><trkpt lat="43.2897217" lon="11.3437583"><ele>246.99999999999997</ele><time>2026-04-03T13:54:40.267Z</time></trkpt><trkpt lat="43.2896483" lon="11.3437517"><ele>247.0</ele><time>2026-04-03T13:54:42.267Z</time></trkpt><trkpt lat="43.2895833" lon="11.343745"><ele>247.16666666666666</ele><time>2026-04-03T13:54:44.267Z</time></trkpt><trkpt lat="43.28951" lon="11.3437583"><ele>247.33333333333331</ele><time>2026-04-03T13:54:46.267Z</time></trkpt><trkpt lat="43.289435" lon="11.34377"><ele>247.5</ele><time>2026-04-03T13:54:48.267Z</time></trkpt><trkpt lat="43.28937" lon="11.3437783"><ele>247.66666666666669</ele><time>2026-04-03T13:54:50.268Z</time></trkpt><trkpt lat="43.2892767" lon="11.3438067"><ele>247.83333333333334</ele><time>2026-04-03T13:54:58.267Z</time></trkpt><trkpt lat="43.2891617" lon="11.3438367"><ele>248.0</ele><time>2026-04-03T13:55:00.267Z</time></trkpt><trkpt lat="43.2890917" lon="11.3438483"><ele>248.00000000000003</ele><time>2026-04-03T13:55:01.267Z</time></trkpt><trkpt lat="43.2890083" lon="11.3438633"><ele>248.0</ele><time>2026-04-03T13:55:02.267Z</time></trkpt><trkpt lat="43.288935" lon="11.34386"><ele>248.0</ele><time>2026-04-03T13:55:03.267Z</time></trkpt><trkpt lat="43.288855" lon="11.343875"><ele>248.0</ele><time>2026-04-03T13:55:04.268Z</time></trkpt><trkpt lat="43.2887733" lon="11.3438917"><ele>248.00000000000003</ele><time>2026-04-03T13:55:05.267Z</time></trkpt><trkpt lat="43.2886867" lon="11.34391"><ele>248.0</ele><time>2026-04-03T13:55:06.267Z</time></trkpt><trkpt lat="43.2885933" lon="11.3439267"><ele>247.4</ele><time>2026-04-03T13:55:07.267Z</time></trkpt><trkpt lat="43.2884983" lon="11.3439467"><ele>246.8</ele><time>2026-04-03T13:55:08.267Z</time></trkpt><trkpt lat="43.2884033" lon="11.343975"><ele>246.2</ele><time>2026-04-03T13:55:09.267Z</time></trkpt><trkpt lat="43.288305" lon="11.3440017"><ele>245.6</ele><time>2026-04-03T13:55:10.267Z</time></trkpt><trkpt lat="43.2882033" lon="11.3440433"><ele>245.0</ele><time>2026-04-03T13:55:11.267Z</time></trkpt><trkpt lat="43.2880983" lon="11.3440933"><ele>245.75</ele><time>2026-04-03T13:55:12.267Z</time></trkpt><trkpt lat="43.2879883" lon="11.34414"><ele>246.5</ele><time>2026-04-03T13:55:13.267Z</time></trkpt><trkpt lat="43.2878833" lon="11.3442"><ele>247.25</ele><time>2026-04-03T13:55:14.268Z</time></trkpt><trkpt lat="43.2877833" lon="11.34427"><ele>248.0</ele><time>2026-04-03T13:55:15.267Z</time></trkpt><trkpt lat="43.2876883" lon="11.3443533"><ele>248.0</ele><time>2026-04-03T13:55:16.267Z</time></trkpt><trkpt lat="43.2876" lon="11.34445"><ele>248.0</ele><time>2026-04-03T13:55:17.268Z</time></trkpt><trkpt lat="43.2875133" lon="11.34455"><ele>248.0</ele><time>2026-04-03T13:55:18.267Z</time></trkpt><trkpt lat="43.2874267" lon="11.3446567"><ele>248.0</ele><time>2026-04-03T13:55:19.267Z</time></trkpt><trkpt lat="43.28734" lon="11.344765"><ele>247.0</ele><time>2026-04-03T13:55:20.267Z</time></trkpt><trkpt lat="43.28726" lon="11.3448783"><ele>246.0</ele><time>2026-04-03T13:55:21.268Z</time></trkpt><trkpt lat="43.28718" lon="11.34499"><ele>245.0</ele><time>2026-04-03T13:55:22.267Z</time></trkpt><trkpt lat="43.2870983" lon="11.34511"><ele>244.0</ele><time>2026-04-03T13:55:23.267Z</time></trkpt><trkpt lat="43.2870217" lon="11.34524"><ele>244.0</ele><time>2026-04-03T13:55:24.268Z</time></trkpt><trkpt lat="43.2869583" lon="11.3453817"><ele>244.0</ele><time>2026-04-03T13:55:25.267Z</time></trkpt><trkpt lat="43.2868983" lon="11.3455283"><ele>244.0</ele><time>2026-04-03T13:55:26.268Z</time></trkpt><trkpt lat="43.2868467" lon="11.3456783"><ele>244.0</ele><time>2026-04-03T13:55:27.267Z</time></trkpt><trkpt lat="43.2868033" lon="11.34584"><ele>244.25</ele><time>2026-04-03T13:55:28.267Z</time></trkpt><trkpt lat="43.28676" lon="11.3460017"><ele>244.5</ele><time>2026-04-03T13:55:29.267Z</time></trkpt><trkpt lat="43.28673" lon="11.3461717"><ele>244.75</ele><time>2026-04-03T13:55:30.267Z</time></trkpt><trkpt lat="43.2867067" lon="11.3463483"><ele>245.0</ele><time>2026-04-03T13:55:31.267Z</time></trkpt><trkpt lat="43.2866883" lon="11.3465333"><ele>244.0</ele><time>2026-04-03T13:55:32.268Z</time></trkpt><trkpt lat="43.2866783" lon="11.34672"><ele>243.0</ele><time>2026-04-03T13:55:33.267Z</time></trkpt><trkpt lat="43.2866717" lon="11.3469017"><ele>242.0</ele><time>2026-04-03T13:55:34.267Z</time></trkpt><trkpt lat="43.2866533" lon="11.34708"><ele>241.0</ele><time>2026-04-03T13:55:35.268Z</time></trkpt><trkpt lat="43.2866317" lon="11.34726"><ele>241.0</ele><time>2026-04-03T13:55:36.267Z</time></trkpt><trkpt lat="43.2865883" lon="11.34744"><ele>241.0</ele><time>2026-04-03T13:55:37.268Z</time></trkpt><trkpt lat="43.2865517" lon="11.34762"><ele>241.0</ele><time>2026-04-03T13:55:38.267Z</time></trkpt><trkpt lat="43.2864983" lon="11.3477867"><ele>241.0</ele><time>2026-04-03T13:55:39.267Z</time></trkpt><trkpt lat="43.2864433" lon="11.3479533"><ele>238.5</ele><time>2026-04-03T13:55:40.267Z</time></trkpt><trkpt lat="43.2863917" lon="11.3481267"><ele>236.0</ele><time>2026-04-03T13:55:41.267Z</time></trkpt><trkpt lat="43.286335" lon="11.3483067"><ele>233.5</ele><time>2026-04-03T13:55:42.268Z</time></trkpt><trkpt lat="43.28627" lon="11.348485"><ele>231.0</ele><time>2026-04-03T13:55:43.268Z</time></trkpt><trkpt lat="43.286195" lon="11.348665"><ele>231.0</ele><time>2026-04-03T13:55:44.268Z</time></trkpt><trkpt lat="43.2861233" lon="11.3488483"><ele>231.0</ele><time>2026-04-03T13:55:45.267Z</time></trkpt><trkpt lat="43.2860483" lon="11.3490367"><ele>231.0</ele><time>2026-04-03T13:55:46.267Z</time></trkpt><trkpt lat="43.2859783" lon="11.3492133"><ele>232.0</ele><time>2026-04-03T13:55:47.267Z</time></trkpt><trkpt lat="43.28591" lon="11.3493933"><ele>233.0</ele><time>2026-04-03T13:55:48.267Z</time></trkpt><trkpt lat="43.2858383" lon="11.3495817"><ele>234.0</ele><time>2026-04-03T13:55:49.267Z</time></trkpt><trkpt lat="43.2857717" lon="11.34977"><ele>234.25</ele><time>2026-04-03T13:55:50.267Z</time></trkpt><trkpt lat="43.28571" lon="11.34996"><ele>234.5</ele><time>2026-04-03T13:55:51.267Z</time></trkpt><trkpt lat="43.2856517" lon="11.3501567"><ele>234.75</ele><time>2026-04-03T13:55:52.267Z</time></trkpt><trkpt lat="43.2856" lon="11.35034"><ele>235.0</ele><time>2026-04-03T13:55:53.267Z</time></trkpt><trkpt lat="43.2855417" lon="11.3505167"><ele>235.75</ele><time>2026-04-03T13:55:54.267Z</time></trkpt><trkpt lat="43.2854867" lon="11.35069"><ele>236.5</ele><time>2026-04-03T13:55:55.267Z</time></trkpt><trkpt lat="43.2854183" lon="11.3508617"><ele>237.25</ele><time>2026-04-03T13:55:56.268Z</time></trkpt><trkpt lat="43.2853617" lon="11.3510333"><ele>238.0</ele><time>2026-04-03T13:55:57.267Z</time></trkpt><trkpt lat="43.2853083" lon="11.3512"><ele>238.0</ele><time>2026-04-03T13:55:58.267Z</time></trkpt><trkpt lat="43.2852533" lon="11.3513667"><ele>238.0</ele><time>2026-04-03T13:55:59.268Z</time></trkpt><trkpt lat="43.2851933" lon="11.3515383"><ele>238.0</ele><time>2026-04-03T13:56:00.267Z</time></trkpt><trkpt lat="43.2851483" lon="11.3517333"><ele>238.0</ele><time>2026-04-03T13:56:01.268Z</time></trkpt><trkpt lat="43.2850917" lon="11.3519217"><ele>238.0</ele><time>2026-04-03T13:56:02.267Z</time></trkpt><trkpt lat="43.2850283" lon="11.3521017"><ele>238.0</ele><time>2026-04-03T13:56:03.267Z</time></trkpt><trkpt lat="43.2849733" lon="11.3522817"><ele>238.0</ele><time>2026-04-03T13:56:04.267Z</time></trkpt><trkpt lat="43.28492" lon="11.3524617"><ele>238.0</ele><time>2026-04-03T13:56:05.268Z</time></trkpt><trkpt lat="43.2848533" lon="11.352635"><ele>238.0</ele><time>2026-04-03T13:56:06.267Z</time></trkpt><trkpt lat="43.2847733" lon="11.352795"><ele>238.0</ele><time>2026-04-03T13:56:07.267Z</time></trkpt><trkpt lat="43.2846817" lon="11.3529383"><ele>238.0</ele><time>2026-04-03T13:56:08.267Z</time></trkpt><trkpt lat="43.2845767" lon="11.3530633"><ele>238.0</ele><time>2026-04-03T13:56:09.267Z</time></trkpt><trkpt lat="43.2844683" lon="11.353175"><ele>237.5</ele><time>2026-04-03T13:56:10.267Z</time></trkpt><trkpt lat="43.28435" lon="11.3532817"><ele>237.0</ele><time>2026-04-03T13:56:11.267Z</time></trkpt><trkpt lat="43.28423" lon="11.3533867"><ele>236.5</ele><time>2026-04-03T13:56:12.267Z</time></trkpt><trkpt lat="43.2841067" lon="11.3534817"><ele>236.0</ele><time>2026-04-03T13:56:13.267Z</time></trkpt><trkpt lat="43.283975" lon="11.353565"><ele>236.5</ele><time>2026-04-03T13:56:14.267Z</time></trkpt><trkpt lat="43.28384" lon="11.353635"><ele>237.0</ele><time>2026-04-03T13:56:15.267Z</time></trkpt><trkpt lat="43.2837" lon="11.353685"><ele>237.5</ele><time>2026-04-03T13:56:16.267Z</time></trkpt><trkpt lat="43.28356" lon="11.3537117"><ele>238.0</ele><time>2026-04-03T13:56:17.267Z</time></trkpt><trkpt lat="43.2834133" lon="11.3537233"><ele>238.0</ele><time>2026-04-03T13:56:18.268Z</time></trkpt><trkpt lat="43.283265" lon="11.35372"><ele>238.0</ele><time>2026-04-03T13:56:19.267Z</time></trkpt><trkpt lat="43.2831217" lon="11.35371"><ele>238.0</ele><time>2026-04-03T13:56:20.267Z</time></trkpt><trkpt lat="43.282985" lon="11.35369"><ele>238.0</ele><time>2026-04-03T13:56:21.267Z</time></trkpt><trkpt lat="43.2828483" lon="11.35365"><ele>238.0</ele><time>2026-04-03T13:56:22.268Z</time></trkpt><trkpt lat="43.2827117" lon="11.3536167"><ele>238.0</ele><time>2026-04-03T13:56:23.267Z</time></trkpt><trkpt lat="43.2825733" lon="11.3535867"><ele>238.0</ele><time>2026-04-03T13:56:24.267Z</time></trkpt><trkpt lat="43.282435" lon="11.353545"><ele>238.0</ele><time>2026-04-03T13:56:25.267Z</time></trkpt><trkpt lat="43.282295" lon="11.3534983"><ele>238.0</ele><time>2026-04-03T13:56:26.268Z</time></trkpt><trkpt lat="43.2821533" lon="11.3534533"><ele>238.0</ele><time>2026-04-03T13:56:27.268Z</time></trkpt><trkpt lat="43.2820133" lon="11.3534117"><ele>238.0</ele><time>2026-04-03T13:56:28.267Z</time></trkpt><trkpt lat="43.2818733" lon="11.3533733"><ele>238.0</ele><time>2026-04-03T13:56:29.268Z</time></trkpt><trkpt lat="43.28174" lon="11.353335"><ele>238.0</ele><time>2026-04-03T13:56:30.267Z</time></trkpt><trkpt lat="43.2816067" lon="11.3533017"><ele>238.0</ele><time>2026-04-03T13:56:31.267Z</time></trkpt><trkpt lat="43.2814733" lon="11.3532617"><ele>238.0</ele><time>2026-04-03T13:56:32.267Z</time></trkpt><trkpt lat="43.2813417" lon="11.3532283"><ele>238.0</ele><time>2026-04-03T13:56:33.267Z</time></trkpt><trkpt lat="43.28121" lon="11.353195"><ele>238.0</ele><time>2026-04-03T13:56:34.268Z</time></trkpt><trkpt lat="43.2810733" lon="11.3531567"><ele>238.0</ele><time>2026-04-03T13:56:35.268Z</time></trkpt><trkpt lat="43.28094" lon="11.3531017"><ele>238.0</ele><time>2026-04-03T13:56:36.267Z</time></trkpt><trkpt lat="43.2808017" lon="11.3530483"><ele>238.0</ele><time>2026-04-03T13:56:37.267Z</time></trkpt><trkpt lat="43.2806617" lon="11.352995"><ele>236.0</ele><time>2026-04-03T13:56:38.267Z</time></trkpt><trkpt lat="43.280505" lon="11.3529733"><ele>234.0</ele><time>2026-04-03T13:56:39.267Z</time></trkpt><trkpt lat="43.2803583" lon="11.35293"><ele>232.0</ele><time>2026-04-03T13:56:40.267Z</time></trkpt><trkpt lat="43.2802233" lon="11.3528783"><ele>230.0</ele><time>2026-04-03T13:56:41.267Z</time></trkpt><trkpt lat="43.2800817" lon="11.3528217"><ele>230.0</ele><time>2026-04-03T13:56:42.268Z</time></trkpt><trkpt lat="43.2799517" lon="11.3527783"><ele>230.0</ele><time>2026-04-03T13:56:43.267Z</time></trkpt><trkpt lat="43.27981" lon="11.3527333"><ele>230.0</ele><time>2026-04-03T13:56:44.267Z</time></trkpt><trkpt lat="43.2796617" lon="11.3527033"><ele>230.0</ele><time>2026-04-03T13:56:45.267Z</time></trkpt><trkpt lat="43.279515" lon="11.352675"><ele>229.25</ele><time>2026-04-03T13:56:46.267Z</time></trkpt><trkpt lat="43.2793683" lon="11.3526583"><ele>228.5</ele><time>2026-04-03T13:56:47.267Z</time></trkpt><trkpt lat="43.2792233" lon="11.3526483"><ele>227.75</ele><time>2026-04-03T13:56:48.268Z</time></trkpt><trkpt lat="43.2790817" lon="11.3526433"><ele>227.0</ele><time>2026-04-03T13:56:49.267Z</time></trkpt><trkpt lat="43.27895" lon="11.3526383"><ele>227.0</ele><time>2026-04-03T13:56:50.268Z</time></trkpt><trkpt lat="43.27882" lon="11.35265"><ele>227.0</ele><time>2026-04-03T13:56:51.267Z</time></trkpt><trkpt lat="43.2786917" lon="11.3526833"><ele>227.0</ele><time>2026-04-03T13:56:52.267Z</time></trkpt><trkpt lat="43.2785683" lon="11.352735"><ele>227.0</ele><time>2026-04-03T13:56:53.267Z</time></trkpt><trkpt lat="43.2784433" lon="11.3528017"><ele>227.0</ele><time>2026-04-03T13:56:54.267Z</time></trkpt><trkpt lat="43.2783133" lon="11.3528767"><ele>227.0</ele><time>2026-04-03T13:56:55.267Z</time></trkpt><trkpt lat="43.2781783" lon="11.3529783"><ele>227.0</ele><time>2026-04-03T13:56:56.267Z</time></trkpt><trkpt lat="43.27804" lon="11.35307"><ele>227.0</ele><time>2026-04-03T13:56:57.267Z</time></trkpt><trkpt lat="43.2779067" lon="11.353155"><ele>228.0</ele><time>2026-04-03T13:56:58.267Z</time></trkpt><trkpt lat="43.2777733" lon="11.35323"><ele>229.0</ele><time>2026-04-03T13:56:59.267Z</time></trkpt><trkpt lat="43.2776383" lon="11.3533017"><ele>230.0</ele><time>2026-04-03T13:57:00.267Z</time></trkpt><trkpt lat="43.2775033" lon="11.3533833"><ele>231.0</ele><time>2026-04-03T13:57:01.267Z</time></trkpt><trkpt lat="43.2773717" lon="11.3534617"><ele>231.25</ele><time>2026-04-03T13:57:02.267Z</time></trkpt><trkpt lat="43.2772483" lon="11.35353"><ele>231.5</ele><time>2026-04-03T13:57:03.267Z</time></trkpt><trkpt lat="43.27712" lon="11.353595"><ele>231.75</ele><time>2026-04-03T13:57:04.268Z</time></trkpt><trkpt lat="43.2769967" lon="11.35365"><ele>232.0</ele><time>2026-04-03T13:57:05.268Z</time></trkpt><trkpt lat="43.27686" lon="11.35371"><ele>232.0</ele><time>2026-04-03T13:57:06.267Z</time></trkpt><trkpt lat="43.276725" lon="11.3537367"><ele>232.0</ele><time>2026-04-03T13:57:07.268Z</time></trkpt><trkpt lat="43.276585" lon="11.35377"><ele>232.0</ele><time>2026-04-03T13:57:08.268Z</time></trkpt><trkpt lat="43.2764467" lon="11.35379"><ele>232.0</ele><time>2026-04-03T13:57:09.267Z</time></trkpt><trkpt lat="43.2763083" lon="11.3538167"><ele>230.75</ele><time>2026-04-03T13:57:10.267Z</time></trkpt><trkpt lat="43.2761683" lon="11.353845"><ele>229.5</ele><time>2026-04-03T13:57:11.268Z</time></trkpt><trkpt lat="43.2760383" lon="11.353865"><ele>228.25</ele><time>2026-04-03T13:57:12.267Z</time></trkpt><trkpt lat="43.2759033" lon="11.3538767"><ele>227.0</ele><time>2026-04-03T13:57:13.268Z</time></trkpt><trkpt lat="43.2757633" lon="11.3539067"><ele>226.0</ele><time>2026-04-03T13:57:14.267Z</time></trkpt><trkpt lat="43.2756233" lon="11.3539383"><ele>225.0</ele><time>2026-04-03T13:57:15.268Z</time></trkpt><trkpt lat="43.2754833" lon="11.3539683"><ele>224.0</ele><time>2026-04-03T13:57:16.267Z</time></trkpt><trkpt lat="43.27535" lon="11.3540017"><ele>223.0</ele><time>2026-04-03T13:57:17.267Z</time></trkpt><trkpt lat="43.275215" lon="11.3540333"><ele>222.75</ele><time>2026-04-03T13:57:18.267Z</time></trkpt><trkpt lat="43.27508" lon="11.3540617"><ele>222.5</ele><time>2026-04-03T13:57:19.267Z</time></trkpt><trkpt lat="43.2749433" lon="11.3540967"><ele>222.25</ele><time>2026-04-03T13:57:20.267Z</time></trkpt><trkpt lat="43.2748133" lon="11.354135"><ele>222.0</ele><time>2026-04-03T13:57:21.267Z</time></trkpt><trkpt lat="43.274685" lon="11.35419"><ele>222.75</ele><time>2026-04-03T13:57:22.267Z</time></trkpt><trkpt lat="43.274565" lon="11.3542717"><ele>223.5</ele><time>2026-04-03T13:57:23.267Z</time></trkpt><trkpt lat="43.2744467" lon="11.354385"><ele>224.25</ele><time>2026-04-03T13:57:24.267Z</time></trkpt><trkpt lat="43.27434" lon="11.3545217"><ele>225.0</ele><time>2026-04-03T13:57:25.267Z</time></trkpt><trkpt lat="43.274245" lon="11.35466"><ele>224.25</ele><time>2026-04-03T13:57:26.267Z</time></trkpt><trkpt lat="43.2741433" lon="11.3548033"><ele>223.5</ele><time>2026-04-03T13:57:27.267Z</time></trkpt><trkpt lat="43.27404" lon="11.3549517"><ele>222.75</ele><time>2026-04-03T13:57:28.267Z</time></trkpt><trkpt lat="43.2739433" lon="11.3550833"><ele>222.0</ele><time>2026-04-03T13:57:29.267Z</time></trkpt><trkpt lat="43.273835" lon="11.3552133"><ele>222.25</ele><time>2026-04-03T13:57:30.267Z</time></trkpt><trkpt lat="43.2737267" lon="11.35534"><ele>222.5</ele><time>2026-04-03T13:57:31.267Z</time></trkpt><trkpt lat="43.273615" lon="11.3554667"><ele>222.75</ele><time>2026-04-03T13:57:32.268Z</time></trkpt><trkpt lat="43.2735017" lon="11.3555983"><ele>223.0</ele><time>2026-04-03T13:57:33.267Z</time></trkpt><trkpt lat="43.2733933" lon="11.35573"><ele>223.0</ele><time>2026-04-03T13:57:34.268Z</time></trkpt><trkpt lat="43.2732833" lon="11.3558517"><ele>223.0</ele><time>2026-04-03T13:57:35.267Z</time></trkpt><trkpt lat="43.2731717" lon="11.355975"><ele>223.0</ele><time>2026-04-03T13:57:36.267Z</time></trkpt><trkpt lat="43.2730567" lon="11.356105"><ele>223.0</ele><time>2026-04-03T13:57:37.268Z</time></trkpt><trkpt lat="43.2729517" lon="11.3562333"><ele>224.0</ele><time>2026-04-03T13:57:38.267Z</time></trkpt><trkpt lat="43.27284" lon="11.3563583"><ele>225.0</ele><time>2026-04-03T13:57:39.268Z</time></trkpt><trkpt lat="43.2727367" lon="11.35649"><ele>226.0</ele><time>2026-04-03T13:57:40.267Z</time></trkpt><trkpt lat="43.27263" lon="11.3566133"><ele>227.0</ele><time>2026-04-03T13:57:41.268Z</time></trkpt><trkpt lat="43.2725133" lon="11.3567267"><ele>227.0</ele><time>2026-04-03T13:57:42.268Z</time></trkpt><trkpt lat="43.272395" lon="11.3568533"><ele>227.0</ele><time>2026-04-03T13:57:43.267Z</time></trkpt><trkpt lat="43.2722867" lon="11.3569767"><ele>227.0</ele><time>2026-04-03T13:57:44.267Z</time></trkpt><trkpt lat="43.2721883" lon="11.3570933"><ele>227.0</ele><time>2026-04-03T13:57:45.267Z</time></trkpt><trkpt lat="43.2720983" lon="11.3572017"><ele>226.33333333333334</ele><time>2026-04-03T13:57:46.267Z</time></trkpt><trkpt lat="43.2720133" lon="11.3573"><ele>225.66666666666669</ele><time>2026-04-03T13:57:47.267Z</time></trkpt><trkpt lat="43.2719567" lon="11.3573783"><ele>225.0</ele><time>2026-04-03T13:57:48.267Z</time></trkpt><trkpt lat="43.27189" lon="11.357435"><ele>224.33333333333331</ele><time>2026-04-03T13:57:49.267Z</time></trkpt><trkpt lat="43.271815" lon="11.35744"><ele>223.66666666666666</ele><time>2026-04-03T13:57:50.268Z</time></trkpt><trkpt lat="43.271735" lon="11.3573983"><ele>223.0</ele><time>2026-04-03T13:57:51.267Z</time></trkpt><trkpt lat="43.2716617" lon="11.35733"><ele>223.0</ele><time>2026-04-03T13:57:52.268Z</time></trkpt><trkpt lat="43.271595" lon="11.3572433"><ele>223.0</ele><time>2026-04-03T13:57:53.267Z</time></trkpt><trkpt lat="43.27152" lon="11.357165"><ele>223.0</ele><time>2026-04-03T13:57:54.268Z</time></trkpt><trkpt lat="43.27144" lon="11.357085"><ele>223.0</ele><time>2026-04-03T13:57:55.267Z</time></trkpt><trkpt lat="43.2713567" lon="11.35699"><ele>223.0</ele><time>2026-04-03T13:57:56.268Z</time></trkpt><trkpt lat="43.2712717" lon="11.3569033"><ele>222.8</ele><time>2026-04-03T13:57:57.267Z</time></trkpt><trkpt lat="43.2712" lon="11.3568183"><ele>222.60000000000002</ele><time>2026-04-03T13:57:58.268Z</time></trkpt><trkpt lat="43.2711317" lon="11.3567367"><ele>222.39999999999998</ele><time>2026-04-03T13:57:59.267Z</time></trkpt><trkpt lat="43.271055" lon="11.356655"><ele>222.2</ele><time>2026-04-03T13:58:00.267Z</time></trkpt><trkpt lat="43.2709733" lon="11.35657"><ele>222.0</ele><time>2026-04-03T13:58:01.267Z</time></trkpt><trkpt lat="43.2708967" lon="11.356485"><ele>222.0</ele><time>2026-04-03T13:58:02.267Z</time></trkpt><trkpt lat="43.2708267" lon="11.356395"><ele>222.0</ele><time>2026-04-03T13:58:03.267Z</time></trkpt><trkpt lat="43.2707583" lon="11.35631"><ele>222.0</ele><time>2026-04-03T13:58:04.267Z</time></trkpt><trkpt lat="43.2706983" lon="11.3562433"><ele>222.0</ele><time>2026-04-03T13:58:05.267Z</time></trkpt><trkpt lat="43.2706333" lon="11.3561833"><ele>222.0</ele><time>2026-04-03T13:58:06.268Z</time></trkpt><trkpt lat="43.270565" lon="11.356115"><ele>222.0</ele><time>2026-04-03T13:58:07.267Z</time></trkpt><trkpt lat="43.2704933" lon="11.356045"><ele>220.0</ele><time>2026-04-03T13:58:08.267Z</time></trkpt><trkpt lat="43.2704233" lon="11.355985"><ele>218.0</ele><time>2026-04-03T13:58:09.267Z</time></trkpt><trkpt lat="43.270345" lon="11.3559417"><ele>216.0</ele><time>2026-04-03T13:58:10.267Z</time></trkpt><trkpt lat="43.2702633" lon="11.3559133"><ele>214.0</ele><time>2026-04-03T13:58:11.267Z</time></trkpt><trkpt lat="43.2701683" lon="11.3559033"><ele>212.0</ele><time>2026-04-03T13:58:12.267Z</time></trkpt><trkpt lat="43.27007" lon="11.3559083"><ele>210.0</ele><time>2026-04-03T13:58:13.267Z</time></trkpt><trkpt lat="43.2699783" lon="11.3559183"><ele>210.0</ele><time>2026-04-03T13:58:14.267Z</time></trkpt><trkpt lat="43.2698917" lon="11.355925"><ele>210.0</ele><time>2026-04-03T13:58:15.267Z</time></trkpt><trkpt lat="43.2698083" lon="11.35594"><ele>210.0</ele><time>2026-04-03T13:58:16.268Z</time></trkpt><trkpt lat="43.2697333" lon="11.3559633"><ele>210.0</ele><time>2026-04-03T13:58:17.267Z</time></trkpt><trkpt lat="43.2696483" lon="11.3560183"><ele>210.0</ele><time>2026-04-03T13:58:18.268Z</time></trkpt><trkpt lat="43.26958" lon="11.3560667"><ele>210.0</ele><time>2026-04-03T13:58:19.268Z</time></trkpt><trkpt lat="43.2695133" lon="11.3561183"><ele>208.85714285714286</ele><time>2026-04-03T13:58:20.267Z</time></trkpt><trkpt lat="43.26945" lon="11.3561717"><ele>207.71428571428572</ele><time>2026-04-03T13:58:21.268Z</time></trkpt><trkpt lat="43.269395" lon="11.3562283"><ele>206.57142857142856</ele><time>2026-04-03T13:58:22.267Z</time></trkpt><trkpt lat="43.26934" lon="11.3562883"><ele>205.42857142857144</ele><time>2026-04-03T13:58:23.267Z</time></trkpt><trkpt lat="43.2692833" lon="11.3563467"><ele>204.28571428571428</ele><time>2026-04-03T13:58:24.267Z</time></trkpt><trkpt lat="43.269235" lon="11.3564117"><ele>203.14285714285714</ele><time>2026-04-03T13:58:25.268Z</time></trkpt><trkpt lat="43.2691967" lon="11.3564833"><ele>202.0</ele><time>2026-04-03T13:58:26.267Z</time></trkpt><trkpt lat="43.2691567" lon="11.3565567"><ele>201.99999999999997</ele><time>2026-04-03T13:58:27.267Z</time></trkpt><trkpt lat="43.26912" lon="11.3566367"><ele>202.0</ele><time>2026-04-03T13:58:28.267Z</time></trkpt><trkpt lat="43.2690817" lon="11.3567233"><ele>202.0</ele><time>2026-04-03T13:58:29.267Z</time></trkpt><trkpt lat="43.2690483" lon="11.35682"><ele>202.0</ele><time>2026-04-03T13:58:30.267Z</time></trkpt><trkpt lat="43.2690167" lon="11.3569217"><ele>201.99999999999997</ele><time>2026-04-03T13:58:31.268Z</time></trkpt><trkpt lat="43.2689933" lon="11.357025"><ele>202.0</ele><time>2026-04-03T13:58:32.268Z</time></trkpt><trkpt lat="43.26897" lon="11.3571283"><ele>202.33333333333331</ele><time>2026-04-03T13:58:33.267Z</time></trkpt><trkpt lat="43.2689517" lon="11.3572417"><ele>202.66666666666666</ele><time>2026-04-03T13:58:34.267Z</time></trkpt><trkpt lat="43.2689433" lon="11.3573583"><ele>203.0</ele><time>2026-04-03T13:58:35.268Z</time></trkpt><trkpt lat="43.2689417" lon="11.3574733"><ele>203.33333333333331</ele><time>2026-04-03T13:58:36.267Z</time></trkpt><trkpt lat="43.26895" lon="11.3575883"><ele>203.66666666666666</ele><time>2026-04-03T13:58:37.268Z</time></trkpt><trkpt lat="43.2689517" lon="11.357705"><ele>204.0</ele><time>2026-04-03T13:58:38.268Z</time></trkpt><trkpt lat="43.2689533" lon="11.3578183"><ele>204.0</ele><time>2026-04-03T13:58:39.268Z</time></trkpt><trkpt lat="43.2689583" lon="11.3579283"><ele>204.0</ele><time>2026-04-03T13:58:40.267Z</time></trkpt><trkpt lat="43.2689617" lon="11.3580433"><ele>204.0</ele><time>2026-04-03T13:58:41.267Z</time></trkpt><trkpt lat="43.26896" lon="11.3581567"><ele>204.0</ele><time>2026-04-03T13:58:42.267Z</time></trkpt><trkpt lat="43.26895" lon="11.358275"><ele>204.0</ele><time>2026-04-03T13:58:43.267Z</time></trkpt><trkpt lat="43.268935" lon="11.3583917"><ele>204.0</ele><time>2026-04-03T13:58:44.267Z</time></trkpt><trkpt lat="43.2688967" lon="11.3585417"><ele>201.66666666666666</ele><time>2026-04-03T13:58:45.267Z</time></trkpt><trkpt lat="43.2688783" lon="11.3586517"><ele>199.33333333333334</ele><time>2026-04-03T13:58:46.267Z</time></trkpt><trkpt lat="43.2688383" lon="11.358745"><ele>197.0</ele><time>2026-04-03T13:58:47.267Z</time></trkpt><trkpt lat="43.2688" lon="11.3588417"><ele>194.66666666666669</ele><time>2026-04-03T13:58:48.268Z</time></trkpt><trkpt lat="43.2687433" lon="11.358945"><ele>192.33333333333334</ele><time>2026-04-03T13:58:49.268Z</time></trkpt><trkpt lat="43.2686833" lon="11.3590467"><ele>190.0</ele><time>2026-04-03T13:58:50.267Z</time></trkpt><trkpt lat="43.2686117" lon="11.3591383"><ele>190.0</ele><time>2026-04-03T13:58:51.267Z</time></trkpt><trkpt lat="43.2685283" lon="11.3592183"><ele>190.0</ele><time>2026-04-03T13:58:52.267Z</time></trkpt><trkpt lat="43.268425" lon="11.35929"><ele>190.0</ele><time>2026-04-03T13:58:53.267Z</time></trkpt><trkpt lat="43.268325" lon="11.35935"><ele>190.0</ele><time>2026-04-03T13:58:54.268Z</time></trkpt><trkpt lat="43.2682183" lon="11.3593883"><ele>190.0</ele><time>2026-04-03T13:58:55.268Z</time></trkpt><trkpt lat="43.268115" lon="11.3594117"><ele>189.2</ele><time>2026-04-03T13:58:56.267Z</time></trkpt><trkpt lat="43.2680067" lon="11.3594233"><ele>188.4</ele><time>2026-04-03T13:58:57.267Z</time></trkpt><trkpt lat="43.2678983" lon="11.359415"><ele>187.60000000000002</ele><time>2026-04-03T13:58:58.267Z</time></trkpt><trkpt lat="43.267795" lon="11.359385"><ele>186.8</ele><time>2026-04-03T13:58:59.267Z</time></trkpt><trkpt lat="43.2676933" lon="11.3593433"><ele>186.0</ele><time>2026-04-03T13:59:00.268Z</time></trkpt><trkpt lat="43.2675917" lon="11.35931"><ele>186.0</ele><time>2026-04-03T13:59:01.268Z</time></trkpt><trkpt lat="43.2674917" lon="11.359275"><ele>186.0</ele><time>2026-04-03T13:59:02.268Z</time></trkpt><trkpt lat="43.2674017" lon="11.3592333"><ele>186.0</ele><time>2026-04-03T13:59:03.267Z</time></trkpt><trkpt lat="43.26732" lon="11.3591983"><ele>186.0</ele><time>2026-04-03T13:59:04.267Z</time></trkpt><trkpt lat="43.2672333" lon="11.3591617"><ele>186.0</ele><time>2026-04-03T13:59:05.267Z</time></trkpt><trkpt lat="43.2671483" lon="11.3591217"><ele>185.8</ele><time>2026-04-03T13:59:06.267Z</time></trkpt><trkpt lat="43.26706" lon="11.3590867"><ele>185.60000000000002</ele><time>2026-04-03T13:59:07.267Z</time></trkpt><trkpt lat="43.266975" lon="11.3590517"><ele>185.4</ele><time>2026-04-03T13:59:08.267Z</time></trkpt><trkpt lat="43.2668833" lon="11.3590133"><ele>185.2</ele><time>2026-04-03T13:59:09.267Z</time></trkpt><trkpt lat="43.2667933" lon="11.358975"><ele>185.0</ele><time>2026-04-03T13:59:10.267Z</time></trkpt><trkpt lat="43.2667033" lon="11.3589383"><ele>185.0</ele><time>2026-04-03T13:59:11.267Z</time></trkpt><trkpt lat="43.2666117" lon="11.358895"><ele>185.0</ele><time>2026-04-03T13:59:12.268Z</time></trkpt><trkpt lat="43.2665167" lon="11.3588517"><ele>185.0</ele><time>2026-04-03T13:59:13.267Z</time></trkpt><trkpt lat="43.266415" lon="11.3588117"><ele>185.0</ele><time>2026-04-03T13:59:14.268Z</time></trkpt><trkpt lat="43.266315" lon="11.3587733"><ele>185.0</ele><time>2026-04-03T13:59:15.268Z</time></trkpt><trkpt lat="43.2662117" lon="11.3587317"><ele>185.0</ele><time>2026-04-03T13:59:16.267Z</time></trkpt><trkpt lat="43.266105" lon="11.3586917"><ele>185.0</ele><time>2026-04-03T13:59:17.267Z</time></trkpt><trkpt lat="43.2659967" lon="11.3586467"><ele>185.0</ele><time>2026-04-03T13:59:18.268Z</time></trkpt><trkpt lat="43.2658833" lon="11.3585983"><ele>185.0</ele><time>2026-04-03T13:59:19.267Z</time></trkpt><trkpt lat="43.2657733" lon="11.3585517"><ele>185.0</ele><time>2026-04-03T13:59:20.267Z</time></trkpt><trkpt lat="43.2656667" lon="11.3585067"><ele>185.0</ele><time>2026-04-03T13:59:21.267Z</time></trkpt><trkpt lat="43.2655633" lon="11.358465"><ele>185.0</ele><time>2026-04-03T13:59:22.268Z</time></trkpt><trkpt lat="43.26546" lon="11.3584267"><ele>185.0</ele><time>2026-04-03T13:59:23.267Z</time></trkpt><trkpt lat="43.265365" lon="11.35839"><ele>185.0</ele><time>2026-04-03T13:59:24.267Z</time></trkpt><trkpt lat="43.265275" lon="11.35835"><ele>184.83333333333331</ele><time>2026-04-03T13:59:25.267Z</time></trkpt><trkpt lat="43.2651933" lon="11.3583183"><ele>184.66666666666666</ele><time>2026-04-03T13:59:26.267Z</time></trkpt><trkpt lat="43.2651167" lon="11.3582883"><ele>184.5</ele><time>2026-04-03T13:59:27.268Z</time></trkpt><trkpt lat="43.265035" lon="11.35826"><ele>184.33333333333334</ele><time>2026-04-03T13:59:28.267Z</time></trkpt><trkpt lat="43.2649517" lon="11.3582433"><ele>184.16666666666669</ele><time>2026-04-03T13:59:29.267Z</time></trkpt><trkpt lat="43.2648617" lon="11.35824"><ele>184.0</ele><time>2026-04-03T13:59:30.267Z</time></trkpt><trkpt lat="43.2647717" lon="11.3582533"><ele>184.5</ele><time>2026-04-03T13:59:31.267Z</time></trkpt><trkpt lat="43.264685" lon="11.35829"><ele>185.0</ele><time>2026-04-03T13:59:32.267Z</time></trkpt><trkpt lat="43.264615" lon="11.3583517"><ele>185.5</ele><time>2026-04-03T13:59:33.267Z</time></trkpt><trkpt lat="43.2645467" lon="11.358425"><ele>186.0</ele><time>2026-04-03T13:59:34.267Z</time></trkpt><trkpt lat="43.26448" lon="11.3585083"><ele>186.5</ele><time>2026-04-03T13:59:35.267Z</time></trkpt><trkpt lat="43.2644417" lon="11.358615"><ele>187.0</ele><time>2026-04-03T13:59:36.267Z</time></trkpt><trkpt lat="43.264395" lon="11.3587167"><ele>187.0</ele><time>2026-04-03T13:59:37.267Z</time></trkpt><trkpt lat="43.2643333" lon="11.3588317"><ele>187.0</ele><time>2026-04-03T13:59:38.267Z</time></trkpt><trkpt lat="43.26427" lon="11.3589467"><ele>187.0</ele><time>2026-04-03T13:59:39.268Z</time></trkpt><trkpt lat="43.26419" lon="11.3590583"><ele>187.0</ele><time>2026-04-03T13:59:40.267Z</time></trkpt><trkpt lat="43.26411" lon="11.3591617"><ele>187.0</ele><time>2026-04-03T13:59:41.268Z</time></trkpt><trkpt lat="43.2640283" lon="11.3592567"><ele>186.2</ele><time>2026-04-03T13:59:42.267Z</time></trkpt><trkpt lat="43.2639433" lon="11.35934"><ele>185.39999999999998</ele><time>2026-04-03T13:59:43.268Z</time></trkpt><trkpt lat="43.2638517" lon="11.3594067"><ele>184.60000000000002</ele><time>2026-04-03T13:59:44.267Z</time></trkpt><trkpt lat="43.2637667" lon="11.359465"><ele>183.8</ele><time>2026-04-03T13:59:45.267Z</time></trkpt><trkpt lat="43.2636867" lon="11.3595167"><ele>183.0</ele><time>2026-04-03T13:59:46.267Z</time></trkpt><trkpt lat="43.2636083" lon="11.3595667"><ele>183.0</ele><time>2026-04-03T13:59:47.268Z</time></trkpt><trkpt lat="43.2635333" lon="11.3596217"><ele>183.0</ele><time>2026-04-03T13:59:48.267Z</time></trkpt><trkpt lat="43.2634533" lon="11.3596883"><ele>183.0</ele><time>2026-04-03T13:59:49.267Z</time></trkpt><trkpt lat="43.2633767" lon="11.3597633"><ele>183.0</ele><time>2026-04-03T13:59:50.267Z</time></trkpt><trkpt lat="43.263295" lon="11.359845"><ele>183.0</ele><time>2026-04-03T13:59:51.267Z</time></trkpt><trkpt lat="43.2632133" lon="11.3599233"><ele>182.8</ele><time>2026-04-03T13:59:52.267Z</time></trkpt><trkpt lat="43.26313" lon="11.360005"><ele>182.60000000000002</ele><time>2026-04-03T13:59:53.267Z</time></trkpt><trkpt lat="43.2630483" lon="11.36009"><ele>182.39999999999998</ele><time>2026-04-03T13:59:54.268Z</time></trkpt><trkpt lat="43.2629717" lon="11.3601733"><ele>182.2</ele><time>2026-04-03T13:59:55.267Z</time></trkpt><trkpt lat="43.2628967" lon="11.36025"><ele>182.0</ele><time>2026-04-03T13:59:56.267Z</time></trkpt><trkpt lat="43.2628267" lon="11.3603233"><ele>182.2</ele><time>2026-04-03T13:59:57.267Z</time></trkpt><trkpt lat="43.262755" lon="11.3604117"><ele>182.39999999999998</ele><time>2026-04-03T13:59:58.267Z</time></trkpt><trkpt lat="43.2626783" lon="11.3605033"><ele>182.60000000000002</ele><time>2026-04-03T13:59:59.267Z</time></trkpt><trkpt lat="43.2626033" lon="11.3605883"><ele>182.8</ele><time>2026-04-03T14:00:00.268Z</time></trkpt><trkpt lat="43.2625217" lon="11.3606833"><ele>183.0</ele><time>2026-04-03T14:00:01.267Z</time></trkpt><trkpt lat="43.2624433" lon="11.3607667"><ele>183.0</ele><time>2026-04-03T14:00:02.267Z</time></trkpt><trkpt lat="43.2623667" lon="11.36086"><ele>183.0</ele><time>2026-04-03T14:00:03.267Z</time></trkpt><trkpt lat="43.2622933" lon="11.3609583"><ele>183.0</ele><time>2026-04-03T14:00:04.268Z</time></trkpt><trkpt lat="43.26222" lon="11.3610533"><ele>183.0</ele><time>2026-04-03T14:00:05.267Z</time></trkpt><trkpt lat="43.2621417" lon="11.3611467"><ele>183.0</ele><time>2026-04-03T14:00:06.267Z</time></trkpt><trkpt lat="43.2620683" lon="11.3612267"><ele>182.8</ele><time>2026-04-03T14:00:07.267Z</time></trkpt><trkpt lat="43.2619967" lon="11.3613067"><ele>182.60000000000002</ele><time>2026-04-03T14:00:08.267Z</time></trkpt><trkpt lat="43.26191" lon="11.3613833"><ele>182.39999999999998</ele><time>2026-04-03T14:00:09.267Z</time></trkpt><trkpt lat="43.2618167" lon="11.36146"><ele>182.2</ele><time>2026-04-03T14:00:10.267Z</time></trkpt><trkpt lat="43.2617267" lon="11.3615367"><ele>182.0</ele><time>2026-04-03T14:00:11.268Z</time></trkpt><trkpt lat="43.26163" lon="11.3616133"><ele>182.0</ele><time>2026-04-03T14:00:12.267Z</time></trkpt><trkpt lat="43.26153" lon="11.3616867"><ele>182.0</ele><time>2026-04-03T14:00:13.268Z</time></trkpt><trkpt lat="43.26142" lon="11.3617617"><ele>182.0</ele><time>2026-04-03T14:00:14.268Z</time></trkpt><trkpt lat="43.2613083" lon="11.3618233"><ele>182.0</ele><time>2026-04-03T14:00:15.267Z</time></trkpt><trkpt lat="43.2612" lon="11.361865"><ele>182.0</ele><time>2026-04-03T14:00:16.267Z</time></trkpt><trkpt lat="43.2610933" lon="11.3619"><ele>182.0</ele><time>2026-04-03T14:00:17.268Z</time></trkpt><trkpt lat="43.2609917" lon="11.3619267"><ele>182.0</ele><time>2026-04-03T14:00:18.267Z</time></trkpt><trkpt lat="43.2608883" lon="11.3619383"><ele>182.0</ele><time>2026-04-03T14:00:19.267Z</time></trkpt><trkpt lat="43.2607783" lon="11.3619517"><ele>182.0</ele><time>2026-04-03T14:00:20.266Z</time></trkpt><trkpt lat="43.2606667" lon="11.3619533"><ele>182.6</ele><time>2026-04-03T14:00:21.266Z</time></trkpt><trkpt lat="43.2605583" lon="11.361945"><ele>183.2</ele><time>2026-04-03T14:00:22.266Z</time></trkpt><trkpt lat="43.2604483" lon="11.3619233"><ele>183.8</ele><time>2026-04-03T14:00:23.266Z</time></trkpt><trkpt lat="43.2603367" lon="11.3618967"><ele>184.4</ele><time>2026-04-03T14:00:24.266Z</time></trkpt><trkpt lat="43.2602233" lon="11.3618633"><ele>185.0</ele><time>2026-04-03T14:00:25.266Z</time></trkpt><trkpt lat="43.260115" lon="11.3618317"><ele>185.0</ele><time>2026-04-03T14:00:26.267Z</time></trkpt><trkpt lat="43.2600017" lon="11.3617983"><ele>185.0</ele><time>2026-04-03T14:00:27.266Z</time></trkpt><trkpt lat="43.2598867" lon="11.3617617"><ele>185.0</ele><time>2026-04-03T14:00:28.266Z</time></trkpt><trkpt lat="43.259775" lon="11.361725"><ele>185.0</ele><time>2026-04-03T14:00:29.266Z</time></trkpt><trkpt lat="43.259665" lon="11.36169"><ele>186.6</ele><time>2026-04-03T14:00:30.266Z</time></trkpt><trkpt lat="43.259555" lon="11.3616533"><ele>188.2</ele><time>2026-04-03T14:00:31.266Z</time></trkpt><trkpt lat="43.25945" lon="11.3615983"><ele>189.8</ele><time>2026-04-03T14:00:32.266Z</time></trkpt><trkpt lat="43.2593483" lon="11.3615417"><ele>191.4</ele><time>2026-04-03T14:00:33.266Z</time></trkpt><trkpt lat="43.2592417" lon="11.3614867"><ele>193.0</ele><time>2026-04-03T14:00:34.266Z</time></trkpt><trkpt lat="43.259135" lon="11.3614283"><ele>193.0</ele><time>2026-04-03T14:00:35.266Z</time></trkpt><trkpt lat="43.2590367" lon="11.361375"><ele>193.0</ele><time>2026-04-03T14:00:36.266Z</time></trkpt><trkpt lat="43.2589283" lon="11.3613117"><ele>193.0</ele><time>2026-04-03T14:00:37.266Z</time></trkpt><trkpt lat="43.2588317" lon="11.3612417"><ele>193.0</ele><time>2026-04-03T14:00:38.266Z</time></trkpt><trkpt lat="43.2587367" lon="11.3611667"><ele>193.0</ele><time>2026-04-03T14:00:39.266Z</time></trkpt><trkpt lat="43.258645" lon="11.3610867"><ele>193.4</ele><time>2026-04-03T14:00:40.266Z</time></trkpt><trkpt lat="43.2585567" lon="11.3609967"><ele>193.8</ele><time>2026-04-03T14:00:41.266Z</time></trkpt><trkpt lat="43.25847" lon="11.3609083"><ele>194.2</ele><time>2026-04-03T14:00:42.266Z</time></trkpt><trkpt lat="43.25838" lon="11.36082"><ele>194.6</ele><time>2026-04-03T14:00:43.266Z</time></trkpt><trkpt lat="43.25829" lon="11.36074"><ele>195.0</ele><time>2026-04-03T14:00:44.266Z</time></trkpt><trkpt lat="43.258205" lon="11.3606567"><ele>195.0</ele><time>2026-04-03T14:00:45.267Z</time></trkpt><trkpt lat="43.25812" lon="11.3605767"><ele>195.0</ele><time>2026-04-03T14:00:46.266Z</time></trkpt><trkpt lat="43.25803" lon="11.360505"><ele>195.0</ele><time>2026-04-03T14:00:47.266Z</time></trkpt><trkpt lat="43.2579383" lon="11.3604467"><ele>195.0</ele><time>2026-04-03T14:00:48.266Z</time></trkpt><trkpt lat="43.2578483" lon="11.3603967"><ele>195.0</ele><time>2026-04-03T14:00:49.267Z</time></trkpt><trkpt lat="43.2577567" lon="11.36035"><ele>195.0</ele><time>2026-04-03T14:00:50.266Z</time></trkpt><trkpt lat="43.2576617" lon="11.360315"><ele>195.0</ele><time>2026-04-03T14:00:51.266Z</time></trkpt><trkpt lat="43.25757" lon="11.360285"><ele>195.0</ele><time>2026-04-03T14:00:52.266Z</time></trkpt><trkpt lat="43.2574783" lon="11.3602583"><ele>195.0</ele><time>2026-04-03T14:00:53.266Z</time></trkpt><trkpt lat="43.2573783" lon="11.360215"><ele>195.0</ele><time>2026-04-03T14:00:54.266Z</time></trkpt><trkpt lat="43.257285" lon="11.3601767"><ele>195.8</ele><time>2026-04-03T14:00:55.266Z</time></trkpt><trkpt lat="43.25719" lon="11.3601467"><ele>196.6</ele><time>2026-04-03T14:00:56.266Z</time></trkpt><trkpt lat="43.2570917" lon="11.3601367"><ele>197.39999999999998</ele><time>2026-04-03T14:00:57.266Z</time></trkpt><trkpt lat="43.25699" lon="11.3601283"><ele>198.2</ele><time>2026-04-03T14:00:58.266Z</time></trkpt><trkpt lat="43.2568883" lon="11.3601333"><ele>199.0</ele><time>2026-04-03T14:00:59.267Z</time></trkpt><trkpt lat="43.2567817" lon="11.36014"><ele>199.0</ele><time>2026-04-03T14:01:00.266Z</time></trkpt><trkpt lat="43.2566733" lon="11.3601483"><ele>199.0</ele><time>2026-04-03T14:01:01.266Z</time></trkpt><trkpt lat="43.2565667" lon="11.3601633"><ele>199.0</ele><time>2026-04-03T14:01:02.266Z</time></trkpt><trkpt lat="43.2564617" lon="11.3601867"><ele>199.0</ele><time>2026-04-03T14:01:03.267Z</time></trkpt><trkpt lat="43.2563567" lon="11.3602083"><ele>199.0</ele><time>2026-04-03T14:01:04.267Z</time></trkpt><trkpt lat="43.25625" lon="11.360235"><ele>199.79999999999998</ele><time>2026-04-03T14:01:05.266Z</time></trkpt><trkpt lat="43.2561417" lon="11.3602733"><ele>200.6</ele><time>2026-04-03T14:01:06.266Z</time></trkpt><trkpt lat="43.2560467" lon="11.3603283"><ele>201.4</ele><time>2026-04-03T14:01:07.266Z</time></trkpt><trkpt lat="43.2559533" lon="11.3603983"><ele>202.2</ele><time>2026-04-03T14:01:08.266Z</time></trkpt><trkpt lat="43.2558533" lon="11.36048"><ele>203.0</ele><time>2026-04-03T14:01:09.266Z</time></trkpt><trkpt lat="43.255745" lon="11.360555"><ele>203.66666666666669</ele><time>2026-04-03T14:01:10.266Z</time></trkpt><trkpt lat="43.255625" lon="11.3606367"><ele>204.33333333333331</ele><time>2026-04-03T14:01:11.266Z</time></trkpt><trkpt lat="43.2554867" lon="11.3607367"><ele>205.0</ele><time>2026-04-03T14:01:12.267Z</time></trkpt><trkpt lat="43.25535" lon="11.36085"><ele>208.0</ele><time>2026-04-03T14:01:13.266Z</time></trkpt><trkpt lat="43.25522" lon="11.36099"><ele>211.0</ele><time>2026-04-03T14:01:14.266Z</time></trkpt><trkpt lat="43.2550917" lon="11.3611633"><ele>214.0</ele><time>2026-04-03T14:01:15.266Z</time></trkpt><trkpt lat="43.2549733" lon="11.3613617"><ele>214.0</ele><time>2026-04-03T14:01:16.266Z</time></trkpt><trkpt lat="43.2548633" lon="11.3615633"><ele>214.0</ele><time>2026-04-03T14:01:17.266Z</time></trkpt><trkpt lat="43.25477" lon="11.361745"><ele>214.0</ele><time>2026-04-03T14:01:18.266Z</time></trkpt><trkpt lat="43.2546783" lon="11.3619067"><ele>215.5</ele><time>2026-04-03T14:01:19.266Z</time></trkpt><trkpt lat="43.25459" lon="11.3620433"><ele>217.0</ele><time>2026-04-03T14:01:20.267Z</time></trkpt><trkpt lat="43.25447" lon="11.3621617"><ele>218.5</ele><time>2026-04-03T14:01:21.266Z</time></trkpt><trkpt lat="43.2543517" lon="11.3622517"><ele>220.0</ele><time>2026-04-03T14:01:22.266Z</time></trkpt><trkpt lat="43.2542217" lon="11.36232"><ele>220.0</ele><time>2026-04-03T14:01:23.266Z</time></trkpt><trkpt lat="43.2540867" lon="11.362375"><ele>220.0</ele><time>2026-04-03T14:01:24.266Z</time></trkpt><trkpt lat="43.2539383" lon="11.362405"><ele>220.0</ele><time>2026-04-03T14:01:25.266Z</time></trkpt><trkpt lat="43.2537633" lon="11.362435"><ele>221.66666666666666</ele><time>2026-04-03T14:01:26.266Z</time></trkpt><trkpt lat="43.2535717" lon="11.3624783"><ele>223.33333333333331</ele><time>2026-04-03T14:01:27.266Z</time></trkpt><trkpt lat="43.2533717" lon="11.3625283"><ele>225.0</ele><time>2026-04-03T14:01:28.266Z</time></trkpt><trkpt lat="43.2531733" lon="11.3625883"><ele>226.0</ele><time>2026-04-03T14:01:29.266Z</time></trkpt><trkpt lat="43.2529933" lon="11.3626667"><ele>227.0</ele><time>2026-04-03T14:01:30.266Z</time></trkpt><trkpt lat="43.25284" lon="11.3627467"><ele>228.0</ele><time>2026-04-03T14:01:31.266Z</time></trkpt><trkpt lat="43.252695" lon="11.3628333"><ele>228.0</ele><time>2026-04-03T14:01:32.267Z</time></trkpt><trkpt lat="43.2525883" lon="11.3628983"><ele>228.0</ele><time>2026-04-03T14:01:33.266Z</time></trkpt><trkpt lat="43.2525083" lon="11.3629583"><ele>228.0</ele><time>2026-04-03T14:01:34.267Z</time></trkpt><trkpt lat="43.252435" lon="11.3630017"><ele>228.0</ele><time>2026-04-03T14:01:35.266Z</time></trkpt><trkpt lat="43.2523517" lon="11.3630667"><ele>228.0</ele><time>2026-04-03T14:01:37.266Z</time></trkpt><trkpt lat="43.2522917" lon="11.3631317"><ele>229.0</ele><time>2026-04-03T14:01:40.266Z</time></trkpt><trkpt lat="43.2522367" lon="11.3632"><ele>230.0</ele><time>2026-04-03T14:01:42.267Z</time></trkpt><trkpt lat="43.2521617" lon="11.3633017"><ele>231.0</ele><time>2026-04-03T14:01:44.266Z</time></trkpt><trkpt lat="43.25208" lon="11.3633917"><ele>232.0</ele><time>2026-04-03T14:01:46.266Z</time></trkpt><trkpt lat="43.2519767" lon="11.3634767"><ele>233.0</ele><time>2026-04-03T14:01:48.266Z</time></trkpt><trkpt lat="43.2518717" lon="11.3635483"><ele>233.0</ele><time>2026-04-03T14:01:50.266Z</time></trkpt><trkpt lat="43.2518033" lon="11.3635733"><ele>233.0</ele><time>2026-04-03T14:01:51.266Z</time></trkpt><trkpt lat="43.2517333" lon="11.3635917"><ele>233.0</ele><time>2026-04-03T14:01:52.266Z</time></trkpt><trkpt lat="43.2516617" lon="11.3636"><ele>233.0</ele><time>2026-04-03T14:01:53.266Z</time></trkpt><trkpt lat="43.25159" lon="11.3636017"><ele>233.0</ele><time>2026-04-03T14:01:54.266Z</time></trkpt><trkpt lat="43.2515233" lon="11.3635933"><ele>233.0</ele><time>2026-04-03T14:01:55.267Z</time></trkpt><trkpt lat="43.2514533" lon="11.3635817"><ele>233.0</ele><time>2026-04-03T14:01:56.266Z</time></trkpt><trkpt lat="43.2513733" lon="11.3635667"><ele>231.4</ele><time>2026-04-03T14:01:57.266Z</time></trkpt><trkpt lat="43.2512883" lon="11.3635417"><ele>229.8</ele><time>2026-04-03T14:01:58.267Z</time></trkpt><trkpt lat="43.251205" lon="11.36351"><ele>228.2</ele><time>2026-04-03T14:01:59.266Z</time></trkpt><trkpt lat="43.2511233" lon="11.3634767"><ele>226.6</ele><time>2026-04-03T14:02:00.266Z</time></trkpt><trkpt lat="43.2510333" lon="11.363445"><ele>225.0</ele><time>2026-04-03T14:02:01.266Z</time></trkpt><trkpt lat="43.2509333" lon="11.363395"><ele>225.0</ele><time>2026-04-03T14:02:02.267Z</time></trkpt><trkpt lat="43.2508383" lon="11.363355"><ele>225.0</ele><time>2026-04-03T14:02:03.266Z</time></trkpt><trkpt lat="43.25074" lon="11.3633217"><ele>225.0</ele><time>2026-04-03T14:02:04.267Z</time></trkpt><trkpt lat="43.2506533" lon="11.3632967"><ele>225.0</ele><time>2026-04-03T14:02:05.266Z</time></trkpt><trkpt lat="43.25056" lon="11.3632833"><ele>225.0</ele><time>2026-04-03T14:02:06.266Z</time></trkpt><trkpt lat="43.2504717" lon="11.36327"><ele>224.6</ele><time>2026-04-03T14:02:07.266Z</time></trkpt><trkpt lat="43.2503667" lon="11.3632467"><ele>224.2</ele><time>2026-04-03T14:02:08.266Z</time></trkpt><trkpt lat="43.2502633" lon="11.3632217"><ele>223.8</ele><time>2026-04-03T14:02:09.266Z</time></trkpt><trkpt lat="43.25016" lon="11.3631917"><ele>223.4</ele><time>2026-04-03T14:02:10.266Z</time></trkpt><trkpt lat="43.2500567" lon="11.363155"><ele>223.0</ele><time>2026-04-03T14:02:11.266Z</time></trkpt><trkpt lat="43.249955" lon="11.3631167"><ele>223.0</ele><time>2026-04-03T14:02:12.267Z</time></trkpt><trkpt lat="43.249845" lon="11.3630717"><ele>223.0</ele><time>2026-04-03T14:02:13.267Z</time></trkpt><trkpt lat="43.249735" lon="11.3630467"><ele>223.0</ele><time>2026-04-03T14:02:14.266Z</time></trkpt><trkpt lat="43.24962" lon="11.3630317"><ele>223.0</ele><time>2026-04-03T14:02:15.267Z</time></trkpt><trkpt lat="43.2495067" lon="11.3630417"><ele>224.0</ele><time>2026-04-03T14:02:16.266Z</time></trkpt><trkpt lat="43.2493933" lon="11.3630733"><ele>225.0</ele><time>2026-04-03T14:02:17.266Z</time></trkpt><trkpt lat="43.2492933" lon="11.3631283"><ele>226.0</ele><time>2026-04-03T14:02:18.266Z</time></trkpt><trkpt lat="43.2492017" lon="11.363205"><ele>227.0</ele><time>2026-04-03T14:02:19.266Z</time></trkpt><trkpt lat="43.249115" lon="11.3632917"><ele>228.0</ele><time>2026-04-03T14:02:20.266Z</time></trkpt><trkpt lat="43.2490333" lon="11.36338"><ele>228.0</ele><time>2026-04-03T14:02:21.266Z</time></trkpt><trkpt lat="43.248955" lon="11.3634683"><ele>228.0</ele><time>2026-04-03T14:02:22.267Z</time></trkpt><trkpt lat="43.2488833" lon="11.3635617"><ele>228.0</ele><time>2026-04-03T14:02:23.266Z</time></trkpt><trkpt lat="43.2488117" lon="11.3636717"><ele>228.0</ele><time>2026-04-03T14:02:24.266Z</time></trkpt><trkpt lat="43.2487417" lon="11.3637783"><ele>228.0</ele><time>2026-04-03T14:02:25.267Z</time></trkpt><trkpt lat="43.2486717" lon="11.36389"><ele>227.8</ele><time>2026-04-03T14:02:26.266Z</time></trkpt><trkpt lat="43.2486" lon="11.364005"><ele>227.60000000000002</ele><time>2026-04-03T14:02:27.266Z</time></trkpt><trkpt lat="43.2485267" lon="11.36411"><ele>227.39999999999998</ele><time>2026-04-03T14:02:28.266Z</time></trkpt><trkpt lat="43.2484567" lon="11.3642083"><ele>227.2</ele><time>2026-04-03T14:02:29.266Z</time></trkpt><trkpt lat="43.24839" lon="11.3643067"><ele>227.0</ele><time>2026-04-03T14:02:30.266Z</time></trkpt><trkpt lat="43.2483317" lon="11.3644133"><ele>227.0</ele><time>2026-04-03T14:02:31.266Z</time></trkpt><trkpt lat="43.2482917" lon="11.36453"><ele>227.0</ele><time>2026-04-03T14:02:32.266Z</time></trkpt><trkpt lat="43.248255" lon="11.3646533"><ele>227.0</ele><time>2026-04-03T14:02:33.266Z</time></trkpt><trkpt lat="43.2482383" lon="11.36479"><ele>227.0</ele><time>2026-04-03T14:02:34.266Z</time></trkpt><trkpt lat="43.248235" lon="11.3649383"><ele>227.0</ele><time>2026-04-03T14:02:35.266Z</time></trkpt><trkpt lat="43.24824" lon="11.3650933"><ele>227.2</ele><time>2026-04-03T14:02:36.267Z</time></trkpt><trkpt lat="43.2482267" lon="11.36524"><ele>227.39999999999998</ele><time>2026-04-03T14:02:37.266Z</time></trkpt><trkpt lat="43.2482133" lon="11.3653633"><ele>227.60000000000002</ele><time>2026-04-03T14:02:38.267Z</time></trkpt><trkpt lat="43.2481767" lon="11.3654933"><ele>227.8</ele><time>2026-04-03T14:02:39.266Z</time></trkpt><trkpt lat="43.2481383" lon="11.3656017"><ele>228.0</ele><time>2026-04-03T14:02:40.266Z</time></trkpt><trkpt lat="43.248085" lon="11.3656983"><ele>227.16666666666666</ele><time>2026-04-03T14:02:41.266Z</time></trkpt><trkpt lat="43.2480233" lon="11.3657783"><ele>226.33333333333331</ele><time>2026-04-03T14:02:42.266Z</time></trkpt><trkpt lat="43.2479717" lon="11.3658433"><ele>225.5</ele><time>2026-04-03T14:02:43.266Z</time></trkpt><trkpt lat="43.2479117" lon="11.3659083"><ele>224.66666666666666</ele><time>2026-04-03T14:02:44.266Z</time></trkpt><trkpt lat="43.247835" lon="11.3659717"><ele>223.83333333333331</ele><time>2026-04-03T14:02:45.267Z</time></trkpt><trkpt lat="43.2477383" lon="11.3660233"><ele>223.0</ele><time>2026-04-03T14:02:46.266Z</time></trkpt><trkpt lat="43.2476283" lon="11.3660583"><ele>223.0</ele><time>2026-04-03T14:02:47.266Z</time></trkpt><trkpt lat="43.247515" lon="11.3660817"><ele>223.0</ele><time>2026-04-03T14:02:48.266Z</time></trkpt><trkpt lat="43.2473983" lon="11.3661"><ele>223.0</ele><time>2026-04-03T14:02:49.267Z</time></trkpt><trkpt lat="43.2472817" lon="11.3661217"><ele>223.0</ele><time>2026-04-03T14:02:50.266Z</time></trkpt><trkpt lat="43.2471633" lon="11.36616"><ele>222.60000000000002</ele><time>2026-04-03T14:02:51.266Z</time></trkpt><trkpt lat="43.24705" lon="11.3661917"><ele>222.20000000000002</ele><time>2026-04-03T14:02:52.266Z</time></trkpt><trkpt lat="43.24694" lon="11.3662317"><ele>221.8</ele><time>2026-04-03T14:02:53.266Z</time></trkpt><trkpt lat="43.2468317" lon="11.36627"><ele>221.4</ele><time>2026-04-03T14:02:54.266Z</time></trkpt><trkpt lat="43.246735" lon="11.3663133"><ele>221.0</ele><time>2026-04-03T14:02:55.267Z</time></trkpt><trkpt lat="43.24664" lon="11.3663567"><ele>221.4</ele><time>2026-04-03T14:02:56.267Z</time></trkpt><trkpt lat="43.246545" lon="11.3664117"><ele>221.8</ele><time>2026-04-03T14:02:57.266Z</time></trkpt><trkpt lat="43.24645" lon="11.366475"><ele>222.20000000000002</ele><time>2026-04-03T14:02:58.266Z</time></trkpt><trkpt lat="43.2463483" lon="11.366535"><ele>222.60000000000002</ele><time>2026-04-03T14:02:59.266Z</time></trkpt><trkpt lat="43.2462533" lon="11.366605"><ele>223.0</ele><time>2026-04-03T14:03:00.266Z</time></trkpt><trkpt lat="43.246165" lon="11.3666833"><ele>223.25</ele><time>2026-04-03T14:03:01.266Z</time></trkpt><trkpt lat="43.2460733" lon="11.3667767"><ele>223.5</ele><time>2026-04-03T14:03:02.266Z</time></trkpt><trkpt lat="43.2459833" lon="11.3668817"><ele>223.75</ele><time>2026-04-03T14:03:03.266Z</time></trkpt><trkpt lat="43.245895" lon="11.36698"><ele>224.0</ele><time>2026-04-03T14:03:04.266Z</time></trkpt><trkpt lat="43.245805" lon="11.36708"><ele>224.0</ele><time>2026-04-03T14:03:05.266Z</time></trkpt><trkpt lat="43.2457133" lon="11.3671717"><ele>223.99999999999997</ele><time>2026-04-03T14:03:06.266Z</time></trkpt><trkpt lat="43.2456217" lon="11.3672517"><ele>223.99999999999997</ele><time>2026-04-03T14:03:07.266Z</time></trkpt><trkpt lat="43.245525" lon="11.3673233"><ele>224.0</ele><time>2026-04-03T14:03:08.266Z</time></trkpt><trkpt lat="43.2454333" lon="11.3673733"><ele>224.0</ele><time>2026-04-03T14:03:09.267Z</time></trkpt><trkpt lat="43.2453367" lon="11.3674217"><ele>223.2</ele><time>2026-04-03T14:03:10.267Z</time></trkpt><trkpt lat="43.2452383" lon="11.3674683"><ele>222.39999999999998</ele><time>2026-04-03T14:03:11.266Z</time></trkpt><trkpt lat="43.245135" lon="11.3674967"><ele>221.6</ele><time>2026-04-03T14:03:12.267Z</time></trkpt><trkpt lat="43.2450367" lon="11.3675217"><ele>220.8</ele><time>2026-04-03T14:03:13.266Z</time></trkpt><trkpt lat="43.2449433" lon="11.3675533"><ele>220.0</ele><time>2026-04-03T14:03:14.266Z</time></trkpt><trkpt lat="43.2448467" lon="11.367585"><ele>220.6</ele><time>2026-04-03T14:03:15.267Z</time></trkpt><trkpt lat="43.24474" lon="11.3676167"><ele>221.2</ele><time>2026-04-03T14:03:16.266Z</time></trkpt><trkpt lat="43.2446417" lon="11.36765"><ele>221.8</ele><time>2026-04-03T14:03:17.267Z</time></trkpt><trkpt lat="43.244545" lon="11.3676683"><ele>222.4</ele><time>2026-04-03T14:03:18.267Z</time></trkpt><trkpt lat="43.24445" lon="11.367695"><ele>223.0</ele><time>2026-04-03T14:03:19.266Z</time></trkpt><trkpt lat="43.2443533" lon="11.3677267"><ele>223.0</ele><time>2026-04-03T14:03:20.266Z</time></trkpt><trkpt lat="43.244265" lon="11.3677517"><ele>223.0</ele><time>2026-04-03T14:03:21.266Z</time></trkpt><trkpt lat="43.2441733" lon="11.3677933"><ele>223.0</ele><time>2026-04-03T14:03:22.266Z</time></trkpt><trkpt lat="43.2440767" lon="11.3678333"><ele>223.0</ele><time>2026-04-03T14:03:23.266Z</time></trkpt><trkpt lat="43.2439783" lon="11.3678783"><ele>223.0</ele><time>2026-04-03T14:03:24.267Z</time></trkpt><trkpt lat="43.24388" lon="11.367915"><ele>223.60000000000002</ele><time>2026-04-03T14:03:25.266Z</time></trkpt><trkpt lat="43.24378" lon="11.367935"><ele>224.20000000000002</ele><time>2026-04-03T14:03:26.266Z</time></trkpt><trkpt lat="43.2436733" lon="11.3679633"><ele>224.8</ele><time>2026-04-03T14:03:27.266Z</time></trkpt><trkpt lat="43.2435583" lon="11.36798"><ele>225.4</ele><time>2026-04-03T14:03:28.266Z</time></trkpt><trkpt lat="43.2434617" lon="11.3679933"><ele>226.0</ele><time>2026-04-03T14:03:29.266Z</time></trkpt><trkpt lat="43.2433567" lon="11.36801"><ele>225.20000000000002</ele><time>2026-04-03T14:03:30.267Z</time></trkpt><trkpt lat="43.2432533" lon="11.3680317"><ele>224.40000000000003</ele><time>2026-04-03T14:03:31.267Z</time></trkpt><trkpt lat="43.2431417" lon="11.3680633"><ele>223.6</ele><time>2026-04-03T14:03:32.266Z</time></trkpt><trkpt lat="43.2430317" lon="11.3680867"><ele>222.8</ele><time>2026-04-03T14:03:33.266Z</time></trkpt><trkpt lat="43.242925" lon="11.3681467"><ele>222.0</ele><time>2026-04-03T14:03:34.267Z</time></trkpt><trkpt lat="43.2428233" lon="11.368205"><ele>222.0</ele><time>2026-04-03T14:03:35.266Z</time></trkpt><trkpt lat="43.242725" lon="11.3682617"><ele>222.0</ele><time>2026-04-03T14:03:36.266Z</time></trkpt><trkpt lat="43.24263" lon="11.3683433"><ele>222.0</ele><time>2026-04-03T14:03:37.266Z</time></trkpt><trkpt lat="43.2425283" lon="11.3684383"><ele>222.0</ele><time>2026-04-03T14:03:38.266Z</time></trkpt><trkpt lat="43.2424317" lon="11.3685517"><ele>222.0</ele><time>2026-04-03T14:03:39.266Z</time></trkpt><trkpt lat="43.2423333" lon="11.368675"><ele>222.0</ele><time>2026-04-03T14:03:40.266Z</time></trkpt><trkpt lat="43.24224" lon="11.368795"><ele>222.0</ele><time>2026-04-03T14:03:41.266Z</time></trkpt><trkpt lat="43.2421517" lon="11.368915"><ele>222.0</ele><time>2026-04-03T14:03:42.266Z</time></trkpt><trkpt lat="43.242065" lon="11.3690283"><ele>221.6</ele><time>2026-04-03T14:03:43.266Z</time></trkpt><trkpt lat="43.2419867" lon="11.3691317"><ele>221.2</ele><time>2026-04-03T14:03:44.266Z</time></trkpt><trkpt lat="43.24191" lon="11.36922"><ele>220.8</ele><time>2026-04-03T14:03:45.266Z</time></trkpt><trkpt lat="43.24183" lon="11.3693267"><ele>220.4</ele><time>2026-04-03T14:03:46.266Z</time></trkpt><trkpt lat="43.241745" lon="11.369425"><ele>220.0</ele><time>2026-04-03T14:03:47.266Z</time></trkpt><trkpt lat="43.2416617" lon="11.3695267"><ele>220.0</ele><time>2026-04-03T14:03:48.266Z</time></trkpt><trkpt lat="43.241565" lon="11.3696417"><ele>220.0</ele><time>2026-04-03T14:03:49.266Z</time></trkpt><trkpt lat="43.2414767" lon="11.3697533"><ele>220.0</ele><time>2026-04-03T14:03:50.266Z</time></trkpt><trkpt lat="43.2413917" lon="11.369845"><ele>220.0</ele><time>2026-04-03T14:03:51.266Z</time></trkpt><trkpt lat="43.2413183" lon="11.3699367"><ele>219.0</ele><time>2026-04-03T14:03:52.266Z</time></trkpt><trkpt lat="43.2412217" lon="11.370025"><ele>218.0</ele><time>2026-04-03T14:03:53.267Z</time></trkpt><trkpt lat="43.2411417" lon="11.3701083"><ele>217.0</ele><time>2026-04-03T14:03:54.267Z</time></trkpt><trkpt lat="43.24106" lon="11.3701883"><ele>216.0</ele><time>2026-04-03T14:03:55.266Z</time></trkpt><trkpt lat="43.2409817" lon="11.3702683"><ele>215.0</ele><time>2026-04-03T14:03:56.266Z</time></trkpt><trkpt lat="43.2408983" lon="11.370345"><ele>215.0</ele><time>2026-04-03T14:03:57.266Z</time></trkpt><trkpt lat="43.24081" lon="11.3704317"><ele>215.0</ele><time>2026-04-03T14:03:58.266Z</time></trkpt><trkpt lat="43.2407183" lon="11.3705183"><ele>215.0</ele><time>2026-04-03T14:03:59.266Z</time></trkpt><trkpt lat="43.2406317" lon="11.3706067"><ele>215.0</ele><time>2026-04-03T14:04:00.266Z</time></trkpt><trkpt lat="43.2405417" lon="11.3707117"><ele>215.0</ele><time>2026-04-03T14:04:01.267Z</time></trkpt><trkpt lat="43.2404567" lon="11.3708367"><ele>215.5</ele><time>2026-04-03T14:04:02.266Z</time></trkpt><trkpt lat="43.2403733" lon="11.3709633"><ele>216.0</ele><time>2026-04-03T14:04:03.266Z</time></trkpt><trkpt lat="43.2402917" lon="11.3710767"><ele>216.5</ele><time>2026-04-03T14:04:04.267Z</time></trkpt><trkpt lat="43.2402083" lon="11.3711983"><ele>217.0</ele><time>2026-04-03T14:04:05.266Z</time></trkpt><trkpt lat="43.24013" lon="11.3713333"><ele>216.25</ele><time>2026-04-03T14:04:06.267Z</time></trkpt><trkpt lat="43.2400567" lon="11.371475"><ele>215.5</ele><time>2026-04-03T14:04:07.267Z</time></trkpt><trkpt lat="43.2399917" lon="11.371605"><ele>214.75</ele><time>2026-04-03T14:04:08.266Z</time></trkpt><trkpt lat="43.23993" lon="11.3717283"><ele>214.0</ele><time>2026-04-03T14:04:09.267Z</time></trkpt><trkpt lat="43.2398733" lon="11.3718483"><ele>214.0</ele><time>2026-04-03T14:04:10.267Z</time></trkpt><trkpt lat="43.2398217" lon="11.3719517"><ele>213.99999999999997</ele><time>2026-04-03T14:04:11.266Z</time></trkpt><trkpt lat="43.239775" lon="11.372055"><ele>213.99999999999997</ele><time>2026-04-03T14:04:12.266Z</time></trkpt><trkpt lat="43.2397233" lon="11.3721533"><ele>214.0</ele><time>2026-04-03T14:04:13.266Z</time></trkpt><trkpt lat="43.23967" lon="11.3722667"><ele>214.0</ele><time>2026-04-03T14:04:14.267Z</time></trkpt><trkpt lat="43.2396133" lon="11.3723833"><ele>213.79999999999998</ele><time>2026-04-03T14:04:15.266Z</time></trkpt><trkpt lat="43.2395583" lon="11.3725083"><ele>213.59999999999997</ele><time>2026-04-03T14:04:16.267Z</time></trkpt><trkpt lat="43.2394917" lon="11.372605"><ele>213.4</ele><time>2026-04-03T14:04:17.266Z</time></trkpt><trkpt lat="43.2394183" lon="11.37266"><ele>213.2</ele><time>2026-04-03T14:04:18.266Z</time></trkpt><trkpt lat="43.2393217" lon="11.372695"><ele>213.0</ele><time>2026-04-03T14:04:19.266Z</time></trkpt><trkpt lat="43.2392183" lon="11.3727"><ele>213.0</ele><time>2026-04-03T14:04:20.266Z</time></trkpt><trkpt lat="43.23912" lon="11.372675"><ele>213.0</ele><time>2026-04-03T14:04:21.266Z</time></trkpt><trkpt lat="43.2390083" lon="11.3726783"><ele>213.0</ele><time>2026-04-03T14:04:22.267Z</time></trkpt><trkpt lat="43.2388983" lon="11.372695"><ele>213.0</ele><time>2026-04-03T14:04:23.267Z</time></trkpt><trkpt lat="43.2387933" lon="11.3727217"><ele>213.0</ele><time>2026-04-03T14:04:24.266Z</time></trkpt><trkpt lat="43.238685" lon="11.372765"><ele>213.0</ele><time>2026-04-03T14:04:25.266Z</time></trkpt><trkpt lat="43.2385767" lon="11.3728233"><ele>213.0</ele><time>2026-04-03T14:04:26.266Z</time></trkpt><trkpt lat="43.2384883" lon="11.3728817"><ele>213.0</ele><time>2026-04-03T14:04:27.266Z</time></trkpt><trkpt lat="43.23841" lon="11.3729433"><ele>213.0</ele><time>2026-04-03T14:04:28.266Z</time></trkpt><trkpt lat="43.2383483" lon="11.37301"><ele>213.0</ele><time>2026-04-03T14:04:29.266Z</time></trkpt><trkpt lat="43.23829" lon="11.3731"><ele>211.4</ele><time>2026-04-03T14:04:30.266Z</time></trkpt><trkpt lat="43.23824" lon="11.3732083"><ele>209.8</ele><time>2026-04-03T14:04:31.266Z</time></trkpt><trkpt lat="43.23821" lon="11.3733383"><ele>208.2</ele><time>2026-04-03T14:04:32.267Z</time></trkpt><trkpt lat="43.2382083" lon="11.373495"><ele>206.6</ele><time>2026-04-03T14:04:33.266Z</time></trkpt><trkpt lat="43.2382117" lon="11.3736533"><ele>205.0</ele><time>2026-04-03T14:04:34.266Z</time></trkpt><trkpt lat="43.23823" lon="11.37379"><ele>204.83333333333331</ele><time>2026-04-03T14:04:35.266Z</time></trkpt><trkpt lat="43.2382417" lon="11.3739133"><ele>204.66666666666666</ele><time>2026-04-03T14:04:36.266Z</time></trkpt><trkpt lat="43.238255" lon="11.3740417"><ele>204.5</ele><time>2026-04-03T14:04:37.266Z</time></trkpt><trkpt lat="43.2382733" lon="11.374155"><ele>204.33333333333331</ele><time>2026-04-03T14:04:38.266Z</time></trkpt><trkpt lat="43.23828" lon="11.3742733"><ele>204.16666666666666</ele><time>2026-04-03T14:04:39.266Z</time></trkpt><trkpt lat="43.2382867" lon="11.3743833"><ele>204.0</ele><time>2026-04-03T14:04:40.266Z</time></trkpt><trkpt lat="43.2382967" lon="11.374495"><ele>204.0</ele><time>2026-04-03T14:04:41.266Z</time></trkpt><trkpt lat="43.2383" lon="11.3746083"><ele>204.0</ele><time>2026-04-03T14:04:42.267Z</time></trkpt><trkpt lat="43.238295" lon="11.3747317"><ele>204.0</ele><time>2026-04-03T14:04:43.266Z</time></trkpt><trkpt lat="43.238275" lon="11.374865"><ele>204.0</ele><time>2026-04-03T14:04:44.267Z</time></trkpt><trkpt lat="43.2382433" lon="11.37499"><ele>204.0</ele><time>2026-04-03T14:04:45.266Z</time></trkpt><trkpt lat="43.238195" lon="11.375095"><ele>204.0</ele><time>2026-04-03T14:04:46.266Z</time></trkpt><trkpt lat="43.2381317" lon="11.3751817"><ele>204.0</ele><time>2026-04-03T14:04:47.267Z</time></trkpt><trkpt lat="43.2380383" lon="11.37527"><ele>204.0</ele><time>2026-04-03T14:04:48.266Z</time></trkpt><trkpt lat="43.2379383" lon="11.3753533"><ele>204.0</ele><time>2026-04-03T14:04:49.266Z</time></trkpt><trkpt lat="43.2378383" lon="11.375435"><ele>204.0</ele><time>2026-04-03T14:04:50.267Z</time></trkpt><trkpt lat="43.23774" lon="11.3755183"><ele>202.75</ele><time>2026-04-03T14:04:51.266Z</time></trkpt><trkpt lat="43.2376417" lon="11.37561"><ele>201.5</ele><time>2026-04-03T14:04:52.266Z</time></trkpt><trkpt lat="43.23755" lon="11.3757117"><ele>200.25</ele><time>2026-04-03T14:04:53.267Z</time></trkpt><trkpt lat="43.2374533" lon="11.3758167"><ele>199.0</ele><time>2026-04-03T14:04:54.266Z</time></trkpt><trkpt lat="43.2373667" lon="11.3759083"><ele>198.39999999999998</ele><time>2026-04-03T14:04:55.266Z</time></trkpt><trkpt lat="43.2372833" lon="11.3760017"><ele>197.8</ele><time>2026-04-03T14:04:56.267Z</time></trkpt><trkpt lat="43.2372033" lon="11.37608"><ele>197.2</ele><time>2026-04-03T14:04:57.266Z</time></trkpt><trkpt lat="43.2371283" lon="11.37617"><ele>196.60000000000002</ele><time>2026-04-03T14:04:58.266Z</time></trkpt><trkpt lat="43.2370467" lon="11.3762617"><ele>196.0</ele><time>2026-04-03T14:04:59.266Z</time></trkpt><trkpt lat="43.2369583" lon="11.3763367"><ele>196.0</ele><time>2026-04-03T14:05:00.267Z</time></trkpt><trkpt lat="43.236865" lon="11.37639"><ele>196.0</ele><time>2026-04-03T14:05:01.267Z</time></trkpt><trkpt lat="43.2367617" lon="11.3764083"><ele>196.0</ele><time>2026-04-03T14:05:02.266Z</time></trkpt><trkpt lat="43.23666" lon="11.3764117"><ele>196.0</ele><time>2026-04-03T14:05:03.266Z</time></trkpt><trkpt lat="43.2365683" lon="11.3763883"><ele>196.0</ele><time>2026-04-03T14:05:04.267Z</time></trkpt><trkpt lat="43.2364817" lon="11.3763483"><ele>194.0</ele><time>2026-04-03T14:05:05.266Z</time></trkpt><trkpt lat="43.2363983" lon="11.3762933"><ele>192.0</ele><time>2026-04-03T14:05:06.266Z</time></trkpt><trkpt lat="43.2363467" lon="11.3762033"><ele>190.0</ele><time>2026-04-03T14:05:07.267Z</time></trkpt><trkpt lat="43.2362917" lon="11.3761083"><ele>188.0</ele><time>2026-04-03T14:05:08.266Z</time></trkpt><trkpt lat="43.2362533" lon="11.37598"><ele>186.0</ele><time>2026-04-03T14:05:09.266Z</time></trkpt><trkpt lat="43.2362283" lon="11.3758483"><ele>186.0</ele><time>2026-04-03T14:05:10.266Z</time></trkpt><trkpt lat="43.2362117" lon="11.3757083"><ele>186.0</ele><time>2026-04-03T14:05:11.267Z</time></trkpt><trkpt lat="43.2362083" lon="11.3755633"><ele>186.0</ele><time>2026-04-03T14:05:12.266Z</time></trkpt><trkpt lat="43.2362117" lon="11.3754283"><ele>186.0</ele><time>2026-04-03T14:05:13.266Z</time></trkpt><trkpt lat="43.23623" lon="11.375305"><ele>186.0</ele><time>2026-04-03T14:05:14.266Z</time></trkpt><trkpt lat="43.2362683" lon="11.3751933"><ele>185.33333333333334</ele><time>2026-04-03T14:05:15.267Z</time></trkpt><trkpt lat="43.2363167" lon="11.3750983"><ele>184.66666666666666</ele><time>2026-04-03T14:05:16.266Z</time></trkpt><trkpt lat="43.2363683" lon="11.3749933"><ele>184.0</ele><time>2026-04-03T14:05:17.266Z</time></trkpt><trkpt lat="43.236415" lon="11.3749"><ele>183.33333333333331</ele><time>2026-04-03T14:05:18.266Z</time></trkpt><trkpt lat="43.236455" lon="11.3748017"><ele>182.66666666666666</ele><time>2026-04-03T14:05:19.267Z</time></trkpt><trkpt lat="43.236485" lon="11.3747"><ele>182.0</ele><time>2026-04-03T14:05:20.266Z</time></trkpt><trkpt lat="43.2365167" lon="11.3745817"><ele>183.8</ele><time>2026-04-03T14:05:21.267Z</time></trkpt><trkpt lat="43.2365417" lon="11.3744533"><ele>185.6</ele><time>2026-04-03T14:05:22.266Z</time></trkpt><trkpt lat="43.23656" lon="11.3743233"><ele>187.4</ele><time>2026-04-03T14:05:23.267Z</time></trkpt><trkpt lat="43.2365767" lon="11.374195"><ele>189.20000000000002</ele><time>2026-04-03T14:05:24.266Z</time></trkpt><trkpt lat="43.2365917" lon="11.3740717"><ele>191.0</ele><time>2026-04-03T14:05:25.266Z</time></trkpt><trkpt lat="43.23659" lon="11.3739533"><ele>190.33333333333331</ele><time>2026-04-03T14:05:26.266Z</time></trkpt><trkpt lat="43.2365783" lon="11.3738383"><ele>189.66666666666666</ele><time>2026-04-03T14:05:27.266Z</time></trkpt><trkpt lat="43.2365583" lon="11.3737233"><ele>189.0</ele><time>2026-04-03T14:05:28.266Z</time></trkpt><trkpt lat="43.2365217" lon="11.3736217"><ele>188.33333333333334</ele><time>2026-04-03T14:05:29.266Z</time></trkpt><trkpt lat="43.236465" lon="11.3735267"><ele>187.66666666666669</ele><time>2026-04-03T14:05:30.267Z</time></trkpt><trkpt lat="43.2364083" lon="11.3734583"><ele>187.0</ele><time>2026-04-03T14:05:31.266Z</time></trkpt><trkpt lat="43.23634" lon="11.3734117"><ele>186.0</ele><time>2026-04-03T14:05:32.266Z</time></trkpt><trkpt lat="43.2362617" lon="11.3733883"><ele>185.0</ele><time>2026-04-03T14:05:33.267Z</time></trkpt><trkpt lat="43.2361717" lon="11.3734017"><ele>184.0</ele><time>2026-04-03T14:05:34.266Z</time></trkpt><trkpt lat="43.23608" lon="11.3734"><ele>183.0</ele><time>2026-04-03T14:05:35.267Z</time></trkpt><trkpt lat="43.23598" lon="11.3734083"><ele>182.0</ele><time>2026-04-03T14:05:36.266Z</time></trkpt><trkpt lat="43.2358867" lon="11.3734233"><ele>182.0</ele><time>2026-04-03T14:05:37.267Z</time></trkpt><trkpt lat="43.235785" lon="11.3734333"><ele>182.0</ele><time>2026-04-03T14:05:38.266Z</time></trkpt><trkpt lat="43.2356867" lon="11.37344"><ele>182.0</ele><time>2026-04-03T14:05:39.267Z</time></trkpt><trkpt lat="43.2355783" lon="11.3734533"><ele>182.0</ele><time>2026-04-03T14:05:40.266Z</time></trkpt><trkpt lat="43.2354583" lon="11.3734683"><ele>182.0</ele><time>2026-04-03T14:05:41.266Z</time></trkpt><trkpt lat="43.2353317" lon="11.3734817"><ele>180.75</ele><time>2026-04-03T14:05:42.266Z</time></trkpt><trkpt lat="43.2352" lon="11.3734817"><ele>179.5</ele><time>2026-04-03T14:05:43.266Z</time></trkpt><trkpt lat="43.2350717" lon="11.373495"><ele>178.25</ele><time>2026-04-03T14:05:44.266Z</time></trkpt><trkpt lat="43.234955" lon="11.3735167"><ele>177.0</ele><time>2026-04-03T14:05:45.266Z</time></trkpt><trkpt lat="43.23484" lon="11.373535"><ele>177.25</ele><time>2026-04-03T14:05:46.266Z</time></trkpt><trkpt lat="43.2347217" lon="11.3735467"><ele>177.5</ele><time>2026-04-03T14:05:47.267Z</time></trkpt><trkpt lat="43.2346" lon="11.37356"><ele>177.75</ele><time>2026-04-03T14:05:48.266Z</time></trkpt><trkpt lat="43.234475" lon="11.3735667"><ele>178.0</ele><time>2026-04-03T14:05:49.267Z</time></trkpt><trkpt lat="43.23436" lon="11.3735633"><ele>178.0</ele><time>2026-04-03T14:05:50.266Z</time></trkpt><trkpt lat="43.234225" lon="11.3735783"><ele>178.0</ele><time>2026-04-03T14:05:51.266Z</time></trkpt><trkpt lat="43.2341" lon="11.3735817"><ele>178.0</ele><time>2026-04-03T14:05:52.267Z</time></trkpt><trkpt lat="43.233985" lon="11.3735817"><ele>178.0</ele><time>2026-04-03T14:05:53.266Z</time></trkpt><trkpt lat="43.2338783" lon="11.37359"><ele>178.25</ele><time>2026-04-03T14:05:54.266Z</time></trkpt><trkpt lat="43.2337733" lon="11.3736367"><ele>178.5</ele><time>2026-04-03T14:05:55.266Z</time></trkpt><trkpt lat="43.2336667" lon="11.373685"><ele>178.75</ele><time>2026-04-03T14:05:56.266Z</time></trkpt><trkpt lat="43.2335583" lon="11.3737433"><ele>179.0</ele><time>2026-04-03T14:05:57.266Z</time></trkpt><trkpt lat="43.2334533" lon="11.3738133"><ele>179.0</ele><time>2026-04-03T14:05:58.266Z</time></trkpt><trkpt lat="43.23334" lon="11.3738817"><ele>179.0</ele><time>2026-04-03T14:05:59.266Z</time></trkpt><trkpt lat="43.2332317" lon="11.3739617"><ele>179.0</ele><time>2026-04-03T14:06:00.266Z</time></trkpt><trkpt lat="43.23313" lon="11.374035"><ele>179.0</ele><time>2026-04-03T14:06:01.266Z</time></trkpt><trkpt lat="43.23302" lon="11.3741133"><ele>179.0</ele><time>2026-04-03T14:06:02.266Z</time></trkpt><trkpt lat="43.232915" lon="11.3741883"><ele>179.0</ele><time>2026-04-03T14:06:03.266Z</time></trkpt><trkpt lat="43.2327983" lon="11.3742633"><ele>179.0</ele><time>2026-04-03T14:06:04.266Z</time></trkpt><trkpt lat="43.2326833" lon="11.374335"><ele>179.0</ele><time>2026-04-03T14:06:05.266Z</time></trkpt><trkpt lat="43.232565" lon="11.3744217"><ele>179.0</ele><time>2026-04-03T14:06:06.266Z</time></trkpt><trkpt lat="43.23245" lon="11.3745017"><ele>179.0</ele><time>2026-04-03T14:06:07.266Z</time></trkpt><trkpt lat="43.2323333" lon="11.37458"><ele>179.0</ele><time>2026-04-03T14:06:08.266Z</time></trkpt><trkpt lat="43.2322217" lon="11.37466"><ele>179.0</ele><time>2026-04-03T14:06:09.266Z</time></trkpt><trkpt lat="43.232105" lon="11.37475"><ele>179.0</ele><time>2026-04-03T14:06:10.266Z</time></trkpt><trkpt lat="43.2319767" lon="11.3748383"><ele>179.0</ele><time>2026-04-03T14:06:11.266Z</time></trkpt><trkpt lat="43.23186" lon="11.3749183"><ele>179.0</ele><time>2026-04-03T14:06:12.266Z</time></trkpt><trkpt lat="43.2317417" lon="11.3749967"><ele>179.0</ele><time>2026-04-03T14:06:13.266Z</time></trkpt><trkpt lat="43.231625" lon="11.375085"><ele>179.0</ele><time>2026-04-03T14:06:14.266Z</time></trkpt><trkpt lat="43.2315133" lon="11.3751817"><ele>179.0</ele><time>2026-04-03T14:06:15.266Z</time></trkpt><trkpt lat="43.2314083" lon="11.375275"><ele>179.0</ele><time>2026-04-03T14:06:16.266Z</time></trkpt><trkpt lat="43.2312917" lon="11.3753583"><ele>179.0</ele><time>2026-04-03T14:06:17.267Z</time></trkpt><trkpt lat="43.2311817" lon="11.3754417"><ele>179.0</ele><time>2026-04-03T14:06:18.267Z</time></trkpt><trkpt lat="43.2310617" lon="11.3755217"><ele>179.0</ele><time>2026-04-03T14:06:19.266Z</time></trkpt><trkpt lat="43.2309467" lon="11.3756067"><ele>179.0</ele><time>2026-04-03T14:06:20.266Z</time></trkpt><trkpt lat="43.2308267" lon="11.37569"><ele>179.0</ele><time>2026-04-03T14:06:21.266Z</time></trkpt><trkpt lat="43.23071" lon="11.3757733"><ele>180.25</ele><time>2026-04-03T14:06:22.266Z</time></trkpt><trkpt lat="43.230595" lon="11.3758533"><ele>181.5</ele><time>2026-04-03T14:06:23.266Z</time></trkpt><trkpt lat="43.2304783" lon="11.37594"><ele>182.75</ele><time>2026-04-03T14:06:24.267Z</time></trkpt><trkpt lat="43.2303683" lon="11.3760183"><ele>184.0</ele><time>2026-04-03T14:06:25.266Z</time></trkpt><trkpt lat="43.2302517" lon="11.3760983"><ele>184.0</ele><time>2026-04-03T14:06:26.267Z</time></trkpt><trkpt lat="43.23013" lon="11.3761883"><ele>184.0</ele><time>2026-04-03T14:06:27.265Z</time></trkpt><trkpt lat="43.2300083" lon="11.37627"><ele>184.0</ele><time>2026-04-03T14:06:28.266Z</time></trkpt><trkpt lat="43.2298967" lon="11.376355"><ele>184.0</ele><time>2026-04-03T14:06:29.265Z</time></trkpt><trkpt lat="43.2297867" lon="11.3764283"><ele>184.5</ele><time>2026-04-03T14:06:30.265Z</time></trkpt><trkpt lat="43.2296817" lon="11.3765233"><ele>185.0</ele><time>2026-04-03T14:06:31.265Z</time></trkpt><trkpt lat="43.2295767" lon="11.376615"><ele>185.5</ele><time>2026-04-03T14:06:32.265Z</time></trkpt><trkpt lat="43.229475" lon="11.3766983"><ele>186.0</ele><time>2026-04-03T14:06:33.265Z</time></trkpt><trkpt lat="43.229365" lon="11.3767983"><ele>186.0</ele><time>2026-04-03T14:06:34.265Z</time></trkpt><trkpt lat="43.2292533" lon="11.3768833"><ele>186.0</ele><time>2026-04-03T14:06:35.266Z</time></trkpt><trkpt lat="43.2291417" lon="11.376965"><ele>186.0</ele><time>2026-04-03T14:06:36.266Z</time></trkpt><trkpt lat="43.2290283" lon="11.377035"><ele>186.0</ele><time>2026-04-03T14:06:37.265Z</time></trkpt><trkpt lat="43.2289133" lon="11.3771"><ele>187.0</ele><time>2026-04-03T14:06:38.265Z</time></trkpt><trkpt lat="43.2287983" lon="11.377165"><ele>188.0</ele><time>2026-04-03T14:06:39.266Z</time></trkpt><trkpt lat="43.228685" lon="11.3772117"><ele>189.0</ele><time>2026-04-03T14:06:40.265Z</time></trkpt><trkpt lat="43.228575" lon="11.37726"><ele>190.0</ele><time>2026-04-03T14:06:41.265Z</time></trkpt><trkpt lat="43.2284517" lon="11.3772867"><ele>187.0</ele><time>2026-04-03T14:06:42.265Z</time></trkpt><trkpt lat="43.2283317" lon="11.3773033"><ele>184.0</ele><time>2026-04-03T14:06:43.265Z</time></trkpt><trkpt lat="43.2282117" lon="11.3773117"><ele>181.0</ele><time>2026-04-03T14:06:44.265Z</time></trkpt><trkpt lat="43.2280883" lon="11.37732"><ele>178.0</ele><time>2026-04-03T14:06:45.265Z</time></trkpt><trkpt lat="43.22797" lon="11.3773417"><ele>178.0</ele><time>2026-04-03T14:06:46.265Z</time></trkpt><trkpt lat="43.2278633" lon="11.3773617"><ele>178.0</ele><time>2026-04-03T14:06:47.266Z</time></trkpt><trkpt lat="43.227755" lon="11.3773733"><ele>178.0</ele><time>2026-04-03T14:06:48.265Z</time></trkpt><trkpt lat="43.2276417" lon="11.37736"><ele>178.0</ele><time>2026-04-03T14:06:49.265Z</time></trkpt><trkpt lat="43.2275317" lon="11.377355"><ele>178.0</ele><time>2026-04-03T14:06:50.265Z</time></trkpt><trkpt lat="43.22742" lon="11.3773433"><ele>178.0</ele><time>2026-04-03T14:06:51.266Z</time></trkpt><trkpt lat="43.227315" lon="11.3773167"><ele>178.0</ele><time>2026-04-03T14:06:52.265Z</time></trkpt><trkpt lat="43.2272083" lon="11.3772717"><ele>178.0</ele><time>2026-04-03T14:06:53.266Z</time></trkpt><trkpt lat="43.2271067" lon="11.3772183"><ele>178.0</ele><time>2026-04-03T14:06:54.265Z</time></trkpt><trkpt lat="43.2270083" lon="11.3771633"><ele>178.0</ele><time>2026-04-03T14:06:55.265Z</time></trkpt><trkpt lat="43.226915" lon="11.3770983"><ele>178.75</ele><time>2026-04-03T14:06:56.266Z</time></trkpt><trkpt lat="43.2268183" lon="11.3770117"><ele>179.5</ele><time>2026-04-03T14:06:57.265Z</time></trkpt><trkpt lat="43.226715" lon="11.3769233"><ele>180.25</ele><time>2026-04-03T14:06:58.266Z</time></trkpt><trkpt lat="43.2266217" lon="11.376845"><ele>181.0</ele><time>2026-04-03T14:06:59.265Z</time></trkpt><trkpt lat="43.2265367" lon="11.3767517"><ele>180.5</ele><time>2026-04-03T14:07:00.265Z</time></trkpt><trkpt lat="43.2264517" lon="11.37665"><ele>180.0</ele><time>2026-04-03T14:07:01.266Z</time></trkpt><trkpt lat="43.22637" lon="11.3765317"><ele>179.5</ele><time>2026-04-03T14:07:02.265Z</time></trkpt><trkpt lat="43.2262917" lon="11.3764133"><ele>179.0</ele><time>2026-04-03T14:07:03.265Z</time></trkpt><trkpt lat="43.2262183" lon="11.3762733"><ele>179.0</ele><time>2026-04-03T14:07:04.266Z</time></trkpt><trkpt lat="43.226155" lon="11.3761183"><ele>179.0</ele><time>2026-04-03T14:07:05.265Z</time></trkpt><trkpt lat="43.2261167" lon="11.3759683"><ele>179.0</ele><time>2026-04-03T14:07:06.265Z</time></trkpt><trkpt lat="43.226075" lon="11.3758017"><ele>179.0</ele><time>2026-04-03T14:07:07.265Z</time></trkpt><trkpt lat="43.2260567" lon="11.3756183"><ele>178.75</ele><time>2026-04-03T14:07:08.265Z</time></trkpt><trkpt lat="43.2260483" lon="11.3754483"><ele>178.5</ele><time>2026-04-03T14:07:09.265Z</time></trkpt><trkpt lat="43.2260383" lon="11.3752833"><ele>178.25</ele><time>2026-04-03T14:07:10.265Z</time></trkpt><trkpt lat="43.22605" lon="11.3750983"><ele>178.0</ele><time>2026-04-03T14:07:11.265Z</time></trkpt><trkpt lat="43.2260717" lon="11.374915"><ele>178.0</ele><time>2026-04-03T14:07:12.265Z</time></trkpt><trkpt lat="43.2260883" lon="11.3747283"><ele>178.0</ele><time>2026-04-03T14:07:13.265Z</time></trkpt><trkpt lat="43.22611" lon="11.3745417"><ele>178.0</ele><time>2026-04-03T14:07:14.265Z</time></trkpt><trkpt lat="43.22613" lon="11.3743683"><ele>178.0</ele><time>2026-04-03T14:07:15.266Z</time></trkpt><trkpt lat="43.226135" lon="11.3742133"><ele>178.0</ele><time>2026-04-03T14:07:16.265Z</time></trkpt><trkpt lat="43.2261417" lon="11.3740667"><ele>178.0</ele><time>2026-04-03T14:07:17.265Z</time></trkpt><trkpt lat="43.2261567" lon="11.3739333"><ele>178.0</ele><time>2026-04-03T14:07:18.266Z</time></trkpt><trkpt lat="43.2261533" lon="11.3738"><ele>178.0</ele><time>2026-04-03T14:07:19.266Z</time></trkpt><trkpt lat="43.2261383" lon="11.3736667"><ele>178.0</ele><time>2026-04-03T14:07:20.265Z</time></trkpt><trkpt lat="43.2261067" lon="11.3735317"><ele>178.0</ele><time>2026-04-03T14:07:21.265Z</time></trkpt><trkpt lat="43.2260733" lon="11.373405"><ele>178.0</ele><time>2026-04-03T14:07:22.265Z</time></trkpt><trkpt lat="43.2260467" lon="11.3732883"><ele>178.0</ele><time>2026-04-03T14:07:23.265Z</time></trkpt><trkpt lat="43.22601" lon="11.3731633"><ele>178.0</ele><time>2026-04-03T14:07:24.265Z</time></trkpt><trkpt lat="43.225975" lon="11.3730383"><ele>178.0</ele><time>2026-04-03T14:07:25.265Z</time></trkpt><trkpt lat="43.225925" lon="11.3729017"><ele>178.8</ele><time>2026-04-03T14:07:26.265Z</time></trkpt><trkpt lat="43.2258867" lon="11.3727767"><ele>179.60000000000002</ele><time>2026-04-03T14:07:27.266Z</time></trkpt><trkpt lat="43.2258467" lon="11.3726483"><ele>180.39999999999998</ele><time>2026-04-03T14:07:28.265Z</time></trkpt><trkpt lat="43.2258017" lon="11.37252"><ele>181.2</ele><time>2026-04-03T14:07:29.265Z</time></trkpt><trkpt lat="43.2257517" lon="11.3723983"><ele>182.0</ele><time>2026-04-03T14:07:30.265Z</time></trkpt><trkpt lat="43.2257067" lon="11.3722917"><ele>182.0</ele><time>2026-04-03T14:07:31.265Z</time></trkpt><trkpt lat="43.2256617" lon="11.3722083"><ele>182.0</ele><time>2026-04-03T14:07:32.265Z</time></trkpt><trkpt lat="43.2256083" lon="11.3721417"><ele>182.0</ele><time>2026-04-03T14:07:33.265Z</time></trkpt><trkpt lat="43.2255317" lon="11.3721317"><ele>182.0</ele><time>2026-04-03T14:07:34.265Z</time></trkpt><trkpt lat="43.2254567" lon="11.37214"><ele>182.0</ele><time>2026-04-03T14:07:35.265Z</time></trkpt><trkpt lat="43.2253833" lon="11.3721767"><ele>182.0</ele><time>2026-04-03T14:07:36.265Z</time></trkpt><trkpt lat="43.2253117" lon="11.3722467"><ele>181.6</ele><time>2026-04-03T14:07:37.265Z</time></trkpt><trkpt lat="43.2252533" lon="11.372335"><ele>181.2</ele><time>2026-04-03T14:07:38.265Z</time></trkpt><trkpt lat="43.2252183" lon="11.372455"><ele>180.8</ele><time>2026-04-03T14:07:39.265Z</time></trkpt><trkpt lat="43.2251783" lon="11.3725767"><ele>180.4</ele><time>2026-04-03T14:07:40.265Z</time></trkpt><trkpt lat="43.225145" lon="11.3727283"><ele>180.0</ele><time>2026-04-03T14:07:41.265Z</time></trkpt><trkpt lat="43.22509" lon="11.3728817"><ele>180.0</ele><time>2026-04-03T14:07:42.265Z</time></trkpt><trkpt lat="43.2250333" lon="11.3730133"><ele>180.0</ele><time>2026-04-03T14:07:43.266Z</time></trkpt><trkpt lat="43.2249767" lon="11.3731367"><ele>180.0</ele><time>2026-04-03T14:07:44.266Z</time></trkpt><trkpt lat="43.22491" lon="11.373245"><ele>180.0</ele><time>2026-04-03T14:07:45.265Z</time></trkpt><trkpt lat="43.2248317" lon="11.3733267"><ele>180.0</ele><time>2026-04-03T14:07:46.265Z</time></trkpt><trkpt lat="43.224745" lon="11.37339"><ele>181.6</ele><time>2026-04-03T14:07:47.265Z</time></trkpt><trkpt lat="43.22465" lon="11.3734367"><ele>183.2</ele><time>2026-04-03T14:07:48.266Z</time></trkpt><trkpt lat="43.2245533" lon="11.3734717"><ele>184.8</ele><time>2026-04-03T14:07:49.265Z</time></trkpt><trkpt lat="43.2244417" lon="11.3734967"><ele>186.4</ele><time>2026-04-03T14:07:50.265Z</time></trkpt><trkpt lat="43.224335" lon="11.373505"><ele>188.0</ele><time>2026-04-03T14:07:51.266Z</time></trkpt><trkpt lat="43.2242283" lon="11.3734983"><ele>188.0</ele><time>2026-04-03T14:07:52.265Z</time></trkpt><trkpt lat="43.224125" lon="11.37348"><ele>188.0</ele><time>2026-04-03T14:07:53.265Z</time></trkpt><trkpt lat="43.2240383" lon="11.3734283"><ele>188.0</ele><time>2026-04-03T14:07:54.265Z</time></trkpt><trkpt lat="43.2239517" lon="11.373365"><ele>188.0</ele><time>2026-04-03T14:07:55.265Z</time></trkpt><trkpt lat="43.2238667" lon="11.373285"><ele>188.0</ele><time>2026-04-03T14:07:56.265Z</time></trkpt><trkpt lat="43.2237933" lon="11.3731933"><ele>191.60000000000002</ele><time>2026-04-03T14:07:57.266Z</time></trkpt><trkpt lat="43.22372" lon="11.3730917"><ele>195.20000000000002</ele><time>2026-04-03T14:07:58.265Z</time></trkpt><trkpt lat="43.2236667" lon="11.3729817"><ele>198.8</ele><time>2026-04-03T14:07:59.265Z</time></trkpt><trkpt lat="43.2236183" lon="11.3728533"><ele>202.4</ele><time>2026-04-03T14:08:00.265Z</time></trkpt><trkpt lat="43.223605" lon="11.3727367"><ele>206.0</ele><time>2026-04-03T14:08:01.265Z</time></trkpt><trkpt lat="43.2236" lon="11.3725833"><ele>206.0</ele><time>2026-04-03T14:08:02.265Z</time></trkpt><trkpt lat="43.2236033" lon="11.372445"><ele>206.0</ele><time>2026-04-03T14:08:03.265Z</time></trkpt><trkpt lat="43.223635" lon="11.3723183"><ele>206.0</ele><time>2026-04-03T14:08:04.265Z</time></trkpt><trkpt lat="43.2236567" lon="11.3721633"><ele>206.0</ele><time>2026-04-03T14:08:05.265Z</time></trkpt><trkpt lat="43.223675" lon="11.37201"><ele>206.0</ele><time>2026-04-03T14:08:06.265Z</time></trkpt><trkpt lat="43.223675" lon="11.3718983"><ele>206.0</ele><time>2026-04-03T14:08:07.265Z</time></trkpt><trkpt lat="43.22367" lon="11.3717733"><ele>206.0</ele><time>2026-04-03T14:08:08.266Z</time></trkpt><trkpt lat="43.2236467" lon="11.371655"><ele>206.0</ele><time>2026-04-03T14:08:09.265Z</time></trkpt><trkpt lat="43.223605" lon="11.3715433"><ele>206.0</ele><time>2026-04-03T14:08:10.265Z</time></trkpt><trkpt lat="43.223555" lon="11.371445"><ele>206.0</ele><time>2026-04-03T14:08:11.265Z</time></trkpt><trkpt lat="43.2234633" lon="11.3713533"><ele>205.20000000000002</ele><time>2026-04-03T14:08:12.266Z</time></trkpt><trkpt lat="43.2233667" lon="11.3712533"><ele>204.4</ele><time>2026-04-03T14:08:13.265Z</time></trkpt><trkpt lat="43.2232833" lon="11.3711983"><ele>203.6</ele><time>2026-04-03T14:08:14.265Z</time></trkpt><trkpt lat="43.22319" lon="11.371165"><ele>202.8</ele><time>2026-04-03T14:08:15.265Z</time></trkpt><trkpt lat="43.2230933" lon="11.371165"><ele>202.0</ele><time>2026-04-03T14:08:16.265Z</time></trkpt><trkpt lat="43.22302" lon="11.3711917"><ele>201.75</ele><time>2026-04-03T14:08:17.266Z</time></trkpt><trkpt lat="43.2229433" lon="11.3712467"><ele>201.5</ele><time>2026-04-03T14:08:18.265Z</time></trkpt><trkpt lat="43.2228617" lon="11.3713383"><ele>201.25</ele><time>2026-04-03T14:08:19.265Z</time></trkpt><trkpt lat="43.222775" lon="11.3714583"><ele>201.0</ele><time>2026-04-03T14:08:20.265Z</time></trkpt><trkpt lat="43.222695" lon="11.371635"><ele>203.33333333333331</ele><time>2026-04-03T14:08:21.265Z</time></trkpt><trkpt lat="43.2226033" lon="11.3718267"><ele>205.66666666666666</ele><time>2026-04-03T14:08:22.265Z</time></trkpt><trkpt lat="43.2225033" lon="11.371995"><ele>208.0</ele><time>2026-04-03T14:08:23.265Z</time></trkpt><trkpt lat="43.222385" lon="11.3721717"><ele>212.33333333333331</ele><time>2026-04-03T14:08:24.266Z</time></trkpt><trkpt lat="43.2222717" lon="11.3723283"><ele>216.66666666666669</ele><time>2026-04-03T14:08:25.266Z</time></trkpt><trkpt lat="43.22215" lon="11.3724517"><ele>221.0</ele><time>2026-04-03T14:08:26.266Z</time></trkpt><trkpt lat="43.2220167" lon="11.37255"><ele>221.0</ele><time>2026-04-03T14:08:27.266Z</time></trkpt><trkpt lat="43.22189" lon="11.3726267"><ele>221.0</ele><time>2026-04-03T14:08:28.265Z</time></trkpt><trkpt lat="43.2217567" lon="11.3726867"><ele>221.0</ele><time>2026-04-03T14:08:29.265Z</time></trkpt><trkpt lat="43.221615" lon="11.3727183"><ele>221.0</ele><time>2026-04-03T14:08:30.265Z</time></trkpt><trkpt lat="43.221495" lon="11.372745"><ele>222.5</ele><time>2026-04-03T14:08:31.265Z</time></trkpt><trkpt lat="43.2213783" lon="11.372775"><ele>224.0</ele><time>2026-04-03T14:08:32.266Z</time></trkpt><trkpt lat="43.2212667" lon="11.3727867"><ele>225.5</ele><time>2026-04-03T14:08:33.265Z</time></trkpt><trkpt lat="43.22116" lon="11.372805"><ele>227.0</ele><time>2026-04-03T14:08:34.265Z</time></trkpt><trkpt lat="43.221045" lon="11.3728333"><ele>227.0</ele><time>2026-04-03T14:08:35.266Z</time></trkpt><trkpt lat="43.2209183" lon="11.3728633"><ele>227.0</ele><time>2026-04-03T14:08:36.265Z</time></trkpt><trkpt lat="43.2207883" lon="11.3728883"><ele>227.0</ele><time>2026-04-03T14:08:37.265Z</time></trkpt><trkpt lat="43.2206567" lon="11.3729167"><ele>227.0</ele><time>2026-04-03T14:08:38.265Z</time></trkpt><trkpt lat="43.2205267" lon="11.3729517"><ele>228.0</ele><time>2026-04-03T14:08:39.265Z</time></trkpt><trkpt lat="43.2204017" lon="11.3729883"><ele>229.0</ele><time>2026-04-03T14:08:40.266Z</time></trkpt><trkpt lat="43.2202633" lon="11.373035"><ele>230.0</ele><time>2026-04-03T14:08:41.265Z</time></trkpt><trkpt lat="43.2201417" lon="11.3730633"><ele>231.0</ele><time>2026-04-03T14:08:42.265Z</time></trkpt><trkpt lat="43.2200033" lon="11.373095"><ele>231.0</ele><time>2026-04-03T14:08:43.265Z</time></trkpt><trkpt lat="43.2198817" lon="11.3731183"><ele>231.0</ele><time>2026-04-03T14:08:44.265Z</time></trkpt><trkpt lat="43.2197433" lon="11.3731517"><ele>231.0</ele><time>2026-04-03T14:08:45.265Z</time></trkpt><trkpt lat="43.2196483" lon="11.3731567"><ele>231.0</ele><time>2026-04-03T14:08:46.265Z</time></trkpt><trkpt lat="43.2195517" lon="11.3731483"><ele>234.25</ele><time>2026-04-03T14:08:47.265Z</time></trkpt><trkpt lat="43.2194433" lon="11.3731333"><ele>237.5</ele><time>2026-04-03T14:08:48.265Z</time></trkpt><trkpt lat="43.219325" lon="11.3731117"><ele>240.75</ele><time>2026-04-03T14:08:49.265Z</time></trkpt><trkpt lat="43.21922" lon="11.3730917"><ele>244.0</ele><time>2026-04-03T14:08:50.266Z</time></trkpt><trkpt lat="43.2190983" lon="11.3730667"><ele>244.0</ele><time>2026-04-03T14:08:51.265Z</time></trkpt><trkpt lat="43.2190033" lon="11.3730367"><ele>243.99999999999997</ele><time>2026-04-03T14:08:52.265Z</time></trkpt><trkpt lat="43.2189117" lon="11.373005"><ele>243.99999999999997</ele><time>2026-04-03T14:08:53.266Z</time></trkpt><trkpt lat="43.2188183" lon="11.372975"><ele>244.0</ele><time>2026-04-03T14:08:54.266Z</time></trkpt><trkpt lat="43.2187317" lon="11.372945"><ele>244.0</ele><time>2026-04-03T14:08:55.266Z</time></trkpt><trkpt lat="43.2186467" lon="11.3728817"><ele>245.6</ele><time>2026-04-03T14:08:56.265Z</time></trkpt><trkpt lat="43.2185567" lon="11.372825"><ele>247.2</ele><time>2026-04-03T14:08:57.266Z</time></trkpt><trkpt lat="43.21847" lon="11.3727733"><ele>248.79999999999998</ele><time>2026-04-03T14:08:58.266Z</time></trkpt><trkpt lat="43.2183883" lon="11.37272"><ele>250.39999999999998</ele><time>2026-04-03T14:08:59.265Z</time></trkpt><trkpt lat="43.2183083" lon="11.372675"><ele>252.0</ele><time>2026-04-03T14:09:00.265Z</time></trkpt><trkpt lat="43.2182367" lon="11.3726167"><ele>252.0</ele><time>2026-04-03T14:09:01.265Z</time></trkpt><trkpt lat="43.2181633" lon="11.372545"><ele>252.0</ele><time>2026-04-03T14:09:02.265Z</time></trkpt><trkpt lat="43.2180717" lon="11.3725117"><ele>252.0</ele><time>2026-04-03T14:09:03.265Z</time></trkpt><trkpt lat="43.2179817" lon="11.37248"><ele>252.0</ele><time>2026-04-03T14:09:04.266Z</time></trkpt><trkpt lat="43.2178983" lon="11.3724367"><ele>252.0</ele><time>2026-04-03T14:09:05.265Z</time></trkpt><trkpt lat="43.21781" lon="11.3724"><ele>250.0</ele><time>2026-04-03T14:09:06.265Z</time></trkpt><trkpt lat="43.2177267" lon="11.3723467"><ele>248.0</ele><time>2026-04-03T14:09:07.265Z</time></trkpt><trkpt lat="43.21765" lon="11.37229"><ele>246.0</ele><time>2026-04-03T14:09:08.265Z</time></trkpt><trkpt lat="43.2175633" lon="11.3722517"><ele>244.0</ele><time>2026-04-03T14:09:09.265Z</time></trkpt><trkpt lat="43.2174833" lon="11.3721817"><ele>242.0</ele><time>2026-04-03T14:09:10.266Z</time></trkpt><trkpt lat="43.2173983" lon="11.37212"><ele>241.2</ele><time>2026-04-03T14:09:11.265Z</time></trkpt><trkpt lat="43.2173033" lon="11.372075"><ele>240.39999999999998</ele><time>2026-04-03T14:09:12.266Z</time></trkpt><trkpt lat="43.21721" lon="11.3720183"><ele>239.60000000000002</ele><time>2026-04-03T14:09:13.265Z</time></trkpt><trkpt lat="43.2171117" lon="11.3719667"><ele>238.8</ele><time>2026-04-03T14:09:14.266Z</time></trkpt><trkpt lat="43.2170133" lon="11.37191"><ele>238.0</ele><time>2026-04-03T14:09:15.266Z</time></trkpt><trkpt lat="43.21691" lon="11.3718633"><ele>238.0</ele><time>2026-04-03T14:09:16.265Z</time></trkpt><trkpt lat="43.2168067" lon="11.3718217"><ele>238.0</ele><time>2026-04-03T14:09:17.265Z</time></trkpt><trkpt lat="43.216705" lon="11.3717767"><ele>238.0</ele><time>2026-04-03T14:09:18.265Z</time></trkpt><trkpt lat="43.21661" lon="11.37174"><ele>238.0</ele><time>2026-04-03T14:09:19.266Z</time></trkpt><trkpt lat="43.2165217" lon="11.37171"><ele>238.0</ele><time>2026-04-03T14:09:20.265Z</time></trkpt><trkpt lat="43.2164383" lon="11.3716717"><ele>239.2</ele><time>2026-04-03T14:09:21.265Z</time></trkpt><trkpt lat="43.2163533" lon="11.3716383"><ele>240.4</ele><time>2026-04-03T14:09:22.266Z</time></trkpt><trkpt lat="43.216275" lon="11.3716067"><ele>241.59999999999997</ele><time>2026-04-03T14:09:23.266Z</time></trkpt><trkpt lat="43.216195" lon="11.371575"><ele>242.79999999999998</ele><time>2026-04-03T14:09:24.266Z</time></trkpt><trkpt lat="43.2160983" lon="11.3715317"><ele>244.0</ele><time>2026-04-03T14:09:25.265Z</time></trkpt><trkpt lat="43.2160067" lon="11.3714867"><ele>244.0</ele><time>2026-04-03T14:09:26.265Z</time></trkpt><trkpt lat="43.215915" lon="11.3714417"><ele>243.99999999999997</ele><time>2026-04-03T14:09:27.265Z</time></trkpt><trkpt lat="43.2158383" lon="11.371405"><ele>243.99999999999997</ele><time>2026-04-03T14:09:28.266Z</time></trkpt><trkpt lat="43.2157667" lon="11.3713417"><ele>244.0</ele><time>2026-04-03T14:09:29.265Z</time></trkpt><trkpt lat="43.21568" lon="11.3712967"><ele>244.0</ele><time>2026-04-03T14:09:30.265Z</time></trkpt><trkpt lat="43.215595" lon="11.37122"><ele>243.2</ele><time>2026-04-03T14:09:31.266Z</time></trkpt><trkpt lat="43.2155067" lon="11.3711217"><ele>242.39999999999998</ele><time>2026-04-03T14:09:32.265Z</time></trkpt><trkpt lat="43.215415" lon="11.3710183"><ele>241.6</ele><time>2026-04-03T14:09:33.265Z</time></trkpt><trkpt lat="43.215325" lon="11.3709333"><ele>240.8</ele><time>2026-04-03T14:09:34.265Z</time></trkpt><trkpt lat="43.2152367" lon="11.370855"><ele>240.0</ele><time>2026-04-03T14:09:35.265Z</time></trkpt><trkpt lat="43.2151383" lon="11.3708"><ele>240.0</ele><time>2026-04-03T14:09:36.266Z</time></trkpt><trkpt lat="43.215045" lon="11.3707617"><ele>240.0</ele><time>2026-04-03T14:09:37.265Z</time></trkpt><trkpt lat="43.2149467" lon="11.370735"><ele>240.0</ele><time>2026-04-03T14:09:38.265Z</time></trkpt><trkpt lat="43.2148467" lon="11.370735"><ele>240.0</ele><time>2026-04-03T14:09:39.265Z</time></trkpt><trkpt lat="43.2147367" lon="11.3707633"><ele>240.0</ele><time>2026-04-03T14:09:40.265Z</time></trkpt><trkpt lat="43.2146233" lon="11.3708083"><ele>237.0</ele><time>2026-04-03T14:09:41.265Z</time></trkpt><trkpt lat="43.2145167" lon="11.3708633"><ele>234.0</ele><time>2026-04-03T14:09:42.265Z</time></trkpt><trkpt lat="43.2143983" lon="11.37092"><ele>231.0</ele><time>2026-04-03T14:09:43.266Z</time></trkpt><trkpt lat="43.2142767" lon="11.37098"><ele>228.0</ele><time>2026-04-03T14:09:44.265Z</time></trkpt><trkpt lat="43.214165" lon="11.3710417"><ele>228.0</ele><time>2026-04-03T14:09:45.266Z</time></trkpt><trkpt lat="43.2140617" lon="11.37111"><ele>228.0</ele><time>2026-04-03T14:09:46.265Z</time></trkpt><trkpt lat="43.2139533" lon="11.3711767"><ele>228.0</ele><time>2026-04-03T14:09:47.265Z</time></trkpt><trkpt lat="43.2138517" lon="11.3712467"><ele>228.0</ele><time>2026-04-03T14:09:48.265Z</time></trkpt><trkpt lat="43.21375" lon="11.3713117"><ele>226.8</ele><time>2026-04-03T14:09:49.265Z</time></trkpt><trkpt lat="43.2136467" lon="11.3713633"><ele>225.60000000000002</ele><time>2026-04-03T14:09:50.266Z</time></trkpt><trkpt lat="43.2135483" lon="11.3713917"><ele>224.39999999999998</ele><time>2026-04-03T14:09:51.266Z</time></trkpt><trkpt lat="43.2134433" lon="11.3713883"><ele>223.2</ele><time>2026-04-03T14:09:52.265Z</time></trkpt><trkpt lat="43.213345" lon="11.3713467"><ele>222.0</ele><time>2026-04-03T14:09:53.265Z</time></trkpt><trkpt lat="43.213265" lon="11.37127"><ele>222.0</ele><time>2026-04-03T14:09:54.265Z</time></trkpt><trkpt lat="43.2132017" lon="11.37116"><ele>222.0</ele><time>2026-04-03T14:09:55.265Z</time></trkpt><trkpt lat="43.2131467" lon="11.3710383"><ele>222.0</ele><time>2026-04-03T14:09:56.265Z</time></trkpt><trkpt lat="43.2131033" lon="11.3709267"><ele>222.0</ele><time>2026-04-03T14:09:57.265Z</time></trkpt><trkpt lat="43.2130567" lon="11.370825"><ele>222.0</ele><time>2026-04-03T14:09:58.265Z</time></trkpt><trkpt lat="43.2130067" lon="11.3707167"><ele>222.0</ele><time>2026-04-03T14:09:59.265Z</time></trkpt><trkpt lat="43.212955" lon="11.370615"><ele>222.0</ele><time>2026-04-03T14:10:00.266Z</time></trkpt><trkpt lat="43.212905" lon="11.37051"><ele>222.0</ele><time>2026-04-03T14:10:01.265Z</time></trkpt><trkpt lat="43.2128483" lon="11.370405"><ele>222.0</ele><time>2026-04-03T14:10:02.265Z</time></trkpt><trkpt lat="43.2127867" lon="11.3702883"><ele>222.0</ele><time>2026-04-03T14:10:03.265Z</time></trkpt><trkpt lat="43.2127167" lon="11.3701667"><ele>222.6</ele><time>2026-04-03T14:10:04.266Z</time></trkpt><trkpt lat="43.212655" lon="11.3700567"><ele>223.2</ele><time>2026-04-03T14:10:05.265Z</time></trkpt><trkpt lat="43.21259" lon="11.36995"><ele>223.8</ele><time>2026-04-03T14:10:06.265Z</time></trkpt><trkpt lat="43.2125233" lon="11.3698433"><ele>224.4</ele><time>2026-04-03T14:10:07.265Z</time></trkpt><trkpt lat="43.21246" lon="11.3697383"><ele>225.0</ele><time>2026-04-03T14:10:08.265Z</time></trkpt><trkpt lat="43.2123983" lon="11.3696283"><ele>225.0</ele><time>2026-04-03T14:10:09.265Z</time></trkpt><trkpt lat="43.212325" lon="11.3695217"><ele>225.0</ele><time>2026-04-03T14:10:10.266Z</time></trkpt><trkpt lat="43.2122567" lon="11.3694233"><ele>225.0</ele><time>2026-04-03T14:10:11.265Z</time></trkpt><trkpt lat="43.21218" lon="11.3693267"><ele>225.0</ele><time>2026-04-03T14:10:12.265Z</time></trkpt><trkpt lat="43.2120933" lon="11.3692283"><ele>225.0</ele><time>2026-04-03T14:10:13.265Z</time></trkpt><trkpt lat="43.2120133" lon="11.3691433"><ele>225.4</ele><time>2026-04-03T14:10:14.265Z</time></trkpt><trkpt lat="43.2119367" lon="11.3690667"><ele>225.8</ele><time>2026-04-03T14:10:15.265Z</time></trkpt><trkpt lat="43.2118433" lon="11.3690083"><ele>226.2</ele><time>2026-04-03T14:10:16.265Z</time></trkpt><trkpt lat="43.211745" lon="11.3689467"><ele>226.6</ele><time>2026-04-03T14:10:17.265Z</time></trkpt><trkpt lat="43.2116483" lon="11.3688833"><ele>227.0</ele><time>2026-04-03T14:10:18.265Z</time></trkpt><trkpt lat="43.2115467" lon="11.368825"><ele>228.2</ele><time>2026-04-03T14:10:19.265Z</time></trkpt><trkpt lat="43.211445" lon="11.36877"><ele>229.39999999999998</ele><time>2026-04-03T14:10:20.265Z</time></trkpt><trkpt lat="43.2113383" lon="11.3687183"><ele>230.60000000000002</ele><time>2026-04-03T14:10:21.265Z</time></trkpt><trkpt lat="43.2112317" lon="11.3686833"><ele>231.8</ele><time>2026-04-03T14:10:22.266Z</time></trkpt><trkpt lat="43.21113" lon="11.36865"><ele>233.0</ele><time>2026-04-03T14:10:23.265Z</time></trkpt><trkpt lat="43.21102" lon="11.36861"><ele>233.0</ele><time>2026-04-03T14:10:24.265Z</time></trkpt><trkpt lat="43.2109133" lon="11.3685617"><ele>233.0</ele><time>2026-04-03T14:10:25.266Z</time></trkpt><trkpt lat="43.210805" lon="11.368525"><ele>233.0</ele><time>2026-04-03T14:10:26.265Z</time></trkpt><trkpt lat="43.2106933" lon="11.3684817"><ele>233.0</ele><time>2026-04-03T14:10:27.265Z</time></trkpt><trkpt lat="43.2105817" lon="11.3684383"><ele>232.5</ele><time>2026-04-03T14:10:28.266Z</time></trkpt><trkpt lat="43.210465" lon="11.3684"><ele>232.0</ele><time>2026-04-03T14:10:29.265Z</time></trkpt><trkpt lat="43.21035" lon="11.3683633"><ele>231.5</ele><time>2026-04-03T14:10:30.265Z</time></trkpt><trkpt lat="43.2102383" lon="11.368325"><ele>231.0</ele><time>2026-04-03T14:10:31.266Z</time></trkpt><trkpt lat="43.2101167" lon="11.3682883"><ele>231.0</ele><time>2026-04-03T14:10:32.265Z</time></trkpt><trkpt lat="43.2100233" lon="11.3682617"><ele>231.0</ele><time>2026-04-03T14:10:33.265Z</time></trkpt><trkpt lat="43.20993" lon="11.3682383"><ele>231.0</ele><time>2026-04-03T14:10:34.265Z</time></trkpt><trkpt lat="43.2098483" lon="11.3682417"><ele>231.0</ele><time>2026-04-03T14:10:35.265Z</time></trkpt><trkpt lat="43.2097683" lon="11.3682583"><ele>231.0</ele><time>2026-04-03T14:10:36.265Z</time></trkpt><trkpt lat="43.2096933" lon="11.368285"><ele>231.0</ele><time>2026-04-03T14:10:37.265Z</time></trkpt><trkpt lat="43.20961" lon="11.3683333"><ele>233.8</ele><time>2026-04-03T14:10:38.266Z</time></trkpt><trkpt lat="43.209515" lon="11.3684"><ele>236.60000000000002</ele><time>2026-04-03T14:10:39.265Z</time></trkpt><trkpt lat="43.2094333" lon="11.3685017"><ele>239.4</ele><time>2026-04-03T14:10:40.265Z</time></trkpt><trkpt lat="43.209355" lon="11.368605"><ele>242.2</ele><time>2026-04-03T14:10:41.266Z</time></trkpt><trkpt lat="43.2092833" lon="11.3687117"><ele>245.0</ele><time>2026-04-03T14:10:42.265Z</time></trkpt><trkpt lat="43.2092083" lon="11.368825"><ele>243.5</ele><time>2026-04-03T14:10:43.265Z</time></trkpt><trkpt lat="43.2091383" lon="11.3689417"><ele>242.0</ele><time>2026-04-03T14:10:44.265Z</time></trkpt><trkpt lat="43.2090633" lon="11.369055"><ele>240.5</ele><time>2026-04-03T14:10:45.265Z</time></trkpt><trkpt lat="43.208985" lon="11.3691733"><ele>239.0</ele><time>2026-04-03T14:10:46.265Z</time></trkpt><trkpt lat="43.2089017" lon="11.369295"><ele>242.5</ele><time>2026-04-03T14:10:47.265Z</time></trkpt><trkpt lat="43.2088167" lon="11.3694067"><ele>246.0</ele><time>2026-04-03T14:10:48.265Z</time></trkpt><trkpt lat="43.2087333" lon="11.36952"><ele>249.5</ele><time>2026-04-03T14:10:49.265Z</time></trkpt><trkpt lat="43.2086517" lon="11.36963"><ele>253.0</ele><time>2026-04-03T14:10:50.265Z</time></trkpt><trkpt lat="43.2085667" lon="11.3697483"><ele>253.0</ele><time>2026-04-03T14:10:51.266Z</time></trkpt><trkpt lat="43.2084867" lon="11.3698667"><ele>253.0</ele><time>2026-04-03T14:10:52.265Z</time></trkpt><trkpt lat="43.208405" lon="11.370005"><ele>253.0</ele><time>2026-04-03T14:10:53.265Z</time></trkpt><trkpt lat="43.2083217" lon="11.3701267"><ele>253.0</ele><time>2026-04-03T14:10:54.265Z</time></trkpt><trkpt lat="43.2082417" lon="11.3702483"><ele>257.25</ele><time>2026-04-03T14:10:55.265Z</time></trkpt><trkpt lat="43.2081467" lon="11.370375"><ele>261.5</ele><time>2026-04-03T14:10:56.265Z</time></trkpt><trkpt lat="43.2080617" lon="11.3704783"><ele>265.75</ele><time>2026-04-03T14:10:57.265Z</time></trkpt><trkpt lat="43.20798" lon="11.3705717"><ele>270.0</ele><time>2026-04-03T14:10:58.265Z</time></trkpt><trkpt lat="43.207895" lon="11.3706717"><ele>270.0</ele><time>2026-04-03T14:10:59.265Z</time></trkpt><trkpt lat="43.2077833" lon="11.3707917"><ele>270.0</ele><time>2026-04-03T14:11:00.265Z</time></trkpt><trkpt lat="43.2076983" lon="11.370915"><ele>270.0</ele><time>2026-04-03T14:11:01.265Z</time></trkpt><trkpt lat="43.207615" lon="11.37103"><ele>270.0</ele><time>2026-04-03T14:11:02.265Z</time></trkpt><trkpt lat="43.2075233" lon="11.3711483"><ele>270.0</ele><time>2026-04-03T14:11:03.266Z</time></trkpt><trkpt lat="43.2074317" lon="11.371255"><ele>270.0</ele><time>2026-04-03T14:11:04.265Z</time></trkpt><trkpt lat="43.2073417" lon="11.3713933"><ele>270.0</ele><time>2026-04-03T14:11:05.266Z</time></trkpt><trkpt lat="43.2072533" lon="11.37151"><ele>270.0</ele><time>2026-04-03T14:11:06.266Z</time></trkpt><trkpt lat="43.2071733" lon="11.37163"><ele>274.25</ele><time>2026-04-03T14:11:07.265Z</time></trkpt><trkpt lat="43.207095" lon="11.37176"><ele>278.5</ele><time>2026-04-03T14:11:08.265Z</time></trkpt><trkpt lat="43.2070333" lon="11.371895"><ele>282.75</ele><time>2026-04-03T14:11:09.265Z</time></trkpt><trkpt lat="43.2069683" lon="11.372035"><ele>287.0</ele><time>2026-04-03T14:11:10.265Z</time></trkpt><trkpt lat="43.2069033" lon="11.3721767"><ele>283.0</ele><time>2026-04-03T14:11:11.265Z</time></trkpt><trkpt lat="43.2068383" lon="11.3723117"><ele>279.0</ele><time>2026-04-03T14:11:12.265Z</time></trkpt><trkpt lat="43.206765" lon="11.3724317"><ele>275.0</ele><time>2026-04-03T14:11:13.265Z</time></trkpt><trkpt lat="43.206695" lon="11.3725467"><ele>271.0</ele><time>2026-04-03T14:11:14.265Z</time></trkpt><trkpt lat="43.2066117" lon="11.3726617"><ele>271.0</ele><time>2026-04-03T14:11:15.265Z</time></trkpt><trkpt lat="43.2065233" lon="11.37277"><ele>271.0</ele><time>2026-04-03T14:11:16.265Z</time></trkpt><trkpt lat="43.2064283" lon="11.37287"><ele>271.0</ele><time>2026-04-03T14:11:17.266Z</time></trkpt><trkpt lat="43.20633" lon="11.3729567"><ele>271.0</ele><time>2026-04-03T14:11:18.265Z</time></trkpt><trkpt lat="43.2062367" lon="11.37303"><ele>270.2</ele><time>2026-04-03T14:11:19.266Z</time></trkpt><trkpt lat="43.2061483" lon="11.3730967"><ele>269.40000000000003</ele><time>2026-04-03T14:11:20.265Z</time></trkpt><trkpt lat="43.206065" lon="11.3731567"><ele>268.6</ele><time>2026-04-03T14:11:21.265Z</time></trkpt><trkpt lat="43.2059917" lon="11.37322"><ele>267.8</ele><time>2026-04-03T14:11:22.265Z</time></trkpt><trkpt lat="43.20592" lon="11.3732817"><ele>267.0</ele><time>2026-04-03T14:11:23.265Z</time></trkpt><trkpt lat="43.20585" lon="11.3733483"><ele>267.0</ele><time>2026-04-03T14:11:24.265Z</time></trkpt><trkpt lat="43.20578" lon="11.3734117"><ele>267.0</ele><time>2026-04-03T14:11:25.265Z</time></trkpt><trkpt lat="43.2057017" lon="11.3734717"><ele>267.0</ele><time>2026-04-03T14:11:26.266Z</time></trkpt><trkpt lat="43.205625" lon="11.3735367"><ele>267.0</ele><time>2026-04-03T14:11:27.266Z</time></trkpt><trkpt lat="43.2055517" lon="11.3736183"><ele>267.0</ele><time>2026-04-03T14:11:28.265Z</time></trkpt><trkpt lat="43.2054717" lon="11.3736933"><ele>267.2</ele><time>2026-04-03T14:11:29.265Z</time></trkpt><trkpt lat="43.2053817" lon="11.373755"><ele>267.4</ele><time>2026-04-03T14:11:30.265Z</time></trkpt><trkpt lat="43.2052683" lon="11.3737783"><ele>267.6</ele><time>2026-04-03T14:11:31.265Z</time></trkpt><trkpt lat="43.2051583" lon="11.3737933"><ele>267.8</ele><time>2026-04-03T14:11:32.265Z</time></trkpt><trkpt lat="43.2050417" lon="11.3737983"><ele>268.0</ele><time>2026-04-03T14:11:33.265Z</time></trkpt><trkpt lat="43.204925" lon="11.3737883"><ele>267.8</ele><time>2026-04-03T14:11:34.265Z</time></trkpt><trkpt lat="43.20481" lon="11.37378"><ele>267.6</ele><time>2026-04-03T14:11:35.266Z</time></trkpt><trkpt lat="43.204705" lon="11.373795"><ele>267.4</ele><time>2026-04-03T14:11:36.266Z</time></trkpt><trkpt lat="43.204595" lon="11.3738267"><ele>267.2</ele><time>2026-04-03T14:11:37.265Z</time></trkpt><trkpt lat="43.2044967" lon="11.3738367"><ele>267.0</ele><time>2026-04-03T14:11:38.265Z</time></trkpt><trkpt lat="43.2044017" lon="11.3738617"><ele>265.2</ele><time>2026-04-03T14:11:39.266Z</time></trkpt><trkpt lat="43.2043" lon="11.3738917"><ele>263.4</ele><time>2026-04-03T14:11:40.266Z</time></trkpt><trkpt lat="43.2042017" lon="11.3739217"><ele>261.6</ele><time>2026-04-03T14:11:41.265Z</time></trkpt><trkpt lat="43.2041017" lon="11.37395"><ele>259.8</ele><time>2026-04-03T14:11:42.265Z</time></trkpt><trkpt lat="43.2040017" lon="11.3739917"><ele>258.0</ele><time>2026-04-03T14:11:43.265Z</time></trkpt><trkpt lat="43.20388" lon="11.3740317"><ele>258.0</ele><time>2026-04-03T14:11:44.266Z</time></trkpt><trkpt lat="43.2037583" lon="11.3740917"><ele>258.0</ele><time>2026-04-03T14:11:45.265Z</time></trkpt><trkpt lat="43.2036517" lon="11.37417"><ele>258.0</ele><time>2026-04-03T14:11:46.265Z</time></trkpt><trkpt lat="43.20355" lon="11.3742583"><ele>258.0</ele><time>2026-04-03T14:11:47.265Z</time></trkpt><trkpt lat="43.20345" lon="11.3743417"><ele>258.0</ele><time>2026-04-03T14:11:48.265Z</time></trkpt><trkpt lat="43.2033617" lon="11.374415"><ele>258.0</ele><time>2026-04-03T14:11:49.266Z</time></trkpt><trkpt lat="43.2032567" lon="11.3744783"><ele>258.0</ele><time>2026-04-03T14:11:50.266Z</time></trkpt><trkpt lat="43.20314" lon="11.374535"><ele>258.0</ele><time>2026-04-03T14:11:51.266Z</time></trkpt><trkpt lat="43.2030283" lon="11.3745883"><ele>256.5</ele><time>2026-04-03T14:11:52.265Z</time></trkpt><trkpt lat="43.20291" lon="11.3746133"><ele>255.0</ele><time>2026-04-03T14:11:53.265Z</time></trkpt><trkpt lat="43.20279" lon="11.374635"><ele>253.5</ele><time>2026-04-03T14:11:54.266Z</time></trkpt><trkpt lat="43.2026667" lon="11.3746517"><ele>252.0</ele><time>2026-04-03T14:11:55.265Z</time></trkpt><trkpt lat="43.2025567" lon="11.3747033"><ele>252.0</ele><time>2026-04-03T14:11:56.266Z</time></trkpt><trkpt lat="43.202435" lon="11.37475"><ele>252.0</ele><time>2026-04-03T14:11:57.266Z</time></trkpt><trkpt lat="43.2023217" lon="11.3747883"><ele>252.0</ele><time>2026-04-03T14:11:58.265Z</time></trkpt><trkpt lat="43.2021983" lon="11.374815"><ele>252.0</ele><time>2026-04-03T14:11:59.266Z</time></trkpt><trkpt lat="43.2020833" lon="11.3748317"><ele>254.8</ele><time>2026-04-03T14:12:00.265Z</time></trkpt><trkpt lat="43.2019733" lon="11.3748567"><ele>257.6</ele><time>2026-04-03T14:12:01.265Z</time></trkpt><trkpt lat="43.2018683" lon="11.3748733"><ele>260.40000000000003</ele><time>2026-04-03T14:12:02.265Z</time></trkpt><trkpt lat="43.2017617" lon="11.3749267"><ele>263.2</ele><time>2026-04-03T14:12:03.265Z</time></trkpt><trkpt lat="43.201655" lon="11.37498"><ele>266.0</ele><time>2026-04-03T14:12:04.265Z</time></trkpt><trkpt lat="43.201555" lon="11.3750483"><ele>267.0</ele><time>2026-04-03T14:12:05.265Z</time></trkpt><trkpt lat="43.2014533" lon="11.3751167"><ele>268.0</ele><time>2026-04-03T14:12:06.266Z</time></trkpt><trkpt lat="43.2013533" lon="11.3751867"><ele>269.0</ele><time>2026-04-03T14:12:07.265Z</time></trkpt><trkpt lat="43.201255" lon="11.3752617"><ele>270.0</ele><time>2026-04-03T14:12:08.265Z</time></trkpt><trkpt lat="43.2011683" lon="11.3753317"><ele>271.0</ele><time>2026-04-03T14:12:09.265Z</time></trkpt><trkpt lat="43.201075" lon="11.3753917"><ele>271.0</ele><time>2026-04-03T14:12:10.266Z</time></trkpt><trkpt lat="43.200995" lon="11.3754083"><ele>271.0</ele><time>2026-04-03T14:12:11.266Z</time></trkpt><trkpt lat="43.2009183" lon="11.3754083"><ele>271.0</ele><time>2026-04-03T14:12:12.265Z</time></trkpt><trkpt lat="43.2008467" lon="11.3754"><ele>271.0</ele><time>2026-04-03T14:12:13.265Z</time></trkpt><trkpt lat="43.2007283" lon="11.37531"><ele>271.0</ele><time>2026-04-03T14:12:15.266Z</time></trkpt><trkpt lat="43.200665" lon="11.3752633"><ele>271.0</ele><time>2026-04-03T14:12:16.265Z</time></trkpt><trkpt lat="43.200595" lon="11.3752133"><ele>268.5</ele><time>2026-04-03T14:12:17.265Z</time></trkpt><trkpt lat="43.2005117" lon="11.37516"><ele>266.0</ele><time>2026-04-03T14:12:18.266Z</time></trkpt><trkpt lat="43.2004383" lon="11.3751017"><ele>263.5</ele><time>2026-04-03T14:12:19.265Z</time></trkpt><trkpt lat="43.200365" lon="11.3750583"><ele>261.0</ele><time>2026-04-03T14:12:20.265Z</time></trkpt><trkpt lat="43.20029" lon="11.375025"><ele>258.5</ele><time>2026-04-03T14:12:21.265Z</time></trkpt><trkpt lat="43.2002133" lon="11.3749983"><ele>256.0</ele><time>2026-04-03T14:12:22.265Z</time></trkpt><trkpt lat="43.2001417" lon="11.3750033"><ele>255.99999999999997</ele><time>2026-04-03T14:12:23.265Z</time></trkpt><trkpt lat="43.2000667" lon="11.3750367"><ele>256.0</ele><time>2026-04-03T14:12:24.265Z</time></trkpt><trkpt lat="43.19999" lon="11.3750917"><ele>256.0</ele><time>2026-04-03T14:12:25.265Z</time></trkpt><trkpt lat="43.1999433" lon="11.3751883"><ele>256.0</ele><time>2026-04-03T14:12:26.265Z</time></trkpt><trkpt lat="43.1999033" lon="11.3752883"><ele>255.99999999999997</ele><time>2026-04-03T14:12:27.265Z</time></trkpt><trkpt lat="43.19986" lon="11.3753833"><ele>256.0</ele><time>2026-04-03T14:12:28.264Z</time></trkpt><trkpt lat="43.1998117" lon="11.3754883"><ele>253.60000000000002</ele><time>2026-04-03T14:12:29.264Z</time></trkpt><trkpt lat="43.199755" lon="11.37558"><ele>251.20000000000002</ele><time>2026-04-03T14:12:30.264Z</time></trkpt><trkpt lat="43.1996833" lon="11.37567"><ele>248.79999999999998</ele><time>2026-04-03T14:12:31.264Z</time></trkpt><trkpt lat="43.1996067" lon="11.3757583"><ele>246.39999999999998</ele><time>2026-04-03T14:12:32.264Z</time></trkpt><trkpt lat="43.1995233" lon="11.37584"><ele>244.0</ele><time>2026-04-03T14:12:33.264Z</time></trkpt><trkpt lat="43.1994433" lon="11.3759433"><ele>244.0</ele><time>2026-04-03T14:12:34.264Z</time></trkpt><trkpt lat="43.199355" lon="11.37604"><ele>243.99999999999997</ele><time>2026-04-03T14:12:35.264Z</time></trkpt><trkpt lat="43.1992633" lon="11.3761217"><ele>243.99999999999997</ele><time>2026-04-03T14:12:36.264Z</time></trkpt><trkpt lat="43.19917" lon="11.376175"><ele>244.0</ele><time>2026-04-03T14:12:37.264Z</time></trkpt><trkpt lat="43.1990633" lon="11.376215"><ele>244.0</ele><time>2026-04-03T14:12:38.264Z</time></trkpt><trkpt lat="43.198965" lon="11.376245"><ele>243.2</ele><time>2026-04-03T14:12:39.264Z</time></trkpt><trkpt lat="43.1988617" lon="11.3762767"><ele>242.39999999999998</ele><time>2026-04-03T14:12:40.264Z</time></trkpt><trkpt lat="43.198755" lon="11.3763067"><ele>241.6</ele><time>2026-04-03T14:12:41.265Z</time></trkpt><trkpt lat="43.1986533" lon="11.3763367"><ele>240.8</ele><time>2026-04-03T14:12:42.264Z</time></trkpt><trkpt lat="43.1985567" lon="11.3763767"><ele>240.0</ele><time>2026-04-03T14:12:43.264Z</time></trkpt><trkpt lat="43.198455" lon="11.376425"><ele>240.0</ele><time>2026-04-03T14:12:44.264Z</time></trkpt><trkpt lat="43.1983583" lon="11.376475"><ele>240.0</ele><time>2026-04-03T14:12:45.264Z</time></trkpt><trkpt lat="43.198265" lon="11.3765517"><ele>240.0</ele><time>2026-04-03T14:12:46.264Z</time></trkpt><trkpt lat="43.198165" lon="11.3766433"><ele>240.0</ele><time>2026-04-03T14:12:47.264Z</time></trkpt><trkpt lat="43.1980767" lon="11.3767417"><ele>240.0</ele><time>2026-04-03T14:12:48.265Z</time></trkpt><trkpt lat="43.19798" lon="11.37685"><ele>240.0</ele><time>2026-04-03T14:12:49.264Z</time></trkpt><trkpt lat="43.1978833" lon="11.3769533"><ele>240.0</ele><time>2026-04-03T14:12:50.264Z</time></trkpt><trkpt lat="43.1977817" lon="11.3770483"><ele>240.0</ele><time>2026-04-03T14:12:51.264Z</time></trkpt><trkpt lat="43.19767" lon="11.3771283"><ele>240.0</ele><time>2026-04-03T14:12:52.265Z</time></trkpt><trkpt lat="43.1975533" lon="11.3772167"><ele>240.0</ele><time>2026-04-03T14:12:53.264Z</time></trkpt><trkpt lat="43.1974417" lon="11.377295"><ele>240.0</ele><time>2026-04-03T14:12:54.264Z</time></trkpt><trkpt lat="43.1973283" lon="11.377375"><ele>240.0</ele><time>2026-04-03T14:12:55.264Z</time></trkpt><trkpt lat="43.1972133" lon="11.3774517"><ele>240.0</ele><time>2026-04-03T14:12:56.264Z</time></trkpt><trkpt lat="43.1970933" lon="11.3775233"><ele>238.0</ele><time>2026-04-03T14:12:57.264Z</time></trkpt><trkpt lat="43.1969767" lon="11.37761"><ele>236.0</ele><time>2026-04-03T14:12:58.265Z</time></trkpt><trkpt lat="43.1968633" lon="11.37769"><ele>234.0</ele><time>2026-04-03T14:12:59.264Z</time></trkpt><trkpt lat="43.196755" lon="11.3777567"><ele>232.0</ele><time>2026-04-03T14:13:00.264Z</time></trkpt><trkpt lat="43.1966417" lon="11.3778367"><ele>232.0</ele><time>2026-04-03T14:13:01.264Z</time></trkpt><trkpt lat="43.1965233" lon="11.3779233"><ele>232.0</ele><time>2026-04-03T14:13:02.264Z</time></trkpt><trkpt lat="43.196405" lon="11.378"><ele>232.0</ele><time>2026-04-03T14:13:03.264Z</time></trkpt><trkpt lat="43.1962933" lon="11.3780717"><ele>232.0</ele><time>2026-04-03T14:13:04.264Z</time></trkpt><trkpt lat="43.19618" lon="11.3781567"><ele>232.5</ele><time>2026-04-03T14:13:05.264Z</time></trkpt><trkpt lat="43.1960617" lon="11.3782317"><ele>233.0</ele><time>2026-04-03T14:13:06.264Z</time></trkpt><trkpt lat="43.1959367" lon="11.3783067"><ele>233.5</ele><time>2026-04-03T14:13:07.265Z</time></trkpt><trkpt lat="43.1958117" lon="11.37837"><ele>234.0</ele><time>2026-04-03T14:13:08.264Z</time></trkpt><trkpt lat="43.19569" lon="11.3784267"><ele>233.0</ele><time>2026-04-03T14:13:09.264Z</time></trkpt><trkpt lat="43.195565" lon="11.3784783"><ele>232.0</ele><time>2026-04-03T14:13:10.264Z</time></trkpt><trkpt lat="43.1954317" lon="11.37856"><ele>231.0</ele><time>2026-04-03T14:13:11.264Z</time></trkpt><trkpt lat="43.1953083" lon="11.378615"><ele>230.0</ele><time>2026-04-03T14:13:12.264Z</time></trkpt><trkpt lat="43.195195" lon="11.378695"><ele>230.0</ele><time>2026-04-03T14:13:13.265Z</time></trkpt><trkpt lat="43.195105" lon="11.3788"><ele>230.0</ele><time>2026-04-03T14:13:14.265Z</time></trkpt><trkpt lat="43.194995" lon="11.3789067"><ele>230.0</ele><time>2026-04-03T14:13:15.265Z</time></trkpt><trkpt lat="43.1949167" lon="11.3790283"><ele>230.0</ele><time>2026-04-03T14:13:16.264Z</time></trkpt><trkpt lat="43.1948383" lon="11.379165"><ele>229.4</ele><time>2026-04-03T14:13:17.264Z</time></trkpt><trkpt lat="43.19476" lon="11.3793"><ele>228.8</ele><time>2026-04-03T14:13:18.265Z</time></trkpt><trkpt lat="43.1947017" lon="11.379435"><ele>228.2</ele><time>2026-04-03T14:13:19.264Z</time></trkpt><trkpt lat="43.1946533" lon="11.379565"><ele>227.6</ele><time>2026-04-03T14:13:20.264Z</time></trkpt><trkpt lat="43.194615" lon="11.37969"><ele>227.0</ele><time>2026-04-03T14:13:21.264Z</time></trkpt><trkpt lat="43.19459" lon="11.37983"><ele>227.0</ele><time>2026-04-03T14:13:22.264Z</time></trkpt><trkpt lat="43.1945667" lon="11.379985"><ele>227.0</ele><time>2026-04-03T14:13:23.264Z</time></trkpt><trkpt lat="43.194545" lon="11.3801383"><ele>227.0</ele><time>2026-04-03T14:13:24.264Z</time></trkpt><trkpt lat="43.1945383" lon="11.3803017"><ele>227.0</ele><time>2026-04-03T14:13:25.264Z</time></trkpt><trkpt lat="43.19453" lon="11.38047"><ele>227.25</ele><time>2026-04-03T14:13:26.265Z</time></trkpt><trkpt lat="43.194515" lon="11.3806333"><ele>227.5</ele><time>2026-04-03T14:13:27.264Z</time></trkpt><trkpt lat="43.1945083" lon="11.3807817"><ele>227.75</ele><time>2026-04-03T14:13:28.264Z</time></trkpt><trkpt lat="43.1944817" lon="11.3809333"><ele>228.0</ele><time>2026-04-03T14:13:29.264Z</time></trkpt><trkpt lat="43.1944267" lon="11.3810967"><ele>228.0</ele><time>2026-04-03T14:13:30.265Z</time></trkpt><trkpt lat="43.194365" lon="11.3812633"><ele>228.0</ele><time>2026-04-03T14:13:31.265Z</time></trkpt><trkpt lat="43.194305" lon="11.3814317"><ele>228.0</ele><time>2026-04-03T14:13:32.264Z</time></trkpt><trkpt lat="43.1942367" lon="11.381595"><ele>228.0</ele><time>2026-04-03T14:13:33.265Z</time></trkpt><trkpt lat="43.1941817" lon="11.3817667"><ele>228.0</ele><time>2026-04-03T14:13:34.264Z</time></trkpt><trkpt lat="43.19413" lon="11.3819233"><ele>228.0</ele><time>2026-04-03T14:13:35.265Z</time></trkpt><trkpt lat="43.19407" lon="11.3820767"><ele>228.0</ele><time>2026-04-03T14:13:36.264Z</time></trkpt><trkpt lat="43.1940333" lon="11.3822233"><ele>228.0</ele><time>2026-04-03T14:13:37.264Z</time></trkpt><trkpt lat="43.193975" lon="11.3823917"><ele>227.5</ele><time>2026-04-03T14:13:38.265Z</time></trkpt><trkpt lat="43.1939117" lon="11.38259"><ele>227.0</ele><time>2026-04-03T14:13:39.265Z</time></trkpt><trkpt lat="43.19385" lon="11.3827667"><ele>226.5</ele><time>2026-04-03T14:13:40.264Z</time></trkpt><trkpt lat="43.1937917" lon="11.382935"><ele>226.0</ele><time>2026-04-03T14:13:41.264Z</time></trkpt><trkpt lat="43.1937317" lon="11.3830817"><ele>226.0</ele><time>2026-04-03T14:13:42.265Z</time></trkpt><trkpt lat="43.1936683" lon="11.38322"><ele>226.0</ele><time>2026-04-03T14:13:43.264Z</time></trkpt><trkpt lat="43.1935933" lon="11.3833033"><ele>226.0</ele><time>2026-04-03T14:13:44.264Z</time></trkpt><trkpt lat="43.193505" lon="11.3834017"><ele>226.0</ele><time>2026-04-03T14:13:45.265Z</time></trkpt><trkpt lat="43.1933983" lon="11.3834917"><ele>226.0</ele><time>2026-04-03T14:13:46.264Z</time></trkpt><trkpt lat="43.1932783" lon="11.3835517"><ele>226.0</ele><time>2026-04-03T14:13:47.265Z</time></trkpt><trkpt lat="43.1931633" lon="11.3836"><ele>226.0</ele><time>2026-04-03T14:13:48.265Z</time></trkpt><trkpt lat="43.1930517" lon="11.3836583"><ele>226.0</ele><time>2026-04-03T14:13:49.264Z</time></trkpt><trkpt lat="43.1929367" lon="11.3837233"><ele>225.5</ele><time>2026-04-03T14:13:50.264Z</time></trkpt><trkpt lat="43.192815" lon="11.3838017"><ele>225.0</ele><time>2026-04-03T14:13:51.264Z</time></trkpt><trkpt lat="43.1926917" lon="11.383865"><ele>224.5</ele><time>2026-04-03T14:13:52.264Z</time></trkpt><trkpt lat="43.1925633" lon="11.38392"><ele>224.0</ele><time>2026-04-03T14:13:53.265Z</time></trkpt><trkpt lat="43.1924233" lon="11.3839517"><ele>224.25</ele><time>2026-04-03T14:13:54.264Z</time></trkpt><trkpt lat="43.1922867" lon="11.3839733"><ele>224.5</ele><time>2026-04-03T14:13:55.265Z</time></trkpt><trkpt lat="43.19217" lon="11.3839783"><ele>224.75</ele><time>2026-04-03T14:13:56.264Z</time></trkpt><trkpt lat="43.1920717" lon="11.3839667"><ele>225.0</ele><time>2026-04-03T14:13:57.264Z</time></trkpt><trkpt lat="43.19197" lon="11.3839667"><ele>225.0</ele><time>2026-04-03T14:13:58.264Z</time></trkpt><trkpt lat="43.1918733" lon="11.3839983"><ele>225.0</ele><time>2026-04-03T14:13:59.265Z</time></trkpt><trkpt lat="43.1917767" lon="11.3840683"><ele>225.0</ele><time>2026-04-03T14:14:00.264Z</time></trkpt><trkpt lat="43.1916667" lon="11.384165"><ele>225.0</ele><time>2026-04-03T14:14:01.264Z</time></trkpt><trkpt lat="43.19155" lon="11.3843"><ele>225.75</ele><time>2026-04-03T14:14:02.265Z</time></trkpt><trkpt lat="43.1914367" lon="11.3844517"><ele>226.5</ele><time>2026-04-03T14:14:03.264Z</time></trkpt><trkpt lat="43.19134" lon="11.384585"><ele>227.25</ele><time>2026-04-03T14:14:04.264Z</time></trkpt><trkpt lat="43.19124" lon="11.3847183"><ele>228.0</ele><time>2026-04-03T14:14:05.265Z</time></trkpt><trkpt lat="43.19115" lon="11.3848417"><ele>228.0</ele><time>2026-04-03T14:14:06.265Z</time></trkpt><trkpt lat="43.1910633" lon="11.384955"><ele>228.0</ele><time>2026-04-03T14:14:07.265Z</time></trkpt><trkpt lat="43.1909683" lon="11.3850617"><ele>228.0</ele><time>2026-04-03T14:14:08.264Z</time></trkpt><trkpt lat="43.1908717" lon="11.3851583"><ele>228.0</ele><time>2026-04-03T14:14:09.264Z</time></trkpt><trkpt lat="43.190765" lon="11.3852433"><ele>229.0</ele><time>2026-04-03T14:14:10.264Z</time></trkpt><trkpt lat="43.190645" lon="11.3853017"><ele>230.0</ele><time>2026-04-03T14:14:11.264Z</time></trkpt><trkpt lat="43.190525" lon="11.3853767"><ele>231.0</ele><time>2026-04-03T14:14:12.264Z</time></trkpt><trkpt lat="43.1903933" lon="11.3854567"><ele>232.0</ele><time>2026-04-03T14:14:13.264Z</time></trkpt><trkpt lat="43.1902683" lon="11.3855317"><ele>229.5</ele><time>2026-04-03T14:14:14.264Z</time></trkpt><trkpt lat="43.1901467" lon="11.385595"><ele>227.0</ele><time>2026-04-03T14:14:15.264Z</time></trkpt><trkpt lat="43.1900183" lon="11.385635"><ele>224.5</ele><time>2026-04-03T14:14:16.264Z</time></trkpt><trkpt lat="43.189885" lon="11.3856767"><ele>222.0</ele><time>2026-04-03T14:14:17.264Z</time></trkpt><trkpt lat="43.1897667" lon="11.385695"><ele>221.25</ele><time>2026-04-03T14:14:18.264Z</time></trkpt><trkpt lat="43.1896283" lon="11.385715"><ele>220.5</ele><time>2026-04-03T14:14:19.264Z</time></trkpt><trkpt lat="43.1894883" lon="11.385755"><ele>219.75</ele><time>2026-04-03T14:14:20.264Z</time></trkpt><trkpt lat="43.18935" lon="11.38579"><ele>219.0</ele><time>2026-04-03T14:14:21.264Z</time></trkpt><trkpt lat="43.189225" lon="11.3858433"><ele>219.0</ele><time>2026-04-03T14:14:22.264Z</time></trkpt><trkpt lat="43.1891133" lon="11.3858783"><ele>218.99999999999997</ele><time>2026-04-03T14:14:23.264Z</time></trkpt><trkpt lat="43.1890083" lon="11.3859083"><ele>218.99999999999997</ele><time>2026-04-03T14:14:24.264Z</time></trkpt><trkpt lat="43.18891" lon="11.3859433"><ele>219.0</ele><time>2026-04-03T14:14:25.264Z</time></trkpt><trkpt lat="43.18882" lon="11.38596"><ele>219.0</ele><time>2026-04-03T14:14:26.264Z</time></trkpt><trkpt lat="43.1887183" lon="11.3859617"><ele>220.39999999999998</ele><time>2026-04-03T14:14:27.264Z</time></trkpt><trkpt lat="43.1886183" lon="11.3859367"><ele>221.79999999999998</ele><time>2026-04-03T14:14:28.264Z</time></trkpt><trkpt lat="43.1885233" lon="11.3859017"><ele>223.20000000000002</ele><time>2026-04-03T14:14:29.264Z</time></trkpt><trkpt lat="43.1884233" lon="11.38584"><ele>224.60000000000002</ele><time>2026-04-03T14:14:30.264Z</time></trkpt><trkpt lat="43.18833" lon="11.3857717"><ele>226.0</ele><time>2026-04-03T14:14:31.264Z</time></trkpt><trkpt lat="43.1882233" lon="11.3856783"><ele>230.66666666666666</ele><time>2026-04-03T14:14:32.264Z</time></trkpt><trkpt lat="43.18809" lon="11.385565"><ele>235.33333333333331</ele><time>2026-04-03T14:14:33.265Z</time></trkpt><trkpt lat="43.1879267" lon="11.3854667"><ele>240.0</ele><time>2026-04-03T14:14:34.264Z</time></trkpt><trkpt lat="43.1877617" lon="11.3853767"><ele>240.0</ele><time>2026-04-03T14:14:35.264Z</time></trkpt><trkpt lat="43.1876333" lon="11.385305"><ele>240.0</ele><time>2026-04-03T14:14:36.264Z</time></trkpt><trkpt lat="43.187505" lon="11.3852583"><ele>240.0</ele><time>2026-04-03T14:14:37.265Z</time></trkpt><trkpt lat="43.18739" lon="11.38523"><ele>240.0</ele><time>2026-04-03T14:14:38.264Z</time></trkpt><trkpt lat="43.187275" lon="11.3852167"><ele>242.0</ele><time>2026-04-03T14:14:39.264Z</time></trkpt><trkpt lat="43.187155" lon="11.3852233"><ele>244.0</ele><time>2026-04-03T14:14:40.264Z</time></trkpt><trkpt lat="43.1870417" lon="11.3852483"><ele>246.0</ele><time>2026-04-03T14:14:41.265Z</time></trkpt><trkpt lat="43.1869167" lon="11.3852917"><ele>248.0</ele><time>2026-04-03T14:14:42.265Z</time></trkpt><trkpt lat="43.18678" lon="11.3853317"><ele>248.0</ele><time>2026-04-03T14:14:43.265Z</time></trkpt><trkpt lat="43.1866217" lon="11.3853633"><ele>248.0</ele><time>2026-04-03T14:14:44.264Z</time></trkpt><trkpt lat="43.1864333" lon="11.3854"><ele>248.0</ele><time>2026-04-03T14:14:45.264Z</time></trkpt><trkpt lat="43.1862233" lon="11.385425"><ele>250.66666666666669</ele><time>2026-04-03T14:14:46.264Z</time></trkpt><trkpt lat="43.1860017" lon="11.385435"><ele>253.33333333333331</ele><time>2026-04-03T14:14:47.264Z</time></trkpt><trkpt lat="43.185835" lon="11.385435"><ele>256.0</ele><time>2026-04-03T14:14:48.265Z</time></trkpt><trkpt lat="43.1856917" lon="11.3854417"><ele>258.2</ele><time>2026-04-03T14:14:49.264Z</time></trkpt><trkpt lat="43.1855683" lon="11.38542"><ele>260.40000000000003</ele><time>2026-04-03T14:14:50.264Z</time></trkpt><trkpt lat="43.1854617" lon="11.385385"><ele>262.6</ele><time>2026-04-03T14:14:51.264Z</time></trkpt><trkpt lat="43.1853683" lon="11.38533"><ele>264.8</ele><time>2026-04-03T14:14:52.264Z</time></trkpt><trkpt lat="43.1852833" lon="11.3852417"><ele>267.0</ele><time>2026-04-03T14:14:53.264Z</time></trkpt><trkpt lat="43.1851983" lon="11.385135"><ele>267.0</ele><time>2026-04-03T14:14:54.264Z</time></trkpt><trkpt lat="43.1851083" lon="11.3850167"><ele>267.0</ele><time>2026-04-03T14:14:55.264Z</time></trkpt><trkpt lat="43.1850033" lon="11.3848783"><ele>267.0</ele><time>2026-04-03T14:14:56.265Z</time></trkpt><trkpt lat="43.18491" lon="11.3847267"><ele>267.0</ele><time>2026-04-03T14:14:57.264Z</time></trkpt><trkpt lat="43.1848183" lon="11.38459"><ele>269.0</ele><time>2026-04-03T14:14:58.264Z</time></trkpt><trkpt lat="43.1847367" lon="11.384465"><ele>271.0</ele><time>2026-04-03T14:14:59.264Z</time></trkpt><trkpt lat="43.18464" lon="11.3843583"><ele>273.0</ele><time>2026-04-03T14:15:00.264Z</time></trkpt><trkpt lat="43.184525" lon="11.3842367"><ele>275.0</ele><time>2026-04-03T14:15:01.265Z</time></trkpt><trkpt lat="43.1844083" lon="11.3841317"><ele>275.0</ele><time>2026-04-03T14:15:02.264Z</time></trkpt><trkpt lat="43.1842983" lon="11.3840383"><ele>275.0</ele><time>2026-04-03T14:15:03.264Z</time></trkpt><trkpt lat="43.1841683" lon="11.3839533"><ele>275.0</ele><time>2026-04-03T14:15:04.265Z</time></trkpt><trkpt lat="43.1840433" lon="11.3839033"><ele>275.0</ele><time>2026-04-03T14:15:05.264Z</time></trkpt><trkpt lat="43.1839133" lon="11.3838583"><ele>274.8</ele><time>2026-04-03T14:15:06.264Z</time></trkpt><trkpt lat="43.18379" lon="11.383815"><ele>274.6</ele><time>2026-04-03T14:15:07.264Z</time></trkpt><trkpt lat="43.1836883" lon="11.3837633"><ele>274.4</ele><time>2026-04-03T14:15:08.264Z</time></trkpt><trkpt lat="43.1835867" lon="11.3837233"><ele>274.2</ele><time>2026-04-03T14:15:09.265Z</time></trkpt><trkpt lat="43.1834867" lon="11.383685"><ele>274.0</ele><time>2026-04-03T14:15:10.264Z</time></trkpt><trkpt lat="43.18339" lon="11.383645"><ele>274.0</ele><time>2026-04-03T14:15:11.264Z</time></trkpt><trkpt lat="43.1832867" lon="11.383605"><ele>274.0</ele><time>2026-04-03T14:15:12.265Z</time></trkpt><trkpt lat="43.183175" lon="11.3835633"><ele>274.0</ele><time>2026-04-03T14:15:13.264Z</time></trkpt><trkpt lat="43.1830667" lon="11.3835167"><ele>274.0</ele><time>2026-04-03T14:15:14.264Z</time></trkpt><trkpt lat="43.182945" lon="11.383465"><ele>273.25</ele><time>2026-04-03T14:15:15.264Z</time></trkpt><trkpt lat="43.1828283" lon="11.38341"><ele>272.5</ele><time>2026-04-03T14:15:16.264Z</time></trkpt><trkpt lat="43.1827167" lon="11.383355"><ele>271.75</ele><time>2026-04-03T14:15:17.264Z</time></trkpt><trkpt lat="43.182615" lon="11.3832967"><ele>271.0</ele><time>2026-04-03T14:15:18.264Z</time></trkpt><trkpt lat="43.1825083" lon="11.3832467"><ele>271.0</ele><time>2026-04-03T14:15:19.265Z</time></trkpt><trkpt lat="43.182395" lon="11.3832083"><ele>271.0</ele><time>2026-04-03T14:15:20.264Z</time></trkpt><trkpt lat="43.182275" lon="11.383175"><ele>271.0</ele><time>2026-04-03T14:15:21.264Z</time></trkpt><trkpt lat="43.1821567" lon="11.3831367"><ele>271.0</ele><time>2026-04-03T14:15:22.264Z</time></trkpt><trkpt lat="43.1820433" lon="11.3831083"><ele>270.6</ele><time>2026-04-03T14:15:23.264Z</time></trkpt><trkpt lat="43.1819417" lon="11.3830833"><ele>270.20000000000005</ele><time>2026-04-03T14:15:24.264Z</time></trkpt><trkpt lat="43.181845" lon="11.383055"><ele>269.79999999999995</ele><time>2026-04-03T14:15:25.264Z</time></trkpt><trkpt lat="43.1817583" lon="11.3830267"><ele>269.4</ele><time>2026-04-03T14:15:26.264Z</time></trkpt><trkpt lat="43.181675" lon="11.3830017"><ele>269.0</ele><time>2026-04-03T14:15:27.265Z</time></trkpt><trkpt lat="43.1815983" lon="11.38298"><ele>268.5</ele><time>2026-04-03T14:15:28.264Z</time></trkpt><trkpt lat="43.1815167" lon="11.38297"><ele>268.0</ele><time>2026-04-03T14:15:29.264Z</time></trkpt><trkpt lat="43.1814417" lon="11.3829467"><ele>267.5</ele><time>2026-04-03T14:15:30.264Z</time></trkpt><trkpt lat="43.1813767" lon="11.3829333"><ele>267.0</ele><time>2026-04-03T14:15:31.265Z</time></trkpt><trkpt lat="43.1813117" lon="11.3829083"><ele>266.5</ele><time>2026-04-03T14:15:32.264Z</time></trkpt><trkpt lat="43.1812" lon="11.3828867"><ele>266.0</ele><time>2026-04-03T14:15:34.264Z</time></trkpt><trkpt lat="43.1810967" lon="11.3828517"><ele>266.0</ele><time>2026-04-03T14:15:36.264Z</time></trkpt><trkpt lat="43.1809983" lon="11.3827833"><ele>266.0</ele><time>2026-04-03T14:15:38.265Z</time></trkpt><trkpt lat="43.18091" lon="11.3827233"><ele>266.0</ele><time>2026-04-03T14:15:40.264Z</time></trkpt><trkpt lat="43.1808517" lon="11.38269"><ele>266.0</ele><time>2026-04-03T14:15:42.264Z</time></trkpt><trkpt lat="43.1807733" lon="11.3827183"><ele>266.0</ele><time>2026-04-03T14:15:45.265Z</time></trkpt><trkpt lat="43.180695" lon="11.3828067"><ele>266.0</ele><time>2026-04-03T14:15:47.264Z</time></trkpt><trkpt lat="43.1805917" lon="11.382905"><ele>266.0</ele><time>2026-04-03T14:15:49.264Z</time></trkpt><trkpt lat="43.1804967" lon="11.3830083"><ele>266.0</ele><time>2026-04-03T14:15:51.264Z</time></trkpt><trkpt lat="43.18044" lon="11.3830617"><ele>266.0</ele><time>2026-04-03T14:15:52.264Z</time></trkpt><trkpt lat="43.18038" lon="11.3831133"><ele>266.0</ele><time>2026-04-03T14:15:53.264Z</time></trkpt><trkpt lat="43.18032" lon="11.3831683"><ele>266.0</ele><time>2026-04-03T14:15:54.264Z</time></trkpt><trkpt lat="43.18026" lon="11.3832283"><ele>266.0</ele><time>2026-04-03T14:15:55.264Z</time></trkpt><trkpt lat="43.1801967" lon="11.3832883"><ele>266.0</ele><time>2026-04-03T14:15:56.264Z</time></trkpt><trkpt lat="43.18013" lon="11.3833517"><ele>266.0</ele><time>2026-04-03T14:15:57.264Z</time></trkpt><trkpt lat="43.18006" lon="11.383405"><ele>266.0</ele><time>2026-04-03T14:15:58.265Z</time></trkpt><trkpt lat="43.1799983" lon="11.3834567"><ele>266.0</ele><time>2026-04-03T14:15:59.264Z</time></trkpt><trkpt lat="43.1799383" lon="11.38349"><ele>266.0</ele><time>2026-04-03T14:16:00.264Z</time></trkpt><trkpt lat="43.1798717" lon="11.3835217"><ele>265.5</ele><time>2026-04-03T14:16:01.264Z</time></trkpt><trkpt lat="43.1798" lon="11.38355"><ele>265.0</ele><time>2026-04-03T14:16:02.264Z</time></trkpt><trkpt lat="43.17973" lon="11.3835817"><ele>264.5</ele><time>2026-04-03T14:16:03.264Z</time></trkpt><trkpt lat="43.17966" lon="11.383605"><ele>264.0</ele><time>2026-04-03T14:16:04.264Z</time></trkpt><trkpt lat="43.17958" lon="11.3836283"><ele>263.5</ele><time>2026-04-03T14:16:05.264Z</time></trkpt><trkpt lat="43.179505" lon="11.383665"><ele>263.0</ele><time>2026-04-03T14:16:06.264Z</time></trkpt><trkpt lat="43.1794167" lon="11.3837383"><ele>263.0</ele><time>2026-04-03T14:16:08.264Z</time></trkpt><trkpt lat="43.1793467" lon="11.3837833"><ele>263.0</ele><time>2026-04-03T14:16:10.265Z</time></trkpt><trkpt lat="43.1792617" lon="11.3838317"><ele>263.0</ele><time>2026-04-03T14:16:12.264Z</time></trkpt><trkpt lat="43.1791617" lon="11.383895"><ele>263.0</ele><time>2026-04-03T14:16:14.264Z</time></trkpt><trkpt lat="43.17905" lon="11.3839767"><ele>263.0</ele><time>2026-04-03T14:16:16.264Z</time></trkpt><trkpt lat="43.1789733" lon="11.3840283"><ele>264.2</ele><time>2026-04-03T14:16:17.264Z</time></trkpt><trkpt lat="43.1788983" lon="11.3840833"><ele>265.4</ele><time>2026-04-03T14:16:18.265Z</time></trkpt><trkpt lat="43.1788133" lon="11.3841533"><ele>266.59999999999997</ele><time>2026-04-03T14:16:19.265Z</time></trkpt><trkpt lat="43.1787367" lon="11.3842233"><ele>267.8</ele><time>2026-04-03T14:16:20.264Z</time></trkpt><trkpt lat="43.1786617" lon="11.384305"><ele>269.0</ele><time>2026-04-03T14:16:21.264Z</time></trkpt><trkpt lat="43.17858" lon="11.38439"><ele>269.0</ele><time>2026-04-03T14:16:22.265Z</time></trkpt><trkpt lat="43.1784983" lon="11.3844867"><ele>269.0</ele><time>2026-04-03T14:16:23.264Z</time></trkpt><trkpt lat="43.1784167" lon="11.3846017"><ele>269.0</ele><time>2026-04-03T14:16:24.264Z</time></trkpt><trkpt lat="43.1783233" lon="11.384715"><ele>269.0</ele><time>2026-04-03T14:16:25.264Z</time></trkpt><trkpt lat="43.178235" lon="11.38482"><ele>269.0</ele><time>2026-04-03T14:16:26.264Z</time></trkpt><trkpt lat="43.1781317" lon="11.3849133"><ele>269.0</ele><time>2026-04-03T14:16:27.264Z</time></trkpt><trkpt lat="43.1780167" lon="11.38501"><ele>269.0</ele><time>2026-04-03T14:16:28.264Z</time></trkpt><trkpt lat="43.1778933" lon="11.3850917"><ele>269.0</ele><time>2026-04-03T14:16:29.264Z</time></trkpt><trkpt lat="43.1777783" lon="11.3851883"><ele>269.0</ele><time>2026-04-03T14:16:30.264Z</time></trkpt><trkpt lat="43.177655" lon="11.3852967"><ele>269.0</ele><time>2026-04-03T14:16:31.264Z</time></trkpt><trkpt lat="43.1775233" lon="11.3854133"><ele>269.0</ele><time>2026-04-03T14:16:32.264Z</time></trkpt><trkpt lat="43.1774183" lon="11.385535"><ele>269.0</ele><time>2026-04-03T14:16:33.265Z</time></trkpt><trkpt lat="43.1773217" lon="11.385675"><ele>269.75</ele><time>2026-04-03T14:16:34.265Z</time></trkpt><trkpt lat="43.177235" lon="11.3858333"><ele>270.5</ele><time>2026-04-03T14:16:35.264Z</time></trkpt><trkpt lat="43.177155" lon="11.3860033"><ele>271.25</ele><time>2026-04-03T14:16:36.264Z</time></trkpt><trkpt lat="43.17708" lon="11.3861817"><ele>272.0</ele><time>2026-04-03T14:16:37.264Z</time></trkpt><trkpt lat="43.1770017" lon="11.3863617"><ele>272.0</ele><time>2026-04-03T14:16:38.264Z</time></trkpt><trkpt lat="43.1769217" lon="11.3865583"><ele>272.0</ele><time>2026-04-03T14:16:39.264Z</time></trkpt><trkpt lat="43.17685" lon="11.38675"><ele>272.0</ele><time>2026-04-03T14:16:40.264Z</time></trkpt><trkpt lat="43.1767733" lon="11.3869417"><ele>272.0</ele><time>2026-04-03T14:16:41.264Z</time></trkpt><trkpt lat="43.1766983" lon="11.387135"><ele>272.0</ele><time>2026-04-03T14:16:42.264Z</time></trkpt><trkpt lat="43.1766183" lon="11.387315"><ele>272.0</ele><time>2026-04-03T14:16:43.265Z</time></trkpt><trkpt lat="43.176535" lon="11.3875"><ele>274.0</ele><time>2026-04-03T14:16:44.264Z</time></trkpt><trkpt lat="43.1764517" lon="11.3876833"><ele>276.0</ele><time>2026-04-03T14:16:45.264Z</time></trkpt><trkpt lat="43.1763667" lon="11.3878483"><ele>278.0</ele><time>2026-04-03T14:16:46.264Z</time></trkpt><trkpt lat="43.1762617" lon="11.387995"><ele>277.0</ele><time>2026-04-03T14:16:47.264Z</time></trkpt><trkpt lat="43.1761417" lon="11.38812"><ele>276.0</ele><time>2026-04-03T14:16:48.265Z</time></trkpt><trkpt lat="43.1760167" lon="11.388235"><ele>275.0</ele><time>2026-04-03T14:16:49.264Z</time></trkpt><trkpt lat="43.17589" lon="11.3883317"><ele>274.0</ele><time>2026-04-03T14:16:50.264Z</time></trkpt><trkpt lat="43.1757583" lon="11.3884083"><ele>273.75</ele><time>2026-04-03T14:16:51.264Z</time></trkpt><trkpt lat="43.1756283" lon="11.3884583"><ele>273.5</ele><time>2026-04-03T14:16:52.264Z</time></trkpt><trkpt lat="43.1755033" lon="11.38852"><ele>273.25</ele><time>2026-04-03T14:16:53.265Z</time></trkpt><trkpt lat="43.1753667" lon="11.38858"><ele>273.0</ele><time>2026-04-03T14:16:54.264Z</time></trkpt><trkpt lat="43.1752333" lon="11.388635"><ele>273.0</ele><time>2026-04-03T14:16:55.264Z</time></trkpt><trkpt lat="43.1750933" lon="11.3887"><ele>273.0</ele><time>2026-04-03T14:16:56.264Z</time></trkpt><trkpt lat="43.174945" lon="11.3887767"><ele>273.0</ele><time>2026-04-03T14:16:57.265Z</time></trkpt><trkpt lat="43.17481" lon="11.388835"><ele>273.0</ele><time>2026-04-03T14:16:58.264Z</time></trkpt><trkpt lat="43.1746883" lon="11.3888767"><ele>274.5</ele><time>2026-04-03T14:16:59.265Z</time></trkpt><trkpt lat="43.1745533" lon="11.3889283"><ele>276.0</ele><time>2026-04-03T14:17:00.264Z</time></trkpt><trkpt lat="43.1744217" lon="11.3889833"><ele>277.5</ele><time>2026-04-03T14:17:01.264Z</time></trkpt><trkpt lat="43.1743" lon="11.389045"><ele>279.0</ele><time>2026-04-03T14:17:02.264Z</time></trkpt><trkpt lat="43.1741767" lon="11.3891117"><ele>279.0</ele><time>2026-04-03T14:17:03.265Z</time></trkpt><trkpt lat="43.1740417" lon="11.38919"><ele>279.0</ele><time>2026-04-03T14:17:04.264Z</time></trkpt><trkpt lat="43.17392" lon="11.3892883"><ele>279.0</ele><time>2026-04-03T14:17:05.265Z</time></trkpt><trkpt lat="43.173805" lon="11.3894067"><ele>279.0</ele><time>2026-04-03T14:17:06.264Z</time></trkpt><trkpt lat="43.1737033" lon="11.3895433"><ele>280.75</ele><time>2026-04-03T14:17:07.264Z</time></trkpt><trkpt lat="43.1736117" lon="11.38969"><ele>282.5</ele><time>2026-04-03T14:17:08.264Z</time></trkpt><trkpt lat="43.17352" lon="11.38985"><ele>284.25</ele><time>2026-04-03T14:17:09.264Z</time></trkpt><trkpt lat="43.1734267" lon="11.3900083"><ele>286.0</ele><time>2026-04-03T14:17:10.264Z</time></trkpt><trkpt lat="43.1733333" lon="11.3901517"><ele>286.0</ele><time>2026-04-03T14:17:11.264Z</time></trkpt><trkpt lat="43.1732467" lon="11.3902767"><ele>286.0</ele><time>2026-04-03T14:17:12.264Z</time></trkpt><trkpt lat="43.1731517" lon="11.3903833"><ele>286.0</ele><time>2026-04-03T14:17:13.265Z</time></trkpt><trkpt lat="43.173055" lon="11.3904917"><ele>286.0</ele><time>2026-04-03T14:17:14.264Z</time></trkpt><trkpt lat="43.17293" lon="11.39062"><ele>290.0</ele><time>2026-04-03T14:17:15.264Z</time></trkpt><trkpt lat="43.1727933" lon="11.3907317"><ele>294.0</ele><time>2026-04-03T14:17:16.265Z</time></trkpt><trkpt lat="43.17264" lon="11.3908183"><ele>298.0</ele><time>2026-04-03T14:17:17.265Z</time></trkpt><trkpt lat="43.1724917" lon="11.390895"><ele>298.0</ele><time>2026-04-03T14:17:18.264Z</time></trkpt><trkpt lat="43.1723583" lon="11.3909567"><ele>298.0</ele><time>2026-04-03T14:17:19.264Z</time></trkpt><trkpt lat="43.1722267" lon="11.3910167"><ele>298.0</ele><time>2026-04-03T14:17:20.264Z</time></trkpt><trkpt lat="43.172095" lon="11.3910783"><ele>298.0</ele><time>2026-04-03T14:17:21.264Z</time></trkpt><trkpt lat="43.1719717" lon="11.3911283"><ele>299.0</ele><time>2026-04-03T14:17:22.264Z</time></trkpt><trkpt lat="43.1718467" lon="11.3911733"><ele>300.0</ele><time>2026-04-03T14:17:23.265Z</time></trkpt><trkpt lat="43.171715" lon="11.39123"><ele>301.0</ele><time>2026-04-03T14:17:24.264Z</time></trkpt><trkpt lat="43.1715983" lon="11.39125"><ele>302.0</ele><time>2026-04-03T14:17:25.265Z</time></trkpt><trkpt lat="43.171485" lon="11.3912767"><ele>302.0</ele><time>2026-04-03T14:17:26.264Z</time></trkpt><trkpt lat="43.1713783" lon="11.3912683"><ele>302.0</ele><time>2026-04-03T14:17:27.264Z</time></trkpt><trkpt lat="43.171285" lon="11.3912417"><ele>302.0</ele><time>2026-04-03T14:17:28.264Z</time></trkpt><trkpt lat="43.1711867" lon="11.39122"><ele>302.0</ele><time>2026-04-03T14:17:29.264Z</time></trkpt><trkpt lat="43.17108" lon="11.3911717"><ele>302.0</ele><time>2026-04-03T14:17:30.264Z</time></trkpt><trkpt lat="43.1709667" lon="11.3911067"><ele>302.0</ele><time>2026-04-03T14:17:31.264Z</time></trkpt><trkpt lat="43.170845" lon="11.3910433"><ele>302.0</ele><time>2026-04-03T14:17:32.265Z</time></trkpt><trkpt lat="43.1707317" lon="11.3909833"><ele>302.0</ele><time>2026-04-03T14:17:33.264Z</time></trkpt><trkpt lat="43.1706233" lon="11.3909317"><ele>302.0</ele><time>2026-04-03T14:17:34.264Z</time></trkpt><trkpt lat="43.17053" lon="11.390875"><ele>302.0</ele><time>2026-04-03T14:17:35.264Z</time></trkpt><trkpt lat="43.1704417" lon="11.3908117"><ele>302.0</ele><time>2026-04-03T14:17:36.264Z</time></trkpt><trkpt lat="43.17036" lon="11.3907467"><ele>302.0</ele><time>2026-04-03T14:17:37.264Z</time></trkpt><trkpt lat="43.1702617" lon="11.390695"><ele>302.0</ele><time>2026-04-03T14:17:38.264Z</time></trkpt><trkpt lat="43.1701583" lon="11.3906167"><ele>302.0</ele><time>2026-04-03T14:17:39.264Z</time></trkpt><trkpt lat="43.1700533" lon="11.3905317"><ele>301.75</ele><time>2026-04-03T14:17:40.264Z</time></trkpt><trkpt lat="43.1699483" lon="11.3904533"><ele>301.5</ele><time>2026-04-03T14:17:41.264Z</time></trkpt><trkpt lat="43.1698483" lon="11.3903767"><ele>301.25</ele><time>2026-04-03T14:17:42.265Z</time></trkpt><trkpt lat="43.169735" lon="11.3902933"><ele>301.0</ele><time>2026-04-03T14:17:43.264Z</time></trkpt><trkpt lat="43.1696283" lon="11.3902283"><ele>298.25</ele><time>2026-04-03T14:17:44.264Z</time></trkpt><trkpt lat="43.169515" lon="11.3901617"><ele>295.5</ele><time>2026-04-03T14:17:45.264Z</time></trkpt><trkpt lat="43.169395" lon="11.3901"><ele>292.75</ele><time>2026-04-03T14:17:46.264Z</time></trkpt><trkpt lat="43.1692683" lon="11.3900667"><ele>290.0</ele><time>2026-04-03T14:17:47.264Z</time></trkpt><trkpt lat="43.1691383" lon="11.3900433"><ele>287.25</ele><time>2026-04-03T14:17:48.264Z</time></trkpt><trkpt lat="43.16901" lon="11.3900217"><ele>284.5</ele><time>2026-04-03T14:17:49.265Z</time></trkpt><trkpt lat="43.1688867" lon="11.39001"><ele>281.75</ele><time>2026-04-03T14:17:50.264Z</time></trkpt><trkpt lat="43.1687517" lon="11.3899933"><ele>279.0</ele><time>2026-04-03T14:17:51.264Z</time></trkpt><trkpt lat="43.16861" lon="11.389975"><ele>279.0</ele><time>2026-04-03T14:17:52.264Z</time></trkpt><trkpt lat="43.1684567" lon="11.3899583"><ele>279.0</ele><time>2026-04-03T14:17:53.264Z</time></trkpt><trkpt lat="43.1683333" lon="11.3899283"><ele>279.0</ele><time>2026-04-03T14:17:54.264Z</time></trkpt><trkpt lat="43.1682033" lon="11.389915"><ele>279.0</ele><time>2026-04-03T14:17:55.265Z</time></trkpt><trkpt lat="43.16807" lon="11.3899017"><ele>277.5</ele><time>2026-04-03T14:17:56.264Z</time></trkpt><trkpt lat="43.167925" lon="11.3898983"><ele>276.0</ele><time>2026-04-03T14:17:57.264Z</time></trkpt><trkpt lat="43.167775" lon="11.38989"><ele>274.5</ele><time>2026-04-03T14:17:58.264Z</time></trkpt><trkpt lat="43.1676283" lon="11.3898817"><ele>273.0</ele><time>2026-04-03T14:17:59.265Z</time></trkpt><trkpt lat="43.1674817" lon="11.3898683"><ele>273.25</ele><time>2026-04-03T14:18:00.264Z</time></trkpt><trkpt lat="43.1673433" lon="11.3898517"><ele>273.5</ele><time>2026-04-03T14:18:01.265Z</time></trkpt><trkpt lat="43.1671933" lon="11.3898467"><ele>273.75</ele><time>2026-04-03T14:18:02.264Z</time></trkpt><trkpt lat="43.1670717" lon="11.389855"><ele>274.0</ele><time>2026-04-03T14:18:03.264Z</time></trkpt><trkpt lat="43.1669467" lon="11.389875"><ele>274.0</ele><time>2026-04-03T14:18:04.264Z</time></trkpt><trkpt lat="43.1668267" lon="11.38992"><ele>274.0</ele><time>2026-04-03T14:18:05.265Z</time></trkpt><trkpt lat="43.16671" lon="11.389995"><ele>274.0</ele><time>2026-04-03T14:18:06.264Z</time></trkpt><trkpt lat="43.1666033" lon="11.39009"><ele>274.0</ele><time>2026-04-03T14:18:07.265Z</time></trkpt><trkpt lat="43.1664983" lon="11.390195"><ele>274.59999999999997</ele><time>2026-04-03T14:18:08.264Z</time></trkpt><trkpt lat="43.1664067" lon="11.3903017"><ele>275.2</ele><time>2026-04-03T14:18:09.264Z</time></trkpt><trkpt lat="43.1663383" lon="11.3904083"><ele>275.79999999999995</ele><time>2026-04-03T14:18:10.265Z</time></trkpt><trkpt lat="43.1662733" lon="11.3904933"><ele>276.4</ele><time>2026-04-03T14:18:11.265Z</time></trkpt><trkpt lat="43.1662067" lon="11.3905733"><ele>277.0</ele><time>2026-04-03T14:18:12.264Z</time></trkpt><trkpt lat="43.1661333" lon="11.390645"><ele>275.8</ele><time>2026-04-03T14:18:13.265Z</time></trkpt><trkpt lat="43.1660567" lon="11.3907067"><ele>274.6</ele><time>2026-04-03T14:18:14.265Z</time></trkpt><trkpt lat="43.1659783" lon="11.390765"><ele>273.40000000000003</ele><time>2026-04-03T14:18:15.265Z</time></trkpt><trkpt lat="43.165885" lon="11.3908183"><ele>272.2</ele><time>2026-04-03T14:18:16.264Z</time></trkpt><trkpt lat="43.1657967" lon="11.3908533"><ele>271.0</ele><time>2026-04-03T14:18:17.264Z</time></trkpt><trkpt lat="43.165705" lon="11.3908817"><ele>271.6</ele><time>2026-04-03T14:18:18.264Z</time></trkpt><trkpt lat="43.1656117" lon="11.390905"><ele>272.20000000000005</ele><time>2026-04-03T14:18:19.265Z</time></trkpt><trkpt lat="43.16552" lon="11.3909233"><ele>272.79999999999995</ele><time>2026-04-03T14:18:20.264Z</time></trkpt><trkpt lat="43.1654167" lon="11.390955"><ele>273.4</ele><time>2026-04-03T14:18:21.264Z</time></trkpt><trkpt lat="43.16531" lon="11.39098"><ele>274.0</ele><time>2026-04-03T14:18:22.265Z</time></trkpt><trkpt lat="43.1651967" lon="11.391015"><ele>274.0</ele><time>2026-04-03T14:18:23.264Z</time></trkpt><trkpt lat="43.1650867" lon="11.3910383"><ele>274.0</ele><time>2026-04-03T14:18:24.264Z</time></trkpt><trkpt lat="43.16497" lon="11.391065"><ele>274.0</ele><time>2026-04-03T14:18:25.264Z</time></trkpt><trkpt lat="43.1648517" lon="11.3910933"><ele>274.0</ele><time>2026-04-03T14:18:26.264Z</time></trkpt><trkpt lat="43.1647283" lon="11.3911183"><ele>274.25</ele><time>2026-04-03T14:18:27.264Z</time></trkpt><trkpt lat="43.1646" lon="11.3911567"><ele>274.5</ele><time>2026-04-03T14:18:28.264Z</time></trkpt><trkpt lat="43.1644817" lon="11.391185"><ele>274.75</ele><time>2026-04-03T14:18:29.264Z</time></trkpt><trkpt lat="43.16438" lon="11.39122"><ele>275.0</ele><time>2026-04-03T14:18:30.265Z</time></trkpt><trkpt lat="43.1642633" lon="11.3912633"><ele>275.0</ele><time>2026-04-03T14:18:31.264Z</time></trkpt><trkpt lat="43.1641233" lon="11.3912883"><ele>275.0</ele><time>2026-04-03T14:18:32.264Z</time></trkpt><trkpt lat="43.1639917" lon="11.3913167"><ele>275.0</ele><time>2026-04-03T14:18:33.264Z</time></trkpt><trkpt lat="43.163865" lon="11.391345"><ele>275.0</ele><time>2026-04-03T14:18:34.264Z</time></trkpt><trkpt lat="43.1637333" lon="11.3913833"><ele>275.4</ele><time>2026-04-03T14:18:35.264Z</time></trkpt><trkpt lat="43.163615" lon="11.3914083"><ele>275.8</ele><time>2026-04-03T14:18:36.264Z</time></trkpt><trkpt lat="43.1635083" lon="11.39144"><ele>276.2</ele><time>2026-04-03T14:18:37.264Z</time></trkpt><trkpt lat="43.1634133" lon="11.3914667"><ele>276.6</ele><time>2026-04-03T14:18:38.265Z</time></trkpt><trkpt lat="43.1633283" lon="11.39148"><ele>277.0</ele><time>2026-04-03T14:18:39.264Z</time></trkpt><trkpt lat="43.1632533" lon="11.3915017"><ele>277.8333333333333</ele><time>2026-04-03T14:18:40.264Z</time></trkpt><trkpt lat="43.163185" lon="11.3915217"><ele>278.66666666666663</ele><time>2026-04-03T14:18:41.264Z</time></trkpt><trkpt lat="43.163095" lon="11.3914817"><ele>279.5</ele><time>2026-04-03T14:18:43.263Z</time></trkpt><trkpt lat="43.16309" lon="11.3913683"><ele>280.3333333333333</ele><time>2026-04-03T14:18:45.263Z</time></trkpt><trkpt lat="43.1631133" lon="11.3912267"><ele>281.1666666666667</ele><time>2026-04-03T14:18:47.263Z</time></trkpt><trkpt lat="43.1630833" lon="11.3911283"><ele>282.0</ele><time>2026-04-03T14:18:49.264Z</time></trkpt><trkpt lat="43.16302" lon="11.3910867"><ele>282.25</ele><time>2026-04-03T14:18:50.263Z</time></trkpt><trkpt lat="43.162935" lon="11.391035"><ele>282.5</ele><time>2026-04-03T14:18:51.263Z</time></trkpt><trkpt lat="43.1628317" lon="11.39097"><ele>282.75</ele><time>2026-04-03T14:18:52.263Z</time></trkpt><trkpt lat="43.1627267" lon="11.3908883"><ele>283.0</ele><time>2026-04-03T14:18:53.263Z</time></trkpt><trkpt lat="43.1626167" lon="11.3907833"><ele>283.0</ele><time>2026-04-03T14:18:54.263Z</time></trkpt><trkpt lat="43.16249" lon="11.3906667"><ele>283.0</ele><time>2026-04-03T14:18:55.263Z</time></trkpt><trkpt lat="43.16237" lon="11.3905567"><ele>283.0</ele><time>2026-04-03T14:18:56.263Z</time></trkpt><trkpt lat="43.1622833" lon="11.39046"><ele>283.0</ele><time>2026-04-03T14:18:57.263Z</time></trkpt><trkpt lat="43.1622167" lon="11.3903733"><ele>283.2</ele><time>2026-04-03T14:18:58.263Z</time></trkpt><trkpt lat="43.16216" lon="11.3902817"><ele>283.4</ele><time>2026-04-03T14:18:59.264Z</time></trkpt><trkpt lat="43.1621" lon="11.3901817"><ele>283.59999999999997</ele><time>2026-04-03T14:19:00.263Z</time></trkpt><trkpt lat="43.16204" lon="11.3900817"><ele>283.8</ele><time>2026-04-03T14:19:01.263Z</time></trkpt><trkpt lat="43.1619817" lon="11.3899833"><ele>284.0</ele><time>2026-04-03T14:19:02.263Z</time></trkpt><trkpt lat="43.161925" lon="11.3898983"><ele>284.0</ele><time>2026-04-03T14:19:03.263Z</time></trkpt><trkpt lat="43.1618583" lon="11.3898217"><ele>284.0</ele><time>2026-04-03T14:19:04.263Z</time></trkpt><trkpt lat="43.16179" lon="11.3897583"><ele>284.0</ele><time>2026-04-03T14:19:05.263Z</time></trkpt><trkpt lat="43.1617283" lon="11.3896933"><ele>284.0</ele><time>2026-04-03T14:19:06.263Z</time></trkpt><trkpt lat="43.16168" lon="11.389615"><ele>284.0</ele><time>2026-04-03T14:19:07.263Z</time></trkpt><trkpt lat="43.1616317" lon="11.38953"><ele>284.0</ele><time>2026-04-03T14:19:08.263Z</time></trkpt><trkpt lat="43.1616033" lon="11.38943"><ele>284.33333333333337</ele><time>2026-04-03T14:19:09.263Z</time></trkpt><trkpt lat="43.1615867" lon="11.389325"><ele>284.6666666666667</ele><time>2026-04-03T14:19:10.263Z</time></trkpt><trkpt lat="43.161595" lon="11.389225"><ele>285.0</ele><time>2026-04-03T14:19:11.263Z</time></trkpt><trkpt lat="43.1616283" lon="11.3891367"><ele>285.3333333333333</ele><time>2026-04-03T14:19:12.263Z</time></trkpt><trkpt lat="43.1616717" lon="11.3890517"><ele>285.66666666666663</ele><time>2026-04-03T14:19:13.264Z</time></trkpt><trkpt lat="43.1616983" lon="11.38897"><ele>286.0</ele><time>2026-04-03T14:19:14.263Z</time></trkpt><trkpt lat="43.16172" lon="11.388815"><ele>287.0</ele><time>2026-04-03T14:19:16.263Z</time></trkpt><trkpt lat="43.1617117" lon="11.3886317"><ele>288.0</ele><time>2026-04-03T14:19:18.263Z</time></trkpt><trkpt lat="43.1617067" lon="11.3885267"><ele>289.0</ele><time>2026-04-03T14:19:19.263Z</time></trkpt><trkpt lat="43.1616983" lon="11.388435"><ele>290.0</ele><time>2026-04-03T14:19:20.263Z</time></trkpt><trkpt lat="43.1616767" lon="11.388345"><ele>291.0</ele><time>2026-04-03T14:19:21.263Z</time></trkpt><trkpt lat="43.1616533" lon="11.38825"><ele>292.0</ele><time>2026-04-03T14:19:22.263Z</time></trkpt><trkpt lat="43.161625" lon="11.388145"><ele>292.0</ele><time>2026-04-03T14:19:23.263Z</time></trkpt><trkpt lat="43.1615983" lon="11.3880333"><ele>292.0</ele><time>2026-04-03T14:19:24.263Z</time></trkpt><trkpt lat="43.1615683" lon="11.3879317"><ele>292.0</ele><time>2026-04-03T14:19:25.263Z</time></trkpt><trkpt lat="43.1615483" lon="11.3878233"><ele>292.0</ele><time>2026-04-03T14:19:26.263Z</time></trkpt><trkpt lat="43.16152" lon="11.38772"><ele>292.0</ele><time>2026-04-03T14:19:27.263Z</time></trkpt><trkpt lat="43.161465" lon="11.3876267"><ele>292.0</ele><time>2026-04-03T14:19:28.263Z</time></trkpt><trkpt lat="43.1614367" lon="11.3875483"><ele>295.6</ele><time>2026-04-03T14:19:29.264Z</time></trkpt><trkpt lat="43.1613717" lon="11.38741"><ele>299.2</ele><time>2026-04-03T14:19:31.263Z</time></trkpt><trkpt lat="43.1612983" lon="11.3873483"><ele>302.8</ele><time>2026-04-03T14:19:33.263Z</time></trkpt><trkpt lat="43.1612017" lon="11.3873267"><ele>306.4</ele><time>2026-04-03T14:19:35.263Z</time></trkpt><trkpt lat="43.1610983" lon="11.387335"><ele>310.0</ele><time>2026-04-03T14:19:37.263Z</time></trkpt><trkpt lat="43.161005" lon="11.387365"><ele>310.0</ele><time>2026-04-03T14:19:39.263Z</time></trkpt><trkpt lat="43.1609017" lon="11.387385"><ele>310.0</ele><time>2026-04-03T14:19:41.263Z</time></trkpt><trkpt lat="43.1607917" lon="11.38741"><ele>310.0</ele><time>2026-04-03T14:19:43.263Z</time></trkpt><trkpt lat="43.1607117" lon="11.38743"><ele>310.0</ele><time>2026-04-03T14:19:45.263Z</time></trkpt><trkpt lat="43.1606533" lon="11.3874767"><ele>310.0</ele><time>2026-04-03T14:19:47.264Z</time></trkpt><trkpt lat="43.1605633" lon="11.38747"><ele>308.2</ele><time>2026-04-03T14:19:58.264Z</time></trkpt><trkpt lat="43.1604383" lon="11.3875067"><ele>306.4</ele><time>2026-04-03T14:20:00.263Z</time></trkpt><trkpt lat="43.1603617" lon="11.38755"><ele>304.6</ele><time>2026-04-03T14:20:01.263Z</time></trkpt><trkpt lat="43.160295" lon="11.3876117"><ele>302.8</ele><time>2026-04-03T14:20:02.263Z</time></trkpt><trkpt lat="43.1602317" lon="11.3876783"><ele>301.0</ele><time>2026-04-03T14:20:03.263Z</time></trkpt><trkpt lat="43.1601733" lon="11.3877567"><ele>301.0</ele><time>2026-04-03T14:20:04.263Z</time></trkpt><trkpt lat="43.1601117" lon="11.38783"><ele>301.0</ele><time>2026-04-03T14:20:05.263Z</time></trkpt><trkpt lat="43.160065" lon="11.38791"><ele>301.0</ele><time>2026-04-03T14:20:06.263Z</time></trkpt><trkpt lat="43.1600117" lon="11.38798"><ele>301.0</ele><time>2026-04-03T14:20:07.263Z</time></trkpt><trkpt lat="43.159965" lon="11.38805"><ele>301.0</ele><time>2026-04-03T14:20:08.263Z</time></trkpt><trkpt lat="43.159925" lon="11.3881183"><ele>301.0</ele><time>2026-04-03T14:20:09.263Z</time></trkpt><trkpt lat="43.1598883" lon="11.3882017"><ele>301.0</ele><time>2026-04-03T14:20:10.264Z</time></trkpt><trkpt lat="43.159835" lon="11.3883583"><ele>300.42857142857144</ele><time>2026-04-03T14:20:12.263Z</time></trkpt><trkpt lat="43.1598033" lon="11.3884433"><ele>299.8571428571429</ele><time>2026-04-03T14:20:13.264Z</time></trkpt><trkpt lat="43.1597717" lon="11.388535"><ele>299.2857142857143</ele><time>2026-04-03T14:20:14.264Z</time></trkpt><trkpt lat="43.1597467" lon="11.388625"><ele>298.7142857142857</ele><time>2026-04-03T14:20:15.263Z</time></trkpt><trkpt lat="43.1597183" lon="11.3887217"><ele>298.14285714285717</ele><time>2026-04-03T14:20:16.264Z</time></trkpt><trkpt lat="43.1596933" lon="11.3888267"><ele>297.57142857142856</ele><time>2026-04-03T14:20:17.263Z</time></trkpt><trkpt lat="43.1596833" lon="11.3889283"><ele>297.0</ele><time>2026-04-03T14:20:18.263Z</time></trkpt><trkpt lat="43.15968" lon="11.3890367"><ele>295.8</ele><time>2026-04-03T14:20:19.263Z</time></trkpt><trkpt lat="43.1596867" lon="11.3891633"><ele>294.6</ele><time>2026-04-03T14:20:20.263Z</time></trkpt><trkpt lat="43.1597083" lon="11.389275"><ele>293.40000000000003</ele><time>2026-04-03T14:20:21.263Z</time></trkpt><trkpt lat="43.1597583" lon="11.3893767"><ele>292.2</ele><time>2026-04-03T14:20:22.264Z</time></trkpt><trkpt lat="43.1598317" lon="11.3894733"><ele>291.0</ele><time>2026-04-03T14:20:23.263Z</time></trkpt><trkpt lat="43.1599367" lon="11.3895717"><ele>291.0</ele><time>2026-04-03T14:20:24.263Z</time></trkpt><trkpt lat="43.160045" lon="11.38967"><ele>291.0</ele><time>2026-04-03T14:20:25.264Z</time></trkpt><trkpt lat="43.160165" lon="11.3897683"><ele>291.0</ele><time>2026-04-03T14:20:26.263Z</time></trkpt><trkpt lat="43.1602883" lon="11.3898683"><ele>291.0</ele><time>2026-04-03T14:20:27.263Z</time></trkpt><trkpt lat="43.1604083" lon="11.3899583"><ele>289.75</ele><time>2026-04-03T14:20:28.263Z</time></trkpt><trkpt lat="43.1605433" lon="11.39005"><ele>288.5</ele><time>2026-04-03T14:20:29.263Z</time></trkpt><trkpt lat="43.1606717" lon="11.3901433"><ele>287.25</ele><time>2026-04-03T14:20:30.263Z</time></trkpt><trkpt lat="43.16078" lon="11.39024"><ele>286.0</ele><time>2026-04-03T14:20:31.263Z</time></trkpt><trkpt lat="43.16089" lon="11.39034"><ele>286.0</ele><time>2026-04-03T14:20:32.263Z</time></trkpt><trkpt lat="43.161" lon="11.390445"><ele>286.0</ele><time>2026-04-03T14:20:33.264Z</time></trkpt><trkpt lat="43.1611117" lon="11.3905583"><ele>286.0</ele><time>2026-04-03T14:20:34.263Z</time></trkpt><trkpt lat="43.161225" lon="11.3906833"><ele>286.0</ele><time>2026-04-03T14:20:35.263Z</time></trkpt><trkpt lat="43.1613283" lon="11.3908183"><ele>286.0</ele><time>2026-04-03T14:20:36.264Z</time></trkpt><trkpt lat="43.161425" lon="11.3909633"><ele>286.0</ele><time>2026-04-03T14:20:37.263Z</time></trkpt><trkpt lat="43.1615067" lon="11.3911133"><ele>286.0</ele><time>2026-04-03T14:20:38.264Z</time></trkpt><trkpt lat="43.1615783" lon="11.3912483"><ele>286.0</ele><time>2026-04-03T14:20:39.263Z</time></trkpt><trkpt lat="43.1616583" lon="11.3913833"><ele>286.0</ele><time>2026-04-03T14:20:40.263Z</time></trkpt><trkpt lat="43.1617267" lon="11.3915067"><ele>286.0</ele><time>2026-04-03T14:20:41.263Z</time></trkpt><trkpt lat="43.16177" lon="11.3916333"><ele>286.0</ele><time>2026-04-03T14:20:42.264Z</time></trkpt><trkpt lat="43.1617867" lon="11.3917583"><ele>286.0</ele><time>2026-04-03T14:20:43.263Z</time></trkpt><trkpt lat="43.1617817" lon="11.3918683"><ele>286.0</ele><time>2026-04-03T14:20:44.263Z</time></trkpt><trkpt lat="43.1617667" lon="11.3919683"><ele>286.0</ele><time>2026-04-03T14:20:45.263Z</time></trkpt><trkpt lat="43.1617317" lon="11.3920817"><ele>286.0</ele><time>2026-04-03T14:20:46.264Z</time></trkpt><trkpt lat="43.161695" lon="11.3922183"><ele>286.0</ele><time>2026-04-03T14:20:47.263Z</time></trkpt><trkpt lat="43.16164" lon="11.392355"><ele>286.0</ele><time>2026-04-03T14:20:48.264Z</time></trkpt><trkpt lat="43.161595" lon="11.39249"><ele>286.0</ele><time>2026-04-03T14:20:49.263Z</time></trkpt><trkpt lat="43.161545" lon="11.3926333"><ele>284.25</ele><time>2026-04-03T14:20:50.263Z</time></trkpt><trkpt lat="43.161495" lon="11.3927617"><ele>282.5</ele><time>2026-04-03T14:20:51.263Z</time></trkpt><trkpt lat="43.1614217" lon="11.3928767"><ele>280.75</ele><time>2026-04-03T14:20:52.264Z</time></trkpt><trkpt lat="43.161325" lon="11.39298"><ele>279.0</ele><time>2026-04-03T14:20:53.263Z</time></trkpt><trkpt lat="43.161215" lon="11.39308"><ele>279.0</ele><time>2026-04-03T14:20:54.264Z</time></trkpt><trkpt lat="43.1610917" lon="11.3931533"><ele>279.0</ele><time>2026-04-03T14:20:55.263Z</time></trkpt><trkpt lat="43.160985" lon="11.3932033"><ele>279.0</ele><time>2026-04-03T14:20:56.263Z</time></trkpt><trkpt lat="43.16087" lon="11.3932483"><ele>279.0</ele><time>2026-04-03T14:20:57.263Z</time></trkpt><trkpt lat="43.16077" lon="11.393285"><ele>278.59999999999997</ele><time>2026-04-03T14:20:58.263Z</time></trkpt><trkpt lat="43.160665" lon="11.3933267"><ele>278.2</ele><time>2026-04-03T14:20:59.264Z</time></trkpt><trkpt lat="43.1605633" lon="11.39337"><ele>277.79999999999995</ele><time>2026-04-03T14:21:00.263Z</time></trkpt><trkpt lat="43.16046" lon="11.393415"><ele>277.4</ele><time>2026-04-03T14:21:01.264Z</time></trkpt><trkpt lat="43.1603633" lon="11.393465"><ele>277.0</ele><time>2026-04-03T14:21:02.263Z</time></trkpt><trkpt lat="43.1602633" lon="11.3935117"><ele>277.0</ele><time>2026-04-03T14:21:03.263Z</time></trkpt><trkpt lat="43.1601667" lon="11.3935617"><ele>277.0</ele><time>2026-04-03T14:21:04.263Z</time></trkpt><trkpt lat="43.160065" lon="11.3936"><ele>277.0</ele><time>2026-04-03T14:21:05.263Z</time></trkpt><trkpt lat="43.1599617" lon="11.3936183"><ele>277.0</ele><time>2026-04-03T14:21:06.264Z</time></trkpt><trkpt lat="43.1598733" lon="11.3936667"><ele>277.0</ele><time>2026-04-03T14:21:07.263Z</time></trkpt><trkpt lat="43.159775" lon="11.3937217"><ele>276.75</ele><time>2026-04-03T14:21:08.263Z</time></trkpt><trkpt lat="43.1596817" lon="11.3937833"><ele>276.5</ele><time>2026-04-03T14:21:09.264Z</time></trkpt><trkpt lat="43.1595817" lon="11.3938567"><ele>276.25</ele><time>2026-04-03T14:21:10.264Z</time></trkpt><trkpt lat="43.1594783" lon="11.3939417"><ele>276.0</ele><time>2026-04-03T14:21:11.263Z</time></trkpt><trkpt lat="43.1593867" lon="11.3940317"><ele>276.0</ele><time>2026-04-03T14:21:12.263Z</time></trkpt><trkpt lat="43.1592967" lon="11.3941333"><ele>276.0</ele><time>2026-04-03T14:21:13.263Z</time></trkpt><trkpt lat="43.1591983" lon="11.394245"><ele>276.0</ele><time>2026-04-03T14:21:14.263Z</time></trkpt><trkpt lat="43.1591067" lon="11.3943717"><ele>276.0</ele><time>2026-04-03T14:21:15.263Z</time></trkpt><trkpt lat="43.15903" lon="11.394495"><ele>276.75</ele><time>2026-04-03T14:21:16.263Z</time></trkpt><trkpt lat="43.1589583" lon="11.3946383"><ele>277.5</ele><time>2026-04-03T14:21:17.264Z</time></trkpt><trkpt lat="43.1588883" lon="11.394785"><ele>278.25</ele><time>2026-04-03T14:21:18.264Z</time></trkpt><trkpt lat="43.1588217" lon="11.39494"><ele>279.0</ele><time>2026-04-03T14:21:19.263Z</time></trkpt><trkpt lat="43.1587667" lon="11.3951067"><ele>279.0</ele><time>2026-04-03T14:21:20.263Z</time></trkpt><trkpt lat="43.1587283" lon="11.39529"><ele>279.0</ele><time>2026-04-03T14:21:21.263Z</time></trkpt><trkpt lat="43.1587083" lon="11.3954767"><ele>279.0</ele><time>2026-04-03T14:21:22.263Z</time></trkpt><trkpt lat="43.1586967" lon="11.3956483"><ele>279.0</ele><time>2026-04-03T14:21:23.263Z</time></trkpt><trkpt lat="43.1586883" lon="11.3958467"><ele>279.0</ele><time>2026-04-03T14:21:24.263Z</time></trkpt><trkpt lat="43.1586917" lon="11.3960333"><ele>279.0</ele><time>2026-04-03T14:21:25.264Z</time></trkpt><trkpt lat="43.1586933" lon="11.3962183"><ele>279.0</ele><time>2026-04-03T14:21:26.263Z</time></trkpt><trkpt lat="43.15869" lon="11.39641"><ele>279.0</ele><time>2026-04-03T14:21:27.264Z</time></trkpt><trkpt lat="43.15869" lon="11.3966083"><ele>279.25</ele><time>2026-04-03T14:21:28.263Z</time></trkpt><trkpt lat="43.1586867" lon="11.3968033"><ele>279.5</ele><time>2026-04-03T14:21:29.264Z</time></trkpt><trkpt lat="43.1586867" lon="11.3969967"><ele>279.75</ele><time>2026-04-03T14:21:30.263Z</time></trkpt><trkpt lat="43.1586883" lon="11.3971933"><ele>280.0</ele><time>2026-04-03T14:21:31.264Z</time></trkpt><trkpt lat="43.15869" lon="11.397395"><ele>280.0</ele><time>2026-04-03T14:21:32.264Z</time></trkpt><trkpt lat="43.1586883" lon="11.3976033"><ele>280.0</ele><time>2026-04-03T14:21:33.264Z</time></trkpt><trkpt lat="43.1587033" lon="11.3978167"><ele>280.0</ele><time>2026-04-03T14:21:34.263Z</time></trkpt><trkpt lat="43.1587283" lon="11.39802"><ele>280.5</ele><time>2026-04-03T14:21:35.263Z</time></trkpt><trkpt lat="43.1587583" lon="11.398215"><ele>281.0</ele><time>2026-04-03T14:21:36.263Z</time></trkpt><trkpt lat="43.1588" lon="11.3983933"><ele>281.5</ele><time>2026-04-03T14:21:37.263Z</time></trkpt><trkpt lat="43.1588333" lon="11.398565"><ele>282.0</ele><time>2026-04-03T14:21:38.264Z</time></trkpt><trkpt lat="43.1588683" lon="11.3987467"><ele>282.5</ele><time>2026-04-03T14:21:39.264Z</time></trkpt><trkpt lat="43.15891" lon="11.398905"><ele>283.0</ele><time>2026-04-03T14:21:40.263Z</time></trkpt><trkpt lat="43.1589467" lon="11.399075"><ele>283.5</ele><time>2026-04-03T14:21:41.263Z</time></trkpt><trkpt lat="43.1589433" lon="11.3992517"><ele>284.0</ele><time>2026-04-03T14:21:42.264Z</time></trkpt><trkpt lat="43.1589217" lon="11.3994167"><ele>284.0</ele><time>2026-04-03T14:21:43.263Z</time></trkpt><trkpt lat="43.1588733" lon="11.3995417"><ele>284.0</ele><time>2026-04-03T14:21:44.263Z</time></trkpt><trkpt lat="43.1588017" lon="11.3996333"><ele>284.0</ele><time>2026-04-03T14:21:45.263Z</time></trkpt><trkpt lat="43.1587233" lon="11.39969"><ele>284.0</ele><time>2026-04-03T14:21:46.263Z</time></trkpt><trkpt lat="43.1586133" lon="11.3997017"><ele>284.0</ele><time>2026-04-03T14:21:47.263Z</time></trkpt><trkpt lat="43.1584967" lon="11.39969"><ele>283.25</ele><time>2026-04-03T14:21:48.264Z</time></trkpt><trkpt lat="43.1583667" lon="11.3996783"><ele>282.5</ele><time>2026-04-03T14:21:49.264Z</time></trkpt><trkpt lat="43.1582367" lon="11.399675"><ele>281.75</ele><time>2026-04-03T14:21:50.263Z</time></trkpt><trkpt lat="43.1581083" lon="11.39968"><ele>281.0</ele><time>2026-04-03T14:21:51.264Z</time></trkpt><trkpt lat="43.1579917" lon="11.3997217"><ele>283.25</ele><time>2026-04-03T14:21:52.264Z</time></trkpt><trkpt lat="43.1578767" lon="11.39979"><ele>285.5</ele><time>2026-04-03T14:21:53.264Z</time></trkpt><trkpt lat="43.157765" lon="11.3998867"><ele>287.75</ele><time>2026-04-03T14:21:54.263Z</time></trkpt><trkpt lat="43.157655" lon="11.399985"><ele>290.0</ele><time>2026-04-03T14:21:55.263Z</time></trkpt><trkpt lat="43.1575433" lon="11.4000733"><ele>290.0</ele><time>2026-04-03T14:21:56.263Z</time></trkpt><trkpt lat="43.1574267" lon="11.400145"><ele>290.0</ele><time>2026-04-03T14:21:57.263Z</time></trkpt><trkpt lat="43.1573017" lon="11.4001983"><ele>290.0</ele><time>2026-04-03T14:21:58.263Z</time></trkpt><trkpt lat="43.1571717" lon="11.4002067"><ele>290.0</ele><time>2026-04-03T14:21:59.263Z</time></trkpt><trkpt lat="43.1570283" lon="11.4001667"><ele>291.0</ele><time>2026-04-03T14:22:00.263Z</time></trkpt><trkpt lat="43.15689" lon="11.4001083"><ele>292.0</ele><time>2026-04-03T14:22:01.263Z</time></trkpt><trkpt lat="43.1567567" lon="11.40006"><ele>293.0</ele><time>2026-04-03T14:22:02.263Z</time></trkpt><trkpt lat="43.15663" lon="11.4000283"><ele>294.0</ele><time>2026-04-03T14:22:03.263Z</time></trkpt><trkpt lat="43.1565233" lon="11.400015"><ele>296.59999999999997</ele><time>2026-04-03T14:22:04.263Z</time></trkpt><trkpt lat="43.1564333" lon="11.4000383"><ele>299.2</ele><time>2026-04-03T14:22:05.264Z</time></trkpt><trkpt lat="43.1563567" lon="11.4001033"><ele>301.79999999999995</ele><time>2026-04-03T14:22:06.264Z</time></trkpt><trkpt lat="43.1562967" lon="11.4002317"><ele>304.4</ele><time>2026-04-03T14:22:07.263Z</time></trkpt><trkpt lat="43.1562733" lon="11.4003733"><ele>307.0</ele><time>2026-04-03T14:22:08.263Z</time></trkpt><trkpt lat="43.1562917" lon="11.4005233"><ele>307.25</ele><time>2026-04-03T14:22:09.263Z</time></trkpt><trkpt lat="43.1563733" lon="11.40067"><ele>307.5</ele><time>2026-04-03T14:22:10.263Z</time></trkpt><trkpt lat="43.1564717" lon="11.4008433"><ele>307.75</ele><time>2026-04-03T14:22:11.263Z</time></trkpt><trkpt lat="43.1565583" lon="11.4010183"><ele>308.0</ele><time>2026-04-03T14:22:12.263Z</time></trkpt><trkpt lat="43.1566333" lon="11.4011983"><ele>302.25</ele><time>2026-04-03T14:22:13.263Z</time></trkpt><trkpt lat="43.15669" lon="11.401375"><ele>296.5</ele><time>2026-04-03T14:22:14.263Z</time></trkpt><trkpt lat="43.156735" lon="11.4015567"><ele>290.75</ele><time>2026-04-03T14:22:15.263Z</time></trkpt><trkpt lat="43.1567617" lon="11.40175"><ele>285.0</ele><time>2026-04-03T14:22:16.264Z</time></trkpt><trkpt lat="43.1567567" lon="11.401955"><ele>284.3333333333333</ele><time>2026-04-03T14:22:17.263Z</time></trkpt><trkpt lat="43.156735" lon="11.402165"><ele>283.66666666666663</ele><time>2026-04-03T14:22:18.263Z</time></trkpt><trkpt lat="43.1567017" lon="11.4023783"><ele>283.0</ele><time>2026-04-03T14:22:19.263Z</time></trkpt><trkpt lat="43.15665" lon="11.4025983"><ele>283.0</ele><time>2026-04-03T14:22:20.263Z</time></trkpt><trkpt lat="43.1566117" lon="11.4028233"><ele>283.0</ele><time>2026-04-03T14:22:21.263Z</time></trkpt><trkpt lat="43.1565617" lon="11.4030467"><ele>283.0</ele><time>2026-04-03T14:22:22.263Z</time></trkpt><trkpt lat="43.1565017" lon="11.40326"><ele>285.25</ele><time>2026-04-03T14:22:23.263Z</time></trkpt><trkpt lat="43.1564583" lon="11.403465"><ele>287.5</ele><time>2026-04-03T14:22:24.263Z</time></trkpt><trkpt lat="43.1564133" lon="11.4036617"><ele>289.75</ele><time>2026-04-03T14:22:25.263Z</time></trkpt><trkpt lat="43.156405" lon="11.4038567"><ele>292.0</ele><time>2026-04-03T14:22:26.264Z</time></trkpt><trkpt lat="43.1563917" lon="11.4040433"><ele>292.0</ele><time>2026-04-03T14:22:27.263Z</time></trkpt><trkpt lat="43.1563183" lon="11.40424"><ele>292.0</ele><time>2026-04-03T14:22:28.263Z</time></trkpt><trkpt lat="43.1562717" lon="11.4043767"><ele>292.0</ele><time>2026-04-03T14:22:29.264Z</time></trkpt><trkpt lat="43.1561983" lon="11.40451"><ele>292.0</ele><time>2026-04-03T14:22:30.263Z</time></trkpt><trkpt lat="43.1561117" lon="11.404635"><ele>290.25</ele><time>2026-04-03T14:22:31.264Z</time></trkpt><trkpt lat="43.1560117" lon="11.4047367"><ele>288.5</ele><time>2026-04-03T14:22:32.263Z</time></trkpt><trkpt lat="43.1559083" lon="11.404815"><ele>286.75</ele><time>2026-04-03T14:22:33.263Z</time></trkpt><trkpt lat="43.1557617" lon="11.4048617"><ele>285.0</ele><time>2026-04-03T14:22:34.264Z</time></trkpt><trkpt lat="43.1555817" lon="11.4049083"><ele>285.0</ele><time>2026-04-03T14:22:35.263Z</time></trkpt><trkpt lat="43.1554083" lon="11.4049483"><ele>285.0</ele><time>2026-04-03T14:22:36.263Z</time></trkpt><trkpt lat="43.15526" lon="11.4049883"><ele>285.0</ele><time>2026-04-03T14:22:37.263Z</time></trkpt><trkpt lat="43.1551017" lon="11.4050283"><ele>285.0</ele><time>2026-04-03T14:22:38.263Z</time></trkpt><trkpt lat="43.1549717" lon="11.4050867"><ele>285.0</ele><time>2026-04-03T14:22:39.263Z</time></trkpt><trkpt lat="43.1548467" lon="11.405135"><ele>285.0</ele><time>2026-04-03T14:22:40.264Z</time></trkpt><trkpt lat="43.1547167" lon="11.4051833"><ele>285.0</ele><time>2026-04-03T14:22:41.263Z</time></trkpt><trkpt lat="43.1545933" lon="11.4052467"><ele>283.5</ele><time>2026-04-03T14:22:42.263Z</time></trkpt><trkpt lat="43.1544633" lon="11.4053217"><ele>282.0</ele><time>2026-04-03T14:22:43.263Z</time></trkpt><trkpt lat="43.1543333" lon="11.4053967"><ele>280.5</ele><time>2026-04-03T14:22:44.263Z</time></trkpt><trkpt lat="43.1542033" lon="11.4054867"><ele>279.0</ele><time>2026-04-03T14:22:45.263Z</time></trkpt><trkpt lat="43.1540767" lon="11.405565"><ele>281.3333333333333</ele><time>2026-04-03T14:22:46.264Z</time></trkpt><trkpt lat="43.1539333" lon="11.4056233"><ele>283.66666666666663</ele><time>2026-04-03T14:22:47.264Z</time></trkpt><trkpt lat="43.153785" lon="11.4056567"><ele>286.0</ele><time>2026-04-03T14:22:48.263Z</time></trkpt><trkpt lat="43.15363" lon="11.4056633"><ele>286.0</ele><time>2026-04-03T14:22:49.263Z</time></trkpt><trkpt lat="43.15351" lon="11.4056967"><ele>286.0</ele><time>2026-04-03T14:22:50.263Z</time></trkpt><trkpt lat="43.1533667" lon="11.40574"><ele>286.0</ele><time>2026-04-03T14:22:51.263Z</time></trkpt><trkpt lat="43.15322" lon="11.4058283"><ele>286.0</ele><time>2026-04-03T14:22:52.263Z</time></trkpt><trkpt lat="43.1530933" lon="11.405945"><ele>285.0</ele><time>2026-04-03T14:22:53.263Z</time></trkpt><trkpt lat="43.1529667" lon="11.4060767"><ele>284.0</ele><time>2026-04-03T14:22:54.263Z</time></trkpt><trkpt lat="43.1528367" lon="11.406215"><ele>283.0</ele><time>2026-04-03T14:22:55.263Z</time></trkpt><trkpt lat="43.15271" lon="11.40634"><ele>283.0</ele><time>2026-04-03T14:22:56.263Z</time></trkpt><trkpt lat="43.1525617" lon="11.4064433"><ele>283.0</ele><time>2026-04-03T14:22:57.263Z</time></trkpt><trkpt lat="43.1524233" lon="11.4065217"><ele>283.0</ele><time>2026-04-03T14:22:58.263Z</time></trkpt><trkpt lat="43.152285" lon="11.4065717"><ele>283.0</ele><time>2026-04-03T14:22:59.263Z</time></trkpt><trkpt lat="43.1521267" lon="11.4066117"><ele>283.0</ele><time>2026-04-03T14:23:00.264Z</time></trkpt><trkpt lat="43.1519617" lon="11.40663"><ele>283.0</ele><time>2026-04-03T14:23:01.263Z</time></trkpt><trkpt lat="43.1518117" lon="11.40664"><ele>283.0</ele><time>2026-04-03T14:23:02.264Z</time></trkpt><trkpt lat="43.1516733" lon="11.40664"><ele>283.0</ele><time>2026-04-03T14:23:03.264Z</time></trkpt><trkpt lat="43.1515383" lon="11.4066583"><ele>283.0</ele><time>2026-04-03T14:23:04.263Z</time></trkpt><trkpt lat="43.1514233" lon="11.4066917"><ele>283.0</ele><time>2026-04-03T14:23:05.264Z</time></trkpt><trkpt lat="43.1512733" lon="11.4067183"><ele>282.5</ele><time>2026-04-03T14:23:06.263Z</time></trkpt><trkpt lat="43.1511283" lon="11.4067617"><ele>282.0</ele><time>2026-04-03T14:23:07.263Z</time></trkpt><trkpt lat="43.15098" lon="11.4067833"><ele>281.5</ele><time>2026-04-03T14:23:08.263Z</time></trkpt><trkpt lat="43.15084" lon="11.4068033"><ele>281.0</ele><time>2026-04-03T14:23:09.263Z</time></trkpt><trkpt lat="43.15069" lon="11.406805"><ele>281.0</ele><time>2026-04-03T14:23:10.263Z</time></trkpt><trkpt lat="43.150555" lon="11.406775"><ele>281.0</ele><time>2026-04-03T14:23:11.263Z</time></trkpt><trkpt lat="43.15042" lon="11.40674"><ele>281.0</ele><time>2026-04-03T14:23:12.263Z</time></trkpt><trkpt lat="43.150285" lon="11.406695"><ele>281.0</ele><time>2026-04-03T14:23:13.263Z</time></trkpt><trkpt lat="43.1501533" lon="11.4066183"><ele>281.0</ele><time>2026-04-03T14:23:14.263Z</time></trkpt><trkpt lat="43.150045" lon="11.4065133"><ele>281.0</ele><time>2026-04-03T14:23:15.264Z</time></trkpt><trkpt lat="43.1499517" lon="11.4064017"><ele>281.0</ele><time>2026-04-03T14:23:16.263Z</time></trkpt><trkpt lat="43.1498667" lon="11.4062983"><ele>281.0</ele><time>2026-04-03T14:23:17.263Z</time></trkpt><trkpt lat="43.1497683" lon="11.4062267"><ele>282.0</ele><time>2026-04-03T14:23:18.263Z</time></trkpt><trkpt lat="43.149655" lon="11.4062133"><ele>283.0</ele><time>2026-04-03T14:23:19.263Z</time></trkpt><trkpt lat="43.1495467" lon="11.4062517"><ele>284.0</ele><time>2026-04-03T14:23:20.264Z</time></trkpt><trkpt lat="43.1494167" lon="11.4063333"><ele>285.0</ele><time>2026-04-03T14:23:21.263Z</time></trkpt><trkpt lat="43.1493283" lon="11.4064483"><ele>285.0</ele><time>2026-04-03T14:23:22.264Z</time></trkpt><trkpt lat="43.1492367" lon="11.4065817"><ele>285.0</ele><time>2026-04-03T14:23:23.264Z</time></trkpt><trkpt lat="43.149135" lon="11.4066733"><ele>285.0</ele><time>2026-04-03T14:23:24.264Z</time></trkpt><trkpt lat="43.1490167" lon="11.40673"><ele>285.0</ele><time>2026-04-03T14:23:25.263Z</time></trkpt><trkpt lat="43.1488817" lon="11.40676"><ele>286.0</ele><time>2026-04-03T14:23:26.263Z</time></trkpt><trkpt lat="43.148745" lon="11.4067917"><ele>287.0</ele><time>2026-04-03T14:23:27.264Z</time></trkpt><trkpt lat="43.1486183" lon="11.4068367"><ele>288.0</ele><time>2026-04-03T14:23:28.263Z</time></trkpt><trkpt lat="43.1485033" lon="11.4069167"><ele>289.0</ele><time>2026-04-03T14:23:29.263Z</time></trkpt><trkpt lat="43.1483967" lon="11.4070283"><ele>289.75</ele><time>2026-04-03T14:23:30.263Z</time></trkpt><trkpt lat="43.1483033" lon="11.4071683"><ele>290.5</ele><time>2026-04-03T14:23:31.263Z</time></trkpt><trkpt lat="43.1482217" lon="11.407315"><ele>291.25</ele><time>2026-04-03T14:23:32.264Z</time></trkpt><trkpt lat="43.1481533" lon="11.407485"><ele>292.0</ele><time>2026-04-03T14:23:33.264Z</time></trkpt><trkpt lat="43.1480867" lon="11.4076483"><ele>292.0</ele><time>2026-04-03T14:23:34.263Z</time></trkpt><trkpt lat="43.1480317" lon="11.4078083"><ele>292.0</ele><time>2026-04-03T14:23:35.263Z</time></trkpt><trkpt lat="43.1479717" lon="11.4079717"><ele>292.0</ele><time>2026-04-03T14:23:36.263Z</time></trkpt><trkpt lat="43.1479133" lon="11.408145"><ele>292.0</ele><time>2026-04-03T14:23:37.263Z</time></trkpt><trkpt lat="43.14787" lon="11.4083283"><ele>290.5</ele><time>2026-04-03T14:23:38.263Z</time></trkpt><trkpt lat="43.14784" lon="11.4085317"><ele>289.0</ele><time>2026-04-03T14:23:39.263Z</time></trkpt><trkpt lat="43.1478183" lon="11.4087317"><ele>287.5</ele><time>2026-04-03T14:23:40.263Z</time></trkpt><trkpt lat="43.1477917" lon="11.4089183"><ele>286.0</ele><time>2026-04-03T14:23:41.264Z</time></trkpt><trkpt lat="43.14777" lon="11.40911"><ele>284.5</ele><time>2026-04-03T14:23:42.263Z</time></trkpt><trkpt lat="43.14774" lon="11.409305"><ele>283.0</ele><time>2026-04-03T14:23:43.264Z</time></trkpt><trkpt lat="43.147695" lon="11.4095"><ele>281.5</ele><time>2026-04-03T14:23:44.263Z</time></trkpt><trkpt lat="43.1476733" lon="11.4096833"><ele>280.0</ele><time>2026-04-03T14:23:45.263Z</time></trkpt><trkpt lat="43.14765" lon="11.4098617"><ele>278.25</ele><time>2026-04-03T14:23:46.263Z</time></trkpt><trkpt lat="43.1476167" lon="11.41005"><ele>276.5</ele><time>2026-04-03T14:23:47.264Z</time></trkpt><trkpt lat="43.1475683" lon="11.4102333"><ele>274.75</ele><time>2026-04-03T14:23:48.264Z</time></trkpt><trkpt lat="43.1475033" lon="11.4103867"><ele>273.0</ele><time>2026-04-03T14:23:49.263Z</time></trkpt><trkpt lat="43.1474083" lon="11.4105083"><ele>271.25</ele><time>2026-04-03T14:23:50.264Z</time></trkpt><trkpt lat="43.147295" lon="11.410615"><ele>269.5</ele><time>2026-04-03T14:23:51.263Z</time></trkpt><trkpt lat="43.1471567" lon="11.410695"><ele>267.75</ele><time>2026-04-03T14:23:52.263Z</time></trkpt><trkpt lat="43.1470167" lon="11.4107667"><ele>266.0</ele><time>2026-04-03T14:23:53.263Z</time></trkpt><trkpt lat="43.146875" lon="11.4108517"><ele>266.0</ele><time>2026-04-03T14:23:54.263Z</time></trkpt><trkpt lat="43.146755" lon="11.4109733"><ele>266.0</ele><time>2026-04-03T14:23:55.263Z</time></trkpt><trkpt lat="43.1466467" lon="11.4111233"><ele>266.0</ele><time>2026-04-03T14:23:56.263Z</time></trkpt><trkpt lat="43.1465467" lon="11.4112817"><ele>264.33333333333337</ele><time>2026-04-03T14:23:57.264Z</time></trkpt><trkpt lat="43.14644" lon="11.41145"><ele>262.6666666666667</ele><time>2026-04-03T14:23:58.263Z</time></trkpt><trkpt lat="43.1463417" lon="11.4116133"><ele>261.0</ele><time>2026-04-03T14:23:59.263Z</time></trkpt><trkpt lat="43.146255" lon="11.4117817"><ele>261.0</ele><time>2026-04-03T14:24:00.263Z</time></trkpt><trkpt lat="43.1461583" lon="11.4119467"><ele>261.0</ele><time>2026-04-03T14:24:01.263Z</time></trkpt><trkpt lat="43.1460817" lon="11.412115"><ele>261.0</ele><time>2026-04-03T14:24:02.263Z</time></trkpt><trkpt lat="43.1460117" lon="11.4122967"><ele>261.0</ele><time>2026-04-03T14:24:03.263Z</time></trkpt><trkpt lat="43.1459467" lon="11.412515"><ele>259.0</ele><time>2026-04-03T14:24:04.264Z</time></trkpt><trkpt lat="43.1459033" lon="11.4127067"><ele>257.0</ele><time>2026-04-03T14:24:05.264Z</time></trkpt><trkpt lat="43.1458567" lon="11.4129017"><ele>255.0</ele><time>2026-04-03T14:24:06.263Z</time></trkpt><trkpt lat="43.1458033" lon="11.4130983"><ele>253.0</ele><time>2026-04-03T14:24:07.264Z</time></trkpt><trkpt lat="43.1457283" lon="11.4132883"><ele>251.25</ele><time>2026-04-03T14:24:08.263Z</time></trkpt><trkpt lat="43.1456433" lon="11.4134617"><ele>249.5</ele><time>2026-04-03T14:24:09.263Z</time></trkpt><trkpt lat="43.14555" lon="11.41362"><ele>247.75</ele><time>2026-04-03T14:24:10.263Z</time></trkpt><trkpt lat="43.14545" lon="11.4137633"><ele>246.0</ele><time>2026-04-03T14:24:11.263Z</time></trkpt><trkpt lat="43.145355" lon="11.4139017"><ele>245.0</ele><time>2026-04-03T14:24:12.263Z</time></trkpt><trkpt lat="43.1452783" lon="11.4140267"><ele>244.0</ele><time>2026-04-03T14:24:13.264Z</time></trkpt><trkpt lat="43.14522" lon="11.414165"><ele>243.0</ele><time>2026-04-03T14:24:14.264Z</time></trkpt><trkpt lat="43.1451833" lon="11.414315"><ele>242.0</ele><time>2026-04-03T14:24:15.264Z</time></trkpt><trkpt lat="43.1451967" lon="11.4144817"><ele>240.5</ele><time>2026-04-03T14:24:16.263Z</time></trkpt><trkpt lat="43.1452317" lon="11.4146717"><ele>239.0</ele><time>2026-04-03T14:24:17.264Z</time></trkpt><trkpt lat="43.1452967" lon="11.41485"><ele>237.5</ele><time>2026-04-03T14:24:18.263Z</time></trkpt><trkpt lat="43.1453917" lon="11.4150033"><ele>236.0</ele><time>2026-04-03T14:24:19.263Z</time></trkpt><trkpt lat="43.145495" lon="11.4151567"><ele>236.0</ele><time>2026-04-03T14:24:20.263Z</time></trkpt><trkpt lat="43.14559" lon="11.4153"><ele>236.0</ele><time>2026-04-03T14:24:21.263Z</time></trkpt><trkpt lat="43.1456833" lon="11.4154583"><ele>236.0</ele><time>2026-04-03T14:24:22.263Z</time></trkpt><trkpt lat="43.1457517" lon="11.4156383"><ele>236.0</ele><time>2026-04-03T14:24:23.263Z</time></trkpt><trkpt lat="43.1457983" lon="11.4158233"><ele>236.0</ele><time>2026-04-03T14:24:24.263Z</time></trkpt><trkpt lat="43.145815" lon="11.41601"><ele>236.0</ele><time>2026-04-03T14:24:25.263Z</time></trkpt><trkpt lat="43.145815" lon="11.41621"><ele>236.0</ele><time>2026-04-03T14:24:26.263Z</time></trkpt><trkpt lat="43.1457917" lon="11.416415"><ele>236.0</ele><time>2026-04-03T14:24:27.263Z</time></trkpt><trkpt lat="43.14577" lon="11.4166217"><ele>236.0</ele><time>2026-04-03T14:24:28.263Z</time></trkpt><trkpt lat="43.1457433" lon="11.4168367"><ele>236.0</ele><time>2026-04-03T14:24:29.264Z</time></trkpt><trkpt lat="43.1457117" lon="11.4170233"><ele>236.0</ele><time>2026-04-03T14:24:30.263Z</time></trkpt><trkpt lat="43.1456767" lon="11.4172083"><ele>236.0</ele><time>2026-04-03T14:24:31.263Z</time></trkpt><trkpt lat="43.1456317" lon="11.4174067"><ele>229.66666666666669</ele><time>2026-04-03T14:24:32.263Z</time></trkpt><trkpt lat="43.1455717" lon="11.41759"><ele>223.33333333333331</ele><time>2026-04-03T14:24:33.264Z</time></trkpt><trkpt lat="43.1455067" lon="11.417795"><ele>217.0</ele><time>2026-04-03T14:24:34.263Z</time></trkpt><trkpt lat="43.1454317" lon="11.4179967"><ele>216.25</ele><time>2026-04-03T14:24:35.263Z</time></trkpt><trkpt lat="43.1453817" lon="11.4181917"><ele>215.5</ele><time>2026-04-03T14:24:36.264Z</time></trkpt><trkpt lat="43.1453583" lon="11.4183833"><ele>214.75</ele><time>2026-04-03T14:24:37.264Z</time></trkpt><trkpt lat="43.1453467" lon="11.41858"><ele>214.0</ele><time>2026-04-03T14:24:38.264Z</time></trkpt><trkpt lat="43.1453317" lon="11.4187767"><ele>213.75</ele><time>2026-04-03T14:24:39.263Z</time></trkpt><trkpt lat="43.14533" lon="11.4189567"><ele>213.5</ele><time>2026-04-03T14:24:40.263Z</time></trkpt><trkpt lat="43.1453167" lon="11.41913"><ele>213.25</ele><time>2026-04-03T14:24:41.263Z</time></trkpt><trkpt lat="43.1452883" lon="11.4193133"><ele>213.0</ele><time>2026-04-03T14:24:42.262Z</time></trkpt><trkpt lat="43.1452533" lon="11.4195"><ele>212.25</ele><time>2026-04-03T14:24:43.263Z</time></trkpt><trkpt lat="43.1452183" lon="11.4196733"><ele>211.5</ele><time>2026-04-03T14:24:44.263Z</time></trkpt><trkpt lat="43.1451833" lon="11.41984"><ele>210.75</ele><time>2026-04-03T14:24:45.263Z</time></trkpt><trkpt lat="43.145155" lon="11.42001"><ele>210.0</ele><time>2026-04-03T14:24:46.263Z</time></trkpt><trkpt lat="43.14515" lon="11.4201717"><ele>210.0</ele><time>2026-04-03T14:24:47.262Z</time></trkpt><trkpt lat="43.1451583" lon="11.420345"><ele>210.0</ele><time>2026-04-03T14:24:48.263Z</time></trkpt><trkpt lat="43.145165" lon="11.420525"><ele>210.0</ele><time>2026-04-03T14:24:49.262Z</time></trkpt><trkpt lat="43.1451633" lon="11.4206967"><ele>210.0</ele><time>2026-04-03T14:24:50.263Z</time></trkpt><trkpt lat="43.1451717" lon="11.42086"><ele>209.4</ele><time>2026-04-03T14:24:51.262Z</time></trkpt><trkpt lat="43.14517" lon="11.4210133"><ele>208.8</ele><time>2026-04-03T14:24:52.262Z</time></trkpt><trkpt lat="43.145185" lon="11.4211617"><ele>208.2</ele><time>2026-04-03T14:24:53.262Z</time></trkpt><trkpt lat="43.1452133" lon="11.4212967"><ele>207.6</ele><time>2026-04-03T14:24:54.263Z</time></trkpt><trkpt lat="43.14525" lon="11.4214333"><ele>207.0</ele><time>2026-04-03T14:24:55.262Z</time></trkpt><trkpt lat="43.1452833" lon="11.42157"><ele>206.75</ele><time>2026-04-03T14:24:56.262Z</time></trkpt><trkpt lat="43.14533" lon="11.4217167"><ele>206.5</ele><time>2026-04-03T14:24:57.262Z</time></trkpt><trkpt lat="43.1453867" lon="11.421855"><ele>206.25</ele><time>2026-04-03T14:24:58.262Z</time></trkpt><trkpt lat="43.1454317" lon="11.4220017"><ele>206.0</ele><time>2026-04-03T14:24:59.262Z</time></trkpt><trkpt lat="43.1454767" lon="11.422145"><ele>206.60000000000002</ele><time>2026-04-03T14:25:00.263Z</time></trkpt><trkpt lat="43.14553" lon="11.422285"><ele>207.2</ele><time>2026-04-03T14:25:01.262Z</time></trkpt><trkpt lat="43.14558" lon="11.4224183"><ele>207.8</ele><time>2026-04-03T14:25:02.263Z</time></trkpt><trkpt lat="43.1456183" lon="11.422545"><ele>208.39999999999998</ele><time>2026-04-03T14:25:03.263Z</time></trkpt><trkpt lat="43.1456517" lon="11.4226483"><ele>209.0</ele><time>2026-04-03T14:25:04.262Z</time></trkpt><trkpt lat="43.14569" lon="11.4227583"><ele>208.6</ele><time>2026-04-03T14:25:05.262Z</time></trkpt><trkpt lat="43.1457333" lon="11.4228783"><ele>208.2</ele><time>2026-04-03T14:25:06.262Z</time></trkpt><trkpt lat="43.1457767" lon="11.42301"><ele>207.79999999999998</ele><time>2026-04-03T14:25:07.263Z</time></trkpt><trkpt lat="43.14582" lon="11.4231383"><ele>207.39999999999998</ele><time>2026-04-03T14:25:08.262Z</time></trkpt><trkpt lat="43.1458667" lon="11.4232733"><ele>207.0</ele><time>2026-04-03T14:25:09.262Z</time></trkpt><trkpt lat="43.145905" lon="11.4234017"><ele>207.0</ele><time>2026-04-03T14:25:10.263Z</time></trkpt><trkpt lat="43.1459283" lon="11.423535"><ele>207.0</ele><time>2026-04-03T14:25:11.262Z</time></trkpt><trkpt lat="43.14595" lon="11.4236717"><ele>207.0</ele><time>2026-04-03T14:25:12.262Z</time></trkpt><trkpt lat="43.1459683" lon="11.423795"><ele>207.0</ele><time>2026-04-03T14:25:13.263Z</time></trkpt><trkpt lat="43.145965" lon="11.4239217"><ele>207.0</ele><time>2026-04-03T14:25:14.262Z</time></trkpt><trkpt lat="43.1459633" lon="11.424025"><ele>206.83333333333334</ele><time>2026-04-03T14:25:15.263Z</time></trkpt><trkpt lat="43.145945" lon="11.4241083"><ele>206.66666666666669</ele><time>2026-04-03T14:25:16.262Z</time></trkpt><trkpt lat="43.145905" lon="11.4242233"><ele>206.5</ele><time>2026-04-03T14:25:18.262Z</time></trkpt><trkpt lat="43.1458583" lon="11.42434"><ele>206.33333333333334</ele><time>2026-04-03T14:27:37.262Z</time></trkpt><trkpt lat="43.14582" lon="11.424465"><ele>206.16666666666669</ele><time>2026-04-03T14:27:39.263Z</time></trkpt><trkpt lat="43.1457917" lon="11.42455"><ele>206.0</ele><time>2026-04-03T14:27:40.262Z</time></trkpt><trkpt lat="43.1457483" lon="11.4246317"><ele>207.99999999999997</ele><time>2026-04-03T14:27:41.262Z</time></trkpt><trkpt lat="43.1456983" lon="11.4247183"><ele>210.0</ele><time>2026-04-03T14:27:42.262Z</time></trkpt><trkpt lat="43.145655" lon="11.4248"><ele>212.0</ele><time>2026-04-03T14:27:43.263Z</time></trkpt><trkpt lat="43.1456183" lon="11.4248817"><ele>214.0</ele><time>2026-04-03T14:27:44.262Z</time></trkpt><trkpt lat="43.1455967" lon="11.424965"><ele>216.0</ele><time>2026-04-03T14:27:45.263Z</time></trkpt><trkpt lat="43.1455833" lon="11.4250583"><ele>217.99999999999997</ele><time>2026-04-03T14:27:46.262Z</time></trkpt><trkpt lat="43.14559" lon="11.4251483"><ele>220.0</ele><time>2026-04-03T14:27:47.262Z</time></trkpt><trkpt lat="43.1456567" lon="11.4252967"><ele>218.6</ele><time>2026-04-03T14:27:49.262Z</time></trkpt><trkpt lat="43.1457233" lon="11.4253583"><ele>217.2</ele><time>2026-04-03T14:27:50.262Z</time></trkpt><trkpt lat="43.1458017" lon="11.425405"><ele>215.8</ele><time>2026-04-03T14:27:51.262Z</time></trkpt><trkpt lat="43.1458717" lon="11.4254683"><ele>214.4</ele><time>2026-04-03T14:27:52.263Z</time></trkpt><trkpt lat="43.1459633" lon="11.425535"><ele>213.0</ele><time>2026-04-03T14:27:53.263Z</time></trkpt><trkpt lat="43.14607" lon="11.4256133"><ele>213.0</ele><time>2026-04-03T14:27:54.263Z</time></trkpt><trkpt lat="43.146165" lon="11.42572"><ele>213.0</ele><time>2026-04-03T14:27:55.262Z</time></trkpt><trkpt lat="43.1462667" lon="11.4258417"><ele>213.0</ele><time>2026-04-03T14:27:56.263Z</time></trkpt><trkpt lat="43.146385" lon="11.425965"><ele>213.0</ele><time>2026-04-03T14:27:57.262Z</time></trkpt><trkpt lat="43.146515" lon="11.4260817"><ele>212.66666666666669</ele><time>2026-04-03T14:27:58.262Z</time></trkpt><trkpt lat="43.1466633" lon="11.4261983"><ele>212.33333333333334</ele><time>2026-04-03T14:27:59.262Z</time></trkpt><trkpt lat="43.1467917" lon="11.4262967"><ele>212.0</ele><time>2026-04-03T14:28:00.262Z</time></trkpt><trkpt lat="43.1469167" lon="11.42639"><ele>212.0</ele><time>2026-04-03T14:28:01.262Z</time></trkpt><trkpt lat="43.1470417" lon="11.4264783"><ele>212.0</ele><time>2026-04-03T14:28:02.262Z</time></trkpt><trkpt lat="43.1471633" lon="11.4265833"><ele>212.0</ele><time>2026-04-03T14:28:03.262Z</time></trkpt><trkpt lat="43.14728" lon="11.4267083"><ele>212.0</ele><time>2026-04-03T14:28:04.262Z</time></trkpt><trkpt lat="43.1473833" lon="11.4268417"><ele>211.0</ele><time>2026-04-03T14:28:05.263Z</time></trkpt><trkpt lat="43.1474833" lon="11.4269667"><ele>210.0</ele><time>2026-04-03T14:28:06.263Z</time></trkpt><trkpt lat="43.1476" lon="11.4270717"><ele>209.0</ele><time>2026-04-03T14:28:07.262Z</time></trkpt><trkpt lat="43.14772" lon="11.427155"><ele>208.0</ele><time>2026-04-03T14:28:08.263Z</time></trkpt><trkpt lat="43.14785" lon="11.4272183"><ele>208.0</ele><time>2026-04-03T14:28:09.262Z</time></trkpt><trkpt lat="43.1479733" lon="11.4272517"><ele>208.0</ele><time>2026-04-03T14:28:10.262Z</time></trkpt><trkpt lat="43.1480933" lon="11.4272967"><ele>208.0</ele><time>2026-04-03T14:28:11.262Z</time></trkpt><trkpt lat="43.1482217" lon="11.4273567"><ele>208.0</ele><time>2026-04-03T14:28:12.262Z</time></trkpt><trkpt lat="43.14835" lon="11.42742"><ele>207.25</ele><time>2026-04-03T14:28:13.263Z</time></trkpt><trkpt lat="43.1484767" lon="11.4274833"><ele>206.5</ele><time>2026-04-03T14:28:14.262Z</time></trkpt><trkpt lat="43.148615" lon="11.4275467"><ele>205.75</ele><time>2026-04-03T14:28:15.262Z</time></trkpt><trkpt lat="43.14875" lon="11.4276217"><ele>205.0</ele><time>2026-04-03T14:28:16.262Z</time></trkpt><trkpt lat="43.1488883" lon="11.42769"><ele>205.0</ele><time>2026-04-03T14:28:17.262Z</time></trkpt><trkpt lat="43.1490267" lon="11.4277633"><ele>205.0</ele><time>2026-04-03T14:28:18.262Z</time></trkpt><trkpt lat="43.1491767" lon="11.42786"><ele>205.0</ele><time>2026-04-03T14:28:19.262Z</time></trkpt><trkpt lat="43.1492967" lon="11.427945"><ele>205.0</ele><time>2026-04-03T14:28:20.262Z</time></trkpt><trkpt lat="43.14942" lon="11.4280667"><ele>203.25</ele><time>2026-04-03T14:28:21.263Z</time></trkpt><trkpt lat="43.1495417" lon="11.428195"><ele>201.5</ele><time>2026-04-03T14:28:22.262Z</time></trkpt><trkpt lat="43.149665" lon="11.4283183"><ele>199.75</ele><time>2026-04-03T14:28:23.262Z</time></trkpt><trkpt lat="43.149775" lon="11.42844"><ele>198.0</ele><time>2026-04-03T14:28:24.262Z</time></trkpt><trkpt lat="43.1498933" lon="11.4285567"><ele>198.0</ele><time>2026-04-03T14:28:25.262Z</time></trkpt><trkpt lat="43.1500017" lon="11.428675"><ele>198.0</ele><time>2026-04-03T14:28:26.262Z</time></trkpt><trkpt lat="43.1500917" lon="11.4288283"><ele>198.0</ele><time>2026-04-03T14:28:27.262Z</time></trkpt><trkpt lat="43.15018" lon="11.428995"><ele>198.0</ele><time>2026-04-03T14:28:28.263Z</time></trkpt><trkpt lat="43.150275" lon="11.4291567"><ele>195.75</ele><time>2026-04-03T14:28:29.262Z</time></trkpt><trkpt lat="43.1503533" lon="11.4293083"><ele>193.5</ele><time>2026-04-03T14:28:30.262Z</time></trkpt><trkpt lat="43.1504417" lon="11.4294417"><ele>191.25</ele><time>2026-04-03T14:28:31.262Z</time></trkpt><trkpt lat="43.1505267" lon="11.429565"><ele>189.0</ele><time>2026-04-03T14:28:32.262Z</time></trkpt><trkpt lat="43.150605" lon="11.42965"><ele>189.16666666666666</ele><time>2026-04-03T14:28:33.262Z</time></trkpt><trkpt lat="43.1506917" lon="11.4297283"><ele>189.33333333333334</ele><time>2026-04-03T14:28:34.262Z</time></trkpt><trkpt lat="43.15077" lon="11.4298083"><ele>189.5</ele><time>2026-04-03T14:28:35.262Z</time></trkpt><trkpt lat="43.1508417" lon="11.4298633"><ele>189.66666666666669</ele><time>2026-04-03T14:28:36.263Z</time></trkpt><trkpt lat="43.1509067" lon="11.4299133"><ele>189.83333333333334</ele><time>2026-04-03T14:28:37.262Z</time></trkpt><trkpt lat="43.1509683" lon="11.4299683"><ele>190.0</ele><time>2026-04-03T14:28:38.262Z</time></trkpt><trkpt lat="43.1510283" lon="11.4300333"><ele>190.0</ele><time>2026-04-03T14:28:39.263Z</time></trkpt><trkpt lat="43.151085" lon="11.4301067"><ele>190.0</ele><time>2026-04-03T14:28:40.262Z</time></trkpt><trkpt lat="43.1511367" lon="11.4301917"><ele>190.0</ele><time>2026-04-03T14:28:41.262Z</time></trkpt><trkpt lat="43.1511817" lon="11.4302917"><ele>190.0</ele><time>2026-04-03T14:28:42.263Z</time></trkpt><trkpt lat="43.1512033" lon="11.4304183"><ele>190.0</ele><time>2026-04-03T14:28:43.262Z</time></trkpt><trkpt lat="43.1512033" lon="11.4305467"><ele>190.0</ele><time>2026-04-03T14:28:44.262Z</time></trkpt><trkpt lat="43.151195" lon="11.4306833"><ele>188.6</ele><time>2026-04-03T14:28:45.262Z</time></trkpt><trkpt lat="43.1511733" lon="11.430825"><ele>187.2</ele><time>2026-04-03T14:28:46.263Z</time></trkpt><trkpt lat="43.1511483" lon="11.430965"><ele>185.8</ele><time>2026-04-03T14:28:47.262Z</time></trkpt><trkpt lat="43.151125" lon="11.431115"><ele>184.4</ele><time>2026-04-03T14:28:48.263Z</time></trkpt><trkpt lat="43.1511233" lon="11.43127"><ele>183.0</ele><time>2026-04-03T14:28:49.262Z</time></trkpt><trkpt lat="43.1511283" lon="11.4314267"><ele>181.5</ele><time>2026-04-03T14:28:50.262Z</time></trkpt><trkpt lat="43.1511383" lon="11.431585"><ele>180.0</ele><time>2026-04-03T14:28:51.262Z</time></trkpt><trkpt lat="43.151155" lon="11.43175"><ele>178.5</ele><time>2026-04-03T14:28:52.263Z</time></trkpt><trkpt lat="43.1511683" lon="11.4319133"><ele>177.0</ele><time>2026-04-03T14:28:53.262Z</time></trkpt><trkpt lat="43.15118" lon="11.432065"><ele>176.39999999999998</ele><time>2026-04-03T14:28:54.262Z</time></trkpt><trkpt lat="43.15118" lon="11.4322017"><ele>175.79999999999998</ele><time>2026-04-03T14:28:55.262Z</time></trkpt><trkpt lat="43.1511717" lon="11.43234"><ele>175.2</ele><time>2026-04-03T14:28:56.262Z</time></trkpt><trkpt lat="43.1511667" lon="11.432485"><ele>174.6</ele><time>2026-04-03T14:28:57.262Z</time></trkpt><trkpt lat="43.1511817" lon="11.43263"><ele>174.0</ele><time>2026-04-03T14:28:58.262Z</time></trkpt><trkpt lat="43.15122" lon="11.432765"><ele>174.0</ele><time>2026-04-03T14:28:59.262Z</time></trkpt><trkpt lat="43.15128" lon="11.4328917"><ele>174.0</ele><time>2026-04-03T14:29:00.262Z</time></trkpt><trkpt lat="43.1513583" lon="11.43302"><ele>174.0</ele><time>2026-04-03T14:29:01.263Z</time></trkpt><trkpt lat="43.15147" lon="11.433165"><ele>174.0</ele><time>2026-04-03T14:29:02.263Z</time></trkpt><trkpt lat="43.151575" lon="11.4332933"><ele>174.79999999999998</ele><time>2026-04-03T14:29:03.262Z</time></trkpt><trkpt lat="43.151685" lon="11.433395"><ele>175.6</ele><time>2026-04-03T14:29:04.262Z</time></trkpt><trkpt lat="43.1517633" lon="11.4334767"><ele>176.4</ele><time>2026-04-03T14:29:05.263Z</time></trkpt><trkpt lat="43.15185" lon="11.433535"><ele>177.2</ele><time>2026-04-03T14:29:06.262Z</time></trkpt><trkpt lat="43.15194" lon="11.4335733"><ele>178.0</ele><time>2026-04-03T14:29:07.262Z</time></trkpt><trkpt lat="43.1520317" lon="11.4335667"><ele>178.0</ele><time>2026-04-03T14:29:08.262Z</time></trkpt><trkpt lat="43.15212" lon="11.4335133"><ele>178.0</ele><time>2026-04-03T14:29:09.262Z</time></trkpt><trkpt lat="43.1522033" lon="11.433435"><ele>178.0</ele><time>2026-04-03T14:29:10.262Z</time></trkpt><trkpt lat="43.1522867" lon="11.4333367"><ele>178.0</ele><time>2026-04-03T14:29:11.262Z</time></trkpt><trkpt lat="43.1523667" lon="11.4332183"><ele>178.0</ele><time>2026-04-03T14:29:12.262Z</time></trkpt><trkpt lat="43.1524367" lon="11.4331167"><ele>176.83333333333334</ele><time>2026-04-03T14:29:13.263Z</time></trkpt><trkpt lat="43.1525" lon="11.4330533"><ele>175.66666666666669</ele><time>2026-04-03T14:29:14.262Z</time></trkpt><trkpt lat="43.152565" lon="11.4330117"><ele>174.5</ele><time>2026-04-03T14:29:15.262Z</time></trkpt><trkpt lat="43.1526583" lon="11.4330117"><ele>173.33333333333334</ele><time>2026-04-03T14:29:16.262Z</time></trkpt><trkpt lat="43.1527433" lon="11.433065"><ele>172.16666666666666</ele><time>2026-04-03T14:29:17.262Z</time></trkpt><trkpt lat="43.152805" lon="11.43314"><ele>171.0</ele><time>2026-04-03T14:29:18.262Z</time></trkpt><trkpt lat="43.1528167" lon="11.43324"><ele>171.0</ele><time>2026-04-03T14:29:19.262Z</time></trkpt><trkpt lat="43.1528067" lon="11.4333417"><ele>171.0</ele><time>2026-04-03T14:29:20.262Z</time></trkpt><trkpt lat="43.1527683" lon="11.43343"><ele>171.0</ele><time>2026-04-03T14:29:21.263Z</time></trkpt><trkpt lat="43.1527033" lon="11.43352"><ele>171.0</ele><time>2026-04-03T14:29:22.262Z</time></trkpt><trkpt lat="43.1526283" lon="11.4336117"><ele>171.0</ele><time>2026-04-03T14:29:23.262Z</time></trkpt><trkpt lat="43.1525217" lon="11.4337117"><ele>170.4</ele><time>2026-04-03T14:29:24.262Z</time></trkpt><trkpt lat="43.1524283" lon="11.4338117"><ele>169.8</ele><time>2026-04-03T14:29:25.262Z</time></trkpt><trkpt lat="43.1523417" lon="11.4339033"><ele>169.20000000000002</ele><time>2026-04-03T14:29:26.262Z</time></trkpt><trkpt lat="43.1522567" lon="11.4339983"><ele>168.60000000000002</ele><time>2026-04-03T14:29:27.262Z</time></trkpt><trkpt lat="43.152175" lon="11.4340867"><ele>168.0</ele><time>2026-04-03T14:29:28.262Z</time></trkpt><trkpt lat="43.1520883" lon="11.4342"><ele>168.0</ele><time>2026-04-03T14:29:29.263Z</time></trkpt><trkpt lat="43.151995" lon="11.4343117"><ele>168.0</ele><time>2026-04-03T14:29:30.263Z</time></trkpt><trkpt lat="43.1519117" lon="11.43442"><ele>168.0</ele><time>2026-04-03T14:29:31.262Z</time></trkpt><trkpt lat="43.1518233" lon="11.434525"><ele>168.0</ele><time>2026-04-03T14:29:32.263Z</time></trkpt><trkpt lat="43.1517483" lon="11.4346283"><ele>165.75</ele><time>2026-04-03T14:29:33.262Z</time></trkpt><trkpt lat="43.1516767" lon="11.4347517"><ele>163.5</ele><time>2026-04-03T14:29:34.262Z</time></trkpt><trkpt lat="43.1516133" lon="11.4349"><ele>161.25</ele><time>2026-04-03T14:29:35.262Z</time></trkpt><trkpt lat="43.151585" lon="11.4350733"><ele>159.0</ele><time>2026-04-03T14:29:36.262Z</time></trkpt><trkpt lat="43.1515817" lon="11.435255"><ele>159.0</ele><time>2026-04-03T14:29:37.262Z</time></trkpt><trkpt lat="43.1516067" lon="11.43543"><ele>159.0</ele><time>2026-04-03T14:29:38.262Z</time></trkpt><trkpt lat="43.1516483" lon="11.43564"><ele>159.0</ele><time>2026-04-03T14:29:39.263Z</time></trkpt><trkpt lat="43.1516967" lon="11.435895"><ele>158.33333333333334</ele><time>2026-04-03T14:29:40.263Z</time></trkpt><trkpt lat="43.1517467" lon="11.4361817"><ele>157.66666666666669</ele><time>2026-04-03T14:29:41.263Z</time></trkpt><trkpt lat="43.1517917" lon="11.43649"><ele>157.0</ele><time>2026-04-03T14:29:42.263Z</time></trkpt><trkpt lat="43.151835" lon="11.436775"><ele>156.66666666666669</ele><time>2026-04-03T14:29:43.262Z</time></trkpt><trkpt lat="43.1518783" lon="11.4370417"><ele>156.33333333333334</ele><time>2026-04-03T14:29:44.262Z</time></trkpt><trkpt lat="43.1519133" lon="11.43728"><ele>156.0</ele><time>2026-04-03T14:29:45.262Z</time></trkpt><trkpt lat="43.1519333" lon="11.4375067"><ele>156.0</ele><time>2026-04-03T14:29:46.262Z</time></trkpt><trkpt lat="43.151965" lon="11.4377017"><ele>156.0</ele><time>2026-04-03T14:29:47.262Z</time></trkpt><trkpt lat="43.1519983" lon="11.43788"><ele>156.0</ele><time>2026-04-03T14:29:48.262Z</time></trkpt><trkpt lat="43.152025" lon="11.4380467"><ele>156.0</ele><time>2026-04-03T14:29:49.263Z</time></trkpt><trkpt lat="43.1520483" lon="11.4382033"><ele>157.25</ele><time>2026-04-03T14:29:50.262Z</time></trkpt><trkpt lat="43.1520467" lon="11.4383583"><ele>158.5</ele><time>2026-04-03T14:29:51.262Z</time></trkpt><trkpt lat="43.1520283" lon="11.4385167"><ele>159.75</ele><time>2026-04-03T14:29:52.263Z</time></trkpt><trkpt lat="43.152" lon="11.43866"><ele>161.0</ele><time>2026-04-03T14:29:53.262Z</time></trkpt><trkpt lat="43.1519367" lon="11.43881"><ele>161.75</ele><time>2026-04-03T14:29:54.262Z</time></trkpt><trkpt lat="43.1518267" lon="11.43898"><ele>162.5</ele><time>2026-04-03T14:29:55.262Z</time></trkpt><trkpt lat="43.1517467" lon="11.4391333"><ele>163.25</ele><time>2026-04-03T14:29:56.262Z</time></trkpt><trkpt lat="43.1516633" lon="11.439265"><ele>164.0</ele><time>2026-04-03T14:29:57.262Z</time></trkpt><trkpt lat="43.1515667" lon="11.4394133"><ele>163.5</ele><time>2026-04-03T14:29:58.262Z</time></trkpt><trkpt lat="43.151475" lon="11.4395617"><ele>163.0</ele><time>2026-04-03T14:29:59.262Z</time></trkpt><trkpt lat="43.1513833" lon="11.4397017"><ele>162.5</ele><time>2026-04-03T14:30:00.262Z</time></trkpt><trkpt lat="43.1513033" lon="11.4398533"><ele>162.0</ele><time>2026-04-03T14:30:01.262Z</time></trkpt><trkpt lat="43.1512233" lon="11.44001"><ele>162.0</ele><time>2026-04-03T14:30:02.262Z</time></trkpt><trkpt lat="43.1511567" lon="11.44017"><ele>162.0</ele><time>2026-04-03T14:30:03.262Z</time></trkpt><trkpt lat="43.1510933" lon="11.4403333"><ele>162.0</ele><time>2026-04-03T14:30:04.262Z</time></trkpt><trkpt lat="43.1510333" lon="11.440485"><ele>162.0</ele><time>2026-04-03T14:30:05.262Z</time></trkpt><trkpt lat="43.1509583" lon="11.4406133"><ele>162.25</ele><time>2026-04-03T14:30:06.262Z</time></trkpt><trkpt lat="43.1508767" lon="11.4407383"><ele>162.5</ele><time>2026-04-03T14:30:07.263Z</time></trkpt><trkpt lat="43.1507733" lon="11.4408617"><ele>162.75</ele><time>2026-04-03T14:30:08.262Z</time></trkpt><trkpt lat="43.1506517" lon="11.4409717"><ele>163.0</ele><time>2026-04-03T14:30:09.263Z</time></trkpt><trkpt lat="43.1505133" lon="11.4410733"><ele>163.0</ele><time>2026-04-03T14:30:10.262Z</time></trkpt><trkpt lat="43.15038" lon="11.4411483"><ele>163.0</ele><time>2026-04-03T14:30:11.262Z</time></trkpt><trkpt lat="43.1502467" lon="11.441245"><ele>163.0</ele><time>2026-04-03T14:30:12.262Z</time></trkpt><trkpt lat="43.150115" lon="11.4413467"><ele>163.0</ele><time>2026-04-03T14:30:13.262Z</time></trkpt><trkpt lat="43.1499783" lon="11.4414433"><ele>163.0</ele><time>2026-04-03T14:30:14.263Z</time></trkpt><trkpt lat="43.149845" lon="11.441555"><ele>163.0</ele><time>2026-04-03T14:30:15.263Z</time></trkpt><trkpt lat="43.1497083" lon="11.4416767"><ele>163.0</ele><time>2026-04-03T14:30:16.263Z</time></trkpt><trkpt lat="43.1495833" lon="11.4417983"><ele>163.0</ele><time>2026-04-03T14:30:17.262Z</time></trkpt><trkpt lat="43.1494483" lon="11.4419083"><ele>163.0</ele><time>2026-04-03T14:30:18.263Z</time></trkpt><trkpt lat="43.1493233" lon="11.4420133"><ele>163.0</ele><time>2026-04-03T14:30:19.262Z</time></trkpt><trkpt lat="43.1491967" lon="11.4421167"><ele>163.25</ele><time>2026-04-03T14:30:20.262Z</time></trkpt><trkpt lat="43.1490717" lon="11.4422117"><ele>163.5</ele><time>2026-04-03T14:30:21.262Z</time></trkpt><trkpt lat="43.1489533" lon="11.4423083"><ele>163.75</ele><time>2026-04-03T14:30:22.262Z</time></trkpt><trkpt lat="43.14884" lon="11.44241"><ele>164.0</ele><time>2026-04-03T14:30:23.262Z</time></trkpt><trkpt lat="43.1487383" lon="11.4425183"><ele>164.0</ele><time>2026-04-03T14:30:24.262Z</time></trkpt><trkpt lat="43.1486383" lon="11.4426433"><ele>164.0</ele><time>2026-04-03T14:30:25.262Z</time></trkpt><trkpt lat="43.148525" lon="11.4427933"><ele>164.0</ele><time>2026-04-03T14:30:26.263Z</time></trkpt><trkpt lat="43.1484433" lon="11.4429367"><ele>164.0</ele><time>2026-04-03T14:30:27.262Z</time></trkpt><trkpt lat="43.1483633" lon="11.4430767"><ele>163.75</ele><time>2026-04-03T14:30:28.263Z</time></trkpt><trkpt lat="43.1482817" lon="11.4431967"><ele>163.5</ele><time>2026-04-03T14:30:29.262Z</time></trkpt><trkpt lat="43.1482" lon="11.443325"><ele>163.25</ele><time>2026-04-03T14:30:30.262Z</time></trkpt><trkpt lat="43.1481333" lon="11.44345"><ele>163.0</ele><time>2026-04-03T14:30:31.263Z</time></trkpt><trkpt lat="43.1480883" lon="11.4435667"><ele>163.0</ele><time>2026-04-03T14:30:32.262Z</time></trkpt><trkpt lat="43.1480533" lon="11.44368"><ele>163.0</ele><time>2026-04-03T14:30:33.262Z</time></trkpt><trkpt lat="43.1480433" lon="11.4437967"><ele>163.0</ele><time>2026-04-03T14:30:34.262Z</time></trkpt><trkpt lat="43.148055" lon="11.4439233"><ele>163.0</ele><time>2026-04-03T14:30:35.263Z</time></trkpt><trkpt lat="43.1481017" lon="11.4440683"><ele>163.0</ele><time>2026-04-03T14:30:36.261Z</time></trkpt><trkpt lat="43.1481533" lon="11.44422"><ele>163.2</ele><time>2026-04-03T14:30:37.261Z</time></trkpt><trkpt lat="43.1482017" lon="11.4443567"><ele>163.4</ele><time>2026-04-03T14:30:38.261Z</time></trkpt><trkpt lat="43.14822" lon="11.4444883"><ele>163.6</ele><time>2026-04-03T14:30:39.261Z</time></trkpt><trkpt lat="43.1482067" lon="11.444615"><ele>163.79999999999998</ele><time>2026-04-03T14:30:40.261Z</time></trkpt><trkpt lat="43.148185" lon="11.4447133"><ele>164.0</ele><time>2026-04-03T14:30:41.262Z</time></trkpt><trkpt lat="43.1481433" lon="11.4448083"><ele>165.39999999999998</ele><time>2026-04-03T14:30:42.261Z</time></trkpt><trkpt lat="43.148075" lon="11.4448383"><ele>166.8</ele><time>2026-04-03T14:30:43.261Z</time></trkpt><trkpt lat="43.1479867" lon="11.444855"><ele>168.2</ele><time>2026-04-03T14:30:44.261Z</time></trkpt><trkpt lat="43.1478867" lon="11.444835"><ele>169.60000000000002</ele><time>2026-04-03T14:30:45.261Z</time></trkpt><trkpt lat="43.1477767" lon="11.444795"><ele>171.0</ele><time>2026-04-03T14:30:46.261Z</time></trkpt><trkpt lat="43.147645" lon="11.4447167"><ele>171.0</ele><time>2026-04-03T14:30:47.261Z</time></trkpt><trkpt lat="43.1475017" lon="11.4446583"><ele>171.0</ele><time>2026-04-03T14:30:48.261Z</time></trkpt><trkpt lat="43.14735" lon="11.444605"><ele>171.0</ele><time>2026-04-03T14:30:49.261Z</time></trkpt><trkpt lat="43.1471967" lon="11.444565"><ele>168.75</ele><time>2026-04-03T14:30:50.261Z</time></trkpt><trkpt lat="43.1470533" lon="11.4445317"><ele>166.5</ele><time>2026-04-03T14:30:51.261Z</time></trkpt><trkpt lat="43.1469167" lon="11.4445283"><ele>164.25</ele><time>2026-04-03T14:30:52.262Z</time></trkpt><trkpt lat="43.1467933" lon="11.4445333"><ele>162.0</ele><time>2026-04-03T14:30:53.261Z</time></trkpt><trkpt lat="43.1466617" lon="11.4445483"><ele>162.0</ele><time>2026-04-03T14:30:54.261Z</time></trkpt><trkpt lat="43.1465533" lon="11.44457"><ele>162.0</ele><time>2026-04-03T14:30:55.262Z</time></trkpt><trkpt lat="43.1464567" lon="11.4446"><ele>162.0</ele><time>2026-04-03T14:30:56.261Z</time></trkpt><trkpt lat="43.146375" lon="11.4446433"><ele>162.0</ele><time>2026-04-03T14:30:57.261Z</time></trkpt><trkpt lat="43.14629" lon="11.4447133"><ele>162.0</ele><time>2026-04-03T14:30:58.261Z</time></trkpt><trkpt lat="43.1462217" lon="11.444805"><ele>162.0</ele><time>2026-04-03T14:30:59.261Z</time></trkpt><trkpt lat="43.1461667" lon="11.444935"><ele>162.0</ele><time>2026-04-03T14:31:00.262Z</time></trkpt><trkpt lat="43.1461117" lon="11.4450767"><ele>162.0</ele><time>2026-04-03T14:31:01.262Z</time></trkpt><trkpt lat="43.1460767" lon="11.4452167"><ele>162.0</ele><time>2026-04-03T14:31:02.261Z</time></trkpt><trkpt lat="43.1460817" lon="11.44536"><ele>162.0</ele><time>2026-04-03T14:31:03.261Z</time></trkpt><trkpt lat="43.1461133" lon="11.4455233"><ele>161.66666666666666</ele><time>2026-04-03T14:31:04.261Z</time></trkpt><trkpt lat="43.14615" lon="11.4457083"><ele>161.33333333333331</ele><time>2026-04-03T14:31:05.262Z</time></trkpt><trkpt lat="43.1461983" lon="11.4459167"><ele>161.0</ele><time>2026-04-03T14:31:06.261Z</time></trkpt><trkpt lat="43.14625" lon="11.446115"><ele>161.0</ele><time>2026-04-03T14:31:07.261Z</time></trkpt><trkpt lat="43.14631" lon="11.4462883"><ele>161.0</ele><time>2026-04-03T14:31:08.261Z</time></trkpt><trkpt lat="43.14636" lon="11.44646"><ele>161.0</ele><time>2026-04-03T14:31:09.261Z</time></trkpt><trkpt lat="43.1463983" lon="11.4465933"><ele>161.0</ele><time>2026-04-03T14:31:10.261Z</time></trkpt><trkpt lat="43.1464283" lon="11.4467167"><ele>162.0</ele><time>2026-04-03T14:31:11.261Z</time></trkpt><trkpt lat="43.1464267" lon="11.44682"><ele>163.0</ele><time>2026-04-03T14:31:12.261Z</time></trkpt><trkpt lat="43.1464067" lon="11.4469183"><ele>164.0</ele><time>2026-04-03T14:31:13.261Z</time></trkpt><trkpt lat="43.14629" lon="11.44697"><ele>165.0</ele><time>2026-04-03T14:31:15.261Z</time></trkpt><trkpt lat="43.1462167" lon="11.4469617"><ele>166.0</ele><time>2026-04-03T14:31:16.261Z</time></trkpt><trkpt lat="43.1461083" lon="11.4469333"><ele>166.0</ele><time>2026-04-03T14:31:17.262Z</time></trkpt><trkpt lat="43.14599" lon="11.4468967"><ele>166.0</ele><time>2026-04-03T14:31:18.261Z</time></trkpt><trkpt lat="43.1458767" lon="11.446885"><ele>166.0</ele><time>2026-04-03T14:31:19.261Z</time></trkpt><trkpt lat="43.14576" lon="11.4468817"><ele>166.0</ele><time>2026-04-03T14:31:20.261Z</time></trkpt><trkpt lat="43.14565" lon="11.4468983"><ele>166.5</ele><time>2026-04-03T14:31:21.261Z</time></trkpt><trkpt lat="43.145535" lon="11.446925"><ele>167.0</ele><time>2026-04-03T14:31:22.262Z</time></trkpt><trkpt lat="43.1454333" lon="11.4469867"><ele>167.5</ele><time>2026-04-03T14:31:23.261Z</time></trkpt><trkpt lat="43.14533" lon="11.4470717"><ele>168.0</ele><time>2026-04-03T14:31:24.262Z</time></trkpt><trkpt lat="43.145225" lon="11.4471667"><ele>168.0</ele><time>2026-04-03T14:31:25.261Z</time></trkpt><trkpt lat="43.1451167" lon="11.4472633"><ele>168.0</ele><time>2026-04-03T14:31:26.261Z</time></trkpt><trkpt lat="43.145035" lon="11.4473583"><ele>168.0</ele><time>2026-04-03T14:31:27.262Z</time></trkpt><trkpt lat="43.144975" lon="11.4474483"><ele>168.0</ele><time>2026-04-03T14:31:28.261Z</time></trkpt><trkpt lat="43.1449233" lon="11.4475417"><ele>168.0</ele><time>2026-04-03T14:31:29.261Z</time></trkpt><trkpt lat="43.1448833" lon="11.4476367"><ele>167.83333333333334</ele><time>2026-04-03T14:31:30.261Z</time></trkpt><trkpt lat="43.1448667" lon="11.4477283"><ele>167.66666666666666</ele><time>2026-04-03T14:31:31.261Z</time></trkpt><trkpt lat="43.1448667" lon="11.4478583"><ele>167.5</ele><time>2026-04-03T14:31:33.262Z</time></trkpt><trkpt lat="43.1449083" lon="11.447985"><ele>167.33333333333331</ele><time>2026-04-03T14:32:06.262Z</time></trkpt><trkpt lat="43.1449033" lon="11.4480883"><ele>167.16666666666666</ele><time>2026-04-03T14:32:08.261Z</time></trkpt><trkpt lat="43.1449017" lon="11.4482217"><ele>167.0</ele><time>2026-04-03T14:32:10.261Z</time></trkpt><trkpt lat="43.144865" lon="11.4483717"><ele>167.0</ele><time>2026-04-03T14:32:12.261Z</time></trkpt><trkpt lat="43.1448217" lon="11.4484467"><ele>167.0</ele><time>2026-04-03T14:32:13.261Z</time></trkpt><trkpt lat="43.144775" lon="11.44851"><ele>167.0</ele><time>2026-04-03T14:32:14.262Z</time></trkpt><trkpt lat="43.1447167" lon="11.4485617"><ele>167.0</ele><time>2026-04-03T14:32:15.262Z</time></trkpt><trkpt lat="43.14464" lon="11.448595"><ele>167.0</ele><time>2026-04-03T14:32:16.261Z</time></trkpt><trkpt lat="43.1445433" lon="11.4485967"><ele>167.0</ele><time>2026-04-03T14:32:17.261Z</time></trkpt><trkpt lat="43.144435" lon="11.448575"><ele>167.0</ele><time>2026-04-03T14:32:18.261Z</time></trkpt><trkpt lat="43.1443333" lon="11.448545"><ele>167.0</ele><time>2026-04-03T14:32:19.261Z</time></trkpt><trkpt lat="43.1442283" lon="11.4485067"><ele>167.0</ele><time>2026-04-03T14:32:20.261Z</time></trkpt><trkpt lat="43.14414" lon="11.4484617"><ele>167.0</ele><time>2026-04-03T14:32:21.262Z</time></trkpt><trkpt lat="43.1440417" lon="11.44843"><ele>167.0</ele><time>2026-04-03T14:32:22.262Z</time></trkpt><trkpt lat="43.14395" lon="11.44839"><ele>168.0</ele><time>2026-04-03T14:32:23.262Z</time></trkpt><trkpt lat="43.143865" lon="11.448345"><ele>169.0</ele><time>2026-04-03T14:32:24.261Z</time></trkpt><trkpt lat="43.1437767" lon="11.4482867"><ele>170.0</ele><time>2026-04-03T14:32:25.261Z</time></trkpt><trkpt lat="43.14368" lon="11.4482267"><ele>171.0</ele><time>2026-04-03T14:32:26.261Z</time></trkpt><trkpt lat="43.1435833" lon="11.4481717"><ele>172.0</ele><time>2026-04-03T14:32:27.261Z</time></trkpt><trkpt lat="43.1434983" lon="11.4481083"><ele>172.0</ele><time>2026-04-03T14:32:28.261Z</time></trkpt><trkpt lat="43.143405" lon="11.4480367"><ele>172.0</ele><time>2026-04-03T14:32:29.261Z</time></trkpt><trkpt lat="43.1433167" lon="11.4479617"><ele>172.0</ele><time>2026-04-03T14:32:30.262Z</time></trkpt><trkpt lat="43.1432267" lon="11.447885"><ele>172.0</ele><time>2026-04-03T14:32:31.261Z</time></trkpt><trkpt lat="43.1431367" lon="11.44782"><ele>172.0</ele><time>2026-04-03T14:32:32.261Z</time></trkpt><trkpt lat="43.14306" lon="11.4477717"><ele>170.5</ele><time>2026-04-03T14:32:33.261Z</time></trkpt><trkpt lat="43.1429817" lon="11.4477433"><ele>169.0</ele><time>2026-04-03T14:32:34.261Z</time></trkpt><trkpt lat="43.1428967" lon="11.4477183"><ele>167.5</ele><time>2026-04-03T14:32:35.261Z</time></trkpt><trkpt lat="43.1428067" lon="11.447705"><ele>166.0</ele><time>2026-04-03T14:32:36.262Z</time></trkpt><trkpt lat="43.1427133" lon="11.44768"><ele>164.5</ele><time>2026-04-03T14:32:37.261Z</time></trkpt><trkpt lat="43.1426217" lon="11.4476767"><ele>163.0</ele><time>2026-04-03T14:32:38.261Z</time></trkpt><trkpt lat="43.1425267" lon="11.447685"><ele>163.0</ele><time>2026-04-03T14:32:39.261Z</time></trkpt><trkpt lat="43.1424217" lon="11.4477"><ele>163.0</ele><time>2026-04-03T14:32:40.261Z</time></trkpt><trkpt lat="43.142315" lon="11.447725"><ele>163.0</ele><time>2026-04-03T14:32:41.261Z</time></trkpt><trkpt lat="43.142205" lon="11.4477567"><ele>163.0</ele><time>2026-04-03T14:32:42.261Z</time></trkpt><trkpt lat="43.1420983" lon="11.4478"><ele>163.0</ele><time>2026-04-03T14:32:43.261Z</time></trkpt><trkpt lat="43.1419933" lon="11.447845"><ele>162.8</ele><time>2026-04-03T14:32:44.261Z</time></trkpt><trkpt lat="43.1418883" lon="11.4478883"><ele>162.60000000000002</ele><time>2026-04-03T14:32:45.262Z</time></trkpt><trkpt lat="43.1417783" lon="11.4479317"><ele>162.39999999999998</ele><time>2026-04-03T14:32:46.261Z</time></trkpt><trkpt lat="43.1416717" lon="11.44797"><ele>162.2</ele><time>2026-04-03T14:32:47.261Z</time></trkpt><trkpt lat="43.141565" lon="11.448005"><ele>162.0</ele><time>2026-04-03T14:32:48.261Z</time></trkpt><trkpt lat="43.1414533" lon="11.4480367"><ele>164.25</ele><time>2026-04-03T14:32:49.261Z</time></trkpt><trkpt lat="43.141335" lon="11.4480683"><ele>166.5</ele><time>2026-04-03T14:32:50.261Z</time></trkpt><trkpt lat="43.14122" lon="11.4480817"><ele>168.75</ele><time>2026-04-03T14:32:51.261Z</time></trkpt><trkpt lat="43.1411133" lon="11.4481117"><ele>171.0</ele><time>2026-04-03T14:32:52.261Z</time></trkpt><trkpt lat="43.1409967" lon="11.448145"><ele>171.0</ele><time>2026-04-03T14:32:53.261Z</time></trkpt><trkpt lat="43.1408683" lon="11.4481717"><ele>171.0</ele><time>2026-04-03T14:32:54.261Z</time></trkpt><trkpt lat="43.14075" lon="11.4481933"><ele>171.0</ele><time>2026-04-03T14:32:55.261Z</time></trkpt><trkpt lat="43.1406583" lon="11.4482067"><ele>171.0</ele><time>2026-04-03T14:32:56.261Z</time></trkpt><trkpt lat="43.1405717" lon="11.4482"><ele>171.0</ele><time>2026-04-03T14:32:57.261Z</time></trkpt><trkpt lat="43.1404717" lon="11.4481783"><ele>170.4</ele><time>2026-04-03T14:32:58.261Z</time></trkpt><trkpt lat="43.1403717" lon="11.448155"><ele>169.8</ele><time>2026-04-03T14:32:59.261Z</time></trkpt><trkpt lat="43.14027" lon="11.4481233"><ele>169.20000000000002</ele><time>2026-04-03T14:33:00.261Z</time></trkpt><trkpt lat="43.1401667" lon="11.44808"><ele>168.60000000000002</ele><time>2026-04-03T14:33:01.261Z</time></trkpt><trkpt lat="43.1400733" lon="11.4480333"><ele>168.0</ele><time>2026-04-03T14:33:02.262Z</time></trkpt><trkpt lat="43.1399967" lon="11.4479783"><ele>167.66666666666666</ele><time>2026-04-03T14:33:03.261Z</time></trkpt><trkpt lat="43.1399167" lon="11.4479283"><ele>167.33333333333334</ele><time>2026-04-03T14:33:04.261Z</time></trkpt><trkpt lat="43.1398517" lon="11.4478717"><ele>167.0</ele><time>2026-04-03T14:33:05.261Z</time></trkpt><trkpt lat="43.1397817" lon="11.4478217"><ele>166.66666666666669</ele><time>2026-04-03T14:33:06.261Z</time></trkpt><trkpt lat="43.1397" lon="11.4478067"><ele>166.33333333333334</ele><time>2026-04-03T14:33:07.262Z</time></trkpt><trkpt lat="43.1396117" lon="11.4478067"><ele>166.0</ele><time>2026-04-03T14:33:08.261Z</time></trkpt><trkpt lat="43.1395217" lon="11.4478467"><ele>164.8</ele><time>2026-04-03T14:33:09.261Z</time></trkpt><trkpt lat="43.1394317" lon="11.4479217"><ele>163.60000000000002</ele><time>2026-04-03T14:33:10.261Z</time></trkpt><trkpt lat="43.1393867" lon="11.4480333"><ele>162.4</ele><time>2026-04-03T14:33:11.261Z</time></trkpt><trkpt lat="43.1393517" lon="11.44817"><ele>161.2</ele><time>2026-04-03T14:33:12.261Z</time></trkpt><trkpt lat="43.13933" lon="11.44831"><ele>160.0</ele><time>2026-04-03T14:33:13.261Z</time></trkpt><trkpt lat="43.1393083" lon="11.4484617"><ele>160.0</ele><time>2026-04-03T14:33:14.261Z</time></trkpt><trkpt lat="43.1392867" lon="11.4486333"><ele>160.0</ele><time>2026-04-03T14:33:15.261Z</time></trkpt><trkpt lat="43.1392633" lon="11.4487983"><ele>160.0</ele><time>2026-04-03T14:33:16.261Z</time></trkpt><trkpt lat="43.1392533" lon="11.4489617"><ele>160.0</ele><time>2026-04-03T14:33:17.261Z</time></trkpt><trkpt lat="43.13925" lon="11.4491233"><ele>160.0</ele><time>2026-04-03T14:33:18.261Z</time></trkpt><trkpt lat="43.1392667" lon="11.44926"><ele>160.0</ele><time>2026-04-03T14:33:19.261Z</time></trkpt><trkpt lat="43.1392717" lon="11.4494033"><ele>160.0</ele><time>2026-04-03T14:33:20.261Z</time></trkpt><trkpt lat="43.1392733" lon="11.4495583"><ele>160.0</ele><time>2026-04-03T14:33:21.262Z</time></trkpt><trkpt lat="43.13927" lon="11.4497217"><ele>160.0</ele><time>2026-04-03T14:33:22.262Z</time></trkpt><trkpt lat="43.1392717" lon="11.4498883"><ele>160.0</ele><time>2026-04-03T14:33:23.262Z</time></trkpt><trkpt lat="43.1392833" lon="11.45005"><ele>160.0</ele><time>2026-04-03T14:33:24.262Z</time></trkpt><trkpt lat="43.1392983" lon="11.4502083"><ele>160.0</ele><time>2026-04-03T14:33:25.262Z</time></trkpt><trkpt lat="43.1393067" lon="11.45037"><ele>160.0</ele><time>2026-04-03T14:33:26.262Z</time></trkpt><trkpt lat="43.1393017" lon="11.450525"><ele>160.5</ele><time>2026-04-03T14:33:27.261Z</time></trkpt><trkpt lat="43.1392983" lon="11.4506833"><ele>161.0</ele><time>2026-04-03T14:33:28.262Z</time></trkpt><trkpt lat="43.1392767" lon="11.450825"><ele>161.5</ele><time>2026-04-03T14:33:29.261Z</time></trkpt><trkpt lat="43.1392333" lon="11.45097"><ele>162.0</ele><time>2026-04-03T14:33:30.261Z</time></trkpt><trkpt lat="43.1391583" lon="11.45111"><ele>162.0</ele><time>2026-04-03T14:33:31.262Z</time></trkpt><trkpt lat="43.1390867" lon="11.451265"><ele>162.0</ele><time>2026-04-03T14:33:32.261Z</time></trkpt><trkpt lat="43.13901" lon="11.45141"><ele>162.0</ele><time>2026-04-03T14:33:33.261Z</time></trkpt><trkpt lat="43.138935" lon="11.4515533"><ele>162.0</ele><time>2026-04-03T14:33:34.262Z</time></trkpt><trkpt lat="43.1388533" lon="11.451705"><ele>161.25</ele><time>2026-04-03T14:33:35.261Z</time></trkpt><trkpt lat="43.1387783" lon="11.4518483"><ele>160.5</ele><time>2026-04-03T14:33:36.261Z</time></trkpt><trkpt lat="43.1386917" lon="11.4519983"><ele>159.75</ele><time>2026-04-03T14:33:37.261Z</time></trkpt><trkpt lat="43.1386117" lon="11.45214"><ele>159.0</ele><time>2026-04-03T14:33:38.261Z</time></trkpt><trkpt lat="43.1385233" lon="11.452275"><ele>159.0</ele><time>2026-04-03T14:33:39.261Z</time></trkpt><trkpt lat="43.1384317" lon="11.4523983"><ele>159.0</ele><time>2026-04-03T14:33:40.261Z</time></trkpt><trkpt lat="43.13833" lon="11.4525117"><ele>159.0</ele><time>2026-04-03T14:33:41.262Z</time></trkpt><trkpt lat="43.1382183" lon="11.4526167"><ele>159.0</ele><time>2026-04-03T14:33:42.261Z</time></trkpt><trkpt lat="43.138105" lon="11.45272"><ele>159.5</ele><time>2026-04-03T14:33:43.262Z</time></trkpt><trkpt lat="43.13799" lon="11.45281"><ele>160.0</ele><time>2026-04-03T14:33:44.262Z</time></trkpt><trkpt lat="43.13786" lon="11.4529"><ele>160.5</ele><time>2026-04-03T14:33:45.261Z</time></trkpt><trkpt lat="43.1377317" lon="11.4529817"><ele>161.0</ele><time>2026-04-03T14:33:46.261Z</time></trkpt><trkpt lat="43.13761" lon="11.4530533"><ele>161.0</ele><time>2026-04-03T14:33:47.261Z</time></trkpt><trkpt lat="43.1374883" lon="11.45313"><ele>161.0</ele><time>2026-04-03T14:33:48.261Z</time></trkpt><trkpt lat="43.1373667" lon="11.4532083"><ele>161.0</ele><time>2026-04-03T14:33:49.261Z</time></trkpt><trkpt lat="43.13724" lon="11.4533117"><ele>161.0</ele><time>2026-04-03T14:33:50.261Z</time></trkpt><trkpt lat="43.13712" lon="11.45342"><ele>161.0</ele><time>2026-04-03T14:33:51.261Z</time></trkpt><trkpt lat="43.13701" lon="11.4535383"><ele>161.0</ele><time>2026-04-03T14:33:52.262Z</time></trkpt><trkpt lat="43.1368717" lon="11.4536633"><ele>161.0</ele><time>2026-04-03T14:33:53.261Z</time></trkpt><trkpt lat="43.1367583" lon="11.4537817"><ele>161.0</ele><time>2026-04-03T14:33:54.261Z</time></trkpt><trkpt lat="43.13665" lon="11.4539117"><ele>158.5</ele><time>2026-04-03T14:33:55.261Z</time></trkpt><trkpt lat="43.1365483" lon="11.45404"><ele>156.0</ele><time>2026-04-03T14:33:56.261Z</time></trkpt><trkpt lat="43.13645" lon="11.4541767"><ele>153.5</ele><time>2026-04-03T14:33:57.262Z</time></trkpt><trkpt lat="43.1363617" lon="11.454325"><ele>151.0</ele><time>2026-04-03T14:33:58.261Z</time></trkpt><trkpt lat="43.1362783" lon="11.4544817"><ele>152.25</ele><time>2026-04-03T14:33:59.261Z</time></trkpt><trkpt lat="43.136185" lon="11.45464"><ele>153.5</ele><time>2026-04-03T14:34:00.261Z</time></trkpt><trkpt lat="43.1360983" lon="11.454795"><ele>154.75</ele><time>2026-04-03T14:34:01.262Z</time></trkpt><trkpt lat="43.1360367" lon="11.4549617"><ele>156.0</ele><time>2026-04-03T14:34:02.261Z</time></trkpt><trkpt lat="43.1359667" lon="11.455135"><ele>156.0</ele><time>2026-04-03T14:34:03.261Z</time></trkpt><trkpt lat="43.1358867" lon="11.4553133"><ele>156.0</ele><time>2026-04-03T14:34:04.261Z</time></trkpt><trkpt lat="43.1357967" lon="11.4554767"><ele>156.0</ele><time>2026-04-03T14:34:05.261Z</time></trkpt><trkpt lat="43.1356983" lon="11.4556133"><ele>156.0</ele><time>2026-04-03T14:34:06.261Z</time></trkpt><trkpt lat="43.1355783" lon="11.45574"><ele>155.0</ele><time>2026-04-03T14:34:07.261Z</time></trkpt><trkpt lat="43.1354583" lon="11.4558667"><ele>154.0</ele><time>2026-04-03T14:34:08.262Z</time></trkpt><trkpt lat="43.1353267" lon="11.4559833"><ele>153.0</ele><time>2026-04-03T14:34:09.261Z</time></trkpt><trkpt lat="43.1352133" lon="11.4560983"><ele>152.0</ele><time>2026-04-03T14:34:10.261Z</time></trkpt><trkpt lat="43.1351033" lon="11.45622"><ele>152.0</ele><time>2026-04-03T14:34:11.261Z</time></trkpt><trkpt lat="43.134985" lon="11.4563517"><ele>152.0</ele><time>2026-04-03T14:34:12.261Z</time></trkpt><trkpt lat="43.1348683" lon="11.4564783"><ele>152.0</ele><time>2026-04-03T14:34:13.261Z</time></trkpt><trkpt lat="43.134745" lon="11.4566017"><ele>152.0</ele><time>2026-04-03T14:34:14.261Z</time></trkpt><trkpt lat="43.13462" lon="11.4567233"><ele>152.0</ele><time>2026-04-03T14:34:15.261Z</time></trkpt><trkpt lat="43.134505" lon="11.456845"><ele>152.0</ele><time>2026-04-03T14:34:16.261Z</time></trkpt><trkpt lat="43.134365" lon="11.4569733"><ele>152.0</ele><time>2026-04-03T14:34:17.262Z</time></trkpt><trkpt lat="43.1342433" lon="11.4571017"><ele>152.0</ele><time>2026-04-03T14:34:18.261Z</time></trkpt><trkpt lat="43.1341183" lon="11.4572183"><ele>152.0</ele><time>2026-04-03T14:34:19.261Z</time></trkpt><trkpt lat="43.133995" lon="11.4573383"><ele>151.33333333333331</ele><time>2026-04-03T14:34:20.262Z</time></trkpt><trkpt lat="43.1338617" lon="11.4574717"><ele>150.66666666666666</ele><time>2026-04-03T14:34:21.261Z</time></trkpt><trkpt lat="43.1337233" lon="11.457605"><ele>150.0</ele><time>2026-04-03T14:34:22.262Z</time></trkpt><trkpt lat="43.1335833" lon="11.45773"><ele>150.0</ele><time>2026-04-03T14:34:23.261Z</time></trkpt><trkpt lat="43.13346" lon="11.4578417"><ele>150.0</ele><time>2026-04-03T14:34:24.261Z</time></trkpt><trkpt lat="43.1333433" lon="11.4579417"><ele>150.0</ele><time>2026-04-03T14:34:25.261Z</time></trkpt><trkpt lat="43.1332267" lon="11.4580483"><ele>150.0</ele><time>2026-04-03T14:34:26.261Z</time></trkpt><trkpt lat="43.13312" lon="11.4581533"><ele>149.25</ele><time>2026-04-03T14:34:27.261Z</time></trkpt><trkpt lat="43.133035" lon="11.45827"><ele>148.5</ele><time>2026-04-03T14:34:28.262Z</time></trkpt><trkpt lat="43.13294" lon="11.45839"><ele>147.75</ele><time>2026-04-03T14:34:29.261Z</time></trkpt><trkpt lat="43.1328417" lon="11.4585083"><ele>147.0</ele><time>2026-04-03T14:34:30.262Z</time></trkpt><trkpt lat="43.1327567" lon="11.4586183"><ele>147.0</ele><time>2026-04-03T14:34:31.262Z</time></trkpt><trkpt lat="43.1326767" lon="11.4587333"><ele>147.0</ele><time>2026-04-03T14:34:32.261Z</time></trkpt><trkpt lat="43.1326167" lon="11.458865"><ele>147.0</ele><time>2026-04-03T14:34:33.261Z</time></trkpt><trkpt lat="43.1325583" lon="11.459015"><ele>147.0</ele><time>2026-04-03T14:34:34.261Z</time></trkpt><trkpt lat="43.1325117" lon="11.4591733"><ele>146.5</ele><time>2026-04-03T14:34:35.262Z</time></trkpt><trkpt lat="43.13247" lon="11.4593367"><ele>146.0</ele><time>2026-04-03T14:34:36.261Z</time></trkpt><trkpt lat="43.1324433" lon="11.4595167"><ele>145.5</ele><time>2026-04-03T14:34:37.262Z</time></trkpt><trkpt lat="43.1324033" lon="11.4597083"><ele>145.0</ele><time>2026-04-03T14:34:38.261Z</time></trkpt><trkpt lat="43.1323633" lon="11.4598983"><ele>145.0</ele><time>2026-04-03T14:34:39.261Z</time></trkpt><trkpt lat="43.1323267" lon="11.4600667"><ele>145.0</ele><time>2026-04-03T14:34:40.262Z</time></trkpt><trkpt lat="43.132285" lon="11.46023"><ele>145.0</ele><time>2026-04-03T14:34:41.262Z</time></trkpt><trkpt lat="43.13225" lon="11.4603767"><ele>145.0</ele><time>2026-04-03T14:34:42.261Z</time></trkpt><trkpt lat="43.1322233" lon="11.4605167"><ele>145.2</ele><time>2026-04-03T14:34:43.261Z</time></trkpt><trkpt lat="43.1321933" lon="11.4606583"><ele>145.4</ele><time>2026-04-03T14:34:44.261Z</time></trkpt><trkpt lat="43.1321633" lon="11.4607967"><ele>145.6</ele><time>2026-04-03T14:34:45.261Z</time></trkpt><trkpt lat="43.1321483" lon="11.4609467"><ele>145.8</ele><time>2026-04-03T14:34:46.261Z</time></trkpt><trkpt lat="43.1321467" lon="11.461095"><ele>146.0</ele><time>2026-04-03T14:34:47.261Z</time></trkpt><trkpt lat="43.1321567" lon="11.4612417"><ele>146.0</ele><time>2026-04-03T14:34:48.261Z</time></trkpt><trkpt lat="43.1321667" lon="11.4613867"><ele>146.0</ele><time>2026-04-03T14:34:49.261Z</time></trkpt><trkpt lat="43.132175" lon="11.4615117"><ele>146.0</ele><time>2026-04-03T14:34:50.261Z</time></trkpt><trkpt lat="43.1321917" lon="11.4616167"><ele>146.0</ele><time>2026-04-03T14:34:51.261Z</time></trkpt><trkpt lat="43.1321933" lon="11.46174"><ele>146.0</ele><time>2026-04-03T14:34:53.262Z</time></trkpt><trkpt lat="43.1321467" lon="11.46181"><ele>146.0</ele><time>2026-04-03T14:34:55.262Z</time></trkpt><trkpt lat="43.1320833" lon="11.4617883"><ele>146.0</ele><time>2026-04-03T14:34:57.261Z</time></trkpt><trkpt lat="43.132015" lon="11.4617217"><ele>146.0</ele><time>2026-04-03T14:35:00.261Z</time></trkpt><trkpt lat="43.1319683" lon="11.4616633"><ele>146.0</ele><time>2026-04-03T14:35:02.261Z</time></trkpt><trkpt lat="43.1319133" lon="11.4615817"><ele>146.0</ele><time>2026-04-03T14:35:05.261Z</time></trkpt><trkpt lat="43.1318467" lon="11.4615783"><ele>146.0</ele><time>2026-04-03T14:35:39.262Z</time></trkpt><trkpt lat="43.13173" lon="11.4615783"><ele>146.0</ele><time>2026-04-03T14:35:41.261Z</time></trkpt><trkpt lat="43.131655" lon="11.4615683"><ele>146.0</ele><time>2026-04-03T14:35:42.262Z</time></trkpt><trkpt lat="43.13158" lon="11.4615483"><ele>146.0</ele><time>2026-04-03T14:35:43.262Z</time></trkpt><trkpt lat="43.1315017" lon="11.4615233"><ele>146.0</ele><time>2026-04-03T14:35:44.262Z</time></trkpt><trkpt lat="43.131425" lon="11.461475"><ele>146.0</ele><time>2026-04-03T14:35:45.261Z</time></trkpt><trkpt lat="43.1313583" lon="11.46142"><ele>146.0</ele><time>2026-04-03T14:35:46.261Z</time></trkpt><trkpt lat="43.131305" lon="11.4613517"><ele>146.0</ele><time>2026-04-03T14:35:47.261Z</time></trkpt><trkpt lat="43.1312483" lon="11.4612617"><ele>145.5</ele><time>2026-04-03T14:35:48.261Z</time></trkpt><trkpt lat="43.1312" lon="11.461165"><ele>145.0</ele><time>2026-04-03T14:35:49.262Z</time></trkpt><trkpt lat="43.1311533" lon="11.461075"><ele>144.5</ele><time>2026-04-03T14:35:50.261Z</time></trkpt><trkpt lat="43.1311083" lon="11.46098"><ele>144.0</ele><time>2026-04-03T14:35:51.261Z</time></trkpt><trkpt lat="43.1310183" lon="11.4608517"><ele>143.5</ele><time>2026-04-03T14:35:53.262Z</time></trkpt><trkpt lat="43.130955" lon="11.460815"><ele>143.0</ele><time>2026-04-03T14:35:54.262Z</time></trkpt><trkpt lat="43.13083" lon="11.4608017"><ele>142.99999999999997</ele><time>2026-04-03T14:35:56.261Z</time></trkpt><trkpt lat="43.13076" lon="11.4608033"><ele>143.0</ele><time>2026-04-03T14:35:57.261Z</time></trkpt><trkpt lat="43.130695" lon="11.4607867"><ele>143.0</ele><time>2026-04-03T14:35:58.261Z</time></trkpt><trkpt lat="43.1306283" lon="11.4607533"><ele>143.0</ele><time>2026-04-03T14:35:59.26Z</time></trkpt><trkpt lat="43.1305617" lon="11.4607017"><ele>143.0</ele><time>2026-04-03T14:36:00.26Z</time></trkpt><trkpt lat="43.1305117" lon="11.4606367"><ele>142.99999999999997</ele><time>2026-04-03T14:36:01.26Z</time></trkpt><trkpt lat="43.1304683" lon="11.4605283"><ele>143.0</ele><time>2026-04-03T14:36:02.26Z</time></trkpt><trkpt lat="43.130445" lon="11.4604133"><ele>143.25</ele><time>2026-04-03T14:36:03.26Z</time></trkpt><trkpt lat="43.1304183" lon="11.46026"><ele>143.5</ele><time>2026-04-03T14:36:04.26Z</time></trkpt><trkpt lat="43.130385" lon="11.4600733"><ele>143.75</ele><time>2026-04-03T14:36:05.26Z</time></trkpt><trkpt lat="43.1303517" lon="11.4599033"><ele>144.0</ele><time>2026-04-03T14:36:06.26Z</time></trkpt><trkpt lat="43.1303183" lon="11.4597333"><ele>144.25</ele><time>2026-04-03T14:36:07.26Z</time></trkpt><trkpt lat="43.1302867" lon="11.459555"><ele>144.5</ele><time>2026-04-03T14:36:08.261Z</time></trkpt><trkpt lat="43.1302483" lon="11.4593717"><ele>144.75</ele><time>2026-04-03T14:36:09.26Z</time></trkpt><trkpt lat="43.1302083" lon="11.459175"><ele>145.0</ele><time>2026-04-03T14:36:10.26Z</time></trkpt><trkpt lat="43.1301517" lon="11.4589783"><ele>145.0</ele><time>2026-04-03T14:36:11.26Z</time></trkpt><trkpt lat="43.1301117" lon="11.4588183"><ele>145.0</ele><time>2026-04-03T14:36:12.26Z</time></trkpt><trkpt lat="43.130065" lon="11.4586583"><ele>145.0</ele><time>2026-04-03T14:36:13.26Z</time></trkpt><trkpt lat="43.1300183" lon="11.4585033"><ele>145.0</ele><time>2026-04-03T14:36:14.261Z</time></trkpt><trkpt lat="43.130015" lon="11.4583917"><ele>146.2</ele><time>2026-04-03T14:36:15.26Z</time></trkpt><trkpt lat="43.1300183" lon="11.4582533"><ele>147.4</ele><time>2026-04-03T14:36:17.261Z</time></trkpt><trkpt lat="43.1300033" lon="11.4581267"><ele>148.6</ele><time>2026-04-03T14:36:19.26Z</time></trkpt><trkpt lat="43.12993" lon="11.4580033"><ele>149.8</ele><time>2026-04-03T14:36:21.26Z</time></trkpt><trkpt lat="43.12988" lon="11.4579217"><ele>151.0</ele><time>2026-04-03T14:36:22.26Z</time></trkpt><trkpt lat="43.12983" lon="11.4578267"><ele>153.0</ele><time>2026-04-03T14:36:23.261Z</time></trkpt><trkpt lat="43.1297683" lon="11.45774"><ele>155.0</ele><time>2026-04-03T14:36:24.261Z</time></trkpt><trkpt lat="43.1297117" lon="11.4576433"><ele>157.0</ele><time>2026-04-03T14:36:25.26Z</time></trkpt><trkpt lat="43.1296367" lon="11.4575233"><ele>159.0</ele><time>2026-04-03T14:36:26.261Z</time></trkpt><trkpt lat="43.1295567" lon="11.4573867"><ele>161.0</ele><time>2026-04-03T14:36:27.26Z</time></trkpt><trkpt lat="43.1294717" lon="11.4572333"><ele>161.66666666666666</ele><time>2026-04-03T14:36:28.26Z</time></trkpt><trkpt lat="43.1293767" lon="11.4570717"><ele>162.33333333333334</ele><time>2026-04-03T14:36:29.26Z</time></trkpt><trkpt lat="43.1292717" lon="11.456895"><ele>163.0</ele><time>2026-04-03T14:36:30.26Z</time></trkpt><trkpt lat="43.1291667" lon="11.4567183"><ele>166.33333333333334</ele><time>2026-04-03T14:36:31.26Z</time></trkpt><trkpt lat="43.1290433" lon="11.4565183"><ele>169.66666666666666</ele><time>2026-04-03T14:36:32.26Z</time></trkpt><trkpt lat="43.128925" lon="11.456305"><ele>173.0</ele><time>2026-04-03T14:36:33.26Z</time></trkpt><trkpt lat="43.128815" lon="11.4561067"><ele>173.66666666666666</ele><time>2026-04-03T14:36:34.26Z</time></trkpt><trkpt lat="43.1287167" lon="11.45593"><ele>174.33333333333334</ele><time>2026-04-03T14:36:35.26Z</time></trkpt><trkpt lat="43.1286283" lon="11.455765"><ele>175.0</ele><time>2026-04-03T14:36:36.26Z</time></trkpt><trkpt lat="43.1285133" lon="11.4556067"><ele>175.0</ele><time>2026-04-03T14:36:37.261Z</time></trkpt><trkpt lat="43.1283717" lon="11.4554633"><ele>175.0</ele><time>2026-04-03T14:36:38.26Z</time></trkpt><trkpt lat="43.1282167" lon="11.4553533"><ele>175.0</ele><time>2026-04-03T14:36:39.26Z</time></trkpt><trkpt lat="43.12805" lon="11.4552733"><ele>179.5</ele><time>2026-04-03T14:36:40.26Z</time></trkpt><trkpt lat="43.1278967" lon="11.4551983"><ele>184.0</ele><time>2026-04-03T14:36:41.26Z</time></trkpt><trkpt lat="43.127755" lon="11.455135"><ele>188.5</ele><time>2026-04-03T14:36:42.261Z</time></trkpt><trkpt lat="43.1276283" lon="11.4550733"><ele>193.0</ele><time>2026-04-03T14:36:43.26Z</time></trkpt><trkpt lat="43.1274933" lon="11.455025"><ele>195.75</ele><time>2026-04-03T14:36:44.26Z</time></trkpt><trkpt lat="43.1273783" lon="11.4549817"><ele>198.5</ele><time>2026-04-03T14:36:45.261Z</time></trkpt><trkpt lat="43.12727" lon="11.4549167"><ele>201.25</ele><time>2026-04-03T14:36:46.26Z</time></trkpt><trkpt lat="43.1271633" lon="11.45482"><ele>204.0</ele><time>2026-04-03T14:36:47.261Z</time></trkpt><trkpt lat="43.127065" lon="11.4546833"><ele>206.25</ele><time>2026-04-03T14:36:48.261Z</time></trkpt><trkpt lat="43.1269767" lon="11.4545283"><ele>208.5</ele><time>2026-04-03T14:36:49.26Z</time></trkpt><trkpt lat="43.1269083" lon="11.454365"><ele>210.75</ele><time>2026-04-03T14:36:50.26Z</time></trkpt><trkpt lat="43.1268567" lon="11.4541933"><ele>213.0</ele><time>2026-04-03T14:36:51.261Z</time></trkpt><trkpt lat="43.126845" lon="11.454015"><ele>213.0</ele><time>2026-04-03T14:36:52.26Z</time></trkpt><trkpt lat="43.1268133" lon="11.4538217"><ele>213.0</ele><time>2026-04-03T14:36:53.26Z</time></trkpt><trkpt lat="43.1268233" lon="11.45362"><ele>213.0</ele><time>2026-04-03T14:36:54.26Z</time></trkpt><trkpt lat="43.1268217" lon="11.4534233"><ele>213.0</ele><time>2026-04-03T14:36:55.26Z</time></trkpt><trkpt lat="43.1268167" lon="11.4532417"><ele>214.5</ele><time>2026-04-03T14:36:56.26Z</time></trkpt><trkpt lat="43.1268133" lon="11.4530533"><ele>216.0</ele><time>2026-04-03T14:36:57.26Z</time></trkpt><trkpt lat="43.1268117" lon="11.4528717"><ele>217.5</ele><time>2026-04-03T14:36:58.26Z</time></trkpt><trkpt lat="43.1268033" lon="11.4526883"><ele>219.0</ele><time>2026-04-03T14:36:59.26Z</time></trkpt><trkpt lat="43.1268033" lon="11.4525"><ele>219.75</ele><time>2026-04-03T14:37:00.26Z</time></trkpt><trkpt lat="43.126785" lon="11.4523017"><ele>220.5</ele><time>2026-04-03T14:37:01.26Z</time></trkpt><trkpt lat="43.126775" lon="11.4521067"><ele>221.25</ele><time>2026-04-03T14:37:02.26Z</time></trkpt><trkpt lat="43.12676" lon="11.451905"><ele>222.0</ele><time>2026-04-03T14:37:03.26Z</time></trkpt><trkpt lat="43.126745" lon="11.4516933"><ele>222.75</ele><time>2026-04-03T14:37:04.261Z</time></trkpt><trkpt lat="43.1267133" lon="11.45149"><ele>223.5</ele><time>2026-04-03T14:37:05.26Z</time></trkpt><trkpt lat="43.1266833" lon="11.4513"><ele>224.25</ele><time>2026-04-03T14:37:06.26Z</time></trkpt><trkpt lat="43.1266417" lon="11.4511133"><ele>225.0</ele><time>2026-04-03T14:37:07.26Z</time></trkpt><trkpt lat="43.12658" lon="11.450935"><ele>225.0</ele><time>2026-04-03T14:37:08.26Z</time></trkpt><trkpt lat="43.126525" lon="11.4507567"><ele>225.0</ele><time>2026-04-03T14:37:09.261Z</time></trkpt><trkpt lat="43.1264733" lon="11.4505683"><ele>225.0</ele><time>2026-04-03T14:37:10.26Z</time></trkpt><trkpt lat="43.126435" lon="11.4503667"><ele>225.0</ele><time>2026-04-03T14:37:11.26Z</time></trkpt><trkpt lat="43.1263833" lon="11.450185"><ele>226.5</ele><time>2026-04-03T14:37:12.261Z</time></trkpt><trkpt lat="43.1263283" lon="11.4500017"><ele>228.0</ele><time>2026-04-03T14:37:13.261Z</time></trkpt><trkpt lat="43.126275" lon="11.4498167"><ele>229.5</ele><time>2026-04-03T14:37:14.26Z</time></trkpt><trkpt lat="43.1262267" lon="11.4496567"><ele>231.0</ele><time>2026-04-03T14:37:15.26Z</time></trkpt><trkpt lat="43.12616" lon="11.44951"><ele>233.25</ele><time>2026-04-03T14:37:16.26Z</time></trkpt><trkpt lat="43.1260783" lon="11.44938"><ele>235.5</ele><time>2026-04-03T14:37:17.26Z</time></trkpt><trkpt lat="43.1259933" lon="11.4492667"><ele>237.75</ele><time>2026-04-03T14:37:18.26Z</time></trkpt><trkpt lat="43.1258817" lon="11.44918"><ele>240.0</ele><time>2026-04-03T14:37:19.261Z</time></trkpt><trkpt lat="43.1257667" lon="11.4491133"><ele>239.75</ele><time>2026-04-03T14:37:20.26Z</time></trkpt><trkpt lat="43.1256433" lon="11.4490633"><ele>239.5</ele><time>2026-04-03T14:37:21.26Z</time></trkpt><trkpt lat="43.1255117" lon="11.4490233"><ele>239.25</ele><time>2026-04-03T14:37:22.26Z</time></trkpt><trkpt lat="43.125375" lon="11.448985"><ele>239.0</ele><time>2026-04-03T14:37:23.26Z</time></trkpt><trkpt lat="43.1252467" lon="11.4489533"><ele>239.00000000000003</ele><time>2026-04-03T14:37:24.261Z</time></trkpt><trkpt lat="43.125135" lon="11.448925"><ele>239.0</ele><time>2026-04-03T14:37:25.26Z</time></trkpt><trkpt lat="43.1250417" lon="11.4488917"><ele>239.0</ele><time>2026-04-03T14:37:26.26Z</time></trkpt><trkpt lat="43.1249633" lon="11.44886"><ele>239.0</ele><time>2026-04-03T14:37:27.26Z</time></trkpt><trkpt lat="43.12489" lon="11.4488217"><ele>239.00000000000003</ele><time>2026-04-03T14:37:28.26Z</time></trkpt><trkpt lat="43.1248233" lon="11.4487917"><ele>239.0</ele><time>2026-04-03T14:37:29.26Z</time></trkpt><trkpt lat="43.124755" lon="11.4487617"><ele>239.16666666666669</ele><time>2026-04-03T14:37:30.261Z</time></trkpt><trkpt lat="43.124665" lon="11.4487317"><ele>239.33333333333334</ele><time>2026-04-03T14:37:33.26Z</time></trkpt><trkpt lat="43.12461" lon="11.4487817"><ele>239.5</ele><time>2026-04-03T14:37:36.26Z</time></trkpt><trkpt lat="43.1245367" lon="11.4488433"><ele>239.66666666666669</ele><time>2026-04-03T14:37:38.26Z</time></trkpt><trkpt lat="43.1244817" lon="11.448905"><ele>239.83333333333334</ele><time>2026-04-03T14:37:39.26Z</time></trkpt><trkpt lat="43.1244183" lon="11.448985"><ele>240.0</ele><time>2026-04-03T14:37:40.26Z</time></trkpt><trkpt lat="43.12436" lon="11.4490583"><ele>239.4</ele><time>2026-04-03T14:37:41.26Z</time></trkpt><trkpt lat="43.124285" lon="11.44913"><ele>238.8</ele><time>2026-04-03T14:37:42.26Z</time></trkpt><trkpt lat="43.1242083" lon="11.4491767"><ele>238.2</ele><time>2026-04-03T14:37:43.26Z</time></trkpt><trkpt lat="43.12412" lon="11.4492033"><ele>237.6</ele><time>2026-04-03T14:37:44.26Z</time></trkpt><trkpt lat="43.12402" lon="11.4492033"><ele>237.0</ele><time>2026-04-03T14:37:45.26Z</time></trkpt><trkpt lat="43.12391" lon="11.4491767"><ele>236.25</ele><time>2026-04-03T14:37:46.26Z</time></trkpt><trkpt lat="43.12378" lon="11.44914"><ele>235.5</ele><time>2026-04-03T14:37:47.26Z</time></trkpt><trkpt lat="43.1236467" lon="11.4490983"><ele>234.75</ele><time>2026-04-03T14:37:48.26Z</time></trkpt><trkpt lat="43.123505" lon="11.44905"><ele>234.0</ele><time>2026-04-03T14:37:49.261Z</time></trkpt><trkpt lat="43.1233633" lon="11.4489933"><ele>234.0</ele><time>2026-04-03T14:37:50.261Z</time></trkpt><trkpt lat="43.1232333" lon="11.4489533"><ele>234.0</ele><time>2026-04-03T14:37:51.26Z</time></trkpt><trkpt lat="43.1231117" lon="11.4489183"><ele>234.0</ele><time>2026-04-03T14:37:52.26Z</time></trkpt><trkpt lat="43.1230067" lon="11.4488867"><ele>234.0</ele><time>2026-04-03T14:37:53.26Z</time></trkpt><trkpt lat="43.1228967" lon="11.4488667"><ele>233.39999999999998</ele><time>2026-04-03T14:37:54.26Z</time></trkpt><trkpt lat="43.1228017" lon="11.4488383"><ele>232.79999999999998</ele><time>2026-04-03T14:37:55.261Z</time></trkpt><trkpt lat="43.1227117" lon="11.448805"><ele>232.20000000000002</ele><time>2026-04-03T14:37:56.26Z</time></trkpt><trkpt lat="43.122615" lon="11.4487733"><ele>231.60000000000002</ele><time>2026-04-03T14:37:57.26Z</time></trkpt><trkpt lat="43.1225233" lon="11.448725"><ele>231.0</ele><time>2026-04-03T14:37:58.26Z</time></trkpt><trkpt lat="43.12241" lon="11.4487017"><ele>229.25</ele><time>2026-04-03T14:37:59.261Z</time></trkpt><trkpt lat="43.1222933" lon="11.4486633"><ele>227.5</ele><time>2026-04-03T14:38:00.261Z</time></trkpt><trkpt lat="43.1221683" lon="11.4486233"><ele>225.75</ele><time>2026-04-03T14:38:01.26Z</time></trkpt><trkpt lat="43.1220317" lon="11.44857"><ele>224.0</ele><time>2026-04-03T14:38:02.26Z</time></trkpt><trkpt lat="43.1218917" lon="11.4485167"><ele>224.0</ele><time>2026-04-03T14:38:03.261Z</time></trkpt><trkpt lat="43.1217683" lon="11.448475"><ele>224.0</ele><time>2026-04-03T14:38:04.26Z</time></trkpt><trkpt lat="43.1216533" lon="11.4484283"><ele>224.0</ele><time>2026-04-03T14:38:05.261Z</time></trkpt><trkpt lat="43.1215367" lon="11.4483617"><ele>224.0</ele><time>2026-04-03T14:38:06.26Z</time></trkpt><trkpt lat="43.1214267" lon="11.4482667"><ele>222.25</ele><time>2026-04-03T14:38:07.26Z</time></trkpt><trkpt lat="43.1213283" lon="11.4481317"><ele>220.5</ele><time>2026-04-03T14:38:08.26Z</time></trkpt><trkpt lat="43.12126" lon="11.4479933"><ele>218.75</ele><time>2026-04-03T14:38:09.261Z</time></trkpt><trkpt lat="43.1212033" lon="11.4478317"><ele>217.0</ele><time>2026-04-03T14:38:10.26Z</time></trkpt><trkpt lat="43.1211517" lon="11.4476817"><ele>217.0</ele><time>2026-04-03T14:38:11.26Z</time></trkpt><trkpt lat="43.121105" lon="11.447525"><ele>217.0</ele><time>2026-04-03T14:38:12.261Z</time></trkpt><trkpt lat="43.1210533" lon="11.4473633"><ele>217.0</ele><time>2026-04-03T14:38:13.261Z</time></trkpt><trkpt lat="43.1209983" lon="11.4471933"><ele>217.0</ele><time>2026-04-03T14:38:14.26Z</time></trkpt><trkpt lat="43.1209417" lon="11.44703"><ele>216.0</ele><time>2026-04-03T14:38:15.26Z</time></trkpt><trkpt lat="43.1208933" lon="11.44687"><ele>215.0</ele><time>2026-04-03T14:38:16.26Z</time></trkpt><trkpt lat="43.12085" lon="11.4467133"><ele>214.0</ele><time>2026-04-03T14:38:17.26Z</time></trkpt><trkpt lat="43.1208117" lon="11.4465683"><ele>213.0</ele><time>2026-04-03T14:38:18.26Z</time></trkpt><trkpt lat="43.1207767" lon="11.4464317"><ele>213.0</ele><time>2026-04-03T14:38:19.26Z</time></trkpt><trkpt lat="43.1207417" lon="11.4463"><ele>213.0</ele><time>2026-04-03T14:38:20.26Z</time></trkpt><trkpt lat="43.1207183" lon="11.44617"><ele>213.0</ele><time>2026-04-03T14:38:21.26Z</time></trkpt><trkpt lat="43.1207" lon="11.4460383"><ele>213.0</ele><time>2026-04-03T14:38:22.261Z</time></trkpt><trkpt lat="43.1207017" lon="11.4458967"><ele>213.0</ele><time>2026-04-03T14:38:23.26Z</time></trkpt><trkpt lat="43.1207117" lon="11.4457533"><ele>212.60000000000002</ele><time>2026-04-03T14:38:24.26Z</time></trkpt><trkpt lat="43.12075" lon="11.4456167"><ele>212.20000000000002</ele><time>2026-04-03T14:38:25.26Z</time></trkpt><trkpt lat="43.1207917" lon="11.4454867"><ele>211.8</ele><time>2026-04-03T14:38:26.26Z</time></trkpt><trkpt lat="43.1208367" lon="11.445365"><ele>211.4</ele><time>2026-04-03T14:38:27.26Z</time></trkpt><trkpt lat="43.1208667" lon="11.4452483"><ele>211.0</ele><time>2026-04-03T14:38:28.26Z</time></trkpt><trkpt lat="43.12088" lon="11.4451367"><ele>210.99999999999997</ele><time>2026-04-03T14:38:29.26Z</time></trkpt><trkpt lat="43.120885" lon="11.4450233"><ele>211.0</ele><time>2026-04-03T14:38:30.26Z</time></trkpt><trkpt lat="43.12088" lon="11.4449167"><ele>211.0</ele><time>2026-04-03T14:38:31.261Z</time></trkpt><trkpt lat="43.1208733" lon="11.444795"><ele>211.0</ele><time>2026-04-03T14:38:32.261Z</time></trkpt><trkpt lat="43.1208533" lon="11.4446933"><ele>210.99999999999997</ele><time>2026-04-03T14:38:33.261Z</time></trkpt><trkpt lat="43.1207933" lon="11.4445983"><ele>211.0</ele><time>2026-04-03T14:38:34.261Z</time></trkpt><trkpt lat="43.120715" lon="11.4445033"><ele>209.25</ele><time>2026-04-03T14:38:35.26Z</time></trkpt><trkpt lat="43.12059" lon="11.4444117"><ele>207.5</ele><time>2026-04-03T14:38:36.261Z</time></trkpt><trkpt lat="43.1204667" lon="11.4443183"><ele>205.75</ele><time>2026-04-03T14:38:37.261Z</time></trkpt><trkpt lat="43.1203283" lon="11.4442317"><ele>204.0</ele><time>2026-04-03T14:38:38.26Z</time></trkpt><trkpt lat="43.1201917" lon="11.4441333"><ele>204.0</ele><time>2026-04-03T14:38:39.26Z</time></trkpt><trkpt lat="43.1200583" lon="11.4440267"><ele>204.0</ele><time>2026-04-03T14:38:40.26Z</time></trkpt><trkpt lat="43.119935" lon="11.44393"><ele>204.0</ele><time>2026-04-03T14:38:41.26Z</time></trkpt><trkpt lat="43.1198133" lon="11.4438517"><ele>204.0</ele><time>2026-04-03T14:38:42.26Z</time></trkpt><trkpt lat="43.119685" lon="11.4437767"><ele>200.75</ele><time>2026-04-03T14:38:43.26Z</time></trkpt><trkpt lat="43.119555" lon="11.443695"><ele>197.5</ele><time>2026-04-03T14:38:44.26Z</time></trkpt><trkpt lat="43.11943" lon="11.4436167"><ele>194.25</ele><time>2026-04-03T14:38:45.26Z</time></trkpt><trkpt lat="43.1193067" lon="11.4435383"><ele>191.0</ele><time>2026-04-03T14:38:46.26Z</time></trkpt><trkpt lat="43.1191867" lon="11.443455"><ele>191.0</ele><time>2026-04-03T14:38:47.26Z</time></trkpt><trkpt lat="43.11907" lon="11.443345"><ele>191.0</ele><time>2026-04-03T14:38:48.26Z</time></trkpt><trkpt lat="43.11895" lon="11.44325"><ele>191.0</ele><time>2026-04-03T14:38:49.261Z</time></trkpt><trkpt lat="43.11884" lon="11.4431483"><ele>191.0</ele><time>2026-04-03T14:38:50.26Z</time></trkpt><trkpt lat="43.1187483" lon="11.4430433"><ele>187.25</ele><time>2026-04-03T14:38:51.26Z</time></trkpt><trkpt lat="43.1186583" lon="11.4429317"><ele>183.5</ele><time>2026-04-03T14:38:52.26Z</time></trkpt><trkpt lat="43.1185817" lon="11.44283"><ele>179.75</ele><time>2026-04-03T14:38:53.26Z</time></trkpt><trkpt lat="43.1184883" lon="11.4427333"><ele>176.0</ele><time>2026-04-03T14:38:54.261Z</time></trkpt><trkpt lat="43.1183967" lon="11.4426467"><ele>176.0</ele><time>2026-04-03T14:38:55.261Z</time></trkpt><trkpt lat="43.1182967" lon="11.44257"><ele>176.0</ele><time>2026-04-03T14:38:56.26Z</time></trkpt><trkpt lat="43.1182" lon="11.44249"><ele>176.0</ele><time>2026-04-03T14:38:57.261Z</time></trkpt><trkpt lat="43.11811" lon="11.4424067"><ele>176.0</ele><time>2026-04-03T14:38:58.26Z</time></trkpt><trkpt lat="43.118025" lon="11.4423367"><ele>176.0</ele><time>2026-04-03T14:38:59.26Z</time></trkpt><trkpt lat="43.1179383" lon="11.4422633"><ele>176.0</ele><time>2026-04-03T14:39:00.261Z</time></trkpt><trkpt lat="43.1178533" lon="11.44219"><ele>176.0</ele><time>2026-04-03T14:39:01.261Z</time></trkpt><trkpt lat="43.1177717" lon="11.4421333"><ele>176.0</ele><time>2026-04-03T14:39:02.26Z</time></trkpt><trkpt lat="43.117685" lon="11.44207"><ele>176.0</ele><time>2026-04-03T14:39:03.26Z</time></trkpt><trkpt lat="43.1176067" lon="11.4420417"><ele>176.0</ele><time>2026-04-03T14:39:04.26Z</time></trkpt><trkpt lat="43.1175183" lon="11.4420317"><ele>174.4</ele><time>2026-04-03T14:39:05.26Z</time></trkpt><trkpt lat="43.11743" lon="11.4420383"><ele>172.8</ele><time>2026-04-03T14:39:06.261Z</time></trkpt><trkpt lat="43.1173383" lon="11.442045"><ele>171.20000000000002</ele><time>2026-04-03T14:39:07.261Z</time></trkpt><trkpt lat="43.117245" lon="11.4420717"><ele>169.60000000000002</ele><time>2026-04-03T14:39:08.261Z</time></trkpt><trkpt lat="43.1171533" lon="11.4421317"><ele>168.0</ele><time>2026-04-03T14:39:09.26Z</time></trkpt><trkpt lat="43.1170733" lon="11.4421983"><ele>168.0</ele><time>2026-04-03T14:39:10.261Z</time></trkpt><trkpt lat="43.1169833" lon="11.44226"><ele>168.0</ele><time>2026-04-03T14:39:11.26Z</time></trkpt><trkpt lat="43.1168883" lon="11.4423"><ele>168.0</ele><time>2026-04-03T14:39:12.26Z</time></trkpt><trkpt lat="43.1167883" lon="11.442325"><ele>168.0</ele><time>2026-04-03T14:39:13.26Z</time></trkpt><trkpt lat="43.1166933" lon="11.4423417"><ele>168.0</ele><time>2026-04-03T14:39:14.26Z</time></trkpt><trkpt lat="43.11661" lon="11.4423333"><ele>168.0</ele><time>2026-04-03T14:39:15.261Z</time></trkpt><trkpt lat="43.116535" lon="11.4423017"><ele>168.0</ele><time>2026-04-03T14:39:16.26Z</time></trkpt><trkpt lat="43.1164567" lon="11.44223"><ele>168.0</ele><time>2026-04-03T14:39:17.26Z</time></trkpt><trkpt lat="43.116375" lon="11.44214"><ele>168.0</ele><time>2026-04-03T14:39:18.26Z</time></trkpt><trkpt lat="43.11631" lon="11.4420317"><ele>168.0</ele><time>2026-04-03T14:39:19.261Z</time></trkpt><trkpt lat="43.1162333" lon="11.4419267"><ele>166.20000000000002</ele><time>2026-04-03T14:39:20.26Z</time></trkpt><trkpt lat="43.11616" lon="11.4418267"><ele>164.4</ele><time>2026-04-03T14:39:21.26Z</time></trkpt><trkpt lat="43.1160883" lon="11.441735"><ele>162.60000000000002</ele><time>2026-04-03T14:39:22.261Z</time></trkpt><trkpt lat="43.11601" lon="11.4416517"><ele>160.8</ele><time>2026-04-03T14:39:23.261Z</time></trkpt><trkpt lat="43.115935" lon="11.4415767"><ele>159.0</ele><time>2026-04-03T14:39:24.261Z</time></trkpt><trkpt lat="43.1158617" lon="11.44149"><ele>159.0</ele><time>2026-04-03T14:39:25.26Z</time></trkpt><trkpt lat="43.1157817" lon="11.4414083"><ele>159.0</ele><time>2026-04-03T14:39:26.261Z</time></trkpt><trkpt lat="43.1157" lon="11.441345"><ele>159.0</ele><time>2026-04-03T14:39:27.26Z</time></trkpt><trkpt lat="43.115615" lon="11.4412933"><ele>159.0</ele><time>2026-04-03T14:39:28.261Z</time></trkpt><trkpt lat="43.1155233" lon="11.441255"><ele>159.0</ele><time>2026-04-03T14:39:29.26Z</time></trkpt><trkpt lat="43.115435" lon="11.4412667"><ele>157.6</ele><time>2026-04-03T14:39:30.26Z</time></trkpt><trkpt lat="43.1153267" lon="11.4412817"><ele>156.2</ele><time>2026-04-03T14:39:31.26Z</time></trkpt><trkpt lat="43.1152217" lon="11.4413067"><ele>154.79999999999998</ele><time>2026-04-03T14:39:32.26Z</time></trkpt><trkpt lat="43.11512" lon="11.4413233"><ele>153.4</ele><time>2026-04-03T14:39:33.26Z</time></trkpt><trkpt lat="43.115015" lon="11.4413417"><ele>152.0</ele><time>2026-04-03T14:39:34.26Z</time></trkpt><trkpt lat="43.1149117" lon="11.44134"><ele>149.79999999999998</ele><time>2026-04-03T14:39:35.26Z</time></trkpt><trkpt lat="43.11481" lon="11.4413383"><ele>147.6</ele><time>2026-04-03T14:39:36.26Z</time></trkpt><trkpt lat="43.1147" lon="11.4413383"><ele>145.39999999999998</ele><time>2026-04-03T14:39:37.26Z</time></trkpt><trkpt lat="43.1145867" lon="11.441355"><ele>143.2</ele><time>2026-04-03T14:39:38.26Z</time></trkpt><trkpt lat="43.1144817" lon="11.441365"><ele>141.0</ele><time>2026-04-03T14:39:39.26Z</time></trkpt><trkpt lat="43.1143733" lon="11.44138"><ele>141.0</ele><time>2026-04-03T14:39:40.261Z</time></trkpt><trkpt lat="43.11426" lon="11.4413917"><ele>141.0</ele><time>2026-04-03T14:39:41.261Z</time></trkpt><trkpt lat="43.1141533" lon="11.4414033"><ele>141.0</ele><time>2026-04-03T14:39:42.26Z</time></trkpt><trkpt lat="43.1140333" lon="11.4414083"><ele>141.0</ele><time>2026-04-03T14:39:43.26Z</time></trkpt><trkpt lat="43.11391" lon="11.4414167"><ele>140.25</ele><time>2026-04-03T14:39:44.26Z</time></trkpt><trkpt lat="43.1137833" lon="11.4414283"><ele>139.5</ele><time>2026-04-03T14:39:45.26Z</time></trkpt><trkpt lat="43.1136533" lon="11.4414417"><ele>138.75</ele><time>2026-04-03T14:39:46.26Z</time></trkpt><trkpt lat="43.11353" lon="11.4414583"><ele>138.0</ele><time>2026-04-03T14:39:47.26Z</time></trkpt><trkpt lat="43.113405" lon="11.441475"><ele>138.0</ele><time>2026-04-03T14:39:48.26Z</time></trkpt><trkpt lat="43.1132767" lon="11.441485"><ele>138.0</ele><time>2026-04-03T14:39:49.26Z</time></trkpt><trkpt lat="43.1131583" lon="11.4414867"><ele>138.0</ele><time>2026-04-03T14:39:50.26Z</time></trkpt><trkpt lat="43.1130317" lon="11.4414983"><ele>138.0</ele><time>2026-04-03T14:39:51.26Z</time></trkpt><trkpt lat="43.1129183" lon="11.4415167"><ele>137.75</ele><time>2026-04-03T14:39:52.26Z</time></trkpt><trkpt lat="43.1128" lon="11.4415217"><ele>137.5</ele><time>2026-04-03T14:39:53.26Z</time></trkpt><trkpt lat="43.11269" lon="11.441535"><ele>137.25</ele><time>2026-04-03T14:39:54.26Z</time></trkpt><trkpt lat="43.11258" lon="11.44155"><ele>137.0</ele><time>2026-04-03T14:39:55.261Z</time></trkpt><trkpt lat="43.11247" lon="11.44156"><ele>136.75</ele><time>2026-04-03T14:39:56.26Z</time></trkpt><trkpt lat="43.11236" lon="11.4415767"><ele>136.5</ele><time>2026-04-03T14:39:57.261Z</time></trkpt><trkpt lat="43.1122483" lon="11.441595"><ele>136.25</ele><time>2026-04-03T14:39:58.26Z</time></trkpt><trkpt lat="43.1121233" lon="11.4416067"><ele>136.0</ele><time>2026-04-03T14:39:59.261Z</time></trkpt><trkpt lat="43.1120167" lon="11.4416083"><ele>136.0</ele><time>2026-04-03T14:40:00.26Z</time></trkpt><trkpt lat="43.1119033" lon="11.4416167"><ele>136.0</ele><time>2026-04-03T14:40:01.26Z</time></trkpt><trkpt lat="43.111795" lon="11.441625"><ele>136.0</ele><time>2026-04-03T14:40:02.26Z</time></trkpt><trkpt lat="43.1116967" lon="11.4416417"><ele>136.0</ele><time>2026-04-03T14:40:03.26Z</time></trkpt><trkpt lat="43.1116117" lon="11.4416533"><ele>136.0</ele><time>2026-04-03T14:40:04.26Z</time></trkpt><trkpt lat="43.1115317" lon="11.44166"><ele>135.83333333333334</ele><time>2026-04-03T14:40:05.261Z</time></trkpt><trkpt lat="43.111445" lon="11.4416667"><ele>135.66666666666669</ele><time>2026-04-03T14:40:06.26Z</time></trkpt><trkpt lat="43.1113667" lon="11.4416833"><ele>135.5</ele><time>2026-04-03T14:40:07.261Z</time></trkpt><trkpt lat="43.1112917" lon="11.4417033"><ele>135.33333333333334</ele><time>2026-04-03T14:40:08.26Z</time></trkpt><trkpt lat="43.11122" lon="11.441715"><ele>135.16666666666666</ele><time>2026-04-03T14:40:09.26Z</time></trkpt><trkpt lat="43.11115" lon="11.44172"><ele>135.0</ele><time>2026-04-03T14:40:10.26Z</time></trkpt><trkpt lat="43.1110767" lon="11.4417317"><ele>135.0</ele><time>2026-04-03T14:40:11.261Z</time></trkpt><trkpt lat="43.1110117" lon="11.44174"><ele>135.0</ele><time>2026-04-03T14:40:12.26Z</time></trkpt><trkpt lat="43.1109417" lon="11.4417467"><ele>135.0</ele><time>2026-04-03T14:40:13.26Z</time></trkpt><trkpt lat="43.11086" lon="11.4417517"><ele>135.0</ele><time>2026-04-03T14:40:14.26Z</time></trkpt><trkpt lat="43.1107667" lon="11.4417467"><ele>135.0</ele><time>2026-04-03T14:40:15.261Z</time></trkpt><trkpt lat="43.11066" lon="11.4417433"><ele>135.0</ele><time>2026-04-03T14:40:16.26Z</time></trkpt><trkpt lat="43.1105383" lon="11.44174"><ele>134.5</ele><time>2026-04-03T14:40:17.26Z</time></trkpt><trkpt lat="43.1104167" lon="11.4417467"><ele>134.0</ele><time>2026-04-03T14:40:18.26Z</time></trkpt><trkpt lat="43.110285" lon="11.441775"><ele>133.5</ele><time>2026-04-03T14:40:19.26Z</time></trkpt><trkpt lat="43.110145" lon="11.4418117"><ele>133.0</ele><time>2026-04-03T14:40:20.26Z</time></trkpt><trkpt lat="43.1099933" lon="11.4418617"><ele>133.0</ele><time>2026-04-03T14:40:21.26Z</time></trkpt><trkpt lat="43.1098417" lon="11.441915"><ele>133.0</ele><time>2026-04-03T14:40:22.26Z</time></trkpt><trkpt lat="43.1096933" lon="11.4419767"><ele>133.0</ele><time>2026-04-03T14:40:23.26Z</time></trkpt><trkpt lat="43.10955" lon="11.4420367"><ele>133.0</ele><time>2026-04-03T14:40:24.26Z</time></trkpt><trkpt lat="43.10941" lon="11.44209"><ele>133.0</ele><time>2026-04-03T14:40:25.26Z</time></trkpt><trkpt lat="43.1092733" lon="11.442145"><ele>133.0</ele><time>2026-04-03T14:40:26.26Z</time></trkpt><trkpt lat="43.10913" lon="11.4421917"><ele>133.0</ele><time>2026-04-03T14:40:27.26Z</time></trkpt><trkpt lat="43.1089817" lon="11.4422167"><ele>133.0</ele><time>2026-04-03T14:40:28.26Z</time></trkpt><trkpt lat="43.1088383" lon="11.4422467"><ele>133.0</ele><time>2026-04-03T14:40:29.26Z</time></trkpt><trkpt lat="43.10869" lon="11.4422733"><ele>133.0</ele><time>2026-04-03T14:40:30.26Z</time></trkpt><trkpt lat="43.1085433" lon="11.4423"><ele>133.0</ele><time>2026-04-03T14:40:31.261Z</time></trkpt><trkpt lat="43.1083933" lon="11.4423333"><ele>133.0</ele><time>2026-04-03T14:40:32.26Z</time></trkpt><trkpt lat="43.1082533" lon="11.442355"><ele>133.0</ele><time>2026-04-03T14:40:33.261Z</time></trkpt><trkpt lat="43.1081367" lon="11.4423783"><ele>133.0</ele><time>2026-04-03T14:40:34.26Z</time></trkpt><trkpt lat="43.1080317" lon="11.442405"><ele>133.0</ele><time>2026-04-03T14:40:35.26Z</time></trkpt><trkpt lat="43.10791" lon="11.44243"><ele>133.25</ele><time>2026-04-03T14:40:36.26Z</time></trkpt><trkpt lat="43.10779" lon="11.4424567"><ele>133.5</ele><time>2026-04-03T14:40:37.26Z</time></trkpt><trkpt lat="43.10766" lon="11.442455"><ele>133.75</ele><time>2026-04-03T14:40:38.26Z</time></trkpt><trkpt lat="43.1075317" lon="11.4424317"><ele>134.0</ele><time>2026-04-03T14:40:39.26Z</time></trkpt><trkpt lat="43.1074183" lon="11.4423867"><ele>133.25</ele><time>2026-04-03T14:40:40.261Z</time></trkpt><trkpt lat="43.1073217" lon="11.44229"><ele>132.5</ele><time>2026-04-03T14:40:41.26Z</time></trkpt><trkpt lat="43.10724" lon="11.44217"><ele>131.75</ele><time>2026-04-03T14:40:42.26Z</time></trkpt><trkpt lat="43.10715" lon="11.44205"><ele>131.0</ele><time>2026-04-03T14:40:43.26Z</time></trkpt><trkpt lat="43.1070633" lon="11.4419283"><ele>131.0</ele><time>2026-04-03T14:40:44.26Z</time></trkpt><trkpt lat="43.1069533" lon="11.4417783"><ele>131.0</ele><time>2026-04-03T14:40:45.26Z</time></trkpt><trkpt lat="43.1068417" lon="11.4416317"><ele>131.0</ele><time>2026-04-03T14:40:46.26Z</time></trkpt><trkpt lat="43.106745" lon="11.4414917"><ele>131.0</ele><time>2026-04-03T14:40:47.26Z</time></trkpt><trkpt lat="43.1066533" lon="11.441345"><ele>131.0</ele><time>2026-04-03T14:40:48.26Z</time></trkpt><trkpt lat="43.1065567" lon="11.4411917"><ele>131.0</ele><time>2026-04-03T14:40:49.26Z</time></trkpt><trkpt lat="43.1064683" lon="11.4410417"><ele>131.0</ele><time>2026-04-03T14:40:50.26Z</time></trkpt><trkpt lat="43.10636" lon="11.4408933"><ele>131.0</ele><time>2026-04-03T14:40:51.26Z</time></trkpt><trkpt lat="43.1062467" lon="11.4407433"><ele>131.0</ele><time>2026-04-03T14:40:52.26Z</time></trkpt><trkpt lat="43.10613" lon="11.4406"><ele>131.0</ele><time>2026-04-03T14:40:53.26Z</time></trkpt><trkpt lat="43.1060317" lon="11.4404567"><ele>131.0</ele><time>2026-04-03T14:40:54.26Z</time></trkpt><trkpt lat="43.1059383" lon="11.440325"><ele>131.0</ele><time>2026-04-03T14:40:55.261Z</time></trkpt><trkpt lat="43.1058517" lon="11.4401967"><ele>131.0</ele><time>2026-04-03T14:40:56.26Z</time></trkpt><trkpt lat="43.105765" lon="11.4400633"><ele>131.0</ele><time>2026-04-03T14:40:57.261Z</time></trkpt><trkpt lat="43.1056567" lon="11.439935"><ele>130.75</ele><time>2026-04-03T14:40:58.26Z</time></trkpt><trkpt lat="43.1055367" lon="11.4398033"><ele>130.5</ele><time>2026-04-03T14:40:59.261Z</time></trkpt><trkpt lat="43.1054367" lon="11.4396767"><ele>130.25</ele><time>2026-04-03T14:41:00.26Z</time></trkpt><trkpt lat="43.1053533" lon="11.4395517"><ele>130.0</ele><time>2026-04-03T14:41:01.261Z</time></trkpt><trkpt lat="43.1052767" lon="11.4394267"><ele>129.75</ele><time>2026-04-03T14:41:02.261Z</time></trkpt><trkpt lat="43.1052017" lon="11.4392933"><ele>129.5</ele><time>2026-04-03T14:41:03.26Z</time></trkpt><trkpt lat="43.1051217" lon="11.4391517"><ele>129.25</ele><time>2026-04-03T14:41:04.26Z</time></trkpt><trkpt lat="43.1050367" lon="11.439005"><ele>129.0</ele><time>2026-04-03T14:41:05.261Z</time></trkpt><trkpt lat="43.1049417" lon="11.43886"><ele>129.5</ele><time>2026-04-03T14:41:06.26Z</time></trkpt><trkpt lat="43.1048583" lon="11.4387017"><ele>130.0</ele><time>2026-04-03T14:41:07.26Z</time></trkpt><trkpt lat="43.1047567" lon="11.43855"><ele>130.5</ele><time>2026-04-03T14:41:08.26Z</time></trkpt><trkpt lat="43.1046517" lon="11.4384017"><ele>131.0</ele><time>2026-04-03T14:41:09.26Z</time></trkpt><trkpt lat="43.1045467" lon="11.4382517"><ele>131.0</ele><time>2026-04-03T14:41:10.261Z</time></trkpt><trkpt lat="43.104435" lon="11.43811"><ele>131.0</ele><time>2026-04-03T14:41:11.26Z</time></trkpt><trkpt lat="43.1043133" lon="11.4379683"><ele>131.0</ele><time>2026-04-03T14:41:12.26Z</time></trkpt><trkpt lat="43.1041817" lon="11.4378233"><ele>131.33333333333331</ele><time>2026-04-03T14:41:13.26Z</time></trkpt><trkpt lat="43.104065" lon="11.4376717"><ele>131.66666666666666</ele><time>2026-04-03T14:41:14.26Z</time></trkpt><trkpt lat="43.1039567" lon="11.4375183"><ele>132.0</ele><time>2026-04-03T14:41:15.26Z</time></trkpt><trkpt lat="43.1038467" lon="11.4373583"><ele>132.0</ele><time>2026-04-03T14:41:16.261Z</time></trkpt><trkpt lat="43.103755" lon="11.4372133"><ele>132.0</ele><time>2026-04-03T14:41:17.26Z</time></trkpt><trkpt lat="43.1036533" lon="11.437065"><ele>132.0</ele><time>2026-04-03T14:41:18.259Z</time></trkpt><trkpt lat="43.1035417" lon="11.43691"><ele>132.0</ele><time>2026-04-03T14:41:19.259Z</time></trkpt><trkpt lat="43.1034383" lon="11.4367617"><ele>132.66666666666666</ele><time>2026-04-03T14:41:20.259Z</time></trkpt><trkpt lat="43.1033317" lon="11.4366083"><ele>133.33333333333331</ele><time>2026-04-03T14:41:21.259Z</time></trkpt><trkpt lat="43.10324" lon="11.436445"><ele>134.0</ele><time>2026-04-03T14:41:22.259Z</time></trkpt><trkpt lat="43.1031317" lon="11.4363017"><ele>134.5</ele><time>2026-04-03T14:41:23.259Z</time></trkpt><trkpt lat="43.1030367" lon="11.4361733"><ele>135.0</ele><time>2026-04-03T14:41:24.259Z</time></trkpt><trkpt lat="43.10295" lon="11.436065"><ele>135.5</ele><time>2026-04-03T14:41:25.259Z</time></trkpt><trkpt lat="43.1028667" lon="11.4359517"><ele>136.0</ele><time>2026-04-03T14:41:26.259Z</time></trkpt><trkpt lat="43.102785" lon="11.43584"><ele>136.0</ele><time>2026-04-03T14:41:27.259Z</time></trkpt><trkpt lat="43.1027067" lon="11.4357133"><ele>136.0</ele><time>2026-04-03T14:41:28.26Z</time></trkpt><trkpt lat="43.1026217" lon="11.4355867"><ele>136.0</ele><time>2026-04-03T14:41:29.26Z</time></trkpt><trkpt lat="43.1025367" lon="11.4354583"><ele>136.0</ele><time>2026-04-03T14:41:30.259Z</time></trkpt><trkpt lat="43.10246" lon="11.4353433"><ele>136.75</ele><time>2026-04-03T14:41:31.259Z</time></trkpt><trkpt lat="43.10238" lon="11.4352183"><ele>137.5</ele><time>2026-04-03T14:41:32.26Z</time></trkpt><trkpt lat="43.1023017" lon="11.435085"><ele>138.25</ele><time>2026-04-03T14:41:33.259Z</time></trkpt><trkpt lat="43.102245" lon="11.4349383"><ele>139.0</ele><time>2026-04-03T14:41:34.26Z</time></trkpt><trkpt lat="43.1022183" lon="11.4347883"><ele>140.5</ele><time>2026-04-03T14:41:35.259Z</time></trkpt><trkpt lat="43.1022067" lon="11.43462"><ele>142.0</ele><time>2026-04-03T14:41:36.259Z</time></trkpt><trkpt lat="43.1022183" lon="11.4344567"><ele>143.5</ele><time>2026-04-03T14:41:37.26Z</time></trkpt><trkpt lat="43.1022467" lon="11.4342783"><ele>145.0</ele><time>2026-04-03T14:41:38.259Z</time></trkpt><trkpt lat="43.10228" lon="11.4341017"><ele>145.0</ele><time>2026-04-03T14:41:39.259Z</time></trkpt><trkpt lat="43.1023033" lon="11.4339233"><ele>145.0</ele><time>2026-04-03T14:41:40.259Z</time></trkpt><trkpt lat="43.1023283" lon="11.433755"><ele>145.0</ele><time>2026-04-03T14:41:41.259Z</time></trkpt><trkpt lat="43.1023433" lon="11.4335883"><ele>145.0</ele><time>2026-04-03T14:41:42.259Z</time></trkpt><trkpt lat="43.1023467" lon="11.4334367"><ele>145.25</ele><time>2026-04-03T14:41:43.259Z</time></trkpt><trkpt lat="43.1023283" lon="11.4332867"><ele>145.5</ele><time>2026-04-03T14:41:44.259Z</time></trkpt><trkpt lat="43.1023033" lon="11.4331267"><ele>145.75</ele><time>2026-04-03T14:41:45.259Z</time></trkpt><trkpt lat="43.1022533" lon="11.4329833"><ele>146.0</ele><time>2026-04-03T14:41:46.26Z</time></trkpt><trkpt lat="43.1021917" lon="11.4328533"><ele>146.0</ele><time>2026-04-03T14:41:47.259Z</time></trkpt><trkpt lat="43.1021417" lon="11.432725"><ele>146.0</ele><time>2026-04-03T14:41:48.259Z</time></trkpt><trkpt lat="43.1020733" lon="11.4326183"><ele>146.0</ele><time>2026-04-03T14:41:49.259Z</time></trkpt><trkpt lat="43.1019733" lon="11.43254"><ele>146.0</ele><time>2026-04-03T14:41:50.259Z</time></trkpt><trkpt lat="43.10186" lon="11.4324917"><ele>146.0</ele><time>2026-04-03T14:41:51.259Z</time></trkpt><trkpt lat="43.101735" lon="11.43247"><ele>146.0</ele><time>2026-04-03T14:41:52.26Z</time></trkpt><trkpt lat="43.1016067" lon="11.4324617"><ele>146.0</ele><time>2026-04-03T14:41:53.259Z</time></trkpt><trkpt lat="43.1014767" lon="11.43246"><ele>146.0</ele><time>2026-04-03T14:41:54.259Z</time></trkpt><trkpt lat="43.1013467" lon="11.4324417"><ele>146.0</ele><time>2026-04-03T14:41:55.26Z</time></trkpt><trkpt lat="43.1012217" lon="11.4324233"><ele>147.5</ele><time>2026-04-03T14:41:56.26Z</time></trkpt><trkpt lat="43.1010967" lon="11.4324117"><ele>149.0</ele><time>2026-04-03T14:41:57.259Z</time></trkpt><trkpt lat="43.1009633" lon="11.4323983"><ele>150.5</ele><time>2026-04-03T14:41:58.259Z</time></trkpt><trkpt lat="43.1008183" lon="11.4323867"><ele>152.0</ele><time>2026-04-03T14:41:59.26Z</time></trkpt><trkpt lat="43.1006667" lon="11.43238"><ele>154.0</ele><time>2026-04-03T14:42:00.259Z</time></trkpt><trkpt lat="43.100515" lon="11.4323717"><ele>156.0</ele><time>2026-04-03T14:42:01.259Z</time></trkpt><trkpt lat="43.1003533" lon="11.43235"><ele>158.0</ele><time>2026-04-03T14:42:02.259Z</time></trkpt><trkpt lat="43.100175" lon="11.4323317"><ele>158.0</ele><time>2026-04-03T14:42:03.259Z</time></trkpt><trkpt lat="43.1000033" lon="11.4323167"><ele>158.0</ele><time>2026-04-03T14:42:04.259Z</time></trkpt><trkpt lat="43.0998283" lon="11.4323"><ele>158.0</ele><time>2026-04-03T14:42:05.259Z</time></trkpt><trkpt lat="43.0996433" lon="11.4322833"><ele>159.0</ele><time>2026-04-03T14:42:06.259Z</time></trkpt><trkpt lat="43.0994717" lon="11.43226"><ele>160.0</ele><time>2026-04-03T14:42:07.26Z</time></trkpt><trkpt lat="43.0993233" lon="11.4322517"><ele>161.0</ele><time>2026-04-03T14:42:08.26Z</time></trkpt><trkpt lat="43.0991817" lon="11.4322483"><ele>160.0</ele><time>2026-04-03T14:42:09.259Z</time></trkpt><trkpt lat="43.0990733" lon="11.432265"><ele>159.0</ele><time>2026-04-03T14:42:10.26Z</time></trkpt><trkpt lat="43.0989517" lon="11.43227"><ele>158.0</ele><time>2026-04-03T14:42:11.259Z</time></trkpt><trkpt lat="43.09879" lon="11.4322383"><ele>157.0</ele><time>2026-04-03T14:42:12.259Z</time></trkpt><trkpt lat="43.09863" lon="11.43218"><ele>158.5</ele><time>2026-04-03T14:42:13.259Z</time></trkpt><trkpt lat="43.0984917" lon="11.4320883"><ele>160.0</ele><time>2026-04-03T14:42:14.259Z</time></trkpt><trkpt lat="43.0983667" lon="11.4319867"><ele>161.5</ele><time>2026-04-03T14:42:15.259Z</time></trkpt><trkpt lat="43.0982483" lon="11.43188"><ele>163.0</ele><time>2026-04-03T14:42:16.259Z</time></trkpt><trkpt lat="43.09813" lon="11.4317533"><ele>163.0</ele><time>2026-04-03T14:42:17.26Z</time></trkpt><trkpt lat="43.098005" lon="11.4316417"><ele>163.0</ele><time>2026-04-03T14:42:18.259Z</time></trkpt><trkpt lat="43.09787" lon="11.43154"><ele>163.0</ele><time>2026-04-03T14:42:19.259Z</time></trkpt><trkpt lat="43.097735" lon="11.43143"><ele>163.0</ele><time>2026-04-03T14:42:20.259Z</time></trkpt><trkpt lat="43.09762" lon="11.4313183"><ele>163.0</ele><time>2026-04-03T14:42:21.259Z</time></trkpt><trkpt lat="43.0975033" lon="11.4312083"><ele>163.0</ele><time>2026-04-03T14:42:22.26Z</time></trkpt><trkpt lat="43.0973833" lon="11.431095"><ele>163.0</ele><time>2026-04-03T14:42:23.259Z</time></trkpt><trkpt lat="43.0972733" lon="11.4309467"><ele>164.33333333333334</ele><time>2026-04-03T14:42:24.259Z</time></trkpt><trkpt lat="43.09713" lon="11.4308483"><ele>165.66666666666666</ele><time>2026-04-03T14:42:25.259Z</time></trkpt><trkpt lat="43.0969883" lon="11.4307433"><ele>167.0</ele><time>2026-04-03T14:42:26.26Z</time></trkpt><trkpt lat="43.0968733" lon="11.43066"><ele>167.0</ele><time>2026-04-03T14:42:27.259Z</time></trkpt><trkpt lat="43.0967583" lon="11.430545"><ele>167.0</ele><time>2026-04-03T14:42:28.259Z</time></trkpt><trkpt lat="43.0966433" lon="11.4304267"><ele>167.0</ele><time>2026-04-03T14:42:29.259Z</time></trkpt><trkpt lat="43.0965417" lon="11.430295"><ele>167.0</ele><time>2026-04-03T14:42:30.259Z</time></trkpt><trkpt lat="43.09643" lon="11.4301617"><ele>168.0</ele><time>2026-04-03T14:42:31.26Z</time></trkpt><trkpt lat="43.0963233" lon="11.4300367"><ele>169.0</ele><time>2026-04-03T14:42:32.259Z</time></trkpt><trkpt lat="43.096215" lon="11.4299233"><ele>170.0</ele><time>2026-04-03T14:42:33.259Z</time></trkpt><trkpt lat="43.0961117" lon="11.4297883"><ele>171.0</ele><time>2026-04-03T14:42:34.259Z</time></trkpt><trkpt lat="43.0960033" lon="11.4296667"><ele>172.33333333333334</ele><time>2026-04-03T14:42:35.259Z</time></trkpt><trkpt lat="43.0958767" lon="11.4295517"><ele>173.66666666666669</ele><time>2026-04-03T14:42:36.26Z</time></trkpt><trkpt lat="43.09574" lon="11.4294633"><ele>175.0</ele><time>2026-04-03T14:42:37.259Z</time></trkpt><trkpt lat="43.0956067" lon="11.4293667"><ele>176.33333333333334</ele><time>2026-04-03T14:42:38.259Z</time></trkpt><trkpt lat="43.095475" lon="11.4292583"><ele>177.66666666666666</ele><time>2026-04-03T14:42:39.259Z</time></trkpt><trkpt lat="43.0953433" lon="11.4291517"><ele>179.0</ele><time>2026-04-03T14:42:40.26Z</time></trkpt><trkpt lat="43.095205" lon="11.429045"><ele>179.0</ele><time>2026-04-03T14:42:41.259Z</time></trkpt><trkpt lat="43.095075" lon="11.4289517"><ele>179.0</ele><time>2026-04-03T14:42:42.259Z</time></trkpt><trkpt lat="43.094945" lon="11.4288483"><ele>179.0</ele><time>2026-04-03T14:42:43.259Z</time></trkpt><trkpt lat="43.0948017" lon="11.4287467"><ele>181.33333333333331</ele><time>2026-04-03T14:42:44.259Z</time></trkpt><trkpt lat="43.0946667" lon="11.428645"><ele>183.66666666666666</ele><time>2026-04-03T14:42:45.26Z</time></trkpt><trkpt lat="43.0945233" lon="11.4285433"><ele>186.0</ele><time>2026-04-03T14:42:46.259Z</time></trkpt><trkpt lat="43.0943883" lon="11.4284483"><ele>186.0</ele><time>2026-04-03T14:42:47.259Z</time></trkpt><trkpt lat="43.0942383" lon="11.4283417"><ele>186.0</ele><time>2026-04-03T14:42:48.259Z</time></trkpt><trkpt lat="43.0940933" lon="11.4282433"><ele>186.0</ele><time>2026-04-03T14:42:49.259Z</time></trkpt><trkpt lat="43.0939383" lon="11.4281333"><ele>186.66666666666666</ele><time>2026-04-03T14:42:50.26Z</time></trkpt><trkpt lat="43.09379" lon="11.4280267"><ele>187.33333333333331</ele><time>2026-04-03T14:42:51.26Z</time></trkpt><trkpt lat="43.0936467" lon="11.427925"><ele>188.0</ele><time>2026-04-03T14:42:52.259Z</time></trkpt><trkpt lat="43.0935" lon="11.4278183"><ele>189.0</ele><time>2026-04-03T14:42:53.26Z</time></trkpt><trkpt lat="43.09335" lon="11.4277233"><ele>190.0</ele><time>2026-04-03T14:42:54.259Z</time></trkpt><trkpt lat="43.09321" lon="11.42762"><ele>191.0</ele><time>2026-04-03T14:42:55.26Z</time></trkpt><trkpt lat="43.0930667" lon="11.4275217"><ele>192.0</ele><time>2026-04-03T14:42:56.259Z</time></trkpt><trkpt lat="43.09293" lon="11.4274233"><ele>193.0</ele><time>2026-04-03T14:42:57.259Z</time></trkpt><trkpt lat="43.09279" lon="11.4273233"><ele>194.0</ele><time>2026-04-03T14:42:58.259Z</time></trkpt><trkpt lat="43.0926567" lon="11.42722"><ele>195.0</ele><time>2026-04-03T14:42:59.26Z</time></trkpt><trkpt lat="43.0925233" lon="11.4271217"><ele>196.0</ele><time>2026-04-03T14:43:00.259Z</time></trkpt><trkpt lat="43.0923917" lon="11.427035"><ele>197.0</ele><time>2026-04-03T14:43:01.26Z</time></trkpt><trkpt lat="43.0922567" lon="11.426935"><ele>197.75</ele><time>2026-04-03T14:43:02.259Z</time></trkpt><trkpt lat="43.09213" lon="11.4268417"><ele>198.5</ele><time>2026-04-03T14:43:03.259Z</time></trkpt><trkpt lat="43.0920083" lon="11.4267483"><ele>199.25</ele><time>2026-04-03T14:43:04.259Z</time></trkpt><trkpt lat="43.0918817" lon="11.42665"><ele>200.0</ele><time>2026-04-03T14:43:05.259Z</time></trkpt><trkpt lat="43.09175" lon="11.4265433"><ele>200.0</ele><time>2026-04-03T14:43:06.26Z</time></trkpt><trkpt lat="43.091615" lon="11.4264417"><ele>200.0</ele><time>2026-04-03T14:43:07.259Z</time></trkpt><trkpt lat="43.09148" lon="11.4263417"><ele>200.0</ele><time>2026-04-03T14:43:08.259Z</time></trkpt><trkpt lat="43.0913483" lon="11.426235"><ele>200.75</ele><time>2026-04-03T14:43:09.259Z</time></trkpt><trkpt lat="43.09123" lon="11.4261417"><ele>201.5</ele><time>2026-04-03T14:43:10.259Z</time></trkpt><trkpt lat="43.091095" lon="11.4260567"><ele>202.25</ele><time>2026-04-03T14:43:11.259Z</time></trkpt><trkpt lat="43.09095" lon="11.4260017"><ele>203.0</ele><time>2026-04-03T14:43:12.259Z</time></trkpt><trkpt lat="43.09081" lon="11.4259533"><ele>205.0</ele><time>2026-04-03T14:43:13.259Z</time></trkpt><trkpt lat="43.0906633" lon="11.4259117"><ele>207.0</ele><time>2026-04-03T14:43:14.259Z</time></trkpt><trkpt lat="43.0905167" lon="11.4258583"><ele>209.0</ele><time>2026-04-03T14:43:15.259Z</time></trkpt><trkpt lat="43.0903667" lon="11.42582"><ele>209.0</ele><time>2026-04-03T14:43:16.259Z</time></trkpt><trkpt lat="43.0902233" lon="11.4257717"><ele>209.0</ele><time>2026-04-03T14:43:17.26Z</time></trkpt><trkpt lat="43.0900833" lon="11.4257367"><ele>209.0</ele><time>2026-04-03T14:43:18.26Z</time></trkpt><trkpt lat="43.089945" lon="11.4257083"><ele>209.0</ele><time>2026-04-03T14:43:19.259Z</time></trkpt><trkpt lat="43.0898167" lon="11.42568"><ele>210.25</ele><time>2026-04-03T14:43:20.259Z</time></trkpt><trkpt lat="43.089685" lon="11.42564"><ele>211.5</ele><time>2026-04-03T14:43:21.259Z</time></trkpt><trkpt lat="43.089555" lon="11.4256"><ele>212.75</ele><time>2026-04-03T14:43:22.26Z</time></trkpt><trkpt lat="43.08943" lon="11.4255567"><ele>214.0</ele><time>2026-04-03T14:43:23.26Z</time></trkpt><trkpt lat="43.089315" lon="11.4255133"><ele>214.0</ele><time>2026-04-03T14:43:24.259Z</time></trkpt><trkpt lat="43.0892117" lon="11.4254817"><ele>213.99999999999997</ele><time>2026-04-03T14:43:25.259Z</time></trkpt><trkpt lat="43.0891117" lon="11.4254583"><ele>213.99999999999997</ele><time>2026-04-03T14:43:26.26Z</time></trkpt><trkpt lat="43.0890233" lon="11.4254167"><ele>214.0</ele><time>2026-04-03T14:43:27.259Z</time></trkpt><trkpt lat="43.0889717" lon="11.4253333"><ele>214.0</ele><time>2026-04-03T14:43:28.26Z</time></trkpt><trkpt lat="43.0889317" lon="11.42522"><ele>219.2</ele><time>2026-04-03T14:43:29.259Z</time></trkpt><trkpt lat="43.0889083" lon="11.4250917"><ele>224.39999999999998</ele><time>2026-04-03T14:43:30.259Z</time></trkpt><trkpt lat="43.088925" lon="11.4249417"><ele>229.6</ele><time>2026-04-03T14:43:31.259Z</time></trkpt><trkpt lat="43.08895" lon="11.4247867"><ele>234.8</ele><time>2026-04-03T14:43:32.259Z</time></trkpt><trkpt lat="43.08897" lon="11.424625"><ele>240.0</ele><time>2026-04-03T14:43:33.259Z</time></trkpt><trkpt lat="43.0889967" lon="11.42447"><ele>237.75</ele><time>2026-04-03T14:43:34.26Z</time></trkpt><trkpt lat="43.08902" lon="11.4243133"><ele>235.5</ele><time>2026-04-03T14:43:35.259Z</time></trkpt><trkpt lat="43.0890517" lon="11.4241517"><ele>233.25</ele><time>2026-04-03T14:43:36.259Z</time></trkpt><trkpt lat="43.0890833" lon="11.424005"><ele>231.0</ele><time>2026-04-03T14:43:37.26Z</time></trkpt><trkpt lat="43.0891017" lon="11.4238683"><ele>232.4</ele><time>2026-04-03T14:43:38.259Z</time></trkpt><trkpt lat="43.0891167" lon="11.4237283"><ele>233.8</ele><time>2026-04-03T14:43:39.26Z</time></trkpt><trkpt lat="43.0891233" lon="11.4235967"><ele>235.20000000000002</ele><time>2026-04-03T14:43:40.259Z</time></trkpt><trkpt lat="43.0891283" lon="11.42346"><ele>236.60000000000002</ele><time>2026-04-03T14:43:41.26Z</time></trkpt><trkpt lat="43.089125" lon="11.4233233"><ele>238.0</ele><time>2026-04-03T14:43:42.259Z</time></trkpt><trkpt lat="43.0891017" lon="11.4231833"><ele>244.0</ele><time>2026-04-03T14:43:43.259Z</time></trkpt><trkpt lat="43.0890617" lon="11.4230417"><ele>250.0</ele><time>2026-04-03T14:43:44.259Z</time></trkpt><trkpt lat="43.089015" lon="11.422885"><ele>256.0</ele><time>2026-04-03T14:43:45.259Z</time></trkpt><trkpt lat="43.0889567" lon="11.4227167"><ele>262.0</ele><time>2026-04-03T14:43:46.259Z</time></trkpt><trkpt lat="43.0888933" lon="11.4225567"><ele>262.25</ele><time>2026-04-03T14:43:47.259Z</time></trkpt><trkpt lat="43.0888283" lon="11.4224017"><ele>262.5</ele><time>2026-04-03T14:43:48.259Z</time></trkpt><trkpt lat="43.0887783" lon="11.4222433"><ele>262.75</ele><time>2026-04-03T14:43:49.259Z</time></trkpt><trkpt lat="43.0887183" lon="11.4221"><ele>263.0</ele><time>2026-04-03T14:43:50.259Z</time></trkpt><trkpt lat="43.088675" lon="11.4219883"><ele>262.0</ele><time>2026-04-03T14:43:51.26Z</time></trkpt><trkpt lat="43.0886267" lon="11.42189"><ele>261.0</ele><time>2026-04-03T14:43:52.259Z</time></trkpt><trkpt lat="43.0885767" lon="11.42181"><ele>260.0</ele><time>2026-04-03T14:43:53.259Z</time></trkpt><trkpt lat="43.0885117" lon="11.4217333"><ele>259.0</ele><time>2026-04-03T14:43:54.259Z</time></trkpt><trkpt lat="43.0884483" lon="11.421675"><ele>258.0</ele><time>2026-04-03T14:43:55.26Z</time></trkpt><trkpt lat="43.0883817" lon="11.42164"><ele>257.0</ele><time>2026-04-03T14:43:56.26Z</time></trkpt><trkpt lat="43.0883267" lon="11.421695"><ele>260.6666666666667</ele><time>2026-04-03T14:43:57.259Z</time></trkpt><trkpt lat="43.088255" lon="11.4217583"><ele>264.33333333333337</ele><time>2026-04-03T14:43:58.259Z</time></trkpt><trkpt lat="43.0882017" lon="11.4218417"><ele>268.0</ele><time>2026-04-03T14:43:59.259Z</time></trkpt><trkpt lat="43.08815" lon="11.421935"><ele>271.6666666666667</ele><time>2026-04-03T14:44:00.259Z</time></trkpt><trkpt lat="43.0881083" lon="11.4220317"><ele>275.3333333333333</ele><time>2026-04-03T14:44:01.259Z</time></trkpt><trkpt lat="43.0880733" lon="11.422145"><ele>279.0</ele><time>2026-04-03T14:44:02.259Z</time></trkpt><trkpt lat="43.0880367" lon="11.4222933"><ele>279.75</ele><time>2026-04-03T14:44:03.259Z</time></trkpt><trkpt lat="43.088005" lon="11.4225017"><ele>280.5</ele><time>2026-04-03T14:44:04.259Z</time></trkpt><trkpt lat="43.0879633" lon="11.4226833"><ele>281.25</ele><time>2026-04-03T14:44:05.259Z</time></trkpt><trkpt lat="43.087925" lon="11.4228533"><ele>282.0</ele><time>2026-04-03T14:44:06.259Z</time></trkpt><trkpt lat="43.08789" lon="11.4230183"><ele>282.2</ele><time>2026-04-03T14:44:07.259Z</time></trkpt><trkpt lat="43.08784" lon="11.4231633"><ele>282.4</ele><time>2026-04-03T14:44:08.259Z</time></trkpt><trkpt lat="43.0877783" lon="11.423305"><ele>282.6</ele><time>2026-04-03T14:44:09.259Z</time></trkpt><trkpt lat="43.0877133" lon="11.4234283"><ele>282.8</ele><time>2026-04-03T14:44:10.259Z</time></trkpt><trkpt lat="43.0876483" lon="11.4235217"><ele>283.0</ele><time>2026-04-03T14:44:11.26Z</time></trkpt><trkpt lat="43.0876" lon="11.4235817"><ele>283.0</ele><time>2026-04-03T14:44:12.259Z</time></trkpt><trkpt lat="43.087525" lon="11.4235"><ele>283.0</ele><time>2026-04-03T14:44:15.259Z</time></trkpt><trkpt lat="43.08747" lon="11.4233217"><ele>283.0</ele><time>2026-04-03T14:44:17.26Z</time></trkpt><trkpt lat="43.0874467" lon="11.4232117"><ele>283.0</ele><time>2026-04-03T14:44:18.259Z</time></trkpt><trkpt lat="43.0874333" lon="11.4230883"><ele>283.0</ele><time>2026-04-03T14:44:19.26Z</time></trkpt><trkpt lat="43.0874117" lon="11.422965"><ele>288.4</ele><time>2026-04-03T14:44:20.26Z</time></trkpt><trkpt lat="43.0873817" lon="11.422855"><ele>293.8</ele><time>2026-04-03T14:44:21.259Z</time></trkpt><trkpt lat="43.0873467" lon="11.422765"><ele>299.2</ele><time>2026-04-03T14:44:22.259Z</time></trkpt><trkpt lat="43.08727" lon="11.42264"><ele>304.6</ele><time>2026-04-03T14:44:24.259Z</time></trkpt><trkpt lat="43.0871783" lon="11.4226017"><ele>310.0</ele><time>2026-04-03T14:44:26.259Z</time></trkpt><trkpt lat="43.0871067" lon="11.4227133"><ele>310.0</ele><time>2026-04-03T14:44:28.26Z</time></trkpt><trkpt lat="43.0870567" lon="11.4228583"><ele>310.0</ele><time>2026-04-03T14:44:30.259Z</time></trkpt><trkpt lat="43.0870383" lon="11.4229533"><ele>310.0</ele><time>2026-04-03T14:44:31.259Z</time></trkpt><trkpt lat="43.0870183" lon="11.4230783"><ele>310.0</ele><time>2026-04-03T14:44:32.259Z</time></trkpt><trkpt lat="43.087005" lon="11.4232083"><ele>310.0</ele><time>2026-04-03T14:44:33.259Z</time></trkpt><trkpt lat="43.0869833" lon="11.423335"><ele>310.0</ele><time>2026-04-03T14:44:34.259Z</time></trkpt><trkpt lat="43.086945" lon="11.4234567"><ele>310.0</ele><time>2026-04-03T14:44:35.259Z</time></trkpt><trkpt lat="43.0869067" lon="11.4235767"><ele>310.0</ele><time>2026-04-03T14:44:36.259Z</time></trkpt><trkpt lat="43.08687" lon="11.4236733"><ele>310.0</ele><time>2026-04-03T14:44:37.26Z</time></trkpt><trkpt lat="43.0867817" lon="11.4237967"><ele>310.0</ele><time>2026-04-03T14:44:39.259Z</time></trkpt><trkpt lat="43.0866733" lon="11.4238267"><ele>308.16666666666663</ele><time>2026-04-03T14:44:41.259Z</time></trkpt><trkpt lat="43.0866067" lon="11.4238217"><ele>306.3333333333333</ele><time>2026-04-03T14:44:42.259Z</time></trkpt><trkpt lat="43.08654" lon="11.4237983"><ele>304.5</ele><time>2026-04-03T14:44:43.259Z</time></trkpt><trkpt lat="43.08647" lon="11.4237617"><ele>302.6666666666667</ele><time>2026-04-03T14:44:44.259Z</time></trkpt><trkpt lat="43.0864067" lon="11.4237167"><ele>300.83333333333337</ele><time>2026-04-03T14:44:45.259Z</time></trkpt><trkpt lat="43.0863467" lon="11.4236133"><ele>299.0</ele><time>2026-04-03T14:44:47.26Z</time></trkpt><trkpt lat="43.0863633" lon="11.4234533"><ele>303.1428571428571</ele><time>2026-04-03T14:44:49.26Z</time></trkpt><trkpt lat="43.0863867" lon="11.4233683"><ele>307.2857142857143</ele><time>2026-04-03T14:44:50.259Z</time></trkpt><trkpt lat="43.0864217" lon="11.4232683"><ele>311.42857142857144</ele><time>2026-04-03T14:44:51.259Z</time></trkpt><trkpt lat="43.0864417" lon="11.4231733"><ele>315.57142857142856</ele><time>2026-04-03T14:44:52.259Z</time></trkpt><trkpt lat="43.0864617" lon="11.4230733"><ele>319.7142857142857</ele><time>2026-04-03T14:44:53.259Z</time></trkpt><trkpt lat="43.0864767" lon="11.4229717"><ele>323.85714285714283</ele><time>2026-04-03T14:44:54.259Z</time></trkpt><trkpt lat="43.0864783" lon="11.4228733"><ele>328.0</ele><time>2026-04-03T14:44:55.259Z</time></trkpt><trkpt lat="43.0864783" lon="11.4227817"><ele>328.0</ele><time>2026-04-03T14:44:56.259Z</time></trkpt><trkpt lat="43.08644" lon="11.422635"><ele>328.0</ele><time>2026-04-03T14:44:58.26Z</time></trkpt><trkpt lat="43.0863567" lon="11.4225467"><ele>328.0</ele><time>2026-04-03T14:45:00.259Z</time></trkpt><trkpt lat="43.086295" lon="11.422605"><ele>328.0</ele><time>2026-04-03T14:45:01.259Z</time></trkpt><trkpt lat="43.0861867" lon="11.4227283"><ele>328.0</ele><time>2026-04-03T14:45:03.259Z</time></trkpt><trkpt lat="43.0861333" lon="11.422805"><ele>328.0</ele><time>2026-04-03T14:45:04.259Z</time></trkpt><trkpt lat="43.08609" lon="11.4228917"><ele>328.0</ele><time>2026-04-03T14:45:05.259Z</time></trkpt><trkpt lat="43.08605" lon="11.4229833"><ele>328.0</ele><time>2026-04-03T14:45:06.26Z</time></trkpt><trkpt lat="43.086005" lon="11.4230733"><ele>328.0</ele><time>2026-04-03T14:45:07.259Z</time></trkpt><trkpt lat="43.0859567" lon="11.4231567"><ele>328.0</ele><time>2026-04-03T14:45:08.259Z</time></trkpt><trkpt lat="43.0859083" lon="11.4232317"><ele>328.0</ele><time>2026-04-03T14:45:09.259Z</time></trkpt><trkpt lat="43.08584" lon="11.4232917"><ele>331.4</ele><time>2026-04-03T14:45:10.259Z</time></trkpt><trkpt lat="43.0857617" lon="11.4233133"><ele>334.79999999999995</ele><time>2026-04-03T14:45:11.259Z</time></trkpt><trkpt lat="43.085695" lon="11.423235"><ele>338.2</ele><time>2026-04-03T14:45:12.26Z</time></trkpt><trkpt lat="43.085625" lon="11.423155"><ele>341.6</ele><time>2026-04-03T14:45:13.259Z</time></trkpt><trkpt lat="43.0855667" lon="11.423045"><ele>345.0</ele><time>2026-04-03T14:45:14.26Z</time></trkpt><trkpt lat="43.0855217" lon="11.4229233"><ele>345.8</ele><time>2026-04-03T14:45:15.26Z</time></trkpt><trkpt lat="43.0854917" lon="11.4227983"><ele>346.6</ele><time>2026-04-03T14:45:16.259Z</time></trkpt><trkpt lat="43.08547" lon="11.422665"><ele>347.4</ele><time>2026-04-03T14:45:17.26Z</time></trkpt><trkpt lat="43.0854383" lon="11.42253"><ele>348.2</ele><time>2026-04-03T14:45:18.259Z</time></trkpt><trkpt lat="43.0854" lon="11.4223933"><ele>349.0</ele><time>2026-04-03T14:45:19.259Z</time></trkpt><trkpt lat="43.0853617" lon="11.4222533"><ele>346.8333333333333</ele><time>2026-04-03T14:45:20.259Z</time></trkpt><trkpt lat="43.0853217" lon="11.4221333"><ele>344.66666666666663</ele><time>2026-04-03T14:45:21.26Z</time></trkpt><trkpt lat="43.0852783" lon="11.422035"><ele>342.5</ele><time>2026-04-03T14:45:22.26Z</time></trkpt><trkpt lat="43.0852417" lon="11.42195"><ele>340.3333333333333</ele><time>2026-04-03T14:45:23.259Z</time></trkpt><trkpt lat="43.0851883" lon="11.42186"><ele>338.1666666666667</ele><time>2026-04-03T14:45:24.259Z</time></trkpt><trkpt lat="43.0851267" lon="11.4217717"><ele>336.0</ele><time>2026-04-03T14:45:25.259Z</time></trkpt><trkpt lat="43.08505" lon="11.421695"><ele>336.0</ele><time>2026-04-03T14:45:26.26Z</time></trkpt><trkpt lat="43.0849733" lon="11.4216267"><ele>336.0</ele><time>2026-04-03T14:45:27.259Z</time></trkpt><trkpt lat="43.0848683" lon="11.421565"><ele>336.0</ele><time>2026-04-03T14:45:28.259Z</time></trkpt><trkpt lat="43.08473" lon="11.4215333"><ele>336.0</ele><time>2026-04-03T14:45:29.259Z</time></trkpt><trkpt lat="43.0845883" lon="11.4214967"><ele>334.5</ele><time>2026-04-03T14:45:30.259Z</time></trkpt><trkpt lat="43.0844317" lon="11.421455"><ele>333.0</ele><time>2026-04-03T14:45:31.259Z</time></trkpt><trkpt lat="43.0842967" lon="11.421385"><ele>331.5</ele><time>2026-04-03T14:45:32.26Z</time></trkpt><trkpt lat="43.0841833" lon="11.4213083"><ele>330.0</ele><time>2026-04-03T14:45:33.259Z</time></trkpt><trkpt lat="43.0840733" lon="11.4212283"><ele>333.4</ele><time>2026-04-03T14:45:34.259Z</time></trkpt><trkpt lat="43.0839767" lon="11.4211583"><ele>336.8</ele><time>2026-04-03T14:45:35.26Z</time></trkpt><trkpt lat="43.0838783" lon="11.421085"><ele>340.20000000000005</ele><time>2026-04-03T14:45:36.259Z</time></trkpt><trkpt lat="43.083795" lon="11.4210217"><ele>343.6</ele><time>2026-04-03T14:45:37.259Z</time></trkpt><trkpt lat="43.08372" lon="11.4209783"><ele>347.0</ele><time>2026-04-03T14:45:38.259Z</time></trkpt><trkpt lat="43.0836333" lon="11.4209417"><ele>347.0</ele><time>2026-04-03T14:45:39.259Z</time></trkpt><trkpt lat="43.0835467" lon="11.4209067"><ele>347.0</ele><time>2026-04-03T14:45:40.259Z</time></trkpt><trkpt lat="43.0834667" lon="11.4208833"><ele>347.0</ele><time>2026-04-03T14:45:41.259Z</time></trkpt><trkpt lat="43.083385" lon="11.4208617"><ele>347.0</ele><time>2026-04-03T14:45:42.26Z</time></trkpt><trkpt lat="43.08331" lon="11.42084"><ele>347.0</ele><time>2026-04-03T14:45:43.259Z</time></trkpt><trkpt lat="43.08323" lon="11.4208117"><ele>347.0</ele><time>2026-04-03T14:45:44.26Z</time></trkpt><trkpt lat="43.083155" lon="11.4207833"><ele>348.14285714285717</ele><time>2026-04-03T14:45:45.259Z</time></trkpt><trkpt lat="43.0830833" lon="11.42076"><ele>349.2857142857143</ele><time>2026-04-03T14:45:46.259Z</time></trkpt><trkpt lat="43.0830183" lon="11.42074"><ele>350.42857142857144</ele><time>2026-04-03T14:45:47.259Z</time></trkpt><trkpt lat="43.0829533" lon="11.4207233"><ele>351.57142857142856</ele><time>2026-04-03T14:45:48.26Z</time></trkpt><trkpt lat="43.0828917" lon="11.4207033"><ele>352.7142857142857</ele><time>2026-04-03T14:45:49.259Z</time></trkpt><trkpt lat="43.082825" lon="11.4206833"><ele>353.85714285714283</ele><time>2026-04-03T14:45:50.259Z</time></trkpt><trkpt lat="43.0827533" lon="11.420655"><ele>355.0</ele><time>2026-04-03T14:45:51.259Z</time></trkpt><trkpt lat="43.0826817" lon="11.420625"><ele>355.0</ele><time>2026-04-03T14:45:52.26Z</time></trkpt><trkpt lat="43.08261" lon="11.4206083"><ele>355.0</ele><time>2026-04-03T14:45:53.259Z</time></trkpt><trkpt lat="43.0825383" lon="11.4205917"><ele>355.0</ele><time>2026-04-03T14:45:54.26Z</time></trkpt><trkpt lat="43.082475" lon="11.420575"><ele>355.0</ele><time>2026-04-03T14:45:55.259Z</time></trkpt><trkpt lat="43.0823667" lon="11.4205617"><ele>355.0</ele><time>2026-04-03T14:45:57.259Z</time></trkpt><trkpt lat="43.082275" lon="11.42055"><ele>355.0</ele><time>2026-04-03T14:45:59.259Z</time></trkpt><trkpt lat="43.08219" lon="11.42055"><ele>354.8</ele><time>2026-04-03T14:46:01.26Z</time></trkpt><trkpt lat="43.0820883" lon="11.4205633"><ele>354.6</ele><time>2026-04-03T14:46:03.26Z</time></trkpt><trkpt lat="43.081935" lon="11.4205633"><ele>354.4</ele><time>2026-04-03T14:46:05.259Z</time></trkpt><trkpt lat="43.0818417" lon="11.4205433"><ele>354.2</ele><time>2026-04-03T14:46:06.26Z</time></trkpt><trkpt lat="43.08176" lon="11.4204983"><ele>354.0</ele><time>2026-04-03T14:46:07.259Z</time></trkpt><trkpt lat="43.081685" lon="11.42044"><ele>355.0</ele><time>2026-04-03T14:46:08.26Z</time></trkpt><trkpt lat="43.08161" lon="11.420365"><ele>356.0</ele><time>2026-04-03T14:46:09.259Z</time></trkpt><trkpt lat="43.0815317" lon="11.4202733"><ele>357.0</ele><time>2026-04-03T14:46:10.259Z</time></trkpt><trkpt lat="43.0814617" lon="11.4201783"><ele>358.0</ele><time>2026-04-03T14:46:11.259Z</time></trkpt><trkpt lat="43.081405" lon="11.4200817"><ele>359.0</ele><time>2026-04-03T14:46:12.259Z</time></trkpt><trkpt lat="43.08136" lon="11.4199983"><ele>360.1666666666667</ele><time>2026-04-03T14:46:13.259Z</time></trkpt><trkpt lat="43.0813117" lon="11.4199233"><ele>361.33333333333337</ele><time>2026-04-03T14:46:14.259Z</time></trkpt><trkpt lat="43.0812633" lon="11.41985"><ele>362.5</ele><time>2026-04-03T14:46:15.259Z</time></trkpt><trkpt lat="43.0812133" lon="11.4197683"><ele>363.6666666666667</ele><time>2026-04-03T14:46:16.26Z</time></trkpt><trkpt lat="43.0811583" lon="11.4196833"><ele>364.8333333333333</ele><time>2026-04-03T14:46:17.259Z</time></trkpt><trkpt lat="43.081085" lon="11.4196083"><ele>366.0</ele><time>2026-04-03T14:46:18.259Z</time></trkpt><trkpt lat="43.0809983" lon="11.419545"><ele>366.0</ele><time>2026-04-03T14:46:19.259Z</time></trkpt><trkpt lat="43.0808967" lon="11.4194967"><ele>366.0</ele><time>2026-04-03T14:46:20.259Z</time></trkpt><trkpt lat="43.0808" lon="11.4194567"><ele>366.0</ele><time>2026-04-03T14:46:21.26Z</time></trkpt><trkpt lat="43.08071" lon="11.41943"><ele>366.0</ele><time>2026-04-03T14:46:22.259Z</time></trkpt><trkpt lat="43.0806133" lon="11.41941"><ele>366.0</ele><time>2026-04-03T14:46:23.259Z</time></trkpt><trkpt lat="43.0805133" lon="11.4193967"><ele>369.8</ele><time>2026-04-03T14:46:24.26Z</time></trkpt><trkpt lat="43.0804117" lon="11.4193617"><ele>373.6</ele><time>2026-04-03T14:46:25.26Z</time></trkpt><trkpt lat="43.0803267" lon="11.41931"><ele>377.4</ele><time>2026-04-03T14:46:26.259Z</time></trkpt><trkpt lat="43.0802483" lon="11.4192367"><ele>381.2</ele><time>2026-04-03T14:46:27.259Z</time></trkpt><trkpt lat="43.08019" lon="11.41916"><ele>385.0</ele><time>2026-04-03T14:46:28.259Z</time></trkpt><trkpt lat="43.08015" lon="11.419065"><ele>385.00000000000006</ele><time>2026-04-03T14:46:29.26Z</time></trkpt><trkpt lat="43.080115" lon="11.4189733"><ele>385.0</ele><time>2026-04-03T14:46:30.259Z</time></trkpt><trkpt lat="43.08007" lon="11.4188883"><ele>385.0</ele><time>2026-04-03T14:46:31.26Z</time></trkpt><trkpt lat="43.0800117" lon="11.4188067"><ele>385.0</ele><time>2026-04-03T14:46:32.259Z</time></trkpt><trkpt lat="43.079945" lon="11.4187283"><ele>385.00000000000006</ele><time>2026-04-03T14:46:33.259Z</time></trkpt><trkpt lat="43.0798783" lon="11.41865"><ele>385.0</ele><time>2026-04-03T14:46:34.259Z</time></trkpt><trkpt lat="43.0798017" lon="11.4185817"><ele>387.4</ele><time>2026-04-03T14:46:35.259Z</time></trkpt><trkpt lat="43.079715" lon="11.4185233"><ele>389.8</ele><time>2026-04-03T14:46:36.259Z</time></trkpt><trkpt lat="43.0796183" lon="11.4184767"><ele>392.20000000000005</ele><time>2026-04-03T14:46:37.259Z</time></trkpt><trkpt lat="43.07952" lon="11.41843"><ele>394.6</ele><time>2026-04-03T14:46:38.26Z</time></trkpt><trkpt lat="43.0794283" lon="11.4183733"><ele>397.0</ele><time>2026-04-03T14:46:39.259Z</time></trkpt><trkpt lat="43.079325" lon="11.4183267"><ele>397.0</ele><time>2026-04-03T14:46:40.26Z</time></trkpt><trkpt lat="43.0792217" lon="11.4182767"><ele>397.0</ele><time>2026-04-03T14:46:41.259Z</time></trkpt><trkpt lat="43.07913" lon="11.4182267"><ele>397.0</ele><time>2026-04-03T14:46:42.259Z</time></trkpt><trkpt lat="43.07905" lon="11.4181617"><ele>397.0</ele><time>2026-04-03T14:46:43.259Z</time></trkpt><trkpt lat="43.0789717" lon="11.4181033"><ele>397.0</ele><time>2026-04-03T14:46:44.26Z</time></trkpt><trkpt lat="43.0788833" lon="11.4180417"><ele>396.6</ele><time>2026-04-03T14:46:45.26Z</time></trkpt><trkpt lat="43.0787833" lon="11.4180133"><ele>396.20000000000005</ele><time>2026-04-03T14:46:46.259Z</time></trkpt><trkpt lat="43.0786817" lon="11.4179833"><ele>395.8</ele><time>2026-04-03T14:46:47.259Z</time></trkpt><trkpt lat="43.07858" lon="11.4179717"><ele>395.4</ele><time>2026-04-03T14:46:48.259Z</time></trkpt><trkpt lat="43.078485" lon="11.4179733"><ele>395.0</ele><time>2026-04-03T14:46:49.26Z</time></trkpt><trkpt lat="43.07839" lon="11.4179533"><ele>395.0</ele><time>2026-04-03T14:46:50.26Z</time></trkpt><trkpt lat="43.0782817" lon="11.4179433"><ele>395.0</ele><time>2026-04-03T14:46:51.259Z</time></trkpt><trkpt lat="43.0781633" lon="11.41793"><ele>395.0</ele><time>2026-04-03T14:46:52.259Z</time></trkpt><trkpt lat="43.0780433" lon="11.41793"><ele>395.0</ele><time>2026-04-03T14:46:53.259Z</time></trkpt><trkpt lat="43.0779317" lon="11.4179333"><ele>397.8</ele><time>2026-04-03T14:46:54.259Z</time></trkpt><trkpt lat="43.077825" lon="11.41794"><ele>400.6</ele><time>2026-04-03T14:46:55.259Z</time></trkpt><trkpt lat="43.07772" lon="11.417945"><ele>403.4</ele><time>2026-04-03T14:46:56.259Z</time></trkpt><trkpt lat="43.0776183" lon="11.4179417"><ele>406.2</ele><time>2026-04-03T14:46:57.26Z</time></trkpt><trkpt lat="43.07752" lon="11.4179083"><ele>409.0</ele><time>2026-04-03T14:46:58.259Z</time></trkpt><trkpt lat="43.0774133" lon="11.4178767"><ele>412.6</ele><time>2026-04-03T14:46:59.259Z</time></trkpt><trkpt lat="43.0773133" lon="11.4178267"><ele>416.2</ele><time>2026-04-03T14:47:00.259Z</time></trkpt><trkpt lat="43.07722" lon="11.4177683"><ele>419.80000000000007</ele><time>2026-04-03T14:47:01.259Z</time></trkpt><trkpt lat="43.0771383" lon="11.4177083"><ele>423.40000000000003</ele><time>2026-04-03T14:47:02.259Z</time></trkpt><trkpt lat="43.0770533" lon="11.4176417"><ele>427.0</ele><time>2026-04-03T14:47:03.259Z</time></trkpt><trkpt lat="43.076975" lon="11.4175583"><ele>427.00000000000006</ele><time>2026-04-03T14:47:04.26Z</time></trkpt><trkpt lat="43.076915" lon="11.4174583"><ele>427.0</ele><time>2026-04-03T14:47:05.259Z</time></trkpt><trkpt lat="43.076875" lon="11.4173567"><ele>427.0</ele><time>2026-04-03T14:47:06.259Z</time></trkpt><trkpt lat="43.07685" lon="11.41725"><ele>427.0</ele><time>2026-04-03T14:47:07.259Z</time></trkpt><trkpt lat="43.076825" lon="11.4171533"><ele>427.00000000000006</ele><time>2026-04-03T14:47:08.259Z</time></trkpt><trkpt lat="43.0768017" lon="11.41707"><ele>427.0</ele><time>2026-04-03T14:47:09.259Z</time></trkpt><trkpt lat="43.0767233" lon="11.416935"><ele>427.75</ele><time>2026-04-03T14:47:11.259Z</time></trkpt><trkpt lat="43.0766533" lon="11.41689"><ele>428.5</ele><time>2026-04-03T14:47:12.259Z</time></trkpt><trkpt lat="43.07655" lon="11.4168467"><ele>429.25</ele><time>2026-04-03T14:47:13.259Z</time></trkpt><trkpt lat="43.0764283" lon="11.41681"><ele>430.0</ele><time>2026-04-03T14:47:14.26Z</time></trkpt><trkpt lat="43.0762817" lon="11.4167433"><ele>430.0</ele><time>2026-04-03T14:47:15.259Z</time></trkpt><trkpt lat="43.0761283" lon="11.4166733"><ele>430.0</ele><time>2026-04-03T14:47:16.26Z</time></trkpt><trkpt lat="43.07598" lon="11.4166083"><ele>430.0</ele><time>2026-04-03T14:47:17.259Z</time></trkpt><trkpt lat="43.0758483" lon="11.4165267"><ele>431.0</ele><time>2026-04-03T14:47:18.259Z</time></trkpt><trkpt lat="43.0757183" lon="11.41644"><ele>432.0</ele><time>2026-04-03T14:47:19.259Z</time></trkpt><trkpt lat="43.0755917" lon="11.4163517"><ele>433.0</ele><time>2026-04-03T14:47:20.26Z</time></trkpt><trkpt lat="43.0754667" lon="11.4162633"><ele>434.0</ele><time>2026-04-03T14:47:21.259Z</time></trkpt><trkpt lat="43.075355" lon="11.4161667"><ele>434.25</ele><time>2026-04-03T14:47:22.26Z</time></trkpt><trkpt lat="43.07524" lon="11.4160733"><ele>434.5</ele><time>2026-04-03T14:47:23.259Z</time></trkpt><trkpt lat="43.0751267" lon="11.4159967"><ele>434.75</ele><time>2026-04-03T14:47:24.259Z</time></trkpt><trkpt lat="43.0750133" lon="11.41594"><ele>435.0</ele><time>2026-04-03T14:47:25.258Z</time></trkpt><trkpt lat="43.0748967" lon="11.41588"><ele>436.0</ele><time>2026-04-03T14:47:26.259Z</time></trkpt><trkpt lat="43.074785" lon="11.4158333"><ele>437.0</ele><time>2026-04-03T14:47:27.258Z</time></trkpt><trkpt lat="43.07468" lon="11.41579"><ele>438.0</ele><time>2026-04-03T14:47:28.258Z</time></trkpt><trkpt lat="43.0745783" lon="11.415765"><ele>439.0</ele><time>2026-04-03T14:47:29.258Z</time></trkpt><trkpt lat="43.0744917" lon="11.4157567"><ele>440.0</ele><time>2026-04-03T14:47:30.258Z</time></trkpt><trkpt lat="43.0744183" lon="11.4157217"><ele>439.99999999999994</ele><time>2026-04-03T14:47:31.258Z</time></trkpt><trkpt lat="43.0743633" lon="11.4156683"><ele>440.0</ele><time>2026-04-03T14:47:32.258Z</time></trkpt><trkpt lat="43.0743117" lon="11.415515"><ele>440.0</ele><time>2026-04-03T14:47:34.258Z</time></trkpt><trkpt lat="43.0743033" lon="11.4154267"><ele>440.0</ele><time>2026-04-03T14:47:35.258Z</time></trkpt><trkpt lat="43.0743" lon="11.41532"><ele>439.99999999999994</ele><time>2026-04-03T14:47:36.258Z</time></trkpt><trkpt lat="43.0742883" lon="11.415205"><ele>440.0</ele><time>2026-04-03T14:47:37.258Z</time></trkpt><trkpt lat="43.0742833" lon="11.4150667"><ele>442.0</ele><time>2026-04-03T14:47:38.258Z</time></trkpt><trkpt lat="43.07427" lon="11.4149267"><ele>444.0</ele><time>2026-04-03T14:47:39.259Z</time></trkpt><trkpt lat="43.0742483" lon="11.41479"><ele>446.0</ele><time>2026-04-03T14:47:40.258Z</time></trkpt><trkpt lat="43.074215" lon="11.4146667"><ele>448.0</ele><time>2026-04-03T14:47:41.258Z</time></trkpt><trkpt lat="43.0741783" lon="11.41457"><ele>450.0</ele><time>2026-04-03T14:47:42.258Z</time></trkpt><trkpt lat="43.0741417" lon="11.4144867"><ele>453.0</ele><time>2026-04-03T14:47:43.258Z</time></trkpt><trkpt lat="43.07409" lon="11.4144217"><ele>456.0</ele><time>2026-04-03T14:47:44.258Z</time></trkpt><trkpt lat="43.0740267" lon="11.4143683"><ele>459.0</ele><time>2026-04-03T14:47:45.258Z</time></trkpt><trkpt lat="43.0739533" lon="11.4143333"><ele>462.0</ele><time>2026-04-03T14:47:46.258Z</time></trkpt><trkpt lat="43.0738783" lon="11.4143083"><ele>465.0</ele><time>2026-04-03T14:47:47.259Z</time></trkpt><trkpt lat="43.0737583" lon="11.41431"><ele>468.0</ele><time>2026-04-03T14:47:48.259Z</time></trkpt><trkpt lat="43.0736367" lon="11.4143117"><ele>468.0</ele><time>2026-04-03T14:47:49.258Z</time></trkpt><trkpt lat="43.0735217" lon="11.4143067"><ele>468.0</ele><time>2026-04-03T14:47:50.258Z</time></trkpt><trkpt lat="43.0734083" lon="11.41429"><ele>468.0</ele><time>2026-04-03T14:47:51.258Z</time></trkpt><trkpt lat="43.073285" lon="11.414275"><ele>468.0</ele><time>2026-04-03T14:47:52.258Z</time></trkpt><trkpt lat="43.0731683" lon="11.414255"><ele>469.79999999999995</ele><time>2026-04-03T14:47:53.258Z</time></trkpt><trkpt lat="43.0730617" lon="11.4142433"><ele>471.59999999999997</ele><time>2026-04-03T14:47:54.258Z</time></trkpt><trkpt lat="43.0729483" lon="11.4142433"><ele>473.40000000000003</ele><time>2026-04-03T14:47:55.259Z</time></trkpt><trkpt lat="43.07284" lon="11.41425"><ele>475.20000000000005</ele><time>2026-04-03T14:47:56.258Z</time></trkpt><trkpt lat="43.0727367" lon="11.41425"><ele>477.0</ele><time>2026-04-03T14:47:57.258Z</time></trkpt><trkpt lat="43.0726333" lon="11.414245"><ele>477.0</ele><time>2026-04-03T14:47:58.258Z</time></trkpt><trkpt lat="43.07254" lon="11.414205"><ele>477.00000000000006</ele><time>2026-04-03T14:47:59.258Z</time></trkpt><trkpt lat="43.072445" lon="11.4141667"><ele>477.00000000000006</ele><time>2026-04-03T14:48:00.258Z</time></trkpt><trkpt lat="43.0723383" lon="11.4141267"><ele>477.0</ele><time>2026-04-03T14:48:01.259Z</time></trkpt><trkpt lat="43.07224" lon="11.41407"><ele>477.0</ele><time>2026-04-03T14:48:02.258Z</time></trkpt><trkpt lat="43.0721533" lon="11.4140217"><ele>476.6</ele><time>2026-04-03T14:48:03.258Z</time></trkpt><trkpt lat="43.0720683" lon="11.4139533"><ele>476.20000000000005</ele><time>2026-04-03T14:48:04.259Z</time></trkpt><trkpt lat="43.0719733" lon="11.4139233"><ele>475.8</ele><time>2026-04-03T14:48:05.258Z</time></trkpt><trkpt lat="43.07189" lon="11.4138783"><ele>475.4</ele><time>2026-04-03T14:48:06.258Z</time></trkpt><trkpt lat="43.07179" lon="11.413825"><ele>475.0</ele><time>2026-04-03T14:48:07.259Z</time></trkpt><trkpt lat="43.0717" lon="11.4137517"><ele>477.2</ele><time>2026-04-03T14:48:08.259Z</time></trkpt><trkpt lat="43.0716083" lon="11.4136867"><ele>479.4</ele><time>2026-04-03T14:48:09.259Z</time></trkpt><trkpt lat="43.07152" lon="11.4136383"><ele>481.6</ele><time>2026-04-03T14:48:10.258Z</time></trkpt><trkpt lat="43.07141" lon="11.413615"><ele>483.8</ele><time>2026-04-03T14:48:11.259Z</time></trkpt><trkpt lat="43.0713033" lon="11.4136083"><ele>486.0</ele><time>2026-04-03T14:48:12.258Z</time></trkpt><trkpt lat="43.0712133" lon="11.41364"><ele>486.0</ele><time>2026-04-03T14:48:13.258Z</time></trkpt><trkpt lat="43.0711117" lon="11.4136767"><ele>486.0</ele><time>2026-04-03T14:48:14.258Z</time></trkpt><trkpt lat="43.0710167" lon="11.4136467"><ele>486.0</ele><time>2026-04-03T14:48:15.258Z</time></trkpt><trkpt lat="43.0709217" lon="11.4136033"><ele>486.0</ele><time>2026-04-03T14:48:16.258Z</time></trkpt><trkpt lat="43.0708433" lon="11.41354"><ele>486.0</ele><time>2026-04-03T14:48:17.258Z</time></trkpt><trkpt lat="43.07077" lon="11.4134567"><ele>487.8</ele><time>2026-04-03T14:48:18.258Z</time></trkpt><trkpt lat="43.0706817" lon="11.4133533"><ele>489.6</ele><time>2026-04-03T14:48:19.258Z</time></trkpt><trkpt lat="43.0705983" lon="11.41324"><ele>491.4</ele><time>2026-04-03T14:48:20.259Z</time></trkpt><trkpt lat="43.0705267" lon="11.41313"><ele>493.2</ele><time>2026-04-03T14:48:21.258Z</time></trkpt><trkpt lat="43.0704617" lon="11.4130467"><ele>495.0</ele><time>2026-04-03T14:48:22.258Z</time></trkpt><trkpt lat="43.0703983" lon="11.4130033"><ele>495.0</ele><time>2026-04-03T14:48:23.258Z</time></trkpt><trkpt lat="43.07027" lon="11.4129533"><ele>495.0</ele><time>2026-04-03T14:48:25.258Z</time></trkpt><trkpt lat="43.070145" lon="11.412965"><ele>495.0</ele><time>2026-04-03T14:48:27.258Z</time></trkpt><trkpt lat="43.070085" lon="11.4130333"><ele>495.0</ele><time>2026-04-03T14:48:28.259Z</time></trkpt><trkpt lat="43.0700267" lon="11.4131367"><ele>495.0</ele><time>2026-04-03T14:48:29.258Z</time></trkpt><trkpt lat="43.0699833" lon="11.41323"><ele>495.0</ele><time>2026-04-03T14:48:30.258Z</time></trkpt><trkpt lat="43.069955" lon="11.4133617"><ele>495.0</ele><time>2026-04-03T14:48:31.258Z</time></trkpt><trkpt lat="43.0699367" lon="11.4134883"><ele>495.0</ele><time>2026-04-03T14:48:32.258Z</time></trkpt><trkpt lat="43.0699167" lon="11.4136"><ele>495.0</ele><time>2026-04-03T14:48:33.259Z</time></trkpt><trkpt lat="43.0699317" lon="11.413725"><ele>495.0</ele><time>2026-04-03T14:48:34.259Z</time></trkpt><trkpt lat="43.0699333" lon="11.4138583"><ele>494.8</ele><time>2026-04-03T14:48:35.258Z</time></trkpt><trkpt lat="43.0699467" lon="11.4139933"><ele>494.6</ele><time>2026-04-03T14:48:36.258Z</time></trkpt><trkpt lat="43.06995" lon="11.4141417"><ele>494.4</ele><time>2026-04-03T14:48:37.259Z</time></trkpt><trkpt lat="43.0699567" lon="11.414305"><ele>494.2</ele><time>2026-04-03T14:48:38.258Z</time></trkpt><trkpt lat="43.06995" lon="11.41446"><ele>494.0</ele><time>2026-04-03T14:48:39.258Z</time></trkpt><trkpt lat="43.06993" lon="11.414605"><ele>495.0</ele><time>2026-04-03T14:48:40.258Z</time></trkpt><trkpt lat="43.0698983" lon="11.4147317"><ele>496.0</ele><time>2026-04-03T14:48:41.259Z</time></trkpt><trkpt lat="43.069845" lon="11.4148283"><ele>497.0</ele><time>2026-04-03T14:48:42.258Z</time></trkpt><trkpt lat="43.0697983" lon="11.414935"><ele>498.0</ele><time>2026-04-03T14:48:43.259Z</time></trkpt><trkpt lat="43.0697317" lon="11.4150317"><ele>499.0</ele><time>2026-04-03T14:48:44.258Z</time></trkpt><trkpt lat="43.06964" lon="11.4151117"><ele>499.0</ele><time>2026-04-03T14:48:45.259Z</time></trkpt><trkpt lat="43.0695383" lon="11.41519"><ele>499.0</ele><time>2026-04-03T14:48:46.258Z</time></trkpt><trkpt lat="43.06943" lon="11.4152817"><ele>499.0</ele><time>2026-04-03T14:48:47.258Z</time></trkpt><trkpt lat="43.0693283" lon="11.4153683"><ele>499.0</ele><time>2026-04-03T14:48:48.258Z</time></trkpt><trkpt lat="43.0692317" lon="11.415435"><ele>497.2</ele><time>2026-04-03T14:48:49.258Z</time></trkpt><trkpt lat="43.0691367" lon="11.4154967"><ele>495.4</ele><time>2026-04-03T14:48:50.258Z</time></trkpt><trkpt lat="43.06904" lon="11.415525"><ele>493.6</ele><time>2026-04-03T14:48:51.258Z</time></trkpt><trkpt lat="43.0689283" lon="11.4155533"><ele>491.8</ele><time>2026-04-03T14:48:52.258Z</time></trkpt><trkpt lat="43.0688067" lon="11.4155917"><ele>490.0</ele><time>2026-04-03T14:48:53.258Z</time></trkpt><trkpt lat="43.0686883" lon="11.415645"><ele>489.6</ele><time>2026-04-03T14:48:54.259Z</time></trkpt><trkpt lat="43.0685883" lon="11.4157133"><ele>489.2</ele><time>2026-04-03T14:48:55.258Z</time></trkpt><trkpt lat="43.068495" lon="11.4157967"><ele>488.79999999999995</ele><time>2026-04-03T14:48:56.258Z</time></trkpt><trkpt lat="43.068415" lon="11.4158817"><ele>488.4</ele><time>2026-04-03T14:48:57.258Z</time></trkpt><trkpt lat="43.0683167" lon="11.415985"><ele>488.0</ele><time>2026-04-03T14:48:58.259Z</time></trkpt><trkpt lat="43.06822" lon="11.4160917"><ele>487.75</ele><time>2026-04-03T14:48:59.259Z</time></trkpt><trkpt lat="43.0681167" lon="11.4161833"><ele>487.5</ele><time>2026-04-03T14:49:00.258Z</time></trkpt><trkpt lat="43.0680117" lon="11.4162633"><ele>487.25</ele><time>2026-04-03T14:49:01.258Z</time></trkpt><trkpt lat="43.0679083" lon="11.4163667"><ele>487.0</ele><time>2026-04-03T14:49:02.258Z</time></trkpt><trkpt lat="43.067815" lon="11.4164317"><ele>489.0</ele><time>2026-04-03T14:49:03.258Z</time></trkpt><trkpt lat="43.0677283" lon="11.4165067"><ele>491.00000000000006</ele><time>2026-04-03T14:49:04.258Z</time></trkpt><trkpt lat="43.067645" lon="11.4165917"><ele>493.00000000000006</ele><time>2026-04-03T14:49:05.258Z</time></trkpt><trkpt lat="43.067605" lon="11.4167033"><ele>495.0</ele><time>2026-04-03T14:49:06.258Z</time></trkpt><trkpt lat="43.0675767" lon="11.4168317"><ele>497.0</ele><time>2026-04-03T14:49:07.259Z</time></trkpt><trkpt lat="43.0675367" lon="11.4169667"><ele>497.0</ele><time>2026-04-03T14:49:08.259Z</time></trkpt><trkpt lat="43.0674983" lon="11.4171017"><ele>497.0</ele><time>2026-04-03T14:49:09.258Z</time></trkpt><trkpt lat="43.0674383" lon="11.4172283"><ele>497.0</ele><time>2026-04-03T14:49:10.259Z</time></trkpt><trkpt lat="43.0673633" lon="11.4173567"><ele>497.0</ele><time>2026-04-03T14:49:11.258Z</time></trkpt><trkpt lat="43.0672817" lon="11.4174683"><ele>498.40000000000003</ele><time>2026-04-03T14:49:12.258Z</time></trkpt><trkpt lat="43.06719" lon="11.4175433"><ele>499.80000000000007</ele><time>2026-04-03T14:49:13.259Z</time></trkpt><trkpt lat="43.067095" lon="11.4175933"><ele>501.2</ele><time>2026-04-03T14:49:14.258Z</time></trkpt><trkpt lat="43.0670017" lon="11.417625"><ele>502.6</ele><time>2026-04-03T14:49:15.258Z</time></trkpt><trkpt lat="43.0669117" lon="11.4176733"><ele>504.0</ele><time>2026-04-03T14:49:16.258Z</time></trkpt><trkpt lat="43.06682" lon="11.4177267"><ele>504.0</ele><time>2026-04-03T14:49:17.258Z</time></trkpt><trkpt lat="43.06674" lon="11.4177983"><ele>504.0</ele><time>2026-04-03T14:49:18.259Z</time></trkpt><trkpt lat="43.066705" lon="11.4179183"><ele>504.0</ele><time>2026-04-03T14:49:19.258Z</time></trkpt><trkpt lat="43.0666567" lon="11.41805"><ele>504.0</ele><time>2026-04-03T14:49:20.259Z</time></trkpt><trkpt lat="43.066615" lon="11.4181767"><ele>504.0</ele><time>2026-04-03T14:49:21.258Z</time></trkpt><trkpt lat="43.066575" lon="11.4183183"><ele>500.0</ele><time>2026-04-03T14:49:22.258Z</time></trkpt><trkpt lat="43.0665517" lon="11.4184683"><ele>496.0</ele><time>2026-04-03T14:49:23.258Z</time></trkpt><trkpt lat="43.066535" lon="11.4186167"><ele>492.0</ele><time>2026-04-03T14:49:24.259Z</time></trkpt><trkpt lat="43.066515" lon="11.4187733"><ele>488.0</ele><time>2026-04-03T14:49:25.258Z</time></trkpt><trkpt lat="43.0665217" lon="11.4189317"><ele>487.4</ele><time>2026-04-03T14:49:26.259Z</time></trkpt><trkpt lat="43.066535" lon="11.4190867"><ele>486.79999999999995</ele><time>2026-04-03T14:49:27.258Z</time></trkpt><trkpt lat="43.0665483" lon="11.4192417"><ele>486.2</ele><time>2026-04-03T14:49:28.259Z</time></trkpt><trkpt lat="43.06655" lon="11.4193967"><ele>485.6</ele><time>2026-04-03T14:49:29.258Z</time></trkpt><trkpt lat="43.0665617" lon="11.419535"><ele>485.0</ele><time>2026-04-03T14:49:30.258Z</time></trkpt><trkpt lat="43.066565" lon="11.4196733"><ele>485.0</ele><time>2026-04-03T14:49:31.258Z</time></trkpt><trkpt lat="43.0665583" lon="11.4197933"><ele>485.0</ele><time>2026-04-03T14:49:32.258Z</time></trkpt><trkpt lat="43.0665433" lon="11.41991"><ele>485.0</ele><time>2026-04-03T14:49:33.258Z</time></trkpt><trkpt lat="43.0665083" lon="11.42004"><ele>485.0</ele><time>2026-04-03T14:49:34.258Z</time></trkpt><trkpt lat="43.066475" lon="11.42016"><ele>485.0</ele><time>2026-04-03T14:49:35.258Z</time></trkpt><trkpt lat="43.0664167" lon="11.4202733"><ele>485.0</ele><time>2026-04-03T14:49:36.258Z</time></trkpt><trkpt lat="43.0663467" lon="11.4203933"><ele>485.0</ele><time>2026-04-03T14:49:37.258Z</time></trkpt><trkpt lat="43.0662767" lon="11.420535"><ele>485.0</ele><time>2026-04-03T14:49:38.258Z</time></trkpt><trkpt lat="43.06621" lon="11.420695"><ele>485.0</ele><time>2026-04-03T14:49:39.258Z</time></trkpt><trkpt lat="43.06613" lon="11.4208617"><ele>486.75</ele><time>2026-04-03T14:49:40.258Z</time></trkpt><trkpt lat="43.0660583" lon="11.421"><ele>488.5</ele><time>2026-04-03T14:49:41.258Z</time></trkpt><trkpt lat="43.0659767" lon="11.4211267"><ele>490.25</ele><time>2026-04-03T14:49:42.258Z</time></trkpt><trkpt lat="43.0658917" lon="11.42126"><ele>492.0</ele><time>2026-04-03T14:49:43.258Z</time></trkpt><trkpt lat="43.0658133" lon="11.421395"><ele>490.5</ele><time>2026-04-03T14:49:44.258Z</time></trkpt><trkpt lat="43.0657367" lon="11.4215433"><ele>489.0</ele><time>2026-04-03T14:49:45.258Z</time></trkpt><trkpt lat="43.0656633" lon="11.421685"><ele>487.5</ele><time>2026-04-03T14:49:46.258Z</time></trkpt><trkpt lat="43.0655917" lon="11.421815"><ele>486.0</ele><time>2026-04-03T14:49:47.258Z</time></trkpt><trkpt lat="43.0654967" lon="11.4219283"><ele>486.0</ele><time>2026-04-03T14:49:48.258Z</time></trkpt><trkpt lat="43.0654033" lon="11.4220317"><ele>486.0</ele><time>2026-04-03T14:49:49.258Z</time></trkpt><trkpt lat="43.0653083" lon="11.4221233"><ele>486.0</ele><time>2026-04-03T14:49:50.258Z</time></trkpt><trkpt lat="43.0652083" lon="11.4221967"><ele>486.0</ele><time>2026-04-03T14:49:51.258Z</time></trkpt><trkpt lat="43.0650983" lon="11.42225"><ele>486.0</ele><time>2026-04-03T14:49:52.259Z</time></trkpt><trkpt lat="43.0649783" lon="11.4222817"><ele>486.0</ele><time>2026-04-03T14:49:53.258Z</time></trkpt><trkpt lat="43.0648667" lon="11.42231"><ele>486.0</ele><time>2026-04-03T14:49:54.258Z</time></trkpt><trkpt lat="43.064745" lon="11.422305"><ele>486.0</ele><time>2026-04-03T14:49:55.258Z</time></trkpt><trkpt lat="43.0646283" lon="11.4222933"><ele>486.0</ele><time>2026-04-03T14:49:56.258Z</time></trkpt><trkpt lat="43.064515" lon="11.4222783"><ele>486.0</ele><time>2026-04-03T14:49:57.259Z</time></trkpt><trkpt lat="43.0644067" lon="11.4222483"><ele>486.0</ele><time>2026-04-03T14:49:58.259Z</time></trkpt><trkpt lat="43.0643033" lon="11.4221933"><ele>486.0</ele><time>2026-04-03T14:49:59.258Z</time></trkpt><trkpt lat="43.0642067" lon="11.42213"><ele>486.0</ele><time>2026-04-03T14:50:00.258Z</time></trkpt><trkpt lat="43.0641183" lon="11.42206"><ele>483.20000000000005</ele><time>2026-04-03T14:50:01.258Z</time></trkpt><trkpt lat="43.0640233" lon="11.4220067"><ele>480.40000000000003</ele><time>2026-04-03T14:50:02.258Z</time></trkpt><trkpt lat="43.0639333" lon="11.4219833"><ele>477.6</ele><time>2026-04-03T14:50:03.258Z</time></trkpt><trkpt lat="43.063845" lon="11.421985"><ele>474.8</ele><time>2026-04-03T14:50:04.258Z</time></trkpt><trkpt lat="43.0637533" lon="11.422"><ele>472.0</ele><time>2026-04-03T14:50:05.258Z</time></trkpt><trkpt lat="43.0636667" lon="11.4220133"><ele>472.00000000000006</ele><time>2026-04-03T14:50:06.258Z</time></trkpt><trkpt lat="43.0635883" lon="11.42204"><ele>472.0</ele><time>2026-04-03T14:50:07.258Z</time></trkpt><trkpt lat="43.0635083" lon="11.4220867"><ele>472.0</ele><time>2026-04-03T14:50:08.259Z</time></trkpt><trkpt lat="43.063455" lon="11.4221483"><ele>472.0</ele><time>2026-04-03T14:50:09.258Z</time></trkpt><trkpt lat="43.06342" lon="11.422245"><ele>472.00000000000006</ele><time>2026-04-03T14:50:10.258Z</time></trkpt><trkpt lat="43.06342" lon="11.4223483"><ele>472.0</ele><time>2026-04-03T14:50:11.258Z</time></trkpt><trkpt lat="43.0634433" lon="11.422485"><ele>472.0</ele><time>2026-04-03T14:50:12.259Z</time></trkpt><trkpt lat="43.0634633" lon="11.42262"><ele>472.00000000000006</ele><time>2026-04-03T14:50:13.259Z</time></trkpt><trkpt lat="43.0634817" lon="11.4227583"><ele>472.00000000000006</ele><time>2026-04-03T14:50:14.258Z</time></trkpt><trkpt lat="43.06349" lon="11.4228867"><ele>472.0</ele><time>2026-04-03T14:50:15.259Z</time></trkpt><trkpt lat="43.0634683" lon="11.4230133"><ele>472.0</ele><time>2026-04-03T14:50:16.258Z</time></trkpt><trkpt lat="43.0634317" lon="11.423135"><ele>471.40000000000003</ele><time>2026-04-03T14:50:17.259Z</time></trkpt><trkpt lat="43.0633883" lon="11.4232583"><ele>470.80000000000007</ele><time>2026-04-03T14:50:18.258Z</time></trkpt><trkpt lat="43.0633633" lon="11.4233833"><ele>470.2</ele><time>2026-04-03T14:50:19.258Z</time></trkpt><trkpt lat="43.0633483" lon="11.4235167"><ele>469.6</ele><time>2026-04-03T14:50:20.258Z</time></trkpt><trkpt lat="43.0633467" lon="11.4236433"><ele>469.0</ele><time>2026-04-03T14:50:21.259Z</time></trkpt><trkpt lat="43.06335" lon="11.4237517"><ele>468.33333333333337</ele><time>2026-04-03T14:50:22.258Z</time></trkpt><trkpt lat="43.06337" lon="11.423865"><ele>467.6666666666667</ele><time>2026-04-03T14:50:23.258Z</time></trkpt><trkpt lat="43.06339" lon="11.4239767"><ele>467.0</ele><time>2026-04-03T14:50:24.259Z</time></trkpt><trkpt lat="43.0633933" lon="11.4240883"><ele>466.33333333333337</ele><time>2026-04-03T14:50:25.258Z</time></trkpt><trkpt lat="43.0633867" lon="11.4242033"><ele>465.6666666666667</ele><time>2026-04-03T14:50:26.258Z</time></trkpt><trkpt lat="43.06336" lon="11.4243267"><ele>465.0</ele><time>2026-04-03T14:50:27.258Z</time></trkpt><trkpt lat="43.063315" lon="11.42446"><ele>465.0</ele><time>2026-04-03T14:50:28.259Z</time></trkpt><trkpt lat="43.063285" lon="11.4245983"><ele>465.0</ele><time>2026-04-03T14:50:29.258Z</time></trkpt><trkpt lat="43.0632667" lon="11.4247417"><ele>465.0</ele><time>2026-04-03T14:50:30.258Z</time></trkpt><trkpt lat="43.0632433" lon="11.4248833"><ele>465.0</ele><time>2026-04-03T14:50:31.259Z</time></trkpt><trkpt lat="43.063205" lon="11.425025"><ele>465.0</ele><time>2026-04-03T14:50:32.258Z</time></trkpt><trkpt lat="43.0631483" lon="11.4251683"><ele>465.25</ele><time>2026-04-03T14:50:33.258Z</time></trkpt><trkpt lat="43.0630867" lon="11.4253"><ele>465.5</ele><time>2026-04-03T14:50:34.258Z</time></trkpt><trkpt lat="43.0629933" lon="11.4254183"><ele>465.75</ele><time>2026-04-03T14:50:35.258Z</time></trkpt><trkpt lat="43.0629283" lon="11.42555"><ele>466.0</ele><time>2026-04-03T14:50:36.258Z</time></trkpt><trkpt lat="43.062865" lon="11.4256717"><ele>466.0</ele><time>2026-04-03T14:50:37.259Z</time></trkpt><trkpt lat="43.062815" lon="11.4258083"><ele>466.0</ele><time>2026-04-03T14:50:38.258Z</time></trkpt><trkpt lat="43.06281" lon="11.4259683"><ele>466.0</ele><time>2026-04-03T14:50:39.259Z</time></trkpt><trkpt lat="43.0628033" lon="11.4261317"><ele>466.0</ele><time>2026-04-03T14:50:40.258Z</time></trkpt><trkpt lat="43.0628033" lon="11.4262817"><ele>467.0</ele><time>2026-04-03T14:50:41.259Z</time></trkpt><trkpt lat="43.0628267" lon="11.426435"><ele>468.0</ele><time>2026-04-03T14:50:42.259Z</time></trkpt><trkpt lat="43.06285" lon="11.4265867"><ele>469.0</ele><time>2026-04-03T14:50:43.258Z</time></trkpt><trkpt lat="43.0628783" lon="11.4267433"><ele>470.0</ele><time>2026-04-03T14:50:44.258Z</time></trkpt><trkpt lat="43.0628967" lon="11.4268867"><ele>470.0</ele><time>2026-04-03T14:50:45.258Z</time></trkpt><trkpt lat="43.0629" lon="11.42702"><ele>470.0</ele><time>2026-04-03T14:50:46.259Z</time></trkpt><trkpt lat="43.06289" lon="11.4271433"><ele>470.0</ele><time>2026-04-03T14:50:47.259Z</time></trkpt><trkpt lat="43.0628517" lon="11.4272517"><ele>470.0</ele><time>2026-04-03T14:50:48.258Z</time></trkpt><trkpt lat="43.0627983" lon="11.42736"><ele>470.0</ele><time>2026-04-03T14:50:49.259Z</time></trkpt><trkpt lat="43.0626833" lon="11.4274083"><ele>470.0</ele><time>2026-04-03T14:50:50.258Z</time></trkpt><trkpt lat="43.0625817" lon="11.4274567"><ele>470.0</ele><time>2026-04-03T14:50:51.259Z</time></trkpt><trkpt lat="43.0624883" lon="11.4275017"><ele>470.0</ele><time>2026-04-03T14:50:52.258Z</time></trkpt><trkpt lat="43.0623917" lon="11.4275467"><ele>470.0</ele><time>2026-04-03T14:50:53.258Z</time></trkpt><trkpt lat="43.0622733" lon="11.427585"><ele>470.0</ele><time>2026-04-03T14:50:54.259Z</time></trkpt><trkpt lat="43.0621517" lon="11.4276133"><ele>470.0</ele><time>2026-04-03T14:50:55.258Z</time></trkpt><trkpt lat="43.062035" lon="11.4276233"><ele>470.0</ele><time>2026-04-03T14:50:56.258Z</time></trkpt><trkpt lat="43.0619217" lon="11.4276067"><ele>470.0</ele><time>2026-04-03T14:50:57.258Z</time></trkpt><trkpt lat="43.0618183" lon="11.4275667"><ele>470.0</ele><time>2026-04-03T14:50:58.258Z</time></trkpt><trkpt lat="43.0617133" lon="11.4275117"><ele>470.0</ele><time>2026-04-03T14:50:59.259Z</time></trkpt><trkpt lat="43.0616183" lon="11.4274433"><ele>470.0</ele><time>2026-04-03T14:51:00.259Z</time></trkpt><trkpt lat="43.0615167" lon="11.4273983"><ele>470.0</ele><time>2026-04-03T14:51:01.258Z</time></trkpt><trkpt lat="43.0614117" lon="11.4273783"><ele>470.0</ele><time>2026-04-03T14:51:02.258Z</time></trkpt><trkpt lat="43.0613" lon="11.4273833"><ele>470.0</ele><time>2026-04-03T14:51:03.258Z</time></trkpt><trkpt lat="43.0611883" lon="11.4274067"><ele>470.2</ele><time>2026-04-03T14:51:04.259Z</time></trkpt><trkpt lat="43.0610767" lon="11.4274483"><ele>470.4</ele><time>2026-04-03T14:51:05.258Z</time></trkpt><trkpt lat="43.0609683" lon="11.42747"><ele>470.6</ele><time>2026-04-03T14:51:06.258Z</time></trkpt><trkpt lat="43.0608667" lon="11.427475"><ele>470.8</ele><time>2026-04-03T14:51:07.258Z</time></trkpt><trkpt lat="43.0607683" lon="11.4274567"><ele>471.0</ele><time>2026-04-03T14:51:08.258Z</time></trkpt><trkpt lat="43.0606667" lon="11.4274383"><ele>472.3333333333333</ele><time>2026-04-03T14:51:09.259Z</time></trkpt><trkpt lat="43.0605717" lon="11.4274167"><ele>473.66666666666663</ele><time>2026-04-03T14:51:10.258Z</time></trkpt><trkpt lat="43.06049" lon="11.42738"><ele>475.0</ele><time>2026-04-03T14:51:11.258Z</time></trkpt><trkpt lat="43.0604033" lon="11.4273483"><ele>476.3333333333333</ele><time>2026-04-03T14:51:12.258Z</time></trkpt><trkpt lat="43.0603367" lon="11.4273283"><ele>477.66666666666663</ele><time>2026-04-03T14:51:13.258Z</time></trkpt><trkpt lat="43.06027" lon="11.4273083"><ele>479.0</ele><time>2026-04-03T14:51:14.259Z</time></trkpt><trkpt lat="43.0601933" lon="11.42738"><ele>478.99999999999994</ele><time>2026-04-03T14:51:16.258Z</time></trkpt><trkpt lat="43.0601933" lon="11.427495"><ele>479.0</ele><time>2026-04-03T14:51:17.258Z</time></trkpt><trkpt lat="43.0601917" lon="11.4276017"><ele>479.0</ele><time>2026-04-03T14:51:18.258Z</time></trkpt><trkpt lat="43.0601217" lon="11.427725"><ele>479.0</ele><time>2026-04-03T14:51:20.258Z</time></trkpt><trkpt lat="43.0600533" lon="11.4277733"><ele>478.99999999999994</ele><time>2026-04-03T14:51:21.258Z</time></trkpt><trkpt lat="43.0599917" lon="11.4278267"><ele>479.0</ele><time>2026-04-03T14:51:22.258Z</time></trkpt><trkpt lat="43.0599333" lon="11.42786"><ele>479.8333333333333</ele><time>2026-04-03T14:51:23.258Z</time></trkpt><trkpt lat="43.0598567" lon="11.4278767"><ele>480.66666666666663</ele><time>2026-04-03T14:51:24.258Z</time></trkpt><trkpt lat="43.0597833" lon="11.4278633"><ele>481.5</ele><time>2026-04-03T14:51:25.258Z</time></trkpt><trkpt lat="43.0597117" lon="11.4278317"><ele>482.33333333333337</ele><time>2026-04-03T14:51:26.258Z</time></trkpt><trkpt lat="43.0596467" lon="11.4277817"><ele>483.1666666666667</ele><time>2026-04-03T14:51:27.258Z</time></trkpt><trkpt lat="43.0595917" lon="11.4277"><ele>484.0</ele><time>2026-04-03T14:51:28.258Z</time></trkpt><trkpt lat="43.059535" lon="11.427595"><ele>484.00000000000006</ele><time>2026-04-03T14:51:29.258Z</time></trkpt><trkpt lat="43.0594683" lon="11.4274983"><ele>484.0</ele><time>2026-04-03T14:51:30.258Z</time></trkpt><trkpt lat="43.059405" lon="11.4274117"><ele>484.0</ele><time>2026-04-03T14:51:31.258Z</time></trkpt><trkpt lat="43.0593433" lon="11.4273217"><ele>484.0</ele><time>2026-04-03T14:51:32.258Z</time></trkpt><trkpt lat="43.0592867" lon="11.427255"><ele>484.00000000000006</ele><time>2026-04-03T14:51:33.258Z</time></trkpt><trkpt lat="43.059215" lon="11.4272033"><ele>484.0</ele><time>2026-04-03T14:51:34.259Z</time></trkpt><trkpt lat="43.059145" lon="11.427165"><ele>487.0</ele><time>2026-04-03T14:51:35.259Z</time></trkpt><trkpt lat="43.0590783" lon="11.4271633"><ele>490.0</ele><time>2026-04-03T14:51:36.258Z</time></trkpt><trkpt lat="43.0589867" lon="11.4273467"><ele>493.0</ele><time>2026-04-03T14:51:38.259Z</time></trkpt><trkpt lat="43.0589633" lon="11.4274917"><ele>496.0</ele><time>2026-04-03T14:51:39.258Z</time></trkpt><trkpt lat="43.05895" lon="11.4275767"><ele>499.0</ele><time>2026-04-03T14:51:40.259Z</time></trkpt><trkpt lat="43.0590167" lon="11.4277233"><ele>499.0</ele><time>2026-04-03T14:51:41.258Z</time></trkpt><trkpt lat="43.05909" lon="11.4278767"><ele>499.0</ele><time>2026-04-03T14:51:42.258Z</time></trkpt><trkpt lat="43.0591417" lon="11.42802"><ele>499.0</ele><time>2026-04-03T14:51:43.259Z</time></trkpt><trkpt lat="43.0591633" lon="11.4281383"><ele>499.0</ele><time>2026-04-03T14:51:44.258Z</time></trkpt><trkpt lat="43.0591717" lon="11.4282433"><ele>499.0</ele><time>2026-04-03T14:51:45.259Z</time></trkpt><trkpt lat="43.0591733" lon="11.4283467"><ele>497.6666666666667</ele><time>2026-04-03T14:51:46.258Z</time></trkpt><trkpt lat="43.05916" lon="11.4284317"><ele>496.33333333333337</ele><time>2026-04-03T14:51:47.258Z</time></trkpt><trkpt lat="43.0591167" lon="11.4284967"><ele>495.0</ele><time>2026-04-03T14:51:48.258Z</time></trkpt><trkpt lat="43.0590517" lon="11.428555"><ele>493.66666666666663</ele><time>2026-04-03T14:51:49.258Z</time></trkpt><trkpt lat="43.05896" lon="11.428615"><ele>492.3333333333333</ele><time>2026-04-03T14:51:50.258Z</time></trkpt><trkpt lat="43.0588533" lon="11.4286933"><ele>491.0</ele><time>2026-04-03T14:51:51.258Z</time></trkpt><trkpt lat="43.05876" lon="11.42879"><ele>489.75</ele><time>2026-04-03T14:51:52.259Z</time></trkpt><trkpt lat="43.058675" lon="11.4289083"><ele>488.5</ele><time>2026-04-03T14:51:53.258Z</time></trkpt><trkpt lat="43.0585967" lon="11.4290383"><ele>487.25</ele><time>2026-04-03T14:51:54.258Z</time></trkpt><trkpt lat="43.0585267" lon="11.4291817"><ele>486.0</ele><time>2026-04-03T14:51:55.259Z</time></trkpt><trkpt lat="43.0584633" lon="11.429335"><ele>486.0</ele><time>2026-04-03T14:51:56.259Z</time></trkpt><trkpt lat="43.0584067" lon="11.4295133"><ele>486.0</ele><time>2026-04-03T14:51:57.259Z</time></trkpt><trkpt lat="43.0583433" lon="11.4296983"><ele>486.0</ele><time>2026-04-03T14:51:58.259Z</time></trkpt><trkpt lat="43.0582933" lon="11.4298783"><ele>486.0</ele><time>2026-04-03T14:51:59.258Z</time></trkpt><trkpt lat="43.0582583" lon="11.4300417"><ele>485.8</ele><time>2026-04-03T14:52:00.259Z</time></trkpt><trkpt lat="43.0582417" lon="11.4301933"><ele>485.6</ele><time>2026-04-03T14:52:01.258Z</time></trkpt><trkpt lat="43.058265" lon="11.430335"><ele>485.4</ele><time>2026-04-03T14:52:02.259Z</time></trkpt><trkpt lat="43.0582883" lon="11.4304767"><ele>485.2</ele><time>2026-04-03T14:52:03.258Z</time></trkpt><trkpt lat="43.0582917" lon="11.430625"><ele>485.0</ele><time>2026-04-03T14:52:04.258Z</time></trkpt><trkpt lat="43.058285" lon="11.4307617"><ele>484.0</ele><time>2026-04-03T14:52:05.258Z</time></trkpt><trkpt lat="43.0582533" lon="11.4308833"><ele>483.0</ele><time>2026-04-03T14:52:06.258Z</time></trkpt><trkpt lat="43.0582" lon="11.4309867"><ele>482.0</ele><time>2026-04-03T14:52:07.258Z</time></trkpt><trkpt lat="43.0581183" lon="11.431065"><ele>481.0</ele><time>2026-04-03T14:52:08.258Z</time></trkpt><trkpt lat="43.0580117" lon="11.4311333"><ele>480.0</ele><time>2026-04-03T14:52:09.258Z</time></trkpt><trkpt lat="43.0578867" lon="11.4311933"><ele>480.0</ele><time>2026-04-03T14:52:10.258Z</time></trkpt><trkpt lat="43.0577683" lon="11.4312483"><ele>480.0</ele><time>2026-04-03T14:52:11.258Z</time></trkpt><trkpt lat="43.0576583" lon="11.4313"><ele>480.0</ele><time>2026-04-03T14:52:12.258Z</time></trkpt><trkpt lat="43.0575483" lon="11.4313817"><ele>480.0</ele><time>2026-04-03T14:52:13.258Z</time></trkpt><trkpt lat="43.05746" lon="11.43148"><ele>482.25</ele><time>2026-04-03T14:52:14.258Z</time></trkpt><trkpt lat="43.0573733" lon="11.4315917"><ele>484.5</ele><time>2026-04-03T14:52:15.258Z</time></trkpt><trkpt lat="43.05729" lon="11.4316983"><ele>486.75</ele><time>2026-04-03T14:52:16.258Z</time></trkpt><trkpt lat="43.0572167" lon="11.4318183"><ele>489.0</ele><time>2026-04-03T14:52:17.258Z</time></trkpt><trkpt lat="43.0571483" lon="11.4319567"><ele>489.0</ele><time>2026-04-03T14:52:18.258Z</time></trkpt><trkpt lat="43.057075" lon="11.4321"><ele>489.0</ele><time>2026-04-03T14:52:19.259Z</time></trkpt><trkpt lat="43.0569983" lon="11.4322417"><ele>489.0</ele><time>2026-04-03T14:52:20.258Z</time></trkpt><trkpt lat="43.05692" lon="11.43238"><ele>489.0</ele><time>2026-04-03T14:52:21.259Z</time></trkpt><trkpt lat="43.056845" lon="11.4325183"><ele>489.25</ele><time>2026-04-03T14:52:22.258Z</time></trkpt><trkpt lat="43.0567667" lon="11.4326333"><ele>489.5</ele><time>2026-04-03T14:52:23.258Z</time></trkpt><trkpt lat="43.0566783" lon="11.4327467"><ele>489.75</ele><time>2026-04-03T14:52:24.259Z</time></trkpt><trkpt lat="43.056595" lon="11.432875"><ele>490.0</ele><time>2026-04-03T14:52:25.258Z</time></trkpt><trkpt lat="43.0565267" lon="11.4329833"><ele>491.4</ele><time>2026-04-03T14:52:26.258Z</time></trkpt><trkpt lat="43.0564517" lon="11.43307"><ele>492.8</ele><time>2026-04-03T14:52:27.258Z</time></trkpt><trkpt lat="43.0563683" lon="11.43315"><ele>494.20000000000005</ele><time>2026-04-03T14:52:28.258Z</time></trkpt><trkpt lat="43.056265" lon="11.433225"><ele>495.6</ele><time>2026-04-03T14:52:29.258Z</time></trkpt><trkpt lat="43.0561433" lon="11.433275"><ele>497.0</ele><time>2026-04-03T14:52:30.259Z</time></trkpt><trkpt lat="43.0560233" lon="11.4333267"><ele>497.0</ele><time>2026-04-03T14:52:31.258Z</time></trkpt><trkpt lat="43.055895" lon="11.4333683"><ele>497.0</ele><time>2026-04-03T14:52:32.258Z</time></trkpt><trkpt lat="43.0557833" lon="11.4334167"><ele>497.0</ele><time>2026-04-03T14:52:33.258Z</time></trkpt><trkpt lat="43.0556767" lon="11.4334817"><ele>497.0</ele><time>2026-04-03T14:52:34.258Z</time></trkpt><trkpt lat="43.055565" lon="11.4335433"><ele>496.75</ele><time>2026-04-03T14:52:35.259Z</time></trkpt><trkpt lat="43.0554583" lon="11.433605"><ele>496.5</ele><time>2026-04-03T14:52:36.258Z</time></trkpt><trkpt lat="43.0553417" lon="11.43365"><ele>496.25</ele><time>2026-04-03T14:52:37.258Z</time></trkpt><trkpt lat="43.0552267" lon="11.4336933"><ele>496.0</ele><time>2026-04-03T14:52:38.258Z</time></trkpt><trkpt lat="43.0551167" lon="11.433735"><ele>496.0</ele><time>2026-04-03T14:52:39.258Z</time></trkpt><trkpt lat="43.0550017" lon="11.4337883"><ele>496.0</ele><time>2026-04-03T14:52:40.258Z</time></trkpt><trkpt lat="43.054885" lon="11.4338483"><ele>496.0</ele><time>2026-04-03T14:52:41.258Z</time></trkpt><trkpt lat="43.0547717" lon="11.4339283"><ele>496.0</ele><time>2026-04-03T14:52:42.258Z</time></trkpt><trkpt lat="43.054665" lon="11.4340033"><ele>493.5</ele><time>2026-04-03T14:52:43.258Z</time></trkpt><trkpt lat="43.05455" lon="11.4340733"><ele>491.0</ele><time>2026-04-03T14:52:44.258Z</time></trkpt><trkpt lat="43.05444" lon="11.4341233"><ele>488.5</ele><time>2026-04-03T14:52:45.258Z</time></trkpt><trkpt lat="43.054325" lon="11.434175"><ele>486.0</ele><time>2026-04-03T14:52:46.259Z</time></trkpt><trkpt lat="43.05422" lon="11.43422"><ele>485.6</ele><time>2026-04-03T14:52:47.259Z</time></trkpt><trkpt lat="43.05411" lon="11.434255"><ele>485.20000000000005</ele><time>2026-04-03T14:52:48.258Z</time></trkpt><trkpt lat="43.0540133" lon="11.4342783"><ele>484.79999999999995</ele><time>2026-04-03T14:52:49.259Z</time></trkpt><trkpt lat="43.053915" lon="11.434305"><ele>484.4</ele><time>2026-04-03T14:52:50.259Z</time></trkpt><trkpt lat="43.0538183" lon="11.4343383"><ele>484.0</ele><time>2026-04-03T14:52:51.259Z</time></trkpt><trkpt lat="43.0537233" lon="11.4343767"><ele>484.0</ele><time>2026-04-03T14:52:52.259Z</time></trkpt><trkpt lat="43.05364" lon="11.4344333"><ele>484.0</ele><time>2026-04-03T14:52:53.259Z</time></trkpt><trkpt lat="43.0535433" lon="11.434515"><ele>484.0</ele><time>2026-04-03T14:52:54.258Z</time></trkpt><trkpt lat="43.0534583" lon="11.434605"><ele>484.0</ele><time>2026-04-03T14:52:55.258Z</time></trkpt><trkpt lat="43.0533817" lon="11.4347167"><ele>484.0</ele><time>2026-04-03T14:52:56.259Z</time></trkpt><trkpt lat="43.0533233" lon="11.43483"><ele>482.25</ele><time>2026-04-03T14:52:57.258Z</time></trkpt><trkpt lat="43.0532683" lon="11.4349633"><ele>480.5</ele><time>2026-04-03T14:52:58.259Z</time></trkpt><trkpt lat="43.0532117" lon="11.4351"><ele>478.75</ele><time>2026-04-03T14:52:59.258Z</time></trkpt><trkpt lat="43.0531667" lon="11.4352417"><ele>477.0</ele><time>2026-04-03T14:53:00.258Z</time></trkpt><trkpt lat="43.0531283" lon="11.4353917"><ele>474.0</ele><time>2026-04-03T14:53:01.259Z</time></trkpt><trkpt lat="43.0530983" lon="11.4355583"><ele>471.0</ele><time>2026-04-03T14:53:02.258Z</time></trkpt><trkpt lat="43.0530733" lon="11.435735"><ele>468.0</ele><time>2026-04-03T14:53:03.258Z</time></trkpt><trkpt lat="43.0530517" lon="11.435895"><ele>465.0</ele><time>2026-04-03T14:53:04.259Z</time></trkpt><trkpt lat="43.053035" lon="11.4360283"><ele>465.0</ele><time>2026-04-03T14:53:05.258Z</time></trkpt><trkpt lat="43.053015" lon="11.4361633"><ele>465.0</ele><time>2026-04-03T14:53:06.258Z</time></trkpt><trkpt lat="43.0529783" lon="11.4362933"><ele>465.0</ele><time>2026-04-03T14:53:07.258Z</time></trkpt><trkpt lat="43.05294" lon="11.436425"><ele>465.0</ele><time>2026-04-03T14:53:08.258Z</time></trkpt><trkpt lat="43.05289" lon="11.4365417"><ele>465.0</ele><time>2026-04-03T14:53:09.258Z</time></trkpt><trkpt lat="43.052825" lon="11.43665"><ele>465.6</ele><time>2026-04-03T14:53:10.258Z</time></trkpt><trkpt lat="43.0527517" lon="11.43674"><ele>466.2</ele><time>2026-04-03T14:53:11.258Z</time></trkpt><trkpt lat="43.0526683" lon="11.4368133"><ele>466.79999999999995</ele><time>2026-04-03T14:53:12.258Z</time></trkpt><trkpt lat="43.05257" lon="11.43684"><ele>467.4</ele><time>2026-04-03T14:53:13.258Z</time></trkpt><trkpt lat="43.052465" lon="11.43685"><ele>468.0</ele><time>2026-04-03T14:53:14.258Z</time></trkpt><trkpt lat="43.0523533" lon="11.43682"><ele>468.2</ele><time>2026-04-03T14:53:15.259Z</time></trkpt><trkpt lat="43.0522417" lon="11.4368017"><ele>468.4</ele><time>2026-04-03T14:53:16.258Z</time></trkpt><trkpt lat="43.0521367" lon="11.4368"><ele>468.59999999999997</ele><time>2026-04-03T14:53:17.259Z</time></trkpt><trkpt lat="43.05202" lon="11.4368167"><ele>468.79999999999995</ele><time>2026-04-03T14:53:18.258Z</time></trkpt><trkpt lat="43.0519083" lon="11.4368467"><ele>469.0</ele><time>2026-04-03T14:53:19.259Z</time></trkpt><trkpt lat="43.0517983" lon="11.4368767"><ele>469.0</ele><time>2026-04-03T14:53:20.258Z</time></trkpt><trkpt lat="43.0517083" lon="11.4369117"><ele>469.0</ele><time>2026-04-03T14:53:21.258Z</time></trkpt><trkpt lat="43.0516217" lon="11.4369533"><ele>469.0</ele><time>2026-04-03T14:53:22.258Z</time></trkpt><trkpt lat="43.0515417" lon="11.4370283"><ele>469.0</ele><time>2026-04-03T14:53:23.259Z</time></trkpt><trkpt lat="43.0514733" lon="11.43714"><ele>469.0</ele><time>2026-04-03T14:53:24.259Z</time></trkpt><trkpt lat="43.05139" lon="11.4372667"><ele>469.25</ele><time>2026-04-03T14:53:25.258Z</time></trkpt><trkpt lat="43.0513083" lon="11.4373833"><ele>469.5</ele><time>2026-04-03T14:53:26.259Z</time></trkpt><trkpt lat="43.0512" lon="11.4374883"><ele>469.75</ele><time>2026-04-03T14:53:27.259Z</time></trkpt><trkpt lat="43.0510917" lon="11.4375833"><ele>470.0</ele><time>2026-04-03T14:53:28.259Z</time></trkpt><trkpt lat="43.0509767" lon="11.4376683"><ele>470.0</ele><time>2026-04-03T14:53:29.258Z</time></trkpt><trkpt lat="43.0508633" lon="11.4377483"><ele>470.0</ele><time>2026-04-03T14:53:30.258Z</time></trkpt><trkpt lat="43.05076" lon="11.4378233"><ele>470.0</ele><time>2026-04-03T14:53:31.259Z</time></trkpt><trkpt lat="43.0506683" lon="11.4378933"><ele>470.0</ele><time>2026-04-03T14:53:32.258Z</time></trkpt><trkpt lat="43.050585" lon="11.437955"><ele>470.0</ele><time>2026-04-03T14:53:33.259Z</time></trkpt><trkpt lat="43.05053" lon="11.4380383"><ele>472.4</ele><time>2026-04-03T14:53:34.258Z</time></trkpt><trkpt lat="43.05048" lon="11.43813"><ele>474.8</ele><time>2026-04-03T14:53:35.258Z</time></trkpt><trkpt lat="43.0504383" lon="11.438235"><ele>477.20000000000005</ele><time>2026-04-03T14:53:36.258Z</time></trkpt><trkpt lat="43.0504167" lon="11.4383667"><ele>479.6</ele><time>2026-04-03T14:53:37.258Z</time></trkpt><trkpt lat="43.0503917" lon="11.4384917"><ele>482.0</ele><time>2026-04-03T14:53:38.258Z</time></trkpt><trkpt lat="43.0503683" lon="11.43863"><ele>482.0</ele><time>2026-04-03T14:53:39.258Z</time></trkpt><trkpt lat="43.0503617" lon="11.43877"><ele>482.00000000000006</ele><time>2026-04-03T14:53:40.258Z</time></trkpt><trkpt lat="43.05039" lon="11.4389083"><ele>482.00000000000006</ele><time>2026-04-03T14:53:41.258Z</time></trkpt><trkpt lat="43.0504433" lon="11.439045"><ele>482.0</ele><time>2026-04-03T14:53:42.259Z</time></trkpt><trkpt lat="43.0505017" lon="11.4391683"><ele>482.0</ele><time>2026-04-03T14:53:43.258Z</time></trkpt><trkpt lat="43.0505533" lon="11.439275"><ele>481.8</ele><time>2026-04-03T14:53:44.258Z</time></trkpt><trkpt lat="43.0505933" lon="11.43938"><ele>481.6</ele><time>2026-04-03T14:53:45.258Z</time></trkpt><trkpt lat="43.050635" lon="11.4395117"><ele>481.40000000000003</ele><time>2026-04-03T14:53:46.259Z</time></trkpt><trkpt lat="43.0506767" lon="11.4396583"><ele>481.20000000000005</ele><time>2026-04-03T14:53:47.258Z</time></trkpt><trkpt lat="43.0507117" lon="11.4398083"><ele>481.0</ele><time>2026-04-03T14:53:48.258Z</time></trkpt><trkpt lat="43.0507233" lon="11.4399517"><ele>481.0</ele><time>2026-04-03T14:53:49.258Z</time></trkpt><trkpt lat="43.050705" lon="11.44009"><ele>481.0</ele><time>2026-04-03T14:53:50.258Z</time></trkpt><trkpt lat="43.0506733" lon="11.44022"><ele>481.0</ele><time>2026-04-03T14:53:51.259Z</time></trkpt><trkpt lat="43.0506267" lon="11.4403367"><ele>481.0</ele><time>2026-04-03T14:53:52.258Z</time></trkpt><trkpt lat="43.0505617" lon="11.440435"><ele>481.0</ele><time>2026-04-03T14:53:53.259Z</time></trkpt><trkpt lat="43.0504817" lon="11.4405067"><ele>478.20000000000005</ele><time>2026-04-03T14:53:54.258Z</time></trkpt><trkpt lat="43.0504" lon="11.4405767"><ele>475.40000000000003</ele><time>2026-04-03T14:53:55.258Z</time></trkpt><trkpt lat="43.050305" lon="11.44064"><ele>472.6</ele><time>2026-04-03T14:53:56.258Z</time></trkpt><trkpt lat="43.0502133" lon="11.440725"><ele>469.8</ele><time>2026-04-03T14:53:57.259Z</time></trkpt><trkpt lat="43.05014" lon="11.4408233"><ele>467.0</ele><time>2026-04-03T14:53:58.258Z</time></trkpt><trkpt lat="43.0500817" lon="11.440945"><ele>467.0</ele><time>2026-04-03T14:53:59.258Z</time></trkpt><trkpt lat="43.0500467" lon="11.4410883"><ele>467.0</ele><time>2026-04-03T14:54:00.259Z</time></trkpt><trkpt lat="43.0500283" lon="11.44124"><ele>467.0</ele><time>2026-04-03T14:54:01.258Z</time></trkpt><trkpt lat="43.0500283" lon="11.4414017"><ele>467.0</ele><time>2026-04-03T14:54:02.258Z</time></trkpt><trkpt lat="43.050045" lon="11.4415517"><ele>466.49999999999994</ele><time>2026-04-03T14:54:03.258Z</time></trkpt><trkpt lat="43.0500567" lon="11.4416783"><ele>466.0</ele><time>2026-04-03T14:54:04.258Z</time></trkpt><trkpt lat="43.050065" lon="11.4418083"><ele>465.5</ele><time>2026-04-03T14:54:05.258Z</time></trkpt><trkpt lat="43.05007" lon="11.4419133"><ele>465.0</ele><time>2026-04-03T14:54:06.258Z</time></trkpt><trkpt lat="43.050075" lon="11.442"><ele>464.49999999999994</ele><time>2026-04-03T14:54:07.258Z</time></trkpt><trkpt lat="43.0500517" lon="11.4421167"><ele>464.0</ele><time>2026-04-03T14:54:09.258Z</time></trkpt><trkpt lat="43.0499883" lon="11.4421683"><ele>464.0</ele><time>2026-04-03T14:54:11.258Z</time></trkpt><trkpt lat="43.0500517" lon="11.4421967"><ele>464.0</ele><time>2026-04-03T14:59:49.257Z</time></trkpt><trkpt lat="43.050105" lon="11.44207"><ele>464.0</ele><time>2026-04-03T14:59:51.257Z</time></trkpt><trkpt lat="43.0501083" lon="11.441965"><ele>464.0</ele><time>2026-04-03T14:59:52.258Z</time></trkpt><trkpt lat="43.0500833" lon="11.4418133"><ele>464.0</ele><time>2026-04-03T14:59:53.257Z</time></trkpt><trkpt lat="43.05007" lon="11.4416733"><ele>464.6</ele><time>2026-04-03T14:59:54.257Z</time></trkpt><trkpt lat="43.0500583" lon="11.4415233"><ele>465.2</ele><time>2026-04-03T14:59:55.258Z</time></trkpt><trkpt lat="43.0500517" lon="11.4413767"><ele>465.80000000000007</ele><time>2026-04-03T14:59:56.257Z</time></trkpt><trkpt lat="43.0500583" lon="11.441225"><ele>466.40000000000003</ele><time>2026-04-03T14:59:57.257Z</time></trkpt><trkpt lat="43.05007" lon="11.44108"><ele>467.0</ele><time>2026-04-03T14:59:58.258Z</time></trkpt><trkpt lat="43.0500933" lon="11.4409567"><ele>467.0</ele><time>2026-04-03T14:59:59.257Z</time></trkpt><trkpt lat="43.0501367" lon="11.440845"><ele>467.00000000000006</ele><time>2026-04-03T15:00:00.258Z</time></trkpt><trkpt lat="43.050205" lon="11.44074"><ele>467.00000000000006</ele><time>2026-04-03T15:00:01.257Z</time></trkpt><trkpt lat="43.0502883" lon="11.4406483"><ele>467.0</ele><time>2026-04-03T15:00:02.257Z</time></trkpt><trkpt lat="43.0503867" lon="11.4405767"><ele>467.0</ele><time>2026-04-03T15:00:03.257Z</time></trkpt><trkpt lat="43.0504833" lon="11.440505"><ele>469.8</ele><time>2026-04-03T15:00:04.257Z</time></trkpt><trkpt lat="43.0505683" lon="11.4404267"><ele>472.6</ele><time>2026-04-03T15:00:05.257Z</time></trkpt><trkpt lat="43.0506333" lon="11.44032"><ele>475.40000000000003</ele><time>2026-04-03T15:00:06.257Z</time></trkpt><trkpt lat="43.0506817" lon="11.4402"><ele>478.20000000000005</ele><time>2026-04-03T15:00:07.257Z</time></trkpt><trkpt lat="43.0507117" lon="11.44007"><ele>481.0</ele><time>2026-04-03T15:00:08.258Z</time></trkpt><trkpt lat="43.05073" lon="11.43993"><ele>481.0</ele><time>2026-04-03T15:00:09.258Z</time></trkpt><trkpt lat="43.0507267" lon="11.4397717"><ele>481.0</ele><time>2026-04-03T15:00:10.258Z</time></trkpt><trkpt lat="43.0507033" lon="11.4396367"><ele>481.0</ele><time>2026-04-03T15:00:11.257Z</time></trkpt><trkpt lat="43.0506833" lon="11.4395033"><ele>481.0</ele><time>2026-04-03T15:00:12.258Z</time></trkpt><trkpt lat="43.05064" lon="11.4393733"><ele>481.0</ele><time>2026-04-03T15:00:13.257Z</time></trkpt><trkpt lat="43.0505767" lon="11.4392533"><ele>481.20000000000005</ele><time>2026-04-03T15:00:14.257Z</time></trkpt><trkpt lat="43.0505117" lon="11.4391517"><ele>481.40000000000003</ele><time>2026-04-03T15:00:15.257Z</time></trkpt><trkpt lat="43.0504633" lon="11.439035"><ele>481.6</ele><time>2026-04-03T15:00:16.257Z</time></trkpt><trkpt lat="43.050415" lon="11.4389133"><ele>481.8</ele><time>2026-04-03T15:00:17.257Z</time></trkpt><trkpt lat="43.05039" lon="11.4387933"><ele>482.0</ele><time>2026-04-03T15:00:18.257Z</time></trkpt><trkpt lat="43.050385" lon="11.43866"><ele>482.0</ele><time>2026-04-03T15:00:19.257Z</time></trkpt><trkpt lat="43.0503867" lon="11.4385233"><ele>482.00000000000006</ele><time>2026-04-03T15:00:20.257Z</time></trkpt><trkpt lat="43.050415" lon="11.4383817"><ele>482.00000000000006</ele><time>2026-04-03T15:00:21.257Z</time></trkpt><trkpt lat="43.05044" lon="11.4382417"><ele>482.0</ele><time>2026-04-03T15:00:22.257Z</time></trkpt><trkpt lat="43.0504933" lon="11.4381233"><ele>482.0</ele><time>2026-04-03T15:00:23.257Z</time></trkpt><trkpt lat="43.0505617" lon="11.4380233"><ele>480.75</ele><time>2026-04-03T15:00:24.257Z</time></trkpt><trkpt lat="43.0506517" lon="11.4379217"><ele>479.5</ele><time>2026-04-03T15:00:25.257Z</time></trkpt><trkpt lat="43.0507617" lon="11.4378267"><ele>478.25</ele><time>2026-04-03T15:00:26.257Z</time></trkpt><trkpt lat="43.0508683" lon="11.4377433"><ele>477.0</ele><time>2026-04-03T15:00:27.257Z</time></trkpt><trkpt lat="43.0509917" lon="11.437665"><ele>475.25</ele><time>2026-04-03T15:00:28.257Z</time></trkpt><trkpt lat="43.0511167" lon="11.4375933"><ele>473.5</ele><time>2026-04-03T15:00:29.257Z</time></trkpt><trkpt lat="43.05124" lon="11.4375017"><ele>471.75</ele><time>2026-04-03T15:00:30.257Z</time></trkpt><trkpt lat="43.0513483" lon="11.43739"><ele>470.0</ele><time>2026-04-03T15:00:31.257Z</time></trkpt><trkpt lat="43.0514383" lon="11.4372667"><ele>470.0</ele><time>2026-04-03T15:00:32.257Z</time></trkpt><trkpt lat="43.05151" lon="11.4371517"><ele>470.0</ele><time>2026-04-03T15:00:33.257Z</time></trkpt><trkpt lat="43.0515883" lon="11.4370367"><ele>470.0</ele><time>2026-04-03T15:00:34.257Z</time></trkpt><trkpt lat="43.0516617" lon="11.4369333"><ele>470.0</ele><time>2026-04-03T15:00:35.257Z</time></trkpt><trkpt lat="43.0517417" lon="11.4368867"><ele>470.0</ele><time>2026-04-03T15:00:36.257Z</time></trkpt><trkpt lat="43.0518417" lon="11.436855"><ele>469.75</ele><time>2026-04-03T15:00:37.257Z</time></trkpt><trkpt lat="43.051955" lon="11.4368233"><ele>469.5</ele><time>2026-04-03T15:00:38.258Z</time></trkpt><trkpt lat="43.0520717" lon="11.436795"><ele>469.25</ele><time>2026-04-03T15:00:39.258Z</time></trkpt><trkpt lat="43.0521867" lon="11.4367633"><ele>469.0</ele><time>2026-04-03T15:00:40.257Z</time></trkpt><trkpt lat="43.05229" lon="11.4367533"><ele>469.0</ele><time>2026-04-03T15:00:41.257Z</time></trkpt><trkpt lat="43.0524067" lon="11.4367717"><ele>469.0</ele><time>2026-04-03T15:00:42.257Z</time></trkpt><trkpt lat="43.0525133" lon="11.4368"><ele>469.0</ele><time>2026-04-03T15:00:43.257Z</time></trkpt><trkpt lat="43.0526183" lon="11.4368017"><ele>469.0</ele><time>2026-04-03T15:00:44.257Z</time></trkpt><trkpt lat="43.0527283" lon="11.436765"><ele>469.0</ele><time>2026-04-03T15:00:45.257Z</time></trkpt><trkpt lat="43.0528267" lon="11.4367017"><ele>468.79999999999995</ele><time>2026-04-03T15:00:46.257Z</time></trkpt><trkpt lat="43.0529167" lon="11.4366167"><ele>468.59999999999997</ele><time>2026-04-03T15:00:47.257Z</time></trkpt><trkpt lat="43.0529833" lon="11.4365"><ele>468.4</ele><time>2026-04-03T15:00:48.257Z</time></trkpt><trkpt lat="43.0530467" lon="11.4363767"><ele>468.2</ele><time>2026-04-03T15:00:49.257Z</time></trkpt><trkpt lat="43.05309" lon="11.43624"><ele>468.0</ele><time>2026-04-03T15:00:50.258Z</time></trkpt><trkpt lat="43.0531033" lon="11.4360867"><ele>467.25</ele><time>2026-04-03T15:00:51.257Z</time></trkpt><trkpt lat="43.0531133" lon="11.4359283"><ele>466.5</ele><time>2026-04-03T15:00:52.258Z</time></trkpt><trkpt lat="43.0531133" lon="11.4357567"><ele>465.75</ele><time>2026-04-03T15:00:53.257Z</time></trkpt><trkpt lat="43.0531317" lon="11.4355933"><ele>465.0</ele><time>2026-04-03T15:00:54.257Z</time></trkpt><trkpt lat="43.0531617" lon="11.4354233"><ele>467.75</ele><time>2026-04-03T15:00:55.258Z</time></trkpt><trkpt lat="43.053205" lon="11.43526"><ele>470.5</ele><time>2026-04-03T15:00:56.257Z</time></trkpt><trkpt lat="43.0532483" lon="11.4350933"><ele>473.25</ele><time>2026-04-03T15:00:57.257Z</time></trkpt><trkpt lat="43.0533033" lon="11.43494"><ele>476.0</ele><time>2026-04-03T15:00:58.257Z</time></trkpt><trkpt lat="43.0533583" lon="11.4347917"><ele>476.0</ele><time>2026-04-03T15:00:59.258Z</time></trkpt><trkpt lat="43.05344" lon="11.4346633"><ele>476.0</ele><time>2026-04-03T15:01:00.257Z</time></trkpt><trkpt lat="43.05353" lon="11.434545"><ele>476.0</ele><time>2026-04-03T15:01:01.257Z</time></trkpt><trkpt lat="43.05362" lon="11.4344333"><ele>476.0</ele><time>2026-04-03T15:01:02.258Z</time></trkpt><trkpt lat="43.0537217" lon="11.4343583"><ele>478.0</ele><time>2026-04-03T15:01:03.257Z</time></trkpt><trkpt lat="43.0538383" lon="11.4343217"><ele>480.0</ele><time>2026-04-03T15:01:04.257Z</time></trkpt><trkpt lat="43.0539583" lon="11.4342967"><ele>482.0</ele><time>2026-04-03T15:01:05.257Z</time></trkpt><trkpt lat="43.0540733" lon="11.434265"><ele>484.0</ele><time>2026-04-03T15:01:06.257Z</time></trkpt><trkpt lat="43.0542033" lon="11.4342283"><ele>484.5</ele><time>2026-04-03T15:01:07.257Z</time></trkpt><trkpt lat="43.0543467" lon="11.43418"><ele>485.0</ele><time>2026-04-03T15:01:08.257Z</time></trkpt><trkpt lat="43.0544883" lon="11.434115"><ele>485.5</ele><time>2026-04-03T15:01:09.257Z</time></trkpt><trkpt lat="43.0546233" lon="11.434045"><ele>486.0</ele><time>2026-04-03T15:01:10.257Z</time></trkpt><trkpt lat="43.054745" lon="11.4339717"><ele>486.0</ele><time>2026-04-03T15:01:11.257Z</time></trkpt><trkpt lat="43.0548567" lon="11.4338933"><ele>486.0</ele><time>2026-04-03T15:01:12.257Z</time></trkpt><trkpt lat="43.0549633" lon="11.4338083"><ele>486.0</ele><time>2026-04-03T15:01:13.257Z</time></trkpt><trkpt lat="43.05509" lon="11.4337433"><ele>486.0</ele><time>2026-04-03T15:01:14.257Z</time></trkpt><trkpt lat="43.0552333" lon="11.4336983"><ele>488.5</ele><time>2026-04-03T15:01:15.257Z</time></trkpt><trkpt lat="43.0553767" lon="11.4336383"><ele>491.0</ele><time>2026-04-03T15:01:16.257Z</time></trkpt><trkpt lat="43.0554933" lon="11.43359"><ele>493.5</ele><time>2026-04-03T15:01:17.257Z</time></trkpt><trkpt lat="43.055585" lon="11.43354"><ele>496.0</ele><time>2026-04-03T15:01:18.257Z</time></trkpt><trkpt lat="43.0556867" lon="11.4334717"><ele>496.25</ele><time>2026-04-03T15:01:19.257Z</time></trkpt><trkpt lat="43.0558083" lon="11.4334167"><ele>496.5</ele><time>2026-04-03T15:01:20.257Z</time></trkpt><trkpt lat="43.0559317" lon="11.4333617"><ele>496.75</ele><time>2026-04-03T15:01:21.257Z</time></trkpt><trkpt lat="43.056065" lon="11.433325"><ele>497.0</ele><time>2026-04-03T15:01:22.257Z</time></trkpt><trkpt lat="43.0561917" lon="11.4332733"><ele>497.0</ele><time>2026-04-03T15:01:23.257Z</time></trkpt><trkpt lat="43.0563067" lon="11.4332267"><ele>497.00000000000006</ele><time>2026-04-03T15:01:24.257Z</time></trkpt><trkpt lat="43.056405" lon="11.4331783"><ele>497.00000000000006</ele><time>2026-04-03T15:01:25.257Z</time></trkpt><trkpt lat="43.0564817" lon="11.43313"><ele>497.0</ele><time>2026-04-03T15:01:26.257Z</time></trkpt><trkpt lat="43.0565533" lon="11.4330533"><ele>497.0</ele><time>2026-04-03T15:01:27.257Z</time></trkpt><trkpt lat="43.0566217" lon="11.43294"><ele>495.75</ele><time>2026-04-03T15:01:28.257Z</time></trkpt><trkpt lat="43.05669" lon="11.43282"><ele>494.5</ele><time>2026-04-03T15:01:29.257Z</time></trkpt><trkpt lat="43.056765" lon="11.4326917"><ele>493.25</ele><time>2026-04-03T15:01:30.257Z</time></trkpt><trkpt lat="43.056855" lon="11.432575"><ele>492.0</ele><time>2026-04-03T15:01:31.257Z</time></trkpt><trkpt lat="43.05693" lon="11.4324483"><ele>492.0</ele><time>2026-04-03T15:01:32.257Z</time></trkpt><trkpt lat="43.0569783" lon="11.4323017"><ele>492.0</ele><time>2026-04-03T15:01:33.257Z</time></trkpt><trkpt lat="43.0570467" lon="11.4321417"><ele>492.0</ele><time>2026-04-03T15:01:34.257Z</time></trkpt><trkpt lat="43.0571333" lon="11.4319767"><ele>492.0</ele><time>2026-04-03T15:01:35.257Z</time></trkpt><trkpt lat="43.0572233" lon="11.43183"><ele>491.25</ele><time>2026-04-03T15:01:36.257Z</time></trkpt><trkpt lat="43.0573283" lon="11.4317"><ele>490.5</ele><time>2026-04-03T15:01:37.258Z</time></trkpt><trkpt lat="43.0574183" lon="11.4315833"><ele>489.75</ele><time>2026-04-03T15:01:38.257Z</time></trkpt><trkpt lat="43.05751" lon="11.4314733"><ele>489.0</ele><time>2026-04-03T15:01:39.257Z</time></trkpt><trkpt lat="43.057595" lon="11.43138"><ele>488.79999999999995</ele><time>2026-04-03T15:01:40.257Z</time></trkpt><trkpt lat="43.0576883" lon="11.431315"><ele>488.59999999999997</ele><time>2026-04-03T15:01:41.257Z</time></trkpt><trkpt lat="43.05779" lon="11.43124"><ele>488.4</ele><time>2026-04-03T15:01:42.257Z</time></trkpt><trkpt lat="43.0578967" lon="11.43118"><ele>488.2</ele><time>2026-04-03T15:01:43.257Z</time></trkpt><trkpt lat="43.0579817" lon="11.4311183"><ele>488.0</ele><time>2026-04-03T15:01:44.258Z</time></trkpt><trkpt lat="43.0580783" lon="11.4310533"><ele>487.49999999999994</ele><time>2026-04-03T15:01:45.257Z</time></trkpt><trkpt lat="43.0581633" lon="11.430995"><ele>487.0</ele><time>2026-04-03T15:01:46.257Z</time></trkpt><trkpt lat="43.0582333" lon="11.4309217"><ele>486.5</ele><time>2026-04-03T15:01:47.257Z</time></trkpt><trkpt lat="43.0582917" lon="11.430835"><ele>486.0</ele><time>2026-04-03T15:01:48.257Z</time></trkpt><trkpt lat="43.0583433" lon="11.43073"><ele>485.49999999999994</ele><time>2026-04-03T15:01:49.258Z</time></trkpt><trkpt lat="43.058365" lon="11.4306233"><ele>485.0</ele><time>2026-04-03T15:01:50.257Z</time></trkpt><trkpt lat="43.058365" lon="11.430505"><ele>485.25</ele><time>2026-04-03T15:01:51.257Z</time></trkpt><trkpt lat="43.0583483" lon="11.4303617"><ele>485.5</ele><time>2026-04-03T15:01:52.257Z</time></trkpt><trkpt lat="43.0583367" lon="11.430195"><ele>485.75</ele><time>2026-04-03T15:01:53.258Z</time></trkpt><trkpt lat="43.0583383" lon="11.4300267"><ele>486.0</ele><time>2026-04-03T15:01:54.258Z</time></trkpt><trkpt lat="43.0583617" lon="11.42987"><ele>486.0</ele><time>2026-04-03T15:01:55.257Z</time></trkpt><trkpt lat="43.058395" lon="11.4297117"><ele>486.0</ele><time>2026-04-03T15:01:56.257Z</time></trkpt><trkpt lat="43.0584283" lon="11.4295583"><ele>486.0</ele><time>2026-04-03T15:01:57.257Z</time></trkpt><trkpt lat="43.058465" lon="11.4294017"><ele>486.0</ele><time>2026-04-03T15:01:58.257Z</time></trkpt><trkpt lat="43.0584983" lon="11.4292617"><ele>486.0</ele><time>2026-04-03T15:01:59.257Z</time></trkpt><trkpt lat="43.05854" lon="11.429135"><ele>486.0</ele><time>2026-04-03T15:02:00.257Z</time></trkpt><trkpt lat="43.058575" lon="11.42901"><ele>486.0</ele><time>2026-04-03T15:02:01.258Z</time></trkpt><trkpt lat="43.058615" lon="11.4289067"><ele>486.0</ele><time>2026-04-03T15:02:02.258Z</time></trkpt><trkpt lat="43.05866" lon="11.4287967"><ele>486.0</ele><time>2026-04-03T15:02:03.258Z</time></trkpt><trkpt lat="43.05873" lon="11.4286767"><ele>486.8333333333333</ele><time>2026-04-03T15:02:04.257Z</time></trkpt><trkpt lat="43.05879" lon="11.42858"><ele>487.66666666666663</ele><time>2026-04-03T15:02:05.257Z</time></trkpt><trkpt lat="43.0588567" lon="11.4285"><ele>488.5</ele><time>2026-04-03T15:02:06.257Z</time></trkpt><trkpt lat="43.0589283" lon="11.428445"><ele>489.3333333333333</ele><time>2026-04-03T15:02:07.258Z</time></trkpt><trkpt lat="43.0590083" lon="11.4284133"><ele>490.16666666666663</ele><time>2026-04-03T15:02:08.257Z</time></trkpt><trkpt lat="43.059075" lon="11.4283883"><ele>491.0</ele><time>2026-04-03T15:02:09.258Z</time></trkpt><trkpt lat="43.059175" lon="11.4283183"><ele>489.6</ele><time>2026-04-03T15:02:11.258Z</time></trkpt><trkpt lat="43.05922" lon="11.42816"><ele>488.20000000000005</ele><time>2026-04-03T15:02:13.257Z</time></trkpt><trkpt lat="43.0592167" lon="11.4280617"><ele>486.79999999999995</ele><time>2026-04-03T15:02:14.257Z</time></trkpt><trkpt lat="43.059195" lon="11.4279567"><ele>485.4</ele><time>2026-04-03T15:02:15.257Z</time></trkpt><trkpt lat="43.05915" lon="11.427845"><ele>484.0</ele><time>2026-04-03T15:02:16.257Z</time></trkpt><trkpt lat="43.0591067" lon="11.4277317"><ele>484.0</ele><time>2026-04-03T15:02:17.257Z</time></trkpt><trkpt lat="43.0590667" lon="11.4276333"><ele>484.0</ele><time>2026-04-03T15:02:18.257Z</time></trkpt><trkpt lat="43.05905" lon="11.4275267"><ele>484.0</ele><time>2026-04-03T15:02:19.258Z</time></trkpt><trkpt lat="43.0590433" lon="11.42744"><ele>484.0</ele><time>2026-04-03T15:02:20.257Z</time></trkpt><trkpt lat="43.0591283" lon="11.427315"><ele>484.0</ele><time>2026-04-03T15:02:22.257Z</time></trkpt><trkpt lat="43.059255" lon="11.427275"><ele>484.0</ele><time>2026-04-03T15:02:24.258Z</time></trkpt><trkpt lat="43.0593383" lon="11.4273417"><ele>484.0</ele><time>2026-04-03T15:02:25.257Z</time></trkpt><trkpt lat="43.0594133" lon="11.427415"><ele>484.0</ele><time>2026-04-03T15:02:26.257Z</time></trkpt><trkpt lat="43.0594833" lon="11.4275083"><ele>484.0</ele><time>2026-04-03T15:02:27.257Z</time></trkpt><trkpt lat="43.0595483" lon="11.4276067"><ele>484.0</ele><time>2026-04-03T15:02:28.257Z</time></trkpt><trkpt lat="43.0596083" lon="11.427695"><ele>484.00000000000006</ele><time>2026-04-03T15:02:29.258Z</time></trkpt><trkpt lat="43.0596683" lon="11.42778"><ele>484.0</ele><time>2026-04-03T15:02:30.257Z</time></trkpt><trkpt lat="43.0597183" lon="11.4278517"><ele>484.0</ele><time>2026-04-03T15:02:31.257Z</time></trkpt><trkpt lat="43.05977" lon="11.427905"><ele>484.0</ele><time>2026-04-03T15:02:32.257Z</time></trkpt><trkpt lat="43.0598833" lon="11.42794"><ele>484.00000000000006</ele><time>2026-04-03T15:02:34.258Z</time></trkpt><trkpt lat="43.05995" lon="11.4279233"><ele>484.0</ele><time>2026-04-03T15:02:35.257Z</time></trkpt><trkpt lat="43.0600217" lon="11.4278967"><ele>483.1666666666667</ele><time>2026-04-03T15:02:36.258Z</time></trkpt><trkpt lat="43.0600933" lon="11.4278683"><ele>482.33333333333337</ele><time>2026-04-03T15:02:37.257Z</time></trkpt><trkpt lat="43.0601667" lon="11.4278183"><ele>481.5</ele><time>2026-04-03T15:02:38.257Z</time></trkpt><trkpt lat="43.060225" lon="11.42777"><ele>480.66666666666663</ele><time>2026-04-03T15:02:39.257Z</time></trkpt><trkpt lat="43.0603" lon="11.4276233"><ele>479.8333333333333</ele><time>2026-04-03T15:02:41.257Z</time></trkpt><trkpt lat="43.0603183" lon="11.427525"><ele>479.0</ele><time>2026-04-03T15:02:42.257Z</time></trkpt><trkpt lat="43.060325" lon="11.4274367"><ele>479.0</ele><time>2026-04-03T15:02:43.257Z</time></trkpt><trkpt lat="43.0603867" lon="11.4272983"><ele>479.0</ele><time>2026-04-03T15:02:45.257Z</time></trkpt><trkpt lat="43.0605033" lon="11.4272867"><ele>479.0</ele><time>2026-04-03T15:02:47.257Z</time></trkpt><trkpt lat="43.0605733" lon="11.4273217"><ele>479.0</ele><time>2026-04-03T15:02:48.257Z</time></trkpt><trkpt lat="43.0606467" lon="11.427385"><ele>479.0</ele><time>2026-04-03T15:02:49.257Z</time></trkpt><trkpt lat="43.0607117" lon="11.427455"><ele>478.99999999999994</ele><time>2026-04-03T15:02:50.257Z</time></trkpt><trkpt lat="43.06077" lon="11.4275083"><ele>479.0</ele><time>2026-04-03T15:02:51.257Z</time></trkpt><trkpt lat="43.0608433" lon="11.427535"><ele>479.0</ele><time>2026-04-03T15:02:52.257Z</time></trkpt><trkpt lat="43.06092" lon="11.4275467"><ele>479.0</ele><time>2026-04-03T15:02:53.257Z</time></trkpt><trkpt lat="43.0610067" lon="11.4275383"><ele>478.99999999999994</ele><time>2026-04-03T15:02:54.257Z</time></trkpt><trkpt lat="43.0610817" lon="11.427505"><ele>479.0</ele><time>2026-04-03T15:02:55.258Z</time></trkpt><trkpt lat="43.0611833" lon="11.4274617"><ele>477.4</ele><time>2026-04-03T15:02:56.257Z</time></trkpt><trkpt lat="43.06129" lon="11.42742"><ele>475.79999999999995</ele><time>2026-04-03T15:02:57.257Z</time></trkpt><trkpt lat="43.0613983" lon="11.4274033"><ele>474.20000000000005</ele><time>2026-04-03T15:02:58.258Z</time></trkpt><trkpt lat="43.0615017" lon="11.4274133"><ele>472.6</ele><time>2026-04-03T15:02:59.258Z</time></trkpt><trkpt lat="43.0616017" lon="11.4274567"><ele>471.0</ele><time>2026-04-03T15:03:00.257Z</time></trkpt><trkpt lat="43.06169" lon="11.4275117"><ele>470.8</ele><time>2026-04-03T15:03:01.257Z</time></trkpt><trkpt lat="43.0617817" lon="11.4275717"><ele>470.6</ele><time>2026-04-03T15:03:02.257Z</time></trkpt><trkpt lat="43.061865" lon="11.42761"><ele>470.4</ele><time>2026-04-03T15:03:03.258Z</time></trkpt><trkpt lat="43.0619517" lon="11.4276317"><ele>470.2</ele><time>2026-04-03T15:03:04.258Z</time></trkpt><trkpt lat="43.06206" lon="11.4276333"><ele>470.0</ele><time>2026-04-03T15:03:05.257Z</time></trkpt><trkpt lat="43.0621783" lon="11.4276167"><ele>470.0</ele><time>2026-04-03T15:03:06.257Z</time></trkpt><trkpt lat="43.062295" lon="11.42758"><ele>470.0</ele><time>2026-04-03T15:03:07.257Z</time></trkpt><trkpt lat="43.0624083" lon="11.4275317"><ele>470.0</ele><time>2026-04-03T15:03:08.257Z</time></trkpt><trkpt lat="43.0625217" lon="11.4274783"><ele>470.0</ele><time>2026-04-03T15:03:09.257Z</time></trkpt><trkpt lat="43.0626167" lon="11.4274333"><ele>469.99999999999994</ele><time>2026-04-03T15:03:10.257Z</time></trkpt><trkpt lat="43.0626917" lon="11.4273867"><ele>470.0</ele><time>2026-04-03T15:03:11.257Z</time></trkpt><trkpt lat="43.062765" lon="11.4273233"><ele>470.0</ele><time>2026-04-03T15:03:12.258Z</time></trkpt><trkpt lat="43.0628333" lon="11.4272567"><ele>470.0</ele><time>2026-04-03T15:03:13.257Z</time></trkpt><trkpt lat="43.06289" lon="11.427185"><ele>469.99999999999994</ele><time>2026-04-03T15:03:14.258Z</time></trkpt><trkpt lat="43.0629367" lon="11.4270967"><ele>470.0</ele><time>2026-04-03T15:03:15.257Z</time></trkpt><trkpt lat="43.0629667" lon="11.4269883"><ele>470.0</ele><time>2026-04-03T15:03:16.257Z</time></trkpt><trkpt lat="43.0629683" lon="11.426865"><ele>470.0</ele><time>2026-04-03T15:03:17.257Z</time></trkpt><trkpt lat="43.0629467" lon="11.426735"><ele>470.0</ele><time>2026-04-03T15:03:18.257Z</time></trkpt><trkpt lat="43.06292" lon="11.4265867"><ele>470.0</ele><time>2026-04-03T15:03:19.257Z</time></trkpt><trkpt lat="43.0629" lon="11.426435"><ele>470.0</ele><time>2026-04-03T15:03:20.257Z</time></trkpt><trkpt lat="43.06288" lon="11.426285"><ele>469.2</ele><time>2026-04-03T15:03:21.257Z</time></trkpt><trkpt lat="43.0628717" lon="11.4261417"><ele>468.4</ele><time>2026-04-03T15:03:22.257Z</time></trkpt><trkpt lat="43.0628633" lon="11.4260067"><ele>467.6</ele><time>2026-04-03T15:03:23.258Z</time></trkpt><trkpt lat="43.0628517" lon="11.4258783"><ele>466.8</ele><time>2026-04-03T15:03:24.257Z</time></trkpt><trkpt lat="43.0628617" lon="11.4257467"><ele>466.0</ele><time>2026-04-03T15:03:25.258Z</time></trkpt><trkpt lat="43.0628917" lon="11.4256217"><ele>466.0</ele><time>2026-04-03T15:03:26.257Z</time></trkpt><trkpt lat="43.06295" lon="11.4254967"><ele>466.0</ele><time>2026-04-03T15:03:27.257Z</time></trkpt><trkpt lat="43.0630117" lon="11.425375"><ele>466.0</ele><time>2026-04-03T15:03:28.257Z</time></trkpt><trkpt lat="43.0630783" lon="11.4252567"><ele>466.0</ele><time>2026-04-03T15:03:29.257Z</time></trkpt><trkpt lat="43.063135" lon="11.4251483"><ele>466.0</ele><time>2026-04-03T15:03:30.257Z</time></trkpt><trkpt lat="43.0631883" lon="11.4250333"><ele>465.8</ele><time>2026-04-03T15:03:31.257Z</time></trkpt><trkpt lat="43.0632183" lon="11.4249033"><ele>465.6</ele><time>2026-04-03T15:03:32.257Z</time></trkpt><trkpt lat="43.0632367" lon="11.424765"><ele>465.4</ele><time>2026-04-03T15:03:33.257Z</time></trkpt><trkpt lat="43.063255" lon="11.4246217"><ele>465.2</ele><time>2026-04-03T15:03:34.258Z</time></trkpt><trkpt lat="43.0632917" lon="11.4244733"><ele>465.0</ele><time>2026-04-03T15:03:35.257Z</time></trkpt><trkpt lat="43.0633383" lon="11.4243417"><ele>465.0</ele><time>2026-04-03T15:03:36.257Z</time></trkpt><trkpt lat="43.0633817" lon="11.4242233"><ele>465.0</ele><time>2026-04-03T15:03:37.258Z</time></trkpt><trkpt lat="43.0634083" lon="11.424105"><ele>465.0</ele><time>2026-04-03T15:03:38.257Z</time></trkpt><trkpt lat="43.063425" lon="11.4239883"><ele>465.0</ele><time>2026-04-03T15:03:39.257Z</time></trkpt><trkpt lat="43.0634183" lon="11.4238733"><ele>465.0</ele><time>2026-04-03T15:03:40.257Z</time></trkpt><trkpt lat="43.0634" lon="11.4237633"><ele>465.0</ele><time>2026-04-03T15:03:41.258Z</time></trkpt><trkpt lat="43.063375" lon="11.4236583"><ele>465.8</ele><time>2026-04-03T15:03:42.258Z</time></trkpt><trkpt lat="43.0633483" lon="11.4235517"><ele>466.6</ele><time>2026-04-03T15:03:43.257Z</time></trkpt><trkpt lat="43.0633417" lon="11.4234317"><ele>467.4</ele><time>2026-04-03T15:03:44.257Z</time></trkpt><trkpt lat="43.0633633" lon="11.4233067"><ele>468.2</ele><time>2026-04-03T15:03:45.256Z</time></trkpt><trkpt lat="43.0634017" lon="11.4231933"><ele>469.0</ele><time>2026-04-03T15:03:46.256Z</time></trkpt><trkpt lat="43.06345" lon="11.4230817"><ele>469.50000000000006</ele><time>2026-04-03T15:03:47.256Z</time></trkpt><trkpt lat="43.0635033" lon="11.422975"><ele>470.0</ele><time>2026-04-03T15:03:48.256Z</time></trkpt><trkpt lat="43.063545" lon="11.4228833"><ele>470.5</ele><time>2026-04-03T15:03:49.256Z</time></trkpt><trkpt lat="43.06358" lon="11.4227917"><ele>471.0</ele><time>2026-04-03T15:03:50.256Z</time></trkpt><trkpt lat="43.0636" lon="11.4226967"><ele>471.50000000000006</ele><time>2026-04-03T15:03:51.256Z</time></trkpt><trkpt lat="43.0636017" lon="11.4226017"><ele>472.0</ele><time>2026-04-03T15:03:52.256Z</time></trkpt><trkpt lat="43.0635833" lon="11.4225183"><ele>472.00000000000006</ele><time>2026-04-03T15:03:53.256Z</time></trkpt><trkpt lat="43.0635617" lon="11.4224367"><ele>472.0</ele><time>2026-04-03T15:03:54.257Z</time></trkpt><trkpt lat="43.0635267" lon="11.4222867"><ele>472.0</ele><time>2026-04-03T15:03:56.256Z</time></trkpt><trkpt lat="43.0635383" lon="11.4221683"><ele>472.0</ele><time>2026-04-03T15:03:58.256Z</time></trkpt><trkpt lat="43.0636017" lon="11.42208"><ele>472.00000000000006</ele><time>2026-04-03T15:04:00.256Z</time></trkpt><trkpt lat="43.06367" lon="11.4220483"><ele>472.0</ele><time>2026-04-03T15:04:02.256Z</time></trkpt><trkpt lat="43.0636067" lon="11.4220267"><ele>472.0</ele><time>2026-04-03T15:04:14.257Z</time></trkpt><trkpt lat="43.0634983" lon="11.42213"><ele>472.00000000000006</ele><time>2026-04-03T15:33:20.253Z</time></trkpt><trkpt lat="43.0634917" lon="11.4222833"><ele>472.00000000000006</ele><time>2026-04-03T15:34:47.253Z</time></trkpt><trkpt lat="43.0635033" lon="11.42237"><ele>472.0</ele><time>2026-04-03T15:34:49.253Z</time></trkpt><trkpt lat="43.06352" lon="11.4224667"><ele>472.0</ele><time>2026-04-03T15:34:51.253Z</time></trkpt><trkpt lat="43.0635517" lon="11.42256"><ele>472.00000000000006</ele><time>2026-04-03T15:34:53.253Z</time></trkpt><trkpt lat="43.0635733" lon="11.4226433"><ele>472.0</ele><time>2026-04-03T15:34:55.254Z</time></trkpt><trkpt lat="43.0635717" lon="11.4227617"><ele>472.0</ele><time>2026-04-03T15:34:58.253Z</time></trkpt><trkpt lat="43.0635283" lon="11.422875"><ele>472.0</ele><time>2026-04-03T15:35:01.253Z</time></trkpt><trkpt lat="43.0634883" lon="11.4229417"><ele>472.00000000000006</ele><time>2026-04-03T15:35:03.254Z</time></trkpt><trkpt lat="43.06345" lon="11.4230167"><ele>472.0</ele><time>2026-04-03T15:35:05.253Z</time></trkpt><trkpt lat="43.063415" lon="11.4231083"><ele>471.50000000000006</ele><time>2026-04-03T15:35:07.253Z</time></trkpt><trkpt lat="43.0633767" lon="11.4232"><ele>471.0</ele><time>2026-04-03T15:35:09.254Z</time></trkpt><trkpt lat="43.06335" lon="11.423295"><ele>470.5</ele><time>2026-04-03T15:35:11.254Z</time></trkpt><trkpt lat="43.063335" lon="11.4233983"><ele>470.0</ele><time>2026-04-03T15:35:13.254Z</time></trkpt><trkpt lat="43.063325" lon="11.4235033"><ele>469.50000000000006</ele><time>2026-04-03T15:35:15.254Z</time></trkpt><trkpt lat="43.0633367" lon="11.4236133"><ele>469.0</ele><time>2026-04-03T15:35:17.253Z</time></trkpt><trkpt lat="43.0633567" lon="11.4237317"><ele>468.2</ele><time>2026-04-03T15:35:19.253Z</time></trkpt><trkpt lat="43.0633917" lon="11.423865"><ele>467.4</ele><time>2026-04-03T15:35:21.253Z</time></trkpt><trkpt lat="43.0634083" lon="11.4240033"><ele>466.6</ele><time>2026-04-03T15:35:23.253Z</time></trkpt><trkpt lat="43.0634017" lon="11.4241367"><ele>465.8</ele><time>2026-04-03T15:35:25.253Z</time></trkpt><trkpt lat="43.0633783" lon="11.424265"><ele>465.0</ele><time>2026-04-03T15:35:27.253Z</time></trkpt><trkpt lat="43.0633317" lon="11.4243833"><ele>465.0</ele><time>2026-04-03T15:35:29.254Z</time></trkpt><trkpt lat="43.0632883" lon="11.4245067"><ele>465.0</ele><time>2026-04-03T15:35:31.253Z</time></trkpt><trkpt lat="43.0632633" lon="11.4246267"><ele>465.0</ele><time>2026-04-03T15:35:33.253Z</time></trkpt><trkpt lat="43.0632267" lon="11.4247417"><ele>465.0</ele><time>2026-04-03T15:35:35.253Z</time></trkpt><trkpt lat="43.0632" lon="11.4248617"><ele>465.0</ele><time>2026-04-03T15:35:37.253Z</time></trkpt><trkpt lat="43.0631767" lon="11.42498"><ele>465.1666666666667</ele><time>2026-04-03T15:35:39.253Z</time></trkpt><trkpt lat="43.063145" lon="11.4250883"><ele>465.33333333333337</ele><time>2026-04-03T15:35:41.253Z</time></trkpt><trkpt lat="43.0631183" lon="11.4251667"><ele>465.5</ele><time>2026-04-03T15:35:43.253Z</time></trkpt><trkpt lat="43.06308" lon="11.4252583"><ele>465.6666666666667</ele><time>2026-04-03T15:35:46.254Z</time></trkpt><trkpt lat="43.0630367" lon="11.425335"><ele>465.83333333333337</ele><time>2026-04-03T15:35:49.253Z</time></trkpt><trkpt lat="43.0630033" lon="11.4254333"><ele>466.0</ele><time>2026-04-03T15:35:53.253Z</time></trkpt><trkpt lat="43.0629517" lon="11.4255067"><ele>466.00000000000006</ele><time>2026-04-03T15:35:56.254Z</time></trkpt><trkpt lat="43.062915" lon="11.4255967"><ele>466.0</ele><time>2026-04-03T15:35:58.253Z</time></trkpt><trkpt lat="43.0628783" lon="11.425705"><ele>466.0</ele><time>2026-04-03T15:36:00.253Z</time></trkpt><trkpt lat="43.0628483" lon="11.4258267"><ele>466.0</ele><time>2026-04-03T15:36:02.253Z</time></trkpt><trkpt lat="43.0628267" lon="11.42594"><ele>466.00000000000006</ele><time>2026-04-03T15:36:04.253Z</time></trkpt><trkpt lat="43.0628233" lon="11.4260483"><ele>466.0</ele><time>2026-04-03T15:36:06.253Z</time></trkpt><trkpt lat="43.06283" lon="11.4261667"><ele>466.0</ele><time>2026-04-03T15:36:08.253Z</time></trkpt><trkpt lat="43.0628433" lon="11.42629"><ele>466.0</ele><time>2026-04-03T15:36:10.254Z</time></trkpt><trkpt lat="43.0628683" lon="11.4264067"><ele>466.0</ele><time>2026-04-03T15:36:12.254Z</time></trkpt><trkpt lat="43.0628767" lon="11.4265383"><ele>466.0</ele><time>2026-04-03T15:36:14.253Z</time></trkpt><trkpt lat="43.0628983" lon="11.426695"><ele>466.0</ele><time>2026-04-03T15:36:16.253Z</time></trkpt><trkpt lat="43.06293" lon="11.4268517"><ele>466.0</ele><time>2026-04-03T15:36:18.253Z</time></trkpt><trkpt lat="43.06293" lon="11.4270017"><ele>466.0</ele><time>2026-04-03T15:36:20.253Z</time></trkpt><trkpt lat="43.0628933" lon="11.4271267"><ele>466.0</ele><time>2026-04-03T15:36:22.253Z</time></trkpt><trkpt lat="43.062835" lon="11.4272267"><ele>466.0</ele><time>2026-04-03T15:36:24.253Z</time></trkpt><trkpt lat="43.062745" lon="11.427315"><ele>466.0</ele><time>2026-04-03T15:36:26.253Z</time></trkpt><trkpt lat="43.0626533" lon="11.4273733"><ele>466.0</ele><time>2026-04-03T15:36:28.253Z</time></trkpt><trkpt lat="43.0625583" lon="11.4274333"><ele>466.0</ele><time>2026-04-03T15:36:30.253Z</time></trkpt><trkpt lat="43.0624467" lon="11.4274933"><ele>466.0</ele><time>2026-04-03T15:36:32.253Z</time></trkpt><trkpt lat="43.0623317" lon="11.427545"><ele>466.0</ele><time>2026-04-03T15:36:34.253Z</time></trkpt><trkpt lat="43.0622267" lon="11.427595"><ele>466.8</ele><time>2026-04-03T15:36:36.254Z</time></trkpt><trkpt lat="43.0621183" lon="11.427635"><ele>467.6</ele><time>2026-04-03T15:36:38.253Z</time></trkpt><trkpt lat="43.0620217" lon="11.427645"><ele>468.4</ele><time>2026-04-03T15:36:40.254Z</time></trkpt><trkpt lat="43.0619217" lon="11.4276383"><ele>469.2</ele><time>2026-04-03T15:36:42.254Z</time></trkpt><trkpt lat="43.0618417" lon="11.4276117"><ele>470.0</ele><time>2026-04-03T15:36:44.253Z</time></trkpt><trkpt lat="43.0617733" lon="11.4275783"><ele>470.0</ele><time>2026-04-03T15:36:46.253Z</time></trkpt><trkpt lat="43.0617133" lon="11.4275367"><ele>470.0</ele><time>2026-04-03T15:36:48.253Z</time></trkpt><trkpt lat="43.0616433" lon="11.4274917"><ele>470.0</ele><time>2026-04-03T15:36:50.253Z</time></trkpt><trkpt lat="43.0615417" lon="11.427435"><ele>470.0</ele><time>2026-04-03T15:36:52.253Z</time></trkpt><trkpt lat="43.061415" lon="11.4274083"><ele>470.0</ele><time>2026-04-03T15:36:54.253Z</time></trkpt><trkpt lat="43.0613383" lon="11.4273933"><ele>470.1428571428571</ele><time>2026-04-03T15:36:55.253Z</time></trkpt><trkpt lat="43.0612583" lon="11.4273967"><ele>470.2857142857142</ele><time>2026-04-03T15:36:56.253Z</time></trkpt><trkpt lat="43.0611833" lon="11.4274083"><ele>470.42857142857144</ele><time>2026-04-03T15:36:57.253Z</time></trkpt><trkpt lat="43.06112" lon="11.4274317"><ele>470.57142857142856</ele><time>2026-04-03T15:36:58.253Z</time></trkpt><trkpt lat="43.0610533" lon="11.4274533"><ele>470.7142857142857</ele><time>2026-04-03T15:36:59.253Z</time></trkpt><trkpt lat="43.0609883" lon="11.42747"><ele>470.8571428571429</ele><time>2026-04-03T15:37:00.253Z</time></trkpt><trkpt lat="43.060925" lon="11.4274833"><ele>471.00000000000006</ele><time>2026-04-03T15:37:01.253Z</time></trkpt><trkpt lat="43.0608017" lon="11.4274767"><ele>472.3333333333333</ele><time>2026-04-03T15:37:03.253Z</time></trkpt><trkpt lat="43.0607417" lon="11.427445"><ele>473.66666666666663</ele><time>2026-04-03T15:37:04.254Z</time></trkpt><trkpt lat="43.0606817" lon="11.4274017"><ele>475.0</ele><time>2026-04-03T15:37:05.253Z</time></trkpt><trkpt lat="43.0606183" lon="11.4273683"><ele>476.3333333333333</ele><time>2026-04-03T15:37:06.253Z</time></trkpt><trkpt lat="43.06051" lon="11.4273133"><ele>477.66666666666663</ele><time>2026-04-03T15:37:08.253Z</time></trkpt><trkpt lat="43.060405" lon="11.42732"><ele>479.0</ele><time>2026-04-03T15:37:10.253Z</time></trkpt><trkpt lat="43.060325" lon="11.427355"><ele>479.0</ele><time>2026-04-03T15:37:12.254Z</time></trkpt><trkpt lat="43.0602767" lon="11.4274733"><ele>479.0</ele><time>2026-04-03T15:37:14.253Z</time></trkpt><trkpt lat="43.0602467" lon="11.4276183"><ele>479.0</ele><time>2026-04-03T15:37:16.253Z</time></trkpt><trkpt lat="43.0601833" lon="11.4277417"><ele>479.0</ele><time>2026-04-03T15:37:18.254Z</time></trkpt><trkpt lat="43.0600783" lon="11.42782"><ele>479.0</ele><time>2026-04-03T15:37:20.253Z</time></trkpt><trkpt lat="43.0599933" lon="11.4278733"><ele>480.0</ele><time>2026-04-03T15:37:22.253Z</time></trkpt><trkpt lat="43.0598867" lon="11.4278817"><ele>481.0</ele><time>2026-04-03T15:37:24.254Z</time></trkpt><trkpt lat="43.0597833" lon="11.42785"><ele>482.0</ele><time>2026-04-03T15:37:26.253Z</time></trkpt><trkpt lat="43.0596867" lon="11.4277317"><ele>483.0</ele><time>2026-04-03T15:37:28.253Z</time></trkpt><trkpt lat="43.0596317" lon="11.4276583"><ele>484.0</ele><time>2026-04-03T15:37:29.253Z</time></trkpt><trkpt lat="43.05958" lon="11.4275783"><ele>484.0</ele><time>2026-04-03T15:37:30.254Z</time></trkpt><trkpt lat="43.0595383" lon="11.4275033"><ele>484.0</ele><time>2026-04-03T15:37:31.253Z</time></trkpt><trkpt lat="43.059475" lon="11.4274117"><ele>484.0</ele><time>2026-04-03T15:37:33.253Z</time></trkpt><trkpt lat="43.0594017" lon="11.42733"><ele>484.0</ele><time>2026-04-03T15:37:35.253Z</time></trkpt><trkpt lat="43.05931" lon="11.427255"><ele>484.0</ele><time>2026-04-03T15:37:37.253Z</time></trkpt><trkpt lat="43.0591983" lon="11.427275"><ele>487.0</ele><time>2026-04-03T15:37:39.253Z</time></trkpt><trkpt lat="43.0591" lon="11.4273383"><ele>490.0</ele><time>2026-04-03T15:37:41.253Z</time></trkpt><trkpt lat="43.0590467" lon="11.4274333"><ele>493.0</ele><time>2026-04-03T15:37:43.254Z</time></trkpt><trkpt lat="43.0590467" lon="11.4275583"><ele>496.0</ele><time>2026-04-03T15:37:45.253Z</time></trkpt><trkpt lat="43.0590833" lon="11.427695"><ele>499.0</ele><time>2026-04-03T15:37:47.253Z</time></trkpt><trkpt lat="43.0591017" lon="11.4277817"><ele>497.4</ele><time>2026-04-03T15:37:48.253Z</time></trkpt><trkpt lat="43.0591417" lon="11.4279383"><ele>495.79999999999995</ele><time>2026-04-03T15:37:50.253Z</time></trkpt><trkpt lat="43.05919" lon="11.428065"><ele>494.20000000000005</ele><time>2026-04-03T15:37:52.254Z</time></trkpt><trkpt lat="43.059205" lon="11.428205"><ele>492.6</ele><time>2026-04-03T15:37:54.253Z</time></trkpt><trkpt lat="43.059175" lon="11.4283267"><ele>491.0</ele><time>2026-04-03T15:37:56.253Z</time></trkpt><trkpt lat="43.05906" lon="11.4283933"><ele>490.99999999999994</ele><time>2026-04-03T15:37:58.253Z</time></trkpt><trkpt lat="43.0589983" lon="11.428415"><ele>491.0</ele><time>2026-04-03T15:37:59.253Z</time></trkpt><trkpt lat="43.05888" lon="11.4284717"><ele>491.0</ele><time>2026-04-03T15:38:01.254Z</time></trkpt><trkpt lat="43.05882" lon="11.428515"><ele>491.0</ele><time>2026-04-03T15:38:02.253Z</time></trkpt><trkpt lat="43.05876" lon="11.4285733"><ele>490.99999999999994</ele><time>2026-04-03T15:38:03.254Z</time></trkpt><trkpt lat="43.0587133" lon="11.42865"><ele>491.0</ele><time>2026-04-03T15:38:04.253Z</time></trkpt><trkpt lat="43.0586717" lon="11.428725"><ele>491.0</ele><time>2026-04-03T15:38:05.253Z</time></trkpt><trkpt lat="43.05862" lon="11.4288033"><ele>490.99999999999994</ele><time>2026-04-03T15:38:06.254Z</time></trkpt><trkpt lat="43.05858" lon="11.4288717"><ele>491.0</ele><time>2026-04-03T15:38:07.254Z</time></trkpt><trkpt lat="43.0585467" lon="11.4289533"><ele>491.0</ele><time>2026-04-03T15:38:08.253Z</time></trkpt><trkpt lat="43.0585117" lon="11.42904"><ele>490.99999999999994</ele><time>2026-04-03T15:38:09.253Z</time></trkpt><trkpt lat="43.0584817" lon="11.4291383"><ele>491.0</ele><time>2026-04-03T15:38:10.253Z</time></trkpt><trkpt lat="43.0584467" lon="11.4292317"><ele>491.0</ele><time>2026-04-03T15:38:11.254Z</time></trkpt><trkpt lat="43.05842" lon="11.4293217"><ele>490.2857142857143</ele><time>2026-04-03T15:38:12.253Z</time></trkpt><trkpt lat="43.0583917" lon="11.42941"><ele>489.57142857142856</ele><time>2026-04-03T15:38:13.253Z</time></trkpt><trkpt lat="43.0583667" lon="11.4294967"><ele>488.85714285714283</ele><time>2026-04-03T15:38:14.253Z</time></trkpt><trkpt lat="43.0583333" lon="11.429585"><ele>488.1428571428571</ele><time>2026-04-03T15:38:15.253Z</time></trkpt><trkpt lat="43.058315" lon="11.4296867"><ele>487.42857142857144</ele><time>2026-04-03T15:38:16.253Z</time></trkpt><trkpt lat="43.0582983" lon="11.429785"><ele>486.71428571428567</ele><time>2026-04-03T15:38:17.253Z</time></trkpt><trkpt lat="43.05828" lon="11.42988"><ele>486.0</ele><time>2026-04-03T15:38:18.253Z</time></trkpt><trkpt lat="43.0582583" lon="11.4299683"><ele>485.8333333333333</ele><time>2026-04-03T15:38:19.253Z</time></trkpt><trkpt lat="43.0582383" lon="11.4301417"><ele>485.66666666666663</ele><time>2026-04-03T15:38:21.253Z</time></trkpt><trkpt lat="43.0582433" lon="11.4302383"><ele>485.5</ele><time>2026-04-03T15:38:22.253Z</time></trkpt><trkpt lat="43.0582517" lon="11.4303333"><ele>485.3333333333333</ele><time>2026-04-03T15:38:23.253Z</time></trkpt><trkpt lat="43.0582767" lon="11.430445"><ele>485.16666666666663</ele><time>2026-04-03T15:38:24.254Z</time></trkpt><trkpt lat="43.0582933" lon="11.4305433"><ele>485.0</ele><time>2026-04-03T15:38:25.253Z</time></trkpt><trkpt lat="43.0583" lon="11.4306467"><ele>485.00000000000006</ele><time>2026-04-03T15:38:26.253Z</time></trkpt><trkpt lat="43.0582867" lon="11.430735"><ele>485.0</ele><time>2026-04-03T15:38:27.253Z</time></trkpt><trkpt lat="43.0582717" lon="11.4308283"><ele>485.00000000000006</ele><time>2026-04-03T15:38:28.253Z</time></trkpt><trkpt lat="43.0582317" lon="11.4309117"><ele>485.00000000000006</ele><time>2026-04-03T15:38:29.253Z</time></trkpt><trkpt lat="43.0581733" lon="11.43097"><ele>485.0</ele><time>2026-04-03T15:38:30.253Z</time></trkpt><trkpt lat="43.0581067" lon="11.43102"><ele>485.00000000000006</ele><time>2026-04-03T15:38:31.253Z</time></trkpt><trkpt lat="43.0580417" lon="11.431065"><ele>485.00000000000006</ele><time>2026-04-03T15:38:32.254Z</time></trkpt><trkpt lat="43.0579833" lon="11.4311067"><ele>485.49999999999994</ele><time>2026-04-03T15:38:33.253Z</time></trkpt><trkpt lat="43.0579083" lon="11.431155"><ele>486.0</ele><time>2026-04-03T15:38:34.253Z</time></trkpt><trkpt lat="43.057835" lon="11.431205"><ele>486.5</ele><time>2026-04-03T15:38:35.253Z</time></trkpt><trkpt lat="43.0577583" lon="11.4312483"><ele>487.0</ele><time>2026-04-03T15:38:36.253Z</time></trkpt><trkpt lat="43.0576833" lon="11.4312867"><ele>487.49999999999994</ele><time>2026-04-03T15:38:37.253Z</time></trkpt><trkpt lat="43.0576017" lon="11.43133"><ele>488.0</ele><time>2026-04-03T15:38:38.253Z</time></trkpt><trkpt lat="43.057545" lon="11.4313967"><ele>487.99999999999994</ele><time>2026-04-03T15:38:39.253Z</time></trkpt><trkpt lat="43.05748" lon="11.431465"><ele>488.0</ele><time>2026-04-03T15:38:40.253Z</time></trkpt><trkpt lat="43.05742" lon="11.4315433"><ele>488.0</ele><time>2026-04-03T15:38:41.253Z</time></trkpt><trkpt lat="43.0573633" lon="11.43162"><ele>488.0</ele><time>2026-04-03T15:38:42.253Z</time></trkpt><trkpt lat="43.0573033" lon="11.4317"><ele>487.99999999999994</ele><time>2026-04-03T15:38:43.253Z</time></trkpt><trkpt lat="43.0572517" lon="11.4317833"><ele>488.0</ele><time>2026-04-03T15:38:44.254Z</time></trkpt><trkpt lat="43.0572033" lon="11.43186"><ele>488.16666666666663</ele><time>2026-04-03T15:38:45.253Z</time></trkpt><trkpt lat="43.0571483" lon="11.4319533"><ele>488.3333333333333</ele><time>2026-04-03T15:38:46.253Z</time></trkpt><trkpt lat="43.0570983" lon="11.4320533"><ele>488.5</ele><time>2026-04-03T15:38:47.253Z</time></trkpt><trkpt lat="43.0570517" lon="11.4321517"><ele>488.66666666666663</ele><time>2026-04-03T15:38:48.254Z</time></trkpt><trkpt lat="43.057" lon="11.4322567"><ele>488.8333333333333</ele><time>2026-04-03T15:38:49.253Z</time></trkpt><trkpt lat="43.0569517" lon="11.4323583"><ele>489.0</ele><time>2026-04-03T15:38:50.253Z</time></trkpt><trkpt lat="43.0569033" lon="11.43245"><ele>489.1666666666667</ele><time>2026-04-03T15:38:51.253Z</time></trkpt><trkpt lat="43.0568467" lon="11.43254"><ele>489.33333333333337</ele><time>2026-04-03T15:38:52.253Z</time></trkpt><trkpt lat="43.056785" lon="11.43262"><ele>489.5</ele><time>2026-04-03T15:38:53.253Z</time></trkpt><trkpt lat="43.0567217" lon="11.4327"><ele>489.6666666666667</ele><time>2026-04-03T15:38:54.253Z</time></trkpt><trkpt lat="43.0566583" lon="11.4327617"><ele>489.83333333333337</ele><time>2026-04-03T15:38:55.254Z</time></trkpt><trkpt lat="43.0566033" lon="11.4328333"><ele>490.0</ele><time>2026-04-03T15:38:56.253Z</time></trkpt><trkpt lat="43.0565517" lon="11.4329067"><ele>491.1666666666667</ele><time>2026-04-03T15:38:57.254Z</time></trkpt><trkpt lat="43.0565067" lon="11.4329817"><ele>492.33333333333337</ele><time>2026-04-03T15:38:58.253Z</time></trkpt><trkpt lat="43.0564483" lon="11.433055"><ele>493.5</ele><time>2026-04-03T15:38:59.253Z</time></trkpt><trkpt lat="43.056395" lon="11.4331217"><ele>494.66666666666663</ele><time>2026-04-03T15:39:00.253Z</time></trkpt><trkpt lat="43.0563317" lon="11.4331783"><ele>495.8333333333333</ele><time>2026-04-03T15:39:01.253Z</time></trkpt><trkpt lat="43.0562433" lon="11.4332333"><ele>497.0</ele><time>2026-04-03T15:39:02.254Z</time></trkpt><trkpt lat="43.05616" lon="11.4332833"><ele>497.0</ele><time>2026-04-03T15:39:03.253Z</time></trkpt><trkpt lat="43.056065" lon="11.433315"><ele>497.00000000000006</ele><time>2026-04-03T15:39:04.253Z</time></trkpt><trkpt lat="43.05597" lon="11.4333433"><ele>497.00000000000006</ele><time>2026-04-03T15:39:05.253Z</time></trkpt><trkpt lat="43.0558767" lon="11.43337"><ele>497.0</ele><time>2026-04-03T15:39:06.253Z</time></trkpt><trkpt lat="43.0557867" lon="11.433405"><ele>497.0</ele><time>2026-04-03T15:39:07.253Z</time></trkpt><trkpt lat="43.0557083" lon="11.4334417"><ele>496.8333333333333</ele><time>2026-04-03T15:39:08.253Z</time></trkpt><trkpt lat="43.0556417" lon="11.433475"><ele>496.66666666666663</ele><time>2026-04-03T15:39:09.253Z</time></trkpt><trkpt lat="43.0555833" lon="11.43351"><ele>496.5</ele><time>2026-04-03T15:39:10.253Z</time></trkpt><trkpt lat="43.055485" lon="11.43359"><ele>496.33333333333337</ele><time>2026-04-03T15:39:12.253Z</time></trkpt><trkpt lat="43.0554233" lon="11.4336283"><ele>496.1666666666667</ele><time>2026-04-03T15:39:13.254Z</time></trkpt><trkpt lat="43.0553517" lon="11.4336633"><ele>496.0</ele><time>2026-04-03T15:39:14.253Z</time></trkpt><trkpt lat="43.05528" lon="11.4336967"><ele>496.00000000000006</ele><time>2026-04-03T15:39:15.253Z</time></trkpt><trkpt lat="43.0552017" lon="11.4337233"><ele>496.0</ele><time>2026-04-03T15:39:16.253Z</time></trkpt><trkpt lat="43.0551167" lon="11.4337483"><ele>496.0</ele><time>2026-04-03T15:39:17.254Z</time></trkpt><trkpt lat="43.0550383" lon="11.433775"><ele>496.0</ele><time>2026-04-03T15:39:18.253Z</time></trkpt><trkpt lat="43.0549633" lon="11.4338067"><ele>496.00000000000006</ele><time>2026-04-03T15:39:19.253Z</time></trkpt><trkpt lat="43.0548933" lon="11.433845"><ele>496.0</ele><time>2026-04-03T15:39:20.253Z</time></trkpt><trkpt lat="43.0548183" lon="11.4338933"><ele>494.33333333333337</ele><time>2026-04-03T15:39:21.253Z</time></trkpt><trkpt lat="43.05475" lon="11.4339433"><ele>492.6666666666667</ele><time>2026-04-03T15:39:22.254Z</time></trkpt><trkpt lat="43.05467" lon="11.433985"><ele>491.0</ele><time>2026-04-03T15:39:23.253Z</time></trkpt><trkpt lat="43.05459" lon="11.4340267"><ele>489.33333333333337</ele><time>2026-04-03T15:39:24.253Z</time></trkpt><trkpt lat="43.0545183" lon="11.43406"><ele>487.6666666666667</ele><time>2026-04-03T15:39:25.253Z</time></trkpt><trkpt lat="43.05445" lon="11.4340883"><ele>486.0</ele><time>2026-04-03T15:39:26.253Z</time></trkpt><trkpt lat="43.054375" lon="11.43412"><ele>486.0</ele><time>2026-04-03T15:39:27.253Z</time></trkpt><trkpt lat="43.054305" lon="11.4341583"><ele>486.0</ele><time>2026-04-03T15:39:28.253Z</time></trkpt><trkpt lat="43.054235" lon="11.4341933"><ele>486.0</ele><time>2026-04-03T15:39:29.253Z</time></trkpt><trkpt lat="43.054155" lon="11.434225"><ele>486.0</ele><time>2026-04-03T15:39:30.253Z</time></trkpt><trkpt lat="43.0540817" lon="11.434255"><ele>486.0</ele><time>2026-04-03T15:39:31.253Z</time></trkpt><trkpt lat="43.0540083" lon="11.4342767"><ele>486.0</ele><time>2026-04-03T15:39:32.253Z</time></trkpt><trkpt lat="43.053945" lon="11.4342983"><ele>485.6666666666667</ele><time>2026-04-03T15:39:33.254Z</time></trkpt><trkpt lat="43.053875" lon="11.4343217"><ele>485.33333333333337</ele><time>2026-04-03T15:39:34.253Z</time></trkpt><trkpt lat="43.0538" lon="11.4343483"><ele>485.0</ele><time>2026-04-03T15:39:35.253Z</time></trkpt><trkpt lat="43.05373" lon="11.4343683"><ele>484.6666666666667</ele><time>2026-04-03T15:39:36.253Z</time></trkpt><trkpt lat="43.0536617" lon="11.43442"><ele>484.33333333333337</ele><time>2026-04-03T15:39:37.254Z</time></trkpt><trkpt lat="43.053595" lon="11.4344717"><ele>484.0</ele><time>2026-04-03T15:39:38.253Z</time></trkpt><trkpt lat="43.0535317" lon="11.4345417"><ele>484.00000000000006</ele><time>2026-04-03T15:39:39.254Z</time></trkpt><trkpt lat="43.05347" lon="11.4346133"><ele>484.0</ele><time>2026-04-03T15:39:40.253Z</time></trkpt><trkpt lat="43.0534167" lon="11.4346917"><ele>484.0</ele><time>2026-04-03T15:39:41.253Z</time></trkpt><trkpt lat="43.05336" lon="11.4347767"><ele>484.0</ele><time>2026-04-03T15:39:42.254Z</time></trkpt><trkpt lat="43.0533067" lon="11.4348667"><ele>484.00000000000006</ele><time>2026-04-03T15:39:43.254Z</time></trkpt><trkpt lat="43.053255" lon="11.434975"><ele>484.0</ele><time>2026-04-03T15:39:44.253Z</time></trkpt><trkpt lat="43.0532133" lon="11.4350733"><ele>482.83333333333337</ele><time>2026-04-03T15:39:45.254Z</time></trkpt><trkpt lat="43.053175" lon="11.4351817"><ele>481.6666666666667</ele><time>2026-04-03T15:39:46.253Z</time></trkpt><trkpt lat="43.0531433" lon="11.4352917"><ele>480.5</ele><time>2026-04-03T15:39:47.254Z</time></trkpt><trkpt lat="43.0531217" lon="11.4353967"><ele>479.33333333333337</ele><time>2026-04-03T15:39:48.253Z</time></trkpt><trkpt lat="43.0530983" lon="11.435495"><ele>478.1666666666667</ele><time>2026-04-03T15:39:49.253Z</time></trkpt><trkpt lat="43.0530783" lon="11.435595"><ele>477.0</ele><time>2026-04-03T15:39:50.253Z</time></trkpt><trkpt lat="43.0530667" lon="11.4357"><ele>475.71428571428567</ele><time>2026-04-03T15:39:51.253Z</time></trkpt><trkpt lat="43.0530583" lon="11.4358"><ele>474.4285714285714</ele><time>2026-04-03T15:39:52.254Z</time></trkpt><trkpt lat="43.0530517" lon="11.4359"><ele>473.1428571428571</ele><time>2026-04-03T15:39:53.253Z</time></trkpt><trkpt lat="43.0530383" lon="11.436005"><ele>471.8571428571429</ele><time>2026-04-03T15:39:54.254Z</time></trkpt><trkpt lat="43.0530283" lon="11.4361"><ele>470.5714285714286</ele><time>2026-04-03T15:39:55.253Z</time></trkpt><trkpt lat="43.0530133" lon="11.4362"><ele>469.28571428571433</ele><time>2026-04-03T15:39:56.253Z</time></trkpt><trkpt lat="43.052995" lon="11.4362967"><ele>468.0</ele><time>2026-04-03T15:39:57.253Z</time></trkpt><trkpt lat="43.0529683" lon="11.43639"><ele>468.0</ele><time>2026-04-03T15:39:58.253Z</time></trkpt><trkpt lat="43.05293" lon="11.4364817"><ele>468.00000000000006</ele><time>2026-04-03T15:39:59.253Z</time></trkpt><trkpt lat="43.0528867" lon="11.4365617"><ele>468.0</ele><time>2026-04-03T15:40:00.253Z</time></trkpt><trkpt lat="43.0528383" lon="11.4366333"><ele>468.0</ele><time>2026-04-03T15:40:01.253Z</time></trkpt><trkpt lat="43.0527717" lon="11.4367017"><ele>468.00000000000006</ele><time>2026-04-03T15:40:02.253Z</time></trkpt><trkpt lat="43.0527117" lon="11.436755"><ele>468.0</ele><time>2026-04-03T15:40:03.253Z</time></trkpt><trkpt lat="43.052645" lon="11.43679"><ele>468.0</ele><time>2026-04-03T15:40:04.253Z</time></trkpt><trkpt lat="43.052575" lon="11.436805"><ele>468.0</ele><time>2026-04-03T15:40:05.253Z</time></trkpt><trkpt lat="43.0524933" lon="11.4368067"><ele>468.0</ele><time>2026-04-03T15:40:06.253Z</time></trkpt><trkpt lat="43.0524233" lon="11.4367917"><ele>468.0</ele><time>2026-04-03T15:40:07.253Z</time></trkpt><trkpt lat="43.0523533" lon="11.436775"><ele>468.0</ele><time>2026-04-03T15:40:08.254Z</time></trkpt><trkpt lat="43.0522783" lon="11.4367633"><ele>468.0</ele><time>2026-04-03T15:40:09.253Z</time></trkpt><trkpt lat="43.0521983" lon="11.43676"><ele>468.0</ele><time>2026-04-03T15:40:10.253Z</time></trkpt><trkpt lat="43.052125" lon="11.4367617"><ele>468.14285714285717</ele><time>2026-04-03T15:40:11.253Z</time></trkpt><trkpt lat="43.052045" lon="11.4367767"><ele>468.28571428571433</ele><time>2026-04-03T15:40:12.253Z</time></trkpt><trkpt lat="43.0519667" lon="11.4367933"><ele>468.42857142857144</ele><time>2026-04-03T15:40:13.253Z</time></trkpt><trkpt lat="43.0518983" lon="11.4368133"><ele>468.57142857142856</ele><time>2026-04-03T15:40:14.253Z</time></trkpt><trkpt lat="43.0518267" lon="11.4368383"><ele>468.7142857142857</ele><time>2026-04-03T15:40:15.254Z</time></trkpt><trkpt lat="43.0517617" lon="11.436865"><ele>468.8571428571429</ele><time>2026-04-03T15:40:16.253Z</time></trkpt><trkpt lat="43.051695" lon="11.4368817"><ele>469.0</ele><time>2026-04-03T15:40:17.253Z</time></trkpt><trkpt lat="43.0516233" lon="11.4369067"><ele>469.1666666666667</ele><time>2026-04-03T15:40:18.254Z</time></trkpt><trkpt lat="43.0515567" lon="11.4369567"><ele>469.33333333333337</ele><time>2026-04-03T15:40:19.253Z</time></trkpt><trkpt lat="43.051495" lon="11.437025"><ele>469.5</ele><time>2026-04-03T15:40:20.253Z</time></trkpt><trkpt lat="43.0514483" lon="11.4371183"><ele>469.66666666666663</ele><time>2026-04-03T15:40:21.254Z</time></trkpt><trkpt lat="43.0514083" lon="11.437205"><ele>469.8333333333333</ele><time>2026-04-03T15:40:22.253Z</time></trkpt><trkpt lat="43.0513667" lon="11.4372933"><ele>470.0</ele><time>2026-04-03T15:40:23.253Z</time></trkpt><trkpt lat="43.0513183" lon="11.4373717"><ele>469.99999999999994</ele><time>2026-04-03T15:40:24.254Z</time></trkpt><trkpt lat="43.0512633" lon="11.4374433"><ele>470.0</ele><time>2026-04-03T15:40:25.253Z</time></trkpt><trkpt lat="43.0512033" lon="11.4375133"><ele>470.0</ele><time>2026-04-03T15:40:26.254Z</time></trkpt><trkpt lat="43.0511167" lon="11.4375783"><ele>470.0</ele><time>2026-04-03T15:40:27.253Z</time></trkpt><trkpt lat="43.05103" lon="11.43764"><ele>469.99999999999994</ele><time>2026-04-03T15:40:28.253Z</time></trkpt><trkpt lat="43.0509467" lon="11.4376967"><ele>470.0</ele><time>2026-04-03T15:40:29.253Z</time></trkpt><trkpt lat="43.0508683" lon="11.4377417"><ele>471.16666666666663</ele><time>2026-04-03T15:40:30.253Z</time></trkpt><trkpt lat="43.050785" lon="11.4377917"><ele>472.3333333333333</ele><time>2026-04-03T15:40:31.253Z</time></trkpt><trkpt lat="43.0507083" lon="11.4378367"><ele>473.5</ele><time>2026-04-03T15:40:32.253Z</time></trkpt><trkpt lat="43.0506383" lon="11.4378933"><ele>474.66666666666663</ele><time>2026-04-03T15:40:33.254Z</time></trkpt><trkpt lat="43.05058" lon="11.4379517"><ele>475.8333333333333</ele><time>2026-04-03T15:40:34.253Z</time></trkpt><trkpt lat="43.05053" lon="11.4380283"><ele>477.0</ele><time>2026-04-03T15:40:35.253Z</time></trkpt><trkpt lat="43.050485" lon="11.4381183"><ele>477.8333333333333</ele><time>2026-04-03T15:40:36.253Z</time></trkpt><trkpt lat="43.050445" lon="11.43822"><ele>478.66666666666663</ele><time>2026-04-03T15:40:37.253Z</time></trkpt><trkpt lat="43.0504317" lon="11.438345"><ele>479.5</ele><time>2026-04-03T15:40:38.253Z</time></trkpt><trkpt lat="43.05043" lon="11.43847"><ele>480.3333333333333</ele><time>2026-04-03T15:40:39.253Z</time></trkpt><trkpt lat="43.0504183" lon="11.43858"><ele>481.16666666666663</ele><time>2026-04-03T15:40:40.253Z</time></trkpt><trkpt lat="43.0504" lon="11.438685"><ele>482.0</ele><time>2026-04-03T15:40:41.253Z</time></trkpt><trkpt lat="43.0503883" lon="11.4387933"><ele>482.8333333333333</ele><time>2026-04-03T15:40:42.254Z</time></trkpt><trkpt lat="43.0503883" lon="11.4388983"><ele>483.66666666666663</ele><time>2026-04-03T15:40:43.253Z</time></trkpt><trkpt lat="43.0504167" lon="11.4389967"><ele>484.5</ele><time>2026-04-03T15:40:44.253Z</time></trkpt><trkpt lat="43.0504533" lon="11.4390883"><ele>485.33333333333337</ele><time>2026-04-03T15:40:45.254Z</time></trkpt><trkpt lat="43.050515" lon="11.4391767"><ele>486.1666666666667</ele><time>2026-04-03T15:40:46.253Z</time></trkpt><trkpt lat="43.0505667" lon="11.4392617"><ele>487.0</ele><time>2026-04-03T15:40:47.254Z</time></trkpt><trkpt lat="43.0506217" lon="11.439345"><ele>487.00000000000006</ele><time>2026-04-03T15:40:48.254Z</time></trkpt><trkpt lat="43.0506633" lon="11.4394533"><ele>487.0</ele><time>2026-04-03T15:40:49.253Z</time></trkpt><trkpt lat="43.0506933" lon="11.4395667"><ele>487.0</ele><time>2026-04-03T15:40:50.253Z</time></trkpt><trkpt lat="43.05072" lon="11.4396617"><ele>487.0</ele><time>2026-04-03T15:40:51.252Z</time></trkpt><trkpt lat="43.050735" lon="11.4397733"><ele>487.00000000000006</ele><time>2026-04-03T15:40:52.252Z</time></trkpt><trkpt lat="43.0507367" lon="11.43989"><ele>487.0</ele><time>2026-04-03T15:40:53.253Z</time></trkpt><trkpt lat="43.0507283" lon="11.4400067"><ele>486.00000000000006</ele><time>2026-04-03T15:40:54.252Z</time></trkpt><trkpt lat="43.050705" lon="11.44012"><ele>485.0</ele><time>2026-04-03T15:40:55.252Z</time></trkpt><trkpt lat="43.0506717" lon="11.4402317"><ele>484.0</ele><time>2026-04-03T15:40:56.252Z</time></trkpt><trkpt lat="43.0506267" lon="11.4403317"><ele>483.0</ele><time>2026-04-03T15:40:57.252Z</time></trkpt><trkpt lat="43.0505767" lon="11.44042"><ele>482.00000000000006</ele><time>2026-04-03T15:40:58.252Z</time></trkpt><trkpt lat="43.0505167" lon="11.440495"><ele>481.0</ele><time>2026-04-03T15:40:59.253Z</time></trkpt><trkpt lat="43.0504433" lon="11.4405483"><ele>478.6666666666667</ele><time>2026-04-03T15:41:00.252Z</time></trkpt><trkpt lat="43.0503817" lon="11.4405933"><ele>476.33333333333337</ele><time>2026-04-03T15:41:01.252Z</time></trkpt><trkpt lat="43.0503117" lon="11.4406383"><ele>474.0</ele><time>2026-04-03T15:41:02.253Z</time></trkpt><trkpt lat="43.050245" lon="11.4406983"><ele>471.66666666666663</ele><time>2026-04-03T15:41:03.252Z</time></trkpt><trkpt lat="43.0501817" lon="11.44077"><ele>469.3333333333333</ele><time>2026-04-03T15:41:04.252Z</time></trkpt><trkpt lat="43.05013" lon="11.4408517"><ele>467.0</ele><time>2026-04-03T15:41:05.253Z</time></trkpt><trkpt lat="43.0500917" lon="11.4409467"><ele>466.99999999999994</ele><time>2026-04-03T15:41:06.252Z</time></trkpt><trkpt lat="43.05006" lon="11.4410483"><ele>467.0</ele><time>2026-04-03T15:41:07.252Z</time></trkpt><trkpt lat="43.0500483" lon="11.441155"><ele>467.0</ele><time>2026-04-03T15:41:08.253Z</time></trkpt><trkpt lat="43.0500483" lon="11.4412667"><ele>467.0</ele><time>2026-04-03T15:41:09.253Z</time></trkpt><trkpt lat="43.0500617" lon="11.4413767"><ele>466.99999999999994</ele><time>2026-04-03T15:41:10.252Z</time></trkpt><trkpt lat="43.0500717" lon="11.44149"><ele>467.0</ele><time>2026-04-03T15:41:11.252Z</time></trkpt><trkpt lat="43.0500783" lon="11.4416133"><ele>466.49999999999994</ele><time>2026-04-03T15:41:12.252Z</time></trkpt><trkpt lat="43.05009" lon="11.4417433"><ele>466.0</ele><time>2026-04-03T15:41:13.252Z</time></trkpt><trkpt lat="43.0500967" lon="11.4418767"><ele>465.5</ele><time>2026-04-03T15:41:14.253Z</time></trkpt><trkpt lat="43.0501" lon="11.4420017"><ele>465.0</ele><time>2026-04-03T15:41:15.252Z</time></trkpt><trkpt lat="43.050105" lon="11.4421167"><ele>464.49999999999994</ele><time>2026-04-03T15:41:16.252Z</time></trkpt><trkpt lat="43.0501" lon="11.442225"><ele>464.0</ele><time>2026-04-03T15:41:17.252Z</time></trkpt><trkpt lat="43.0501" lon="11.442335"><ele>463.99999999999994</ele><time>2026-04-03T15:41:18.252Z</time></trkpt><trkpt lat="43.0501017" lon="11.4424483"><ele>464.0</ele><time>2026-04-03T15:41:19.253Z</time></trkpt><trkpt lat="43.05011" lon="11.4425667"><ele>464.0</ele><time>2026-04-03T15:41:20.252Z</time></trkpt><trkpt lat="43.0501117" lon="11.442685"><ele>464.0</ele><time>2026-04-03T15:41:21.252Z</time></trkpt><trkpt lat="43.050115" lon="11.4428"><ele>463.99999999999994</ele><time>2026-04-03T15:41:22.252Z</time></trkpt><trkpt lat="43.0501283" lon="11.4429133"><ele>464.0</ele><time>2026-04-03T15:41:23.252Z</time></trkpt><trkpt lat="43.0501433" lon="11.4430367"><ele>465.4</ele><time>2026-04-03T15:41:24.252Z</time></trkpt><trkpt lat="43.05015" lon="11.443165"><ele>466.79999999999995</ele><time>2026-04-03T15:41:25.252Z</time></trkpt><trkpt lat="43.05015" lon="11.4432917"><ele>468.20000000000005</ele><time>2026-04-03T15:41:26.252Z</time></trkpt><trkpt lat="43.0501417" lon="11.4434167"><ele>469.6</ele><time>2026-04-03T15:41:27.252Z</time></trkpt><trkpt lat="43.050125" lon="11.4435317"><ele>471.0</ele><time>2026-04-03T15:41:28.253Z</time></trkpt><trkpt lat="43.050095" lon="11.44366"><ele>471.0</ele><time>2026-04-03T15:41:29.252Z</time></trkpt><trkpt lat="43.050065" lon="11.4437933"><ele>471.0</ele><time>2026-04-03T15:41:30.252Z</time></trkpt><trkpt lat="43.05004" lon="11.4439183"><ele>471.0</ele><time>2026-04-03T15:41:31.252Z</time></trkpt><trkpt lat="43.0500217" lon="11.4440467"><ele>471.0</ele><time>2026-04-03T15:41:32.253Z</time></trkpt><trkpt lat="43.0500017" lon="11.4441667"><ele>471.0</ele><time>2026-04-03T15:41:33.252Z</time></trkpt><trkpt lat="43.0499817" lon="11.4442817"><ele>470.8333333333333</ele><time>2026-04-03T15:41:34.252Z</time></trkpt><trkpt lat="43.0499683" lon="11.4443917"><ele>470.66666666666663</ele><time>2026-04-03T15:41:35.252Z</time></trkpt><trkpt lat="43.0499583" lon="11.444505"><ele>470.5</ele><time>2026-04-03T15:41:36.252Z</time></trkpt><trkpt lat="43.0499517" lon="11.4446283"><ele>470.3333333333333</ele><time>2026-04-03T15:41:37.252Z</time></trkpt><trkpt lat="43.0499517" lon="11.4447467"><ele>470.16666666666663</ele><time>2026-04-03T15:41:38.252Z</time></trkpt><trkpt lat="43.049955" lon="11.4448567"><ele>470.0</ele><time>2026-04-03T15:41:39.252Z</time></trkpt><trkpt lat="43.04995" lon="11.4449583"><ele>468.71428571428567</ele><time>2026-04-03T15:41:40.253Z</time></trkpt><trkpt lat="43.0499483" lon="11.4450617"><ele>467.4285714285714</ele><time>2026-04-03T15:41:41.252Z</time></trkpt><trkpt lat="43.0499417" lon="11.4451483"><ele>466.1428571428571</ele><time>2026-04-03T15:41:42.253Z</time></trkpt><trkpt lat="43.049925" lon="11.4452367"><ele>464.8571428571429</ele><time>2026-04-03T15:41:43.253Z</time></trkpt><trkpt lat="43.0499017" lon="11.4453183"><ele>463.5714285714286</ele><time>2026-04-03T15:41:44.252Z</time></trkpt><trkpt lat="43.049875" lon="11.4454"><ele>462.28571428571433</ele><time>2026-04-03T15:41:45.252Z</time></trkpt><trkpt lat="43.049835" lon="11.4454733"><ele>461.0</ele><time>2026-04-03T15:41:46.252Z</time></trkpt><trkpt lat="43.0497983" lon="11.4455467"><ele>460.99999999999994</ele><time>2026-04-03T15:41:47.252Z</time></trkpt><trkpt lat="43.0497583" lon="11.4456217"><ele>461.0</ele><time>2026-04-03T15:41:48.252Z</time></trkpt><trkpt lat="43.0497167" lon="11.4457117"><ele>461.0</ele><time>2026-04-03T15:41:49.252Z</time></trkpt><trkpt lat="43.0496783" lon="11.4458217"><ele>461.0</ele><time>2026-04-03T15:41:50.252Z</time></trkpt><trkpt lat="43.0496517" lon="11.4459383"><ele>460.99999999999994</ele><time>2026-04-03T15:41:51.253Z</time></trkpt><trkpt lat="43.04963" lon="11.4460683"><ele>461.0</ele><time>2026-04-03T15:41:52.252Z</time></trkpt><trkpt lat="43.04962" lon="11.4461983"><ele>461.66666666666663</ele><time>2026-04-03T15:41:53.253Z</time></trkpt><trkpt lat="43.0496117" lon="11.4463333"><ele>462.3333333333333</ele><time>2026-04-03T15:41:54.252Z</time></trkpt><trkpt lat="43.049605" lon="11.4464633"><ele>463.0</ele><time>2026-04-03T15:41:55.252Z</time></trkpt><trkpt lat="43.04961" lon="11.44658"><ele>463.66666666666663</ele><time>2026-04-03T15:41:56.252Z</time></trkpt><trkpt lat="43.0496117" lon="11.4467"><ele>464.3333333333333</ele><time>2026-04-03T15:41:57.253Z</time></trkpt><trkpt lat="43.049615" lon="11.4468067"><ele>465.0</ele><time>2026-04-03T15:41:58.252Z</time></trkpt><trkpt lat="43.0496133" lon="11.446915"><ele>465.0</ele><time>2026-04-03T15:41:59.252Z</time></trkpt><trkpt lat="43.0496117" lon="11.4470167"><ele>465.0</ele><time>2026-04-03T15:42:00.252Z</time></trkpt><trkpt lat="43.0496083" lon="11.44712"><ele>465.0</ele><time>2026-04-03T15:42:01.252Z</time></trkpt><trkpt lat="43.0496017" lon="11.4472217"><ele>465.0</ele><time>2026-04-03T15:42:02.252Z</time></trkpt><trkpt lat="43.0496033" lon="11.4473283"><ele>465.0</ele><time>2026-04-03T15:42:03.252Z</time></trkpt><trkpt lat="43.0496033" lon="11.44742"><ele>465.0</ele><time>2026-04-03T15:42:04.253Z</time></trkpt><trkpt lat="43.0496083" lon="11.4475117"><ele>465.0</ele><time>2026-04-03T15:42:05.252Z</time></trkpt><trkpt lat="43.049605" lon="11.4476067"><ele>465.1666666666667</ele><time>2026-04-03T15:42:06.253Z</time></trkpt><trkpt lat="43.04961" lon="11.44771"><ele>465.33333333333337</ele><time>2026-04-03T15:42:07.253Z</time></trkpt><trkpt lat="43.0496217" lon="11.4478233"><ele>465.5</ele><time>2026-04-03T15:42:08.252Z</time></trkpt><trkpt lat="43.0496417" lon="11.4479333"><ele>465.6666666666667</ele><time>2026-04-03T15:42:09.252Z</time></trkpt><trkpt lat="43.0496767" lon="11.4480433"><ele>465.83333333333337</ele><time>2026-04-03T15:42:10.253Z</time></trkpt><trkpt lat="43.0497" lon="11.44815"><ele>466.0</ele><time>2026-04-03T15:42:11.252Z</time></trkpt><trkpt lat="43.04971" lon="11.4482517"><ele>466.50000000000006</ele><time>2026-04-03T15:42:12.252Z</time></trkpt><trkpt lat="43.0497033" lon="11.4483467"><ele>467.0</ele><time>2026-04-03T15:42:13.252Z</time></trkpt><trkpt lat="43.0496867" lon="11.4484317"><ele>467.5</ele><time>2026-04-03T15:42:14.252Z</time></trkpt><trkpt lat="43.0496183" lon="11.4485733"><ele>468.0</ele><time>2026-04-03T15:42:16.253Z</time></trkpt><trkpt lat="43.0495633" lon="11.4486267"><ele>468.50000000000006</ele><time>2026-04-03T15:42:17.252Z</time></trkpt><trkpt lat="43.0495133" lon="11.448685"><ele>469.0</ele><time>2026-04-03T15:42:18.252Z</time></trkpt><trkpt lat="43.0494517" lon="11.44875"><ele>469.4</ele><time>2026-04-03T15:42:19.253Z</time></trkpt><trkpt lat="43.0494" lon="11.44881"><ele>469.79999999999995</ele><time>2026-04-03T15:42:20.252Z</time></trkpt><trkpt lat="43.0493317" lon="11.448875"><ele>470.20000000000005</ele><time>2026-04-03T15:42:21.252Z</time></trkpt><trkpt lat="43.0492567" lon="11.4489683"><ele>470.6</ele><time>2026-04-03T15:42:22.252Z</time></trkpt><trkpt lat="43.0491833" lon="11.4490567"><ele>471.0</ele><time>2026-04-03T15:42:23.253Z</time></trkpt><trkpt lat="43.0491033" lon="11.4491433"><ele>471.0</ele><time>2026-04-03T15:42:24.252Z</time></trkpt><trkpt lat="43.0490383" lon="11.4492267"><ele>471.0</ele><time>2026-04-03T15:42:25.252Z</time></trkpt><trkpt lat="43.0489733" lon="11.4493133"><ele>471.0</ele><time>2026-04-03T15:42:26.252Z</time></trkpt><trkpt lat="43.04892" lon="11.4493967"><ele>471.0</ele><time>2026-04-03T15:42:27.252Z</time></trkpt><trkpt lat="43.0488617" lon="11.4494883"><ele>471.0</ele><time>2026-04-03T15:42:28.252Z</time></trkpt><trkpt lat="43.04881" lon="11.44958"><ele>471.0</ele><time>2026-04-03T15:42:29.252Z</time></trkpt><trkpt lat="43.0487583" lon="11.449665"><ele>473.1666666666667</ele><time>2026-04-03T15:42:30.252Z</time></trkpt><trkpt lat="43.0486983" lon="11.44976"><ele>475.33333333333337</ele><time>2026-04-03T15:42:31.253Z</time></trkpt><trkpt lat="43.0486383" lon="11.4498583"><ele>477.5</ele><time>2026-04-03T15:42:32.253Z</time></trkpt><trkpt lat="43.0485783" lon="11.4499467"><ele>479.6666666666667</ele><time>2026-04-03T15:42:33.253Z</time></trkpt><trkpt lat="43.0485283" lon="11.450025"><ele>481.83333333333337</ele><time>2026-04-03T15:42:34.253Z</time></trkpt><trkpt lat="43.0484733" lon="11.4501117"><ele>484.0</ele><time>2026-04-03T15:42:35.252Z</time></trkpt><trkpt lat="43.04841" lon="11.4501883"><ele>484.0</ele><time>2026-04-03T15:42:36.252Z</time></trkpt><trkpt lat="43.0483483" lon="11.4502533"><ele>483.99999999999994</ele><time>2026-04-03T15:42:37.252Z</time></trkpt><trkpt lat="43.048285" lon="11.4503"><ele>484.0</ele><time>2026-04-03T15:42:38.252Z</time></trkpt><trkpt lat="43.04822" lon="11.4503417"><ele>484.0</ele><time>2026-04-03T15:42:39.252Z</time></trkpt><trkpt lat="43.0481667" lon="11.4504183"><ele>483.99999999999994</ele><time>2026-04-03T15:42:40.252Z</time></trkpt><trkpt lat="43.048125" lon="11.4505017"><ele>484.0</ele><time>2026-04-03T15:42:41.253Z</time></trkpt><trkpt lat="43.0480917" lon="11.4505867"><ele>484.0</ele><time>2026-04-03T15:42:42.252Z</time></trkpt><trkpt lat="43.048065" lon="11.450685"><ele>484.1666666666667</ele><time>2026-04-03T15:42:43.253Z</time></trkpt><trkpt lat="43.0480533" lon="11.4507967"><ele>484.33333333333337</ele><time>2026-04-03T15:42:44.253Z</time></trkpt><trkpt lat="43.0480383" lon="11.4509133"><ele>484.5</ele><time>2026-04-03T15:42:45.252Z</time></trkpt><trkpt lat="43.0480267" lon="11.4510317"><ele>484.66666666666663</ele><time>2026-04-03T15:42:46.253Z</time></trkpt><trkpt lat="43.0480117" lon="11.451155"><ele>484.8333333333333</ele><time>2026-04-03T15:42:47.253Z</time></trkpt><trkpt lat="43.0479933" lon="11.4512717"><ele>485.0</ele><time>2026-04-03T15:42:48.252Z</time></trkpt><trkpt lat="43.04797" lon="11.4513817"><ele>484.99999999999994</ele><time>2026-04-03T15:42:49.252Z</time></trkpt><trkpt lat="43.0479417" lon="11.4514867"><ele>485.0</ele><time>2026-04-03T15:42:50.252Z</time></trkpt><trkpt lat="43.04791" lon="11.451585"><ele>485.0</ele><time>2026-04-03T15:42:51.252Z</time></trkpt><trkpt lat="43.0478733" lon="11.45168"><ele>485.0</ele><time>2026-04-03T15:42:52.253Z</time></trkpt><trkpt lat="43.047845" lon="11.45176"><ele>484.99999999999994</ele><time>2026-04-03T15:42:53.252Z</time></trkpt><trkpt lat="43.0478167" lon="11.45189"><ele>485.0</ele><time>2026-04-03T15:42:55.252Z</time></trkpt><trkpt lat="43.04776" lon="11.4520383"><ele>485.8333333333333</ele><time>2026-04-03T15:42:57.252Z</time></trkpt><trkpt lat="43.047735" lon="11.452125"><ele>486.66666666666663</ele><time>2026-04-03T15:42:58.253Z</time></trkpt><trkpt lat="43.047715" lon="11.4522233"><ele>487.5</ele><time>2026-04-03T15:42:59.252Z</time></trkpt><trkpt lat="43.0476967" lon="11.45234"><ele>488.33333333333337</ele><time>2026-04-03T15:43:00.252Z</time></trkpt><trkpt lat="43.04768" lon="11.452455"><ele>489.1666666666667</ele><time>2026-04-03T15:43:01.252Z</time></trkpt><trkpt lat="43.04766" lon="11.45257"><ele>490.0</ele><time>2026-04-03T15:43:02.252Z</time></trkpt><trkpt lat="43.04764" lon="11.4526817"><ele>490.00000000000006</ele><time>2026-04-03T15:43:03.253Z</time></trkpt><trkpt lat="43.0476217" lon="11.4528017"><ele>490.0</ele><time>2026-04-03T15:43:04.252Z</time></trkpt><trkpt lat="43.0475967" lon="11.4529233"><ele>490.0</ele><time>2026-04-03T15:43:05.252Z</time></trkpt><trkpt lat="43.0475767" lon="11.4530283"><ele>490.0</ele><time>2026-04-03T15:43:06.252Z</time></trkpt><trkpt lat="43.047555" lon="11.45314"><ele>490.00000000000006</ele><time>2026-04-03T15:43:07.252Z</time></trkpt><trkpt lat="43.0475433" lon="11.4532467"><ele>490.0</ele><time>2026-04-03T15:43:08.253Z</time></trkpt><trkpt lat="43.0475383" lon="11.4533633"><ele>490.50000000000006</ele><time>2026-04-03T15:43:09.252Z</time></trkpt><trkpt lat="43.0475267" lon="11.4534883"><ele>491.0</ele><time>2026-04-03T15:43:10.253Z</time></trkpt><trkpt lat="43.047515" lon="11.4535983"><ele>491.5</ele><time>2026-04-03T15:43:11.252Z</time></trkpt><trkpt lat="43.0474833" lon="11.4537067"><ele>492.0</ele><time>2026-04-03T15:43:12.252Z</time></trkpt><trkpt lat="43.0474533" lon="11.4537883"><ele>492.50000000000006</ele><time>2026-04-03T15:43:13.253Z</time></trkpt><trkpt lat="43.0474017" lon="11.4538617"><ele>493.0</ele><time>2026-04-03T15:43:14.252Z</time></trkpt><trkpt lat="43.047335" lon="11.4539133"><ele>494.50000000000006</ele><time>2026-04-03T15:43:15.252Z</time></trkpt><trkpt lat="43.0472483" lon="11.4539583"><ele>496.0</ele><time>2026-04-03T15:43:16.252Z</time></trkpt><trkpt lat="43.0471667" lon="11.4539983"><ele>497.5</ele><time>2026-04-03T15:43:17.252Z</time></trkpt><trkpt lat="43.047085" lon="11.4540483"><ele>499.0</ele><time>2026-04-03T15:43:18.252Z</time></trkpt><trkpt lat="43.0470067" lon="11.4540967"><ele>500.50000000000006</ele><time>2026-04-03T15:43:19.252Z</time></trkpt><trkpt lat="43.0469267" lon="11.4541533"><ele>502.0</ele><time>2026-04-03T15:43:20.252Z</time></trkpt><trkpt lat="43.0468467" lon="11.4542017"><ele>502.00000000000006</ele><time>2026-04-03T15:43:21.252Z</time></trkpt><trkpt lat="43.04676" lon="11.45425"><ele>502.0</ele><time>2026-04-03T15:43:22.253Z</time></trkpt><trkpt lat="43.046685" lon="11.4542983"><ele>502.0</ele><time>2026-04-03T15:43:23.253Z</time></trkpt><trkpt lat="43.0466033" lon="11.454355"><ele>502.0</ele><time>2026-04-03T15:43:24.252Z</time></trkpt><trkpt lat="43.04653" lon="11.4544133"><ele>502.00000000000006</ele><time>2026-04-03T15:43:25.252Z</time></trkpt><trkpt lat="43.0464583" lon="11.4544867"><ele>502.0</ele><time>2026-04-03T15:43:26.253Z</time></trkpt><trkpt lat="43.0463883" lon="11.4545633"><ele>503.0</ele><time>2026-04-03T15:43:27.252Z</time></trkpt><trkpt lat="43.04631" lon="11.45464"><ele>504.00000000000006</ele><time>2026-04-03T15:43:28.252Z</time></trkpt><trkpt lat="43.0462333" lon="11.4547067"><ele>505.00000000000006</ele><time>2026-04-03T15:43:29.253Z</time></trkpt><trkpt lat="43.0461533" lon="11.4547667"><ele>506.0</ele><time>2026-04-03T15:43:30.253Z</time></trkpt><trkpt lat="43.046065" lon="11.4548217"><ele>507.0</ele><time>2026-04-03T15:43:31.252Z</time></trkpt><trkpt lat="43.0459833" lon="11.4548683"><ele>507.0</ele><time>2026-04-03T15:43:32.252Z</time></trkpt><trkpt lat="43.0459017" lon="11.4549133"><ele>507.0</ele><time>2026-04-03T15:43:33.252Z</time></trkpt><trkpt lat="43.0458217" lon="11.4549633"><ele>507.0</ele><time>2026-04-03T15:43:34.253Z</time></trkpt><trkpt lat="43.045755" lon="11.4550117"><ele>507.0</ele><time>2026-04-03T15:43:35.252Z</time></trkpt><trkpt lat="43.045685" lon="11.45506"><ele>507.0</ele><time>2026-04-03T15:43:36.252Z</time></trkpt><trkpt lat="43.04561" lon="11.45513"><ele>507.0</ele><time>2026-04-03T15:43:37.253Z</time></trkpt><trkpt lat="43.04554" lon="11.4552117"><ele>506.8333333333333</ele><time>2026-04-03T15:43:38.252Z</time></trkpt><trkpt lat="43.0454833" lon="11.455305"><ele>506.66666666666663</ele><time>2026-04-03T15:43:39.253Z</time></trkpt><trkpt lat="43.04543" lon="11.4554"><ele>506.5</ele><time>2026-04-03T15:43:40.253Z</time></trkpt><trkpt lat="43.045385" lon="11.4554917"><ele>506.3333333333333</ele><time>2026-04-03T15:43:41.252Z</time></trkpt><trkpt lat="43.0453333" lon="11.4555967"><ele>506.16666666666663</ele><time>2026-04-03T15:43:42.252Z</time></trkpt><trkpt lat="43.045285" lon="11.455705"><ele>506.0</ele><time>2026-04-03T15:43:43.252Z</time></trkpt><trkpt lat="43.04523" lon="11.45582"><ele>505.6</ele><time>2026-04-03T15:43:44.252Z</time></trkpt><trkpt lat="43.04517" lon="11.45593"><ele>505.20000000000005</ele><time>2026-04-03T15:43:45.252Z</time></trkpt><trkpt lat="43.0450983" lon="11.4560433"><ele>504.79999999999995</ele><time>2026-04-03T15:43:46.252Z</time></trkpt><trkpt lat="43.0450267" lon="11.4561617"><ele>504.4</ele><time>2026-04-03T15:43:47.252Z</time></trkpt><trkpt lat="43.0449683" lon="11.4562733"><ele>504.0</ele><time>2026-04-03T15:43:48.252Z</time></trkpt><trkpt lat="43.044915" lon="11.456385"><ele>503.6666666666667</ele><time>2026-04-03T15:43:49.252Z</time></trkpt><trkpt lat="43.044865" lon="11.4565017"><ele>503.33333333333337</ele><time>2026-04-03T15:43:50.253Z</time></trkpt><trkpt lat="43.044825" lon="11.45662"><ele>503.0</ele><time>2026-04-03T15:43:51.252Z</time></trkpt><trkpt lat="43.0447883" lon="11.4567367"><ele>502.6666666666667</ele><time>2026-04-03T15:43:52.253Z</time></trkpt><trkpt lat="43.0447667" lon="11.45684"><ele>502.33333333333337</ele><time>2026-04-03T15:43:53.252Z</time></trkpt><trkpt lat="43.0447567" lon="11.4569367"><ele>502.0</ele><time>2026-04-03T15:43:54.252Z</time></trkpt><trkpt lat="43.0447467" lon="11.4570417"><ele>503.33333333333337</ele><time>2026-04-03T15:43:55.252Z</time></trkpt><trkpt lat="43.0447433" lon="11.4571367"><ele>504.6666666666667</ele><time>2026-04-03T15:43:56.252Z</time></trkpt><trkpt lat="43.0447167" lon="11.4572367"><ele>506.0</ele><time>2026-04-03T15:43:57.252Z</time></trkpt><trkpt lat="43.0446833" lon="11.4573183"><ele>507.33333333333337</ele><time>2026-04-03T15:43:58.252Z</time></trkpt><trkpt lat="43.044625" lon="11.4574"><ele>508.6666666666667</ele><time>2026-04-03T15:43:59.252Z</time></trkpt><trkpt lat="43.0445567" lon="11.4574683"><ele>510.0</ele><time>2026-04-03T15:44:00.252Z</time></trkpt><trkpt lat="43.0444883" lon="11.457535"><ele>510.0</ele><time>2026-04-03T15:44:01.252Z</time></trkpt><trkpt lat="43.0444067" lon="11.4576017"><ele>510.0</ele><time>2026-04-03T15:44:02.252Z</time></trkpt><trkpt lat="43.044325" lon="11.4576667"><ele>510.0</ele><time>2026-04-03T15:44:03.252Z</time></trkpt><trkpt lat="43.0442633" lon="11.4577333"><ele>510.0</ele><time>2026-04-03T15:44:04.252Z</time></trkpt><trkpt lat="43.044205" lon="11.4578117"><ele>510.0</ele><time>2026-04-03T15:44:05.252Z</time></trkpt><trkpt lat="43.04414" lon="11.4579"><ele>510.0</ele><time>2026-04-03T15:44:06.252Z</time></trkpt><trkpt lat="43.0440717" lon="11.4580083"><ele>509.25</ele><time>2026-04-03T15:44:07.253Z</time></trkpt><trkpt lat="43.0439983" lon="11.4581233"><ele>508.5</ele><time>2026-04-03T15:44:08.253Z</time></trkpt><trkpt lat="43.0439233" lon="11.458245"><ele>507.75</ele><time>2026-04-03T15:44:09.252Z</time></trkpt><trkpt lat="43.04385" lon="11.458365"><ele>507.0</ele><time>2026-04-03T15:44:10.252Z</time></trkpt><trkpt lat="43.0437817" lon="11.4584833"><ele>507.0</ele><time>2026-04-03T15:44:11.252Z</time></trkpt><trkpt lat="43.0436967" lon="11.458595"><ele>507.00000000000006</ele><time>2026-04-03T15:44:12.253Z</time></trkpt><trkpt lat="43.0436267" lon="11.4587033"><ele>507.00000000000006</ele><time>2026-04-03T15:44:13.252Z</time></trkpt><trkpt lat="43.04356" lon="11.458815"><ele>507.0</ele><time>2026-04-03T15:44:14.252Z</time></trkpt><trkpt lat="43.0434933" lon="11.4589117"><ele>507.0</ele><time>2026-04-03T15:44:15.252Z</time></trkpt><trkpt lat="43.0434167" lon="11.458995"><ele>507.0</ele><time>2026-04-03T15:44:16.252Z</time></trkpt><trkpt lat="43.0433367" lon="11.459055"><ele>507.0</ele><time>2026-04-03T15:44:17.252Z</time></trkpt><trkpt lat="43.0432517" lon="11.4591167"><ele>507.0</ele><time>2026-04-03T15:44:18.252Z</time></trkpt><trkpt lat="43.0431583" lon="11.45917"><ele>507.0</ele><time>2026-04-03T15:44:19.252Z</time></trkpt><trkpt lat="43.0430833" lon="11.4592217"><ele>507.0</ele><time>2026-04-03T15:44:20.252Z</time></trkpt><trkpt lat="43.043015" lon="11.4592683"><ele>507.0</ele><time>2026-04-03T15:44:21.252Z</time></trkpt><trkpt lat="43.0429467" lon="11.4593433"><ele>507.0</ele><time>2026-04-03T15:44:22.253Z</time></trkpt><trkpt lat="43.0428983" lon="11.4594433"><ele>507.00000000000006</ele><time>2026-04-03T15:44:23.252Z</time></trkpt><trkpt lat="43.0428483" lon="11.4595683"><ele>507.00000000000006</ele><time>2026-04-03T15:44:24.252Z</time></trkpt><trkpt lat="43.04281" lon="11.4596833"><ele>507.0</ele><time>2026-04-03T15:44:25.252Z</time></trkpt><trkpt lat="43.0427733" lon="11.4597917"><ele>507.0</ele><time>2026-04-03T15:44:26.252Z</time></trkpt><trkpt lat="43.042745" lon="11.4598967"><ele>507.42857142857144</ele><time>2026-04-03T15:44:27.253Z</time></trkpt><trkpt lat="43.0427267" lon="11.4599967"><ele>507.8571428571429</ele><time>2026-04-03T15:44:28.252Z</time></trkpt><trkpt lat="43.042725" lon="11.4601017"><ele>508.28571428571433</ele><time>2026-04-03T15:44:29.253Z</time></trkpt><trkpt lat="43.0427367" lon="11.460205"><ele>508.7142857142857</ele><time>2026-04-03T15:44:30.252Z</time></trkpt><trkpt lat="43.04275" lon="11.4602983"><ele>509.1428571428572</ele><time>2026-04-03T15:44:31.253Z</time></trkpt><trkpt lat="43.0427683" lon="11.460385"><ele>509.5714285714286</ele><time>2026-04-03T15:44:32.252Z</time></trkpt><trkpt lat="43.0428017" lon="11.46046"><ele>510.0</ele><time>2026-04-03T15:44:33.252Z</time></trkpt><trkpt lat="43.0428633" lon="11.4605967"><ele>510.0</ele><time>2026-04-03T15:44:35.253Z</time></trkpt><trkpt lat="43.0429217" lon="11.4607267"><ele>510.0</ele><time>2026-04-03T15:44:37.252Z</time></trkpt><trkpt lat="43.04298" lon="11.46085"><ele>510.0</ele><time>2026-04-03T15:44:39.252Z</time></trkpt><trkpt lat="43.043035" lon="11.46099"><ele>510.0</ele><time>2026-04-03T15:44:41.252Z</time></trkpt><trkpt lat="43.0430917" lon="11.4611367"><ele>510.0</ele><time>2026-04-03T15:44:43.252Z</time></trkpt><trkpt lat="43.0431583" lon="11.46128"><ele>510.0</ele><time>2026-04-03T15:44:45.252Z</time></trkpt><trkpt lat="43.0431917" lon="11.461355"><ele>510.0</ele><time>2026-04-03T15:44:46.252Z</time></trkpt><trkpt lat="43.0432533" lon="11.461505"><ele>510.0</ele><time>2026-04-03T15:44:48.252Z</time></trkpt><trkpt lat="43.0432883" lon="11.4615917"><ele>510.0</ele><time>2026-04-03T15:44:49.252Z</time></trkpt><trkpt lat="43.0433283" lon="11.4616767"><ele>508.5</ele><time>2026-04-03T15:44:50.252Z</time></trkpt><trkpt lat="43.0433667" lon="11.461775"><ele>507.0</ele><time>2026-04-03T15:44:51.252Z</time></trkpt><trkpt lat="43.0434017" lon="11.461885"><ele>505.5</ele><time>2026-04-03T15:44:52.252Z</time></trkpt><trkpt lat="43.0434417" lon="11.4619883"><ele>504.0</ele><time>2026-04-03T15:44:53.252Z</time></trkpt><trkpt lat="43.0434833" lon="11.462085"><ele>502.5</ele><time>2026-04-03T15:44:54.252Z</time></trkpt><trkpt lat="43.0435283" lon="11.46218"><ele>501.0</ele><time>2026-04-03T15:44:55.252Z</time></trkpt><trkpt lat="43.043565" lon="11.4622783"><ele>501.0</ele><time>2026-04-03T15:44:56.252Z</time></trkpt><trkpt lat="43.0436067" lon="11.4623733"><ele>501.0</ele><time>2026-04-03T15:44:57.252Z</time></trkpt><trkpt lat="43.0436433" lon="11.4624783"><ele>501.0</ele><time>2026-04-03T15:44:58.252Z</time></trkpt><trkpt lat="43.0436567" lon="11.4625933"><ele>501.0</ele><time>2026-04-03T15:44:59.253Z</time></trkpt><trkpt lat="43.0436583" lon="11.4626983"><ele>501.0</ele><time>2026-04-03T15:45:00.252Z</time></trkpt><trkpt lat="43.0436483" lon="11.4628083"><ele>501.0</ele><time>2026-04-03T15:45:01.253Z</time></trkpt><trkpt lat="43.0435967" lon="11.46289"><ele>501.0</ele><time>2026-04-03T15:45:02.252Z</time></trkpt><trkpt lat="43.04354" lon="11.4629667"><ele>501.0</ele><time>2026-04-03T15:45:03.252Z</time></trkpt><trkpt lat="43.04348" lon="11.463045"><ele>501.0</ele><time>2026-04-03T15:45:04.252Z</time></trkpt><trkpt lat="43.0434167" lon="11.46312"><ele>501.0</ele><time>2026-04-03T15:45:05.252Z</time></trkpt><trkpt lat="43.04335" lon="11.463205"><ele>501.0</ele><time>2026-04-03T15:45:06.253Z</time></trkpt><trkpt lat="43.0432933" lon="11.4632917"><ele>501.0</ele><time>2026-04-03T15:45:07.252Z</time></trkpt><trkpt lat="43.0432433" lon="11.46338"><ele>500.6666666666667</ele><time>2026-04-03T15:45:08.253Z</time></trkpt><trkpt lat="43.0431983" lon="11.463485"><ele>500.33333333333337</ele><time>2026-04-03T15:45:09.253Z</time></trkpt><trkpt lat="43.0431667" lon="11.4635867"><ele>500.0</ele><time>2026-04-03T15:45:10.252Z</time></trkpt><trkpt lat="43.0431433" lon="11.463695"><ele>499.6666666666667</ele><time>2026-04-03T15:45:11.252Z</time></trkpt><trkpt lat="43.0431267" lon="11.4638083"><ele>499.33333333333337</ele><time>2026-04-03T15:45:12.252Z</time></trkpt><trkpt lat="43.043115" lon="11.4639317"><ele>499.0</ele><time>2026-04-03T15:45:13.252Z</time></trkpt><trkpt lat="43.04311" lon="11.4640483"><ele>499.00000000000006</ele><time>2026-04-03T15:45:14.253Z</time></trkpt><trkpt lat="43.043105" lon="11.46416"><ele>499.0</ele><time>2026-04-03T15:45:15.253Z</time></trkpt><trkpt lat="43.0430933" lon="11.4642733"><ele>499.0</ele><time>2026-04-03T15:45:16.252Z</time></trkpt><trkpt lat="43.0430767" lon="11.464395"><ele>499.0</ele><time>2026-04-03T15:45:17.252Z</time></trkpt><trkpt lat="43.04306" lon="11.4645133"><ele>499.00000000000006</ele><time>2026-04-03T15:45:18.252Z</time></trkpt><trkpt lat="43.0430383" lon="11.4646317"><ele>499.0</ele><time>2026-04-03T15:45:19.252Z</time></trkpt><trkpt lat="43.0430217" lon="11.46474"><ele>499.6666666666667</ele><time>2026-04-03T15:45:20.252Z</time></trkpt><trkpt lat="43.042995" lon="11.4648383"><ele>500.33333333333337</ele><time>2026-04-03T15:45:21.252Z</time></trkpt><trkpt lat="43.0429717" lon="11.46494"><ele>501.0</ele><time>2026-04-03T15:45:22.252Z</time></trkpt><trkpt lat="43.0429367" lon="11.4650433"><ele>501.66666666666663</ele><time>2026-04-03T15:45:23.252Z</time></trkpt><trkpt lat="43.042895" lon="11.4651517"><ele>502.3333333333333</ele><time>2026-04-03T15:45:24.252Z</time></trkpt><trkpt lat="43.042845" lon="11.4652417"><ele>503.0</ele><time>2026-04-03T15:45:25.253Z</time></trkpt><trkpt lat="43.0427967" lon="11.4653317"><ele>502.99999999999994</ele><time>2026-04-03T15:45:26.252Z</time></trkpt><trkpt lat="43.0427517" lon="11.465425"><ele>503.0</ele><time>2026-04-03T15:45:27.253Z</time></trkpt><trkpt lat="43.0427217" lon="11.4655333"><ele>503.0</ele><time>2026-04-03T15:45:28.252Z</time></trkpt><trkpt lat="43.042705" lon="11.46565"><ele>503.0</ele><time>2026-04-03T15:45:29.252Z</time></trkpt><trkpt lat="43.0426983" lon="11.4657767"><ele>502.99999999999994</ele><time>2026-04-03T15:45:30.252Z</time></trkpt><trkpt lat="43.0426917" lon="11.4659033"><ele>503.0</ele><time>2026-04-03T15:45:31.252Z</time></trkpt><trkpt lat="43.0426833" lon="11.4660383"><ele>502.79999999999995</ele><time>2026-04-03T15:45:32.252Z</time></trkpt><trkpt lat="43.0426717" lon="11.4661783"><ele>502.59999999999997</ele><time>2026-04-03T15:45:33.252Z</time></trkpt><trkpt lat="43.042665" lon="11.4663167"><ele>502.40000000000003</ele><time>2026-04-03T15:45:34.253Z</time></trkpt><trkpt lat="43.0426633" lon="11.4664567"><ele>502.20000000000005</ele><time>2026-04-03T15:45:35.252Z</time></trkpt><trkpt lat="43.042655" lon="11.4665867"><ele>502.0</ele><time>2026-04-03T15:45:36.252Z</time></trkpt><trkpt lat="43.0426433" lon="11.4667167"><ele>501.83333333333337</ele><time>2026-04-03T15:45:37.253Z</time></trkpt><trkpt lat="43.0426367" lon="11.46684"><ele>501.6666666666667</ele><time>2026-04-03T15:45:38.252Z</time></trkpt><trkpt lat="43.0426267" lon="11.4669467"><ele>501.5</ele><time>2026-04-03T15:45:39.252Z</time></trkpt><trkpt lat="43.04261" lon="11.4670483"><ele>501.33333333333337</ele><time>2026-04-03T15:45:40.253Z</time></trkpt><trkpt lat="43.0425833" lon="11.467145"><ele>501.1666666666667</ele><time>2026-04-03T15:45:41.252Z</time></trkpt><trkpt lat="43.042555" lon="11.4672367"><ele>501.0</ele><time>2026-04-03T15:45:42.252Z</time></trkpt><trkpt lat="43.0425233" lon="11.4673317"><ele>500.75</ele><time>2026-04-03T15:45:43.252Z</time></trkpt><trkpt lat="43.04249" lon="11.4674367"><ele>500.5</ele><time>2026-04-03T15:45:44.252Z</time></trkpt><trkpt lat="43.04242" lon="11.46761"><ele>500.25</ele><time>2026-04-03T15:45:45.252Z</time></trkpt><trkpt lat="43.0423567" lon="11.4677933"><ele>500.0</ele><time>2026-04-03T15:45:46.252Z</time></trkpt><trkpt lat="43.0423" lon="11.46798"><ele>501.0</ele><time>2026-04-03T15:45:47.252Z</time></trkpt><trkpt lat="43.0422617" lon="11.4681383"><ele>502.0</ele><time>2026-04-03T15:45:48.252Z</time></trkpt><trkpt lat="43.0422383" lon="11.4682867"><ele>503.0</ele><time>2026-04-03T15:45:49.252Z</time></trkpt><trkpt lat="43.0422133" lon="11.468415"><ele>504.0</ele><time>2026-04-03T15:45:50.252Z</time></trkpt><trkpt lat="43.0421833" lon="11.4685367"><ele>505.0</ele><time>2026-04-03T15:45:51.252Z</time></trkpt><trkpt lat="43.042155" lon="11.4686617"><ele>505.2</ele><time>2026-04-03T15:45:52.252Z</time></trkpt><trkpt lat="43.042125" lon="11.4687833"><ele>505.4</ele><time>2026-04-03T15:45:53.252Z</time></trkpt><trkpt lat="43.0420983" lon="11.4689"><ele>505.6</ele><time>2026-04-03T15:45:54.252Z</time></trkpt><trkpt lat="43.0420567" lon="11.4690217"><ele>505.8</ele><time>2026-04-03T15:45:55.253Z</time></trkpt><trkpt lat="43.041995" lon="11.4691183"><ele>506.0</ele><time>2026-04-03T15:45:56.252Z</time></trkpt><trkpt lat="43.0419167" lon="11.4692083"><ele>506.0</ele><time>2026-04-03T15:45:57.252Z</time></trkpt><trkpt lat="43.041835" lon="11.4692683"><ele>506.0</ele><time>2026-04-03T15:45:58.253Z</time></trkpt><trkpt lat="43.0417383" lon="11.4693183"><ele>506.0</ele><time>2026-04-03T15:45:59.252Z</time></trkpt><trkpt lat="43.04165" lon="11.46936"><ele>506.0</ele><time>2026-04-03T15:46:00.252Z</time></trkpt><trkpt lat="43.0415533" lon="11.469405"><ele>506.0</ele><time>2026-04-03T15:46:01.252Z</time></trkpt><trkpt lat="43.0414617" lon="11.46945"><ele>507.20000000000005</ele><time>2026-04-03T15:46:02.252Z</time></trkpt><trkpt lat="43.0413717" lon="11.469505"><ele>508.40000000000003</ele><time>2026-04-03T15:46:03.253Z</time></trkpt><trkpt lat="43.0412867" lon="11.46956"><ele>509.6</ele><time>2026-04-03T15:46:04.252Z</time></trkpt><trkpt lat="43.0412033" lon="11.4696233"><ele>510.8</ele><time>2026-04-03T15:46:05.252Z</time></trkpt><trkpt lat="43.04112" lon="11.4696867"><ele>512.0</ele><time>2026-04-03T15:46:06.253Z</time></trkpt><trkpt lat="43.041045" lon="11.4697583"><ele>512.8000000000001</ele><time>2026-04-03T15:46:07.252Z</time></trkpt><trkpt lat="43.0409667" lon="11.4698317"><ele>513.6</ele><time>2026-04-03T15:46:08.253Z</time></trkpt><trkpt lat="43.04089" lon="11.469915"><ele>514.4000000000001</ele><time>2026-04-03T15:46:09.253Z</time></trkpt><trkpt lat="43.0408117" lon="11.4700067"><ele>515.2</ele><time>2026-04-03T15:46:10.252Z</time></trkpt><trkpt lat="43.0407317" lon="11.4701033"><ele>516.0</ele><time>2026-04-03T15:46:11.252Z</time></trkpt><trkpt lat="43.0406517" lon="11.4702017"><ele>517.0</ele><time>2026-04-03T15:46:12.252Z</time></trkpt><trkpt lat="43.0405717" lon="11.4703167"><ele>518.0</ele><time>2026-04-03T15:46:13.252Z</time></trkpt><trkpt lat="43.0404933" lon="11.4704283"><ele>519.0</ele><time>2026-04-03T15:46:14.253Z</time></trkpt><trkpt lat="43.04042" lon="11.4705417"><ele>520.0</ele><time>2026-04-03T15:46:15.253Z</time></trkpt><trkpt lat="43.040335" lon="11.4706333"><ele>521.0</ele><time>2026-04-03T15:46:16.253Z</time></trkpt><trkpt lat="43.0402333" lon="11.4706967"><ele>522.4</ele><time>2026-04-03T15:46:17.252Z</time></trkpt><trkpt lat="43.0401333" lon="11.4707383"><ele>523.8</ele><time>2026-04-03T15:46:18.252Z</time></trkpt><trkpt lat="43.040035" lon="11.4707583"><ele>525.1999999999999</ele><time>2026-04-03T15:46:19.253Z</time></trkpt><trkpt lat="43.03993" lon="11.4707933"><ele>526.6</ele><time>2026-04-03T15:46:20.252Z</time></trkpt><trkpt lat="43.03983" lon="11.4708333"><ele>528.0</ele><time>2026-04-03T15:46:21.252Z</time></trkpt><trkpt lat="43.03974" lon="11.4708817"><ele>528.8</ele><time>2026-04-03T15:46:22.252Z</time></trkpt><trkpt lat="43.0396533" lon="11.4709317"><ele>529.5999999999999</ele><time>2026-04-03T15:46:23.252Z</time></trkpt><trkpt lat="43.0395683" lon="11.4709883"><ele>530.4000000000001</ele><time>2026-04-03T15:46:24.252Z</time></trkpt><trkpt lat="43.0394817" lon="11.47104"><ele>531.2</ele><time>2026-04-03T15:46:25.252Z</time></trkpt><trkpt lat="43.0393917" lon="11.4710967"><ele>532.0</ele><time>2026-04-03T15:46:26.252Z</time></trkpt><trkpt lat="43.0392917" lon="11.4711533"><ele>532.0</ele><time>2026-04-03T15:46:27.252Z</time></trkpt><trkpt lat="43.0392" lon="11.47121"><ele>532.0</ele><time>2026-04-03T15:46:28.252Z</time></trkpt><trkpt lat="43.0391033" lon="11.4712767"><ele>532.0</ele><time>2026-04-03T15:46:29.252Z</time></trkpt><trkpt lat="43.039015" lon="11.4713617"><ele>532.0</ele><time>2026-04-03T15:46:30.252Z</time></trkpt><trkpt lat="43.0389417" lon="11.4714517"><ele>532.0</ele><time>2026-04-03T15:46:31.252Z</time></trkpt><trkpt lat="43.038875" lon="11.47156"><ele>532.2</ele><time>2026-04-03T15:46:32.253Z</time></trkpt><trkpt lat="43.0388117" lon="11.47169"><ele>532.4000000000001</ele><time>2026-04-03T15:46:33.252Z</time></trkpt><trkpt lat="43.038755" lon="11.4718233"><ele>532.5999999999999</ele><time>2026-04-03T15:46:34.252Z</time></trkpt><trkpt lat="43.0387083" lon="11.471965"><ele>532.8</ele><time>2026-04-03T15:46:35.252Z</time></trkpt><trkpt lat="43.0386733" lon="11.4720933"><ele>533.0</ele><time>2026-04-03T15:46:36.252Z</time></trkpt><trkpt lat="43.0386467" lon="11.4722283"><ele>536.0</ele><time>2026-04-03T15:46:37.252Z</time></trkpt><trkpt lat="43.0386383" lon="11.4723633"><ele>539.0</ele><time>2026-04-03T15:46:38.252Z</time></trkpt><trkpt lat="43.0386433" lon="11.472495"><ele>542.0</ele><time>2026-04-03T15:46:39.252Z</time></trkpt><trkpt lat="43.0386517" lon="11.4726133"><ele>545.0</ele><time>2026-04-03T15:46:40.253Z</time></trkpt><trkpt lat="43.0386533" lon="11.4727133"><ele>548.0</ele><time>2026-04-03T15:46:41.252Z</time></trkpt><trkpt lat="43.038655" lon="11.47286"><ele>548.0</ele><time>2026-04-03T15:46:43.252Z</time></trkpt><trkpt lat="43.0386783" lon="11.4729683"><ele>560.0</ele><time>2026-04-03T15:46:46.252Z</time></trkpt></trkseg></trk></gpx>